<?xml version="1.0" encoding="UTF-8" standalone="no" ?>
<gpx xmlns="http://www.topografix.com/GPX/1/1" xmlns:xsi="http://www.w3.org/2001/XMLSchema-instance" xsi:schemaLocation="http://www.topografix.com/GPX/1/1 http://www.topografix.com/GPX/1/1/gpx.xsd" version="1.1" creator="VisuGPX - https://www.visugpx.com">
  <metadata>
    <name>AVF - Entre Escamps et Avigneau-13-02-2022</name>
    <desc><![CDATA[Impossible de traverser le ru de Beaulche (trop d'eau)]]></desc>
  </metadata>
  <trk>
    <name><![CDATA[Marche matinale]]></name>
    <extensions>
      <line xmlns="http://www.topografix.com/GPX/gpx_style/0/2">
        <color>0000FF</color>
        <width>4</width>
      </line>
    </extensions>
    <trkseg>
      <trkpt lat="47.71931" lon="3.48535">
        <ele>178.6</ele>
        <time>2022-01-12T08:15:20Z</time>
      </trkpt>
      <trkpt lat="47.71932" lon="3.48534">
        <ele>178.6</ele>
        <time>2022-01-12T08:15:21Z</time>
      </trkpt>
      <trkpt lat="47.71932" lon="3.48535">
        <ele>178.6</ele>
        <time>2022-01-12T08:15:22Z</time>
      </trkpt>
      <trkpt lat="47.71932" lon="3.48536">
        <ele>178.6</ele>
        <time>2022-01-12T08:15:23Z</time>
      </trkpt>
      <trkpt lat="47.71932" lon="3.48536">
        <ele>178.6</ele>
        <time>2022-01-12T08:15:24Z</time>
      </trkpt>
      <trkpt lat="47.71932" lon="3.48536">
        <ele>178.6</ele>
        <time>2022-01-12T08:15:25Z</time>
      </trkpt>
      <trkpt lat="47.71932" lon="3.48536">
        <ele>178.6</ele>
        <time>2022-01-12T08:15:27Z</time>
      </trkpt>
      <trkpt lat="47.71932" lon="3.48536">
        <ele>178.6</ele>
        <time>2022-01-12T08:15:28Z</time>
      </trkpt>
      <trkpt lat="47.71933" lon="3.48536">
        <ele>178.6</ele>
        <time>2022-01-12T08:15:29Z</time>
      </trkpt>
      <trkpt lat="47.71933" lon="3.48536">
        <ele>178.6</ele>
        <time>2022-01-12T08:15:30Z</time>
      </trkpt>
      <trkpt lat="47.71933" lon="3.48536">
        <ele>178.6</ele>
        <time>2022-01-12T08:15:31Z</time>
      </trkpt>
      <trkpt lat="47.71933" lon="3.48536">
        <ele>178.6</ele>
        <time>2022-01-12T08:15:32Z</time>
      </trkpt>
      <trkpt lat="47.71933" lon="3.48536">
        <ele>178.6</ele>
        <time>2022-01-12T08:15:33Z</time>
      </trkpt>
      <trkpt lat="47.71933" lon="3.48537">
        <ele>178.6</ele>
        <time>2022-01-12T08:15:34Z</time>
      </trkpt>
      <trkpt lat="47.71933" lon="3.48537">
        <ele>178.6</ele>
        <time>2022-01-12T08:15:35Z</time>
      </trkpt>
      <trkpt lat="47.71932" lon="3.48537">
        <ele>178.6</ele>
        <time>2022-01-12T08:15:36Z</time>
      </trkpt>
      <trkpt lat="47.71932" lon="3.48537">
        <ele>178.6</ele>
        <time>2022-01-12T08:15:37Z</time>
      </trkpt>
      <trkpt lat="47.71932" lon="3.48537">
        <ele>178.6</ele>
        <time>2022-01-12T08:15:38Z</time>
      </trkpt>
      <trkpt lat="47.71932" lon="3.48537">
        <ele>178.6</ele>
        <time>2022-01-12T08:15:39Z</time>
      </trkpt>
      <trkpt lat="47.71932" lon="3.48537">
        <ele>178.7</ele>
        <time>2022-01-12T08:15:40Z</time>
      </trkpt>
      <trkpt lat="47.71932" lon="3.48537">
        <ele>178.7</ele>
        <time>2022-01-12T08:15:41Z</time>
      </trkpt>
      <trkpt lat="47.71932" lon="3.48537">
        <ele>178.7</ele>
        <time>2022-01-12T08:15:42Z</time>
      </trkpt>
      <trkpt lat="47.71932" lon="3.48537">
        <ele>178.7</ele>
        <time>2022-01-12T08:15:43Z</time>
      </trkpt>
      <trkpt lat="47.71932" lon="3.48537">
        <ele>178.7</ele>
        <time>2022-01-12T08:15:44Z</time>
      </trkpt>
      <trkpt lat="47.71932" lon="3.48537">
        <ele>178.7</ele>
        <time>2022-01-12T08:15:45Z</time>
      </trkpt>
      <trkpt lat="47.71932" lon="3.48537">
        <ele>178.7</ele>
        <time>2022-01-12T08:15:46Z</time>
      </trkpt>
      <trkpt lat="47.71932" lon="3.48537">
        <ele>178.7</ele>
        <time>2022-01-12T08:15:48Z</time>
      </trkpt>
      <trkpt lat="47.71932" lon="3.48537">
        <ele>178.7</ele>
        <time>2022-01-12T08:15:49Z</time>
      </trkpt>
      <trkpt lat="47.71932" lon="3.48537">
        <ele>178.7</ele>
        <time>2022-01-12T08:15:50Z</time>
      </trkpt>
      <trkpt lat="47.71932" lon="3.48537">
        <ele>178.7</ele>
        <time>2022-01-12T08:15:51Z</time>
      </trkpt>
      <trkpt lat="47.71932" lon="3.48537">
        <ele>178.7</ele>
        <time>2022-01-12T08:15:52Z</time>
      </trkpt>
      <trkpt lat="47.71932" lon="3.48538">
        <ele>178.7</ele>
        <time>2022-01-12T08:15:53Z</time>
      </trkpt>
      <trkpt lat="47.71932" lon="3.48538">
        <ele>178.7</ele>
        <time>2022-01-12T08:15:54Z</time>
      </trkpt>
      <trkpt lat="47.71932" lon="3.48538">
        <ele>178.7</ele>
        <time>2022-01-12T08:15:55Z</time>
      </trkpt>
      <trkpt lat="47.71932" lon="3.48538">
        <ele>178.7</ele>
        <time>2022-01-12T08:15:56Z</time>
      </trkpt>
      <trkpt lat="47.71932" lon="3.48538">
        <ele>178.7</ele>
        <time>2022-01-12T08:15:57Z</time>
      </trkpt>
      <trkpt lat="47.71932" lon="3.48539">
        <ele>178.7</ele>
        <time>2022-01-12T08:15:59Z</time>
      </trkpt>
      <trkpt lat="47.71932" lon="3.48539">
        <ele>178.7</ele>
        <time>2022-01-12T08:16:00Z</time>
      </trkpt>
      <trkpt lat="47.71932" lon="3.48539">
        <ele>178.7</ele>
        <time>2022-01-12T08:16:01Z</time>
      </trkpt>
      <trkpt lat="47.71931" lon="3.48539">
        <ele>178.7</ele>
        <time>2022-01-12T08:16:03Z</time>
      </trkpt>
      <trkpt lat="47.71931" lon="3.48539">
        <ele>178.7</ele>
        <time>2022-01-12T08:16:04Z</time>
      </trkpt>
      <trkpt lat="47.71931" lon="3.48539">
        <ele>178.7</ele>
        <time>2022-01-12T08:16:05Z</time>
      </trkpt>
      <trkpt lat="47.71931" lon="3.48539">
        <ele>178.7</ele>
        <time>2022-01-12T08:16:06Z</time>
      </trkpt>
      <trkpt lat="47.71931" lon="3.48539">
        <ele>178.7</ele>
        <time>2022-01-12T08:16:07Z</time>
      </trkpt>
      <trkpt lat="47.71931" lon="3.48539">
        <ele>178.7</ele>
        <time>2022-01-12T08:16:08Z</time>
      </trkpt>
      <trkpt lat="47.71931" lon="3.48539">
        <ele>178.7</ele>
        <time>2022-01-12T08:16:09Z</time>
      </trkpt>
      <trkpt lat="47.71931" lon="3.48539">
        <ele>178.7</ele>
        <time>2022-01-12T08:16:10Z</time>
      </trkpt>
      <trkpt lat="47.71931" lon="3.48539">
        <ele>178.7</ele>
        <time>2022-01-12T08:16:11Z</time>
      </trkpt>
      <trkpt lat="47.71931" lon="3.48539">
        <ele>178.7</ele>
        <time>2022-01-12T08:16:12Z</time>
      </trkpt>
      <trkpt lat="47.71931" lon="3.48539">
        <ele>178.7</ele>
        <time>2022-01-12T08:16:13Z</time>
      </trkpt>
      <trkpt lat="47.71931" lon="3.48539">
        <ele>178.7</ele>
        <time>2022-01-12T08:16:14Z</time>
      </trkpt>
      <trkpt lat="47.71931" lon="3.48539">
        <ele>178.7</ele>
        <time>2022-01-12T08:16:16Z</time>
      </trkpt>
      <trkpt lat="47.71931" lon="3.48539">
        <ele>178.7</ele>
        <time>2022-01-12T08:16:17Z</time>
      </trkpt>
      <trkpt lat="47.71931" lon="3.48539">
        <ele>178.7</ele>
        <time>2022-01-12T08:16:18Z</time>
      </trkpt>
      <trkpt lat="47.71931" lon="3.4854">
        <ele>178.7</ele>
        <time>2022-01-12T08:16:19Z</time>
      </trkpt>
      <trkpt lat="47.71932" lon="3.4854">
        <ele>178.7</ele>
        <time>2022-01-12T08:16:21Z</time>
      </trkpt>
      <trkpt lat="47.71932" lon="3.4854">
        <ele>178.7</ele>
        <time>2022-01-12T08:16:22Z</time>
      </trkpt>
      <trkpt lat="47.71932" lon="3.4854">
        <ele>178.7</ele>
        <time>2022-01-12T08:16:23Z</time>
      </trkpt>
      <trkpt lat="47.71932" lon="3.4854">
        <ele>178.7</ele>
        <time>2022-01-12T08:16:24Z</time>
      </trkpt>
      <trkpt lat="47.71932" lon="3.4854">
        <ele>178.7</ele>
        <time>2022-01-12T08:16:25Z</time>
      </trkpt>
      <trkpt lat="47.71932" lon="3.4854">
        <ele>178.7</ele>
        <time>2022-01-12T08:16:26Z</time>
      </trkpt>
      <trkpt lat="47.71932" lon="3.4854">
        <ele>178.7</ele>
        <time>2022-01-12T08:16:28Z</time>
      </trkpt>
      <trkpt lat="47.71932" lon="3.4854">
        <ele>178.7</ele>
        <time>2022-01-12T08:16:29Z</time>
      </trkpt>
      <trkpt lat="47.71933" lon="3.4854">
        <ele>178.7</ele>
        <time>2022-01-12T08:16:30Z</time>
      </trkpt>
      <trkpt lat="47.71933" lon="3.4854">
        <ele>178.7</ele>
        <time>2022-01-12T08:16:32Z</time>
      </trkpt>
      <trkpt lat="47.71933" lon="3.4854">
        <ele>178.7</ele>
        <time>2022-01-12T08:16:33Z</time>
      </trkpt>
      <trkpt lat="47.71933" lon="3.4854">
        <ele>178.7</ele>
        <time>2022-01-12T08:16:34Z</time>
      </trkpt>
      <trkpt lat="47.71933" lon="3.4854">
        <ele>178.7</ele>
        <time>2022-01-12T08:16:35Z</time>
      </trkpt>
      <trkpt lat="47.71933" lon="3.4854">
        <ele>178.7</ele>
        <time>2022-01-12T08:16:36Z</time>
      </trkpt>
      <trkpt lat="47.71933" lon="3.4854">
        <ele>178.7</ele>
        <time>2022-01-12T08:16:37Z</time>
      </trkpt>
      <trkpt lat="47.71933" lon="3.4854">
        <ele>178.7</ele>
        <time>2022-01-12T08:16:39Z</time>
      </trkpt>
      <trkpt lat="47.71933" lon="3.4854">
        <ele>178.7</ele>
        <time>2022-01-12T08:16:40Z</time>
      </trkpt>
      <trkpt lat="47.71933" lon="3.4854">
        <ele>178.7</ele>
        <time>2022-01-12T08:16:41Z</time>
      </trkpt>
      <trkpt lat="47.71933" lon="3.4854">
        <ele>178.7</ele>
        <time>2022-01-12T08:16:42Z</time>
      </trkpt>
      <trkpt lat="47.71933" lon="3.4854">
        <ele>178.7</ele>
        <time>2022-01-12T08:16:43Z</time>
      </trkpt>
      <trkpt lat="47.71933" lon="3.4854">
        <ele>178.7</ele>
        <time>2022-01-12T08:16:45Z</time>
      </trkpt>
      <trkpt lat="47.71933" lon="3.4854">
        <ele>178.7</ele>
        <time>2022-01-12T08:16:46Z</time>
      </trkpt>
      <trkpt lat="47.71933" lon="3.4854">
        <ele>178.7</ele>
        <time>2022-01-12T08:16:47Z</time>
      </trkpt>
      <trkpt lat="47.71933" lon="3.4854">
        <ele>178.7</ele>
        <time>2022-01-12T08:16:48Z</time>
      </trkpt>
      <trkpt lat="47.71933" lon="3.4854">
        <ele>178.7</ele>
        <time>2022-01-12T08:16:49Z</time>
      </trkpt>
      <trkpt lat="47.71933" lon="3.4854">
        <ele>178.7</ele>
        <time>2022-01-12T08:16:50Z</time>
      </trkpt>
      <trkpt lat="47.71933" lon="3.4854">
        <ele>178.7</ele>
        <time>2022-01-12T08:16:51Z</time>
      </trkpt>
      <trkpt lat="47.71933" lon="3.4854">
        <ele>178.7</ele>
        <time>2022-01-12T08:16:52Z</time>
      </trkpt>
      <trkpt lat="47.71933" lon="3.4854">
        <ele>178.7</ele>
        <time>2022-01-12T08:16:53Z</time>
      </trkpt>
      <trkpt lat="47.71933" lon="3.4854">
        <ele>178.7</ele>
        <time>2022-01-12T08:16:54Z</time>
      </trkpt>
      <trkpt lat="47.71933" lon="3.4854">
        <ele>178.7</ele>
        <time>2022-01-12T08:16:55Z</time>
      </trkpt>
      <trkpt lat="47.71933" lon="3.4854">
        <ele>178.7</ele>
        <time>2022-01-12T08:16:56Z</time>
      </trkpt>
      <trkpt lat="47.71933" lon="3.4854">
        <ele>178.7</ele>
        <time>2022-01-12T08:16:57Z</time>
      </trkpt>
      <trkpt lat="47.71933" lon="3.48541">
        <ele>178.7</ele>
        <time>2022-01-12T08:16:59Z</time>
      </trkpt>
      <trkpt lat="47.71933" lon="3.4854">
        <ele>178.7</ele>
        <time>2022-01-12T08:17:00Z</time>
      </trkpt>
      <trkpt lat="47.71933" lon="3.4854">
        <ele>178.7</ele>
        <time>2022-01-12T08:17:01Z</time>
      </trkpt>
      <trkpt lat="47.71933" lon="3.4854">
        <ele>178.7</ele>
        <time>2022-01-12T08:17:03Z</time>
      </trkpt>
      <trkpt lat="47.71933" lon="3.4854">
        <ele>178.7</ele>
        <time>2022-01-12T08:17:04Z</time>
      </trkpt>
      <trkpt lat="47.71933" lon="3.48539">
        <ele>178.7</ele>
        <time>2022-01-12T08:17:05Z</time>
      </trkpt>
      <trkpt lat="47.71933" lon="3.48539">
        <ele>178.7</ele>
        <time>2022-01-12T08:17:07Z</time>
      </trkpt>
      <trkpt lat="47.71933" lon="3.48539">
        <ele>178.7</ele>
        <time>2022-01-12T08:17:08Z</time>
      </trkpt>
      <trkpt lat="47.71933" lon="3.48539">
        <ele>178.7</ele>
        <time>2022-01-12T08:17:09Z</time>
      </trkpt>
      <trkpt lat="47.71933" lon="3.48538">
        <ele>178.7</ele>
        <time>2022-01-12T08:17:11Z</time>
      </trkpt>
      <trkpt lat="47.71933" lon="3.48538">
        <ele>178.7</ele>
        <time>2022-01-12T08:17:12Z</time>
      </trkpt>
      <trkpt lat="47.71933" lon="3.48537">
        <ele>178.6</ele>
        <time>2022-01-12T08:17:14Z</time>
      </trkpt>
      <trkpt lat="47.71933" lon="3.48536">
        <ele>178.6</ele>
        <time>2022-01-12T08:17:16Z</time>
      </trkpt>
      <trkpt lat="47.71933" lon="3.48536">
        <ele>178.6</ele>
        <time>2022-01-12T08:17:17Z</time>
      </trkpt>
      <trkpt lat="47.71933" lon="3.48535">
        <ele>178.6</ele>
        <time>2022-01-12T08:17:19Z</time>
      </trkpt>
      <trkpt lat="47.71933" lon="3.48534">
        <ele>178.6</ele>
        <time>2022-01-12T08:17:20Z</time>
      </trkpt>
      <trkpt lat="47.71933" lon="3.48532">
        <ele>178.4</ele>
        <time>2022-01-12T08:17:22Z</time>
      </trkpt>
      <trkpt lat="47.71932" lon="3.4853">
        <ele>178.4</ele>
        <time>2022-01-12T08:17:23Z</time>
      </trkpt>
      <trkpt lat="47.71931" lon="3.48529">
        <ele>178.5</ele>
        <time>2022-01-12T08:17:24Z</time>
      </trkpt>
      <trkpt lat="47.71931" lon="3.48525">
        <ele>178.3</ele>
        <time>2022-01-12T08:17:26Z</time>
      </trkpt>
      <trkpt lat="47.7193" lon="3.48522">
        <ele>178.2</ele>
        <time>2022-01-12T08:17:27Z</time>
      </trkpt>
      <trkpt lat="47.7193" lon="3.48521">
        <ele>178.2</ele>
        <time>2022-01-12T08:17:28Z</time>
      </trkpt>
      <trkpt lat="47.7193" lon="3.4852">
        <ele>178</ele>
        <time>2022-01-12T08:17:29Z</time>
      </trkpt>
      <trkpt lat="47.7193" lon="3.48518">
        <ele>178</ele>
        <time>2022-01-12T08:17:30Z</time>
      </trkpt>
      <trkpt lat="47.7193" lon="3.48514">
        <ele>177.9</ele>
        <time>2022-01-12T08:17:32Z</time>
      </trkpt>
      <trkpt lat="47.71931" lon="3.48512">
        <ele>177.9</ele>
        <time>2022-01-12T08:17:33Z</time>
      </trkpt>
      <trkpt lat="47.71931" lon="3.48511">
        <ele>177.7</ele>
        <time>2022-01-12T08:17:34Z</time>
      </trkpt>
      <trkpt lat="47.71932" lon="3.4851">
        <ele>177.7</ele>
        <time>2022-01-12T08:17:35Z</time>
      </trkpt>
      <trkpt lat="47.71932" lon="3.48509">
        <ele>177.7</ele>
        <time>2022-01-12T08:17:36Z</time>
      </trkpt>
      <trkpt lat="47.71932" lon="3.48507">
        <ele>177.5</ele>
        <time>2022-01-12T08:17:37Z</time>
      </trkpt>
      <trkpt lat="47.71932" lon="3.48506">
        <ele>177.5</ele>
        <time>2022-01-12T08:17:38Z</time>
      </trkpt>
      <trkpt lat="47.71932" lon="3.48504">
        <ele>177.5</ele>
        <time>2022-01-12T08:17:39Z</time>
      </trkpt>
      <trkpt lat="47.71932" lon="3.48502">
        <ele>177.3</ele>
        <time>2022-01-12T08:17:41Z</time>
      </trkpt>
      <trkpt lat="47.71932" lon="3.485">
        <ele>177.3</ele>
        <time>2022-01-12T08:17:42Z</time>
      </trkpt>
      <trkpt lat="47.71933" lon="3.48498">
        <ele>177.1</ele>
        <time>2022-01-12T08:17:44Z</time>
      </trkpt>
      <trkpt lat="47.71933" lon="3.48497">
        <ele>177.1</ele>
        <time>2022-01-12T08:17:45Z</time>
      </trkpt>
      <trkpt lat="47.71933" lon="3.48497">
        <ele>177.1</ele>
        <time>2022-01-12T08:17:46Z</time>
      </trkpt>
      <trkpt lat="47.71933" lon="3.48496">
        <ele>177.1</ele>
        <time>2022-01-12T08:17:47Z</time>
      </trkpt>
      <trkpt lat="47.71933" lon="3.48496">
        <ele>177.1</ele>
        <time>2022-01-12T08:17:48Z</time>
      </trkpt>
      <trkpt lat="47.71933" lon="3.48496">
        <ele>177.1</ele>
        <time>2022-01-12T08:17:49Z</time>
      </trkpt>
      <trkpt lat="47.71933" lon="3.48497">
        <ele>177.1</ele>
        <time>2022-01-12T08:17:50Z</time>
      </trkpt>
      <trkpt lat="47.71933" lon="3.48497">
        <ele>177.1</ele>
        <time>2022-01-12T08:17:51Z</time>
      </trkpt>
      <trkpt lat="47.71933" lon="3.48497">
        <ele>177.1</ele>
        <time>2022-01-12T08:17:52Z</time>
      </trkpt>
      <trkpt lat="47.71933" lon="3.48497">
        <ele>177.1</ele>
        <time>2022-01-12T08:17:53Z</time>
      </trkpt>
      <trkpt lat="47.71933" lon="3.48497">
        <ele>177.1</ele>
        <time>2022-01-12T08:17:55Z</time>
      </trkpt>
      <trkpt lat="47.71932" lon="3.48497">
        <ele>177.1</ele>
        <time>2022-01-12T08:17:56Z</time>
      </trkpt>
      <trkpt lat="47.71932" lon="3.48497">
        <ele>177.1</ele>
        <time>2022-01-12T08:17:57Z</time>
      </trkpt>
      <trkpt lat="47.71932" lon="3.48497">
        <ele>177.1</ele>
        <time>2022-01-12T08:17:58Z</time>
      </trkpt>
      <trkpt lat="47.71932" lon="3.48497">
        <ele>177.1</ele>
        <time>2022-01-12T08:17:59Z</time>
      </trkpt>
      <trkpt lat="47.71932" lon="3.48497">
        <ele>177.1</ele>
        <time>2022-01-12T08:18:00Z</time>
      </trkpt>
      <trkpt lat="47.71932" lon="3.48497">
        <ele>177.1</ele>
        <time>2022-01-12T08:18:01Z</time>
      </trkpt>
      <trkpt lat="47.71932" lon="3.48497">
        <ele>177.1</ele>
        <time>2022-01-12T08:18:02Z</time>
      </trkpt>
      <trkpt lat="47.71932" lon="3.48498">
        <ele>177.1</ele>
        <time>2022-01-12T08:18:03Z</time>
      </trkpt>
      <trkpt lat="47.71932" lon="3.48498">
        <ele>177.1</ele>
        <time>2022-01-12T08:18:04Z</time>
      </trkpt>
      <trkpt lat="47.71932" lon="3.48497">
        <ele>177.1</ele>
        <time>2022-01-12T08:18:05Z</time>
      </trkpt>
      <trkpt lat="47.71931" lon="3.48497">
        <ele>177.1</ele>
        <time>2022-01-12T08:18:06Z</time>
      </trkpt>
      <trkpt lat="47.71931" lon="3.48497">
        <ele>177.1</ele>
        <time>2022-01-12T08:18:08Z</time>
      </trkpt>
      <trkpt lat="47.7193" lon="3.48496">
        <ele>177.1</ele>
        <time>2022-01-12T08:18:09Z</time>
      </trkpt>
      <trkpt lat="47.7193" lon="3.48496">
        <ele>177.1</ele>
        <time>2022-01-12T08:18:10Z</time>
      </trkpt>
      <trkpt lat="47.7193" lon="3.48496">
        <ele>177.1</ele>
        <time>2022-01-12T08:18:11Z</time>
      </trkpt>
      <trkpt lat="47.7193" lon="3.48495">
        <ele>177.1</ele>
        <time>2022-01-12T08:18:12Z</time>
      </trkpt>
      <trkpt lat="47.7193" lon="3.48495">
        <ele>177.1</ele>
        <time>2022-01-12T08:18:13Z</time>
      </trkpt>
      <trkpt lat="47.7193" lon="3.48495">
        <ele>177.1</ele>
        <time>2022-01-12T08:18:14Z</time>
      </trkpt>
      <trkpt lat="47.7193" lon="3.48495">
        <ele>177.1</ele>
        <time>2022-01-12T08:18:15Z</time>
      </trkpt>
      <trkpt lat="47.7193" lon="3.48495">
        <ele>177.1</ele>
        <time>2022-01-12T08:18:16Z</time>
      </trkpt>
      <trkpt lat="47.7193" lon="3.48495">
        <ele>177.1</ele>
        <time>2022-01-12T08:18:17Z</time>
      </trkpt>
      <trkpt lat="47.71931" lon="3.48495">
        <ele>177.1</ele>
        <time>2022-01-12T08:18:18Z</time>
      </trkpt>
      <trkpt lat="47.71931" lon="3.48495">
        <ele>177.1</ele>
        <time>2022-01-12T08:18:19Z</time>
      </trkpt>
      <trkpt lat="47.71931" lon="3.48495">
        <ele>177.1</ele>
        <time>2022-01-12T08:18:20Z</time>
      </trkpt>
      <trkpt lat="47.71931" lon="3.48495">
        <ele>177.1</ele>
        <time>2022-01-12T08:18:21Z</time>
      </trkpt>
      <trkpt lat="47.71931" lon="3.48495">
        <ele>177.1</ele>
        <time>2022-01-12T08:18:22Z</time>
      </trkpt>
      <trkpt lat="47.71931" lon="3.48495">
        <ele>177.1</ele>
        <time>2022-01-12T08:18:23Z</time>
      </trkpt>
      <trkpt lat="47.71931" lon="3.48495">
        <ele>177.1</ele>
        <time>2022-01-12T08:18:24Z</time>
      </trkpt>
      <trkpt lat="47.71931" lon="3.48494">
        <ele>177.1</ele>
        <time>2022-01-12T08:18:25Z</time>
      </trkpt>
      <trkpt lat="47.71932" lon="3.48493">
        <ele>177</ele>
        <time>2022-01-12T08:18:27Z</time>
      </trkpt>
      <trkpt lat="47.71932" lon="3.48493">
        <ele>176.9</ele>
        <time>2022-01-12T08:18:28Z</time>
      </trkpt>
      <trkpt lat="47.71932" lon="3.48492">
        <ele>176.9</ele>
        <time>2022-01-12T08:18:29Z</time>
      </trkpt>
      <trkpt lat="47.71933" lon="3.48492">
        <ele>176.9</ele>
        <time>2022-01-12T08:18:30Z</time>
      </trkpt>
      <trkpt lat="47.71934" lon="3.48491">
        <ele>176.9</ele>
        <time>2022-01-12T08:18:31Z</time>
      </trkpt>
      <trkpt lat="47.71936" lon="3.48491">
        <ele>176.9</ele>
        <time>2022-01-12T08:18:33Z</time>
      </trkpt>
      <trkpt lat="47.71937" lon="3.4849">
        <ele>176.9</ele>
        <time>2022-01-12T08:18:34Z</time>
      </trkpt>
      <trkpt lat="47.71937" lon="3.4849">
        <ele>176.9</ele>
        <time>2022-01-12T08:18:35Z</time>
      </trkpt>
      <trkpt lat="47.71938" lon="3.4849">
        <ele>176.9</ele>
        <time>2022-01-12T08:18:36Z</time>
      </trkpt>
      <trkpt lat="47.71939" lon="3.4849">
        <ele>176.9</ele>
        <time>2022-01-12T08:18:37Z</time>
      </trkpt>
      <trkpt lat="47.71939" lon="3.4849">
        <ele>176.9</ele>
        <time>2022-01-12T08:18:38Z</time>
      </trkpt>
      <trkpt lat="47.71939" lon="3.4849">
        <ele>176.9</ele>
        <time>2022-01-12T08:18:39Z</time>
      </trkpt>
      <trkpt lat="47.71939" lon="3.4849">
        <ele>176.9</ele>
        <time>2022-01-12T08:18:40Z</time>
      </trkpt>
      <trkpt lat="47.71939" lon="3.4849">
        <ele>176.9</ele>
        <time>2022-01-12T08:18:41Z</time>
      </trkpt>
      <trkpt lat="47.71939" lon="3.4849">
        <ele>176.8</ele>
        <time>2022-01-12T08:18:42Z</time>
      </trkpt>
      <trkpt lat="47.71939" lon="3.4849">
        <ele>176.9</ele>
        <time>2022-01-12T08:18:43Z</time>
      </trkpt>
      <trkpt lat="47.71939" lon="3.4849">
        <ele>176.9</ele>
        <time>2022-01-12T08:18:44Z</time>
      </trkpt>
      <trkpt lat="47.71939" lon="3.4849">
        <ele>176.9</ele>
        <time>2022-01-12T08:18:45Z</time>
      </trkpt>
      <trkpt lat="47.71939" lon="3.4849">
        <ele>176.9</ele>
        <time>2022-01-12T08:18:46Z</time>
      </trkpt>
      <trkpt lat="47.71938" lon="3.4849">
        <ele>176.9</ele>
        <time>2022-01-12T08:18:47Z</time>
      </trkpt>
      <trkpt lat="47.71938" lon="3.4849">
        <ele>176.9</ele>
        <time>2022-01-12T08:18:48Z</time>
      </trkpt>
      <trkpt lat="47.71938" lon="3.48491">
        <ele>176.9</ele>
        <time>2022-01-12T08:18:49Z</time>
      </trkpt>
      <trkpt lat="47.71938" lon="3.48491">
        <ele>176.9</ele>
        <time>2022-01-12T08:18:50Z</time>
      </trkpt>
      <trkpt lat="47.71938" lon="3.48491">
        <ele>176.9</ele>
        <time>2022-01-12T08:18:51Z</time>
      </trkpt>
      <trkpt lat="47.71938" lon="3.48492">
        <ele>176.9</ele>
        <time>2022-01-12T08:18:52Z</time>
      </trkpt>
      <trkpt lat="47.71938" lon="3.48492">
        <ele>176.9</ele>
        <time>2022-01-12T08:18:53Z</time>
      </trkpt>
      <trkpt lat="47.71938" lon="3.48493">
        <ele>176.9</ele>
        <time>2022-01-12T08:18:55Z</time>
      </trkpt>
      <trkpt lat="47.71937" lon="3.48493">
        <ele>176.9</ele>
        <time>2022-01-12T08:18:56Z</time>
      </trkpt>
      <trkpt lat="47.71937" lon="3.48493">
        <ele>176.9</ele>
        <time>2022-01-12T08:18:57Z</time>
      </trkpt>
      <trkpt lat="47.71937" lon="3.48493">
        <ele>176.9</ele>
        <time>2022-01-12T08:18:58Z</time>
      </trkpt>
      <trkpt lat="47.71937" lon="3.48494">
        <ele>176.9</ele>
        <time>2022-01-12T08:18:59Z</time>
      </trkpt>
      <trkpt lat="47.71938" lon="3.48494">
        <ele>176.9</ele>
        <time>2022-01-12T08:19:00Z</time>
      </trkpt>
      <trkpt lat="47.71937" lon="3.48494">
        <ele>176.9</ele>
        <time>2022-01-12T08:19:01Z</time>
      </trkpt>
      <trkpt lat="47.71937" lon="3.48495">
        <ele>177.1</ele>
        <time>2022-01-12T08:19:02Z</time>
      </trkpt>
      <trkpt lat="47.71937" lon="3.48495">
        <ele>177.1</ele>
        <time>2022-01-12T08:19:03Z</time>
      </trkpt>
      <trkpt lat="47.71938" lon="3.48495">
        <ele>177.1</ele>
        <time>2022-01-12T08:19:04Z</time>
      </trkpt>
      <trkpt lat="47.71938" lon="3.48495">
        <ele>177.1</ele>
        <time>2022-01-12T08:19:06Z</time>
      </trkpt>
      <trkpt lat="47.71938" lon="3.48496">
        <ele>177.1</ele>
        <time>2022-01-12T08:19:07Z</time>
      </trkpt>
      <trkpt lat="47.71938" lon="3.48496">
        <ele>177.1</ele>
        <time>2022-01-12T08:19:08Z</time>
      </trkpt>
      <trkpt lat="47.71938" lon="3.48496">
        <ele>177.1</ele>
        <time>2022-01-12T08:19:09Z</time>
      </trkpt>
      <trkpt lat="47.71938" lon="3.48496">
        <ele>177.1</ele>
        <time>2022-01-12T08:19:10Z</time>
      </trkpt>
      <trkpt lat="47.71938" lon="3.48496">
        <ele>177.1</ele>
        <time>2022-01-12T08:19:11Z</time>
      </trkpt>
      <trkpt lat="47.71938" lon="3.48496">
        <ele>177.1</ele>
        <time>2022-01-12T08:19:13Z</time>
      </trkpt>
      <trkpt lat="47.71938" lon="3.48497">
        <ele>177.1</ele>
        <time>2022-01-12T08:19:14Z</time>
      </trkpt>
      <trkpt lat="47.71938" lon="3.48497">
        <ele>177.1</ele>
        <time>2022-01-12T08:19:15Z</time>
      </trkpt>
      <trkpt lat="47.71938" lon="3.48497">
        <ele>177.1</ele>
        <time>2022-01-12T08:19:16Z</time>
      </trkpt>
      <trkpt lat="47.71938" lon="3.48497">
        <ele>177.1</ele>
        <time>2022-01-12T08:19:17Z</time>
      </trkpt>
      <trkpt lat="47.71938" lon="3.48497">
        <ele>177.1</ele>
        <time>2022-01-12T08:19:18Z</time>
      </trkpt>
      <trkpt lat="47.71938" lon="3.48497">
        <ele>177.1</ele>
        <time>2022-01-12T08:19:19Z</time>
      </trkpt>
      <trkpt lat="47.71938" lon="3.48497">
        <ele>177.1</ele>
        <time>2022-01-12T08:19:20Z</time>
      </trkpt>
      <trkpt lat="47.71938" lon="3.48497">
        <ele>177.1</ele>
        <time>2022-01-12T08:19:21Z</time>
      </trkpt>
      <trkpt lat="47.71938" lon="3.48497">
        <ele>177.1</ele>
        <time>2022-01-12T08:19:22Z</time>
      </trkpt>
      <trkpt lat="47.71938" lon="3.48497">
        <ele>177.1</ele>
        <time>2022-01-12T08:19:23Z</time>
      </trkpt>
      <trkpt lat="47.71938" lon="3.48497">
        <ele>177.1</ele>
        <time>2022-01-12T08:19:24Z</time>
      </trkpt>
      <trkpt lat="47.71938" lon="3.48497">
        <ele>177.1</ele>
        <time>2022-01-12T08:19:25Z</time>
      </trkpt>
      <trkpt lat="47.71938" lon="3.48497">
        <ele>177.1</ele>
        <time>2022-01-12T08:19:26Z</time>
      </trkpt>
      <trkpt lat="47.71938" lon="3.48497">
        <ele>177.1</ele>
        <time>2022-01-12T08:19:27Z</time>
      </trkpt>
      <trkpt lat="47.71938" lon="3.48497">
        <ele>177.1</ele>
        <time>2022-01-12T08:19:28Z</time>
      </trkpt>
      <trkpt lat="47.71938" lon="3.48497">
        <ele>177.1</ele>
        <time>2022-01-12T08:19:29Z</time>
      </trkpt>
      <trkpt lat="47.71938" lon="3.48497">
        <ele>177.1</ele>
        <time>2022-01-12T08:19:30Z</time>
      </trkpt>
      <trkpt lat="47.71938" lon="3.48497">
        <ele>177.1</ele>
        <time>2022-01-12T08:19:31Z</time>
      </trkpt>
      <trkpt lat="47.71938" lon="3.48498">
        <ele>177.1</ele>
        <time>2022-01-12T08:19:32Z</time>
      </trkpt>
      <trkpt lat="47.71938" lon="3.48498">
        <ele>177.1</ele>
        <time>2022-01-12T08:19:33Z</time>
      </trkpt>
      <trkpt lat="47.71938" lon="3.48498">
        <ele>177.1</ele>
        <time>2022-01-12T08:19:34Z</time>
      </trkpt>
      <trkpt lat="47.71938" lon="3.48498">
        <ele>177.1</ele>
        <time>2022-01-12T08:19:35Z</time>
      </trkpt>
      <trkpt lat="47.71938" lon="3.48498">
        <ele>177.1</ele>
        <time>2022-01-12T08:19:36Z</time>
      </trkpt>
      <trkpt lat="47.71938" lon="3.48498">
        <ele>177.1</ele>
        <time>2022-01-12T08:19:37Z</time>
      </trkpt>
      <trkpt lat="47.71938" lon="3.48498">
        <ele>177.1</ele>
        <time>2022-01-12T08:19:38Z</time>
      </trkpt>
      <trkpt lat="47.71938" lon="3.48498">
        <ele>177.1</ele>
        <time>2022-01-12T08:19:39Z</time>
      </trkpt>
      <trkpt lat="47.71937" lon="3.48498">
        <ele>177.1</ele>
        <time>2022-01-12T08:19:40Z</time>
      </trkpt>
      <trkpt lat="47.71937" lon="3.48498">
        <ele>177.3</ele>
        <time>2022-01-12T08:19:41Z</time>
      </trkpt>
      <trkpt lat="47.71937" lon="3.48499">
        <ele>177.3</ele>
        <time>2022-01-12T08:19:42Z</time>
      </trkpt>
      <trkpt lat="47.71937" lon="3.48498">
        <ele>177.3</ele>
        <time>2022-01-12T08:19:43Z</time>
      </trkpt>
      <trkpt lat="47.71937" lon="3.48498">
        <ele>177.1</ele>
        <time>2022-01-12T08:19:44Z</time>
      </trkpt>
      <trkpt lat="47.71937" lon="3.48498">
        <ele>177.3</ele>
        <time>2022-01-12T08:19:45Z</time>
      </trkpt>
      <trkpt lat="47.71937" lon="3.48499">
        <ele>177.3</ele>
        <time>2022-01-12T08:19:46Z</time>
      </trkpt>
      <trkpt lat="47.71938" lon="3.48499">
        <ele>177.3</ele>
        <time>2022-01-12T08:19:47Z</time>
      </trkpt>
      <trkpt lat="47.71938" lon="3.48499">
        <ele>177.3</ele>
        <time>2022-01-12T08:19:48Z</time>
      </trkpt>
      <trkpt lat="47.71938" lon="3.48499">
        <ele>177.3</ele>
        <time>2022-01-12T08:19:49Z</time>
      </trkpt>
      <trkpt lat="47.71938" lon="3.48499">
        <ele>177.3</ele>
        <time>2022-01-12T08:19:50Z</time>
      </trkpt>
      <trkpt lat="47.71937" lon="3.48499">
        <ele>177.3</ele>
        <time>2022-01-12T08:19:51Z</time>
      </trkpt>
      <trkpt lat="47.71937" lon="3.48499">
        <ele>177.3</ele>
        <time>2022-01-12T08:19:52Z</time>
      </trkpt>
      <trkpt lat="47.71937" lon="3.48499">
        <ele>177.3</ele>
        <time>2022-01-12T08:19:53Z</time>
      </trkpt>
      <trkpt lat="47.71937" lon="3.48499">
        <ele>177.3</ele>
        <time>2022-01-12T08:19:54Z</time>
      </trkpt>
      <trkpt lat="47.71937" lon="3.48499">
        <ele>177.3</ele>
        <time>2022-01-12T08:19:55Z</time>
      </trkpt>
      <trkpt lat="47.71937" lon="3.48499">
        <ele>177.3</ele>
        <time>2022-01-12T08:19:56Z</time>
      </trkpt>
      <trkpt lat="47.71937" lon="3.48499">
        <ele>177.3</ele>
        <time>2022-01-12T08:19:57Z</time>
      </trkpt>
      <trkpt lat="47.71937" lon="3.48499">
        <ele>177.3</ele>
        <time>2022-01-12T08:19:58Z</time>
      </trkpt>
      <trkpt lat="47.71937" lon="3.48499">
        <ele>177.3</ele>
        <time>2022-01-12T08:19:59Z</time>
      </trkpt>
      <trkpt lat="47.71937" lon="3.48499">
        <ele>177.3</ele>
        <time>2022-01-12T08:20:00Z</time>
      </trkpt>
      <trkpt lat="47.71937" lon="3.48499">
        <ele>177.3</ele>
        <time>2022-01-12T08:20:01Z</time>
      </trkpt>
      <trkpt lat="47.71937" lon="3.48499">
        <ele>177.3</ele>
        <time>2022-01-12T08:20:02Z</time>
      </trkpt>
      <trkpt lat="47.71937" lon="3.48499">
        <ele>177.3</ele>
        <time>2022-01-12T08:20:03Z</time>
      </trkpt>
      <trkpt lat="47.71937" lon="3.48499">
        <ele>177.3</ele>
        <time>2022-01-12T08:20:04Z</time>
      </trkpt>
      <trkpt lat="47.71937" lon="3.48499">
        <ele>177.3</ele>
        <time>2022-01-12T08:20:05Z</time>
      </trkpt>
      <trkpt lat="47.71937" lon="3.48499">
        <ele>177.3</ele>
        <time>2022-01-12T08:20:06Z</time>
      </trkpt>
      <trkpt lat="47.71937" lon="3.48499">
        <ele>177.3</ele>
        <time>2022-01-12T08:20:07Z</time>
      </trkpt>
      <trkpt lat="47.71937" lon="3.48499">
        <ele>177.3</ele>
        <time>2022-01-12T08:20:08Z</time>
      </trkpt>
      <trkpt lat="47.71937" lon="3.485">
        <ele>177.3</ele>
        <time>2022-01-12T08:20:09Z</time>
      </trkpt>
      <trkpt lat="47.71936" lon="3.48501">
        <ele>177.3</ele>
        <time>2022-01-12T08:20:10Z</time>
      </trkpt>
      <trkpt lat="47.71936" lon="3.48501">
        <ele>177.3</ele>
        <time>2022-01-12T08:20:11Z</time>
      </trkpt>
      <trkpt lat="47.71936" lon="3.48501">
        <ele>177.3</ele>
        <time>2022-01-12T08:20:12Z</time>
      </trkpt>
      <trkpt lat="47.71936" lon="3.48502">
        <ele>177.3</ele>
        <time>2022-01-12T08:20:13Z</time>
      </trkpt>
      <trkpt lat="47.71935" lon="3.48504">
        <ele>177.5</ele>
        <time>2022-01-12T08:20:15Z</time>
      </trkpt>
      <trkpt lat="47.71935" lon="3.48505">
        <ele>177.5</ele>
        <time>2022-01-12T08:20:16Z</time>
      </trkpt>
      <trkpt lat="47.71934" lon="3.48506">
        <ele>177.5</ele>
        <time>2022-01-12T08:20:17Z</time>
      </trkpt>
      <trkpt lat="47.71933" lon="3.48507">
        <ele>177.5</ele>
        <time>2022-01-12T08:20:19Z</time>
      </trkpt>
      <trkpt lat="47.71932" lon="3.48508">
        <ele>177.7</ele>
        <time>2022-01-12T08:20:20Z</time>
      </trkpt>
      <trkpt lat="47.71932" lon="3.48508">
        <ele>177.7</ele>
        <time>2022-01-12T08:20:21Z</time>
      </trkpt>
      <trkpt lat="47.71931" lon="3.48509">
        <ele>177.7</ele>
        <time>2022-01-12T08:20:22Z</time>
      </trkpt>
      <trkpt lat="47.71931" lon="3.4851">
        <ele>177.7</ele>
        <time>2022-01-12T08:20:23Z</time>
      </trkpt>
      <trkpt lat="47.7193" lon="3.48511">
        <ele>177.7</ele>
        <time>2022-01-12T08:20:25Z</time>
      </trkpt>
      <trkpt lat="47.7193" lon="3.48513">
        <ele>177.9</ele>
        <time>2022-01-12T08:20:26Z</time>
      </trkpt>
      <trkpt lat="47.7193" lon="3.48515">
        <ele>177.9</ele>
        <time>2022-01-12T08:20:27Z</time>
      </trkpt>
      <trkpt lat="47.71931" lon="3.48516">
        <ele>178</ele>
        <time>2022-01-12T08:20:29Z</time>
      </trkpt>
      <trkpt lat="47.71932" lon="3.48519">
        <ele>178</ele>
        <time>2022-01-12T08:20:30Z</time>
      </trkpt>
      <trkpt lat="47.71932" lon="3.48521">
        <ele>178.2</ele>
        <time>2022-01-12T08:20:31Z</time>
      </trkpt>
      <trkpt lat="47.71932" lon="3.48522">
        <ele>178.2</ele>
        <time>2022-01-12T08:20:32Z</time>
      </trkpt>
      <trkpt lat="47.71933" lon="3.48523">
        <ele>178.2</ele>
        <time>2022-01-12T08:20:33Z</time>
      </trkpt>
      <trkpt lat="47.71935" lon="3.48525">
        <ele>178.3</ele>
        <time>2022-01-12T08:20:35Z</time>
      </trkpt>
      <trkpt lat="47.71936" lon="3.48526">
        <ele>178.3</ele>
        <time>2022-01-12T08:20:36Z</time>
      </trkpt>
      <trkpt lat="47.71936" lon="3.48527">
        <ele>178.3</ele>
        <time>2022-01-12T08:20:37Z</time>
      </trkpt>
      <trkpt lat="47.71936" lon="3.48528">
        <ele>178.3</ele>
        <time>2022-01-12T08:20:38Z</time>
      </trkpt>
      <trkpt lat="47.71936" lon="3.48529">
        <ele>178.4</ele>
        <time>2022-01-12T08:20:39Z</time>
      </trkpt>
      <trkpt lat="47.71936" lon="3.48532">
        <ele>178.4</ele>
        <time>2022-01-12T08:20:40Z</time>
      </trkpt>
      <trkpt lat="47.71936" lon="3.48534">
        <ele>178.5</ele>
        <time>2022-01-12T08:20:42Z</time>
      </trkpt>
      <trkpt lat="47.71936" lon="3.48535">
        <ele>178.5</ele>
        <time>2022-01-12T08:20:43Z</time>
      </trkpt>
      <trkpt lat="47.71936" lon="3.48536">
        <ele>178.5</ele>
        <time>2022-01-12T08:20:44Z</time>
      </trkpt>
      <trkpt lat="47.71936" lon="3.48536">
        <ele>178.5</ele>
        <time>2022-01-12T08:20:45Z</time>
      </trkpt>
      <trkpt lat="47.71937" lon="3.48537">
        <ele>178.7</ele>
        <time>2022-01-12T08:20:46Z</time>
      </trkpt>
      <trkpt lat="47.71937" lon="3.48538">
        <ele>178.7</ele>
        <time>2022-01-12T08:20:47Z</time>
      </trkpt>
      <trkpt lat="47.71937" lon="3.4854">
        <ele>178.7</ele>
        <time>2022-01-12T08:20:49Z</time>
      </trkpt>
      <trkpt lat="47.71937" lon="3.48541">
        <ele>178.7</ele>
        <time>2022-01-12T08:20:50Z</time>
      </trkpt>
      <trkpt lat="47.71937" lon="3.48542">
        <ele>178.8</ele>
        <time>2022-01-12T08:20:51Z</time>
      </trkpt>
      <trkpt lat="47.71937" lon="3.48542">
        <ele>178.8</ele>
        <time>2022-01-12T08:20:52Z</time>
      </trkpt>
      <trkpt lat="47.71936" lon="3.48542">
        <ele>178.8</ele>
        <time>2022-01-12T08:20:53Z</time>
      </trkpt>
      <trkpt lat="47.71936" lon="3.48543">
        <ele>178.8</ele>
        <time>2022-01-12T08:20:54Z</time>
      </trkpt>
      <trkpt lat="47.71936" lon="3.48544">
        <ele>178.8</ele>
        <time>2022-01-12T08:20:55Z</time>
      </trkpt>
      <trkpt lat="47.71936" lon="3.48545">
        <ele>178.8</ele>
        <time>2022-01-12T08:20:57Z</time>
      </trkpt>
      <trkpt lat="47.71936" lon="3.48545">
        <ele>178.8</ele>
        <time>2022-01-12T08:20:58Z</time>
      </trkpt>
      <trkpt lat="47.71936" lon="3.48546">
        <ele>178.9</ele>
        <time>2022-01-12T08:20:59Z</time>
      </trkpt>
      <trkpt lat="47.71936" lon="3.48547">
        <ele>178.9</ele>
        <time>2022-01-12T08:21:00Z</time>
      </trkpt>
      <trkpt lat="47.71936" lon="3.48547">
        <ele>178.9</ele>
        <time>2022-01-12T08:21:01Z</time>
      </trkpt>
      <trkpt lat="47.71936" lon="3.48548">
        <ele>178.9</ele>
        <time>2022-01-12T08:21:03Z</time>
      </trkpt>
      <trkpt lat="47.71936" lon="3.48549">
        <ele>178.9</ele>
        <time>2022-01-12T08:21:04Z</time>
      </trkpt>
      <trkpt lat="47.71936" lon="3.4855">
        <ele>178.9</ele>
        <time>2022-01-12T08:21:05Z</time>
      </trkpt>
      <trkpt lat="47.71936" lon="3.4855">
        <ele>179.1</ele>
        <time>2022-01-12T08:21:07Z</time>
      </trkpt>
      <trkpt lat="47.71936" lon="3.48551">
        <ele>179.1</ele>
        <time>2022-01-12T08:21:08Z</time>
      </trkpt>
      <trkpt lat="47.71936" lon="3.48552">
        <ele>179.1</ele>
        <time>2022-01-12T08:21:09Z</time>
      </trkpt>
      <trkpt lat="47.71936" lon="3.48552">
        <ele>179.1</ele>
        <time>2022-01-12T08:21:10Z</time>
      </trkpt>
      <trkpt lat="47.71936" lon="3.48553">
        <ele>179.1</ele>
        <time>2022-01-12T08:21:11Z</time>
      </trkpt>
      <trkpt lat="47.71934" lon="3.48555">
        <ele>179.3</ele>
        <time>2022-01-12T08:21:13Z</time>
      </trkpt>
      <trkpt lat="47.71934" lon="3.48556">
        <ele>179.3</ele>
        <time>2022-01-12T08:21:14Z</time>
      </trkpt>
      <trkpt lat="47.71934" lon="3.48557">
        <ele>179.3</ele>
        <time>2022-01-12T08:21:15Z</time>
      </trkpt>
      <trkpt lat="47.71934" lon="3.48558">
        <ele>179.3</ele>
        <time>2022-01-12T08:21:16Z</time>
      </trkpt>
      <trkpt lat="47.71934" lon="3.48559">
        <ele>179.5</ele>
        <time>2022-01-12T08:21:17Z</time>
      </trkpt>
      <trkpt lat="47.71935" lon="3.4856">
        <ele>179.5</ele>
        <time>2022-01-12T08:21:18Z</time>
      </trkpt>
      <trkpt lat="47.71935" lon="3.48561">
        <ele>179.5</ele>
        <time>2022-01-12T08:21:20Z</time>
      </trkpt>
      <trkpt lat="47.71935" lon="3.48562">
        <ele>179.4</ele>
        <time>2022-01-12T08:21:21Z</time>
      </trkpt>
      <trkpt lat="47.71935" lon="3.48563">
        <ele>179.6</ele>
        <time>2022-01-12T08:21:22Z</time>
      </trkpt>
      <trkpt lat="47.71935" lon="3.48565">
        <ele>179.6</ele>
        <time>2022-01-12T08:21:23Z</time>
      </trkpt>
      <trkpt lat="47.71935" lon="3.48567">
        <ele>179.6</ele>
        <time>2022-01-12T08:21:24Z</time>
      </trkpt>
      <trkpt lat="47.71935" lon="3.4857">
        <ele>179.9</ele>
        <time>2022-01-12T08:21:25Z</time>
      </trkpt>
      <trkpt lat="47.71935" lon="3.48571">
        <ele>179.9</ele>
        <time>2022-01-12T08:21:27Z</time>
      </trkpt>
      <trkpt lat="47.71935" lon="3.48573">
        <ele>180.1</ele>
        <time>2022-01-12T08:21:28Z</time>
      </trkpt>
      <trkpt lat="47.71934" lon="3.48574">
        <ele>180.1</ele>
        <time>2022-01-12T08:21:29Z</time>
      </trkpt>
      <trkpt lat="47.71934" lon="3.48576">
        <ele>180.1</ele>
        <time>2022-01-12T08:21:30Z</time>
      </trkpt>
      <trkpt lat="47.71933" lon="3.48577">
        <ele>180.4</ele>
        <time>2022-01-12T08:21:31Z</time>
      </trkpt>
      <trkpt lat="47.71933" lon="3.48578">
        <ele>180.4</ele>
        <time>2022-01-12T08:21:32Z</time>
      </trkpt>
      <trkpt lat="47.71933" lon="3.4858">
        <ele>180.6</ele>
        <time>2022-01-12T08:21:33Z</time>
      </trkpt>
      <trkpt lat="47.71932" lon="3.48582">
        <ele>180.6</ele>
        <time>2022-01-12T08:21:35Z</time>
      </trkpt>
      <trkpt lat="47.71932" lon="3.48585">
        <ele>180.9</ele>
        <time>2022-01-12T08:21:36Z</time>
      </trkpt>
      <trkpt lat="47.71932" lon="3.48585">
        <ele>180.9</ele>
        <time>2022-01-12T08:21:37Z</time>
      </trkpt>
      <trkpt lat="47.71932" lon="3.48586">
        <ele>180.9</ele>
        <time>2022-01-12T08:21:38Z</time>
      </trkpt>
      <trkpt lat="47.71931" lon="3.48589">
        <ele>181.1</ele>
        <time>2022-01-12T08:21:39Z</time>
      </trkpt>
      <trkpt lat="47.71931" lon="3.4859">
        <ele>181.1</ele>
        <time>2022-01-12T08:21:40Z</time>
      </trkpt>
      <trkpt lat="47.7193" lon="3.48591">
        <ele>181.1</ele>
        <time>2022-01-12T08:21:41Z</time>
      </trkpt>
      <trkpt lat="47.7193" lon="3.48592">
        <ele>181.1</ele>
        <time>2022-01-12T08:21:43Z</time>
      </trkpt>
      <trkpt lat="47.7193" lon="3.48594">
        <ele>181.3</ele>
        <time>2022-01-12T08:21:44Z</time>
      </trkpt>
      <trkpt lat="47.71929" lon="3.48595">
        <ele>181.3</ele>
        <time>2022-01-12T08:21:46Z</time>
      </trkpt>
      <trkpt lat="47.71929" lon="3.48596">
        <ele>181.4</ele>
        <time>2022-01-12T08:21:47Z</time>
      </trkpt>
      <trkpt lat="47.71929" lon="3.48597">
        <ele>181.6</ele>
        <time>2022-01-12T08:21:48Z</time>
      </trkpt>
      <trkpt lat="47.71928" lon="3.48599">
        <ele>181.6</ele>
        <time>2022-01-12T08:21:50Z</time>
      </trkpt>
      <trkpt lat="47.71928" lon="3.486">
        <ele>181.6</ele>
        <time>2022-01-12T08:21:51Z</time>
      </trkpt>
      <trkpt lat="47.71928" lon="3.48601">
        <ele>181.6</ele>
        <time>2022-01-12T08:21:52Z</time>
      </trkpt>
      <trkpt lat="47.71928" lon="3.48602">
        <ele>181.9</ele>
        <time>2022-01-12T08:21:53Z</time>
      </trkpt>
      <trkpt lat="47.71928" lon="3.48603">
        <ele>181.9</ele>
        <time>2022-01-12T08:21:54Z</time>
      </trkpt>
      <trkpt lat="47.71927" lon="3.48605">
        <ele>181.9</ele>
        <time>2022-01-12T08:21:55Z</time>
      </trkpt>
      <trkpt lat="47.71927" lon="3.48607">
        <ele>182.1</ele>
        <time>2022-01-12T08:21:56Z</time>
      </trkpt>
      <trkpt lat="47.71927" lon="3.48609">
        <ele>182.1</ele>
        <time>2022-01-12T08:21:58Z</time>
      </trkpt>
      <trkpt lat="47.71927" lon="3.4861">
        <ele>182.3</ele>
        <time>2022-01-12T08:21:59Z</time>
      </trkpt>
      <trkpt lat="47.71927" lon="3.48612">
        <ele>182.3</ele>
        <time>2022-01-12T08:22:00Z</time>
      </trkpt>
      <trkpt lat="47.71927" lon="3.48614">
        <ele>182.3</ele>
        <time>2022-01-12T08:22:01Z</time>
      </trkpt>
      <trkpt lat="47.71927" lon="3.48615">
        <ele>182.6</ele>
        <time>2022-01-12T08:22:02Z</time>
      </trkpt>
      <trkpt lat="47.71926" lon="3.48618">
        <ele>182.6</ele>
        <time>2022-01-12T08:22:03Z</time>
      </trkpt>
      <trkpt lat="47.71926" lon="3.48619">
        <ele>182.8</ele>
        <time>2022-01-12T08:22:05Z</time>
      </trkpt>
      <trkpt lat="47.71926" lon="3.48621">
        <ele>182.8</ele>
        <time>2022-01-12T08:22:06Z</time>
      </trkpt>
      <trkpt lat="47.71926" lon="3.48622">
        <ele>182.8</ele>
        <time>2022-01-12T08:22:07Z</time>
      </trkpt>
      <trkpt lat="47.71925" lon="3.48624">
        <ele>183</ele>
        <time>2022-01-12T08:22:08Z</time>
      </trkpt>
      <trkpt lat="47.71925" lon="3.48625">
        <ele>183</ele>
        <time>2022-01-12T08:22:09Z</time>
      </trkpt>
      <trkpt lat="47.71925" lon="3.48628">
        <ele>183.2</ele>
        <time>2022-01-12T08:22:10Z</time>
      </trkpt>
      <trkpt lat="47.71924" lon="3.48629">
        <ele>183.2</ele>
        <time>2022-01-12T08:22:12Z</time>
      </trkpt>
      <trkpt lat="47.71924" lon="3.48631">
        <ele>183.2</ele>
        <time>2022-01-12T08:22:13Z</time>
      </trkpt>
      <trkpt lat="47.71924" lon="3.48633">
        <ele>183.4</ele>
        <time>2022-01-12T08:22:14Z</time>
      </trkpt>
      <trkpt lat="47.71924" lon="3.48635">
        <ele>183.4</ele>
        <time>2022-01-12T08:22:16Z</time>
      </trkpt>
      <trkpt lat="47.71924" lon="3.48637">
        <ele>183.6</ele>
        <time>2022-01-12T08:22:17Z</time>
      </trkpt>
      <trkpt lat="47.71923" lon="3.48638">
        <ele>183.6</ele>
        <time>2022-01-12T08:22:18Z</time>
      </trkpt>
      <trkpt lat="47.71923" lon="3.4864">
        <ele>183.8</ele>
        <time>2022-01-12T08:22:20Z</time>
      </trkpt>
      <trkpt lat="47.71924" lon="3.48642">
        <ele>183.8</ele>
        <time>2022-01-12T08:22:21Z</time>
      </trkpt>
      <trkpt lat="47.71924" lon="3.48644">
        <ele>183.8</ele>
        <time>2022-01-12T08:22:22Z</time>
      </trkpt>
      <trkpt lat="47.71924" lon="3.48645">
        <ele>184</ele>
        <time>2022-01-12T08:22:23Z</time>
      </trkpt>
      <trkpt lat="47.71924" lon="3.48648">
        <ele>184</ele>
        <time>2022-01-12T08:22:25Z</time>
      </trkpt>
      <trkpt lat="47.71924" lon="3.4865">
        <ele>184.2</ele>
        <time>2022-01-12T08:22:26Z</time>
      </trkpt>
      <trkpt lat="47.71924" lon="3.48651">
        <ele>184.2</ele>
        <time>2022-01-12T08:22:27Z</time>
      </trkpt>
      <trkpt lat="47.71923" lon="3.48653">
        <ele>184.2</ele>
        <time>2022-01-12T08:22:28Z</time>
      </trkpt>
      <trkpt lat="47.71923" lon="3.48654">
        <ele>184.4</ele>
        <time>2022-01-12T08:22:29Z</time>
      </trkpt>
      <trkpt lat="47.71923" lon="3.48657">
        <ele>184.5</ele>
        <time>2022-01-12T08:22:30Z</time>
      </trkpt>
      <trkpt lat="47.71923" lon="3.48658">
        <ele>184.7</ele>
        <time>2022-01-12T08:22:31Z</time>
      </trkpt>
      <trkpt lat="47.71923" lon="3.4866">
        <ele>184.7</ele>
        <time>2022-01-12T08:22:33Z</time>
      </trkpt>
      <trkpt lat="47.71923" lon="3.48661">
        <ele>184.7</ele>
        <time>2022-01-12T08:22:34Z</time>
      </trkpt>
      <trkpt lat="47.71923" lon="3.48663">
        <ele>185</ele>
        <time>2022-01-12T08:22:35Z</time>
      </trkpt>
      <trkpt lat="47.71923" lon="3.48664">
        <ele>185</ele>
        <time>2022-01-12T08:22:36Z</time>
      </trkpt>
      <trkpt lat="47.71923" lon="3.48667">
        <ele>185.3</ele>
        <time>2022-01-12T08:22:38Z</time>
      </trkpt>
      <trkpt lat="47.71923" lon="3.48669">
        <ele>185.3</ele>
        <time>2022-01-12T08:22:39Z</time>
      </trkpt>
      <trkpt lat="47.71923" lon="3.48672">
        <ele>185.5</ele>
        <time>2022-01-12T08:22:40Z</time>
      </trkpt>
      <trkpt lat="47.71923" lon="3.48673">
        <ele>185.5</ele>
        <time>2022-01-12T08:22:41Z</time>
      </trkpt>
      <trkpt lat="47.71923" lon="3.48675">
        <ele>185.7</ele>
        <time>2022-01-12T08:22:42Z</time>
      </trkpt>
      <trkpt lat="47.71923" lon="3.48677">
        <ele>185.7</ele>
        <time>2022-01-12T08:22:44Z</time>
      </trkpt>
      <trkpt lat="47.71923" lon="3.48679">
        <ele>186</ele>
        <time>2022-01-12T08:22:45Z</time>
      </trkpt>
      <trkpt lat="47.71923" lon="3.48681">
        <ele>186</ele>
        <time>2022-01-12T08:22:46Z</time>
      </trkpt>
      <trkpt lat="47.71923" lon="3.48683">
        <ele>185.9</ele>
        <time>2022-01-12T08:22:47Z</time>
      </trkpt>
      <trkpt lat="47.71923" lon="3.48685">
        <ele>186.2</ele>
        <time>2022-01-12T08:22:48Z</time>
      </trkpt>
      <trkpt lat="47.71923" lon="3.48686">
        <ele>186.2</ele>
        <time>2022-01-12T08:22:49Z</time>
      </trkpt>
      <trkpt lat="47.71923" lon="3.48688">
        <ele>186.4</ele>
        <time>2022-01-12T08:22:51Z</time>
      </trkpt>
      <trkpt lat="47.71924" lon="3.48689">
        <ele>186.3</ele>
        <time>2022-01-12T08:22:52Z</time>
      </trkpt>
      <trkpt lat="47.71924" lon="3.4869">
        <ele>186.3</ele>
        <time>2022-01-12T08:22:53Z</time>
      </trkpt>
      <trkpt lat="47.71924" lon="3.48692">
        <ele>186.6</ele>
        <time>2022-01-12T08:22:54Z</time>
      </trkpt>
      <trkpt lat="47.71924" lon="3.48694">
        <ele>186.6</ele>
        <time>2022-01-12T08:22:55Z</time>
      </trkpt>
      <trkpt lat="47.71924" lon="3.48696">
        <ele>186.8</ele>
        <time>2022-01-12T08:22:56Z</time>
      </trkpt>
      <trkpt lat="47.71923" lon="3.48698">
        <ele>186.8</ele>
        <time>2022-01-12T08:22:57Z</time>
      </trkpt>
      <trkpt lat="47.71923" lon="3.48701">
        <ele>187.1</ele>
        <time>2022-01-12T08:22:59Z</time>
      </trkpt>
      <trkpt lat="47.71922" lon="3.48702">
        <ele>187.1</ele>
        <time>2022-01-12T08:23:00Z</time>
      </trkpt>
      <trkpt lat="47.71922" lon="3.48705">
        <ele>187.3</ele>
        <time>2022-01-12T08:23:01Z</time>
      </trkpt>
      <trkpt lat="47.71922" lon="3.48706">
        <ele>187.3</ele>
        <time>2022-01-12T08:23:02Z</time>
      </trkpt>
      <trkpt lat="47.71921" lon="3.48707">
        <ele>187.3</ele>
        <time>2022-01-12T08:23:03Z</time>
      </trkpt>
      <trkpt lat="47.71921" lon="3.48709">
        <ele>187.6</ele>
        <time>2022-01-12T08:23:05Z</time>
      </trkpt>
      <trkpt lat="47.71921" lon="3.48711">
        <ele>187.6</ele>
        <time>2022-01-12T08:23:06Z</time>
      </trkpt>
      <trkpt lat="47.71921" lon="3.48713">
        <ele>187.8</ele>
        <time>2022-01-12T08:23:07Z</time>
      </trkpt>
      <trkpt lat="47.71921" lon="3.48716">
        <ele>187.8</ele>
        <time>2022-01-12T08:23:08Z</time>
      </trkpt>
      <trkpt lat="47.71922" lon="3.48717">
        <ele>187.8</ele>
        <time>2022-01-12T08:23:09Z</time>
      </trkpt>
      <trkpt lat="47.71922" lon="3.48718">
        <ele>188</ele>
        <time>2022-01-12T08:23:10Z</time>
      </trkpt>
      <trkpt lat="47.71922" lon="3.48719">
        <ele>188</ele>
        <time>2022-01-12T08:23:11Z</time>
      </trkpt>
      <trkpt lat="47.71922" lon="3.4872">
        <ele>188</ele>
        <time>2022-01-12T08:23:13Z</time>
      </trkpt>
      <trkpt lat="47.71923" lon="3.48721">
        <ele>188</ele>
        <time>2022-01-12T08:23:14Z</time>
      </trkpt>
      <trkpt lat="47.71923" lon="3.48723">
        <ele>188.3</ele>
        <time>2022-01-12T08:23:15Z</time>
      </trkpt>
      <trkpt lat="47.71923" lon="3.48725">
        <ele>188.3</ele>
        <time>2022-01-12T08:23:16Z</time>
      </trkpt>
      <trkpt lat="47.71923" lon="3.48726">
        <ele>188.5</ele>
        <time>2022-01-12T08:23:17Z</time>
      </trkpt>
      <trkpt lat="47.71923" lon="3.48728">
        <ele>188.5</ele>
        <time>2022-01-12T08:23:18Z</time>
      </trkpt>
      <trkpt lat="47.71923" lon="3.48729">
        <ele>188.5</ele>
        <time>2022-01-12T08:23:19Z</time>
      </trkpt>
      <trkpt lat="47.71923" lon="3.4873">
        <ele>188.8</ele>
        <time>2022-01-12T08:23:20Z</time>
      </trkpt>
      <trkpt lat="47.71923" lon="3.48732">
        <ele>188.8</ele>
        <time>2022-01-12T08:23:22Z</time>
      </trkpt>
      <trkpt lat="47.71923" lon="3.48734">
        <ele>188.7</ele>
        <time>2022-01-12T08:23:23Z</time>
      </trkpt>
      <trkpt lat="47.71924" lon="3.48736">
        <ele>188.9</ele>
        <time>2022-01-12T08:23:24Z</time>
      </trkpt>
      <trkpt lat="47.71924" lon="3.48737">
        <ele>188.9</ele>
        <time>2022-01-12T08:23:25Z</time>
      </trkpt>
      <trkpt lat="47.71924" lon="3.48738">
        <ele>188.9</ele>
        <time>2022-01-12T08:23:27Z</time>
      </trkpt>
      <trkpt lat="47.71924" lon="3.4874">
        <ele>189.2</ele>
        <time>2022-01-12T08:23:28Z</time>
      </trkpt>
      <trkpt lat="47.71924" lon="3.48742">
        <ele>189.2</ele>
        <time>2022-01-12T08:23:29Z</time>
      </trkpt>
      <trkpt lat="47.71924" lon="3.48742">
        <ele>189.2</ele>
        <time>2022-01-12T08:23:31Z</time>
      </trkpt>
      <trkpt lat="47.71924" lon="3.48743">
        <ele>189.4</ele>
        <time>2022-01-12T08:23:32Z</time>
      </trkpt>
      <trkpt lat="47.71924" lon="3.48744">
        <ele>189.4</ele>
        <time>2022-01-12T08:23:33Z</time>
      </trkpt>
      <trkpt lat="47.71924" lon="3.48745">
        <ele>189.4</ele>
        <time>2022-01-12T08:23:34Z</time>
      </trkpt>
      <trkpt lat="47.71924" lon="3.48746">
        <ele>189.4</ele>
        <time>2022-01-12T08:23:35Z</time>
      </trkpt>
      <trkpt lat="47.71925" lon="3.48749">
        <ele>189.7</ele>
        <time>2022-01-12T08:23:37Z</time>
      </trkpt>
      <trkpt lat="47.71925" lon="3.48751">
        <ele>189.7</ele>
        <time>2022-01-12T08:23:38Z</time>
      </trkpt>
      <trkpt lat="47.71925" lon="3.48752">
        <ele>189.9</ele>
        <time>2022-01-12T08:23:39Z</time>
      </trkpt>
      <trkpt lat="47.71924" lon="3.48754">
        <ele>189.9</ele>
        <time>2022-01-12T08:23:41Z</time>
      </trkpt>
      <trkpt lat="47.71924" lon="3.48756">
        <ele>189.9</ele>
        <time>2022-01-12T08:23:42Z</time>
      </trkpt>
      <trkpt lat="47.71923" lon="3.48758">
        <ele>190.4</ele>
        <time>2022-01-12T08:23:44Z</time>
      </trkpt>
      <trkpt lat="47.71923" lon="3.4876">
        <ele>190.4</ele>
        <time>2022-01-12T08:23:45Z</time>
      </trkpt>
      <trkpt lat="47.71922" lon="3.48763">
        <ele>190.6</ele>
        <time>2022-01-12T08:23:47Z</time>
      </trkpt>
      <trkpt lat="47.71922" lon="3.48764">
        <ele>190.6</ele>
        <time>2022-01-12T08:23:48Z</time>
      </trkpt>
      <trkpt lat="47.71922" lon="3.48766">
        <ele>190.9</ele>
        <time>2022-01-12T08:23:49Z</time>
      </trkpt>
      <trkpt lat="47.71922" lon="3.48768">
        <ele>190.9</ele>
        <time>2022-01-12T08:23:50Z</time>
      </trkpt>
      <trkpt lat="47.71922" lon="3.48769">
        <ele>191.1</ele>
        <time>2022-01-12T08:23:51Z</time>
      </trkpt>
      <trkpt lat="47.71921" lon="3.48773">
        <ele>191.1</ele>
        <time>2022-01-12T08:23:53Z</time>
      </trkpt>
      <trkpt lat="47.71921" lon="3.48774">
        <ele>191.4</ele>
        <time>2022-01-12T08:23:54Z</time>
      </trkpt>
      <trkpt lat="47.71921" lon="3.48775">
        <ele>191.4</ele>
        <time>2022-01-12T08:23:56Z</time>
      </trkpt>
      <trkpt lat="47.7192" lon="3.48777">
        <ele>191.4</ele>
        <time>2022-01-12T08:23:57Z</time>
      </trkpt>
      <trkpt lat="47.7192" lon="3.48778">
        <ele>191.9</ele>
        <time>2022-01-12T08:23:58Z</time>
      </trkpt>
      <trkpt lat="47.7192" lon="3.48779">
        <ele>191.9</ele>
        <time>2022-01-12T08:24:00Z</time>
      </trkpt>
      <trkpt lat="47.71919" lon="3.48781">
        <ele>191.9</ele>
        <time>2022-01-12T08:24:01Z</time>
      </trkpt>
      <trkpt lat="47.71919" lon="3.48782">
        <ele>192.2</ele>
        <time>2022-01-12T08:24:02Z</time>
      </trkpt>
      <trkpt lat="47.71919" lon="3.48784">
        <ele>192.2</ele>
        <time>2022-01-12T08:24:03Z</time>
      </trkpt>
      <trkpt lat="47.71918" lon="3.48785">
        <ele>192.2</ele>
        <time>2022-01-12T08:24:05Z</time>
      </trkpt>
      <trkpt lat="47.71917" lon="3.48787">
        <ele>192.7</ele>
        <time>2022-01-12T08:24:06Z</time>
      </trkpt>
      <trkpt lat="47.71916" lon="3.4879">
        <ele>192.7</ele>
        <time>2022-01-12T08:24:08Z</time>
      </trkpt>
      <trkpt lat="47.71916" lon="3.48791">
        <ele>193</ele>
        <time>2022-01-12T08:24:09Z</time>
      </trkpt>
      <trkpt lat="47.71915" lon="3.48792">
        <ele>193</ele>
        <time>2022-01-12T08:24:10Z</time>
      </trkpt>
      <trkpt lat="47.71914" lon="3.48794">
        <ele>193.2</ele>
        <time>2022-01-12T08:24:12Z</time>
      </trkpt>
      <trkpt lat="47.71913" lon="3.48795">
        <ele>193.5</ele>
        <time>2022-01-12T08:24:13Z</time>
      </trkpt>
      <trkpt lat="47.71912" lon="3.48798">
        <ele>193.5</ele>
        <time>2022-01-12T08:24:15Z</time>
      </trkpt>
      <trkpt lat="47.71911" lon="3.48799">
        <ele>194</ele>
        <time>2022-01-12T08:24:16Z</time>
      </trkpt>
      <trkpt lat="47.71911" lon="3.488">
        <ele>194</ele>
        <time>2022-01-12T08:24:17Z</time>
      </trkpt>
      <trkpt lat="47.71911" lon="3.48801">
        <ele>194</ele>
        <time>2022-01-12T08:24:18Z</time>
      </trkpt>
      <trkpt lat="47.7191" lon="3.48802">
        <ele>194</ele>
        <time>2022-01-12T08:24:19Z</time>
      </trkpt>
      <trkpt lat="47.7191" lon="3.48802">
        <ele>194</ele>
        <time>2022-01-12T08:24:20Z</time>
      </trkpt>
      <trkpt lat="47.71909" lon="3.48805">
        <ele>194.5</ele>
        <time>2022-01-12T08:24:22Z</time>
      </trkpt>
      <trkpt lat="47.71908" lon="3.48806">
        <ele>194.5</ele>
        <time>2022-01-12T08:24:23Z</time>
      </trkpt>
      <trkpt lat="47.71907" lon="3.48807">
        <ele>194.5</ele>
        <time>2022-01-12T08:24:24Z</time>
      </trkpt>
      <trkpt lat="47.71907" lon="3.48808">
        <ele>194.7</ele>
        <time>2022-01-12T08:24:25Z</time>
      </trkpt>
      <trkpt lat="47.71906" lon="3.48809">
        <ele>194.7</ele>
        <time>2022-01-12T08:24:26Z</time>
      </trkpt>
      <trkpt lat="47.71905" lon="3.48811">
        <ele>195</ele>
        <time>2022-01-12T08:24:27Z</time>
      </trkpt>
      <trkpt lat="47.71904" lon="3.48812">
        <ele>195.3</ele>
        <time>2022-01-12T08:24:29Z</time>
      </trkpt>
      <trkpt lat="47.71903" lon="3.48814">
        <ele>195.3</ele>
        <time>2022-01-12T08:24:30Z</time>
      </trkpt>
      <trkpt lat="47.71903" lon="3.48816">
        <ele>195.5</ele>
        <time>2022-01-12T08:24:31Z</time>
      </trkpt>
      <trkpt lat="47.71902" lon="3.48818">
        <ele>195.8</ele>
        <time>2022-01-12T08:24:33Z</time>
      </trkpt>
      <trkpt lat="47.71901" lon="3.4882">
        <ele>195.8</ele>
        <time>2022-01-12T08:24:34Z</time>
      </trkpt>
      <trkpt lat="47.719" lon="3.48821">
        <ele>196.1</ele>
        <time>2022-01-12T08:24:35Z</time>
      </trkpt>
      <trkpt lat="47.71899" lon="3.48824">
        <ele>196.3</ele>
        <time>2022-01-12T08:24:37Z</time>
      </trkpt>
      <trkpt lat="47.71898" lon="3.48825">
        <ele>196.7</ele>
        <time>2022-01-12T08:24:38Z</time>
      </trkpt>
      <trkpt lat="47.71898" lon="3.48827">
        <ele>196.7</ele>
        <time>2022-01-12T08:24:39Z</time>
      </trkpt>
      <trkpt lat="47.71897" lon="3.48827">
        <ele>196.7</ele>
        <time>2022-01-12T08:24:40Z</time>
      </trkpt>
      <trkpt lat="47.71896" lon="3.4883">
        <ele>197.3</ele>
        <time>2022-01-12T08:24:42Z</time>
      </trkpt>
      <trkpt lat="47.71896" lon="3.48832">
        <ele>197.3</ele>
        <time>2022-01-12T08:24:43Z</time>
      </trkpt>
      <trkpt lat="47.71895" lon="3.48833">
        <ele>197.3</ele>
        <time>2022-01-12T08:24:44Z</time>
      </trkpt>
      <trkpt lat="47.71895" lon="3.48834">
        <ele>197.6</ele>
        <time>2022-01-12T08:24:45Z</time>
      </trkpt>
      <trkpt lat="47.71894" lon="3.48835">
        <ele>197.6</ele>
        <time>2022-01-12T08:24:46Z</time>
      </trkpt>
      <trkpt lat="47.71894" lon="3.48836">
        <ele>197.9</ele>
        <time>2022-01-12T08:24:47Z</time>
      </trkpt>
      <trkpt lat="47.71893" lon="3.48837">
        <ele>197.9</ele>
        <time>2022-01-12T08:24:49Z</time>
      </trkpt>
      <trkpt lat="47.71892" lon="3.48838">
        <ele>198.3</ele>
        <time>2022-01-12T08:24:50Z</time>
      </trkpt>
      <trkpt lat="47.71892" lon="3.48839">
        <ele>198.3</ele>
        <time>2022-01-12T08:24:51Z</time>
      </trkpt>
      <trkpt lat="47.71891" lon="3.48841">
        <ele>198.6</ele>
        <time>2022-01-12T08:24:53Z</time>
      </trkpt>
      <trkpt lat="47.71891" lon="3.48842">
        <ele>198.9</ele>
        <time>2022-01-12T08:24:54Z</time>
      </trkpt>
      <trkpt lat="47.71891" lon="3.48843">
        <ele>198.9</ele>
        <time>2022-01-12T08:24:55Z</time>
      </trkpt>
      <trkpt lat="47.7189" lon="3.48844">
        <ele>198.9</ele>
        <time>2022-01-12T08:24:56Z</time>
      </trkpt>
      <trkpt lat="47.7189" lon="3.48845">
        <ele>198.9</ele>
        <time>2022-01-12T08:24:57Z</time>
      </trkpt>
      <trkpt lat="47.71889" lon="3.48846">
        <ele>199.1</ele>
        <time>2022-01-12T08:24:59Z</time>
      </trkpt>
      <trkpt lat="47.71888" lon="3.48847">
        <ele>199.5</ele>
        <time>2022-01-12T08:25:00Z</time>
      </trkpt>
      <trkpt lat="47.71888" lon="3.48848">
        <ele>199.5</ele>
        <time>2022-01-12T08:25:01Z</time>
      </trkpt>
      <trkpt lat="47.71887" lon="3.48849">
        <ele>199.5</ele>
        <time>2022-01-12T08:25:02Z</time>
      </trkpt>
      <trkpt lat="47.71886" lon="3.4885">
        <ele>199.5</ele>
        <time>2022-01-12T08:25:03Z</time>
      </trkpt>
      <trkpt lat="47.71886" lon="3.48851">
        <ele>199.7</ele>
        <time>2022-01-12T08:25:04Z</time>
      </trkpt>
      <trkpt lat="47.71885" lon="3.48853">
        <ele>200</ele>
        <time>2022-01-12T08:25:06Z</time>
      </trkpt>
      <trkpt lat="47.71884" lon="3.48855">
        <ele>200.2</ele>
        <time>2022-01-12T08:25:07Z</time>
      </trkpt>
      <trkpt lat="47.71883" lon="3.48855">
        <ele>200.2</ele>
        <time>2022-01-12T08:25:08Z</time>
      </trkpt>
      <trkpt lat="47.71882" lon="3.48857">
        <ele>200.5</ele>
        <time>2022-01-12T08:25:10Z</time>
      </trkpt>
      <trkpt lat="47.71881" lon="3.48858">
        <ele>200.5</ele>
        <time>2022-01-12T08:25:11Z</time>
      </trkpt>
      <trkpt lat="47.7188" lon="3.4886">
        <ele>200.9</ele>
        <time>2022-01-12T08:25:12Z</time>
      </trkpt>
      <trkpt lat="47.7188" lon="3.48861">
        <ele>200.9</ele>
        <time>2022-01-12T08:25:13Z</time>
      </trkpt>
      <trkpt lat="47.71879" lon="3.48862">
        <ele>200.9</ele>
        <time>2022-01-12T08:25:14Z</time>
      </trkpt>
      <trkpt lat="47.71878" lon="3.48863">
        <ele>200.9</ele>
        <time>2022-01-12T08:25:15Z</time>
      </trkpt>
      <trkpt lat="47.71878" lon="3.48864">
        <ele>201.2</ele>
        <time>2022-01-12T08:25:16Z</time>
      </trkpt>
      <trkpt lat="47.71877" lon="3.48864">
        <ele>201.3</ele>
        <time>2022-01-12T08:25:17Z</time>
      </trkpt>
      <trkpt lat="47.71876" lon="3.48864">
        <ele>201.3</ele>
        <time>2022-01-12T08:25:18Z</time>
      </trkpt>
      <trkpt lat="47.71876" lon="3.48861">
        <ele>201.1</ele>
        <time>2022-01-12T08:25:20Z</time>
      </trkpt>
      <trkpt lat="47.71876" lon="3.4886">
        <ele>201.1</ele>
        <time>2022-01-12T08:25:21Z</time>
      </trkpt>
      <trkpt lat="47.71875" lon="3.4886">
        <ele>201.1</ele>
        <time>2022-01-12T08:25:22Z</time>
      </trkpt>
      <trkpt lat="47.71874" lon="3.48862">
        <ele>201.3</ele>
        <time>2022-01-12T08:25:24Z</time>
      </trkpt>
      <trkpt lat="47.71873" lon="3.48862">
        <ele>201.3</ele>
        <time>2022-01-12T08:25:25Z</time>
      </trkpt>
      <trkpt lat="47.71872" lon="3.48862">
        <ele>201.3</ele>
        <time>2022-01-12T08:25:26Z</time>
      </trkpt>
      <trkpt lat="47.7187" lon="3.48862">
        <ele>201.4</ele>
        <time>2022-01-12T08:25:27Z</time>
      </trkpt>
      <trkpt lat="47.71868" lon="3.48864">
        <ele>201.8</ele>
        <time>2022-01-12T08:25:28Z</time>
      </trkpt>
      <trkpt lat="47.71867" lon="3.48864">
        <ele>201.8</ele>
        <time>2022-01-12T08:25:30Z</time>
      </trkpt>
      <trkpt lat="47.71866" lon="3.48865">
        <ele>201.8</ele>
        <time>2022-01-12T08:25:31Z</time>
      </trkpt>
      <trkpt lat="47.71866" lon="3.48866">
        <ele>201.8</ele>
        <time>2022-01-12T08:25:32Z</time>
      </trkpt>
      <trkpt lat="47.71865" lon="3.48867">
        <ele>201.9</ele>
        <time>2022-01-12T08:25:33Z</time>
      </trkpt>
      <trkpt lat="47.71864" lon="3.48868">
        <ele>202.1</ele>
        <time>2022-01-12T08:25:35Z</time>
      </trkpt>
      <trkpt lat="47.71862" lon="3.4887">
        <ele>202.2</ele>
        <time>2022-01-12T08:25:36Z</time>
      </trkpt>
      <trkpt lat="47.7186" lon="3.48873">
        <ele>202.5</ele>
        <time>2022-01-12T08:25:38Z</time>
      </trkpt>
      <trkpt lat="47.7186" lon="3.48874">
        <ele>202.5</ele>
        <time>2022-01-12T08:25:39Z</time>
      </trkpt>
      <trkpt lat="47.71858" lon="3.48876">
        <ele>202.8</ele>
        <time>2022-01-12T08:25:40Z</time>
      </trkpt>
      <trkpt lat="47.71857" lon="3.4888">
        <ele>202.8</ele>
        <time>2022-01-12T08:25:42Z</time>
      </trkpt>
      <trkpt lat="47.71856" lon="3.48884">
        <ele>203.1</ele>
        <time>2022-01-12T08:25:43Z</time>
      </trkpt>
      <trkpt lat="47.71856" lon="3.48885">
        <ele>203.4</ele>
        <time>2022-01-12T08:25:44Z</time>
      </trkpt>
      <trkpt lat="47.71855" lon="3.48887">
        <ele>203.4</ele>
        <time>2022-01-12T08:25:45Z</time>
      </trkpt>
      <trkpt lat="47.71855" lon="3.48889">
        <ele>203.6</ele>
        <time>2022-01-12T08:25:46Z</time>
      </trkpt>
      <trkpt lat="47.71854" lon="3.48892">
        <ele>203.6</ele>
        <time>2022-01-12T08:25:48Z</time>
      </trkpt>
      <trkpt lat="47.71854" lon="3.48894">
        <ele>203.9</ele>
        <time>2022-01-12T08:25:49Z</time>
      </trkpt>
      <trkpt lat="47.71852" lon="3.48896">
        <ele>203.9</ele>
        <time>2022-01-12T08:25:50Z</time>
      </trkpt>
      <trkpt lat="47.71852" lon="3.48897">
        <ele>203.9</ele>
        <time>2022-01-12T08:25:52Z</time>
      </trkpt>
      <trkpt lat="47.71851" lon="3.48898">
        <ele>204.1</ele>
        <time>2022-01-12T08:25:53Z</time>
      </trkpt>
      <trkpt lat="47.7185" lon="3.489">
        <ele>204.2</ele>
        <time>2022-01-12T08:25:54Z</time>
      </trkpt>
      <trkpt lat="47.71849" lon="3.48901">
        <ele>204.2</ele>
        <time>2022-01-12T08:25:56Z</time>
      </trkpt>
      <trkpt lat="47.71848" lon="3.48902">
        <ele>204.4</ele>
        <time>2022-01-12T08:25:57Z</time>
      </trkpt>
      <trkpt lat="47.71848" lon="3.48904">
        <ele>204.4</ele>
        <time>2022-01-12T08:25:58Z</time>
      </trkpt>
      <trkpt lat="47.71847" lon="3.48906">
        <ele>204.4</ele>
        <time>2022-01-12T08:26:00Z</time>
      </trkpt>
      <trkpt lat="47.71846" lon="3.48908">
        <ele>204.6</ele>
        <time>2022-01-12T08:26:01Z</time>
      </trkpt>
      <trkpt lat="47.71846" lon="3.48911">
        <ele>204.8</ele>
        <time>2022-01-12T08:26:03Z</time>
      </trkpt>
      <trkpt lat="47.71845" lon="3.48912">
        <ele>204.8</ele>
        <time>2022-01-12T08:26:04Z</time>
      </trkpt>
      <trkpt lat="47.71844" lon="3.48914">
        <ele>204.8</ele>
        <time>2022-01-12T08:26:05Z</time>
      </trkpt>
      <trkpt lat="47.71843" lon="3.48916">
        <ele>205</ele>
        <time>2022-01-12T08:26:06Z</time>
      </trkpt>
      <trkpt lat="47.71842" lon="3.48918">
        <ele>205</ele>
        <time>2022-01-12T08:26:07Z</time>
      </trkpt>
      <trkpt lat="47.71841" lon="3.48918">
        <ele>205</ele>
        <time>2022-01-12T08:26:08Z</time>
      </trkpt>
      <trkpt lat="47.7184" lon="3.4892">
        <ele>205.2</ele>
        <time>2022-01-12T08:26:10Z</time>
      </trkpt>
      <trkpt lat="47.71838" lon="3.4892">
        <ele>205.3</ele>
        <time>2022-01-12T08:26:11Z</time>
      </trkpt>
      <trkpt lat="47.71837" lon="3.48922">
        <ele>205.3</ele>
        <time>2022-01-12T08:26:12Z</time>
      </trkpt>
      <trkpt lat="47.71836" lon="3.48924">
        <ele>205.5</ele>
        <time>2022-01-12T08:26:13Z</time>
      </trkpt>
      <trkpt lat="47.71835" lon="3.48925">
        <ele>205.5</ele>
        <time>2022-01-12T08:26:15Z</time>
      </trkpt>
      <trkpt lat="47.71835" lon="3.48927">
        <ele>205.5</ele>
        <time>2022-01-12T08:26:16Z</time>
      </trkpt>
      <trkpt lat="47.71834" lon="3.48928">
        <ele>205.7</ele>
        <time>2022-01-12T08:26:17Z</time>
      </trkpt>
      <trkpt lat="47.71833" lon="3.48931">
        <ele>205.8</ele>
        <time>2022-01-12T08:26:18Z</time>
      </trkpt>
      <trkpt lat="47.71833" lon="3.48933">
        <ele>206</ele>
        <time>2022-01-12T08:26:19Z</time>
      </trkpt>
      <trkpt lat="47.71833" lon="3.48934">
        <ele>206</ele>
        <time>2022-01-12T08:26:20Z</time>
      </trkpt>
      <trkpt lat="47.71833" lon="3.48935">
        <ele>206</ele>
        <time>2022-01-12T08:26:22Z</time>
      </trkpt>
      <trkpt lat="47.71832" lon="3.48936">
        <ele>206.1</ele>
        <time>2022-01-12T08:26:23Z</time>
      </trkpt>
      <trkpt lat="47.71832" lon="3.48938">
        <ele>206.1</ele>
        <time>2022-01-12T08:26:24Z</time>
      </trkpt>
      <trkpt lat="47.71832" lon="3.48939">
        <ele>206.1</ele>
        <time>2022-01-12T08:26:25Z</time>
      </trkpt>
      <trkpt lat="47.71831" lon="3.4894">
        <ele>206.1</ele>
        <time>2022-01-12T08:26:26Z</time>
      </trkpt>
      <trkpt lat="47.7183" lon="3.48943">
        <ele>206.4</ele>
        <time>2022-01-12T08:26:27Z</time>
      </trkpt>
      <trkpt lat="47.7183" lon="3.48944">
        <ele>206.4</ele>
        <time>2022-01-12T08:26:28Z</time>
      </trkpt>
      <trkpt lat="47.7183" lon="3.48946">
        <ele>206.6</ele>
        <time>2022-01-12T08:26:30Z</time>
      </trkpt>
      <trkpt lat="47.7183" lon="3.48947">
        <ele>206.6</ele>
        <time>2022-01-12T08:26:31Z</time>
      </trkpt>
      <trkpt lat="47.71829" lon="3.4895">
        <ele>206.8</ele>
        <time>2022-01-12T08:26:33Z</time>
      </trkpt>
      <trkpt lat="47.71829" lon="3.48952">
        <ele>206.8</ele>
        <time>2022-01-12T08:26:34Z</time>
      </trkpt>
      <trkpt lat="47.71829" lon="3.48954">
        <ele>207</ele>
        <time>2022-01-12T08:26:35Z</time>
      </trkpt>
      <trkpt lat="47.71828" lon="3.48957">
        <ele>207</ele>
        <time>2022-01-12T08:26:37Z</time>
      </trkpt>
      <trkpt lat="47.71828" lon="3.4896">
        <ele>207.3</ele>
        <time>2022-01-12T08:26:38Z</time>
      </trkpt>
      <trkpt lat="47.71828" lon="3.48962">
        <ele>207.3</ele>
        <time>2022-01-12T08:26:39Z</time>
      </trkpt>
      <trkpt lat="47.71827" lon="3.48965">
        <ele>207.5</ele>
        <time>2022-01-12T08:26:40Z</time>
      </trkpt>
      <trkpt lat="47.71827" lon="3.48966">
        <ele>207.5</ele>
        <time>2022-01-12T08:26:41Z</time>
      </trkpt>
      <trkpt lat="47.71826" lon="3.48967">
        <ele>207.7</ele>
        <time>2022-01-12T08:26:42Z</time>
      </trkpt>
      <trkpt lat="47.71826" lon="3.4897">
        <ele>207.7</ele>
        <time>2022-01-12T08:26:43Z</time>
      </trkpt>
      <trkpt lat="47.71825" lon="3.48972">
        <ele>208.1</ele>
        <time>2022-01-12T08:26:45Z</time>
      </trkpt>
      <trkpt lat="47.71824" lon="3.48974">
        <ele>208.1</ele>
        <time>2022-01-12T08:26:46Z</time>
      </trkpt>
      <trkpt lat="47.71823" lon="3.48976">
        <ele>208.3</ele>
        <time>2022-01-12T08:26:47Z</time>
      </trkpt>
      <trkpt lat="47.71822" lon="3.48977">
        <ele>208.4</ele>
        <time>2022-01-12T08:26:48Z</time>
      </trkpt>
      <trkpt lat="47.71821" lon="3.48979">
        <ele>208.4</ele>
        <time>2022-01-12T08:26:50Z</time>
      </trkpt>
      <trkpt lat="47.71821" lon="3.4898">
        <ele>208.7</ele>
        <time>2022-01-12T08:26:51Z</time>
      </trkpt>
      <trkpt lat="47.7182" lon="3.48982">
        <ele>208.7</ele>
        <time>2022-01-12T08:26:52Z</time>
      </trkpt>
      <trkpt lat="47.71819" lon="3.48984">
        <ele>208.9</ele>
        <time>2022-01-12T08:26:54Z</time>
      </trkpt>
      <trkpt lat="47.71819" lon="3.48985">
        <ele>209.1</ele>
        <time>2022-01-12T08:26:55Z</time>
      </trkpt>
      <trkpt lat="47.71819" lon="3.48987">
        <ele>209.1</ele>
        <time>2022-01-12T08:26:56Z</time>
      </trkpt>
      <trkpt lat="47.71818" lon="3.48988">
        <ele>209.3</ele>
        <time>2022-01-12T08:26:57Z</time>
      </trkpt>
      <trkpt lat="47.71818" lon="3.48989">
        <ele>209.3</ele>
        <time>2022-01-12T08:26:58Z</time>
      </trkpt>
      <trkpt lat="47.71818" lon="3.4899">
        <ele>209.3</ele>
        <time>2022-01-12T08:26:59Z</time>
      </trkpt>
      <trkpt lat="47.71818" lon="3.48991">
        <ele>209.3</ele>
        <time>2022-01-12T08:27:00Z</time>
      </trkpt>
      <trkpt lat="47.71818" lon="3.48992">
        <ele>209.6</ele>
        <time>2022-01-12T08:27:01Z</time>
      </trkpt>
      <trkpt lat="47.71817" lon="3.48994">
        <ele>209.6</ele>
        <time>2022-01-12T08:27:02Z</time>
      </trkpt>
      <trkpt lat="47.71817" lon="3.48995">
        <ele>209.6</ele>
        <time>2022-01-12T08:27:03Z</time>
      </trkpt>
      <trkpt lat="47.71817" lon="3.48996">
        <ele>209.9</ele>
        <time>2022-01-12T08:27:04Z</time>
      </trkpt>
      <trkpt lat="47.71816" lon="3.48997">
        <ele>210</ele>
        <time>2022-01-12T08:27:05Z</time>
      </trkpt>
      <trkpt lat="47.71816" lon="3.48999">
        <ele>210</ele>
        <time>2022-01-12T08:27:07Z</time>
      </trkpt>
      <trkpt lat="47.71815" lon="3.49001">
        <ele>210.3</ele>
        <time>2022-01-12T08:27:08Z</time>
      </trkpt>
      <trkpt lat="47.71814" lon="3.49002">
        <ele>210.3</ele>
        <time>2022-01-12T08:27:09Z</time>
      </trkpt>
      <trkpt lat="47.71814" lon="3.49004">
        <ele>210.3</ele>
        <time>2022-01-12T08:27:10Z</time>
      </trkpt>
      <trkpt lat="47.71813" lon="3.49005">
        <ele>210.7</ele>
        <time>2022-01-12T08:27:11Z</time>
      </trkpt>
      <trkpt lat="47.71813" lon="3.49007">
        <ele>210.7</ele>
        <time>2022-01-12T08:27:12Z</time>
      </trkpt>
      <trkpt lat="47.71812" lon="3.49008">
        <ele>210.7</ele>
        <time>2022-01-12T08:27:13Z</time>
      </trkpt>
      <trkpt lat="47.71812" lon="3.49009">
        <ele>210.9</ele>
        <time>2022-01-12T08:27:14Z</time>
      </trkpt>
      <trkpt lat="47.71812" lon="3.49011">
        <ele>210.9</ele>
        <time>2022-01-12T08:27:15Z</time>
      </trkpt>
      <trkpt lat="47.71811" lon="3.49012">
        <ele>210.9</ele>
        <time>2022-01-12T08:27:16Z</time>
      </trkpt>
      <trkpt lat="47.71811" lon="3.49013">
        <ele>211.2</ele>
        <time>2022-01-12T08:27:17Z</time>
      </trkpt>
      <trkpt lat="47.7181" lon="3.49016">
        <ele>211.3</ele>
        <time>2022-01-12T08:27:18Z</time>
      </trkpt>
      <trkpt lat="47.7181" lon="3.49017">
        <ele>211.3</ele>
        <time>2022-01-12T08:27:19Z</time>
      </trkpt>
      <trkpt lat="47.71809" lon="3.49018">
        <ele>211.5</ele>
        <time>2022-01-12T08:27:20Z</time>
      </trkpt>
      <trkpt lat="47.71809" lon="3.4902">
        <ele>211.5</ele>
        <time>2022-01-12T08:27:22Z</time>
      </trkpt>
      <trkpt lat="47.71808" lon="3.49023">
        <ele>211.7</ele>
        <time>2022-01-12T08:27:23Z</time>
      </trkpt>
      <trkpt lat="47.71808" lon="3.49025">
        <ele>211.8</ele>
        <time>2022-01-12T08:27:24Z</time>
      </trkpt>
      <trkpt lat="47.71807" lon="3.49026">
        <ele>211.8</ele>
        <time>2022-01-12T08:27:25Z</time>
      </trkpt>
      <trkpt lat="47.71807" lon="3.49027">
        <ele>211.9</ele>
        <time>2022-01-12T08:27:26Z</time>
      </trkpt>
      <trkpt lat="47.71807" lon="3.49028">
        <ele>211.9</ele>
        <time>2022-01-12T08:27:27Z</time>
      </trkpt>
      <trkpt lat="47.71806" lon="3.4903">
        <ele>211.9</ele>
        <time>2022-01-12T08:27:29Z</time>
      </trkpt>
      <trkpt lat="47.71805" lon="3.49032">
        <ele>212</ele>
        <time>2022-01-12T08:27:30Z</time>
      </trkpt>
      <trkpt lat="47.71805" lon="3.49035">
        <ele>212.1</ele>
        <time>2022-01-12T08:27:31Z</time>
      </trkpt>
      <trkpt lat="47.71804" lon="3.49036">
        <ele>212.2</ele>
        <time>2022-01-12T08:27:32Z</time>
      </trkpt>
      <trkpt lat="47.71804" lon="3.49037">
        <ele>212.2</ele>
        <time>2022-01-12T08:27:33Z</time>
      </trkpt>
      <trkpt lat="47.71804" lon="3.49038">
        <ele>212.2</ele>
        <time>2022-01-12T08:27:34Z</time>
      </trkpt>
      <trkpt lat="47.71803" lon="3.49039">
        <ele>212.3</ele>
        <time>2022-01-12T08:27:35Z</time>
      </trkpt>
      <trkpt lat="47.71803" lon="3.49041">
        <ele>212.3</ele>
        <time>2022-01-12T08:27:36Z</time>
      </trkpt>
      <trkpt lat="47.71803" lon="3.49042">
        <ele>212.3</ele>
        <time>2022-01-12T08:27:37Z</time>
      </trkpt>
      <trkpt lat="47.71802" lon="3.49045">
        <ele>212.4</ele>
        <time>2022-01-12T08:27:38Z</time>
      </trkpt>
      <trkpt lat="47.71802" lon="3.49046">
        <ele>212.4</ele>
        <time>2022-01-12T08:27:39Z</time>
      </trkpt>
      <trkpt lat="47.71801" lon="3.49049">
        <ele>212.5</ele>
        <time>2022-01-12T08:27:40Z</time>
      </trkpt>
      <trkpt lat="47.71801" lon="3.4905">
        <ele>212.5</ele>
        <time>2022-01-12T08:27:42Z</time>
      </trkpt>
      <trkpt lat="47.71801" lon="3.49052">
        <ele>212.5</ele>
        <time>2022-01-12T08:27:43Z</time>
      </trkpt>
      <trkpt lat="47.718" lon="3.49053">
        <ele>212.6</ele>
        <time>2022-01-12T08:27:44Z</time>
      </trkpt>
      <trkpt lat="47.718" lon="3.49054">
        <ele>212.6</ele>
        <time>2022-01-12T08:27:45Z</time>
      </trkpt>
      <trkpt lat="47.71799" lon="3.49056">
        <ele>212.6</ele>
        <time>2022-01-12T08:27:46Z</time>
      </trkpt>
      <trkpt lat="47.71799" lon="3.49057">
        <ele>212.8</ele>
        <time>2022-01-12T08:27:47Z</time>
      </trkpt>
      <trkpt lat="47.71798" lon="3.49059">
        <ele>212.8</ele>
        <time>2022-01-12T08:27:48Z</time>
      </trkpt>
      <trkpt lat="47.71798" lon="3.4906">
        <ele>212.8</ele>
        <time>2022-01-12T08:27:49Z</time>
      </trkpt>
      <trkpt lat="47.71798" lon="3.49061">
        <ele>212.9</ele>
        <time>2022-01-12T08:27:50Z</time>
      </trkpt>
      <trkpt lat="47.71797" lon="3.49062">
        <ele>212.9</ele>
        <time>2022-01-12T08:27:51Z</time>
      </trkpt>
      <trkpt lat="47.71797" lon="3.49064">
        <ele>212.9</ele>
        <time>2022-01-12T08:27:52Z</time>
      </trkpt>
      <trkpt lat="47.71796" lon="3.49066">
        <ele>213</ele>
        <time>2022-01-12T08:27:53Z</time>
      </trkpt>
      <trkpt lat="47.71795" lon="3.49067">
        <ele>213</ele>
        <time>2022-01-12T08:27:54Z</time>
      </trkpt>
      <trkpt lat="47.71795" lon="3.49068">
        <ele>213</ele>
        <time>2022-01-12T08:27:55Z</time>
      </trkpt>
      <trkpt lat="47.71795" lon="3.4907">
        <ele>213.1</ele>
        <time>2022-01-12T08:27:56Z</time>
      </trkpt>
      <trkpt lat="47.71794" lon="3.49073">
        <ele>213.1</ele>
        <time>2022-01-12T08:27:58Z</time>
      </trkpt>
      <trkpt lat="47.71793" lon="3.49075">
        <ele>213.4</ele>
        <time>2022-01-12T08:27:59Z</time>
      </trkpt>
      <trkpt lat="47.71793" lon="3.49077">
        <ele>213.4</ele>
        <time>2022-01-12T08:28:00Z</time>
      </trkpt>
      <trkpt lat="47.71792" lon="3.49078">
        <ele>213.5</ele>
        <time>2022-01-12T08:28:01Z</time>
      </trkpt>
      <trkpt lat="47.71792" lon="3.4908">
        <ele>213.5</ele>
        <time>2022-01-12T08:28:02Z</time>
      </trkpt>
      <trkpt lat="47.71791" lon="3.49082">
        <ele>213.5</ele>
        <time>2022-01-12T08:28:03Z</time>
      </trkpt>
      <trkpt lat="47.7179" lon="3.49084">
        <ele>213.8</ele>
        <time>2022-01-12T08:28:05Z</time>
      </trkpt>
      <trkpt lat="47.7179" lon="3.49085">
        <ele>213.8</ele>
        <time>2022-01-12T08:28:06Z</time>
      </trkpt>
      <trkpt lat="47.71789" lon="3.49086">
        <ele>213.8</ele>
        <time>2022-01-12T08:28:07Z</time>
      </trkpt>
      <trkpt lat="47.71789" lon="3.49088">
        <ele>214</ele>
        <time>2022-01-12T08:28:08Z</time>
      </trkpt>
      <trkpt lat="47.71788" lon="3.49089">
        <ele>214</ele>
        <time>2022-01-12T08:28:10Z</time>
      </trkpt>
      <trkpt lat="47.71788" lon="3.49091">
        <ele>214.1</ele>
        <time>2022-01-12T08:28:11Z</time>
      </trkpt>
      <trkpt lat="47.71788" lon="3.49092">
        <ele>214.3</ele>
        <time>2022-01-12T08:28:12Z</time>
      </trkpt>
      <trkpt lat="47.71787" lon="3.49095">
        <ele>214.3</ele>
        <time>2022-01-12T08:28:13Z</time>
      </trkpt>
      <trkpt lat="47.71787" lon="3.49096">
        <ele>214.5</ele>
        <time>2022-01-12T08:28:14Z</time>
      </trkpt>
      <trkpt lat="47.71786" lon="3.49097">
        <ele>214.5</ele>
        <time>2022-01-12T08:28:15Z</time>
      </trkpt>
      <trkpt lat="47.71786" lon="3.49098">
        <ele>214.5</ele>
        <time>2022-01-12T08:28:16Z</time>
      </trkpt>
      <trkpt lat="47.71786" lon="3.491">
        <ele>214.7</ele>
        <time>2022-01-12T08:28:17Z</time>
      </trkpt>
      <trkpt lat="47.71785" lon="3.49102">
        <ele>214.7</ele>
        <time>2022-01-12T08:28:18Z</time>
      </trkpt>
      <trkpt lat="47.71785" lon="3.49103">
        <ele>214.7</ele>
        <time>2022-01-12T08:28:19Z</time>
      </trkpt>
      <trkpt lat="47.71785" lon="3.49105">
        <ele>215</ele>
        <time>2022-01-12T08:28:21Z</time>
      </trkpt>
      <trkpt lat="47.71784" lon="3.49106">
        <ele>215</ele>
        <time>2022-01-12T08:28:22Z</time>
      </trkpt>
      <trkpt lat="47.71783" lon="3.49109">
        <ele>215.2</ele>
        <time>2022-01-12T08:28:23Z</time>
      </trkpt>
      <trkpt lat="47.71783" lon="3.4911">
        <ele>215.2</ele>
        <time>2022-01-12T08:28:24Z</time>
      </trkpt>
      <trkpt lat="47.71783" lon="3.49111">
        <ele>215.2</ele>
        <time>2022-01-12T08:28:25Z</time>
      </trkpt>
      <trkpt lat="47.71782" lon="3.49112">
        <ele>215.4</ele>
        <time>2022-01-12T08:28:26Z</time>
      </trkpt>
      <trkpt lat="47.71781" lon="3.49115">
        <ele>215.6</ele>
        <time>2022-01-12T08:28:28Z</time>
      </trkpt>
      <trkpt lat="47.71781" lon="3.49117">
        <ele>215.8</ele>
        <time>2022-01-12T08:28:29Z</time>
      </trkpt>
      <trkpt lat="47.7178" lon="3.49119">
        <ele>215.8</ele>
        <time>2022-01-12T08:28:30Z</time>
      </trkpt>
      <trkpt lat="47.7178" lon="3.4912">
        <ele>215.8</ele>
        <time>2022-01-12T08:28:31Z</time>
      </trkpt>
      <trkpt lat="47.71779" lon="3.49122">
        <ele>216</ele>
        <time>2022-01-12T08:28:32Z</time>
      </trkpt>
      <trkpt lat="47.71779" lon="3.49124">
        <ele>216.2</ele>
        <time>2022-01-12T08:28:34Z</time>
      </trkpt>
      <trkpt lat="47.71778" lon="3.49127">
        <ele>216.3</ele>
        <time>2022-01-12T08:28:35Z</time>
      </trkpt>
      <trkpt lat="47.71777" lon="3.49129">
        <ele>216.3</ele>
        <time>2022-01-12T08:28:36Z</time>
      </trkpt>
      <trkpt lat="47.71777" lon="3.4913">
        <ele>216.5</ele>
        <time>2022-01-12T08:28:37Z</time>
      </trkpt>
      <trkpt lat="47.71776" lon="3.49132">
        <ele>216.5</ele>
        <time>2022-01-12T08:28:39Z</time>
      </trkpt>
      <trkpt lat="47.71775" lon="3.49133">
        <ele>216.7</ele>
        <time>2022-01-12T08:28:40Z</time>
      </trkpt>
      <trkpt lat="47.71774" lon="3.49136">
        <ele>216.9</ele>
        <time>2022-01-12T08:28:41Z</time>
      </trkpt>
      <trkpt lat="47.71774" lon="3.49138">
        <ele>216.9</ele>
        <time>2022-01-12T08:28:42Z</time>
      </trkpt>
      <trkpt lat="47.71773" lon="3.49139">
        <ele>217.1</ele>
        <time>2022-01-12T08:28:43Z</time>
      </trkpt>
      <trkpt lat="47.71773" lon="3.4914">
        <ele>217.3</ele>
        <time>2022-01-12T08:28:44Z</time>
      </trkpt>
      <trkpt lat="47.71772" lon="3.49141">
        <ele>217.3</ele>
        <time>2022-01-12T08:28:45Z</time>
      </trkpt>
      <trkpt lat="47.71772" lon="3.49143">
        <ele>217.5</ele>
        <time>2022-01-12T08:28:46Z</time>
      </trkpt>
      <trkpt lat="47.71772" lon="3.49144">
        <ele>217.5</ele>
        <time>2022-01-12T08:28:47Z</time>
      </trkpt>
      <trkpt lat="47.71771" lon="3.49147">
        <ele>217.8</ele>
        <time>2022-01-12T08:28:49Z</time>
      </trkpt>
      <trkpt lat="47.7177" lon="3.49148">
        <ele>217.8</ele>
        <time>2022-01-12T08:28:50Z</time>
      </trkpt>
      <trkpt lat="47.7177" lon="3.4915">
        <ele>217.9</ele>
        <time>2022-01-12T08:28:51Z</time>
      </trkpt>
      <trkpt lat="47.71769" lon="3.49151">
        <ele>218.2</ele>
        <time>2022-01-12T08:28:52Z</time>
      </trkpt>
      <trkpt lat="47.71769" lon="3.49154">
        <ele>218.2</ele>
        <time>2022-01-12T08:28:53Z</time>
      </trkpt>
      <trkpt lat="47.71768" lon="3.49154">
        <ele>218.2</ele>
        <time>2022-01-12T08:28:55Z</time>
      </trkpt>
      <trkpt lat="47.71768" lon="3.49156">
        <ele>218.4</ele>
        <time>2022-01-12T08:28:56Z</time>
      </trkpt>
      <trkpt lat="47.71767" lon="3.49157">
        <ele>218.6</ele>
        <time>2022-01-12T08:28:57Z</time>
      </trkpt>
      <trkpt lat="47.71767" lon="3.49159">
        <ele>218.6</ele>
        <time>2022-01-12T08:28:58Z</time>
      </trkpt>
      <trkpt lat="47.71766" lon="3.4916">
        <ele>218.9</ele>
        <time>2022-01-12T08:28:59Z</time>
      </trkpt>
      <trkpt lat="47.71765" lon="3.49162">
        <ele>218.9</ele>
        <time>2022-01-12T08:29:01Z</time>
      </trkpt>
      <trkpt lat="47.71765" lon="3.49164">
        <ele>219.2</ele>
        <time>2022-01-12T08:29:02Z</time>
      </trkpt>
      <trkpt lat="47.71764" lon="3.49167">
        <ele>219.3</ele>
        <time>2022-01-12T08:29:03Z</time>
      </trkpt>
      <trkpt lat="47.71764" lon="3.49168">
        <ele>219.6</ele>
        <time>2022-01-12T08:29:04Z</time>
      </trkpt>
      <trkpt lat="47.71763" lon="3.49169">
        <ele>219.6</ele>
        <time>2022-01-12T08:29:06Z</time>
      </trkpt>
      <trkpt lat="47.71763" lon="3.4917">
        <ele>219.6</ele>
        <time>2022-01-12T08:29:07Z</time>
      </trkpt>
      <trkpt lat="47.71762" lon="3.49172">
        <ele>219.6</ele>
        <time>2022-01-12T08:29:08Z</time>
      </trkpt>
      <trkpt lat="47.71762" lon="3.49173">
        <ele>219.9</ele>
        <time>2022-01-12T08:29:09Z</time>
      </trkpt>
      <trkpt lat="47.71761" lon="3.49174">
        <ele>220</ele>
        <time>2022-01-12T08:29:10Z</time>
      </trkpt>
      <trkpt lat="47.71761" lon="3.49175">
        <ele>220</ele>
        <time>2022-01-12T08:29:11Z</time>
      </trkpt>
      <trkpt lat="47.7176" lon="3.49177">
        <ele>220.3</ele>
        <time>2022-01-12T08:29:13Z</time>
      </trkpt>
      <trkpt lat="47.71759" lon="3.49179">
        <ele>220.3</ele>
        <time>2022-01-12T08:29:14Z</time>
      </trkpt>
      <trkpt lat="47.71759" lon="3.49181">
        <ele>220.6</ele>
        <time>2022-01-12T08:29:15Z</time>
      </trkpt>
      <trkpt lat="47.71758" lon="3.49184">
        <ele>220.7</ele>
        <time>2022-01-12T08:29:16Z</time>
      </trkpt>
      <trkpt lat="47.71758" lon="3.49185">
        <ele>220.9</ele>
        <time>2022-01-12T08:29:17Z</time>
      </trkpt>
      <trkpt lat="47.71757" lon="3.49187">
        <ele>220.9</ele>
        <time>2022-01-12T08:29:18Z</time>
      </trkpt>
      <trkpt lat="47.71757" lon="3.49188">
        <ele>220.9</ele>
        <time>2022-01-12T08:29:20Z</time>
      </trkpt>
      <trkpt lat="47.71756" lon="3.4919">
        <ele>221.1</ele>
        <time>2022-01-12T08:29:21Z</time>
      </trkpt>
      <trkpt lat="47.71756" lon="3.49191">
        <ele>221.2</ele>
        <time>2022-01-12T08:29:22Z</time>
      </trkpt>
      <trkpt lat="47.71755" lon="3.49193">
        <ele>221.2</ele>
        <time>2022-01-12T08:29:23Z</time>
      </trkpt>
      <trkpt lat="47.71755" lon="3.49195">
        <ele>221.4</ele>
        <time>2022-01-12T08:29:24Z</time>
      </trkpt>
      <trkpt lat="47.71754" lon="3.49198">
        <ele>221.4</ele>
        <time>2022-01-12T08:29:25Z</time>
      </trkpt>
      <trkpt lat="47.71753" lon="3.49199">
        <ele>221.5</ele>
        <time>2022-01-12T08:29:27Z</time>
      </trkpt>
      <trkpt lat="47.71753" lon="3.49201">
        <ele>221.6</ele>
        <time>2022-01-12T08:29:28Z</time>
      </trkpt>
      <trkpt lat="47.71752" lon="3.49203">
        <ele>221.7</ele>
        <time>2022-01-12T08:29:29Z</time>
      </trkpt>
      <trkpt lat="47.71751" lon="3.49204">
        <ele>221.7</ele>
        <time>2022-01-12T08:29:30Z</time>
      </trkpt>
      <trkpt lat="47.71751" lon="3.49206">
        <ele>221.7</ele>
        <time>2022-01-12T08:29:31Z</time>
      </trkpt>
      <trkpt lat="47.7175" lon="3.49208">
        <ele>221.8</ele>
        <time>2022-01-12T08:29:32Z</time>
      </trkpt>
      <trkpt lat="47.71749" lon="3.4921">
        <ele>221.9</ele>
        <time>2022-01-12T08:29:34Z</time>
      </trkpt>
      <trkpt lat="47.71748" lon="3.49212">
        <ele>222</ele>
        <time>2022-01-12T08:29:35Z</time>
      </trkpt>
      <trkpt lat="47.71747" lon="3.49214">
        <ele>222</ele>
        <time>2022-01-12T08:29:36Z</time>
      </trkpt>
      <trkpt lat="47.71747" lon="3.49216">
        <ele>222.2</ele>
        <time>2022-01-12T08:29:37Z</time>
      </trkpt>
      <trkpt lat="47.71745" lon="3.49219">
        <ele>222.2</ele>
        <time>2022-01-12T08:29:39Z</time>
      </trkpt>
      <trkpt lat="47.71744" lon="3.49222">
        <ele>222.3</ele>
        <time>2022-01-12T08:29:40Z</time>
      </trkpt>
      <trkpt lat="47.71743" lon="3.49223">
        <ele>222.3</ele>
        <time>2022-01-12T08:29:41Z</time>
      </trkpt>
      <trkpt lat="47.71743" lon="3.49224">
        <ele>222.4</ele>
        <time>2022-01-12T08:29:42Z</time>
      </trkpt>
      <trkpt lat="47.71741" lon="3.49226">
        <ele>222.5</ele>
        <time>2022-01-12T08:29:44Z</time>
      </trkpt>
      <trkpt lat="47.71741" lon="3.49228">
        <ele>222.5</ele>
        <time>2022-01-12T08:29:45Z</time>
      </trkpt>
      <trkpt lat="47.7174" lon="3.4923">
        <ele>222.5</ele>
        <time>2022-01-12T08:29:46Z</time>
      </trkpt>
      <trkpt lat="47.71739" lon="3.49231">
        <ele>222.5</ele>
        <time>2022-01-12T08:29:47Z</time>
      </trkpt>
      <trkpt lat="47.71739" lon="3.49233">
        <ele>222.6</ele>
        <time>2022-01-12T08:29:48Z</time>
      </trkpt>
      <trkpt lat="47.71738" lon="3.49235">
        <ele>222.7</ele>
        <time>2022-01-12T08:29:49Z</time>
      </trkpt>
      <trkpt lat="47.71737" lon="3.49236">
        <ele>222.7</ele>
        <time>2022-01-12T08:29:51Z</time>
      </trkpt>
      <trkpt lat="47.71736" lon="3.49238">
        <ele>222.8</ele>
        <time>2022-01-12T08:29:52Z</time>
      </trkpt>
      <trkpt lat="47.71735" lon="3.4924">
        <ele>222.8</ele>
        <time>2022-01-12T08:29:53Z</time>
      </trkpt>
      <trkpt lat="47.71735" lon="3.49241">
        <ele>222.8</ele>
        <time>2022-01-12T08:29:54Z</time>
      </trkpt>
      <trkpt lat="47.71734" lon="3.49243">
        <ele>222.9</ele>
        <time>2022-01-12T08:29:55Z</time>
      </trkpt>
      <trkpt lat="47.71733" lon="3.49245">
        <ele>222.9</ele>
        <time>2022-01-12T08:29:56Z</time>
      </trkpt>
      <trkpt lat="47.71733" lon="3.49246">
        <ele>223.1</ele>
        <time>2022-01-12T08:29:58Z</time>
      </trkpt>
      <trkpt lat="47.71732" lon="3.49248">
        <ele>223.1</ele>
        <time>2022-01-12T08:29:59Z</time>
      </trkpt>
      <trkpt lat="47.71732" lon="3.49249">
        <ele>223.1</ele>
        <time>2022-01-12T08:30:00Z</time>
      </trkpt>
      <trkpt lat="47.71731" lon="3.4925">
        <ele>223.2</ele>
        <time>2022-01-12T08:30:01Z</time>
      </trkpt>
      <trkpt lat="47.71731" lon="3.49252">
        <ele>223.2</ele>
        <time>2022-01-12T08:30:02Z</time>
      </trkpt>
      <trkpt lat="47.7173" lon="3.49253">
        <ele>223.2</ele>
        <time>2022-01-12T08:30:03Z</time>
      </trkpt>
      <trkpt lat="47.7173" lon="3.49254">
        <ele>223.3</ele>
        <time>2022-01-12T08:30:04Z</time>
      </trkpt>
      <trkpt lat="47.71729" lon="3.49255">
        <ele>223.3</ele>
        <time>2022-01-12T08:30:05Z</time>
      </trkpt>
      <trkpt lat="47.71729" lon="3.49257">
        <ele>223.3</ele>
        <time>2022-01-12T08:30:06Z</time>
      </trkpt>
      <trkpt lat="47.71729" lon="3.49258">
        <ele>223.4</ele>
        <time>2022-01-12T08:30:07Z</time>
      </trkpt>
      <trkpt lat="47.71728" lon="3.49259">
        <ele>223.4</ele>
        <time>2022-01-12T08:30:08Z</time>
      </trkpt>
      <trkpt lat="47.71727" lon="3.49262">
        <ele>223.4</ele>
        <time>2022-01-12T08:30:09Z</time>
      </trkpt>
      <trkpt lat="47.71726" lon="3.49263">
        <ele>223.6</ele>
        <time>2022-01-12T08:30:10Z</time>
      </trkpt>
      <trkpt lat="47.71726" lon="3.49264">
        <ele>223.6</ele>
        <time>2022-01-12T08:30:11Z</time>
      </trkpt>
      <trkpt lat="47.71725" lon="3.49265">
        <ele>223.6</ele>
        <time>2022-01-12T08:30:12Z</time>
      </trkpt>
      <trkpt lat="47.71725" lon="3.49266">
        <ele>223.6</ele>
        <time>2022-01-12T08:30:13Z</time>
      </trkpt>
      <trkpt lat="47.71724" lon="3.49268">
        <ele>223.7</ele>
        <time>2022-01-12T08:30:15Z</time>
      </trkpt>
      <trkpt lat="47.71724" lon="3.4927">
        <ele>223.7</ele>
        <time>2022-01-12T08:30:16Z</time>
      </trkpt>
      <trkpt lat="47.71723" lon="3.49272">
        <ele>223.8</ele>
        <time>2022-01-12T08:30:17Z</time>
      </trkpt>
      <trkpt lat="47.71723" lon="3.49274">
        <ele>223.8</ele>
        <time>2022-01-12T08:30:18Z</time>
      </trkpt>
      <trkpt lat="47.71722" lon="3.49277">
        <ele>224</ele>
        <time>2022-01-12T08:30:20Z</time>
      </trkpt>
      <trkpt lat="47.71722" lon="3.49279">
        <ele>224</ele>
        <time>2022-01-12T08:30:21Z</time>
      </trkpt>
      <trkpt lat="47.71722" lon="3.4928">
        <ele>224.1</ele>
        <time>2022-01-12T08:30:22Z</time>
      </trkpt>
      <trkpt lat="47.71721" lon="3.49282">
        <ele>224.1</ele>
        <time>2022-01-12T08:30:23Z</time>
      </trkpt>
      <trkpt lat="47.7172" lon="3.49285">
        <ele>224.2</ele>
        <time>2022-01-12T08:30:24Z</time>
      </trkpt>
      <trkpt lat="47.7172" lon="3.49287">
        <ele>224.2</ele>
        <time>2022-01-12T08:30:25Z</time>
      </trkpt>
      <trkpt lat="47.7172" lon="3.49288">
        <ele>224.3</ele>
        <time>2022-01-12T08:30:27Z</time>
      </trkpt>
      <trkpt lat="47.7172" lon="3.49289">
        <ele>224.3</ele>
        <time>2022-01-12T08:30:28Z</time>
      </trkpt>
      <trkpt lat="47.71719" lon="3.49291">
        <ele>224.3</ele>
        <time>2022-01-12T08:30:29Z</time>
      </trkpt>
      <trkpt lat="47.71719" lon="3.49292">
        <ele>224.3</ele>
        <time>2022-01-12T08:30:30Z</time>
      </trkpt>
      <trkpt lat="47.71719" lon="3.49295">
        <ele>224.4</ele>
        <time>2022-01-12T08:30:31Z</time>
      </trkpt>
      <trkpt lat="47.71719" lon="3.49297">
        <ele>224.5</ele>
        <time>2022-01-12T08:30:32Z</time>
      </trkpt>
      <trkpt lat="47.71718" lon="3.49299">
        <ele>224.5</ele>
        <time>2022-01-12T08:30:34Z</time>
      </trkpt>
      <trkpt lat="47.71718" lon="3.493">
        <ele>224.6</ele>
        <time>2022-01-12T08:30:35Z</time>
      </trkpt>
      <trkpt lat="47.71718" lon="3.49302">
        <ele>224.7</ele>
        <time>2022-01-12T08:30:36Z</time>
      </trkpt>
      <trkpt lat="47.71718" lon="3.49303">
        <ele>224.7</ele>
        <time>2022-01-12T08:30:37Z</time>
      </trkpt>
      <trkpt lat="47.71718" lon="3.49306">
        <ele>224.8</ele>
        <time>2022-01-12T08:30:39Z</time>
      </trkpt>
      <trkpt lat="47.71718" lon="3.49308">
        <ele>224.8</ele>
        <time>2022-01-12T08:30:40Z</time>
      </trkpt>
      <trkpt lat="47.71718" lon="3.49311">
        <ele>224.8</ele>
        <time>2022-01-12T08:30:41Z</time>
      </trkpt>
      <trkpt lat="47.71718" lon="3.49313">
        <ele>224.8</ele>
        <time>2022-01-12T08:30:42Z</time>
      </trkpt>
      <trkpt lat="47.71719" lon="3.49314">
        <ele>224.9</ele>
        <time>2022-01-12T08:30:43Z</time>
      </trkpt>
      <trkpt lat="47.71719" lon="3.49318">
        <ele>224.9</ele>
        <time>2022-01-12T08:30:44Z</time>
      </trkpt>
      <trkpt lat="47.71719" lon="3.4932">
        <ele>225.1</ele>
        <time>2022-01-12T08:30:46Z</time>
      </trkpt>
      <trkpt lat="47.71719" lon="3.49321">
        <ele>225.1</ele>
        <time>2022-01-12T08:30:47Z</time>
      </trkpt>
      <trkpt lat="47.71719" lon="3.49323">
        <ele>225.2</ele>
        <time>2022-01-12T08:30:48Z</time>
      </trkpt>
      <trkpt lat="47.71719" lon="3.49324">
        <ele>225.2</ele>
        <time>2022-01-12T08:30:49Z</time>
      </trkpt>
      <trkpt lat="47.71719" lon="3.49325">
        <ele>225.2</ele>
        <time>2022-01-12T08:30:50Z</time>
      </trkpt>
      <trkpt lat="47.71719" lon="3.49327">
        <ele>225.3</ele>
        <time>2022-01-12T08:30:51Z</time>
      </trkpt>
      <trkpt lat="47.71718" lon="3.49329">
        <ele>225.3</ele>
        <time>2022-01-12T08:30:53Z</time>
      </trkpt>
      <trkpt lat="47.71718" lon="3.49331">
        <ele>225.3</ele>
        <time>2022-01-12T08:30:54Z</time>
      </trkpt>
      <trkpt lat="47.71718" lon="3.49333">
        <ele>225.5</ele>
        <time>2022-01-12T08:30:55Z</time>
      </trkpt>
      <trkpt lat="47.71719" lon="3.49335">
        <ele>225.5</ele>
        <time>2022-01-12T08:30:56Z</time>
      </trkpt>
      <trkpt lat="47.71719" lon="3.49336">
        <ele>225.7</ele>
        <time>2022-01-12T08:30:57Z</time>
      </trkpt>
      <trkpt lat="47.71719" lon="3.49338">
        <ele>225.7</ele>
        <time>2022-01-12T08:30:59Z</time>
      </trkpt>
      <trkpt lat="47.71719" lon="3.49339">
        <ele>225.7</ele>
        <time>2022-01-12T08:31:00Z</time>
      </trkpt>
      <trkpt lat="47.7172" lon="3.49341">
        <ele>225.8</ele>
        <time>2022-01-12T08:31:01Z</time>
      </trkpt>
      <trkpt lat="47.7172" lon="3.49342">
        <ele>225.8</ele>
        <time>2022-01-12T08:31:02Z</time>
      </trkpt>
      <trkpt lat="47.7172" lon="3.49344">
        <ele>225.8</ele>
        <time>2022-01-12T08:31:03Z</time>
      </trkpt>
      <trkpt lat="47.7172" lon="3.49346">
        <ele>225.9</ele>
        <time>2022-01-12T08:31:04Z</time>
      </trkpt>
      <trkpt lat="47.7172" lon="3.49346">
        <ele>225.9</ele>
        <time>2022-01-12T08:31:05Z</time>
      </trkpt>
      <trkpt lat="47.7172" lon="3.49347">
        <ele>225.9</ele>
        <time>2022-01-12T08:31:06Z</time>
      </trkpt>
      <trkpt lat="47.7172" lon="3.4935">
        <ele>226.1</ele>
        <time>2022-01-12T08:31:07Z</time>
      </trkpt>
      <trkpt lat="47.7172" lon="3.49351">
        <ele>226.1</ele>
        <time>2022-01-12T08:31:08Z</time>
      </trkpt>
      <trkpt lat="47.71721" lon="3.49353">
        <ele>226.2</ele>
        <time>2022-01-12T08:31:09Z</time>
      </trkpt>
      <trkpt lat="47.71721" lon="3.49354">
        <ele>226.2</ele>
        <time>2022-01-12T08:31:11Z</time>
      </trkpt>
      <trkpt lat="47.71721" lon="3.49356">
        <ele>226.2</ele>
        <time>2022-01-12T08:31:12Z</time>
      </trkpt>
      <trkpt lat="47.71722" lon="3.49358">
        <ele>226.3</ele>
        <time>2022-01-12T08:31:13Z</time>
      </trkpt>
      <trkpt lat="47.71722" lon="3.4936">
        <ele>226.3</ele>
        <time>2022-01-12T08:31:14Z</time>
      </trkpt>
      <trkpt lat="47.71722" lon="3.49362">
        <ele>226.5</ele>
        <time>2022-01-12T08:31:15Z</time>
      </trkpt>
      <trkpt lat="47.71723" lon="3.49365">
        <ele>226.5</ele>
        <time>2022-01-12T08:31:17Z</time>
      </trkpt>
      <trkpt lat="47.71723" lon="3.49367">
        <ele>226.7</ele>
        <time>2022-01-12T08:31:18Z</time>
      </trkpt>
      <trkpt lat="47.71723" lon="3.49368">
        <ele>226.7</ele>
        <time>2022-01-12T08:31:19Z</time>
      </trkpt>
      <trkpt lat="47.71723" lon="3.49371">
        <ele>226.8</ele>
        <time>2022-01-12T08:31:20Z</time>
      </trkpt>
      <trkpt lat="47.71723" lon="3.49373">
        <ele>226.8</ele>
        <time>2022-01-12T08:31:21Z</time>
      </trkpt>
      <trkpt lat="47.71723" lon="3.49374">
        <ele>226.8</ele>
        <time>2022-01-12T08:31:22Z</time>
      </trkpt>
      <trkpt lat="47.71723" lon="3.49376">
        <ele>227</ele>
        <time>2022-01-12T08:31:24Z</time>
      </trkpt>
      <trkpt lat="47.71723" lon="3.49379">
        <ele>227.1</ele>
        <time>2022-01-12T08:31:25Z</time>
      </trkpt>
      <trkpt lat="47.71723" lon="3.49382">
        <ele>227.1</ele>
        <time>2022-01-12T08:31:26Z</time>
      </trkpt>
      <trkpt lat="47.71723" lon="3.49383">
        <ele>227.3</ele>
        <time>2022-01-12T08:31:27Z</time>
      </trkpt>
      <trkpt lat="47.71723" lon="3.49384">
        <ele>227.3</ele>
        <time>2022-01-12T08:31:28Z</time>
      </trkpt>
      <trkpt lat="47.71723" lon="3.49387">
        <ele>227.4</ele>
        <time>2022-01-12T08:31:30Z</time>
      </trkpt>
      <trkpt lat="47.71723" lon="3.49388">
        <ele>227.4</ele>
        <time>2022-01-12T08:31:31Z</time>
      </trkpt>
      <trkpt lat="47.71722" lon="3.4939">
        <ele>227.4</ele>
        <time>2022-01-12T08:31:32Z</time>
      </trkpt>
      <trkpt lat="47.71722" lon="3.49392">
        <ele>227.6</ele>
        <time>2022-01-12T08:31:33Z</time>
      </trkpt>
      <trkpt lat="47.71721" lon="3.49395">
        <ele>227.6</ele>
        <time>2022-01-12T08:31:35Z</time>
      </trkpt>
      <trkpt lat="47.71721" lon="3.49397">
        <ele>227.7</ele>
        <time>2022-01-12T08:31:36Z</time>
      </trkpt>
      <trkpt lat="47.71721" lon="3.49398">
        <ele>227.7</ele>
        <time>2022-01-12T08:31:37Z</time>
      </trkpt>
      <trkpt lat="47.71721" lon="3.494">
        <ele>227.9</ele>
        <time>2022-01-12T08:31:38Z</time>
      </trkpt>
      <trkpt lat="47.71721" lon="3.49402">
        <ele>227.9</ele>
        <time>2022-01-12T08:31:39Z</time>
      </trkpt>
      <trkpt lat="47.7172" lon="3.49403">
        <ele>227.9</ele>
        <time>2022-01-12T08:31:41Z</time>
      </trkpt>
      <trkpt lat="47.7172" lon="3.49405">
        <ele>228.1</ele>
        <time>2022-01-12T08:31:42Z</time>
      </trkpt>
      <trkpt lat="47.7172" lon="3.49408">
        <ele>228.1</ele>
        <time>2022-01-12T08:31:43Z</time>
      </trkpt>
      <trkpt lat="47.7172" lon="3.49409">
        <ele>228.3</ele>
        <time>2022-01-12T08:31:44Z</time>
      </trkpt>
      <trkpt lat="47.7172" lon="3.49411">
        <ele>228.3</ele>
        <time>2022-01-12T08:31:45Z</time>
      </trkpt>
      <trkpt lat="47.7172" lon="3.49412">
        <ele>228.3</ele>
        <time>2022-01-12T08:31:46Z</time>
      </trkpt>
      <trkpt lat="47.7172" lon="3.49414">
        <ele>228.5</ele>
        <time>2022-01-12T08:31:48Z</time>
      </trkpt>
      <trkpt lat="47.7172" lon="3.49416">
        <ele>228.5</ele>
        <time>2022-01-12T08:31:49Z</time>
      </trkpt>
      <trkpt lat="47.7172" lon="3.49419">
        <ele>228.6</ele>
        <time>2022-01-12T08:31:50Z</time>
      </trkpt>
      <trkpt lat="47.7172" lon="3.4942">
        <ele>228.6</ele>
        <time>2022-01-12T08:31:51Z</time>
      </trkpt>
      <trkpt lat="47.7172" lon="3.49421">
        <ele>228.6</ele>
        <time>2022-01-12T08:31:52Z</time>
      </trkpt>
      <trkpt lat="47.7172" lon="3.49423">
        <ele>228.8</ele>
        <time>2022-01-12T08:31:53Z</time>
      </trkpt>
      <trkpt lat="47.71721" lon="3.49424">
        <ele>228.8</ele>
        <time>2022-01-12T08:31:54Z</time>
      </trkpt>
      <trkpt lat="47.71721" lon="3.49426">
        <ele>229</ele>
        <time>2022-01-12T08:31:55Z</time>
      </trkpt>
      <trkpt lat="47.71721" lon="3.49429">
        <ele>229</ele>
        <time>2022-01-12T08:31:56Z</time>
      </trkpt>
      <trkpt lat="47.71721" lon="3.4943">
        <ele>229.2</ele>
        <time>2022-01-12T08:31:58Z</time>
      </trkpt>
      <trkpt lat="47.71721" lon="3.49432">
        <ele>229.2</ele>
        <time>2022-01-12T08:31:59Z</time>
      </trkpt>
      <trkpt lat="47.71722" lon="3.49435">
        <ele>229.3</ele>
        <time>2022-01-12T08:32:00Z</time>
      </trkpt>
      <trkpt lat="47.71722" lon="3.49436">
        <ele>229.3</ele>
        <time>2022-01-12T08:32:01Z</time>
      </trkpt>
      <trkpt lat="47.71722" lon="3.49437">
        <ele>229.3</ele>
        <time>2022-01-12T08:32:02Z</time>
      </trkpt>
      <trkpt lat="47.71723" lon="3.49441">
        <ele>229.5</ele>
        <time>2022-01-12T08:32:03Z</time>
      </trkpt>
      <trkpt lat="47.71723" lon="3.49443">
        <ele>229.6</ele>
        <time>2022-01-12T08:32:05Z</time>
      </trkpt>
      <trkpt lat="47.71723" lon="3.49444">
        <ele>229.6</ele>
        <time>2022-01-12T08:32:06Z</time>
      </trkpt>
      <trkpt lat="47.71723" lon="3.49446">
        <ele>229.6</ele>
        <time>2022-01-12T08:32:07Z</time>
      </trkpt>
      <trkpt lat="47.71723" lon="3.49447">
        <ele>229.8</ele>
        <time>2022-01-12T08:32:08Z</time>
      </trkpt>
      <trkpt lat="47.71723" lon="3.49449">
        <ele>229.8</ele>
        <time>2022-01-12T08:32:09Z</time>
      </trkpt>
      <trkpt lat="47.71723" lon="3.49451">
        <ele>229.9</ele>
        <time>2022-01-12T08:32:10Z</time>
      </trkpt>
      <trkpt lat="47.71723" lon="3.49454">
        <ele>229.9</ele>
        <time>2022-01-12T08:32:12Z</time>
      </trkpt>
      <trkpt lat="47.71723" lon="3.49456">
        <ele>230.1</ele>
        <time>2022-01-12T08:32:13Z</time>
      </trkpt>
      <trkpt lat="47.71723" lon="3.49458">
        <ele>230.1</ele>
        <time>2022-01-12T08:32:14Z</time>
      </trkpt>
      <trkpt lat="47.71723" lon="3.49461">
        <ele>230.2</ele>
        <time>2022-01-12T08:32:15Z</time>
      </trkpt>
      <trkpt lat="47.71723" lon="3.49462">
        <ele>230.2</ele>
        <time>2022-01-12T08:32:16Z</time>
      </trkpt>
      <trkpt lat="47.71723" lon="3.49464">
        <ele>230.4</ele>
        <time>2022-01-12T08:32:17Z</time>
      </trkpt>
      <trkpt lat="47.71722" lon="3.49466">
        <ele>230.4</ele>
        <time>2022-01-12T08:32:19Z</time>
      </trkpt>
      <trkpt lat="47.71722" lon="3.49469">
        <ele>230.6</ele>
        <time>2022-01-12T08:32:20Z</time>
      </trkpt>
      <trkpt lat="47.71722" lon="3.49471">
        <ele>230.6</ele>
        <time>2022-01-12T08:32:21Z</time>
      </trkpt>
      <trkpt lat="47.71722" lon="3.49474">
        <ele>230.8</ele>
        <time>2022-01-12T08:32:22Z</time>
      </trkpt>
      <trkpt lat="47.71722" lon="3.49475">
        <ele>230.8</ele>
        <time>2022-01-12T08:32:23Z</time>
      </trkpt>
      <trkpt lat="47.71722" lon="3.49477">
        <ele>230.8</ele>
        <time>2022-01-12T08:32:24Z</time>
      </trkpt>
      <trkpt lat="47.71722" lon="3.4948">
        <ele>231</ele>
        <time>2022-01-12T08:32:26Z</time>
      </trkpt>
      <trkpt lat="47.71722" lon="3.49481">
        <ele>231.1</ele>
        <time>2022-01-12T08:32:27Z</time>
      </trkpt>
      <trkpt lat="47.71722" lon="3.49483">
        <ele>231.1</ele>
        <time>2022-01-12T08:32:28Z</time>
      </trkpt>
      <trkpt lat="47.71722" lon="3.49485">
        <ele>231.1</ele>
        <time>2022-01-12T08:32:29Z</time>
      </trkpt>
      <trkpt lat="47.71722" lon="3.49488">
        <ele>231.3</ele>
        <time>2022-01-12T08:32:30Z</time>
      </trkpt>
      <trkpt lat="47.71721" lon="3.4949">
        <ele>231.3</ele>
        <time>2022-01-12T08:32:31Z</time>
      </trkpt>
      <trkpt lat="47.71721" lon="3.49492">
        <ele>231.5</ele>
        <time>2022-01-12T08:32:33Z</time>
      </trkpt>
      <trkpt lat="47.71721" lon="3.49494">
        <ele>231.4</ele>
        <time>2022-01-12T08:32:34Z</time>
      </trkpt>
      <trkpt lat="47.71721" lon="3.49497">
        <ele>231.6</ele>
        <time>2022-01-12T08:32:35Z</time>
      </trkpt>
      <trkpt lat="47.71721" lon="3.49498">
        <ele>231.6</ele>
        <time>2022-01-12T08:32:36Z</time>
      </trkpt>
      <trkpt lat="47.71721" lon="3.495">
        <ele>231.8</ele>
        <time>2022-01-12T08:32:37Z</time>
      </trkpt>
      <trkpt lat="47.71721" lon="3.49501">
        <ele>231.8</ele>
        <time>2022-01-12T08:32:38Z</time>
      </trkpt>
      <trkpt lat="47.7172" lon="3.49505">
        <ele>232</ele>
        <time>2022-01-12T08:32:40Z</time>
      </trkpt>
      <trkpt lat="47.7172" lon="3.49507">
        <ele>232.1</ele>
        <time>2022-01-12T08:32:41Z</time>
      </trkpt>
      <trkpt lat="47.7172" lon="3.49508">
        <ele>232.1</ele>
        <time>2022-01-12T08:32:42Z</time>
      </trkpt>
      <trkpt lat="47.7172" lon="3.49509">
        <ele>232.1</ele>
        <time>2022-01-12T08:32:43Z</time>
      </trkpt>
      <trkpt lat="47.7172" lon="3.49511">
        <ele>232.1</ele>
        <time>2022-01-12T08:32:44Z</time>
      </trkpt>
      <trkpt lat="47.7172" lon="3.49513">
        <ele>232.3</ele>
        <time>2022-01-12T08:32:45Z</time>
      </trkpt>
      <trkpt lat="47.7172" lon="3.49514">
        <ele>232.3</ele>
        <time>2022-01-12T08:32:46Z</time>
      </trkpt>
      <trkpt lat="47.7172" lon="3.49515">
        <ele>232.3</ele>
        <time>2022-01-12T08:32:47Z</time>
      </trkpt>
      <trkpt lat="47.7172" lon="3.49517">
        <ele>232.4</ele>
        <time>2022-01-12T08:32:48Z</time>
      </trkpt>
      <trkpt lat="47.7172" lon="3.49518">
        <ele>232.4</ele>
        <time>2022-01-12T08:32:49Z</time>
      </trkpt>
      <trkpt lat="47.7172" lon="3.4952">
        <ele>232.5</ele>
        <time>2022-01-12T08:32:50Z</time>
      </trkpt>
      <trkpt lat="47.7172" lon="3.49522">
        <ele>232.5</ele>
        <time>2022-01-12T08:32:51Z</time>
      </trkpt>
      <trkpt lat="47.7172" lon="3.49523">
        <ele>232.5</ele>
        <time>2022-01-12T08:32:52Z</time>
      </trkpt>
      <trkpt lat="47.7172" lon="3.49526">
        <ele>232.6</ele>
        <time>2022-01-12T08:32:54Z</time>
      </trkpt>
      <trkpt lat="47.7172" lon="3.49529">
        <ele>232.7</ele>
        <time>2022-01-12T08:32:55Z</time>
      </trkpt>
      <trkpt lat="47.7172" lon="3.4953">
        <ele>232.7</ele>
        <time>2022-01-12T08:32:56Z</time>
      </trkpt>
      <trkpt lat="47.7172" lon="3.49532">
        <ele>232.7</ele>
        <time>2022-01-12T08:32:57Z</time>
      </trkpt>
      <trkpt lat="47.7172" lon="3.49534">
        <ele>232.8</ele>
        <time>2022-01-12T08:32:58Z</time>
      </trkpt>
      <trkpt lat="47.7172" lon="3.49535">
        <ele>232.8</ele>
        <time>2022-01-12T08:32:59Z</time>
      </trkpt>
      <trkpt lat="47.7172" lon="3.49538">
        <ele>232.8</ele>
        <time>2022-01-12T08:33:00Z</time>
      </trkpt>
      <trkpt lat="47.7172" lon="3.4954">
        <ele>232.8</ele>
        <time>2022-01-12T08:33:01Z</time>
      </trkpt>
      <trkpt lat="47.7172" lon="3.49541">
        <ele>232.9</ele>
        <time>2022-01-12T08:33:02Z</time>
      </trkpt>
      <trkpt lat="47.7172" lon="3.49543">
        <ele>232.9</ele>
        <time>2022-01-12T08:33:04Z</time>
      </trkpt>
      <trkpt lat="47.7172" lon="3.49546">
        <ele>233</ele>
        <time>2022-01-12T08:33:05Z</time>
      </trkpt>
      <trkpt lat="47.7172" lon="3.49547">
        <ele>233</ele>
        <time>2022-01-12T08:33:06Z</time>
      </trkpt>
      <trkpt lat="47.7172" lon="3.49549">
        <ele>233</ele>
        <time>2022-01-12T08:33:07Z</time>
      </trkpt>
      <trkpt lat="47.7172" lon="3.49551">
        <ele>233</ele>
        <time>2022-01-12T08:33:08Z</time>
      </trkpt>
      <trkpt lat="47.71719" lon="3.49553">
        <ele>233</ele>
        <time>2022-01-12T08:33:09Z</time>
      </trkpt>
      <trkpt lat="47.71719" lon="3.49555">
        <ele>233.1</ele>
        <time>2022-01-12T08:33:11Z</time>
      </trkpt>
      <trkpt lat="47.7172" lon="3.49557">
        <ele>233.1</ele>
        <time>2022-01-12T08:33:12Z</time>
      </trkpt>
      <trkpt lat="47.7172" lon="3.49559">
        <ele>233.2</ele>
        <time>2022-01-12T08:33:13Z</time>
      </trkpt>
      <trkpt lat="47.7172" lon="3.4956">
        <ele>233.2</ele>
        <time>2022-01-12T08:33:14Z</time>
      </trkpt>
      <trkpt lat="47.7172" lon="3.49564">
        <ele>233.3</ele>
        <time>2022-01-12T08:33:15Z</time>
      </trkpt>
      <trkpt lat="47.7172" lon="3.49566">
        <ele>233.3</ele>
        <time>2022-01-12T08:33:17Z</time>
      </trkpt>
      <trkpt lat="47.7172" lon="3.49567">
        <ele>233.3</ele>
        <time>2022-01-12T08:33:18Z</time>
      </trkpt>
      <trkpt lat="47.7172" lon="3.49569">
        <ele>233.3</ele>
        <time>2022-01-12T08:33:19Z</time>
      </trkpt>
      <trkpt lat="47.71721" lon="3.4957">
        <ele>233.3</ele>
        <time>2022-01-12T08:33:20Z</time>
      </trkpt>
      <trkpt lat="47.71721" lon="3.49572">
        <ele>233.4</ele>
        <time>2022-01-12T08:33:21Z</time>
      </trkpt>
      <trkpt lat="47.71721" lon="3.49573">
        <ele>233.4</ele>
        <time>2022-01-12T08:33:22Z</time>
      </trkpt>
      <trkpt lat="47.71721" lon="3.49574">
        <ele>233.5</ele>
        <time>2022-01-12T08:33:23Z</time>
      </trkpt>
      <trkpt lat="47.71722" lon="3.49575">
        <ele>233.5</ele>
        <time>2022-01-12T08:33:24Z</time>
      </trkpt>
      <trkpt lat="47.71722" lon="3.49579">
        <ele>233.6</ele>
        <time>2022-01-12T08:33:25Z</time>
      </trkpt>
      <trkpt lat="47.71722" lon="3.4958">
        <ele>233.6</ele>
        <time>2022-01-12T08:33:27Z</time>
      </trkpt>
      <trkpt lat="47.71723" lon="3.49581">
        <ele>233.6</ele>
        <time>2022-01-12T08:33:28Z</time>
      </trkpt>
      <trkpt lat="47.71723" lon="3.49583">
        <ele>233.6</ele>
        <time>2022-01-12T08:33:29Z</time>
      </trkpt>
      <trkpt lat="47.71723" lon="3.49586">
        <ele>233.6</ele>
        <time>2022-01-12T08:33:30Z</time>
      </trkpt>
      <trkpt lat="47.71723" lon="3.49587">
        <ele>233.6</ele>
        <time>2022-01-12T08:33:31Z</time>
      </trkpt>
      <trkpt lat="47.71724" lon="3.49589">
        <ele>233.6</ele>
        <time>2022-01-12T08:33:32Z</time>
      </trkpt>
      <trkpt lat="47.71724" lon="3.4959">
        <ele>233.6</ele>
        <time>2022-01-12T08:33:33Z</time>
      </trkpt>
      <trkpt lat="47.71724" lon="3.49592">
        <ele>233.8</ele>
        <time>2022-01-12T08:33:34Z</time>
      </trkpt>
      <trkpt lat="47.71725" lon="3.49594">
        <ele>233.8</ele>
        <time>2022-01-12T08:33:36Z</time>
      </trkpt>
      <trkpt lat="47.71725" lon="3.49596">
        <ele>233.8</ele>
        <time>2022-01-12T08:33:37Z</time>
      </trkpt>
      <trkpt lat="47.71725" lon="3.49597">
        <ele>233.8</ele>
        <time>2022-01-12T08:33:38Z</time>
      </trkpt>
      <trkpt lat="47.71725" lon="3.49599">
        <ele>233.8</ele>
        <time>2022-01-12T08:33:39Z</time>
      </trkpt>
      <trkpt lat="47.71725" lon="3.49602">
        <ele>233.8</ele>
        <time>2022-01-12T08:33:40Z</time>
      </trkpt>
      <trkpt lat="47.71725" lon="3.49603">
        <ele>233.8</ele>
        <time>2022-01-12T08:33:41Z</time>
      </trkpt>
      <trkpt lat="47.71725" lon="3.49604">
        <ele>233.8</ele>
        <time>2022-01-12T08:33:42Z</time>
      </trkpt>
      <trkpt lat="47.71725" lon="3.49606">
        <ele>233.8</ele>
        <time>2022-01-12T08:33:43Z</time>
      </trkpt>
      <trkpt lat="47.71725" lon="3.49609">
        <ele>233.8</ele>
        <time>2022-01-12T08:33:45Z</time>
      </trkpt>
      <trkpt lat="47.71725" lon="3.4961">
        <ele>233.7</ele>
        <time>2022-01-12T08:33:46Z</time>
      </trkpt>
      <trkpt lat="47.71725" lon="3.49612">
        <ele>233.7</ele>
        <time>2022-01-12T08:33:47Z</time>
      </trkpt>
      <trkpt lat="47.71725" lon="3.49614">
        <ele>233.7</ele>
        <time>2022-01-12T08:33:48Z</time>
      </trkpt>
      <trkpt lat="47.71725" lon="3.49616">
        <ele>233.7</ele>
        <time>2022-01-12T08:33:49Z</time>
      </trkpt>
      <trkpt lat="47.71726" lon="3.49618">
        <ele>233.7</ele>
        <time>2022-01-12T08:33:50Z</time>
      </trkpt>
      <trkpt lat="47.71725" lon="3.49619">
        <ele>233.6</ele>
        <time>2022-01-12T08:33:51Z</time>
      </trkpt>
      <trkpt lat="47.71725" lon="3.49621">
        <ele>233.6</ele>
        <time>2022-01-12T08:33:52Z</time>
      </trkpt>
      <trkpt lat="47.71725" lon="3.49623">
        <ele>233.6</ele>
        <time>2022-01-12T08:33:54Z</time>
      </trkpt>
      <trkpt lat="47.71725" lon="3.49625">
        <ele>233.6</ele>
        <time>2022-01-12T08:33:55Z</time>
      </trkpt>
      <trkpt lat="47.71725" lon="3.49627">
        <ele>233.5</ele>
        <time>2022-01-12T08:33:56Z</time>
      </trkpt>
      <trkpt lat="47.71725" lon="3.49629">
        <ele>233.5</ele>
        <time>2022-01-12T08:33:57Z</time>
      </trkpt>
      <trkpt lat="47.71725" lon="3.4963">
        <ele>233.5</ele>
        <time>2022-01-12T08:33:58Z</time>
      </trkpt>
      <trkpt lat="47.71725" lon="3.49632">
        <ele>233.5</ele>
        <time>2022-01-12T08:33:59Z</time>
      </trkpt>
      <trkpt lat="47.71725" lon="3.49634">
        <ele>233.5</ele>
        <time>2022-01-12T08:34:00Z</time>
      </trkpt>
      <trkpt lat="47.71725" lon="3.49636">
        <ele>233.5</ele>
        <time>2022-01-12T08:34:01Z</time>
      </trkpt>
      <trkpt lat="47.71725" lon="3.49638">
        <ele>233.4</ele>
        <time>2022-01-12T08:34:03Z</time>
      </trkpt>
      <trkpt lat="47.71725" lon="3.49641">
        <ele>233.4</ele>
        <time>2022-01-12T08:34:04Z</time>
      </trkpt>
      <trkpt lat="47.71725" lon="3.49642">
        <ele>233.4</ele>
        <time>2022-01-12T08:34:05Z</time>
      </trkpt>
      <trkpt lat="47.71725" lon="3.49644">
        <ele>233.4</ele>
        <time>2022-01-12T08:34:06Z</time>
      </trkpt>
      <trkpt lat="47.71725" lon="3.49647">
        <ele>233.4</ele>
        <time>2022-01-12T08:34:07Z</time>
      </trkpt>
      <trkpt lat="47.71725" lon="3.49648">
        <ele>233.4</ele>
        <time>2022-01-12T08:34:08Z</time>
      </trkpt>
      <trkpt lat="47.71725" lon="3.4965">
        <ele>233.3</ele>
        <time>2022-01-12T08:34:09Z</time>
      </trkpt>
      <trkpt lat="47.71725" lon="3.49653">
        <ele>233.3</ele>
        <time>2022-01-12T08:34:11Z</time>
      </trkpt>
      <trkpt lat="47.71725" lon="3.49654">
        <ele>233.3</ele>
        <time>2022-01-12T08:34:12Z</time>
      </trkpt>
      <trkpt lat="47.71725" lon="3.49658">
        <ele>233.2</ele>
        <time>2022-01-12T08:34:13Z</time>
      </trkpt>
      <trkpt lat="47.71725" lon="3.49659">
        <ele>233.2</ele>
        <time>2022-01-12T08:34:14Z</time>
      </trkpt>
      <trkpt lat="47.71725" lon="3.4966">
        <ele>233.2</ele>
        <time>2022-01-12T08:34:15Z</time>
      </trkpt>
      <trkpt lat="47.71725" lon="3.49664">
        <ele>233.2</ele>
        <time>2022-01-12T08:34:16Z</time>
      </trkpt>
      <trkpt lat="47.71725" lon="3.49665">
        <ele>233.2</ele>
        <time>2022-01-12T08:34:18Z</time>
      </trkpt>
      <trkpt lat="47.71726" lon="3.49666">
        <ele>233.2</ele>
        <time>2022-01-12T08:34:19Z</time>
      </trkpt>
      <trkpt lat="47.71726" lon="3.49669">
        <ele>233.2</ele>
        <time>2022-01-12T08:34:20Z</time>
      </trkpt>
      <trkpt lat="47.71726" lon="3.4967">
        <ele>233.1</ele>
        <time>2022-01-12T08:34:21Z</time>
      </trkpt>
      <trkpt lat="47.71726" lon="3.49671">
        <ele>233.1</ele>
        <time>2022-01-12T08:34:22Z</time>
      </trkpt>
      <trkpt lat="47.71727" lon="3.49674">
        <ele>233.2</ele>
        <time>2022-01-12T08:34:23Z</time>
      </trkpt>
      <trkpt lat="47.71727" lon="3.49675">
        <ele>233.2</ele>
        <time>2022-01-12T08:34:24Z</time>
      </trkpt>
      <trkpt lat="47.71727" lon="3.49677">
        <ele>233.2</ele>
        <time>2022-01-12T08:34:25Z</time>
      </trkpt>
      <trkpt lat="47.71728" lon="3.49678">
        <ele>233.3</ele>
        <time>2022-01-12T08:34:27Z</time>
      </trkpt>
      <trkpt lat="47.71729" lon="3.49679">
        <ele>233.3</ele>
        <time>2022-01-12T08:34:28Z</time>
      </trkpt>
      <trkpt lat="47.7173" lon="3.4968">
        <ele>233.3</ele>
        <time>2022-01-12T08:34:29Z</time>
      </trkpt>
      <trkpt lat="47.71731" lon="3.49682">
        <ele>233.4</ele>
        <time>2022-01-12T08:34:31Z</time>
      </trkpt>
      <trkpt lat="47.71733" lon="3.49683">
        <ele>233.4</ele>
        <time>2022-01-12T08:34:33Z</time>
      </trkpt>
      <trkpt lat="47.71733" lon="3.49684">
        <ele>233.4</ele>
        <time>2022-01-12T08:34:34Z</time>
      </trkpt>
      <trkpt lat="47.71734" lon="3.49685">
        <ele>233.4</ele>
        <time>2022-01-12T08:34:35Z</time>
      </trkpt>
      <trkpt lat="47.71735" lon="3.49686">
        <ele>233.4</ele>
        <time>2022-01-12T08:34:36Z</time>
      </trkpt>
      <trkpt lat="47.71736" lon="3.49686">
        <ele>233.5</ele>
        <time>2022-01-12T08:34:38Z</time>
      </trkpt>
      <trkpt lat="47.71737" lon="3.49687">
        <ele>233.5</ele>
        <time>2022-01-12T08:34:39Z</time>
      </trkpt>
      <trkpt lat="47.71738" lon="3.49687">
        <ele>233.5</ele>
        <time>2022-01-12T08:34:40Z</time>
      </trkpt>
      <trkpt lat="47.71739" lon="3.49687">
        <ele>233.5</ele>
        <time>2022-01-12T08:34:41Z</time>
      </trkpt>
      <trkpt lat="47.7174" lon="3.49687">
        <ele>233.5</ele>
        <time>2022-01-12T08:34:42Z</time>
      </trkpt>
      <trkpt lat="47.71741" lon="3.49687">
        <ele>233.6</ele>
        <time>2022-01-12T08:34:43Z</time>
      </trkpt>
      <trkpt lat="47.71742" lon="3.49687">
        <ele>233.6</ele>
        <time>2022-01-12T08:34:45Z</time>
      </trkpt>
      <trkpt lat="47.71743" lon="3.49687">
        <ele>233.6</ele>
        <time>2022-01-12T08:34:46Z</time>
      </trkpt>
      <trkpt lat="47.71743" lon="3.49686">
        <ele>233.6</ele>
        <time>2022-01-12T08:34:47Z</time>
      </trkpt>
      <trkpt lat="47.71745" lon="3.49686">
        <ele>233.6</ele>
        <time>2022-01-12T08:34:49Z</time>
      </trkpt>
      <trkpt lat="47.71746" lon="3.49686">
        <ele>233.7</ele>
        <time>2022-01-12T08:34:50Z</time>
      </trkpt>
      <trkpt lat="47.71747" lon="3.49686">
        <ele>233.7</ele>
        <time>2022-01-12T08:34:51Z</time>
      </trkpt>
      <trkpt lat="47.71748" lon="3.49686">
        <ele>233.7</ele>
        <time>2022-01-12T08:34:52Z</time>
      </trkpt>
      <trkpt lat="47.71749" lon="3.49687">
        <ele>233.7</ele>
        <time>2022-01-12T08:34:53Z</time>
      </trkpt>
      <trkpt lat="47.71749" lon="3.49687">
        <ele>233.7</ele>
        <time>2022-01-12T08:34:54Z</time>
      </trkpt>
      <trkpt lat="47.7175" lon="3.49688">
        <ele>233.7</ele>
        <time>2022-01-12T08:34:55Z</time>
      </trkpt>
      <trkpt lat="47.71752" lon="3.4969">
        <ele>233.8</ele>
        <time>2022-01-12T08:34:56Z</time>
      </trkpt>
      <trkpt lat="47.71752" lon="3.49691">
        <ele>233.8</ele>
        <time>2022-01-12T08:34:57Z</time>
      </trkpt>
      <trkpt lat="47.71753" lon="3.49692">
        <ele>233.8</ele>
        <time>2022-01-12T08:34:58Z</time>
      </trkpt>
      <trkpt lat="47.71754" lon="3.49693">
        <ele>233.8</ele>
        <time>2022-01-12T08:35:00Z</time>
      </trkpt>
      <trkpt lat="47.71754" lon="3.49694">
        <ele>233.8</ele>
        <time>2022-01-12T08:35:01Z</time>
      </trkpt>
      <trkpt lat="47.71755" lon="3.49694">
        <ele>233.9</ele>
        <time>2022-01-12T08:35:02Z</time>
      </trkpt>
      <trkpt lat="47.71757" lon="3.49695">
        <ele>233.9</ele>
        <time>2022-01-12T08:35:03Z</time>
      </trkpt>
      <trkpt lat="47.71758" lon="3.49695">
        <ele>233.9</ele>
        <time>2022-01-12T08:35:05Z</time>
      </trkpt>
      <trkpt lat="47.71759" lon="3.49696">
        <ele>233.9</ele>
        <time>2022-01-12T08:35:06Z</time>
      </trkpt>
      <trkpt lat="47.7176" lon="3.49696">
        <ele>233.9</ele>
        <time>2022-01-12T08:35:07Z</time>
      </trkpt>
      <trkpt lat="47.71761" lon="3.49697">
        <ele>233.9</ele>
        <time>2022-01-12T08:35:08Z</time>
      </trkpt>
      <trkpt lat="47.71762" lon="3.49698">
        <ele>234</ele>
        <time>2022-01-12T08:35:09Z</time>
      </trkpt>
      <trkpt lat="47.71762" lon="3.49699">
        <ele>234</ele>
        <time>2022-01-12T08:35:10Z</time>
      </trkpt>
      <trkpt lat="47.71764" lon="3.49699">
        <ele>234</ele>
        <time>2022-01-12T08:35:12Z</time>
      </trkpt>
      <trkpt lat="47.71765" lon="3.497">
        <ele>234</ele>
        <time>2022-01-12T08:35:13Z</time>
      </trkpt>
      <trkpt lat="47.71766" lon="3.497">
        <ele>234</ele>
        <time>2022-01-12T08:35:14Z</time>
      </trkpt>
      <trkpt lat="47.71767" lon="3.49701">
        <ele>234</ele>
        <time>2022-01-12T08:35:15Z</time>
      </trkpt>
      <trkpt lat="47.71768" lon="3.49701">
        <ele>234</ele>
        <time>2022-01-12T08:35:16Z</time>
      </trkpt>
      <trkpt lat="47.71769" lon="3.49702">
        <ele>234</ele>
        <time>2022-01-12T08:35:17Z</time>
      </trkpt>
      <trkpt lat="47.71771" lon="3.49703">
        <ele>234</ele>
        <time>2022-01-12T08:35:18Z</time>
      </trkpt>
      <trkpt lat="47.71772" lon="3.49704">
        <ele>234</ele>
        <time>2022-01-12T08:35:20Z</time>
      </trkpt>
      <trkpt lat="47.71773" lon="3.49704">
        <ele>234</ele>
        <time>2022-01-12T08:35:21Z</time>
      </trkpt>
      <trkpt lat="47.71774" lon="3.49705">
        <ele>234</ele>
        <time>2022-01-12T08:35:22Z</time>
      </trkpt>
      <trkpt lat="47.71775" lon="3.49705">
        <ele>234</ele>
        <time>2022-01-12T08:35:23Z</time>
      </trkpt>
      <trkpt lat="47.71776" lon="3.49706">
        <ele>234.1</ele>
        <time>2022-01-12T08:35:24Z</time>
      </trkpt>
      <trkpt lat="47.71778" lon="3.49707">
        <ele>234.1</ele>
        <time>2022-01-12T08:35:26Z</time>
      </trkpt>
      <trkpt lat="47.71778" lon="3.49707">
        <ele>234.1</ele>
        <time>2022-01-12T08:35:27Z</time>
      </trkpt>
      <trkpt lat="47.71779" lon="3.49708">
        <ele>234.1</ele>
        <time>2022-01-12T08:35:28Z</time>
      </trkpt>
      <trkpt lat="47.7178" lon="3.49708">
        <ele>234.1</ele>
        <time>2022-01-12T08:35:29Z</time>
      </trkpt>
      <trkpt lat="47.71781" lon="3.49709">
        <ele>234</ele>
        <time>2022-01-12T08:35:30Z</time>
      </trkpt>
      <trkpt lat="47.71782" lon="3.4971">
        <ele>234</ele>
        <time>2022-01-12T08:35:31Z</time>
      </trkpt>
      <trkpt lat="47.71784" lon="3.49711">
        <ele>234</ele>
        <time>2022-01-12T08:35:32Z</time>
      </trkpt>
      <trkpt lat="47.71785" lon="3.49711">
        <ele>234</ele>
        <time>2022-01-12T08:35:34Z</time>
      </trkpt>
      <trkpt lat="47.71786" lon="3.49712">
        <ele>234</ele>
        <time>2022-01-12T08:35:35Z</time>
      </trkpt>
      <trkpt lat="47.71788" lon="3.49713">
        <ele>234</ele>
        <time>2022-01-12T08:35:36Z</time>
      </trkpt>
      <trkpt lat="47.71789" lon="3.49714">
        <ele>234</ele>
        <time>2022-01-12T08:35:37Z</time>
      </trkpt>
      <trkpt lat="47.7179" lon="3.49714">
        <ele>234</ele>
        <time>2022-01-12T08:35:38Z</time>
      </trkpt>
      <trkpt lat="47.71792" lon="3.49716">
        <ele>234</ele>
        <time>2022-01-12T08:35:40Z</time>
      </trkpt>
      <trkpt lat="47.71793" lon="3.49716">
        <ele>234</ele>
        <time>2022-01-12T08:35:41Z</time>
      </trkpt>
      <trkpt lat="47.71794" lon="3.49717">
        <ele>234</ele>
        <time>2022-01-12T08:35:42Z</time>
      </trkpt>
      <trkpt lat="47.71795" lon="3.49718">
        <ele>234</ele>
        <time>2022-01-12T08:35:43Z</time>
      </trkpt>
      <trkpt lat="47.71796" lon="3.49718">
        <ele>234</ele>
        <time>2022-01-12T08:35:44Z</time>
      </trkpt>
      <trkpt lat="47.71797" lon="3.49719">
        <ele>234</ele>
        <time>2022-01-12T08:35:45Z</time>
      </trkpt>
      <trkpt lat="47.71799" lon="3.4972">
        <ele>234</ele>
        <time>2022-01-12T08:35:46Z</time>
      </trkpt>
      <trkpt lat="47.718" lon="3.49721">
        <ele>234</ele>
        <time>2022-01-12T08:35:48Z</time>
      </trkpt>
      <trkpt lat="47.71801" lon="3.49721">
        <ele>234</ele>
        <time>2022-01-12T08:35:49Z</time>
      </trkpt>
      <trkpt lat="47.71802" lon="3.49722">
        <ele>234</ele>
        <time>2022-01-12T08:35:50Z</time>
      </trkpt>
      <trkpt lat="47.71804" lon="3.49724">
        <ele>234</ele>
        <time>2022-01-12T08:35:51Z</time>
      </trkpt>
      <trkpt lat="47.71805" lon="3.49725">
        <ele>234</ele>
        <time>2022-01-12T08:35:52Z</time>
      </trkpt>
      <trkpt lat="47.71806" lon="3.49726">
        <ele>234</ele>
        <time>2022-01-12T08:35:54Z</time>
      </trkpt>
      <trkpt lat="47.71807" lon="3.49727">
        <ele>234</ele>
        <time>2022-01-12T08:35:55Z</time>
      </trkpt>
      <trkpt lat="47.71809" lon="3.49728">
        <ele>234</ele>
        <time>2022-01-12T08:35:56Z</time>
      </trkpt>
      <trkpt lat="47.7181" lon="3.49729">
        <ele>234</ele>
        <time>2022-01-12T08:35:57Z</time>
      </trkpt>
      <trkpt lat="47.71811" lon="3.49729">
        <ele>234</ele>
        <time>2022-01-12T08:35:58Z</time>
      </trkpt>
      <trkpt lat="47.71812" lon="3.49731">
        <ele>234</ele>
        <time>2022-01-12T08:36:00Z</time>
      </trkpt>
      <trkpt lat="47.71813" lon="3.49732">
        <ele>234</ele>
        <time>2022-01-12T08:36:01Z</time>
      </trkpt>
      <trkpt lat="47.71815" lon="3.49732">
        <ele>234</ele>
        <time>2022-01-12T08:36:02Z</time>
      </trkpt>
      <trkpt lat="47.71817" lon="3.49734">
        <ele>233.9</ele>
        <time>2022-01-12T08:36:03Z</time>
      </trkpt>
      <trkpt lat="47.71818" lon="3.49735">
        <ele>233.9</ele>
        <time>2022-01-12T08:36:04Z</time>
      </trkpt>
      <trkpt lat="47.71818" lon="3.49735">
        <ele>233.9</ele>
        <time>2022-01-12T08:36:05Z</time>
      </trkpt>
      <trkpt lat="47.7182" lon="3.49736">
        <ele>233.9</ele>
        <time>2022-01-12T08:36:06Z</time>
      </trkpt>
      <trkpt lat="47.7182" lon="3.49737">
        <ele>233.9</ele>
        <time>2022-01-12T08:36:07Z</time>
      </trkpt>
      <trkpt lat="47.71821" lon="3.49738">
        <ele>233.9</ele>
        <time>2022-01-12T08:36:08Z</time>
      </trkpt>
      <trkpt lat="47.71823" lon="3.49739">
        <ele>233.9</ele>
        <time>2022-01-12T08:36:09Z</time>
      </trkpt>
      <trkpt lat="47.71824" lon="3.4974">
        <ele>233.9</ele>
        <time>2022-01-12T08:36:10Z</time>
      </trkpt>
      <trkpt lat="47.71824" lon="3.4974">
        <ele>233.8</ele>
        <time>2022-01-12T08:36:11Z</time>
      </trkpt>
      <trkpt lat="47.71825" lon="3.49741">
        <ele>233.8</ele>
        <time>2022-01-12T08:36:12Z</time>
      </trkpt>
      <trkpt lat="47.71826" lon="3.49742">
        <ele>233.8</ele>
        <time>2022-01-12T08:36:13Z</time>
      </trkpt>
      <trkpt lat="47.71827" lon="3.49742">
        <ele>233.8</ele>
        <time>2022-01-12T08:36:14Z</time>
      </trkpt>
      <trkpt lat="47.71828" lon="3.49743">
        <ele>233.8</ele>
        <time>2022-01-12T08:36:15Z</time>
      </trkpt>
      <trkpt lat="47.71829" lon="3.49744">
        <ele>233.8</ele>
        <time>2022-01-12T08:36:16Z</time>
      </trkpt>
      <trkpt lat="47.7183" lon="3.49745">
        <ele>233.8</ele>
        <time>2022-01-12T08:36:17Z</time>
      </trkpt>
      <trkpt lat="47.7183" lon="3.49746">
        <ele>233.7</ele>
        <time>2022-01-12T08:36:18Z</time>
      </trkpt>
      <trkpt lat="47.71831" lon="3.49747">
        <ele>233.7</ele>
        <time>2022-01-12T08:36:19Z</time>
      </trkpt>
      <trkpt lat="47.71833" lon="3.49749">
        <ele>233.7</ele>
        <time>2022-01-12T08:36:21Z</time>
      </trkpt>
      <trkpt lat="47.71834" lon="3.4975">
        <ele>233.7</ele>
        <time>2022-01-12T08:36:22Z</time>
      </trkpt>
      <trkpt lat="47.71835" lon="3.49751">
        <ele>233.6</ele>
        <time>2022-01-12T08:36:23Z</time>
      </trkpt>
      <trkpt lat="47.71836" lon="3.49752">
        <ele>233.6</ele>
        <time>2022-01-12T08:36:25Z</time>
      </trkpt>
      <trkpt lat="47.71838" lon="3.49754">
        <ele>233.6</ele>
        <time>2022-01-12T08:36:26Z</time>
      </trkpt>
      <trkpt lat="47.71839" lon="3.49755">
        <ele>233.6</ele>
        <time>2022-01-12T08:36:27Z</time>
      </trkpt>
      <trkpt lat="47.7184" lon="3.49756">
        <ele>233.6</ele>
        <time>2022-01-12T08:36:29Z</time>
      </trkpt>
      <trkpt lat="47.71841" lon="3.49757">
        <ele>233.5</ele>
        <time>2022-01-12T08:36:30Z</time>
      </trkpt>
      <trkpt lat="47.71843" lon="3.49758">
        <ele>233.5</ele>
        <time>2022-01-12T08:36:31Z</time>
      </trkpt>
      <trkpt lat="47.71844" lon="3.49758">
        <ele>233.5</ele>
        <time>2022-01-12T08:36:32Z</time>
      </trkpt>
      <trkpt lat="47.71845" lon="3.49759">
        <ele>233.5</ele>
        <time>2022-01-12T08:36:33Z</time>
      </trkpt>
      <trkpt lat="47.71847" lon="3.49759">
        <ele>233.5</ele>
        <time>2022-01-12T08:36:34Z</time>
      </trkpt>
      <trkpt lat="47.71849" lon="3.49761">
        <ele>233.4</ele>
        <time>2022-01-12T08:36:35Z</time>
      </trkpt>
      <trkpt lat="47.7185" lon="3.49761">
        <ele>233.4</ele>
        <time>2022-01-12T08:36:37Z</time>
      </trkpt>
      <trkpt lat="47.71851" lon="3.49762">
        <ele>233.4</ele>
        <time>2022-01-12T08:36:38Z</time>
      </trkpt>
      <trkpt lat="47.71852" lon="3.49763">
        <ele>233.4</ele>
        <time>2022-01-12T08:36:39Z</time>
      </trkpt>
      <trkpt lat="47.71853" lon="3.49764">
        <ele>233.4</ele>
        <time>2022-01-12T08:36:40Z</time>
      </trkpt>
      <trkpt lat="47.71854" lon="3.49765">
        <ele>233.4</ele>
        <time>2022-01-12T08:36:41Z</time>
      </trkpt>
      <trkpt lat="47.71855" lon="3.49766">
        <ele>233.3</ele>
        <time>2022-01-12T08:36:42Z</time>
      </trkpt>
      <trkpt lat="47.71856" lon="3.49767">
        <ele>233.3</ele>
        <time>2022-01-12T08:36:44Z</time>
      </trkpt>
      <trkpt lat="47.71857" lon="3.49768">
        <ele>233.3</ele>
        <time>2022-01-12T08:36:45Z</time>
      </trkpt>
      <trkpt lat="47.71858" lon="3.49769">
        <ele>233.3</ele>
        <time>2022-01-12T08:36:46Z</time>
      </trkpt>
      <trkpt lat="47.7186" lon="3.49771">
        <ele>233.3</ele>
        <time>2022-01-12T08:36:47Z</time>
      </trkpt>
      <trkpt lat="47.7186" lon="3.49772">
        <ele>233.3</ele>
        <time>2022-01-12T08:36:48Z</time>
      </trkpt>
      <trkpt lat="47.71861" lon="3.49772">
        <ele>233.3</ele>
        <time>2022-01-12T08:36:50Z</time>
      </trkpt>
      <trkpt lat="47.71862" lon="3.49773">
        <ele>233.3</ele>
        <time>2022-01-12T08:36:51Z</time>
      </trkpt>
      <trkpt lat="47.71862" lon="3.49774">
        <ele>233.3</ele>
        <time>2022-01-12T08:36:52Z</time>
      </trkpt>
      <trkpt lat="47.71863" lon="3.49774">
        <ele>233.3</ele>
        <time>2022-01-12T08:36:53Z</time>
      </trkpt>
      <trkpt lat="47.71864" lon="3.49775">
        <ele>233.3</ele>
        <time>2022-01-12T08:36:54Z</time>
      </trkpt>
      <trkpt lat="47.71865" lon="3.49776">
        <ele>233.2</ele>
        <time>2022-01-12T08:36:56Z</time>
      </trkpt>
      <trkpt lat="47.71866" lon="3.49777">
        <ele>233.2</ele>
        <time>2022-01-12T08:36:57Z</time>
      </trkpt>
      <trkpt lat="47.71867" lon="3.49779">
        <ele>233.2</ele>
        <time>2022-01-12T08:36:58Z</time>
      </trkpt>
      <trkpt lat="47.71867" lon="3.4978">
        <ele>233.2</ele>
        <time>2022-01-12T08:36:59Z</time>
      </trkpt>
      <trkpt lat="47.71869" lon="3.49782">
        <ele>233.2</ele>
        <time>2022-01-12T08:37:00Z</time>
      </trkpt>
      <trkpt lat="47.7187" lon="3.49783">
        <ele>233.2</ele>
        <time>2022-01-12T08:37:01Z</time>
      </trkpt>
      <trkpt lat="47.71871" lon="3.49783">
        <ele>233.2</ele>
        <time>2022-01-12T08:37:03Z</time>
      </trkpt>
      <trkpt lat="47.71872" lon="3.49784">
        <ele>233.2</ele>
        <time>2022-01-12T08:37:04Z</time>
      </trkpt>
      <trkpt lat="47.71873" lon="3.49785">
        <ele>233.2</ele>
        <time>2022-01-12T08:37:05Z</time>
      </trkpt>
      <trkpt lat="47.71874" lon="3.49786">
        <ele>233.2</ele>
        <time>2022-01-12T08:37:06Z</time>
      </trkpt>
      <trkpt lat="47.71875" lon="3.49787">
        <ele>233.1</ele>
        <time>2022-01-12T08:37:07Z</time>
      </trkpt>
      <trkpt lat="47.71876" lon="3.49787">
        <ele>233.1</ele>
        <time>2022-01-12T08:37:08Z</time>
      </trkpt>
      <trkpt lat="47.71877" lon="3.49788">
        <ele>233.1</ele>
        <time>2022-01-12T08:37:09Z</time>
      </trkpt>
      <trkpt lat="47.71879" lon="3.49789">
        <ele>233.1</ele>
        <time>2022-01-12T08:37:10Z</time>
      </trkpt>
      <trkpt lat="47.71881" lon="3.4979">
        <ele>233.1</ele>
        <time>2022-01-12T08:37:12Z</time>
      </trkpt>
      <trkpt lat="47.71882" lon="3.4979">
        <ele>233</ele>
        <time>2022-01-12T08:37:13Z</time>
      </trkpt>
      <trkpt lat="47.71883" lon="3.49791">
        <ele>233</ele>
        <time>2022-01-12T08:37:14Z</time>
      </trkpt>
      <trkpt lat="47.71884" lon="3.49792">
        <ele>233</ele>
        <time>2022-01-12T08:37:15Z</time>
      </trkpt>
      <trkpt lat="47.71886" lon="3.49793">
        <ele>232.9</ele>
        <time>2022-01-12T08:37:16Z</time>
      </trkpt>
      <trkpt lat="47.71888" lon="3.49793">
        <ele>232.9</ele>
        <time>2022-01-12T08:37:18Z</time>
      </trkpt>
      <trkpt lat="47.71889" lon="3.49794">
        <ele>232.9</ele>
        <time>2022-01-12T08:37:19Z</time>
      </trkpt>
      <trkpt lat="47.7189" lon="3.49795">
        <ele>232.9</ele>
        <time>2022-01-12T08:37:20Z</time>
      </trkpt>
      <trkpt lat="47.71891" lon="3.49795">
        <ele>232.9</ele>
        <time>2022-01-12T08:37:21Z</time>
      </trkpt>
      <trkpt lat="47.71892" lon="3.49796">
        <ele>232.9</ele>
        <time>2022-01-12T08:37:22Z</time>
      </trkpt>
      <trkpt lat="47.71892" lon="3.49796">
        <ele>232.9</ele>
        <time>2022-01-12T08:37:23Z</time>
      </trkpt>
      <trkpt lat="47.71894" lon="3.49797">
        <ele>232.9</ele>
        <time>2022-01-12T08:37:24Z</time>
      </trkpt>
      <trkpt lat="47.71895" lon="3.49799">
        <ele>232.8</ele>
        <time>2022-01-12T08:37:26Z</time>
      </trkpt>
      <trkpt lat="47.71897" lon="3.498">
        <ele>232.8</ele>
        <time>2022-01-12T08:37:27Z</time>
      </trkpt>
      <trkpt lat="47.71898" lon="3.498">
        <ele>232.8</ele>
        <time>2022-01-12T08:37:28Z</time>
      </trkpt>
      <trkpt lat="47.71899" lon="3.49801">
        <ele>232.8</ele>
        <time>2022-01-12T08:37:29Z</time>
      </trkpt>
      <trkpt lat="47.71899" lon="3.49802">
        <ele>232.7</ele>
        <time>2022-01-12T08:37:30Z</time>
      </trkpt>
      <trkpt lat="47.71901" lon="3.49804">
        <ele>232.7</ele>
        <time>2022-01-12T08:37:32Z</time>
      </trkpt>
      <trkpt lat="47.71902" lon="3.49805">
        <ele>232.6</ele>
        <time>2022-01-12T08:37:33Z</time>
      </trkpt>
      <trkpt lat="47.71902" lon="3.49805">
        <ele>232.6</ele>
        <time>2022-01-12T08:37:34Z</time>
      </trkpt>
      <trkpt lat="47.71903" lon="3.49806">
        <ele>232.6</ele>
        <time>2022-01-12T08:37:35Z</time>
      </trkpt>
      <trkpt lat="47.71905" lon="3.49807">
        <ele>232.6</ele>
        <time>2022-01-12T08:37:36Z</time>
      </trkpt>
      <trkpt lat="47.71905" lon="3.49808">
        <ele>232.6</ele>
        <time>2022-01-12T08:37:37Z</time>
      </trkpt>
      <trkpt lat="47.71906" lon="3.49809">
        <ele>232.5</ele>
        <time>2022-01-12T08:37:38Z</time>
      </trkpt>
      <trkpt lat="47.71906" lon="3.4981">
        <ele>232.5</ele>
        <time>2022-01-12T08:37:39Z</time>
      </trkpt>
      <trkpt lat="47.71907" lon="3.49811">
        <ele>232.5</ele>
        <time>2022-01-12T08:37:40Z</time>
      </trkpt>
      <trkpt lat="47.71909" lon="3.49813">
        <ele>232.5</ele>
        <time>2022-01-12T08:37:41Z</time>
      </trkpt>
      <trkpt lat="47.71909" lon="3.49814">
        <ele>232.5</ele>
        <time>2022-01-12T08:37:43Z</time>
      </trkpt>
      <trkpt lat="47.7191" lon="3.49814">
        <ele>232.5</ele>
        <time>2022-01-12T08:37:44Z</time>
      </trkpt>
      <trkpt lat="47.71911" lon="3.49815">
        <ele>232.4</ele>
        <time>2022-01-12T08:37:45Z</time>
      </trkpt>
      <trkpt lat="47.71912" lon="3.49816">
        <ele>232.4</ele>
        <time>2022-01-12T08:37:46Z</time>
      </trkpt>
      <trkpt lat="47.71913" lon="3.49817">
        <ele>232.4</ele>
        <time>2022-01-12T08:37:47Z</time>
      </trkpt>
      <trkpt lat="47.71914" lon="3.49818">
        <ele>232.4</ele>
        <time>2022-01-12T08:37:48Z</time>
      </trkpt>
      <trkpt lat="47.71915" lon="3.49819">
        <ele>232.3</ele>
        <time>2022-01-12T08:37:50Z</time>
      </trkpt>
      <trkpt lat="47.71916" lon="3.4982">
        <ele>232.3</ele>
        <time>2022-01-12T08:37:51Z</time>
      </trkpt>
      <trkpt lat="47.71917" lon="3.49822">
        <ele>232.3</ele>
        <time>2022-01-12T08:37:52Z</time>
      </trkpt>
      <trkpt lat="47.71919" lon="3.49824">
        <ele>232.2</ele>
        <time>2022-01-12T08:37:53Z</time>
      </trkpt>
      <trkpt lat="47.7192" lon="3.49825">
        <ele>232.1</ele>
        <time>2022-01-12T08:37:54Z</time>
      </trkpt>
      <trkpt lat="47.7192" lon="3.49825">
        <ele>232.1</ele>
        <time>2022-01-12T08:37:55Z</time>
      </trkpt>
      <trkpt lat="47.71922" lon="3.49827">
        <ele>232.1</ele>
        <time>2022-01-12T08:37:57Z</time>
      </trkpt>
      <trkpt lat="47.71923" lon="3.49827">
        <ele>232.1</ele>
        <time>2022-01-12T08:37:58Z</time>
      </trkpt>
      <trkpt lat="47.71924" lon="3.49828">
        <ele>232</ele>
        <time>2022-01-12T08:37:59Z</time>
      </trkpt>
      <trkpt lat="47.71926" lon="3.49829">
        <ele>232</ele>
        <time>2022-01-12T08:38:00Z</time>
      </trkpt>
      <trkpt lat="47.71927" lon="3.4983">
        <ele>232</ele>
        <time>2022-01-12T08:38:01Z</time>
      </trkpt>
      <trkpt lat="47.71928" lon="3.49831">
        <ele>232</ele>
        <time>2022-01-12T08:38:02Z</time>
      </trkpt>
      <trkpt lat="47.71929" lon="3.49832">
        <ele>232</ele>
        <time>2022-01-12T08:38:04Z</time>
      </trkpt>
      <trkpt lat="47.7193" lon="3.49833">
        <ele>232</ele>
        <time>2022-01-12T08:38:05Z</time>
      </trkpt>
      <trkpt lat="47.71932" lon="3.49834">
        <ele>232</ele>
        <time>2022-01-12T08:38:06Z</time>
      </trkpt>
      <trkpt lat="47.71932" lon="3.49835">
        <ele>231.9</ele>
        <time>2022-01-12T08:38:07Z</time>
      </trkpt>
      <trkpt lat="47.71933" lon="3.49836">
        <ele>231.8</ele>
        <time>2022-01-12T08:38:08Z</time>
      </trkpt>
      <trkpt lat="47.71934" lon="3.49836">
        <ele>231.8</ele>
        <time>2022-01-12T08:38:09Z</time>
      </trkpt>
      <trkpt lat="47.71936" lon="3.49837">
        <ele>231.8</ele>
        <time>2022-01-12T08:38:10Z</time>
      </trkpt>
      <trkpt lat="47.71937" lon="3.49838">
        <ele>231.8</ele>
        <time>2022-01-12T08:38:12Z</time>
      </trkpt>
      <trkpt lat="47.71938" lon="3.49838">
        <ele>231.8</ele>
        <time>2022-01-12T08:38:13Z</time>
      </trkpt>
      <trkpt lat="47.71939" lon="3.49839">
        <ele>231.8</ele>
        <time>2022-01-12T08:38:14Z</time>
      </trkpt>
      <trkpt lat="47.7194" lon="3.49839">
        <ele>231.8</ele>
        <time>2022-01-12T08:38:15Z</time>
      </trkpt>
      <trkpt lat="47.71942" lon="3.4984">
        <ele>231.8</ele>
        <time>2022-01-12T08:38:16Z</time>
      </trkpt>
      <trkpt lat="47.71943" lon="3.4984">
        <ele>231.8</ele>
        <time>2022-01-12T08:38:17Z</time>
      </trkpt>
      <trkpt lat="47.71943" lon="3.49841">
        <ele>231.8</ele>
        <time>2022-01-12T08:38:18Z</time>
      </trkpt>
      <trkpt lat="47.71945" lon="3.49842">
        <ele>231.8</ele>
        <time>2022-01-12T08:38:20Z</time>
      </trkpt>
      <trkpt lat="47.71946" lon="3.49843">
        <ele>231.7</ele>
        <time>2022-01-12T08:38:21Z</time>
      </trkpt>
      <trkpt lat="47.71947" lon="3.49843">
        <ele>231.7</ele>
        <time>2022-01-12T08:38:22Z</time>
      </trkpt>
      <trkpt lat="47.71947" lon="3.49844">
        <ele>231.7</ele>
        <time>2022-01-12T08:38:23Z</time>
      </trkpt>
      <trkpt lat="47.71948" lon="3.49845">
        <ele>231.6</ele>
        <time>2022-01-12T08:38:24Z</time>
      </trkpt>
      <trkpt lat="47.71949" lon="3.49846">
        <ele>231.6</ele>
        <time>2022-01-12T08:38:25Z</time>
      </trkpt>
      <trkpt lat="47.71951" lon="3.49848">
        <ele>231.6</ele>
        <time>2022-01-12T08:38:26Z</time>
      </trkpt>
      <trkpt lat="47.71951" lon="3.49849">
        <ele>231.6</ele>
        <time>2022-01-12T08:38:27Z</time>
      </trkpt>
      <trkpt lat="47.71952" lon="3.4985">
        <ele>231.6</ele>
        <time>2022-01-12T08:38:29Z</time>
      </trkpt>
      <trkpt lat="47.71954" lon="3.49851">
        <ele>231.6</ele>
        <time>2022-01-12T08:38:30Z</time>
      </trkpt>
      <trkpt lat="47.71955" lon="3.49851">
        <ele>231.5</ele>
        <time>2022-01-12T08:38:31Z</time>
      </trkpt>
      <trkpt lat="47.71956" lon="3.49852">
        <ele>231.5</ele>
        <time>2022-01-12T08:38:32Z</time>
      </trkpt>
      <trkpt lat="47.71957" lon="3.49852">
        <ele>231.5</ele>
        <time>2022-01-12T08:38:33Z</time>
      </trkpt>
      <trkpt lat="47.71958" lon="3.49853">
        <ele>231.5</ele>
        <time>2022-01-12T08:38:34Z</time>
      </trkpt>
      <trkpt lat="47.71959" lon="3.49854">
        <ele>231.4</ele>
        <time>2022-01-12T08:38:35Z</time>
      </trkpt>
      <trkpt lat="47.71961" lon="3.49855">
        <ele>231.4</ele>
        <time>2022-01-12T08:38:36Z</time>
      </trkpt>
      <trkpt lat="47.71962" lon="3.49856">
        <ele>231.4</ele>
        <time>2022-01-12T08:38:38Z</time>
      </trkpt>
      <trkpt lat="47.71962" lon="3.49856">
        <ele>231.3</ele>
        <time>2022-01-12T08:38:39Z</time>
      </trkpt>
      <trkpt lat="47.71964" lon="3.49858">
        <ele>231.3</ele>
        <time>2022-01-12T08:38:40Z</time>
      </trkpt>
      <trkpt lat="47.71965" lon="3.49858">
        <ele>231.3</ele>
        <time>2022-01-12T08:38:41Z</time>
      </trkpt>
      <trkpt lat="47.71966" lon="3.49859">
        <ele>231.3</ele>
        <time>2022-01-12T08:38:42Z</time>
      </trkpt>
      <trkpt lat="47.71967" lon="3.49859">
        <ele>231.2</ele>
        <time>2022-01-12T08:38:43Z</time>
      </trkpt>
      <trkpt lat="47.71967" lon="3.4986">
        <ele>231.2</ele>
        <time>2022-01-12T08:38:44Z</time>
      </trkpt>
      <trkpt lat="47.71968" lon="3.49861">
        <ele>231.2</ele>
        <time>2022-01-12T08:38:45Z</time>
      </trkpt>
      <trkpt lat="47.7197" lon="3.49862">
        <ele>231.1</ele>
        <time>2022-01-12T08:38:47Z</time>
      </trkpt>
      <trkpt lat="47.71971" lon="3.49863">
        <ele>231.1</ele>
        <time>2022-01-12T08:38:48Z</time>
      </trkpt>
      <trkpt lat="47.71973" lon="3.49864">
        <ele>231.1</ele>
        <time>2022-01-12T08:38:49Z</time>
      </trkpt>
      <trkpt lat="47.71974" lon="3.49865">
        <ele>231</ele>
        <time>2022-01-12T08:38:50Z</time>
      </trkpt>
      <trkpt lat="47.71975" lon="3.49866">
        <ele>231</ele>
        <time>2022-01-12T08:38:51Z</time>
      </trkpt>
      <trkpt lat="47.71975" lon="3.49866">
        <ele>231</ele>
        <time>2022-01-12T08:38:52Z</time>
      </trkpt>
      <trkpt lat="47.71976" lon="3.49867">
        <ele>231</ele>
        <time>2022-01-12T08:38:53Z</time>
      </trkpt>
      <trkpt lat="47.71978" lon="3.49868">
        <ele>230.9</ele>
        <time>2022-01-12T08:38:55Z</time>
      </trkpt>
      <trkpt lat="47.71979" lon="3.49869">
        <ele>230.9</ele>
        <time>2022-01-12T08:38:56Z</time>
      </trkpt>
      <trkpt lat="47.7198" lon="3.49869">
        <ele>230.9</ele>
        <time>2022-01-12T08:38:57Z</time>
      </trkpt>
      <trkpt lat="47.71982" lon="3.49871">
        <ele>230.8</ele>
        <time>2022-01-12T08:38:58Z</time>
      </trkpt>
      <trkpt lat="47.71983" lon="3.49871">
        <ele>230.8</ele>
        <time>2022-01-12T08:38:59Z</time>
      </trkpt>
      <trkpt lat="47.71984" lon="3.49872">
        <ele>230.8</ele>
        <time>2022-01-12T08:39:00Z</time>
      </trkpt>
      <trkpt lat="47.71985" lon="3.49873">
        <ele>230.8</ele>
        <time>2022-01-12T08:39:01Z</time>
      </trkpt>
      <trkpt lat="47.71987" lon="3.49874">
        <ele>230.8</ele>
        <time>2022-01-12T08:39:03Z</time>
      </trkpt>
      <trkpt lat="47.71988" lon="3.49875">
        <ele>230.7</ele>
        <time>2022-01-12T08:39:04Z</time>
      </trkpt>
      <trkpt lat="47.71989" lon="3.49876">
        <ele>230.7</ele>
        <time>2022-01-12T08:39:05Z</time>
      </trkpt>
      <trkpt lat="47.7199" lon="3.49877">
        <ele>230.7</ele>
        <time>2022-01-12T08:39:06Z</time>
      </trkpt>
      <trkpt lat="47.71992" lon="3.49878">
        <ele>230.7</ele>
        <time>2022-01-12T08:39:07Z</time>
      </trkpt>
      <trkpt lat="47.71993" lon="3.49879">
        <ele>230.6</ele>
        <time>2022-01-12T08:39:08Z</time>
      </trkpt>
      <trkpt lat="47.71995" lon="3.49879">
        <ele>230.6</ele>
        <time>2022-01-12T08:39:09Z</time>
      </trkpt>
      <trkpt lat="47.71996" lon="3.4988">
        <ele>230.6</ele>
        <time>2022-01-12T08:39:11Z</time>
      </trkpt>
      <trkpt lat="47.71998" lon="3.49881">
        <ele>230.6</ele>
        <time>2022-01-12T08:39:12Z</time>
      </trkpt>
      <trkpt lat="47.71999" lon="3.49882">
        <ele>230.6</ele>
        <time>2022-01-12T08:39:13Z</time>
      </trkpt>
      <trkpt lat="47.72" lon="3.49883">
        <ele>230.6</ele>
        <time>2022-01-12T08:39:14Z</time>
      </trkpt>
      <trkpt lat="47.72001" lon="3.49883">
        <ele>230.6</ele>
        <time>2022-01-12T08:39:15Z</time>
      </trkpt>
      <trkpt lat="47.72003" lon="3.49885">
        <ele>230.5</ele>
        <time>2022-01-12T08:39:16Z</time>
      </trkpt>
      <trkpt lat="47.72004" lon="3.49885">
        <ele>230.5</ele>
        <time>2022-01-12T08:39:17Z</time>
      </trkpt>
      <trkpt lat="47.72006" lon="3.49886">
        <ele>230.5</ele>
        <time>2022-01-12T08:39:19Z</time>
      </trkpt>
      <trkpt lat="47.72007" lon="3.49887">
        <ele>230.5</ele>
        <time>2022-01-12T08:39:20Z</time>
      </trkpt>
      <trkpt lat="47.72008" lon="3.49887">
        <ele>230.5</ele>
        <time>2022-01-12T08:39:21Z</time>
      </trkpt>
      <trkpt lat="47.72009" lon="3.49888">
        <ele>230.5</ele>
        <time>2022-01-12T08:39:22Z</time>
      </trkpt>
      <trkpt lat="47.7201" lon="3.49889">
        <ele>230.4</ele>
        <time>2022-01-12T08:39:23Z</time>
      </trkpt>
      <trkpt lat="47.72011" lon="3.49889">
        <ele>230.4</ele>
        <time>2022-01-12T08:39:24Z</time>
      </trkpt>
      <trkpt lat="47.72011" lon="3.4989">
        <ele>230.4</ele>
        <time>2022-01-12T08:39:25Z</time>
      </trkpt>
      <trkpt lat="47.72012" lon="3.49891">
        <ele>230.4</ele>
        <time>2022-01-12T08:39:27Z</time>
      </trkpt>
      <trkpt lat="47.72013" lon="3.49892">
        <ele>230.4</ele>
        <time>2022-01-12T08:39:28Z</time>
      </trkpt>
      <trkpt lat="47.72014" lon="3.49892">
        <ele>230.4</ele>
        <time>2022-01-12T08:39:29Z</time>
      </trkpt>
      <trkpt lat="47.72015" lon="3.49893">
        <ele>230.3</ele>
        <time>2022-01-12T08:39:30Z</time>
      </trkpt>
      <trkpt lat="47.72016" lon="3.49893">
        <ele>230.3</ele>
        <time>2022-01-12T08:39:31Z</time>
      </trkpt>
      <trkpt lat="47.72018" lon="3.49894">
        <ele>230.3</ele>
        <time>2022-01-12T08:39:32Z</time>
      </trkpt>
      <trkpt lat="47.72018" lon="3.49895">
        <ele>230.3</ele>
        <time>2022-01-12T08:39:33Z</time>
      </trkpt>
      <trkpt lat="47.72019" lon="3.49895">
        <ele>230.3</ele>
        <time>2022-01-12T08:39:35Z</time>
      </trkpt>
      <trkpt lat="47.7202" lon="3.49896">
        <ele>230.2</ele>
        <time>2022-01-12T08:39:36Z</time>
      </trkpt>
      <trkpt lat="47.72022" lon="3.49897">
        <ele>230.2</ele>
        <time>2022-01-12T08:39:37Z</time>
      </trkpt>
      <trkpt lat="47.72023" lon="3.49898">
        <ele>230.2</ele>
        <time>2022-01-12T08:39:38Z</time>
      </trkpt>
      <trkpt lat="47.72023" lon="3.49898">
        <ele>230.2</ele>
        <time>2022-01-12T08:39:39Z</time>
      </trkpt>
      <trkpt lat="47.72024" lon="3.49899">
        <ele>230.2</ele>
        <time>2022-01-12T08:39:40Z</time>
      </trkpt>
      <trkpt lat="47.72025" lon="3.49899">
        <ele>230.1</ele>
        <time>2022-01-12T08:39:41Z</time>
      </trkpt>
      <trkpt lat="47.72027" lon="3.49901">
        <ele>230.1</ele>
        <time>2022-01-12T08:39:42Z</time>
      </trkpt>
      <trkpt lat="47.72028" lon="3.49901">
        <ele>230.1</ele>
        <time>2022-01-12T08:39:44Z</time>
      </trkpt>
      <trkpt lat="47.72028" lon="3.49902">
        <ele>230.1</ele>
        <time>2022-01-12T08:39:45Z</time>
      </trkpt>
      <trkpt lat="47.72029" lon="3.49902">
        <ele>230.1</ele>
        <time>2022-01-12T08:39:46Z</time>
      </trkpt>
      <trkpt lat="47.72031" lon="3.49904">
        <ele>230</ele>
        <time>2022-01-12T08:39:47Z</time>
      </trkpt>
      <trkpt lat="47.72032" lon="3.49904">
        <ele>230</ele>
        <time>2022-01-12T08:39:48Z</time>
      </trkpt>
      <trkpt lat="47.72033" lon="3.49905">
        <ele>230</ele>
        <time>2022-01-12T08:39:49Z</time>
      </trkpt>
      <trkpt lat="47.72035" lon="3.49905">
        <ele>230</ele>
        <time>2022-01-12T08:39:50Z</time>
      </trkpt>
      <trkpt lat="47.72036" lon="3.49906">
        <ele>230</ele>
        <time>2022-01-12T08:39:51Z</time>
      </trkpt>
      <trkpt lat="47.72037" lon="3.49907">
        <ele>229.9</ele>
        <time>2022-01-12T08:39:53Z</time>
      </trkpt>
      <trkpt lat="47.72039" lon="3.49907">
        <ele>229.9</ele>
        <time>2022-01-12T08:39:54Z</time>
      </trkpt>
      <trkpt lat="47.7204" lon="3.49908">
        <ele>229.9</ele>
        <time>2022-01-12T08:39:55Z</time>
      </trkpt>
      <trkpt lat="47.72042" lon="3.49909">
        <ele>229.8</ele>
        <time>2022-01-12T08:39:56Z</time>
      </trkpt>
      <trkpt lat="47.72044" lon="3.4991">
        <ele>229.8</ele>
        <time>2022-01-12T08:39:57Z</time>
      </trkpt>
      <trkpt lat="47.72045" lon="3.49911">
        <ele>229.8</ele>
        <time>2022-01-12T08:39:58Z</time>
      </trkpt>
      <trkpt lat="47.72046" lon="3.49911">
        <ele>229.7</ele>
        <time>2022-01-12T08:39:59Z</time>
      </trkpt>
      <trkpt lat="47.72047" lon="3.49912">
        <ele>229.7</ele>
        <time>2022-01-12T08:40:00Z</time>
      </trkpt>
      <trkpt lat="47.72049" lon="3.49913">
        <ele>229.7</ele>
        <time>2022-01-12T08:40:02Z</time>
      </trkpt>
      <trkpt lat="47.7205" lon="3.49914">
        <ele>229.6</ele>
        <time>2022-01-12T08:40:03Z</time>
      </trkpt>
      <trkpt lat="47.72052" lon="3.49915">
        <ele>229.6</ele>
        <time>2022-01-12T08:40:04Z</time>
      </trkpt>
      <trkpt lat="47.72053" lon="3.49916">
        <ele>229.6</ele>
        <time>2022-01-12T08:40:05Z</time>
      </trkpt>
      <trkpt lat="47.72054" lon="3.49917">
        <ele>229.5</ele>
        <time>2022-01-12T08:40:06Z</time>
      </trkpt>
      <trkpt lat="47.72056" lon="3.49918">
        <ele>229.5</ele>
        <time>2022-01-12T08:40:07Z</time>
      </trkpt>
      <trkpt lat="47.72058" lon="3.49919">
        <ele>229.4</ele>
        <time>2022-01-12T08:40:08Z</time>
      </trkpt>
      <trkpt lat="47.72059" lon="3.4992">
        <ele>229.4</ele>
        <time>2022-01-12T08:40:10Z</time>
      </trkpt>
      <trkpt lat="47.7206" lon="3.49921">
        <ele>229.3</ele>
        <time>2022-01-12T08:40:11Z</time>
      </trkpt>
      <trkpt lat="47.72062" lon="3.49922">
        <ele>229.3</ele>
        <time>2022-01-12T08:40:12Z</time>
      </trkpt>
      <trkpt lat="47.72062" lon="3.49923">
        <ele>229.2</ele>
        <time>2022-01-12T08:40:13Z</time>
      </trkpt>
      <trkpt lat="47.72063" lon="3.49924">
        <ele>229.2</ele>
        <time>2022-01-12T08:40:14Z</time>
      </trkpt>
      <trkpt lat="47.72064" lon="3.49925">
        <ele>229.2</ele>
        <time>2022-01-12T08:40:15Z</time>
      </trkpt>
      <trkpt lat="47.72065" lon="3.49926">
        <ele>229.1</ele>
        <time>2022-01-12T08:40:16Z</time>
      </trkpt>
      <trkpt lat="47.72066" lon="3.49927">
        <ele>229.1</ele>
        <time>2022-01-12T08:40:18Z</time>
      </trkpt>
      <trkpt lat="47.72067" lon="3.49927">
        <ele>229.1</ele>
        <time>2022-01-12T08:40:19Z</time>
      </trkpt>
      <trkpt lat="47.72068" lon="3.49928">
        <ele>229</ele>
        <time>2022-01-12T08:40:20Z</time>
      </trkpt>
      <trkpt lat="47.72069" lon="3.49928">
        <ele>229</ele>
        <time>2022-01-12T08:40:21Z</time>
      </trkpt>
      <trkpt lat="47.72071" lon="3.49929">
        <ele>228.9</ele>
        <time>2022-01-12T08:40:22Z</time>
      </trkpt>
      <trkpt lat="47.72072" lon="3.4993">
        <ele>228.9</ele>
        <time>2022-01-12T08:40:23Z</time>
      </trkpt>
      <trkpt lat="47.72073" lon="3.4993">
        <ele>228.9</ele>
        <time>2022-01-12T08:40:24Z</time>
      </trkpt>
      <trkpt lat="47.72074" lon="3.49931">
        <ele>228.8</ele>
        <time>2022-01-12T08:40:25Z</time>
      </trkpt>
      <trkpt lat="47.72076" lon="3.49932">
        <ele>228.8</ele>
        <time>2022-01-12T08:40:27Z</time>
      </trkpt>
      <trkpt lat="47.72077" lon="3.49932">
        <ele>228.7</ele>
        <time>2022-01-12T08:40:28Z</time>
      </trkpt>
      <trkpt lat="47.72078" lon="3.49933">
        <ele>228.7</ele>
        <time>2022-01-12T08:40:30Z</time>
      </trkpt>
      <trkpt lat="47.72079" lon="3.49934">
        <ele>228.7</ele>
        <time>2022-01-12T08:40:31Z</time>
      </trkpt>
      <trkpt lat="47.7208" lon="3.49935">
        <ele>228.6</ele>
        <time>2022-01-12T08:40:32Z</time>
      </trkpt>
      <trkpt lat="47.72081" lon="3.49935">
        <ele>228.6</ele>
        <time>2022-01-12T08:40:33Z</time>
      </trkpt>
      <trkpt lat="47.72082" lon="3.49936">
        <ele>228.6</ele>
        <time>2022-01-12T08:40:34Z</time>
      </trkpt>
      <trkpt lat="47.72084" lon="3.49937">
        <ele>228.5</ele>
        <time>2022-01-12T08:40:35Z</time>
      </trkpt>
      <trkpt lat="47.72085" lon="3.49937">
        <ele>228.5</ele>
        <time>2022-01-12T08:40:36Z</time>
      </trkpt>
      <trkpt lat="47.72086" lon="3.49938">
        <ele>228.4</ele>
        <time>2022-01-12T08:40:37Z</time>
      </trkpt>
      <trkpt lat="47.72086" lon="3.49938">
        <ele>228.4</ele>
        <time>2022-01-12T08:40:38Z</time>
      </trkpt>
      <trkpt lat="47.72087" lon="3.49939">
        <ele>228.4</ele>
        <time>2022-01-12T08:40:39Z</time>
      </trkpt>
      <trkpt lat="47.72088" lon="3.4994">
        <ele>228.3</ele>
        <time>2022-01-12T08:40:41Z</time>
      </trkpt>
      <trkpt lat="47.7209" lon="3.49941">
        <ele>228.3</ele>
        <time>2022-01-12T08:40:42Z</time>
      </trkpt>
      <trkpt lat="47.72091" lon="3.49942">
        <ele>228.2</ele>
        <time>2022-01-12T08:40:43Z</time>
      </trkpt>
      <trkpt lat="47.72092" lon="3.49942">
        <ele>228.2</ele>
        <time>2022-01-12T08:40:44Z</time>
      </trkpt>
      <trkpt lat="47.72094" lon="3.49943">
        <ele>228.2</ele>
        <time>2022-01-12T08:40:45Z</time>
      </trkpt>
      <trkpt lat="47.72095" lon="3.49944">
        <ele>228.1</ele>
        <time>2022-01-12T08:40:47Z</time>
      </trkpt>
      <trkpt lat="47.72097" lon="3.49945">
        <ele>228.1</ele>
        <time>2022-01-12T08:40:48Z</time>
      </trkpt>
      <trkpt lat="47.72097" lon="3.49946">
        <ele>228</ele>
        <time>2022-01-12T08:40:49Z</time>
      </trkpt>
      <trkpt lat="47.72099" lon="3.49947">
        <ele>227.9</ele>
        <time>2022-01-12T08:40:50Z</time>
      </trkpt>
      <trkpt lat="47.721" lon="3.49948">
        <ele>227.9</ele>
        <time>2022-01-12T08:40:51Z</time>
      </trkpt>
      <trkpt lat="47.72101" lon="3.49948">
        <ele>227.9</ele>
        <time>2022-01-12T08:40:52Z</time>
      </trkpt>
      <trkpt lat="47.72102" lon="3.49949">
        <ele>227.8</ele>
        <time>2022-01-12T08:40:53Z</time>
      </trkpt>
      <trkpt lat="47.72103" lon="3.49949">
        <ele>227.8</ele>
        <time>2022-01-12T08:40:54Z</time>
      </trkpt>
      <trkpt lat="47.72104" lon="3.4995">
        <ele>227.8</ele>
        <time>2022-01-12T08:40:55Z</time>
      </trkpt>
      <trkpt lat="47.72105" lon="3.49951">
        <ele>227.7</ele>
        <time>2022-01-12T08:40:57Z</time>
      </trkpt>
      <trkpt lat="47.72107" lon="3.49953">
        <ele>227.7</ele>
        <time>2022-01-12T08:40:58Z</time>
      </trkpt>
      <trkpt lat="47.72108" lon="3.49954">
        <ele>227.6</ele>
        <time>2022-01-12T08:40:59Z</time>
      </trkpt>
      <trkpt lat="47.72109" lon="3.49954">
        <ele>227.6</ele>
        <time>2022-01-12T08:41:00Z</time>
      </trkpt>
      <trkpt lat="47.7211" lon="3.49955">
        <ele>227.5</ele>
        <time>2022-01-12T08:41:01Z</time>
      </trkpt>
      <trkpt lat="47.72111" lon="3.49956">
        <ele>227.5</ele>
        <time>2022-01-12T08:41:02Z</time>
      </trkpt>
      <trkpt lat="47.72112" lon="3.49957">
        <ele>227.5</ele>
        <time>2022-01-12T08:41:03Z</time>
      </trkpt>
      <trkpt lat="47.72113" lon="3.49958">
        <ele>227.4</ele>
        <time>2022-01-12T08:41:04Z</time>
      </trkpt>
      <trkpt lat="47.72115" lon="3.4996">
        <ele>227.4</ele>
        <time>2022-01-12T08:41:06Z</time>
      </trkpt>
      <trkpt lat="47.72117" lon="3.49961">
        <ele>227.3</ele>
        <time>2022-01-12T08:41:07Z</time>
      </trkpt>
      <trkpt lat="47.72118" lon="3.49962">
        <ele>227.3</ele>
        <time>2022-01-12T08:41:08Z</time>
      </trkpt>
      <trkpt lat="47.72119" lon="3.49963">
        <ele>227.2</ele>
        <time>2022-01-12T08:41:09Z</time>
      </trkpt>
      <trkpt lat="47.7212" lon="3.49964">
        <ele>227.2</ele>
        <time>2022-01-12T08:41:10Z</time>
      </trkpt>
      <trkpt lat="47.72122" lon="3.49965">
        <ele>227.1</ele>
        <time>2022-01-12T08:41:12Z</time>
      </trkpt>
      <trkpt lat="47.72123" lon="3.49966">
        <ele>227.1</ele>
        <time>2022-01-12T08:41:13Z</time>
      </trkpt>
      <trkpt lat="47.72125" lon="3.49967">
        <ele>227</ele>
        <time>2022-01-12T08:41:14Z</time>
      </trkpt>
      <trkpt lat="47.72126" lon="3.49968">
        <ele>227</ele>
        <time>2022-01-12T08:41:15Z</time>
      </trkpt>
      <trkpt lat="47.72127" lon="3.49968">
        <ele>227</ele>
        <time>2022-01-12T08:41:16Z</time>
      </trkpt>
      <trkpt lat="47.72129" lon="3.4997">
        <ele>226.9</ele>
        <time>2022-01-12T08:41:17Z</time>
      </trkpt>
      <trkpt lat="47.72129" lon="3.49971">
        <ele>226.9</ele>
        <time>2022-01-12T08:41:18Z</time>
      </trkpt>
      <trkpt lat="47.72131" lon="3.49972">
        <ele>226.8</ele>
        <time>2022-01-12T08:41:19Z</time>
      </trkpt>
      <trkpt lat="47.72132" lon="3.49973">
        <ele>226.8</ele>
        <time>2022-01-12T08:41:20Z</time>
      </trkpt>
      <trkpt lat="47.72133" lon="3.49973">
        <ele>226.8</ele>
        <time>2022-01-12T08:41:21Z</time>
      </trkpt>
      <trkpt lat="47.72134" lon="3.49974">
        <ele>226.7</ele>
        <time>2022-01-12T08:41:23Z</time>
      </trkpt>
      <trkpt lat="47.72135" lon="3.49975">
        <ele>226.7</ele>
        <time>2022-01-12T08:41:24Z</time>
      </trkpt>
      <trkpt lat="47.72137" lon="3.49976">
        <ele>226.6</ele>
        <time>2022-01-12T08:41:25Z</time>
      </trkpt>
      <trkpt lat="47.72138" lon="3.49977">
        <ele>226.6</ele>
        <time>2022-01-12T08:41:26Z</time>
      </trkpt>
      <trkpt lat="47.72139" lon="3.49978">
        <ele>226.5</ele>
        <time>2022-01-12T08:41:27Z</time>
      </trkpt>
      <trkpt lat="47.72139" lon="3.49978">
        <ele>226.5</ele>
        <time>2022-01-12T08:41:28Z</time>
      </trkpt>
      <trkpt lat="47.7214" lon="3.49979">
        <ele>226.5</ele>
        <time>2022-01-12T08:41:29Z</time>
      </trkpt>
      <trkpt lat="47.72141" lon="3.49979">
        <ele>226.4</ele>
        <time>2022-01-12T08:41:30Z</time>
      </trkpt>
      <trkpt lat="47.72143" lon="3.4998">
        <ele>226.4</ele>
        <time>2022-01-12T08:41:32Z</time>
      </trkpt>
      <trkpt lat="47.72144" lon="3.4998">
        <ele>226.3</ele>
        <time>2022-01-12T08:41:33Z</time>
      </trkpt>
      <trkpt lat="47.72145" lon="3.49981">
        <ele>226.3</ele>
        <time>2022-01-12T08:41:34Z</time>
      </trkpt>
      <trkpt lat="47.72146" lon="3.49982">
        <ele>226.3</ele>
        <time>2022-01-12T08:41:35Z</time>
      </trkpt>
      <trkpt lat="47.72147" lon="3.49983">
        <ele>226.2</ele>
        <time>2022-01-12T08:41:36Z</time>
      </trkpt>
      <trkpt lat="47.7215" lon="3.49984">
        <ele>226.2</ele>
        <time>2022-01-12T08:41:37Z</time>
      </trkpt>
      <trkpt lat="47.7215" lon="3.49985">
        <ele>226.1</ele>
        <time>2022-01-12T08:41:39Z</time>
      </trkpt>
      <trkpt lat="47.72151" lon="3.49985">
        <ele>226.1</ele>
        <time>2022-01-12T08:41:40Z</time>
      </trkpt>
      <trkpt lat="47.72153" lon="3.49987">
        <ele>226</ele>
        <time>2022-01-12T08:41:41Z</time>
      </trkpt>
      <trkpt lat="47.72153" lon="3.49987">
        <ele>226</ele>
        <time>2022-01-12T08:41:42Z</time>
      </trkpt>
      <trkpt lat="47.72154" lon="3.49988">
        <ele>226</ele>
        <time>2022-01-12T08:41:43Z</time>
      </trkpt>
      <trkpt lat="47.72155" lon="3.49989">
        <ele>226</ele>
        <time>2022-01-12T08:41:44Z</time>
      </trkpt>
      <trkpt lat="47.72156" lon="3.4999">
        <ele>225.9</ele>
        <time>2022-01-12T08:41:45Z</time>
      </trkpt>
      <trkpt lat="47.72157" lon="3.4999">
        <ele>225.9</ele>
        <time>2022-01-12T08:41:46Z</time>
      </trkpt>
      <trkpt lat="47.72159" lon="3.49991">
        <ele>225.9</ele>
        <time>2022-01-12T08:41:47Z</time>
      </trkpt>
      <trkpt lat="47.72159" lon="3.49992">
        <ele>225.8</ele>
        <time>2022-01-12T08:41:48Z</time>
      </trkpt>
      <trkpt lat="47.7216" lon="3.49993">
        <ele>225.8</ele>
        <time>2022-01-12T08:41:50Z</time>
      </trkpt>
      <trkpt lat="47.72162" lon="3.49993">
        <ele>225.7</ele>
        <time>2022-01-12T08:41:51Z</time>
      </trkpt>
      <trkpt lat="47.72164" lon="3.49995">
        <ele>225.7</ele>
        <time>2022-01-12T08:41:52Z</time>
      </trkpt>
      <trkpt lat="47.72164" lon="3.49995">
        <ele>225.7</ele>
        <time>2022-01-12T08:41:53Z</time>
      </trkpt>
      <trkpt lat="47.72165" lon="3.49996">
        <ele>225.6</ele>
        <time>2022-01-12T08:41:55Z</time>
      </trkpt>
      <trkpt lat="47.72166" lon="3.49997">
        <ele>225.6</ele>
        <time>2022-01-12T08:41:56Z</time>
      </trkpt>
      <trkpt lat="47.72167" lon="3.49998">
        <ele>225.6</ele>
        <time>2022-01-12T08:41:57Z</time>
      </trkpt>
      <trkpt lat="47.72168" lon="3.49998">
        <ele>225.5</ele>
        <time>2022-01-12T08:41:58Z</time>
      </trkpt>
      <trkpt lat="47.72169" lon="3.49999">
        <ele>225.5</ele>
        <time>2022-01-12T08:41:59Z</time>
      </trkpt>
      <trkpt lat="47.7217" lon="3.5">
        <ele>225.5</ele>
        <time>2022-01-12T08:42:00Z</time>
      </trkpt>
      <trkpt lat="47.72171" lon="3.5">
        <ele>225.4</ele>
        <time>2022-01-12T08:42:01Z</time>
      </trkpt>
      <trkpt lat="47.72172" lon="3.50001">
        <ele>225.4</ele>
        <time>2022-01-12T08:42:02Z</time>
      </trkpt>
      <trkpt lat="47.72173" lon="3.50002">
        <ele>225.4</ele>
        <time>2022-01-12T08:42:03Z</time>
      </trkpt>
      <trkpt lat="47.72175" lon="3.50003">
        <ele>225.3</ele>
        <time>2022-01-12T08:42:05Z</time>
      </trkpt>
      <trkpt lat="47.72176" lon="3.50003">
        <ele>225.3</ele>
        <time>2022-01-12T08:42:06Z</time>
      </trkpt>
      <trkpt lat="47.72177" lon="3.50004">
        <ele>225.3</ele>
        <time>2022-01-12T08:42:07Z</time>
      </trkpt>
      <trkpt lat="47.72178" lon="3.50004">
        <ele>225.2</ele>
        <time>2022-01-12T08:42:08Z</time>
      </trkpt>
      <trkpt lat="47.72179" lon="3.50005">
        <ele>225.2</ele>
        <time>2022-01-12T08:42:09Z</time>
      </trkpt>
      <trkpt lat="47.7218" lon="3.50006">
        <ele>225.2</ele>
        <time>2022-01-12T08:42:10Z</time>
      </trkpt>
      <trkpt lat="47.72181" lon="3.50006">
        <ele>225.1</ele>
        <time>2022-01-12T08:42:11Z</time>
      </trkpt>
      <trkpt lat="47.72182" lon="3.50007">
        <ele>225.1</ele>
        <time>2022-01-12T08:42:12Z</time>
      </trkpt>
      <trkpt lat="47.72183" lon="3.50008">
        <ele>225.1</ele>
        <time>2022-01-12T08:42:13Z</time>
      </trkpt>
      <trkpt lat="47.72184" lon="3.50009">
        <ele>225</ele>
        <time>2022-01-12T08:42:14Z</time>
      </trkpt>
      <trkpt lat="47.72185" lon="3.5001">
        <ele>225</ele>
        <time>2022-01-12T08:42:15Z</time>
      </trkpt>
      <trkpt lat="47.72186" lon="3.50011">
        <ele>224.9</ele>
        <time>2022-01-12T08:42:17Z</time>
      </trkpt>
      <trkpt lat="47.72188" lon="3.50012">
        <ele>224.9</ele>
        <time>2022-01-12T08:42:18Z</time>
      </trkpt>
      <trkpt lat="47.72189" lon="3.50013">
        <ele>224.8</ele>
        <time>2022-01-12T08:42:19Z</time>
      </trkpt>
      <trkpt lat="47.7219" lon="3.50014">
        <ele>224.8</ele>
        <time>2022-01-12T08:42:20Z</time>
      </trkpt>
      <trkpt lat="47.72192" lon="3.50015">
        <ele>224.8</ele>
        <time>2022-01-12T08:42:21Z</time>
      </trkpt>
      <trkpt lat="47.72193" lon="3.50016">
        <ele>224.7</ele>
        <time>2022-01-12T08:42:22Z</time>
      </trkpt>
      <trkpt lat="47.72195" lon="3.50017">
        <ele>224.7</ele>
        <time>2022-01-12T08:42:23Z</time>
      </trkpt>
      <trkpt lat="47.72196" lon="3.50017">
        <ele>224.6</ele>
        <time>2022-01-12T08:42:24Z</time>
      </trkpt>
      <trkpt lat="47.72197" lon="3.50018">
        <ele>224.6</ele>
        <time>2022-01-12T08:42:25Z</time>
      </trkpt>
      <trkpt lat="47.72198" lon="3.50018">
        <ele>224.5</ele>
        <time>2022-01-12T08:42:26Z</time>
      </trkpt>
      <trkpt lat="47.72201" lon="3.5002">
        <ele>224.5</ele>
        <time>2022-01-12T08:42:27Z</time>
      </trkpt>
      <trkpt lat="47.72201" lon="3.50021">
        <ele>224.4</ele>
        <time>2022-01-12T08:42:28Z</time>
      </trkpt>
      <trkpt lat="47.72202" lon="3.50022">
        <ele>224.4</ele>
        <time>2022-01-12T08:42:30Z</time>
      </trkpt>
      <trkpt lat="47.72203" lon="3.50024">
        <ele>224.3</ele>
        <time>2022-01-12T08:42:31Z</time>
      </trkpt>
      <trkpt lat="47.72204" lon="3.50025">
        <ele>224.3</ele>
        <time>2022-01-12T08:42:32Z</time>
      </trkpt>
      <trkpt lat="47.72206" lon="3.50026">
        <ele>224.2</ele>
        <time>2022-01-12T08:42:33Z</time>
      </trkpt>
      <trkpt lat="47.72207" lon="3.50027">
        <ele>224.2</ele>
        <time>2022-01-12T08:42:34Z</time>
      </trkpt>
      <trkpt lat="47.72208" lon="3.50028">
        <ele>224.2</ele>
        <time>2022-01-12T08:42:35Z</time>
      </trkpt>
      <trkpt lat="47.72209" lon="3.50029">
        <ele>224.1</ele>
        <time>2022-01-12T08:42:37Z</time>
      </trkpt>
      <trkpt lat="47.72211" lon="3.5003">
        <ele>224</ele>
        <time>2022-01-12T08:42:38Z</time>
      </trkpt>
      <trkpt lat="47.72212" lon="3.5003">
        <ele>224</ele>
        <time>2022-01-12T08:42:39Z</time>
      </trkpt>
      <trkpt lat="47.72213" lon="3.50031">
        <ele>224</ele>
        <time>2022-01-12T08:42:40Z</time>
      </trkpt>
      <trkpt lat="47.72215" lon="3.50031">
        <ele>223.9</ele>
        <time>2022-01-12T08:42:41Z</time>
      </trkpt>
      <trkpt lat="47.72216" lon="3.50032">
        <ele>223.9</ele>
        <time>2022-01-12T08:42:43Z</time>
      </trkpt>
      <trkpt lat="47.72216" lon="3.50032">
        <ele>223.9</ele>
        <time>2022-01-12T08:42:44Z</time>
      </trkpt>
      <trkpt lat="47.72217" lon="3.50032">
        <ele>223.8</ele>
        <time>2022-01-12T08:42:45Z</time>
      </trkpt>
      <trkpt lat="47.72218" lon="3.50032">
        <ele>223.8</ele>
        <time>2022-01-12T08:42:46Z</time>
      </trkpt>
      <trkpt lat="47.72219" lon="3.50033">
        <ele>223.8</ele>
        <time>2022-01-12T08:42:47Z</time>
      </trkpt>
      <trkpt lat="47.7222" lon="3.50033">
        <ele>223.7</ele>
        <time>2022-01-12T08:42:48Z</time>
      </trkpt>
      <trkpt lat="47.7222" lon="3.50032">
        <ele>223.7</ele>
        <time>2022-01-12T08:42:50Z</time>
      </trkpt>
      <trkpt lat="47.72221" lon="3.50032">
        <ele>223.7</ele>
        <time>2022-01-12T08:42:51Z</time>
      </trkpt>
      <trkpt lat="47.72222" lon="3.50033">
        <ele>223.7</ele>
        <time>2022-01-12T08:42:52Z</time>
      </trkpt>
      <trkpt lat="47.72223" lon="3.50036">
        <ele>223.6</ele>
        <time>2022-01-12T08:42:53Z</time>
      </trkpt>
      <trkpt lat="47.72223" lon="3.50038">
        <ele>223.6</ele>
        <time>2022-01-12T08:42:54Z</time>
      </trkpt>
      <trkpt lat="47.72223" lon="3.50039">
        <ele>223.6</ele>
        <time>2022-01-12T08:42:55Z</time>
      </trkpt>
      <trkpt lat="47.72223" lon="3.50041">
        <ele>223.6</ele>
        <time>2022-01-12T08:42:56Z</time>
      </trkpt>
      <trkpt lat="47.72224" lon="3.50042">
        <ele>223.5</ele>
        <time>2022-01-12T08:42:57Z</time>
      </trkpt>
      <trkpt lat="47.72224" lon="3.50043">
        <ele>223.5</ele>
        <time>2022-01-12T08:42:58Z</time>
      </trkpt>
      <trkpt lat="47.72225" lon="3.50044">
        <ele>223.5</ele>
        <time>2022-01-12T08:42:59Z</time>
      </trkpt>
      <trkpt lat="47.72226" lon="3.50045">
        <ele>223.5</ele>
        <time>2022-01-12T08:43:00Z</time>
      </trkpt>
      <trkpt lat="47.72228" lon="3.50046">
        <ele>223.4</ele>
        <time>2022-01-12T08:43:02Z</time>
      </trkpt>
      <trkpt lat="47.7223" lon="3.50047">
        <ele>223.4</ele>
        <time>2022-01-12T08:43:03Z</time>
      </trkpt>
      <trkpt lat="47.72231" lon="3.50049">
        <ele>223.3</ele>
        <time>2022-01-12T08:43:04Z</time>
      </trkpt>
      <trkpt lat="47.72232" lon="3.50051">
        <ele>223.3</ele>
        <time>2022-01-12T08:43:05Z</time>
      </trkpt>
      <trkpt lat="47.72233" lon="3.50052">
        <ele>223.3</ele>
        <time>2022-01-12T08:43:06Z</time>
      </trkpt>
      <trkpt lat="47.72234" lon="3.50054">
        <ele>223.3</ele>
        <time>2022-01-12T08:43:07Z</time>
      </trkpt>
      <trkpt lat="47.72235" lon="3.50055">
        <ele>223.2</ele>
        <time>2022-01-12T08:43:08Z</time>
      </trkpt>
      <trkpt lat="47.72237" lon="3.50057">
        <ele>223.2</ele>
        <time>2022-01-12T08:43:09Z</time>
      </trkpt>
      <trkpt lat="47.72237" lon="3.50058">
        <ele>223.2</ele>
        <time>2022-01-12T08:43:10Z</time>
      </trkpt>
      <trkpt lat="47.72238" lon="3.50059">
        <ele>223.1</ele>
        <time>2022-01-12T08:43:11Z</time>
      </trkpt>
      <trkpt lat="47.72239" lon="3.50061">
        <ele>223.1</ele>
        <time>2022-01-12T08:43:12Z</time>
      </trkpt>
      <trkpt lat="47.72241" lon="3.50063">
        <ele>223.1</ele>
        <time>2022-01-12T08:43:13Z</time>
      </trkpt>
      <trkpt lat="47.72242" lon="3.50064">
        <ele>223</ele>
        <time>2022-01-12T08:43:15Z</time>
      </trkpt>
      <trkpt lat="47.72243" lon="3.50066">
        <ele>223</ele>
        <time>2022-01-12T08:43:16Z</time>
      </trkpt>
      <trkpt lat="47.72244" lon="3.50067">
        <ele>223</ele>
        <time>2022-01-12T08:43:17Z</time>
      </trkpt>
      <trkpt lat="47.72246" lon="3.50069">
        <ele>222.9</ele>
        <time>2022-01-12T08:43:19Z</time>
      </trkpt>
      <trkpt lat="47.72246" lon="3.5007">
        <ele>222.9</ele>
        <time>2022-01-12T08:43:20Z</time>
      </trkpt>
      <trkpt lat="47.72248" lon="3.50072">
        <ele>222.9</ele>
        <time>2022-01-12T08:43:22Z</time>
      </trkpt>
      <trkpt lat="47.72249" lon="3.50074">
        <ele>222.9</ele>
        <time>2022-01-12T08:43:23Z</time>
      </trkpt>
      <trkpt lat="47.7225" lon="3.50075">
        <ele>222.8</ele>
        <time>2022-01-12T08:43:24Z</time>
      </trkpt>
      <trkpt lat="47.72251" lon="3.50078">
        <ele>222.8</ele>
        <time>2022-01-12T08:43:25Z</time>
      </trkpt>
      <trkpt lat="47.72252" lon="3.50079">
        <ele>222.8</ele>
        <time>2022-01-12T08:43:26Z</time>
      </trkpt>
      <trkpt lat="47.72253" lon="3.5008">
        <ele>222.8</ele>
        <time>2022-01-12T08:43:27Z</time>
      </trkpt>
      <trkpt lat="47.72254" lon="3.50082">
        <ele>222.7</ele>
        <time>2022-01-12T08:43:28Z</time>
      </trkpt>
      <trkpt lat="47.72255" lon="3.50083">
        <ele>222.7</ele>
        <time>2022-01-12T08:43:30Z</time>
      </trkpt>
      <trkpt lat="47.72256" lon="3.50084">
        <ele>222.7</ele>
        <time>2022-01-12T08:43:31Z</time>
      </trkpt>
      <trkpt lat="47.72257" lon="3.50086">
        <ele>222.7</ele>
        <time>2022-01-12T08:43:32Z</time>
      </trkpt>
      <trkpt lat="47.72258" lon="3.50087">
        <ele>222.6</ele>
        <time>2022-01-12T08:43:33Z</time>
      </trkpt>
      <trkpt lat="47.72258" lon="3.50088">
        <ele>222.6</ele>
        <time>2022-01-12T08:43:34Z</time>
      </trkpt>
      <trkpt lat="47.7226" lon="3.5009">
        <ele>222.6</ele>
        <time>2022-01-12T08:43:35Z</time>
      </trkpt>
      <trkpt lat="47.7226" lon="3.50091">
        <ele>222.6</ele>
        <time>2022-01-12T08:43:36Z</time>
      </trkpt>
      <trkpt lat="47.72261" lon="3.50092">
        <ele>222.6</ele>
        <time>2022-01-12T08:43:37Z</time>
      </trkpt>
      <trkpt lat="47.72263" lon="3.50095">
        <ele>222.5</ele>
        <time>2022-01-12T08:43:39Z</time>
      </trkpt>
      <trkpt lat="47.72264" lon="3.50096">
        <ele>222.5</ele>
        <time>2022-01-12T08:43:40Z</time>
      </trkpt>
      <trkpt lat="47.72265" lon="3.50099">
        <ele>222.5</ele>
        <time>2022-01-12T08:43:41Z</time>
      </trkpt>
      <trkpt lat="47.72265" lon="3.501">
        <ele>222.5</ele>
        <time>2022-01-12T08:43:42Z</time>
      </trkpt>
      <trkpt lat="47.72266" lon="3.50101">
        <ele>222.5</ele>
        <time>2022-01-12T08:43:43Z</time>
      </trkpt>
      <trkpt lat="47.72267" lon="3.50102">
        <ele>222.5</ele>
        <time>2022-01-12T08:43:45Z</time>
      </trkpt>
      <trkpt lat="47.72267" lon="3.50104">
        <ele>222.4</ele>
        <time>2022-01-12T08:43:46Z</time>
      </trkpt>
      <trkpt lat="47.72269" lon="3.50106">
        <ele>222.4</ele>
        <time>2022-01-12T08:43:47Z</time>
      </trkpt>
      <trkpt lat="47.72269" lon="3.50107">
        <ele>222.4</ele>
        <time>2022-01-12T08:43:48Z</time>
      </trkpt>
      <trkpt lat="47.7227" lon="3.50108">
        <ele>222.4</ele>
        <time>2022-01-12T08:43:49Z</time>
      </trkpt>
      <trkpt lat="47.72271" lon="3.50111">
        <ele>222.4</ele>
        <time>2022-01-12T08:43:50Z</time>
      </trkpt>
      <trkpt lat="47.72272" lon="3.50112">
        <ele>222.4</ele>
        <time>2022-01-12T08:43:51Z</time>
      </trkpt>
      <trkpt lat="47.72272" lon="3.50113">
        <ele>222.4</ele>
        <time>2022-01-12T08:43:52Z</time>
      </trkpt>
      <trkpt lat="47.72273" lon="3.50114">
        <ele>222.4</ele>
        <time>2022-01-12T08:43:53Z</time>
      </trkpt>
      <trkpt lat="47.72274" lon="3.50115">
        <ele>222.4</ele>
        <time>2022-01-12T08:43:54Z</time>
      </trkpt>
      <trkpt lat="47.72275" lon="3.50116">
        <ele>222.4</ele>
        <time>2022-01-12T08:43:55Z</time>
      </trkpt>
      <trkpt lat="47.72276" lon="3.50118">
        <ele>222.4</ele>
        <time>2022-01-12T08:43:56Z</time>
      </trkpt>
      <trkpt lat="47.72277" lon="3.50119">
        <ele>222.4</ele>
        <time>2022-01-12T08:43:58Z</time>
      </trkpt>
      <trkpt lat="47.72278" lon="3.50121">
        <ele>222.3</ele>
        <time>2022-01-12T08:43:59Z</time>
      </trkpt>
      <trkpt lat="47.72279" lon="3.50122">
        <ele>222.3</ele>
        <time>2022-01-12T08:44:00Z</time>
      </trkpt>
      <trkpt lat="47.72281" lon="3.50124">
        <ele>222.3</ele>
        <time>2022-01-12T08:44:01Z</time>
      </trkpt>
      <trkpt lat="47.72282" lon="3.50125">
        <ele>222.3</ele>
        <time>2022-01-12T08:44:03Z</time>
      </trkpt>
      <trkpt lat="47.72283" lon="3.50126">
        <ele>222.3</ele>
        <time>2022-01-12T08:44:04Z</time>
      </trkpt>
      <trkpt lat="47.72284" lon="3.50128">
        <ele>222.3</ele>
        <time>2022-01-12T08:44:05Z</time>
      </trkpt>
      <trkpt lat="47.72286" lon="3.50129">
        <ele>222.3</ele>
        <time>2022-01-12T08:44:06Z</time>
      </trkpt>
      <trkpt lat="47.72287" lon="3.5013">
        <ele>222.3</ele>
        <time>2022-01-12T08:44:07Z</time>
      </trkpt>
      <trkpt lat="47.72287" lon="3.50131">
        <ele>222.3</ele>
        <time>2022-01-12T08:44:08Z</time>
      </trkpt>
      <trkpt lat="47.72289" lon="3.50133">
        <ele>222.3</ele>
        <time>2022-01-12T08:44:10Z</time>
      </trkpt>
      <trkpt lat="47.7229" lon="3.50134">
        <ele>222.3</ele>
        <time>2022-01-12T08:44:11Z</time>
      </trkpt>
      <trkpt lat="47.72291" lon="3.50134">
        <ele>222.3</ele>
        <time>2022-01-12T08:44:12Z</time>
      </trkpt>
      <trkpt lat="47.72292" lon="3.50134">
        <ele>222.3</ele>
        <time>2022-01-12T08:44:13Z</time>
      </trkpt>
      <trkpt lat="47.72293" lon="3.50134">
        <ele>222.3</ele>
        <time>2022-01-12T08:44:15Z</time>
      </trkpt>
      <trkpt lat="47.72294" lon="3.50135">
        <ele>222.3</ele>
        <time>2022-01-12T08:44:16Z</time>
      </trkpt>
      <trkpt lat="47.72296" lon="3.50135">
        <ele>222.3</ele>
        <time>2022-01-12T08:44:17Z</time>
      </trkpt>
      <trkpt lat="47.72297" lon="3.50136">
        <ele>222.3</ele>
        <time>2022-01-12T08:44:18Z</time>
      </trkpt>
      <trkpt lat="47.72299" lon="3.50136">
        <ele>222.3</ele>
        <time>2022-01-12T08:44:19Z</time>
      </trkpt>
      <trkpt lat="47.723" lon="3.50137">
        <ele>222.3</ele>
        <time>2022-01-12T08:44:20Z</time>
      </trkpt>
      <trkpt lat="47.723" lon="3.50137">
        <ele>222.3</ele>
        <time>2022-01-12T08:44:21Z</time>
      </trkpt>
      <trkpt lat="47.72301" lon="3.50137">
        <ele>222.3</ele>
        <time>2022-01-12T08:44:22Z</time>
      </trkpt>
      <trkpt lat="47.72303" lon="3.50138">
        <ele>222.3</ele>
        <time>2022-01-12T08:44:23Z</time>
      </trkpt>
      <trkpt lat="47.72304" lon="3.50138">
        <ele>222.3</ele>
        <time>2022-01-12T08:44:25Z</time>
      </trkpt>
      <trkpt lat="47.72306" lon="3.50139">
        <ele>222.4</ele>
        <time>2022-01-12T08:44:26Z</time>
      </trkpt>
      <trkpt lat="47.72307" lon="3.50139">
        <ele>222.4</ele>
        <time>2022-01-12T08:44:27Z</time>
      </trkpt>
      <trkpt lat="47.72308" lon="3.5014">
        <ele>222.4</ele>
        <time>2022-01-12T08:44:28Z</time>
      </trkpt>
      <trkpt lat="47.7231" lon="3.5014">
        <ele>222.4</ele>
        <time>2022-01-12T08:44:29Z</time>
      </trkpt>
      <trkpt lat="47.72311" lon="3.5014">
        <ele>222.4</ele>
        <time>2022-01-12T08:44:30Z</time>
      </trkpt>
      <trkpt lat="47.72312" lon="3.5014">
        <ele>222.4</ele>
        <time>2022-01-12T08:44:31Z</time>
      </trkpt>
      <trkpt lat="47.72313" lon="3.50141">
        <ele>222.4</ele>
        <time>2022-01-12T08:44:32Z</time>
      </trkpt>
      <trkpt lat="47.72315" lon="3.50141">
        <ele>222.4</ele>
        <time>2022-01-12T08:44:33Z</time>
      </trkpt>
      <trkpt lat="47.72317" lon="3.50143">
        <ele>222.4</ele>
        <time>2022-01-12T08:44:35Z</time>
      </trkpt>
      <trkpt lat="47.72318" lon="3.50143">
        <ele>222.4</ele>
        <time>2022-01-12T08:44:36Z</time>
      </trkpt>
      <trkpt lat="47.72319" lon="3.50144">
        <ele>222.4</ele>
        <time>2022-01-12T08:44:37Z</time>
      </trkpt>
      <trkpt lat="47.7232" lon="3.50145">
        <ele>222.4</ele>
        <time>2022-01-12T08:44:38Z</time>
      </trkpt>
      <trkpt lat="47.72322" lon="3.50146">
        <ele>222.4</ele>
        <time>2022-01-12T08:44:39Z</time>
      </trkpt>
      <trkpt lat="47.72323" lon="3.50147">
        <ele>222.4</ele>
        <time>2022-01-12T08:44:40Z</time>
      </trkpt>
      <trkpt lat="47.72324" lon="3.50147">
        <ele>222.5</ele>
        <time>2022-01-12T08:44:41Z</time>
      </trkpt>
      <trkpt lat="47.72325" lon="3.50148">
        <ele>222.5</ele>
        <time>2022-01-12T08:44:43Z</time>
      </trkpt>
      <trkpt lat="47.72327" lon="3.50149">
        <ele>222.5</ele>
        <time>2022-01-12T08:44:44Z</time>
      </trkpt>
      <trkpt lat="47.72328" lon="3.5015">
        <ele>222.5</ele>
        <time>2022-01-12T08:44:45Z</time>
      </trkpt>
      <trkpt lat="47.7233" lon="3.50151">
        <ele>222.5</ele>
        <time>2022-01-12T08:44:46Z</time>
      </trkpt>
      <trkpt lat="47.72331" lon="3.50152">
        <ele>222.5</ele>
        <time>2022-01-12T08:44:47Z</time>
      </trkpt>
      <trkpt lat="47.72332" lon="3.50153">
        <ele>222.5</ele>
        <time>2022-01-12T08:44:48Z</time>
      </trkpt>
      <trkpt lat="47.72333" lon="3.50153">
        <ele>222.5</ele>
        <time>2022-01-12T08:44:49Z</time>
      </trkpt>
      <trkpt lat="47.72334" lon="3.50154">
        <ele>222.5</ele>
        <time>2022-01-12T08:44:50Z</time>
      </trkpt>
      <trkpt lat="47.72336" lon="3.50155">
        <ele>222.6</ele>
        <time>2022-01-12T08:44:51Z</time>
      </trkpt>
      <trkpt lat="47.72337" lon="3.50156">
        <ele>222.6</ele>
        <time>2022-01-12T08:44:52Z</time>
      </trkpt>
      <trkpt lat="47.72338" lon="3.50157">
        <ele>222.6</ele>
        <time>2022-01-12T08:44:53Z</time>
      </trkpt>
      <trkpt lat="47.7234" lon="3.50158">
        <ele>222.6</ele>
        <time>2022-01-12T08:44:55Z</time>
      </trkpt>
      <trkpt lat="47.72341" lon="3.50158">
        <ele>222.6</ele>
        <time>2022-01-12T08:44:56Z</time>
      </trkpt>
      <trkpt lat="47.72343" lon="3.50159">
        <ele>222.6</ele>
        <time>2022-01-12T08:44:57Z</time>
      </trkpt>
      <trkpt lat="47.72344" lon="3.5016">
        <ele>222.7</ele>
        <time>2022-01-12T08:44:58Z</time>
      </trkpt>
      <trkpt lat="47.72345" lon="3.50161">
        <ele>222.7</ele>
        <time>2022-01-12T08:45:00Z</time>
      </trkpt>
      <trkpt lat="47.72347" lon="3.50163">
        <ele>222.7</ele>
        <time>2022-01-12T08:45:01Z</time>
      </trkpt>
      <trkpt lat="47.72348" lon="3.50164">
        <ele>222.7</ele>
        <time>2022-01-12T08:45:02Z</time>
      </trkpt>
      <trkpt lat="47.7235" lon="3.50165">
        <ele>222.7</ele>
        <time>2022-01-12T08:45:03Z</time>
      </trkpt>
      <trkpt lat="47.7235" lon="3.50166">
        <ele>222.7</ele>
        <time>2022-01-12T08:45:04Z</time>
      </trkpt>
      <trkpt lat="47.72351" lon="3.50166">
        <ele>222.7</ele>
        <time>2022-01-12T08:45:05Z</time>
      </trkpt>
      <trkpt lat="47.72352" lon="3.50167">
        <ele>222.8</ele>
        <time>2022-01-12T08:45:06Z</time>
      </trkpt>
      <trkpt lat="47.72353" lon="3.50168">
        <ele>222.8</ele>
        <time>2022-01-12T08:45:07Z</time>
      </trkpt>
      <trkpt lat="47.72354" lon="3.50169">
        <ele>222.8</ele>
        <time>2022-01-12T08:45:09Z</time>
      </trkpt>
      <trkpt lat="47.72356" lon="3.50171">
        <ele>222.8</ele>
        <time>2022-01-12T08:45:10Z</time>
      </trkpt>
      <trkpt lat="47.72356" lon="3.50172">
        <ele>222.8</ele>
        <time>2022-01-12T08:45:11Z</time>
      </trkpt>
      <trkpt lat="47.72358" lon="3.50174">
        <ele>222.8</ele>
        <time>2022-01-12T08:45:12Z</time>
      </trkpt>
      <trkpt lat="47.72359" lon="3.50175">
        <ele>222.8</ele>
        <time>2022-01-12T08:45:13Z</time>
      </trkpt>
      <trkpt lat="47.7236" lon="3.50176">
        <ele>222.8</ele>
        <time>2022-01-12T08:45:14Z</time>
      </trkpt>
      <trkpt lat="47.72361" lon="3.50177">
        <ele>222.8</ele>
        <time>2022-01-12T08:45:15Z</time>
      </trkpt>
      <trkpt lat="47.72362" lon="3.50178">
        <ele>222.8</ele>
        <time>2022-01-12T08:45:16Z</time>
      </trkpt>
      <trkpt lat="47.72363" lon="3.50179">
        <ele>222.9</ele>
        <time>2022-01-12T08:45:18Z</time>
      </trkpt>
      <trkpt lat="47.72363" lon="3.5018">
        <ele>222.9</ele>
        <time>2022-01-12T08:45:19Z</time>
      </trkpt>
      <trkpt lat="47.72364" lon="3.50181">
        <ele>222.9</ele>
        <time>2022-01-12T08:45:20Z</time>
      </trkpt>
      <trkpt lat="47.72365" lon="3.50182">
        <ele>222.9</ele>
        <time>2022-01-12T08:45:21Z</time>
      </trkpt>
      <trkpt lat="47.72366" lon="3.50183">
        <ele>222.9</ele>
        <time>2022-01-12T08:45:22Z</time>
      </trkpt>
      <trkpt lat="47.72367" lon="3.50184">
        <ele>222.9</ele>
        <time>2022-01-12T08:45:23Z</time>
      </trkpt>
      <trkpt lat="47.72367" lon="3.50186">
        <ele>222.9</ele>
        <time>2022-01-12T08:45:24Z</time>
      </trkpt>
      <trkpt lat="47.72368" lon="3.50187">
        <ele>222.9</ele>
        <time>2022-01-12T08:45:25Z</time>
      </trkpt>
      <trkpt lat="47.72369" lon="3.50188">
        <ele>222.9</ele>
        <time>2022-01-12T08:45:27Z</time>
      </trkpt>
      <trkpt lat="47.72369" lon="3.50189">
        <ele>222.9</ele>
        <time>2022-01-12T08:45:28Z</time>
      </trkpt>
      <trkpt lat="47.7237" lon="3.5019">
        <ele>222.9</ele>
        <time>2022-01-12T08:45:29Z</time>
      </trkpt>
      <trkpt lat="47.72371" lon="3.50191">
        <ele>223</ele>
        <time>2022-01-12T08:45:30Z</time>
      </trkpt>
      <trkpt lat="47.72372" lon="3.50192">
        <ele>223</ele>
        <time>2022-01-12T08:45:31Z</time>
      </trkpt>
      <trkpt lat="47.72373" lon="3.50195">
        <ele>223</ele>
        <time>2022-01-12T08:45:32Z</time>
      </trkpt>
      <trkpt lat="47.72374" lon="3.50196">
        <ele>223</ele>
        <time>2022-01-12T08:45:33Z</time>
      </trkpt>
      <trkpt lat="47.72374" lon="3.50197">
        <ele>223</ele>
        <time>2022-01-12T08:45:34Z</time>
      </trkpt>
      <trkpt lat="47.72375" lon="3.50198">
        <ele>223</ele>
        <time>2022-01-12T08:45:36Z</time>
      </trkpt>
      <trkpt lat="47.72376" lon="3.50199">
        <ele>223.1</ele>
        <time>2022-01-12T08:45:37Z</time>
      </trkpt>
      <trkpt lat="47.72377" lon="3.50201">
        <ele>223.1</ele>
        <time>2022-01-12T08:45:38Z</time>
      </trkpt>
      <trkpt lat="47.72377" lon="3.50202">
        <ele>223.1</ele>
        <time>2022-01-12T08:45:39Z</time>
      </trkpt>
      <trkpt lat="47.72378" lon="3.50203">
        <ele>223.1</ele>
        <time>2022-01-12T08:45:40Z</time>
      </trkpt>
      <trkpt lat="47.72379" lon="3.50204">
        <ele>223.1</ele>
        <time>2022-01-12T08:45:41Z</time>
      </trkpt>
      <trkpt lat="47.7238" lon="3.50206">
        <ele>223.1</ele>
        <time>2022-01-12T08:45:42Z</time>
      </trkpt>
      <trkpt lat="47.72381" lon="3.50207">
        <ele>223.1</ele>
        <time>2022-01-12T08:45:44Z</time>
      </trkpt>
      <trkpt lat="47.72382" lon="3.50208">
        <ele>223.1</ele>
        <time>2022-01-12T08:45:45Z</time>
      </trkpt>
      <trkpt lat="47.72382" lon="3.50209">
        <ele>223.2</ele>
        <time>2022-01-12T08:45:46Z</time>
      </trkpt>
      <trkpt lat="47.72383" lon="3.5021">
        <ele>223.2</ele>
        <time>2022-01-12T08:45:47Z</time>
      </trkpt>
      <trkpt lat="47.72384" lon="3.5021">
        <ele>223.2</ele>
        <time>2022-01-12T08:45:48Z</time>
      </trkpt>
      <trkpt lat="47.72385" lon="3.50211">
        <ele>223.2</ele>
        <time>2022-01-12T08:45:49Z</time>
      </trkpt>
      <trkpt lat="47.72386" lon="3.50212">
        <ele>223.2</ele>
        <time>2022-01-12T08:45:50Z</time>
      </trkpt>
      <trkpt lat="47.72386" lon="3.50213">
        <ele>223.2</ele>
        <time>2022-01-12T08:45:51Z</time>
      </trkpt>
      <trkpt lat="47.72387" lon="3.50214">
        <ele>223.2</ele>
        <time>2022-01-12T08:45:52Z</time>
      </trkpt>
      <trkpt lat="47.72388" lon="3.50215">
        <ele>223.2</ele>
        <time>2022-01-12T08:45:53Z</time>
      </trkpt>
      <trkpt lat="47.72389" lon="3.50216">
        <ele>223.2</ele>
        <time>2022-01-12T08:45:55Z</time>
      </trkpt>
      <trkpt lat="47.72391" lon="3.50218">
        <ele>223.3</ele>
        <time>2022-01-12T08:45:56Z</time>
      </trkpt>
      <trkpt lat="47.72392" lon="3.50219">
        <ele>223.3</ele>
        <time>2022-01-12T08:45:57Z</time>
      </trkpt>
      <trkpt lat="47.72392" lon="3.5022">
        <ele>223.3</ele>
        <time>2022-01-12T08:45:58Z</time>
      </trkpt>
      <trkpt lat="47.72393" lon="3.50221">
        <ele>223.4</ele>
        <time>2022-01-12T08:45:59Z</time>
      </trkpt>
      <trkpt lat="47.72394" lon="3.50222">
        <ele>223.4</ele>
        <time>2022-01-12T08:46:01Z</time>
      </trkpt>
      <trkpt lat="47.72394" lon="3.50224">
        <ele>223.4</ele>
        <time>2022-01-12T08:46:02Z</time>
      </trkpt>
      <trkpt lat="47.72395" lon="3.50225">
        <ele>223.5</ele>
        <time>2022-01-12T08:46:03Z</time>
      </trkpt>
      <trkpt lat="47.72396" lon="3.50227">
        <ele>223.5</ele>
        <time>2022-01-12T08:46:04Z</time>
      </trkpt>
      <trkpt lat="47.72395" lon="3.50229">
        <ele>223.5</ele>
        <time>2022-01-12T08:46:06Z</time>
      </trkpt>
      <trkpt lat="47.72395" lon="3.5023">
        <ele>223.5</ele>
        <time>2022-01-12T08:46:07Z</time>
      </trkpt>
      <trkpt lat="47.72395" lon="3.50231">
        <ele>223.6</ele>
        <time>2022-01-12T08:46:08Z</time>
      </trkpt>
      <trkpt lat="47.72396" lon="3.50232">
        <ele>223.6</ele>
        <time>2022-01-12T08:46:09Z</time>
      </trkpt>
      <trkpt lat="47.72397" lon="3.50233">
        <ele>223.6</ele>
        <time>2022-01-12T08:46:10Z</time>
      </trkpt>
      <trkpt lat="47.72398" lon="3.50235">
        <ele>223.7</ele>
        <time>2022-01-12T08:46:11Z</time>
      </trkpt>
      <trkpt lat="47.72399" lon="3.50236">
        <ele>223.7</ele>
        <time>2022-01-12T08:46:13Z</time>
      </trkpt>
      <trkpt lat="47.724" lon="3.50238">
        <ele>223.7</ele>
        <time>2022-01-12T08:46:14Z</time>
      </trkpt>
      <trkpt lat="47.72401" lon="3.50239">
        <ele>223.8</ele>
        <time>2022-01-12T08:46:15Z</time>
      </trkpt>
      <trkpt lat="47.72403" lon="3.50241">
        <ele>223.8</ele>
        <time>2022-01-12T08:46:16Z</time>
      </trkpt>
      <trkpt lat="47.72404" lon="3.50242">
        <ele>223.9</ele>
        <time>2022-01-12T08:46:18Z</time>
      </trkpt>
      <trkpt lat="47.72405" lon="3.50243">
        <ele>223.9</ele>
        <time>2022-01-12T08:46:19Z</time>
      </trkpt>
      <trkpt lat="47.72406" lon="3.50243">
        <ele>223.9</ele>
        <time>2022-01-12T08:46:20Z</time>
      </trkpt>
      <trkpt lat="47.72407" lon="3.50244">
        <ele>224</ele>
        <time>2022-01-12T08:46:21Z</time>
      </trkpt>
      <trkpt lat="47.72408" lon="3.50245">
        <ele>224</ele>
        <time>2022-01-12T08:46:22Z</time>
      </trkpt>
      <trkpt lat="47.72409" lon="3.50245">
        <ele>224</ele>
        <time>2022-01-12T08:46:23Z</time>
      </trkpt>
      <trkpt lat="47.7241" lon="3.50246">
        <ele>224.1</ele>
        <time>2022-01-12T08:46:25Z</time>
      </trkpt>
      <trkpt lat="47.72412" lon="3.50248">
        <ele>224.1</ele>
        <time>2022-01-12T08:46:26Z</time>
      </trkpt>
      <trkpt lat="47.72413" lon="3.50248">
        <ele>224.1</ele>
        <time>2022-01-12T08:46:27Z</time>
      </trkpt>
      <trkpt lat="47.72413" lon="3.50249">
        <ele>224.2</ele>
        <time>2022-01-12T08:46:28Z</time>
      </trkpt>
      <trkpt lat="47.72414" lon="3.5025">
        <ele>224.2</ele>
        <time>2022-01-12T08:46:29Z</time>
      </trkpt>
      <trkpt lat="47.72416" lon="3.50252">
        <ele>224.2</ele>
        <time>2022-01-12T08:46:30Z</time>
      </trkpt>
      <trkpt lat="47.72417" lon="3.50254">
        <ele>224.3</ele>
        <time>2022-01-12T08:46:31Z</time>
      </trkpt>
      <trkpt lat="47.72418" lon="3.50255">
        <ele>224.3</ele>
        <time>2022-01-12T08:46:32Z</time>
      </trkpt>
      <trkpt lat="47.72418" lon="3.50256">
        <ele>224.4</ele>
        <time>2022-01-12T08:46:33Z</time>
      </trkpt>
      <trkpt lat="47.72419" lon="3.50258">
        <ele>224.4</ele>
        <time>2022-01-12T08:46:34Z</time>
      </trkpt>
      <trkpt lat="47.7242" lon="3.5026">
        <ele>224.5</ele>
        <time>2022-01-12T08:46:35Z</time>
      </trkpt>
      <trkpt lat="47.72421" lon="3.50261">
        <ele>224.5</ele>
        <time>2022-01-12T08:46:36Z</time>
      </trkpt>
      <trkpt lat="47.72422" lon="3.50263">
        <ele>224.5</ele>
        <time>2022-01-12T08:46:38Z</time>
      </trkpt>
      <trkpt lat="47.72424" lon="3.50264">
        <ele>224.6</ele>
        <time>2022-01-12T08:46:39Z</time>
      </trkpt>
      <trkpt lat="47.72425" lon="3.50265">
        <ele>224.6</ele>
        <time>2022-01-12T08:46:40Z</time>
      </trkpt>
      <trkpt lat="47.72427" lon="3.50267">
        <ele>224.7</ele>
        <time>2022-01-12T08:46:41Z</time>
      </trkpt>
      <trkpt lat="47.72428" lon="3.50268">
        <ele>224.7</ele>
        <time>2022-01-12T08:46:42Z</time>
      </trkpt>
      <trkpt lat="47.72428" lon="3.50269">
        <ele>224.7</ele>
        <time>2022-01-12T08:46:43Z</time>
      </trkpt>
      <trkpt lat="47.7243" lon="3.50271">
        <ele>224.8</ele>
        <time>2022-01-12T08:46:45Z</time>
      </trkpt>
      <trkpt lat="47.72431" lon="3.50272">
        <ele>224.8</ele>
        <time>2022-01-12T08:46:46Z</time>
      </trkpt>
      <trkpt lat="47.72432" lon="3.50273">
        <ele>224.9</ele>
        <time>2022-01-12T08:46:47Z</time>
      </trkpt>
      <trkpt lat="47.72433" lon="3.50275">
        <ele>224.9</ele>
        <time>2022-01-12T08:46:48Z</time>
      </trkpt>
      <trkpt lat="47.72434" lon="3.50276">
        <ele>224.9</ele>
        <time>2022-01-12T08:46:49Z</time>
      </trkpt>
      <trkpt lat="47.72435" lon="3.50277">
        <ele>224.9</ele>
        <time>2022-01-12T08:46:50Z</time>
      </trkpt>
      <trkpt lat="47.72437" lon="3.50278">
        <ele>225</ele>
        <time>2022-01-12T08:46:52Z</time>
      </trkpt>
      <trkpt lat="47.72438" lon="3.50279">
        <ele>225</ele>
        <time>2022-01-12T08:46:53Z</time>
      </trkpt>
      <trkpt lat="47.72439" lon="3.5028">
        <ele>225</ele>
        <time>2022-01-12T08:46:54Z</time>
      </trkpt>
      <trkpt lat="47.72441" lon="3.5028">
        <ele>225.1</ele>
        <time>2022-01-12T08:46:55Z</time>
      </trkpt>
      <trkpt lat="47.72442" lon="3.50281">
        <ele>225.1</ele>
        <time>2022-01-12T08:46:56Z</time>
      </trkpt>
      <trkpt lat="47.72443" lon="3.50283">
        <ele>225.1</ele>
        <time>2022-01-12T08:46:58Z</time>
      </trkpt>
      <trkpt lat="47.72444" lon="3.50284">
        <ele>225.1</ele>
        <time>2022-01-12T08:46:59Z</time>
      </trkpt>
      <trkpt lat="47.72445" lon="3.50285">
        <ele>225.2</ele>
        <time>2022-01-12T08:47:00Z</time>
      </trkpt>
      <trkpt lat="47.72446" lon="3.50286">
        <ele>225.2</ele>
        <time>2022-01-12T08:47:01Z</time>
      </trkpt>
      <trkpt lat="47.72447" lon="3.50287">
        <ele>225.2</ele>
        <time>2022-01-12T08:47:02Z</time>
      </trkpt>
      <trkpt lat="47.72448" lon="3.50288">
        <ele>225.2</ele>
        <time>2022-01-12T08:47:03Z</time>
      </trkpt>
      <trkpt lat="47.7245" lon="3.50289">
        <ele>225.2</ele>
        <time>2022-01-12T08:47:05Z</time>
      </trkpt>
      <trkpt lat="47.72451" lon="3.5029">
        <ele>225.2</ele>
        <time>2022-01-12T08:47:06Z</time>
      </trkpt>
      <trkpt lat="47.72451" lon="3.50291">
        <ele>225.3</ele>
        <time>2022-01-12T08:47:07Z</time>
      </trkpt>
      <trkpt lat="47.72452" lon="3.50291">
        <ele>225.3</ele>
        <time>2022-01-12T08:47:08Z</time>
      </trkpt>
      <trkpt lat="47.72453" lon="3.50292">
        <ele>225.3</ele>
        <time>2022-01-12T08:47:09Z</time>
      </trkpt>
      <trkpt lat="47.72454" lon="3.50293">
        <ele>225.3</ele>
        <time>2022-01-12T08:47:10Z</time>
      </trkpt>
      <trkpt lat="47.72454" lon="3.50294">
        <ele>225.4</ele>
        <time>2022-01-12T08:47:11Z</time>
      </trkpt>
      <trkpt lat="47.72455" lon="3.50295">
        <ele>225.4</ele>
        <time>2022-01-12T08:47:12Z</time>
      </trkpt>
      <trkpt lat="47.72456" lon="3.50297">
        <ele>225.5</ele>
        <time>2022-01-12T08:47:14Z</time>
      </trkpt>
      <trkpt lat="47.72457" lon="3.50297">
        <ele>225.5</ele>
        <time>2022-01-12T08:47:15Z</time>
      </trkpt>
      <trkpt lat="47.72458" lon="3.50297">
        <ele>225.6</ele>
        <time>2022-01-12T08:47:16Z</time>
      </trkpt>
      <trkpt lat="47.72458" lon="3.50297">
        <ele>225.6</ele>
        <time>2022-01-12T08:47:17Z</time>
      </trkpt>
      <trkpt lat="47.72458" lon="3.50298">
        <ele>225.6</ele>
        <time>2022-01-12T08:47:18Z</time>
      </trkpt>
      <trkpt lat="47.72458" lon="3.50299">
        <ele>225.7</ele>
        <time>2022-01-12T08:47:19Z</time>
      </trkpt>
      <trkpt lat="47.72458" lon="3.503">
        <ele>225.7</ele>
        <time>2022-01-12T08:47:20Z</time>
      </trkpt>
      <trkpt lat="47.72459" lon="3.50301">
        <ele>225.7</ele>
        <time>2022-01-12T08:47:21Z</time>
      </trkpt>
      <trkpt lat="47.72459" lon="3.50302">
        <ele>225.7</ele>
        <time>2022-01-12T08:47:22Z</time>
      </trkpt>
      <trkpt lat="47.7246" lon="3.50302">
        <ele>225.8</ele>
        <time>2022-01-12T08:47:23Z</time>
      </trkpt>
      <trkpt lat="47.7246" lon="3.50303">
        <ele>225.8</ele>
        <time>2022-01-12T08:47:24Z</time>
      </trkpt>
      <trkpt lat="47.72461" lon="3.50302">
        <ele>225.8</ele>
        <time>2022-01-12T08:47:25Z</time>
      </trkpt>
      <trkpt lat="47.72461" lon="3.50303">
        <ele>225.8</ele>
        <time>2022-01-12T08:47:27Z</time>
      </trkpt>
      <trkpt lat="47.72461" lon="3.50304">
        <ele>225.9</ele>
        <time>2022-01-12T08:47:28Z</time>
      </trkpt>
      <trkpt lat="47.72461" lon="3.50306">
        <ele>225.9</ele>
        <time>2022-01-12T08:47:29Z</time>
      </trkpt>
      <trkpt lat="47.72461" lon="3.50307">
        <ele>225.9</ele>
        <time>2022-01-12T08:47:30Z</time>
      </trkpt>
      <trkpt lat="47.72461" lon="3.50308">
        <ele>225.9</ele>
        <time>2022-01-12T08:47:31Z</time>
      </trkpt>
      <trkpt lat="47.72461" lon="3.5031">
        <ele>226</ele>
        <time>2022-01-12T08:47:33Z</time>
      </trkpt>
      <trkpt lat="47.72462" lon="3.5031">
        <ele>226</ele>
        <time>2022-01-12T08:47:34Z</time>
      </trkpt>
      <trkpt lat="47.72462" lon="3.5031">
        <ele>226</ele>
        <time>2022-01-12T08:47:35Z</time>
      </trkpt>
      <trkpt lat="47.72462" lon="3.5031">
        <ele>226</ele>
        <time>2022-01-12T08:47:36Z</time>
      </trkpt>
      <trkpt lat="47.72462" lon="3.50309">
        <ele>226</ele>
        <time>2022-01-12T08:47:38Z</time>
      </trkpt>
      <trkpt lat="47.72462" lon="3.50309">
        <ele>226</ele>
        <time>2022-01-12T08:47:39Z</time>
      </trkpt>
      <trkpt lat="47.72461" lon="3.50308">
        <ele>226</ele>
        <time>2022-01-12T08:47:40Z</time>
      </trkpt>
      <trkpt lat="47.72461" lon="3.50308">
        <ele>226</ele>
        <time>2022-01-12T08:47:41Z</time>
      </trkpt>
      <trkpt lat="47.72461" lon="3.50308">
        <ele>226</ele>
        <time>2022-01-12T08:47:42Z</time>
      </trkpt>
      <trkpt lat="47.72461" lon="3.50308">
        <ele>226</ele>
        <time>2022-01-12T08:47:43Z</time>
      </trkpt>
      <trkpt lat="47.72461" lon="3.50307">
        <ele>226</ele>
        <time>2022-01-12T08:47:44Z</time>
      </trkpt>
      <trkpt lat="47.72462" lon="3.50307">
        <ele>226</ele>
        <time>2022-01-12T08:47:45Z</time>
      </trkpt>
      <trkpt lat="47.72462" lon="3.50307">
        <ele>226</ele>
        <time>2022-01-12T08:47:47Z</time>
      </trkpt>
      <trkpt lat="47.72461" lon="3.50307">
        <ele>226</ele>
        <time>2022-01-12T08:47:48Z</time>
      </trkpt>
      <trkpt lat="47.72461" lon="3.50307">
        <ele>226</ele>
        <time>2022-01-12T08:47:49Z</time>
      </trkpt>
      <trkpt lat="47.72461" lon="3.50308">
        <ele>226.1</ele>
        <time>2022-01-12T08:47:50Z</time>
      </trkpt>
      <trkpt lat="47.72461" lon="3.50308">
        <ele>226.1</ele>
        <time>2022-01-12T08:47:51Z</time>
      </trkpt>
      <trkpt lat="47.72462" lon="3.50311">
        <ele>226.1</ele>
        <time>2022-01-12T08:47:52Z</time>
      </trkpt>
      <trkpt lat="47.72462" lon="3.50312">
        <ele>226.1</ele>
        <time>2022-01-12T08:47:53Z</time>
      </trkpt>
      <trkpt lat="47.72462" lon="3.50313">
        <ele>226.2</ele>
        <time>2022-01-12T08:47:54Z</time>
      </trkpt>
      <trkpt lat="47.72462" lon="3.50314">
        <ele>226.2</ele>
        <time>2022-01-12T08:47:55Z</time>
      </trkpt>
      <trkpt lat="47.72462" lon="3.50314">
        <ele>226.2</ele>
        <time>2022-01-12T08:47:56Z</time>
      </trkpt>
      <trkpt lat="47.72462" lon="3.50314">
        <ele>226.2</ele>
        <time>2022-01-12T08:47:57Z</time>
      </trkpt>
      <trkpt lat="47.72462" lon="3.50314">
        <ele>226.2</ele>
        <time>2022-01-12T08:47:58Z</time>
      </trkpt>
      <trkpt lat="47.72462" lon="3.50314">
        <ele>226.2</ele>
        <time>2022-01-12T08:47:59Z</time>
      </trkpt>
      <trkpt lat="47.72462" lon="3.50314">
        <ele>226.2</ele>
        <time>2022-01-12T08:48:00Z</time>
      </trkpt>
      <trkpt lat="47.72462" lon="3.50314">
        <ele>226.2</ele>
        <time>2022-01-12T08:48:01Z</time>
      </trkpt>
      <trkpt lat="47.72462" lon="3.50314">
        <ele>226.2</ele>
        <time>2022-01-12T08:48:02Z</time>
      </trkpt>
      <trkpt lat="47.72462" lon="3.50313">
        <ele>226.2</ele>
        <time>2022-01-12T08:48:03Z</time>
      </trkpt>
      <trkpt lat="47.72462" lon="3.50313">
        <ele>226.2</ele>
        <time>2022-01-12T08:48:04Z</time>
      </trkpt>
      <trkpt lat="47.72462" lon="3.50313">
        <ele>226.2</ele>
        <time>2022-01-12T08:48:05Z</time>
      </trkpt>
      <trkpt lat="47.72462" lon="3.50313">
        <ele>226.2</ele>
        <time>2022-01-12T08:48:06Z</time>
      </trkpt>
      <trkpt lat="47.72462" lon="3.50313">
        <ele>226.2</ele>
        <time>2022-01-12T08:48:07Z</time>
      </trkpt>
      <trkpt lat="47.72462" lon="3.50313">
        <ele>226.2</ele>
        <time>2022-01-12T08:48:08Z</time>
      </trkpt>
      <trkpt lat="47.72462" lon="3.50313">
        <ele>226.2</ele>
        <time>2022-01-12T08:48:09Z</time>
      </trkpt>
      <trkpt lat="47.72462" lon="3.50313">
        <ele>226.2</ele>
        <time>2022-01-12T08:48:10Z</time>
      </trkpt>
      <trkpt lat="47.72462" lon="3.50313">
        <ele>226.2</ele>
        <time>2022-01-12T08:48:11Z</time>
      </trkpt>
      <trkpt lat="47.72463" lon="3.50313">
        <ele>226.2</ele>
        <time>2022-01-12T08:48:12Z</time>
      </trkpt>
      <trkpt lat="47.72463" lon="3.50313">
        <ele>226.2</ele>
        <time>2022-01-12T08:48:13Z</time>
      </trkpt>
      <trkpt lat="47.72463" lon="3.50313">
        <ele>226.3</ele>
        <time>2022-01-12T08:48:14Z</time>
      </trkpt>
      <trkpt lat="47.72464" lon="3.50313">
        <ele>226.3</ele>
        <time>2022-01-12T08:48:15Z</time>
      </trkpt>
      <trkpt lat="47.72464" lon="3.50313">
        <ele>226.3</ele>
        <time>2022-01-12T08:48:16Z</time>
      </trkpt>
      <trkpt lat="47.72463" lon="3.50313">
        <ele>226.3</ele>
        <time>2022-01-12T08:48:17Z</time>
      </trkpt>
      <trkpt lat="47.72463" lon="3.50313">
        <ele>226.3</ele>
        <time>2022-01-12T08:48:18Z</time>
      </trkpt>
      <trkpt lat="47.72463" lon="3.50313">
        <ele>226.3</ele>
        <time>2022-01-12T08:48:19Z</time>
      </trkpt>
      <trkpt lat="47.72463" lon="3.50313">
        <ele>226.3</ele>
        <time>2022-01-12T08:48:20Z</time>
      </trkpt>
      <trkpt lat="47.72463" lon="3.50313">
        <ele>226.3</ele>
        <time>2022-01-12T08:48:21Z</time>
      </trkpt>
      <trkpt lat="47.72463" lon="3.50313">
        <ele>226.3</ele>
        <time>2022-01-12T08:48:22Z</time>
      </trkpt>
      <trkpt lat="47.72463" lon="3.50313">
        <ele>226.3</ele>
        <time>2022-01-12T08:48:23Z</time>
      </trkpt>
      <trkpt lat="47.72463" lon="3.50313">
        <ele>226.3</ele>
        <time>2022-01-12T08:48:24Z</time>
      </trkpt>
      <trkpt lat="47.72463" lon="3.50313">
        <ele>226.3</ele>
        <time>2022-01-12T08:48:25Z</time>
      </trkpt>
      <trkpt lat="47.72463" lon="3.50313">
        <ele>226.3</ele>
        <time>2022-01-12T08:48:26Z</time>
      </trkpt>
      <trkpt lat="47.72463" lon="3.50313">
        <ele>226.3</ele>
        <time>2022-01-12T08:48:27Z</time>
      </trkpt>
      <trkpt lat="47.72463" lon="3.50313">
        <ele>226.3</ele>
        <time>2022-01-12T08:48:28Z</time>
      </trkpt>
      <trkpt lat="47.72463" lon="3.50313">
        <ele>226.3</ele>
        <time>2022-01-12T08:48:29Z</time>
      </trkpt>
      <trkpt lat="47.72463" lon="3.50313">
        <ele>226.3</ele>
        <time>2022-01-12T08:48:30Z</time>
      </trkpt>
      <trkpt lat="47.72463" lon="3.50312">
        <ele>226.3</ele>
        <time>2022-01-12T08:48:31Z</time>
      </trkpt>
      <trkpt lat="47.72463" lon="3.50312">
        <ele>226.3</ele>
        <time>2022-01-12T08:48:32Z</time>
      </trkpt>
      <trkpt lat="47.72463" lon="3.50313">
        <ele>226.3</ele>
        <time>2022-01-12T08:48:33Z</time>
      </trkpt>
      <trkpt lat="47.72463" lon="3.50313">
        <ele>226.3</ele>
        <time>2022-01-12T08:48:34Z</time>
      </trkpt>
      <trkpt lat="47.72463" lon="3.50313">
        <ele>226.3</ele>
        <time>2022-01-12T08:48:35Z</time>
      </trkpt>
      <trkpt lat="47.72463" lon="3.50313">
        <ele>226.3</ele>
        <time>2022-01-12T08:48:36Z</time>
      </trkpt>
      <trkpt lat="47.72463" lon="3.50313">
        <ele>226.3</ele>
        <time>2022-01-12T08:48:37Z</time>
      </trkpt>
      <trkpt lat="47.72463" lon="3.50313">
        <ele>226.3</ele>
        <time>2022-01-12T08:48:38Z</time>
      </trkpt>
      <trkpt lat="47.72463" lon="3.50313">
        <ele>226.3</ele>
        <time>2022-01-12T08:48:39Z</time>
      </trkpt>
      <trkpt lat="47.72464" lon="3.50313">
        <ele>226.3</ele>
        <time>2022-01-12T08:48:40Z</time>
      </trkpt>
      <trkpt lat="47.72463" lon="3.50313">
        <ele>226.3</ele>
        <time>2022-01-12T08:48:41Z</time>
      </trkpt>
      <trkpt lat="47.72463" lon="3.50313">
        <ele>226.3</ele>
        <time>2022-01-12T08:48:42Z</time>
      </trkpt>
      <trkpt lat="47.72463" lon="3.50312">
        <ele>226.3</ele>
        <time>2022-01-12T08:48:43Z</time>
      </trkpt>
      <trkpt lat="47.72463" lon="3.50312">
        <ele>226.4</ele>
        <time>2022-01-12T08:48:44Z</time>
      </trkpt>
      <trkpt lat="47.72463" lon="3.50312">
        <ele>226.4</ele>
        <time>2022-01-12T08:48:45Z</time>
      </trkpt>
      <trkpt lat="47.72463" lon="3.50312">
        <ele>226.4</ele>
        <time>2022-01-12T08:48:46Z</time>
      </trkpt>
      <trkpt lat="47.72463" lon="3.50312">
        <ele>226.4</ele>
        <time>2022-01-12T08:48:47Z</time>
      </trkpt>
      <trkpt lat="47.72463" lon="3.50312">
        <ele>226.4</ele>
        <time>2022-01-12T08:48:48Z</time>
      </trkpt>
      <trkpt lat="47.72463" lon="3.50312">
        <ele>226.4</ele>
        <time>2022-01-12T08:48:49Z</time>
      </trkpt>
      <trkpt lat="47.72463" lon="3.50312">
        <ele>226.4</ele>
        <time>2022-01-12T08:48:50Z</time>
      </trkpt>
      <trkpt lat="47.72463" lon="3.50312">
        <ele>226.4</ele>
        <time>2022-01-12T08:48:51Z</time>
      </trkpt>
      <trkpt lat="47.72463" lon="3.50312">
        <ele>226.4</ele>
        <time>2022-01-12T08:48:52Z</time>
      </trkpt>
      <trkpt lat="47.72463" lon="3.50312">
        <ele>226.4</ele>
        <time>2022-01-12T08:48:53Z</time>
      </trkpt>
      <trkpt lat="47.72463" lon="3.50312">
        <ele>226.4</ele>
        <time>2022-01-12T08:48:54Z</time>
      </trkpt>
      <trkpt lat="47.72463" lon="3.50312">
        <ele>226.4</ele>
        <time>2022-01-12T08:48:55Z</time>
      </trkpt>
      <trkpt lat="47.72463" lon="3.50312">
        <ele>226.4</ele>
        <time>2022-01-12T08:48:56Z</time>
      </trkpt>
      <trkpt lat="47.72463" lon="3.50312">
        <ele>226.4</ele>
        <time>2022-01-12T08:48:57Z</time>
      </trkpt>
      <trkpt lat="47.72463" lon="3.50312">
        <ele>226.4</ele>
        <time>2022-01-12T08:48:58Z</time>
      </trkpt>
      <trkpt lat="47.72463" lon="3.50312">
        <ele>226.4</ele>
        <time>2022-01-12T08:48:59Z</time>
      </trkpt>
      <trkpt lat="47.72463" lon="3.50312">
        <ele>226.4</ele>
        <time>2022-01-12T08:49:00Z</time>
      </trkpt>
      <trkpt lat="47.72464" lon="3.50313">
        <ele>226.4</ele>
        <time>2022-01-12T08:49:01Z</time>
      </trkpt>
      <trkpt lat="47.72465" lon="3.50315">
        <ele>226.5</ele>
        <time>2022-01-12T08:49:02Z</time>
      </trkpt>
      <trkpt lat="47.72465" lon="3.50316">
        <ele>226.5</ele>
        <time>2022-01-12T08:49:03Z</time>
      </trkpt>
      <trkpt lat="47.72466" lon="3.50317">
        <ele>226.5</ele>
        <time>2022-01-12T08:49:04Z</time>
      </trkpt>
      <trkpt lat="47.72466" lon="3.50318">
        <ele>226.6</ele>
        <time>2022-01-12T08:49:05Z</time>
      </trkpt>
      <trkpt lat="47.72467" lon="3.5032">
        <ele>226.6</ele>
        <time>2022-01-12T08:49:07Z</time>
      </trkpt>
      <trkpt lat="47.72467" lon="3.50322">
        <ele>226.6</ele>
        <time>2022-01-12T08:49:08Z</time>
      </trkpt>
      <trkpt lat="47.72468" lon="3.50323">
        <ele>226.7</ele>
        <time>2022-01-12T08:49:09Z</time>
      </trkpt>
      <trkpt lat="47.72469" lon="3.50325">
        <ele>226.7</ele>
        <time>2022-01-12T08:49:10Z</time>
      </trkpt>
      <trkpt lat="47.7247" lon="3.50327">
        <ele>226.7</ele>
        <time>2022-01-12T08:49:12Z</time>
      </trkpt>
      <trkpt lat="47.72471" lon="3.50329">
        <ele>226.8</ele>
        <time>2022-01-12T08:49:13Z</time>
      </trkpt>
      <trkpt lat="47.72472" lon="3.5033">
        <ele>226.8</ele>
        <time>2022-01-12T08:49:14Z</time>
      </trkpt>
      <trkpt lat="47.72473" lon="3.50332">
        <ele>226.8</ele>
        <time>2022-01-12T08:49:15Z</time>
      </trkpt>
      <trkpt lat="47.72474" lon="3.50334">
        <ele>226.8</ele>
        <time>2022-01-12T08:49:16Z</time>
      </trkpt>
      <trkpt lat="47.72475" lon="3.50337">
        <ele>226.9</ele>
        <time>2022-01-12T08:49:17Z</time>
      </trkpt>
      <trkpt lat="47.72476" lon="3.50338">
        <ele>226.9</ele>
        <time>2022-01-12T08:49:19Z</time>
      </trkpt>
      <trkpt lat="47.72477" lon="3.5034">
        <ele>226.9</ele>
        <time>2022-01-12T08:49:20Z</time>
      </trkpt>
      <trkpt lat="47.72477" lon="3.50341">
        <ele>226.9</ele>
        <time>2022-01-12T08:49:21Z</time>
      </trkpt>
      <trkpt lat="47.72478" lon="3.50343">
        <ele>226.9</ele>
        <time>2022-01-12T08:49:22Z</time>
      </trkpt>
      <trkpt lat="47.72479" lon="3.50344">
        <ele>226.9</ele>
        <time>2022-01-12T08:49:23Z</time>
      </trkpt>
      <trkpt lat="47.72479" lon="3.50346">
        <ele>226.9</ele>
        <time>2022-01-12T08:49:25Z</time>
      </trkpt>
      <trkpt lat="47.7248" lon="3.50347">
        <ele>226.9</ele>
        <time>2022-01-12T08:49:26Z</time>
      </trkpt>
      <trkpt lat="47.72482" lon="3.50349">
        <ele>226.9</ele>
        <time>2022-01-12T08:49:27Z</time>
      </trkpt>
      <trkpt lat="47.72482" lon="3.5035">
        <ele>226.9</ele>
        <time>2022-01-12T08:49:28Z</time>
      </trkpt>
      <trkpt lat="47.72483" lon="3.50351">
        <ele>226.9</ele>
        <time>2022-01-12T08:49:29Z</time>
      </trkpt>
      <trkpt lat="47.72484" lon="3.50354">
        <ele>226.9</ele>
        <time>2022-01-12T08:49:30Z</time>
      </trkpt>
      <trkpt lat="47.72485" lon="3.50355">
        <ele>226.9</ele>
        <time>2022-01-12T08:49:32Z</time>
      </trkpt>
      <trkpt lat="47.72486" lon="3.50357">
        <ele>227</ele>
        <time>2022-01-12T08:49:33Z</time>
      </trkpt>
      <trkpt lat="47.72486" lon="3.50358">
        <ele>227</ele>
        <time>2022-01-12T08:49:34Z</time>
      </trkpt>
      <trkpt lat="47.72487" lon="3.50359">
        <ele>227</ele>
        <time>2022-01-12T08:49:35Z</time>
      </trkpt>
      <trkpt lat="47.72489" lon="3.50362">
        <ele>227</ele>
        <time>2022-01-12T08:49:36Z</time>
      </trkpt>
      <trkpt lat="47.72489" lon="3.50362">
        <ele>227.1</ele>
        <time>2022-01-12T08:49:37Z</time>
      </trkpt>
      <trkpt lat="47.7249" lon="3.50363">
        <ele>227.1</ele>
        <time>2022-01-12T08:49:38Z</time>
      </trkpt>
      <trkpt lat="47.72491" lon="3.50365">
        <ele>227.1</ele>
        <time>2022-01-12T08:49:40Z</time>
      </trkpt>
      <trkpt lat="47.72492" lon="3.50366">
        <ele>227.1</ele>
        <time>2022-01-12T08:49:41Z</time>
      </trkpt>
      <trkpt lat="47.72492" lon="3.50367">
        <ele>227.1</ele>
        <time>2022-01-12T08:49:42Z</time>
      </trkpt>
      <trkpt lat="47.72494" lon="3.50369">
        <ele>227.2</ele>
        <time>2022-01-12T08:49:43Z</time>
      </trkpt>
      <trkpt lat="47.72494" lon="3.5037">
        <ele>227.2</ele>
        <time>2022-01-12T08:49:44Z</time>
      </trkpt>
      <trkpt lat="47.72495" lon="3.50371">
        <ele>227.2</ele>
        <time>2022-01-12T08:49:45Z</time>
      </trkpt>
      <trkpt lat="47.72496" lon="3.50373">
        <ele>227.3</ele>
        <time>2022-01-12T08:49:47Z</time>
      </trkpt>
      <trkpt lat="47.72496" lon="3.50375">
        <ele>227.3</ele>
        <time>2022-01-12T08:49:48Z</time>
      </trkpt>
      <trkpt lat="47.72498" lon="3.50377">
        <ele>227.3</ele>
        <time>2022-01-12T08:49:49Z</time>
      </trkpt>
      <trkpt lat="47.72498" lon="3.50378">
        <ele>227.3</ele>
        <time>2022-01-12T08:49:50Z</time>
      </trkpt>
      <trkpt lat="47.72499" lon="3.50379">
        <ele>227.4</ele>
        <time>2022-01-12T08:49:51Z</time>
      </trkpt>
      <trkpt lat="47.72499" lon="3.50381">
        <ele>227.4</ele>
        <time>2022-01-12T08:49:52Z</time>
      </trkpt>
      <trkpt lat="47.725" lon="3.50382">
        <ele>227.4</ele>
        <time>2022-01-12T08:49:53Z</time>
      </trkpt>
      <trkpt lat="47.72501" lon="3.50384">
        <ele>227.4</ele>
        <time>2022-01-12T08:49:55Z</time>
      </trkpt>
      <trkpt lat="47.72502" lon="3.50386">
        <ele>227.5</ele>
        <time>2022-01-12T08:49:56Z</time>
      </trkpt>
      <trkpt lat="47.72503" lon="3.50387">
        <ele>227.5</ele>
        <time>2022-01-12T08:49:57Z</time>
      </trkpt>
      <trkpt lat="47.72503" lon="3.50389">
        <ele>227.5</ele>
        <time>2022-01-12T08:49:58Z</time>
      </trkpt>
      <trkpt lat="47.72504" lon="3.5039">
        <ele>227.5</ele>
        <time>2022-01-12T08:49:59Z</time>
      </trkpt>
      <trkpt lat="47.72505" lon="3.50392">
        <ele>227.6</ele>
        <time>2022-01-12T08:50:01Z</time>
      </trkpt>
      <trkpt lat="47.72506" lon="3.50395">
        <ele>227.6</ele>
        <time>2022-01-12T08:50:02Z</time>
      </trkpt>
      <trkpt lat="47.72506" lon="3.50396">
        <ele>227.6</ele>
        <time>2022-01-12T08:50:03Z</time>
      </trkpt>
      <trkpt lat="47.72507" lon="3.50397">
        <ele>227.7</ele>
        <time>2022-01-12T08:50:04Z</time>
      </trkpt>
      <trkpt lat="47.72508" lon="3.50399">
        <ele>227.7</ele>
        <time>2022-01-12T08:50:05Z</time>
      </trkpt>
      <trkpt lat="47.72508" lon="3.504">
        <ele>227.7</ele>
        <time>2022-01-12T08:50:06Z</time>
      </trkpt>
      <trkpt lat="47.72509" lon="3.50401">
        <ele>227.7</ele>
        <time>2022-01-12T08:50:07Z</time>
      </trkpt>
      <trkpt lat="47.72509" lon="3.50402">
        <ele>227.7</ele>
        <time>2022-01-12T08:50:08Z</time>
      </trkpt>
      <trkpt lat="47.7251" lon="3.50404">
        <ele>227.8</ele>
        <time>2022-01-12T08:50:09Z</time>
      </trkpt>
      <trkpt lat="47.72511" lon="3.50405">
        <ele>227.8</ele>
        <time>2022-01-12T08:50:10Z</time>
      </trkpt>
      <trkpt lat="47.72511" lon="3.50407">
        <ele>227.8</ele>
        <time>2022-01-12T08:50:11Z</time>
      </trkpt>
      <trkpt lat="47.72512" lon="3.50408">
        <ele>227.8</ele>
        <time>2022-01-12T08:50:12Z</time>
      </trkpt>
      <trkpt lat="47.72512" lon="3.5041">
        <ele>227.9</ele>
        <time>2022-01-12T08:50:13Z</time>
      </trkpt>
      <trkpt lat="47.72513" lon="3.50411">
        <ele>227.9</ele>
        <time>2022-01-12T08:50:14Z</time>
      </trkpt>
      <trkpt lat="47.72513" lon="3.50413">
        <ele>227.9</ele>
        <time>2022-01-12T08:50:15Z</time>
      </trkpt>
      <trkpt lat="47.72514" lon="3.50415">
        <ele>227.9</ele>
        <time>2022-01-12T08:50:16Z</time>
      </trkpt>
      <trkpt lat="47.72515" lon="3.50416">
        <ele>228</ele>
        <time>2022-01-12T08:50:17Z</time>
      </trkpt>
      <trkpt lat="47.72515" lon="3.50417">
        <ele>228</ele>
        <time>2022-01-12T08:50:18Z</time>
      </trkpt>
      <trkpt lat="47.72516" lon="3.50419">
        <ele>228</ele>
        <time>2022-01-12T08:50:19Z</time>
      </trkpt>
      <trkpt lat="47.72517" lon="3.5042">
        <ele>228.1</ele>
        <time>2022-01-12T08:50:20Z</time>
      </trkpt>
      <trkpt lat="47.72518" lon="3.50422">
        <ele>228.1</ele>
        <time>2022-01-12T08:50:22Z</time>
      </trkpt>
      <trkpt lat="47.72519" lon="3.50423">
        <ele>228.1</ele>
        <time>2022-01-12T08:50:23Z</time>
      </trkpt>
      <trkpt lat="47.7252" lon="3.50425">
        <ele>228.2</ele>
        <time>2022-01-12T08:50:24Z</time>
      </trkpt>
      <trkpt lat="47.72521" lon="3.50428">
        <ele>228.2</ele>
        <time>2022-01-12T08:50:25Z</time>
      </trkpt>
      <trkpt lat="47.72521" lon="3.50429">
        <ele>228.2</ele>
        <time>2022-01-12T08:50:26Z</time>
      </trkpt>
      <trkpt lat="47.72522" lon="3.5043">
        <ele>228.2</ele>
        <time>2022-01-12T08:50:27Z</time>
      </trkpt>
      <trkpt lat="47.72523" lon="3.50431">
        <ele>228.3</ele>
        <time>2022-01-12T08:50:29Z</time>
      </trkpt>
      <trkpt lat="47.72523" lon="3.50433">
        <ele>228.3</ele>
        <time>2022-01-12T08:50:30Z</time>
      </trkpt>
      <trkpt lat="47.72524" lon="3.50435">
        <ele>228.3</ele>
        <time>2022-01-12T08:50:31Z</time>
      </trkpt>
      <trkpt lat="47.72525" lon="3.50436">
        <ele>228.3</ele>
        <time>2022-01-12T08:50:32Z</time>
      </trkpt>
      <trkpt lat="47.72526" lon="3.50438">
        <ele>228.4</ele>
        <time>2022-01-12T08:50:33Z</time>
      </trkpt>
      <trkpt lat="47.72527" lon="3.5044">
        <ele>228.4</ele>
        <time>2022-01-12T08:50:34Z</time>
      </trkpt>
      <trkpt lat="47.72527" lon="3.50442">
        <ele>228.4</ele>
        <time>2022-01-12T08:50:36Z</time>
      </trkpt>
      <trkpt lat="47.72528" lon="3.50443">
        <ele>228.4</ele>
        <time>2022-01-12T08:50:37Z</time>
      </trkpt>
      <trkpt lat="47.72529" lon="3.50445">
        <ele>228.4</ele>
        <time>2022-01-12T08:50:38Z</time>
      </trkpt>
      <trkpt lat="47.7253" lon="3.50447">
        <ele>228.5</ele>
        <time>2022-01-12T08:50:39Z</time>
      </trkpt>
      <trkpt lat="47.7253" lon="3.50448">
        <ele>228.5</ele>
        <time>2022-01-12T08:50:40Z</time>
      </trkpt>
      <trkpt lat="47.72531" lon="3.5045">
        <ele>228.5</ele>
        <time>2022-01-12T08:50:41Z</time>
      </trkpt>
      <trkpt lat="47.72532" lon="3.50452">
        <ele>228.5</ele>
        <time>2022-01-12T08:50:43Z</time>
      </trkpt>
      <trkpt lat="47.72533" lon="3.50453">
        <ele>228.5</ele>
        <time>2022-01-12T08:50:44Z</time>
      </trkpt>
      <trkpt lat="47.72533" lon="3.50455">
        <ele>228.5</ele>
        <time>2022-01-12T08:50:45Z</time>
      </trkpt>
      <trkpt lat="47.72535" lon="3.50458">
        <ele>228.5</ele>
        <time>2022-01-12T08:50:46Z</time>
      </trkpt>
      <trkpt lat="47.72535" lon="3.50459">
        <ele>228.5</ele>
        <time>2022-01-12T08:50:47Z</time>
      </trkpt>
      <trkpt lat="47.72536" lon="3.5046">
        <ele>228.5</ele>
        <time>2022-01-12T08:50:48Z</time>
      </trkpt>
      <trkpt lat="47.72536" lon="3.50462">
        <ele>228.5</ele>
        <time>2022-01-12T08:50:50Z</time>
      </trkpt>
      <trkpt lat="47.72537" lon="3.50463">
        <ele>228.5</ele>
        <time>2022-01-12T08:50:51Z</time>
      </trkpt>
      <trkpt lat="47.72538" lon="3.50465">
        <ele>228.5</ele>
        <time>2022-01-12T08:50:52Z</time>
      </trkpt>
      <trkpt lat="47.72539" lon="3.50467">
        <ele>228.5</ele>
        <time>2022-01-12T08:50:53Z</time>
      </trkpt>
      <trkpt lat="47.72539" lon="3.50468">
        <ele>228.5</ele>
        <time>2022-01-12T08:50:54Z</time>
      </trkpt>
      <trkpt lat="47.7254" lon="3.50469">
        <ele>228.5</ele>
        <time>2022-01-12T08:50:55Z</time>
      </trkpt>
      <trkpt lat="47.72541" lon="3.5047">
        <ele>228.5</ele>
        <time>2022-01-12T08:50:56Z</time>
      </trkpt>
      <trkpt lat="47.72541" lon="3.50472">
        <ele>228.5</ele>
        <time>2022-01-12T08:50:57Z</time>
      </trkpt>
      <trkpt lat="47.72542" lon="3.50473">
        <ele>228.5</ele>
        <time>2022-01-12T08:50:58Z</time>
      </trkpt>
      <trkpt lat="47.72543" lon="3.50474">
        <ele>228.5</ele>
        <time>2022-01-12T08:50:59Z</time>
      </trkpt>
      <trkpt lat="47.72543" lon="3.50475">
        <ele>228.5</ele>
        <time>2022-01-12T08:51:00Z</time>
      </trkpt>
      <trkpt lat="47.72544" lon="3.50477">
        <ele>228.5</ele>
        <time>2022-01-12T08:51:01Z</time>
      </trkpt>
      <trkpt lat="47.72545" lon="3.50478">
        <ele>228.5</ele>
        <time>2022-01-12T08:51:02Z</time>
      </trkpt>
      <trkpt lat="47.72546" lon="3.50479">
        <ele>228.5</ele>
        <time>2022-01-12T08:51:04Z</time>
      </trkpt>
      <trkpt lat="47.72547" lon="3.50481">
        <ele>228.4</ele>
        <time>2022-01-12T08:51:05Z</time>
      </trkpt>
      <trkpt lat="47.72549" lon="3.50483">
        <ele>228.4</ele>
        <time>2022-01-12T08:51:06Z</time>
      </trkpt>
      <trkpt lat="47.72549" lon="3.50484">
        <ele>228.4</ele>
        <time>2022-01-12T08:51:07Z</time>
      </trkpt>
      <trkpt lat="47.7255" lon="3.50485">
        <ele>228.4</ele>
        <time>2022-01-12T08:51:08Z</time>
      </trkpt>
      <trkpt lat="47.7255" lon="3.50486">
        <ele>228.4</ele>
        <time>2022-01-12T08:51:09Z</time>
      </trkpt>
      <trkpt lat="47.72551" lon="3.50487">
        <ele>228.4</ele>
        <time>2022-01-12T08:51:11Z</time>
      </trkpt>
      <trkpt lat="47.72552" lon="3.50488">
        <ele>228.4</ele>
        <time>2022-01-12T08:51:12Z</time>
      </trkpt>
      <trkpt lat="47.72552" lon="3.5049">
        <ele>228.4</ele>
        <time>2022-01-12T08:51:13Z</time>
      </trkpt>
      <trkpt lat="47.72553" lon="3.50491">
        <ele>228.4</ele>
        <time>2022-01-12T08:51:14Z</time>
      </trkpt>
      <trkpt lat="47.72553" lon="3.50493">
        <ele>228.4</ele>
        <time>2022-01-12T08:51:15Z</time>
      </trkpt>
      <trkpt lat="47.72554" lon="3.50494">
        <ele>228.4</ele>
        <time>2022-01-12T08:51:16Z</time>
      </trkpt>
      <trkpt lat="47.72555" lon="3.50495">
        <ele>228.4</ele>
        <time>2022-01-12T08:51:17Z</time>
      </trkpt>
      <trkpt lat="47.72555" lon="3.50496">
        <ele>228.4</ele>
        <time>2022-01-12T08:51:19Z</time>
      </trkpt>
      <trkpt lat="47.72556" lon="3.50498">
        <ele>228.4</ele>
        <time>2022-01-12T08:51:20Z</time>
      </trkpt>
      <trkpt lat="47.72557" lon="3.50499">
        <ele>228.4</ele>
        <time>2022-01-12T08:51:21Z</time>
      </trkpt>
      <trkpt lat="47.72557" lon="3.505">
        <ele>228.4</ele>
        <time>2022-01-12T08:51:22Z</time>
      </trkpt>
      <trkpt lat="47.72558" lon="3.50501">
        <ele>228.4</ele>
        <time>2022-01-12T08:51:23Z</time>
      </trkpt>
      <trkpt lat="47.72559" lon="3.50503">
        <ele>228.4</ele>
        <time>2022-01-12T08:51:24Z</time>
      </trkpt>
      <trkpt lat="47.7256" lon="3.50504">
        <ele>228.4</ele>
        <time>2022-01-12T08:51:25Z</time>
      </trkpt>
      <trkpt lat="47.72561" lon="3.50504">
        <ele>228.4</ele>
        <time>2022-01-12T08:51:27Z</time>
      </trkpt>
      <trkpt lat="47.72562" lon="3.50506">
        <ele>228.4</ele>
        <time>2022-01-12T08:51:28Z</time>
      </trkpt>
      <trkpt lat="47.72563" lon="3.50507">
        <ele>228.4</ele>
        <time>2022-01-12T08:51:29Z</time>
      </trkpt>
      <trkpt lat="47.72563" lon="3.50508">
        <ele>228.4</ele>
        <time>2022-01-12T08:51:30Z</time>
      </trkpt>
      <trkpt lat="47.72564" lon="3.50509">
        <ele>228.4</ele>
        <time>2022-01-12T08:51:31Z</time>
      </trkpt>
      <trkpt lat="47.72565" lon="3.5051">
        <ele>228.4</ele>
        <time>2022-01-12T08:51:32Z</time>
      </trkpt>
      <trkpt lat="47.72566" lon="3.50512">
        <ele>228.4</ele>
        <time>2022-01-12T08:51:33Z</time>
      </trkpt>
      <trkpt lat="47.72567" lon="3.50513">
        <ele>228.4</ele>
        <time>2022-01-12T08:51:35Z</time>
      </trkpt>
      <trkpt lat="47.72568" lon="3.50514">
        <ele>228.4</ele>
        <time>2022-01-12T08:51:36Z</time>
      </trkpt>
      <trkpt lat="47.72569" lon="3.50516">
        <ele>228.4</ele>
        <time>2022-01-12T08:51:37Z</time>
      </trkpt>
      <trkpt lat="47.7257" lon="3.50517">
        <ele>228.4</ele>
        <time>2022-01-12T08:51:38Z</time>
      </trkpt>
      <trkpt lat="47.72571" lon="3.50519">
        <ele>228.4</ele>
        <time>2022-01-12T08:51:39Z</time>
      </trkpt>
      <trkpt lat="47.72572" lon="3.5052">
        <ele>228.4</ele>
        <time>2022-01-12T08:51:40Z</time>
      </trkpt>
      <trkpt lat="47.72573" lon="3.50522">
        <ele>228.4</ele>
        <time>2022-01-12T08:51:41Z</time>
      </trkpt>
      <trkpt lat="47.72574" lon="3.50523">
        <ele>228.4</ele>
        <time>2022-01-12T08:51:42Z</time>
      </trkpt>
      <trkpt lat="47.72575" lon="3.50525">
        <ele>228.4</ele>
        <time>2022-01-12T08:51:43Z</time>
      </trkpt>
      <trkpt lat="47.72576" lon="3.50527">
        <ele>228.4</ele>
        <time>2022-01-12T08:51:45Z</time>
      </trkpt>
      <trkpt lat="47.72577" lon="3.50528">
        <ele>228.4</ele>
        <time>2022-01-12T08:51:46Z</time>
      </trkpt>
      <trkpt lat="47.72578" lon="3.5053">
        <ele>228.4</ele>
        <time>2022-01-12T08:51:47Z</time>
      </trkpt>
      <trkpt lat="47.72579" lon="3.50531">
        <ele>228.4</ele>
        <time>2022-01-12T08:51:48Z</time>
      </trkpt>
      <trkpt lat="47.72581" lon="3.50534">
        <ele>228.4</ele>
        <time>2022-01-12T08:51:49Z</time>
      </trkpt>
      <trkpt lat="47.72581" lon="3.50535">
        <ele>228.4</ele>
        <time>2022-01-12T08:51:50Z</time>
      </trkpt>
      <trkpt lat="47.72582" lon="3.50536">
        <ele>228.4</ele>
        <time>2022-01-12T08:51:51Z</time>
      </trkpt>
      <trkpt lat="47.72583" lon="3.50537">
        <ele>228.4</ele>
        <time>2022-01-12T08:51:53Z</time>
      </trkpt>
      <trkpt lat="47.72584" lon="3.50539">
        <ele>228.4</ele>
        <time>2022-01-12T08:51:54Z</time>
      </trkpt>
      <trkpt lat="47.72585" lon="3.5054">
        <ele>228.4</ele>
        <time>2022-01-12T08:51:55Z</time>
      </trkpt>
      <trkpt lat="47.72587" lon="3.50543">
        <ele>228.4</ele>
        <time>2022-01-12T08:51:57Z</time>
      </trkpt>
      <trkpt lat="47.72588" lon="3.50544">
        <ele>228.4</ele>
        <time>2022-01-12T08:51:58Z</time>
      </trkpt>
      <trkpt lat="47.72588" lon="3.50545">
        <ele>228.4</ele>
        <time>2022-01-12T08:51:59Z</time>
      </trkpt>
      <trkpt lat="47.72589" lon="3.50547">
        <ele>228.4</ele>
        <time>2022-01-12T08:52:01Z</time>
      </trkpt>
      <trkpt lat="47.7259" lon="3.50548">
        <ele>228.4</ele>
        <time>2022-01-12T08:52:02Z</time>
      </trkpt>
      <trkpt lat="47.7259" lon="3.5055">
        <ele>228.4</ele>
        <time>2022-01-12T08:52:03Z</time>
      </trkpt>
      <trkpt lat="47.72591" lon="3.50551">
        <ele>228.4</ele>
        <time>2022-01-12T08:52:04Z</time>
      </trkpt>
      <trkpt lat="47.72592" lon="3.50552">
        <ele>228.4</ele>
        <time>2022-01-12T08:52:05Z</time>
      </trkpt>
      <trkpt lat="47.72593" lon="3.50553">
        <ele>228.4</ele>
        <time>2022-01-12T08:52:06Z</time>
      </trkpt>
      <trkpt lat="47.72593" lon="3.50555">
        <ele>228.4</ele>
        <time>2022-01-12T08:52:07Z</time>
      </trkpt>
      <trkpt lat="47.72594" lon="3.50556">
        <ele>228.4</ele>
        <time>2022-01-12T08:52:08Z</time>
      </trkpt>
      <trkpt lat="47.72595" lon="3.50558">
        <ele>228.4</ele>
        <time>2022-01-12T08:52:09Z</time>
      </trkpt>
      <trkpt lat="47.72595" lon="3.50559">
        <ele>228.4</ele>
        <time>2022-01-12T08:52:10Z</time>
      </trkpt>
      <trkpt lat="47.72597" lon="3.50562">
        <ele>228.4</ele>
        <time>2022-01-12T08:52:12Z</time>
      </trkpt>
      <trkpt lat="47.72597" lon="3.50563">
        <ele>228.4</ele>
        <time>2022-01-12T08:52:13Z</time>
      </trkpt>
      <trkpt lat="47.72598" lon="3.50564">
        <ele>228.4</ele>
        <time>2022-01-12T08:52:14Z</time>
      </trkpt>
      <trkpt lat="47.72598" lon="3.50565">
        <ele>228.4</ele>
        <time>2022-01-12T08:52:15Z</time>
      </trkpt>
      <trkpt lat="47.72599" lon="3.50567">
        <ele>228.4</ele>
        <time>2022-01-12T08:52:16Z</time>
      </trkpt>
      <trkpt lat="47.726" lon="3.50568">
        <ele>228.4</ele>
        <time>2022-01-12T08:52:17Z</time>
      </trkpt>
      <trkpt lat="47.72601" lon="3.5057">
        <ele>228.4</ele>
        <time>2022-01-12T08:52:19Z</time>
      </trkpt>
      <trkpt lat="47.72602" lon="3.50571">
        <ele>228.4</ele>
        <time>2022-01-12T08:52:20Z</time>
      </trkpt>
      <trkpt lat="47.72602" lon="3.50571">
        <ele>228.5</ele>
        <time>2022-01-12T08:52:21Z</time>
      </trkpt>
      <trkpt lat="47.72603" lon="3.50573">
        <ele>228.5</ele>
        <time>2022-01-12T08:52:22Z</time>
      </trkpt>
      <trkpt lat="47.72604" lon="3.50575">
        <ele>228.5</ele>
        <time>2022-01-12T08:52:23Z</time>
      </trkpt>
      <trkpt lat="47.72605" lon="3.50576">
        <ele>228.5</ele>
        <time>2022-01-12T08:52:24Z</time>
      </trkpt>
      <trkpt lat="47.72606" lon="3.50578">
        <ele>228.5</ele>
        <time>2022-01-12T08:52:25Z</time>
      </trkpt>
      <trkpt lat="47.72607" lon="3.50579">
        <ele>228.5</ele>
        <time>2022-01-12T08:52:27Z</time>
      </trkpt>
      <trkpt lat="47.72607" lon="3.50581">
        <ele>228.5</ele>
        <time>2022-01-12T08:52:28Z</time>
      </trkpt>
      <trkpt lat="47.72609" lon="3.50582">
        <ele>228.5</ele>
        <time>2022-01-12T08:52:29Z</time>
      </trkpt>
      <trkpt lat="47.7261" lon="3.50583">
        <ele>228.5</ele>
        <time>2022-01-12T08:52:30Z</time>
      </trkpt>
      <trkpt lat="47.72611" lon="3.50585">
        <ele>228.4</ele>
        <time>2022-01-12T08:52:31Z</time>
      </trkpt>
      <trkpt lat="47.72612" lon="3.50586">
        <ele>228.4</ele>
        <time>2022-01-12T08:52:32Z</time>
      </trkpt>
      <trkpt lat="47.72612" lon="3.50587">
        <ele>228.4</ele>
        <time>2022-01-12T08:52:33Z</time>
      </trkpt>
      <trkpt lat="47.72613" lon="3.50589">
        <ele>228.4</ele>
        <time>2022-01-12T08:52:35Z</time>
      </trkpt>
      <trkpt lat="47.72614" lon="3.50591">
        <ele>228.4</ele>
        <time>2022-01-12T08:52:36Z</time>
      </trkpt>
      <trkpt lat="47.72615" lon="3.50592">
        <ele>228.4</ele>
        <time>2022-01-12T08:52:37Z</time>
      </trkpt>
      <trkpt lat="47.72615" lon="3.50593">
        <ele>228.4</ele>
        <time>2022-01-12T08:52:38Z</time>
      </trkpt>
      <trkpt lat="47.72616" lon="3.50594">
        <ele>228.4</ele>
        <time>2022-01-12T08:52:39Z</time>
      </trkpt>
      <trkpt lat="47.72617" lon="3.50595">
        <ele>228.4</ele>
        <time>2022-01-12T08:52:40Z</time>
      </trkpt>
      <trkpt lat="47.72618" lon="3.50596">
        <ele>228.4</ele>
        <time>2022-01-12T08:52:41Z</time>
      </trkpt>
      <trkpt lat="47.72619" lon="3.50598">
        <ele>228.4</ele>
        <time>2022-01-12T08:52:43Z</time>
      </trkpt>
      <trkpt lat="47.7262" lon="3.50599">
        <ele>228.4</ele>
        <time>2022-01-12T08:52:44Z</time>
      </trkpt>
      <trkpt lat="47.72621" lon="3.50601">
        <ele>228.4</ele>
        <time>2022-01-12T08:52:45Z</time>
      </trkpt>
      <trkpt lat="47.72622" lon="3.50602">
        <ele>228.4</ele>
        <time>2022-01-12T08:52:46Z</time>
      </trkpt>
      <trkpt lat="47.72623" lon="3.50603">
        <ele>228.4</ele>
        <time>2022-01-12T08:52:47Z</time>
      </trkpt>
      <trkpt lat="47.72624" lon="3.50604">
        <ele>228.4</ele>
        <time>2022-01-12T08:52:49Z</time>
      </trkpt>
      <trkpt lat="47.72625" lon="3.50606">
        <ele>228.4</ele>
        <time>2022-01-12T08:52:50Z</time>
      </trkpt>
      <trkpt lat="47.72627" lon="3.50608">
        <ele>228.4</ele>
        <time>2022-01-12T08:52:51Z</time>
      </trkpt>
      <trkpt lat="47.72627" lon="3.50609">
        <ele>228.4</ele>
        <time>2022-01-12T08:52:53Z</time>
      </trkpt>
      <trkpt lat="47.72628" lon="3.5061">
        <ele>228.4</ele>
        <time>2022-01-12T08:52:54Z</time>
      </trkpt>
      <trkpt lat="47.72629" lon="3.50611">
        <ele>228.4</ele>
        <time>2022-01-12T08:52:55Z</time>
      </trkpt>
      <trkpt lat="47.7263" lon="3.50613">
        <ele>228.4</ele>
        <time>2022-01-12T08:52:56Z</time>
      </trkpt>
      <trkpt lat="47.72631" lon="3.50614">
        <ele>228.4</ele>
        <time>2022-01-12T08:52:57Z</time>
      </trkpt>
      <trkpt lat="47.72632" lon="3.50615">
        <ele>228.4</ele>
        <time>2022-01-12T08:52:58Z</time>
      </trkpt>
      <trkpt lat="47.72632" lon="3.50616">
        <ele>228.3</ele>
        <time>2022-01-12T08:53:00Z</time>
      </trkpt>
      <trkpt lat="47.72633" lon="3.50617">
        <ele>228.3</ele>
        <time>2022-01-12T08:53:01Z</time>
      </trkpt>
      <trkpt lat="47.72634" lon="3.50619">
        <ele>228.3</ele>
        <time>2022-01-12T08:53:02Z</time>
      </trkpt>
      <trkpt lat="47.72634" lon="3.5062">
        <ele>228.3</ele>
        <time>2022-01-12T08:53:03Z</time>
      </trkpt>
      <trkpt lat="47.72635" lon="3.50621">
        <ele>228.3</ele>
        <time>2022-01-12T08:53:04Z</time>
      </trkpt>
      <trkpt lat="47.72635" lon="3.50623">
        <ele>228.3</ele>
        <time>2022-01-12T08:53:05Z</time>
      </trkpt>
      <trkpt lat="47.72636" lon="3.50624">
        <ele>228.3</ele>
        <time>2022-01-12T08:53:07Z</time>
      </trkpt>
      <trkpt lat="47.72637" lon="3.50625">
        <ele>228.3</ele>
        <time>2022-01-12T08:53:08Z</time>
      </trkpt>
      <trkpt lat="47.72637" lon="3.50627">
        <ele>228.2</ele>
        <time>2022-01-12T08:53:09Z</time>
      </trkpt>
      <trkpt lat="47.72638" lon="3.50628">
        <ele>228.2</ele>
        <time>2022-01-12T08:53:10Z</time>
      </trkpt>
      <trkpt lat="47.72639" lon="3.50629">
        <ele>228.2</ele>
        <time>2022-01-12T08:53:11Z</time>
      </trkpt>
      <trkpt lat="47.7264" lon="3.50632">
        <ele>228.2</ele>
        <time>2022-01-12T08:53:12Z</time>
      </trkpt>
      <trkpt lat="47.72641" lon="3.50633">
        <ele>228.2</ele>
        <time>2022-01-12T08:53:13Z</time>
      </trkpt>
      <trkpt lat="47.72641" lon="3.50634">
        <ele>228.2</ele>
        <time>2022-01-12T08:53:15Z</time>
      </trkpt>
      <trkpt lat="47.72642" lon="3.50636">
        <ele>228.1</ele>
        <time>2022-01-12T08:53:16Z</time>
      </trkpt>
      <trkpt lat="47.72643" lon="3.50637">
        <ele>228.1</ele>
        <time>2022-01-12T08:53:17Z</time>
      </trkpt>
      <trkpt lat="47.72643" lon="3.50638">
        <ele>228.1</ele>
        <time>2022-01-12T08:53:18Z</time>
      </trkpt>
      <trkpt lat="47.72645" lon="3.5064">
        <ele>228.1</ele>
        <time>2022-01-12T08:53:19Z</time>
      </trkpt>
      <trkpt lat="47.72646" lon="3.50641">
        <ele>228.1</ele>
        <time>2022-01-12T08:53:20Z</time>
      </trkpt>
      <trkpt lat="47.72646" lon="3.50642">
        <ele>228.1</ele>
        <time>2022-01-12T08:53:22Z</time>
      </trkpt>
      <trkpt lat="47.72647" lon="3.50643">
        <ele>228.1</ele>
        <time>2022-01-12T08:53:23Z</time>
      </trkpt>
      <trkpt lat="47.72648" lon="3.50644">
        <ele>228.1</ele>
        <time>2022-01-12T08:53:24Z</time>
      </trkpt>
      <trkpt lat="47.72649" lon="3.50645">
        <ele>228.1</ele>
        <time>2022-01-12T08:53:25Z</time>
      </trkpt>
      <trkpt lat="47.7265" lon="3.50645">
        <ele>228.1</ele>
        <time>2022-01-12T08:53:26Z</time>
      </trkpt>
      <trkpt lat="47.7265" lon="3.50646">
        <ele>228.1</ele>
        <time>2022-01-12T08:53:27Z</time>
      </trkpt>
      <trkpt lat="47.72651" lon="3.50647">
        <ele>228.1</ele>
        <time>2022-01-12T08:53:28Z</time>
      </trkpt>
      <trkpt lat="47.72652" lon="3.50648">
        <ele>228.1</ele>
        <time>2022-01-12T08:53:29Z</time>
      </trkpt>
      <trkpt lat="47.72652" lon="3.50649">
        <ele>228.1</ele>
        <time>2022-01-12T08:53:30Z</time>
      </trkpt>
      <trkpt lat="47.72653" lon="3.50651">
        <ele>228.1</ele>
        <time>2022-01-12T08:53:31Z</time>
      </trkpt>
      <trkpt lat="47.72654" lon="3.50653">
        <ele>228.1</ele>
        <time>2022-01-12T08:53:32Z</time>
      </trkpt>
      <trkpt lat="47.72654" lon="3.50654">
        <ele>228.1</ele>
        <time>2022-01-12T08:53:34Z</time>
      </trkpt>
      <trkpt lat="47.72654" lon="3.50654">
        <ele>228.1</ele>
        <time>2022-01-12T08:53:35Z</time>
      </trkpt>
      <trkpt lat="47.72655" lon="3.50655">
        <ele>228.1</ele>
        <time>2022-01-12T08:53:36Z</time>
      </trkpt>
      <trkpt lat="47.72655" lon="3.50656">
        <ele>228.1</ele>
        <time>2022-01-12T08:53:37Z</time>
      </trkpt>
      <trkpt lat="47.72656" lon="3.50658">
        <ele>228.1</ele>
        <time>2022-01-12T08:53:38Z</time>
      </trkpt>
      <trkpt lat="47.72655" lon="3.50659">
        <ele>228.1</ele>
        <time>2022-01-12T08:53:39Z</time>
      </trkpt>
      <trkpt lat="47.72655" lon="3.5066">
        <ele>228.1</ele>
        <time>2022-01-12T08:53:40Z</time>
      </trkpt>
      <trkpt lat="47.72654" lon="3.50662">
        <ele>228.1</ele>
        <time>2022-01-12T08:53:42Z</time>
      </trkpt>
      <trkpt lat="47.72654" lon="3.50664">
        <ele>228.1</ele>
        <time>2022-01-12T08:53:43Z</time>
      </trkpt>
      <trkpt lat="47.72653" lon="3.50667">
        <ele>228.1</ele>
        <time>2022-01-12T08:53:44Z</time>
      </trkpt>
      <trkpt lat="47.72653" lon="3.50669">
        <ele>228.1</ele>
        <time>2022-01-12T08:53:46Z</time>
      </trkpt>
      <trkpt lat="47.72652" lon="3.5067">
        <ele>228.1</ele>
        <time>2022-01-12T08:53:47Z</time>
      </trkpt>
      <trkpt lat="47.72651" lon="3.50673">
        <ele>228.1</ele>
        <time>2022-01-12T08:53:48Z</time>
      </trkpt>
      <trkpt lat="47.72651" lon="3.50674">
        <ele>228.1</ele>
        <time>2022-01-12T08:53:49Z</time>
      </trkpt>
      <trkpt lat="47.7265" lon="3.50674">
        <ele>228.1</ele>
        <time>2022-01-12T08:53:50Z</time>
      </trkpt>
      <trkpt lat="47.72649" lon="3.50677">
        <ele>228.1</ele>
        <time>2022-01-12T08:53:51Z</time>
      </trkpt>
      <trkpt lat="47.72648" lon="3.50678">
        <ele>228.1</ele>
        <time>2022-01-12T08:53:53Z</time>
      </trkpt>
      <trkpt lat="47.72648" lon="3.50678">
        <ele>228.1</ele>
        <time>2022-01-12T08:53:54Z</time>
      </trkpt>
      <trkpt lat="47.72647" lon="3.5068">
        <ele>228.1</ele>
        <time>2022-01-12T08:53:55Z</time>
      </trkpt>
      <trkpt lat="47.72647" lon="3.50681">
        <ele>228.1</ele>
        <time>2022-01-12T08:53:56Z</time>
      </trkpt>
      <trkpt lat="47.72646" lon="3.50683">
        <ele>228.1</ele>
        <time>2022-01-12T08:53:57Z</time>
      </trkpt>
      <trkpt lat="47.72646" lon="3.50684">
        <ele>228.1</ele>
        <time>2022-01-12T08:53:58Z</time>
      </trkpt>
      <trkpt lat="47.72646" lon="3.50685">
        <ele>228.1</ele>
        <time>2022-01-12T08:53:59Z</time>
      </trkpt>
      <trkpt lat="47.72645" lon="3.50687">
        <ele>228.1</ele>
        <time>2022-01-12T08:54:00Z</time>
      </trkpt>
      <trkpt lat="47.72645" lon="3.50688">
        <ele>228.1</ele>
        <time>2022-01-12T08:54:01Z</time>
      </trkpt>
      <trkpt lat="47.72645" lon="3.5069">
        <ele>228.1</ele>
        <time>2022-01-12T08:54:02Z</time>
      </trkpt>
      <trkpt lat="47.72645" lon="3.50692">
        <ele>228.1</ele>
        <time>2022-01-12T08:54:04Z</time>
      </trkpt>
      <trkpt lat="47.72645" lon="3.50694">
        <ele>228.1</ele>
        <time>2022-01-12T08:54:05Z</time>
      </trkpt>
      <trkpt lat="47.72644" lon="3.50695">
        <ele>228.1</ele>
        <time>2022-01-12T08:54:06Z</time>
      </trkpt>
      <trkpt lat="47.72644" lon="3.50697">
        <ele>228.1</ele>
        <time>2022-01-12T08:54:07Z</time>
      </trkpt>
      <trkpt lat="47.72643" lon="3.50698">
        <ele>228.1</ele>
        <time>2022-01-12T08:54:08Z</time>
      </trkpt>
      <trkpt lat="47.72643" lon="3.50699">
        <ele>228.1</ele>
        <time>2022-01-12T08:54:09Z</time>
      </trkpt>
      <trkpt lat="47.72642" lon="3.507">
        <ele>228.1</ele>
        <time>2022-01-12T08:54:10Z</time>
      </trkpt>
      <trkpt lat="47.72642" lon="3.50702">
        <ele>228.1</ele>
        <time>2022-01-12T08:54:11Z</time>
      </trkpt>
      <trkpt lat="47.72641" lon="3.50703">
        <ele>228.1</ele>
        <time>2022-01-12T08:54:12Z</time>
      </trkpt>
      <trkpt lat="47.72641" lon="3.50704">
        <ele>228.1</ele>
        <time>2022-01-12T08:54:13Z</time>
      </trkpt>
      <trkpt lat="47.7264" lon="3.50707">
        <ele>228.1</ele>
        <time>2022-01-12T08:54:15Z</time>
      </trkpt>
      <trkpt lat="47.72639" lon="3.50708">
        <ele>228.1</ele>
        <time>2022-01-12T08:54:16Z</time>
      </trkpt>
      <trkpt lat="47.72639" lon="3.50709">
        <ele>228.1</ele>
        <time>2022-01-12T08:54:17Z</time>
      </trkpt>
      <trkpt lat="47.72638" lon="3.50712">
        <ele>228.1</ele>
        <time>2022-01-12T08:54:18Z</time>
      </trkpt>
      <trkpt lat="47.72637" lon="3.50713">
        <ele>228.1</ele>
        <time>2022-01-12T08:54:19Z</time>
      </trkpt>
      <trkpt lat="47.72637" lon="3.50714">
        <ele>228</ele>
        <time>2022-01-12T08:54:20Z</time>
      </trkpt>
      <trkpt lat="47.72636" lon="3.50717">
        <ele>228</ele>
        <time>2022-01-12T08:54:21Z</time>
      </trkpt>
      <trkpt lat="47.72635" lon="3.50718">
        <ele>228</ele>
        <time>2022-01-12T08:54:22Z</time>
      </trkpt>
      <trkpt lat="47.72635" lon="3.50719">
        <ele>228</ele>
        <time>2022-01-12T08:54:23Z</time>
      </trkpt>
      <trkpt lat="47.72634" lon="3.50721">
        <ele>228</ele>
        <time>2022-01-12T08:54:25Z</time>
      </trkpt>
      <trkpt lat="47.72634" lon="3.50723">
        <ele>228</ele>
        <time>2022-01-12T08:54:26Z</time>
      </trkpt>
      <trkpt lat="47.72633" lon="3.50726">
        <ele>228</ele>
        <time>2022-01-12T08:54:27Z</time>
      </trkpt>
      <trkpt lat="47.72633" lon="3.50727">
        <ele>228</ele>
        <time>2022-01-12T08:54:28Z</time>
      </trkpt>
      <trkpt lat="47.72632" lon="3.50728">
        <ele>228</ele>
        <time>2022-01-12T08:54:29Z</time>
      </trkpt>
      <trkpt lat="47.72632" lon="3.5073">
        <ele>228</ele>
        <time>2022-01-12T08:54:30Z</time>
      </trkpt>
      <trkpt lat="47.72631" lon="3.50731">
        <ele>228</ele>
        <time>2022-01-12T08:54:31Z</time>
      </trkpt>
      <trkpt lat="47.72631" lon="3.50733">
        <ele>228</ele>
        <time>2022-01-12T08:54:32Z</time>
      </trkpt>
      <trkpt lat="47.7263" lon="3.50734">
        <ele>228</ele>
        <time>2022-01-12T08:54:34Z</time>
      </trkpt>
      <trkpt lat="47.72629" lon="3.50737">
        <ele>228</ele>
        <time>2022-01-12T08:54:35Z</time>
      </trkpt>
      <trkpt lat="47.72628" lon="3.50738">
        <ele>228</ele>
        <time>2022-01-12T08:54:36Z</time>
      </trkpt>
      <trkpt lat="47.72628" lon="3.5074">
        <ele>228</ele>
        <time>2022-01-12T08:54:37Z</time>
      </trkpt>
      <trkpt lat="47.72627" lon="3.50742">
        <ele>228</ele>
        <time>2022-01-12T08:54:39Z</time>
      </trkpt>
      <trkpt lat="47.72626" lon="3.50743">
        <ele>228</ele>
        <time>2022-01-12T08:54:40Z</time>
      </trkpt>
      <trkpt lat="47.72626" lon="3.50745">
        <ele>228</ele>
        <time>2022-01-12T08:54:41Z</time>
      </trkpt>
      <trkpt lat="47.72625" lon="3.50746">
        <ele>228</ele>
        <time>2022-01-12T08:54:42Z</time>
      </trkpt>
      <trkpt lat="47.72625" lon="3.50748">
        <ele>228</ele>
        <time>2022-01-12T08:54:43Z</time>
      </trkpt>
      <trkpt lat="47.72624" lon="3.50749">
        <ele>228</ele>
        <time>2022-01-12T08:54:44Z</time>
      </trkpt>
      <trkpt lat="47.72624" lon="3.5075">
        <ele>228</ele>
        <time>2022-01-12T08:54:45Z</time>
      </trkpt>
      <trkpt lat="47.72623" lon="3.50752">
        <ele>228</ele>
        <time>2022-01-12T08:54:47Z</time>
      </trkpt>
      <trkpt lat="47.72623" lon="3.50753">
        <ele>228</ele>
        <time>2022-01-12T08:54:48Z</time>
      </trkpt>
      <trkpt lat="47.72622" lon="3.50755">
        <ele>228</ele>
        <time>2022-01-12T08:54:49Z</time>
      </trkpt>
      <trkpt lat="47.72622" lon="3.50757">
        <ele>228</ele>
        <time>2022-01-12T08:54:50Z</time>
      </trkpt>
      <trkpt lat="47.72622" lon="3.50758">
        <ele>228</ele>
        <time>2022-01-12T08:54:51Z</time>
      </trkpt>
      <trkpt lat="47.72621" lon="3.50759">
        <ele>228</ele>
        <time>2022-01-12T08:54:52Z</time>
      </trkpt>
      <trkpt lat="47.72621" lon="3.50761">
        <ele>228</ele>
        <time>2022-01-12T08:54:53Z</time>
      </trkpt>
      <trkpt lat="47.7262" lon="3.50762">
        <ele>228</ele>
        <time>2022-01-12T08:54:55Z</time>
      </trkpt>
      <trkpt lat="47.7262" lon="3.50764">
        <ele>228</ele>
        <time>2022-01-12T08:54:56Z</time>
      </trkpt>
      <trkpt lat="47.72619" lon="3.50766">
        <ele>228</ele>
        <time>2022-01-12T08:54:57Z</time>
      </trkpt>
      <trkpt lat="47.72619" lon="3.50767">
        <ele>228</ele>
        <time>2022-01-12T08:54:58Z</time>
      </trkpt>
      <trkpt lat="47.72618" lon="3.50769">
        <ele>228</ele>
        <time>2022-01-12T08:54:59Z</time>
      </trkpt>
      <trkpt lat="47.72617" lon="3.50772">
        <ele>228</ele>
        <time>2022-01-12T08:55:00Z</time>
      </trkpt>
      <trkpt lat="47.72617" lon="3.50773">
        <ele>228</ele>
        <time>2022-01-12T08:55:01Z</time>
      </trkpt>
      <trkpt lat="47.72616" lon="3.50774">
        <ele>228</ele>
        <time>2022-01-12T08:55:03Z</time>
      </trkpt>
      <trkpt lat="47.72616" lon="3.50776">
        <ele>228</ele>
        <time>2022-01-12T08:55:04Z</time>
      </trkpt>
      <trkpt lat="47.72615" lon="3.50777">
        <ele>228</ele>
        <time>2022-01-12T08:55:05Z</time>
      </trkpt>
      <trkpt lat="47.72615" lon="3.50778">
        <ele>228</ele>
        <time>2022-01-12T08:55:06Z</time>
      </trkpt>
      <trkpt lat="47.72614" lon="3.5078">
        <ele>227.9</ele>
        <time>2022-01-12T08:55:07Z</time>
      </trkpt>
      <trkpt lat="47.72613" lon="3.50781">
        <ele>227.9</ele>
        <time>2022-01-12T08:55:08Z</time>
      </trkpt>
      <trkpt lat="47.72612" lon="3.50783">
        <ele>227.9</ele>
        <time>2022-01-12T08:55:10Z</time>
      </trkpt>
      <trkpt lat="47.72611" lon="3.50786">
        <ele>227.9</ele>
        <time>2022-01-12T08:55:11Z</time>
      </trkpt>
      <trkpt lat="47.7261" lon="3.50786">
        <ele>227.9</ele>
        <time>2022-01-12T08:55:12Z</time>
      </trkpt>
      <trkpt lat="47.7261" lon="3.50787">
        <ele>227.9</ele>
        <time>2022-01-12T08:55:13Z</time>
      </trkpt>
      <trkpt lat="47.72609" lon="3.50789">
        <ele>227.9</ele>
        <time>2022-01-12T08:55:14Z</time>
      </trkpt>
      <trkpt lat="47.72609" lon="3.5079">
        <ele>227.9</ele>
        <time>2022-01-12T08:55:15Z</time>
      </trkpt>
      <trkpt lat="47.72608" lon="3.50791">
        <ele>227.9</ele>
        <time>2022-01-12T08:55:16Z</time>
      </trkpt>
      <trkpt lat="47.72608" lon="3.50793">
        <ele>228</ele>
        <time>2022-01-12T08:55:17Z</time>
      </trkpt>
      <trkpt lat="47.72608" lon="3.50795">
        <ele>228</ele>
        <time>2022-01-12T08:55:18Z</time>
      </trkpt>
      <trkpt lat="47.72607" lon="3.50796">
        <ele>228</ele>
        <time>2022-01-12T08:55:20Z</time>
      </trkpt>
      <trkpt lat="47.72607" lon="3.50798">
        <ele>228</ele>
        <time>2022-01-12T08:55:21Z</time>
      </trkpt>
      <trkpt lat="47.72606" lon="3.50799">
        <ele>228</ele>
        <time>2022-01-12T08:55:22Z</time>
      </trkpt>
      <trkpt lat="47.72605" lon="3.508">
        <ele>228</ele>
        <time>2022-01-12T08:55:23Z</time>
      </trkpt>
      <trkpt lat="47.72605" lon="3.50801">
        <ele>228</ele>
        <time>2022-01-12T08:55:24Z</time>
      </trkpt>
      <trkpt lat="47.72604" lon="3.50803">
        <ele>228</ele>
        <time>2022-01-12T08:55:25Z</time>
      </trkpt>
      <trkpt lat="47.72603" lon="3.50804">
        <ele>228.1</ele>
        <time>2022-01-12T08:55:26Z</time>
      </trkpt>
      <trkpt lat="47.72602" lon="3.50807">
        <ele>228.1</ele>
        <time>2022-01-12T08:55:27Z</time>
      </trkpt>
      <trkpt lat="47.72602" lon="3.50809">
        <ele>228.1</ele>
        <time>2022-01-12T08:55:29Z</time>
      </trkpt>
      <trkpt lat="47.72601" lon="3.5081">
        <ele>228.1</ele>
        <time>2022-01-12T08:55:30Z</time>
      </trkpt>
      <trkpt lat="47.72601" lon="3.50812">
        <ele>228.1</ele>
        <time>2022-01-12T08:55:31Z</time>
      </trkpt>
      <trkpt lat="47.726" lon="3.50813">
        <ele>228.1</ele>
        <time>2022-01-12T08:55:33Z</time>
      </trkpt>
      <trkpt lat="47.726" lon="3.50815">
        <ele>228.2</ele>
        <time>2022-01-12T08:55:34Z</time>
      </trkpt>
      <trkpt lat="47.72599" lon="3.50816">
        <ele>228.2</ele>
        <time>2022-01-12T08:55:35Z</time>
      </trkpt>
      <trkpt lat="47.72599" lon="3.50818">
        <ele>228.2</ele>
        <time>2022-01-12T08:55:36Z</time>
      </trkpt>
      <trkpt lat="47.72599" lon="3.50819">
        <ele>228.2</ele>
        <time>2022-01-12T08:55:37Z</time>
      </trkpt>
      <trkpt lat="47.72598" lon="3.50821">
        <ele>228.2</ele>
        <time>2022-01-12T08:55:38Z</time>
      </trkpt>
      <trkpt lat="47.72598" lon="3.50822">
        <ele>228.2</ele>
        <time>2022-01-12T08:55:39Z</time>
      </trkpt>
      <trkpt lat="47.72598" lon="3.50825">
        <ele>228.2</ele>
        <time>2022-01-12T08:55:40Z</time>
      </trkpt>
      <trkpt lat="47.72597" lon="3.50826">
        <ele>228.2</ele>
        <time>2022-01-12T08:55:41Z</time>
      </trkpt>
      <trkpt lat="47.72597" lon="3.50827">
        <ele>228.2</ele>
        <time>2022-01-12T08:55:43Z</time>
      </trkpt>
      <trkpt lat="47.72596" lon="3.50829">
        <ele>228.2</ele>
        <time>2022-01-12T08:55:44Z</time>
      </trkpt>
      <trkpt lat="47.72596" lon="3.5083">
        <ele>228.2</ele>
        <time>2022-01-12T08:55:45Z</time>
      </trkpt>
      <trkpt lat="47.72595" lon="3.50832">
        <ele>228.3</ele>
        <time>2022-01-12T08:55:46Z</time>
      </trkpt>
      <trkpt lat="47.72595" lon="3.50833">
        <ele>228.3</ele>
        <time>2022-01-12T08:55:47Z</time>
      </trkpt>
      <trkpt lat="47.72594" lon="3.50835">
        <ele>228.3</ele>
        <time>2022-01-12T08:55:48Z</time>
      </trkpt>
      <trkpt lat="47.72594" lon="3.50837">
        <ele>228.3</ele>
        <time>2022-01-12T08:55:50Z</time>
      </trkpt>
      <trkpt lat="47.72593" lon="3.5084">
        <ele>228.3</ele>
        <time>2022-01-12T08:55:51Z</time>
      </trkpt>
      <trkpt lat="47.72593" lon="3.50841">
        <ele>228.3</ele>
        <time>2022-01-12T08:55:52Z</time>
      </trkpt>
      <trkpt lat="47.72593" lon="3.50842">
        <ele>228.3</ele>
        <time>2022-01-12T08:55:53Z</time>
      </trkpt>
      <trkpt lat="47.72592" lon="3.50844">
        <ele>228.3</ele>
        <time>2022-01-12T08:55:54Z</time>
      </trkpt>
      <trkpt lat="47.72592" lon="3.50845">
        <ele>228.3</ele>
        <time>2022-01-12T08:55:55Z</time>
      </trkpt>
      <trkpt lat="47.72591" lon="3.50847">
        <ele>228.3</ele>
        <time>2022-01-12T08:55:56Z</time>
      </trkpt>
      <trkpt lat="47.72591" lon="3.50848">
        <ele>228.3</ele>
        <time>2022-01-12T08:55:57Z</time>
      </trkpt>
      <trkpt lat="47.72591" lon="3.5085">
        <ele>228.3</ele>
        <time>2022-01-12T08:55:58Z</time>
      </trkpt>
      <trkpt lat="47.7259" lon="3.50851">
        <ele>228.3</ele>
        <time>2022-01-12T08:55:59Z</time>
      </trkpt>
      <trkpt lat="47.7259" lon="3.50853">
        <ele>228.3</ele>
        <time>2022-01-12T08:56:00Z</time>
      </trkpt>
      <trkpt lat="47.7259" lon="3.50855">
        <ele>228.3</ele>
        <time>2022-01-12T08:56:01Z</time>
      </trkpt>
      <trkpt lat="47.72589" lon="3.50856">
        <ele>228.4</ele>
        <time>2022-01-12T08:56:02Z</time>
      </trkpt>
      <trkpt lat="47.72589" lon="3.50858">
        <ele>228.4</ele>
        <time>2022-01-12T08:56:04Z</time>
      </trkpt>
      <trkpt lat="47.72588" lon="3.5086">
        <ele>228.4</ele>
        <time>2022-01-12T08:56:05Z</time>
      </trkpt>
      <trkpt lat="47.72587" lon="3.50863">
        <ele>228.4</ele>
        <time>2022-01-12T08:56:06Z</time>
      </trkpt>
      <trkpt lat="47.72587" lon="3.50864">
        <ele>228.4</ele>
        <time>2022-01-12T08:56:07Z</time>
      </trkpt>
      <trkpt lat="47.72587" lon="3.50865">
        <ele>228.4</ele>
        <time>2022-01-12T08:56:08Z</time>
      </trkpt>
      <trkpt lat="47.72586" lon="3.50868">
        <ele>228.4</ele>
        <time>2022-01-12T08:56:09Z</time>
      </trkpt>
      <trkpt lat="47.72586" lon="3.50869">
        <ele>228.4</ele>
        <time>2022-01-12T08:56:11Z</time>
      </trkpt>
      <trkpt lat="47.72585" lon="3.5087">
        <ele>228.4</ele>
        <time>2022-01-12T08:56:12Z</time>
      </trkpt>
      <trkpt lat="47.72584" lon="3.50872">
        <ele>228.5</ele>
        <time>2022-01-12T08:56:13Z</time>
      </trkpt>
      <trkpt lat="47.72583" lon="3.50871">
        <ele>228.5</ele>
        <time>2022-01-12T08:56:14Z</time>
      </trkpt>
      <trkpt lat="47.72583" lon="3.5087">
        <ele>228.5</ele>
        <time>2022-01-12T08:56:15Z</time>
      </trkpt>
      <trkpt lat="47.72582" lon="3.50869">
        <ele>228.5</ele>
        <time>2022-01-12T08:56:16Z</time>
      </trkpt>
      <trkpt lat="47.72582" lon="3.50868">
        <ele>228.5</ele>
        <time>2022-01-12T08:56:17Z</time>
      </trkpt>
      <trkpt lat="47.7258" lon="3.50867">
        <ele>228.5</ele>
        <time>2022-01-12T08:56:19Z</time>
      </trkpt>
      <trkpt lat="47.72579" lon="3.50868">
        <ele>228.5</ele>
        <time>2022-01-12T08:56:20Z</time>
      </trkpt>
      <trkpt lat="47.72579" lon="3.5087">
        <ele>228.5</ele>
        <time>2022-01-12T08:56:21Z</time>
      </trkpt>
      <trkpt lat="47.72579" lon="3.50876">
        <ele>228.5</ele>
        <time>2022-01-12T08:56:22Z</time>
      </trkpt>
      <trkpt lat="47.72579" lon="3.50879">
        <ele>228.6</ele>
        <time>2022-01-12T08:56:23Z</time>
      </trkpt>
      <trkpt lat="47.72579" lon="3.50882">
        <ele>228.6</ele>
        <time>2022-01-12T08:56:24Z</time>
      </trkpt>
      <trkpt lat="47.72579" lon="3.50885">
        <ele>228.6</ele>
        <time>2022-01-12T08:56:26Z</time>
      </trkpt>
      <trkpt lat="47.72578" lon="3.50889">
        <ele>228.7</ele>
        <time>2022-01-12T08:56:27Z</time>
      </trkpt>
      <trkpt lat="47.72578" lon="3.5089">
        <ele>228.7</ele>
        <time>2022-01-12T08:56:28Z</time>
      </trkpt>
      <trkpt lat="47.72578" lon="3.50893">
        <ele>228.7</ele>
        <time>2022-01-12T08:56:29Z</time>
      </trkpt>
      <trkpt lat="47.72577" lon="3.50895">
        <ele>228.8</ele>
        <time>2022-01-12T08:56:30Z</time>
      </trkpt>
      <trkpt lat="47.72577" lon="3.50897">
        <ele>228.8</ele>
        <time>2022-01-12T08:56:31Z</time>
      </trkpt>
      <trkpt lat="47.72576" lon="3.50898">
        <ele>228.8</ele>
        <time>2022-01-12T08:56:32Z</time>
      </trkpt>
      <trkpt lat="47.72574" lon="3.509">
        <ele>228.9</ele>
        <time>2022-01-12T08:56:34Z</time>
      </trkpt>
      <trkpt lat="47.72574" lon="3.50902">
        <ele>228.9</ele>
        <time>2022-01-12T08:56:35Z</time>
      </trkpt>
      <trkpt lat="47.72573" lon="3.50903">
        <ele>228.9</ele>
        <time>2022-01-12T08:56:36Z</time>
      </trkpt>
      <trkpt lat="47.72573" lon="3.50905">
        <ele>229</ele>
        <time>2022-01-12T08:56:37Z</time>
      </trkpt>
      <trkpt lat="47.72574" lon="3.50907">
        <ele>229</ele>
        <time>2022-01-12T08:56:38Z</time>
      </trkpt>
      <trkpt lat="47.72574" lon="3.50909">
        <ele>229</ele>
        <time>2022-01-12T08:56:39Z</time>
      </trkpt>
      <trkpt lat="47.72573" lon="3.50911">
        <ele>229.1</ele>
        <time>2022-01-12T08:56:40Z</time>
      </trkpt>
      <trkpt lat="47.72573" lon="3.50914">
        <ele>229.1</ele>
        <time>2022-01-12T08:56:41Z</time>
      </trkpt>
      <trkpt lat="47.72572" lon="3.50915">
        <ele>229.1</ele>
        <time>2022-01-12T08:56:43Z</time>
      </trkpt>
      <trkpt lat="47.72572" lon="3.50917">
        <ele>229.2</ele>
        <time>2022-01-12T08:56:44Z</time>
      </trkpt>
      <trkpt lat="47.72571" lon="3.5092">
        <ele>229.2</ele>
        <time>2022-01-12T08:56:45Z</time>
      </trkpt>
      <trkpt lat="47.72571" lon="3.50921">
        <ele>229.2</ele>
        <time>2022-01-12T08:56:46Z</time>
      </trkpt>
      <trkpt lat="47.7257" lon="3.50922">
        <ele>229.2</ele>
        <time>2022-01-12T08:56:47Z</time>
      </trkpt>
      <trkpt lat="47.7257" lon="3.50924">
        <ele>229.3</ele>
        <time>2022-01-12T08:56:48Z</time>
      </trkpt>
      <trkpt lat="47.72569" lon="3.50925">
        <ele>229.3</ele>
        <time>2022-01-12T08:56:49Z</time>
      </trkpt>
      <trkpt lat="47.72568" lon="3.50928">
        <ele>229.3</ele>
        <time>2022-01-12T08:56:50Z</time>
      </trkpt>
      <trkpt lat="47.72567" lon="3.50928">
        <ele>229.4</ele>
        <time>2022-01-12T08:56:51Z</time>
      </trkpt>
      <trkpt lat="47.72566" lon="3.50929">
        <ele>229.4</ele>
        <time>2022-01-12T08:56:52Z</time>
      </trkpt>
      <trkpt lat="47.72566" lon="3.50931">
        <ele>229.4</ele>
        <time>2022-01-12T08:56:54Z</time>
      </trkpt>
      <trkpt lat="47.72565" lon="3.50933">
        <ele>229.4</ele>
        <time>2022-01-12T08:56:55Z</time>
      </trkpt>
      <trkpt lat="47.72564" lon="3.50934">
        <ele>229.5</ele>
        <time>2022-01-12T08:56:56Z</time>
      </trkpt>
      <trkpt lat="47.72564" lon="3.50936">
        <ele>229.5</ele>
        <time>2022-01-12T08:56:57Z</time>
      </trkpt>
      <trkpt lat="47.72563" lon="3.50937">
        <ele>229.5</ele>
        <time>2022-01-12T08:56:58Z</time>
      </trkpt>
      <trkpt lat="47.72562" lon="3.5094">
        <ele>229.5</ele>
        <time>2022-01-12T08:57:00Z</time>
      </trkpt>
      <trkpt lat="47.72562" lon="3.50941">
        <ele>229.6</ele>
        <time>2022-01-12T08:57:01Z</time>
      </trkpt>
      <trkpt lat="47.72562" lon="3.50943">
        <ele>229.6</ele>
        <time>2022-01-12T08:57:02Z</time>
      </trkpt>
      <trkpt lat="47.72561" lon="3.50944">
        <ele>229.6</ele>
        <time>2022-01-12T08:57:03Z</time>
      </trkpt>
      <trkpt lat="47.7256" lon="3.50946">
        <ele>229.6</ele>
        <time>2022-01-12T08:57:05Z</time>
      </trkpt>
      <trkpt lat="47.7256" lon="3.50948">
        <ele>229.7</ele>
        <time>2022-01-12T08:57:06Z</time>
      </trkpt>
      <trkpt lat="47.72559" lon="3.50949">
        <ele>229.7</ele>
        <time>2022-01-12T08:57:07Z</time>
      </trkpt>
      <trkpt lat="47.72559" lon="3.50951">
        <ele>229.7</ele>
        <time>2022-01-12T08:57:08Z</time>
      </trkpt>
      <trkpt lat="47.72559" lon="3.50952">
        <ele>229.7</ele>
        <time>2022-01-12T08:57:10Z</time>
      </trkpt>
      <trkpt lat="47.72558" lon="3.50954">
        <ele>229.7</ele>
        <time>2022-01-12T08:57:11Z</time>
      </trkpt>
      <trkpt lat="47.72558" lon="3.50955">
        <ele>229.7</ele>
        <time>2022-01-12T08:57:12Z</time>
      </trkpt>
      <trkpt lat="47.72557" lon="3.50958">
        <ele>229.8</ele>
        <time>2022-01-12T08:57:13Z</time>
      </trkpt>
      <trkpt lat="47.72557" lon="3.50959">
        <ele>229.8</ele>
        <time>2022-01-12T08:57:15Z</time>
      </trkpt>
      <trkpt lat="47.72557" lon="3.50961">
        <ele>229.8</ele>
        <time>2022-01-12T08:57:16Z</time>
      </trkpt>
      <trkpt lat="47.72556" lon="3.50964">
        <ele>229.8</ele>
        <time>2022-01-12T08:57:17Z</time>
      </trkpt>
      <trkpt lat="47.72556" lon="3.50965">
        <ele>229.9</ele>
        <time>2022-01-12T08:57:18Z</time>
      </trkpt>
      <trkpt lat="47.72556" lon="3.50967">
        <ele>229.9</ele>
        <time>2022-01-12T08:57:19Z</time>
      </trkpt>
      <trkpt lat="47.72556" lon="3.50968">
        <ele>229.9</ele>
        <time>2022-01-12T08:57:20Z</time>
      </trkpt>
      <trkpt lat="47.72555" lon="3.5097">
        <ele>229.9</ele>
        <time>2022-01-12T08:57:22Z</time>
      </trkpt>
      <trkpt lat="47.72555" lon="3.50972">
        <ele>229.9</ele>
        <time>2022-01-12T08:57:23Z</time>
      </trkpt>
      <trkpt lat="47.72554" lon="3.50974">
        <ele>230</ele>
        <time>2022-01-12T08:57:24Z</time>
      </trkpt>
      <trkpt lat="47.72554" lon="3.50975">
        <ele>230</ele>
        <time>2022-01-12T08:57:25Z</time>
      </trkpt>
      <trkpt lat="47.72553" lon="3.50976">
        <ele>230</ele>
        <time>2022-01-12T08:57:26Z</time>
      </trkpt>
      <trkpt lat="47.72553" lon="3.50977">
        <ele>230</ele>
        <time>2022-01-12T08:57:27Z</time>
      </trkpt>
      <trkpt lat="47.72553" lon="3.50979">
        <ele>230</ele>
        <time>2022-01-12T08:57:28Z</time>
      </trkpt>
      <trkpt lat="47.72553" lon="3.50981">
        <ele>230</ele>
        <time>2022-01-12T08:57:30Z</time>
      </trkpt>
      <trkpt lat="47.72552" lon="3.50983">
        <ele>230.1</ele>
        <time>2022-01-12T08:57:31Z</time>
      </trkpt>
      <trkpt lat="47.72552" lon="3.50985">
        <ele>230.1</ele>
        <time>2022-01-12T08:57:32Z</time>
      </trkpt>
      <trkpt lat="47.72552" lon="3.50988">
        <ele>230.1</ele>
        <time>2022-01-12T08:57:33Z</time>
      </trkpt>
      <trkpt lat="47.72552" lon="3.50989">
        <ele>230.2</ele>
        <time>2022-01-12T08:57:34Z</time>
      </trkpt>
      <trkpt lat="47.72552" lon="3.50991">
        <ele>230.2</ele>
        <time>2022-01-12T08:57:35Z</time>
      </trkpt>
      <trkpt lat="47.72552" lon="3.50993">
        <ele>230.2</ele>
        <time>2022-01-12T08:57:37Z</time>
      </trkpt>
      <trkpt lat="47.72551" lon="3.50995">
        <ele>230.3</ele>
        <time>2022-01-12T08:57:38Z</time>
      </trkpt>
      <trkpt lat="47.72551" lon="3.50997">
        <ele>230.3</ele>
        <time>2022-01-12T08:57:39Z</time>
      </trkpt>
      <trkpt lat="47.7255" lon="3.50999">
        <ele>230.3</ele>
        <time>2022-01-12T08:57:40Z</time>
      </trkpt>
      <trkpt lat="47.7255" lon="3.51">
        <ele>230.4</ele>
        <time>2022-01-12T08:57:41Z</time>
      </trkpt>
      <trkpt lat="47.72549" lon="3.51002">
        <ele>230.4</ele>
        <time>2022-01-12T08:57:42Z</time>
      </trkpt>
      <trkpt lat="47.72549" lon="3.51003">
        <ele>230.4</ele>
        <time>2022-01-12T08:57:43Z</time>
      </trkpt>
      <trkpt lat="47.72549" lon="3.51006">
        <ele>230.4</ele>
        <time>2022-01-12T08:57:45Z</time>
      </trkpt>
      <trkpt lat="47.72549" lon="3.51007">
        <ele>230.5</ele>
        <time>2022-01-12T08:57:46Z</time>
      </trkpt>
      <trkpt lat="47.72549" lon="3.51009">
        <ele>230.5</ele>
        <time>2022-01-12T08:57:47Z</time>
      </trkpt>
      <trkpt lat="47.72548" lon="3.51011">
        <ele>230.5</ele>
        <time>2022-01-12T08:57:48Z</time>
      </trkpt>
      <trkpt lat="47.72547" lon="3.51012">
        <ele>230.6</ele>
        <time>2022-01-12T08:57:49Z</time>
      </trkpt>
      <trkpt lat="47.72547" lon="3.51014">
        <ele>230.6</ele>
        <time>2022-01-12T08:57:50Z</time>
      </trkpt>
      <trkpt lat="47.72547" lon="3.51015">
        <ele>230.6</ele>
        <time>2022-01-12T08:57:51Z</time>
      </trkpt>
      <trkpt lat="47.72547" lon="3.51017">
        <ele>230.6</ele>
        <time>2022-01-12T08:57:52Z</time>
      </trkpt>
      <trkpt lat="47.72546" lon="3.51019">
        <ele>230.7</ele>
        <time>2022-01-12T08:57:54Z</time>
      </trkpt>
      <trkpt lat="47.72546" lon="3.51022">
        <ele>230.7</ele>
        <time>2022-01-12T08:57:55Z</time>
      </trkpt>
      <trkpt lat="47.72545" lon="3.51024">
        <ele>230.7</ele>
        <time>2022-01-12T08:57:56Z</time>
      </trkpt>
      <trkpt lat="47.72545" lon="3.51026">
        <ele>230.8</ele>
        <time>2022-01-12T08:57:57Z</time>
      </trkpt>
      <trkpt lat="47.72544" lon="3.51028">
        <ele>230.8</ele>
        <time>2022-01-12T08:57:58Z</time>
      </trkpt>
      <trkpt lat="47.72543" lon="3.5103">
        <ele>230.8</ele>
        <time>2022-01-12T08:57:59Z</time>
      </trkpt>
      <trkpt lat="47.72543" lon="3.51032">
        <ele>230.8</ele>
        <time>2022-01-12T08:58:00Z</time>
      </trkpt>
      <trkpt lat="47.72542" lon="3.51034">
        <ele>230.9</ele>
        <time>2022-01-12T08:58:01Z</time>
      </trkpt>
      <trkpt lat="47.72542" lon="3.51036">
        <ele>230.9</ele>
        <time>2022-01-12T08:58:02Z</time>
      </trkpt>
      <trkpt lat="47.72542" lon="3.51038">
        <ele>230.9</ele>
        <time>2022-01-12T08:58:03Z</time>
      </trkpt>
      <trkpt lat="47.72541" lon="3.5104">
        <ele>230.9</ele>
        <time>2022-01-12T08:58:04Z</time>
      </trkpt>
      <trkpt lat="47.7254" lon="3.51043">
        <ele>231</ele>
        <time>2022-01-12T08:58:05Z</time>
      </trkpt>
      <trkpt lat="47.72539" lon="3.51045">
        <ele>231</ele>
        <time>2022-01-12T08:58:07Z</time>
      </trkpt>
      <trkpt lat="47.72539" lon="3.51047">
        <ele>231</ele>
        <time>2022-01-12T08:58:08Z</time>
      </trkpt>
      <trkpt lat="47.72538" lon="3.51049">
        <ele>231.1</ele>
        <time>2022-01-12T08:58:09Z</time>
      </trkpt>
      <trkpt lat="47.72538" lon="3.51051">
        <ele>231.1</ele>
        <time>2022-01-12T08:58:10Z</time>
      </trkpt>
      <trkpt lat="47.72538" lon="3.51054">
        <ele>231.1</ele>
        <time>2022-01-12T08:58:11Z</time>
      </trkpt>
      <trkpt lat="47.72537" lon="3.51057">
        <ele>231.1</ele>
        <time>2022-01-12T08:58:12Z</time>
      </trkpt>
      <trkpt lat="47.72537" lon="3.51059">
        <ele>231.2</ele>
        <time>2022-01-12T08:58:14Z</time>
      </trkpt>
      <trkpt lat="47.72537" lon="3.5106">
        <ele>231.2</ele>
        <time>2022-01-12T08:58:15Z</time>
      </trkpt>
      <trkpt lat="47.72536" lon="3.51062">
        <ele>231.2</ele>
        <time>2022-01-12T08:58:16Z</time>
      </trkpt>
      <trkpt lat="47.72536" lon="3.51063">
        <ele>231.2</ele>
        <time>2022-01-12T08:58:17Z</time>
      </trkpt>
      <trkpt lat="47.72536" lon="3.51065">
        <ele>231.2</ele>
        <time>2022-01-12T08:58:18Z</time>
      </trkpt>
      <trkpt lat="47.72535" lon="3.51068">
        <ele>231.3</ele>
        <time>2022-01-12T08:58:19Z</time>
      </trkpt>
      <trkpt lat="47.72535" lon="3.5107">
        <ele>231.3</ele>
        <time>2022-01-12T08:58:20Z</time>
      </trkpt>
      <trkpt lat="47.72535" lon="3.51072">
        <ele>231.3</ele>
        <time>2022-01-12T08:58:22Z</time>
      </trkpt>
      <trkpt lat="47.72534" lon="3.51074">
        <ele>231.4</ele>
        <time>2022-01-12T08:58:23Z</time>
      </trkpt>
      <trkpt lat="47.72533" lon="3.51076">
        <ele>231.4</ele>
        <time>2022-01-12T08:58:24Z</time>
      </trkpt>
      <trkpt lat="47.72532" lon="3.51077">
        <ele>231.4</ele>
        <time>2022-01-12T08:58:25Z</time>
      </trkpt>
      <trkpt lat="47.72531" lon="3.51079">
        <ele>231.5</ele>
        <time>2022-01-12T08:58:26Z</time>
      </trkpt>
      <trkpt lat="47.7253" lon="3.51081">
        <ele>231.5</ele>
        <time>2022-01-12T08:58:27Z</time>
      </trkpt>
      <trkpt lat="47.7253" lon="3.51082">
        <ele>231.5</ele>
        <time>2022-01-12T08:58:28Z</time>
      </trkpt>
      <trkpt lat="47.72529" lon="3.51084">
        <ele>231.5</ele>
        <time>2022-01-12T08:58:29Z</time>
      </trkpt>
      <trkpt lat="47.72529" lon="3.51087">
        <ele>231.6</ele>
        <time>2022-01-12T08:58:31Z</time>
      </trkpt>
      <trkpt lat="47.72529" lon="3.51088">
        <ele>231.6</ele>
        <time>2022-01-12T08:58:32Z</time>
      </trkpt>
      <trkpt lat="47.72528" lon="3.5109">
        <ele>231.6</ele>
        <time>2022-01-12T08:58:33Z</time>
      </trkpt>
      <trkpt lat="47.72528" lon="3.51092">
        <ele>231.6</ele>
        <time>2022-01-12T08:58:34Z</time>
      </trkpt>
      <trkpt lat="47.72528" lon="3.51094">
        <ele>231.6</ele>
        <time>2022-01-12T08:58:35Z</time>
      </trkpt>
      <trkpt lat="47.72528" lon="3.51096">
        <ele>231.7</ele>
        <time>2022-01-12T08:58:36Z</time>
      </trkpt>
      <trkpt lat="47.72527" lon="3.51098">
        <ele>231.7</ele>
        <time>2022-01-12T08:58:38Z</time>
      </trkpt>
      <trkpt lat="47.72527" lon="3.511">
        <ele>231.7</ele>
        <time>2022-01-12T08:58:39Z</time>
      </trkpt>
      <trkpt lat="47.72526" lon="3.51102">
        <ele>231.7</ele>
        <time>2022-01-12T08:58:40Z</time>
      </trkpt>
      <trkpt lat="47.72526" lon="3.51104">
        <ele>231.7</ele>
        <time>2022-01-12T08:58:41Z</time>
      </trkpt>
      <trkpt lat="47.72526" lon="3.51106">
        <ele>231.7</ele>
        <time>2022-01-12T08:58:42Z</time>
      </trkpt>
      <trkpt lat="47.72525" lon="3.51109">
        <ele>231.7</ele>
        <time>2022-01-12T08:58:43Z</time>
      </trkpt>
      <trkpt lat="47.72525" lon="3.5111">
        <ele>231.7</ele>
        <time>2022-01-12T08:58:44Z</time>
      </trkpt>
      <trkpt lat="47.72525" lon="3.51111">
        <ele>231.7</ele>
        <time>2022-01-12T08:58:45Z</time>
      </trkpt>
      <trkpt lat="47.72525" lon="3.51113">
        <ele>231.8</ele>
        <time>2022-01-12T08:58:46Z</time>
      </trkpt>
      <trkpt lat="47.72525" lon="3.51116">
        <ele>231.8</ele>
        <time>2022-01-12T08:58:47Z</time>
      </trkpt>
      <trkpt lat="47.72525" lon="3.51117">
        <ele>231.8</ele>
        <time>2022-01-12T08:58:48Z</time>
      </trkpt>
      <trkpt lat="47.72524" lon="3.51119">
        <ele>231.8</ele>
        <time>2022-01-12T08:58:49Z</time>
      </trkpt>
      <trkpt lat="47.72524" lon="3.51122">
        <ele>231.8</ele>
        <time>2022-01-12T08:58:51Z</time>
      </trkpt>
      <trkpt lat="47.72524" lon="3.51124">
        <ele>231.7</ele>
        <time>2022-01-12T08:58:52Z</time>
      </trkpt>
      <trkpt lat="47.72523" lon="3.51126">
        <ele>231.7</ele>
        <time>2022-01-12T08:58:53Z</time>
      </trkpt>
      <trkpt lat="47.72523" lon="3.51128">
        <ele>231.7</ele>
        <time>2022-01-12T08:58:54Z</time>
      </trkpt>
      <trkpt lat="47.72523" lon="3.5113">
        <ele>231.7</ele>
        <time>2022-01-12T08:58:55Z</time>
      </trkpt>
      <trkpt lat="47.72522" lon="3.51132">
        <ele>231.7</ele>
        <time>2022-01-12T08:58:57Z</time>
      </trkpt>
      <trkpt lat="47.72522" lon="3.51134">
        <ele>231.7</ele>
        <time>2022-01-12T08:58:58Z</time>
      </trkpt>
      <trkpt lat="47.72521" lon="3.51136">
        <ele>231.7</ele>
        <time>2022-01-12T08:58:59Z</time>
      </trkpt>
      <trkpt lat="47.72521" lon="3.51139">
        <ele>231.7</ele>
        <time>2022-01-12T08:59:00Z</time>
      </trkpt>
      <trkpt lat="47.72521" lon="3.5114">
        <ele>231.7</ele>
        <time>2022-01-12T08:59:01Z</time>
      </trkpt>
      <trkpt lat="47.72521" lon="3.51142">
        <ele>231.7</ele>
        <time>2022-01-12T08:59:02Z</time>
      </trkpt>
      <trkpt lat="47.72521" lon="3.51143">
        <ele>231.7</ele>
        <time>2022-01-12T08:59:03Z</time>
      </trkpt>
      <trkpt lat="47.7252" lon="3.51145">
        <ele>231.7</ele>
        <time>2022-01-12T08:59:04Z</time>
      </trkpt>
      <trkpt lat="47.7252" lon="3.51147">
        <ele>231.6</ele>
        <time>2022-01-12T08:59:05Z</time>
      </trkpt>
      <trkpt lat="47.72519" lon="3.5115">
        <ele>231.6</ele>
        <time>2022-01-12T08:59:06Z</time>
      </trkpt>
      <trkpt lat="47.72519" lon="3.51151">
        <ele>231.6</ele>
        <time>2022-01-12T08:59:07Z</time>
      </trkpt>
      <trkpt lat="47.72519" lon="3.51152">
        <ele>231.6</ele>
        <time>2022-01-12T08:59:08Z</time>
      </trkpt>
      <trkpt lat="47.72519" lon="3.51155">
        <ele>231.6</ele>
        <time>2022-01-12T08:59:10Z</time>
      </trkpt>
      <trkpt lat="47.72519" lon="3.51157">
        <ele>231.5</ele>
        <time>2022-01-12T08:59:11Z</time>
      </trkpt>
      <trkpt lat="47.72519" lon="3.51159">
        <ele>231.5</ele>
        <time>2022-01-12T08:59:12Z</time>
      </trkpt>
      <trkpt lat="47.72518" lon="3.51162">
        <ele>231.4</ele>
        <time>2022-01-12T08:59:13Z</time>
      </trkpt>
      <trkpt lat="47.72518" lon="3.51165">
        <ele>231.4</ele>
        <time>2022-01-12T08:59:14Z</time>
      </trkpt>
      <trkpt lat="47.72518" lon="3.51166">
        <ele>231.4</ele>
        <time>2022-01-12T08:59:15Z</time>
      </trkpt>
      <trkpt lat="47.72517" lon="3.51168">
        <ele>231.4</ele>
        <time>2022-01-12T08:59:16Z</time>
      </trkpt>
      <trkpt lat="47.72517" lon="3.5117">
        <ele>231.3</ele>
        <time>2022-01-12T08:59:17Z</time>
      </trkpt>
      <trkpt lat="47.72516" lon="3.51172">
        <ele>231.3</ele>
        <time>2022-01-12T08:59:19Z</time>
      </trkpt>
      <trkpt lat="47.72516" lon="3.51175">
        <ele>231.2</ele>
        <time>2022-01-12T08:59:20Z</time>
      </trkpt>
      <trkpt lat="47.72515" lon="3.51177">
        <ele>231.2</ele>
        <time>2022-01-12T08:59:21Z</time>
      </trkpt>
      <trkpt lat="47.72515" lon="3.51179">
        <ele>231.1</ele>
        <time>2022-01-12T08:59:22Z</time>
      </trkpt>
      <trkpt lat="47.72515" lon="3.51182">
        <ele>231.1</ele>
        <time>2022-01-12T08:59:23Z</time>
      </trkpt>
      <trkpt lat="47.72514" lon="3.51184">
        <ele>231</ele>
        <time>2022-01-12T08:59:24Z</time>
      </trkpt>
      <trkpt lat="47.72514" lon="3.51186">
        <ele>231</ele>
        <time>2022-01-12T08:59:25Z</time>
      </trkpt>
      <trkpt lat="47.72513" lon="3.51189">
        <ele>230.9</ele>
        <time>2022-01-12T08:59:26Z</time>
      </trkpt>
      <trkpt lat="47.72513" lon="3.51191">
        <ele>230.9</ele>
        <time>2022-01-12T08:59:28Z</time>
      </trkpt>
      <trkpt lat="47.72513" lon="3.51194">
        <ele>230.8</ele>
        <time>2022-01-12T08:59:29Z</time>
      </trkpt>
      <trkpt lat="47.72513" lon="3.51195">
        <ele>230.8</ele>
        <time>2022-01-12T08:59:30Z</time>
      </trkpt>
      <trkpt lat="47.72513" lon="3.51198">
        <ele>230.7</ele>
        <time>2022-01-12T08:59:31Z</time>
      </trkpt>
      <trkpt lat="47.72512" lon="3.512">
        <ele>230.7</ele>
        <time>2022-01-12T08:59:32Z</time>
      </trkpt>
      <trkpt lat="47.72512" lon="3.51201">
        <ele>230.7</ele>
        <time>2022-01-12T08:59:33Z</time>
      </trkpt>
      <trkpt lat="47.72511" lon="3.51203">
        <ele>230.6</ele>
        <time>2022-01-12T08:59:35Z</time>
      </trkpt>
      <trkpt lat="47.7251" lon="3.51205">
        <ele>230.6</ele>
        <time>2022-01-12T08:59:36Z</time>
      </trkpt>
      <trkpt lat="47.72509" lon="3.51207">
        <ele>230.5</ele>
        <time>2022-01-12T08:59:37Z</time>
      </trkpt>
      <trkpt lat="47.72509" lon="3.51209">
        <ele>230.4</ele>
        <time>2022-01-12T08:59:38Z</time>
      </trkpt>
      <trkpt lat="47.72507" lon="3.51212">
        <ele>230.3</ele>
        <time>2022-01-12T08:59:39Z</time>
      </trkpt>
      <trkpt lat="47.72507" lon="3.51213">
        <ele>230.3</ele>
        <time>2022-01-12T08:59:41Z</time>
      </trkpt>
      <trkpt lat="47.72506" lon="3.51215">
        <ele>230.3</ele>
        <time>2022-01-12T08:59:42Z</time>
      </trkpt>
      <trkpt lat="47.72505" lon="3.51216">
        <ele>230.2</ele>
        <time>2022-01-12T08:59:43Z</time>
      </trkpt>
      <trkpt lat="47.72505" lon="3.51218">
        <ele>230.2</ele>
        <time>2022-01-12T08:59:44Z</time>
      </trkpt>
      <trkpt lat="47.72505" lon="3.51219">
        <ele>230.1</ele>
        <time>2022-01-12T08:59:45Z</time>
      </trkpt>
      <trkpt lat="47.72504" lon="3.5122">
        <ele>230.1</ele>
        <time>2022-01-12T08:59:46Z</time>
      </trkpt>
      <trkpt lat="47.72504" lon="3.51222">
        <ele>230</ele>
        <time>2022-01-12T08:59:47Z</time>
      </trkpt>
      <trkpt lat="47.72503" lon="3.51226">
        <ele>229.9</ele>
        <time>2022-01-12T08:59:49Z</time>
      </trkpt>
      <trkpt lat="47.72502" lon="3.51227">
        <ele>229.8</ele>
        <time>2022-01-12T08:59:51Z</time>
      </trkpt>
      <trkpt lat="47.72502" lon="3.51229">
        <ele>229.8</ele>
        <time>2022-01-12T08:59:52Z</time>
      </trkpt>
      <trkpt lat="47.72501" lon="3.5123">
        <ele>229.7</ele>
        <time>2022-01-12T08:59:53Z</time>
      </trkpt>
      <trkpt lat="47.725" lon="3.51231">
        <ele>229.7</ele>
        <time>2022-01-12T08:59:54Z</time>
      </trkpt>
      <trkpt lat="47.725" lon="3.51234">
        <ele>229.6</ele>
        <time>2022-01-12T08:59:55Z</time>
      </trkpt>
      <trkpt lat="47.72499" lon="3.51236">
        <ele>229.5</ele>
        <time>2022-01-12T08:59:56Z</time>
      </trkpt>
      <trkpt lat="47.72499" lon="3.51237">
        <ele>229.5</ele>
        <time>2022-01-12T08:59:57Z</time>
      </trkpt>
      <trkpt lat="47.72499" lon="3.51239">
        <ele>229.4</ele>
        <time>2022-01-12T08:59:59Z</time>
      </trkpt>
      <trkpt lat="47.72498" lon="3.51241">
        <ele>229.3</ele>
        <time>2022-01-12T09:00:00Z</time>
      </trkpt>
      <trkpt lat="47.72498" lon="3.51243">
        <ele>229.3</ele>
        <time>2022-01-12T09:00:01Z</time>
      </trkpt>
      <trkpt lat="47.72497" lon="3.51244">
        <ele>229.2</ele>
        <time>2022-01-12T09:00:02Z</time>
      </trkpt>
      <trkpt lat="47.72497" lon="3.51246">
        <ele>229.1</ele>
        <time>2022-01-12T09:00:03Z</time>
      </trkpt>
      <trkpt lat="47.72496" lon="3.51248">
        <ele>229.1</ele>
        <time>2022-01-12T09:00:05Z</time>
      </trkpt>
      <trkpt lat="47.72496" lon="3.5125">
        <ele>229</ele>
        <time>2022-01-12T09:00:06Z</time>
      </trkpt>
      <trkpt lat="47.72495" lon="3.51252">
        <ele>228.9</ele>
        <time>2022-01-12T09:00:07Z</time>
      </trkpt>
      <trkpt lat="47.72495" lon="3.51254">
        <ele>228.8</ele>
        <time>2022-01-12T09:00:08Z</time>
      </trkpt>
      <trkpt lat="47.72494" lon="3.51255">
        <ele>228.8</ele>
        <time>2022-01-12T09:00:09Z</time>
      </trkpt>
      <trkpt lat="47.72494" lon="3.51257">
        <ele>228.7</ele>
        <time>2022-01-12T09:00:10Z</time>
      </trkpt>
      <trkpt lat="47.72494" lon="3.51258">
        <ele>228.7</ele>
        <time>2022-01-12T09:00:12Z</time>
      </trkpt>
      <trkpt lat="47.72493" lon="3.51261">
        <ele>228.5</ele>
        <time>2022-01-12T09:00:13Z</time>
      </trkpt>
      <trkpt lat="47.72492" lon="3.51262">
        <ele>228.5</ele>
        <time>2022-01-12T09:00:14Z</time>
      </trkpt>
      <trkpt lat="47.72491" lon="3.51265">
        <ele>228.3</ele>
        <time>2022-01-12T09:00:15Z</time>
      </trkpt>
      <trkpt lat="47.7249" lon="3.51266">
        <ele>228.3</ele>
        <time>2022-01-12T09:00:16Z</time>
      </trkpt>
      <trkpt lat="47.7249" lon="3.51267">
        <ele>228.2</ele>
        <time>2022-01-12T09:00:17Z</time>
      </trkpt>
      <trkpt lat="47.7249" lon="3.51269">
        <ele>228.1</ele>
        <time>2022-01-12T09:00:18Z</time>
      </trkpt>
      <trkpt lat="47.72489" lon="3.51271">
        <ele>228.1</ele>
        <time>2022-01-12T09:00:20Z</time>
      </trkpt>
      <trkpt lat="47.72489" lon="3.51273">
        <ele>228</ele>
        <time>2022-01-12T09:00:21Z</time>
      </trkpt>
      <trkpt lat="47.72488" lon="3.51275">
        <ele>227.9</ele>
        <time>2022-01-12T09:00:22Z</time>
      </trkpt>
      <trkpt lat="47.72487" lon="3.51278">
        <ele>227.7</ele>
        <time>2022-01-12T09:00:23Z</time>
      </trkpt>
      <trkpt lat="47.72487" lon="3.51279">
        <ele>227.7</ele>
        <time>2022-01-12T09:00:24Z</time>
      </trkpt>
      <trkpt lat="47.72487" lon="3.5128">
        <ele>227.6</ele>
        <time>2022-01-12T09:00:25Z</time>
      </trkpt>
      <trkpt lat="47.72486" lon="3.51283">
        <ele>227.5</ele>
        <time>2022-01-12T09:00:26Z</time>
      </trkpt>
      <trkpt lat="47.72486" lon="3.51285">
        <ele>227.4</ele>
        <time>2022-01-12T09:00:27Z</time>
      </trkpt>
      <trkpt lat="47.72486" lon="3.51286">
        <ele>227.4</ele>
        <time>2022-01-12T09:00:28Z</time>
      </trkpt>
      <trkpt lat="47.72486" lon="3.51287">
        <ele>227.3</ele>
        <time>2022-01-12T09:00:29Z</time>
      </trkpt>
      <trkpt lat="47.72485" lon="3.51288">
        <ele>227.3</ele>
        <time>2022-01-12T09:00:30Z</time>
      </trkpt>
      <trkpt lat="47.72485" lon="3.5129">
        <ele>227.2</ele>
        <time>2022-01-12T09:00:31Z</time>
      </trkpt>
      <trkpt lat="47.72484" lon="3.51292">
        <ele>227.1</ele>
        <time>2022-01-12T09:00:32Z</time>
      </trkpt>
      <trkpt lat="47.72484" lon="3.51294">
        <ele>227</ele>
        <time>2022-01-12T09:00:34Z</time>
      </trkpt>
      <trkpt lat="47.72483" lon="3.51296">
        <ele>226.9</ele>
        <time>2022-01-12T09:00:35Z</time>
      </trkpt>
      <trkpt lat="47.72483" lon="3.51298">
        <ele>226.8</ele>
        <time>2022-01-12T09:00:36Z</time>
      </trkpt>
      <trkpt lat="47.72482" lon="3.51302">
        <ele>226.6</ele>
        <time>2022-01-12T09:00:37Z</time>
      </trkpt>
      <trkpt lat="47.72482" lon="3.51304">
        <ele>226.5</ele>
        <time>2022-01-12T09:00:39Z</time>
      </trkpt>
      <trkpt lat="47.72482" lon="3.51306">
        <ele>226.4</ele>
        <time>2022-01-12T09:00:40Z</time>
      </trkpt>
      <trkpt lat="47.72482" lon="3.51308">
        <ele>226.4</ele>
        <time>2022-01-12T09:00:41Z</time>
      </trkpt>
      <trkpt lat="47.72481" lon="3.51311">
        <ele>226.2</ele>
        <time>2022-01-12T09:00:42Z</time>
      </trkpt>
      <trkpt lat="47.7248" lon="3.51313">
        <ele>226.2</ele>
        <time>2022-01-12T09:00:43Z</time>
      </trkpt>
      <trkpt lat="47.7248" lon="3.51314">
        <ele>226.1</ele>
        <time>2022-01-12T09:00:44Z</time>
      </trkpt>
      <trkpt lat="47.72478" lon="3.51316">
        <ele>226</ele>
        <time>2022-01-12T09:00:46Z</time>
      </trkpt>
      <trkpt lat="47.72477" lon="3.51314">
        <ele>225.9</ele>
        <time>2022-01-12T09:00:47Z</time>
      </trkpt>
      <trkpt lat="47.72476" lon="3.51314">
        <ele>225.9</ele>
        <time>2022-01-12T09:00:48Z</time>
      </trkpt>
      <trkpt lat="47.72474" lon="3.51314">
        <ele>225.8</ele>
        <time>2022-01-12T09:00:50Z</time>
      </trkpt>
      <trkpt lat="47.72474" lon="3.51317">
        <ele>225.7</ele>
        <time>2022-01-12T09:00:51Z</time>
      </trkpt>
      <trkpt lat="47.72474" lon="3.51318">
        <ele>225.6</ele>
        <time>2022-01-12T09:00:52Z</time>
      </trkpt>
      <trkpt lat="47.72474" lon="3.51319">
        <ele>225.6</ele>
        <time>2022-01-12T09:00:53Z</time>
      </trkpt>
      <trkpt lat="47.72474" lon="3.51319">
        <ele>225.6</ele>
        <time>2022-01-12T09:00:54Z</time>
      </trkpt>
      <trkpt lat="47.72474" lon="3.51319">
        <ele>225.6</ele>
        <time>2022-01-12T09:00:55Z</time>
      </trkpt>
      <trkpt lat="47.72474" lon="3.5132">
        <ele>225.6</ele>
        <time>2022-01-12T09:00:56Z</time>
      </trkpt>
      <trkpt lat="47.72474" lon="3.51321">
        <ele>225.5</ele>
        <time>2022-01-12T09:00:57Z</time>
      </trkpt>
      <trkpt lat="47.72474" lon="3.51323">
        <ele>225.5</ele>
        <time>2022-01-12T09:00:58Z</time>
      </trkpt>
      <trkpt lat="47.72475" lon="3.51324">
        <ele>225.4</ele>
        <time>2022-01-12T09:01:00Z</time>
      </trkpt>
      <trkpt lat="47.72475" lon="3.51325">
        <ele>225.4</ele>
        <time>2022-01-12T09:01:01Z</time>
      </trkpt>
      <trkpt lat="47.72475" lon="3.51326">
        <ele>225.3</ele>
        <time>2022-01-12T09:01:02Z</time>
      </trkpt>
      <trkpt lat="47.72476" lon="3.51328">
        <ele>225.3</ele>
        <time>2022-01-12T09:01:03Z</time>
      </trkpt>
      <trkpt lat="47.72476" lon="3.51329">
        <ele>225.2</ele>
        <time>2022-01-12T09:01:05Z</time>
      </trkpt>
      <trkpt lat="47.72476" lon="3.51331">
        <ele>225.1</ele>
        <time>2022-01-12T09:01:06Z</time>
      </trkpt>
      <trkpt lat="47.72476" lon="3.51334">
        <ele>225</ele>
        <time>2022-01-12T09:01:08Z</time>
      </trkpt>
      <trkpt lat="47.72476" lon="3.51335">
        <ele>225</ele>
        <time>2022-01-12T09:01:09Z</time>
      </trkpt>
      <trkpt lat="47.72476" lon="3.51337">
        <ele>224.9</ele>
        <time>2022-01-12T09:01:10Z</time>
      </trkpt>
      <trkpt lat="47.72476" lon="3.51339">
        <ele>224.9</ele>
        <time>2022-01-12T09:01:12Z</time>
      </trkpt>
      <trkpt lat="47.72476" lon="3.51341">
        <ele>224.8</ele>
        <time>2022-01-12T09:01:13Z</time>
      </trkpt>
      <trkpt lat="47.72476" lon="3.51342">
        <ele>224.8</ele>
        <time>2022-01-12T09:01:14Z</time>
      </trkpt>
      <trkpt lat="47.72475" lon="3.51344">
        <ele>224.7</ele>
        <time>2022-01-12T09:01:16Z</time>
      </trkpt>
      <trkpt lat="47.72475" lon="3.51346">
        <ele>224.6</ele>
        <time>2022-01-12T09:01:17Z</time>
      </trkpt>
      <trkpt lat="47.72474" lon="3.51347">
        <ele>224.6</ele>
        <time>2022-01-12T09:01:18Z</time>
      </trkpt>
      <trkpt lat="47.72474" lon="3.51348">
        <ele>224.5</ele>
        <time>2022-01-12T09:01:19Z</time>
      </trkpt>
      <trkpt lat="47.72474" lon="3.51349">
        <ele>224.5</ele>
        <time>2022-01-12T09:01:20Z</time>
      </trkpt>
      <trkpt lat="47.72474" lon="3.51352">
        <ele>224.4</ele>
        <time>2022-01-12T09:01:22Z</time>
      </trkpt>
      <trkpt lat="47.72474" lon="3.51352">
        <ele>224.4</ele>
        <time>2022-01-12T09:01:23Z</time>
      </trkpt>
      <trkpt lat="47.72474" lon="3.51353">
        <ele>224.3</ele>
        <time>2022-01-12T09:01:24Z</time>
      </trkpt>
      <trkpt lat="47.72473" lon="3.51355">
        <ele>224.3</ele>
        <time>2022-01-12T09:01:26Z</time>
      </trkpt>
      <trkpt lat="47.72472" lon="3.51356">
        <ele>224.2</ele>
        <time>2022-01-12T09:01:27Z</time>
      </trkpt>
      <trkpt lat="47.72472" lon="3.51357">
        <ele>224.2</ele>
        <time>2022-01-12T09:01:28Z</time>
      </trkpt>
      <trkpt lat="47.72471" lon="3.51359">
        <ele>224.1</ele>
        <time>2022-01-12T09:01:29Z</time>
      </trkpt>
      <trkpt lat="47.7247" lon="3.5136">
        <ele>224.1</ele>
        <time>2022-01-12T09:01:30Z</time>
      </trkpt>
      <trkpt lat="47.7247" lon="3.51361">
        <ele>224</ele>
        <time>2022-01-12T09:01:31Z</time>
      </trkpt>
      <trkpt lat="47.72469" lon="3.51363">
        <ele>224</ele>
        <time>2022-01-12T09:01:32Z</time>
      </trkpt>
      <trkpt lat="47.72469" lon="3.51364">
        <ele>223.9</ele>
        <time>2022-01-12T09:01:33Z</time>
      </trkpt>
      <trkpt lat="47.72468" lon="3.51367">
        <ele>223.8</ele>
        <time>2022-01-12T09:01:34Z</time>
      </trkpt>
      <trkpt lat="47.72467" lon="3.51369">
        <ele>223.8</ele>
        <time>2022-01-12T09:01:36Z</time>
      </trkpt>
      <trkpt lat="47.72467" lon="3.5137">
        <ele>223.7</ele>
        <time>2022-01-12T09:01:37Z</time>
      </trkpt>
      <trkpt lat="47.72466" lon="3.51372">
        <ele>223.7</ele>
        <time>2022-01-12T09:01:38Z</time>
      </trkpt>
      <trkpt lat="47.72466" lon="3.51373">
        <ele>223.6</ele>
        <time>2022-01-12T09:01:39Z</time>
      </trkpt>
      <trkpt lat="47.72465" lon="3.51376">
        <ele>223.6</ele>
        <time>2022-01-12T09:01:41Z</time>
      </trkpt>
      <trkpt lat="47.72465" lon="3.51378">
        <ele>223.5</ele>
        <time>2022-01-12T09:01:42Z</time>
      </trkpt>
      <trkpt lat="47.72465" lon="3.51379">
        <ele>223.5</ele>
        <time>2022-01-12T09:01:43Z</time>
      </trkpt>
      <trkpt lat="47.72464" lon="3.51381">
        <ele>223.4</ele>
        <time>2022-01-12T09:01:44Z</time>
      </trkpt>
      <trkpt lat="47.72464" lon="3.51382">
        <ele>223.4</ele>
        <time>2022-01-12T09:01:45Z</time>
      </trkpt>
      <trkpt lat="47.72463" lon="3.51383">
        <ele>223.4</ele>
        <time>2022-01-12T09:01:46Z</time>
      </trkpt>
      <trkpt lat="47.72463" lon="3.51384">
        <ele>223.3</ele>
        <time>2022-01-12T09:01:47Z</time>
      </trkpt>
      <trkpt lat="47.72462" lon="3.51384">
        <ele>223.3</ele>
        <time>2022-01-12T09:01:48Z</time>
      </trkpt>
      <trkpt lat="47.72462" lon="3.51384">
        <ele>223.3</ele>
        <time>2022-01-12T09:01:49Z</time>
      </trkpt>
      <trkpt lat="47.72461" lon="3.51384">
        <ele>223.3</ele>
        <time>2022-01-12T09:01:50Z</time>
      </trkpt>
      <trkpt lat="47.72461" lon="3.51387">
        <ele>223.2</ele>
        <time>2022-01-12T09:01:51Z</time>
      </trkpt>
      <trkpt lat="47.72461" lon="3.51389">
        <ele>223.2</ele>
        <time>2022-01-12T09:01:53Z</time>
      </trkpt>
      <trkpt lat="47.72461" lon="3.5139">
        <ele>223.1</ele>
        <time>2022-01-12T09:01:54Z</time>
      </trkpt>
      <trkpt lat="47.7246" lon="3.51392">
        <ele>223.1</ele>
        <time>2022-01-12T09:01:55Z</time>
      </trkpt>
      <trkpt lat="47.7246" lon="3.51394">
        <ele>223.1</ele>
        <time>2022-01-12T09:01:56Z</time>
      </trkpt>
      <trkpt lat="47.7246" lon="3.51395">
        <ele>223</ele>
        <time>2022-01-12T09:01:57Z</time>
      </trkpt>
      <trkpt lat="47.7246" lon="3.51396">
        <ele>223</ele>
        <time>2022-01-12T09:01:58Z</time>
      </trkpt>
      <trkpt lat="47.72459" lon="3.51397">
        <ele>223</ele>
        <time>2022-01-12T09:01:59Z</time>
      </trkpt>
      <trkpt lat="47.72459" lon="3.51399">
        <ele>222.9</ele>
        <time>2022-01-12T09:02:00Z</time>
      </trkpt>
      <trkpt lat="47.72458" lon="3.51401">
        <ele>222.9</ele>
        <time>2022-01-12T09:02:02Z</time>
      </trkpt>
      <trkpt lat="47.72458" lon="3.51402">
        <ele>222.9</ele>
        <time>2022-01-12T09:02:03Z</time>
      </trkpt>
      <trkpt lat="47.72457" lon="3.51403">
        <ele>222.9</ele>
        <time>2022-01-12T09:02:04Z</time>
      </trkpt>
      <trkpt lat="47.72457" lon="3.51405">
        <ele>222.8</ele>
        <time>2022-01-12T09:02:05Z</time>
      </trkpt>
      <trkpt lat="47.72456" lon="3.51406">
        <ele>222.8</ele>
        <time>2022-01-12T09:02:06Z</time>
      </trkpt>
      <trkpt lat="47.72456" lon="3.51408">
        <ele>222.8</ele>
        <time>2022-01-12T09:02:08Z</time>
      </trkpt>
      <trkpt lat="47.72455" lon="3.51409">
        <ele>222.8</ele>
        <time>2022-01-12T09:02:09Z</time>
      </trkpt>
      <trkpt lat="47.72454" lon="3.5141">
        <ele>222.7</ele>
        <time>2022-01-12T09:02:10Z</time>
      </trkpt>
      <trkpt lat="47.72454" lon="3.51412">
        <ele>222.7</ele>
        <time>2022-01-12T09:02:11Z</time>
      </trkpt>
      <trkpt lat="47.72453" lon="3.51413">
        <ele>222.7</ele>
        <time>2022-01-12T09:02:12Z</time>
      </trkpt>
      <trkpt lat="47.72453" lon="3.51415">
        <ele>222.6</ele>
        <time>2022-01-12T09:02:13Z</time>
      </trkpt>
      <trkpt lat="47.72452" lon="3.51417">
        <ele>222.6</ele>
        <time>2022-01-12T09:02:15Z</time>
      </trkpt>
      <trkpt lat="47.72452" lon="3.51419">
        <ele>222.6</ele>
        <time>2022-01-12T09:02:16Z</time>
      </trkpt>
      <trkpt lat="47.72452" lon="3.51421">
        <ele>222.5</ele>
        <time>2022-01-12T09:02:17Z</time>
      </trkpt>
      <trkpt lat="47.72451" lon="3.51423">
        <ele>222.5</ele>
        <time>2022-01-12T09:02:18Z</time>
      </trkpt>
      <trkpt lat="47.72451" lon="3.51425">
        <ele>222.5</ele>
        <time>2022-01-12T09:02:19Z</time>
      </trkpt>
      <trkpt lat="47.72451" lon="3.51428">
        <ele>222.4</ele>
        <time>2022-01-12T09:02:20Z</time>
      </trkpt>
      <trkpt lat="47.72451" lon="3.5143">
        <ele>222.4</ele>
        <time>2022-01-12T09:02:21Z</time>
      </trkpt>
      <trkpt lat="47.72451" lon="3.51431">
        <ele>222.4</ele>
        <time>2022-01-12T09:02:23Z</time>
      </trkpt>
      <trkpt lat="47.72452" lon="3.51433">
        <ele>222.3</ele>
        <time>2022-01-12T09:02:24Z</time>
      </trkpt>
      <trkpt lat="47.72452" lon="3.51434">
        <ele>222.3</ele>
        <time>2022-01-12T09:02:25Z</time>
      </trkpt>
      <trkpt lat="47.72452" lon="3.51436">
        <ele>222.3</ele>
        <time>2022-01-12T09:02:27Z</time>
      </trkpt>
      <trkpt lat="47.72452" lon="3.51438">
        <ele>222.3</ele>
        <time>2022-01-12T09:02:28Z</time>
      </trkpt>
      <trkpt lat="47.72451" lon="3.5144">
        <ele>222.2</ele>
        <time>2022-01-12T09:02:29Z</time>
      </trkpt>
      <trkpt lat="47.72451" lon="3.51442">
        <ele>222.2</ele>
        <time>2022-01-12T09:02:30Z</time>
      </trkpt>
      <trkpt lat="47.7245" lon="3.51444">
        <ele>222.2</ele>
        <time>2022-01-12T09:02:31Z</time>
      </trkpt>
      <trkpt lat="47.7245" lon="3.51446">
        <ele>222.1</ele>
        <time>2022-01-12T09:02:33Z</time>
      </trkpt>
      <trkpt lat="47.7245" lon="3.51449">
        <ele>222.1</ele>
        <time>2022-01-12T09:02:34Z</time>
      </trkpt>
      <trkpt lat="47.72449" lon="3.51452">
        <ele>222.1</ele>
        <time>2022-01-12T09:02:36Z</time>
      </trkpt>
      <trkpt lat="47.72449" lon="3.51453">
        <ele>222.1</ele>
        <time>2022-01-12T09:02:37Z</time>
      </trkpt>
      <trkpt lat="47.72448" lon="3.51454">
        <ele>222</ele>
        <time>2022-01-12T09:02:38Z</time>
      </trkpt>
      <trkpt lat="47.72446" lon="3.51455">
        <ele>222</ele>
        <time>2022-01-12T09:02:40Z</time>
      </trkpt>
      <trkpt lat="47.72445" lon="3.51456">
        <ele>222</ele>
        <time>2022-01-12T09:02:41Z</time>
      </trkpt>
      <trkpt lat="47.72444" lon="3.51457">
        <ele>222</ele>
        <time>2022-01-12T09:02:42Z</time>
      </trkpt>
      <trkpt lat="47.72444" lon="3.51459">
        <ele>221.9</ele>
        <time>2022-01-12T09:02:44Z</time>
      </trkpt>
      <trkpt lat="47.72444" lon="3.51461">
        <ele>221.9</ele>
        <time>2022-01-12T09:02:45Z</time>
      </trkpt>
      <trkpt lat="47.72444" lon="3.51463">
        <ele>221.9</ele>
        <time>2022-01-12T09:02:46Z</time>
      </trkpt>
      <trkpt lat="47.72444" lon="3.51465">
        <ele>221.9</ele>
        <time>2022-01-12T09:02:47Z</time>
      </trkpt>
      <trkpt lat="47.72444" lon="3.51466">
        <ele>221.9</ele>
        <time>2022-01-12T09:02:48Z</time>
      </trkpt>
      <trkpt lat="47.72445" lon="3.51467">
        <ele>221.9</ele>
        <time>2022-01-12T09:02:50Z</time>
      </trkpt>
      <trkpt lat="47.72445" lon="3.51469">
        <ele>221.8</ele>
        <time>2022-01-12T09:02:51Z</time>
      </trkpt>
      <trkpt lat="47.72445" lon="3.5147">
        <ele>221.8</ele>
        <time>2022-01-12T09:02:52Z</time>
      </trkpt>
      <trkpt lat="47.72446" lon="3.51472">
        <ele>221.8</ele>
        <time>2022-01-12T09:02:54Z</time>
      </trkpt>
      <trkpt lat="47.72446" lon="3.51473">
        <ele>221.8</ele>
        <time>2022-01-12T09:02:55Z</time>
      </trkpt>
      <trkpt lat="47.72446" lon="3.51475">
        <ele>221.8</ele>
        <time>2022-01-12T09:02:56Z</time>
      </trkpt>
      <trkpt lat="47.72446" lon="3.51476">
        <ele>221.8</ele>
        <time>2022-01-12T09:02:58Z</time>
      </trkpt>
      <trkpt lat="47.72446" lon="3.51478">
        <ele>221.8</ele>
        <time>2022-01-12T09:02:59Z</time>
      </trkpt>
      <trkpt lat="47.72445" lon="3.51478">
        <ele>221.8</ele>
        <time>2022-01-12T09:03:01Z</time>
      </trkpt>
      <trkpt lat="47.72444" lon="3.51479">
        <ele>221.8</ele>
        <time>2022-01-12T09:03:02Z</time>
      </trkpt>
      <trkpt lat="47.72443" lon="3.5148">
        <ele>221.8</ele>
        <time>2022-01-12T09:03:04Z</time>
      </trkpt>
      <trkpt lat="47.72441" lon="3.51479">
        <ele>221.9</ele>
        <time>2022-01-12T09:03:05Z</time>
      </trkpt>
      <trkpt lat="47.7244" lon="3.51478">
        <ele>221.9</ele>
        <time>2022-01-12T09:03:06Z</time>
      </trkpt>
      <trkpt lat="47.7244" lon="3.51477">
        <ele>221.9</ele>
        <time>2022-01-12T09:03:08Z</time>
      </trkpt>
      <trkpt lat="47.72439" lon="3.51477">
        <ele>222</ele>
        <time>2022-01-12T09:03:09Z</time>
      </trkpt>
      <trkpt lat="47.72437" lon="3.51476">
        <ele>222</ele>
        <time>2022-01-12T09:03:11Z</time>
      </trkpt>
      <trkpt lat="47.72436" lon="3.51475">
        <ele>222.1</ele>
        <time>2022-01-12T09:03:12Z</time>
      </trkpt>
      <trkpt lat="47.72435" lon="3.51475">
        <ele>222.1</ele>
        <time>2022-01-12T09:03:13Z</time>
      </trkpt>
      <trkpt lat="47.72434" lon="3.51475">
        <ele>222.1</ele>
        <time>2022-01-12T09:03:14Z</time>
      </trkpt>
      <trkpt lat="47.72434" lon="3.51474">
        <ele>222.2</ele>
        <time>2022-01-12T09:03:15Z</time>
      </trkpt>
      <trkpt lat="47.72433" lon="3.51474">
        <ele>222.2</ele>
        <time>2022-01-12T09:03:16Z</time>
      </trkpt>
      <trkpt lat="47.72432" lon="3.51473">
        <ele>222.2</ele>
        <time>2022-01-12T09:03:17Z</time>
      </trkpt>
      <trkpt lat="47.72432" lon="3.51473">
        <ele>222.2</ele>
        <time>2022-01-12T09:03:18Z</time>
      </trkpt>
      <trkpt lat="47.72431" lon="3.51473">
        <ele>222.2</ele>
        <time>2022-01-12T09:03:20Z</time>
      </trkpt>
      <trkpt lat="47.72431" lon="3.51473">
        <ele>222.2</ele>
        <time>2022-01-12T09:03:22Z</time>
      </trkpt>
      <trkpt lat="47.72432" lon="3.51474">
        <ele>222.3</ele>
        <time>2022-01-12T09:03:23Z</time>
      </trkpt>
      <trkpt lat="47.72432" lon="3.51474">
        <ele>222.3</ele>
        <time>2022-01-12T09:03:24Z</time>
      </trkpt>
      <trkpt lat="47.72432" lon="3.51474">
        <ele>222.3</ele>
        <time>2022-01-12T09:03:25Z</time>
      </trkpt>
      <trkpt lat="47.72432" lon="3.51474">
        <ele>222.3</ele>
        <time>2022-01-12T09:03:26Z</time>
      </trkpt>
      <trkpt lat="47.72432" lon="3.51474">
        <ele>222.3</ele>
        <time>2022-01-12T09:03:27Z</time>
      </trkpt>
      <trkpt lat="47.72432" lon="3.51474">
        <ele>222.3</ele>
        <time>2022-01-12T09:03:28Z</time>
      </trkpt>
      <trkpt lat="47.72432" lon="3.51474">
        <ele>222.3</ele>
        <time>2022-01-12T09:03:29Z</time>
      </trkpt>
      <trkpt lat="47.72432" lon="3.51474">
        <ele>222.3</ele>
        <time>2022-01-12T09:03:30Z</time>
      </trkpt>
      <trkpt lat="47.72432" lon="3.51474">
        <ele>222.3</ele>
        <time>2022-01-12T09:03:31Z</time>
      </trkpt>
      <trkpt lat="47.72432" lon="3.51474">
        <ele>222.3</ele>
        <time>2022-01-12T09:03:32Z</time>
      </trkpt>
      <trkpt lat="47.72432" lon="3.51475">
        <ele>222.3</ele>
        <time>2022-01-12T09:03:33Z</time>
      </trkpt>
      <trkpt lat="47.72432" lon="3.51475">
        <ele>222.3</ele>
        <time>2022-01-12T09:03:34Z</time>
      </trkpt>
      <trkpt lat="47.72432" lon="3.51474">
        <ele>222.3</ele>
        <time>2022-01-12T09:03:35Z</time>
      </trkpt>
      <trkpt lat="47.72432" lon="3.51474">
        <ele>222.3</ele>
        <time>2022-01-12T09:03:36Z</time>
      </trkpt>
      <trkpt lat="47.72432" lon="3.51474">
        <ele>222.3</ele>
        <time>2022-01-12T09:03:37Z</time>
      </trkpt>
      <trkpt lat="47.72432" lon="3.51474">
        <ele>222.3</ele>
        <time>2022-01-12T09:03:38Z</time>
      </trkpt>
      <trkpt lat="47.72432" lon="3.51474">
        <ele>222.3</ele>
        <time>2022-01-12T09:03:39Z</time>
      </trkpt>
      <trkpt lat="47.72432" lon="3.51474">
        <ele>222.3</ele>
        <time>2022-01-12T09:03:40Z</time>
      </trkpt>
      <trkpt lat="47.72432" lon="3.51474">
        <ele>222.3</ele>
        <time>2022-01-12T09:03:41Z</time>
      </trkpt>
      <trkpt lat="47.72432" lon="3.51474">
        <ele>222.3</ele>
        <time>2022-01-12T09:03:42Z</time>
      </trkpt>
      <trkpt lat="47.72432" lon="3.51474">
        <ele>222.3</ele>
        <time>2022-01-12T09:03:43Z</time>
      </trkpt>
      <trkpt lat="47.72432" lon="3.51474">
        <ele>222.3</ele>
        <time>2022-01-12T09:03:44Z</time>
      </trkpt>
      <trkpt lat="47.72432" lon="3.51474">
        <ele>222.3</ele>
        <time>2022-01-12T09:03:45Z</time>
      </trkpt>
      <trkpt lat="47.72432" lon="3.51474">
        <ele>222.3</ele>
        <time>2022-01-12T09:03:46Z</time>
      </trkpt>
      <trkpt lat="47.72432" lon="3.51473">
        <ele>222.3</ele>
        <time>2022-01-12T09:03:47Z</time>
      </trkpt>
      <trkpt lat="47.72432" lon="3.51473">
        <ele>222.3</ele>
        <time>2022-01-12T09:03:48Z</time>
      </trkpt>
      <trkpt lat="47.72432" lon="3.51473">
        <ele>222.3</ele>
        <time>2022-01-12T09:03:49Z</time>
      </trkpt>
      <trkpt lat="47.72432" lon="3.51473">
        <ele>222.3</ele>
        <time>2022-01-12T09:03:50Z</time>
      </trkpt>
      <trkpt lat="47.72432" lon="3.51473">
        <ele>222.3</ele>
        <time>2022-01-12T09:03:51Z</time>
      </trkpt>
      <trkpt lat="47.72432" lon="3.51473">
        <ele>222.4</ele>
        <time>2022-01-12T09:03:52Z</time>
      </trkpt>
      <trkpt lat="47.72432" lon="3.51473">
        <ele>222.4</ele>
        <time>2022-01-12T09:03:53Z</time>
      </trkpt>
      <trkpt lat="47.72432" lon="3.51473">
        <ele>222.4</ele>
        <time>2022-01-12T09:03:54Z</time>
      </trkpt>
      <trkpt lat="47.72432" lon="3.51473">
        <ele>222.4</ele>
        <time>2022-01-12T09:03:55Z</time>
      </trkpt>
      <trkpt lat="47.72432" lon="3.51473">
        <ele>222.4</ele>
        <time>2022-01-12T09:03:56Z</time>
      </trkpt>
      <trkpt lat="47.72432" lon="3.51472">
        <ele>222.4</ele>
        <time>2022-01-12T09:03:57Z</time>
      </trkpt>
      <trkpt lat="47.72431" lon="3.51473">
        <ele>222.4</ele>
        <time>2022-01-12T09:03:58Z</time>
      </trkpt>
      <trkpt lat="47.72431" lon="3.51473">
        <ele>222.4</ele>
        <time>2022-01-12T09:03:59Z</time>
      </trkpt>
      <trkpt lat="47.72431" lon="3.51473">
        <ele>222.4</ele>
        <time>2022-01-12T09:04:00Z</time>
      </trkpt>
      <trkpt lat="47.7243" lon="3.51473">
        <ele>222.4</ele>
        <time>2022-01-12T09:04:01Z</time>
      </trkpt>
      <trkpt lat="47.7243" lon="3.51473">
        <ele>222.4</ele>
        <time>2022-01-12T09:04:02Z</time>
      </trkpt>
      <trkpt lat="47.7243" lon="3.51473">
        <ele>222.4</ele>
        <time>2022-01-12T09:04:03Z</time>
      </trkpt>
      <trkpt lat="47.7243" lon="3.51473">
        <ele>222.5</ele>
        <time>2022-01-12T09:04:04Z</time>
      </trkpt>
      <trkpt lat="47.7243" lon="3.51473">
        <ele>222.5</ele>
        <time>2022-01-12T09:04:05Z</time>
      </trkpt>
      <trkpt lat="47.72431" lon="3.51473">
        <ele>222.5</ele>
        <time>2022-01-12T09:04:06Z</time>
      </trkpt>
      <trkpt lat="47.72431" lon="3.51473">
        <ele>222.5</ele>
        <time>2022-01-12T09:04:07Z</time>
      </trkpt>
      <trkpt lat="47.72431" lon="3.51473">
        <ele>222.5</ele>
        <time>2022-01-12T09:04:08Z</time>
      </trkpt>
      <trkpt lat="47.7243" lon="3.51473">
        <ele>222.5</ele>
        <time>2022-01-12T09:04:09Z</time>
      </trkpt>
      <trkpt lat="47.72431" lon="3.51473">
        <ele>222.5</ele>
        <time>2022-01-12T09:04:11Z</time>
      </trkpt>
      <trkpt lat="47.72431" lon="3.51473">
        <ele>222.5</ele>
        <time>2022-01-12T09:04:12Z</time>
      </trkpt>
      <trkpt lat="47.72431" lon="3.51473">
        <ele>222.5</ele>
        <time>2022-01-12T09:04:13Z</time>
      </trkpt>
      <trkpt lat="47.72431" lon="3.51473">
        <ele>222.5</ele>
        <time>2022-01-12T09:04:14Z</time>
      </trkpt>
      <trkpt lat="47.72431" lon="3.51473">
        <ele>222.5</ele>
        <time>2022-01-12T09:04:15Z</time>
      </trkpt>
      <trkpt lat="47.72431" lon="3.51473">
        <ele>222.5</ele>
        <time>2022-01-12T09:04:16Z</time>
      </trkpt>
      <trkpt lat="47.72431" lon="3.51473">
        <ele>222.5</ele>
        <time>2022-01-12T09:04:17Z</time>
      </trkpt>
      <trkpt lat="47.72431" lon="3.51473">
        <ele>222.5</ele>
        <time>2022-01-12T09:04:18Z</time>
      </trkpt>
      <trkpt lat="47.72431" lon="3.51473">
        <ele>222.5</ele>
        <time>2022-01-12T09:04:19Z</time>
      </trkpt>
      <trkpt lat="47.72431" lon="3.51472">
        <ele>222.5</ele>
        <time>2022-01-12T09:04:20Z</time>
      </trkpt>
      <trkpt lat="47.7243" lon="3.51471">
        <ele>222.5</ele>
        <time>2022-01-12T09:04:21Z</time>
      </trkpt>
      <trkpt lat="47.7243" lon="3.51471">
        <ele>222.5</ele>
        <time>2022-01-12T09:04:22Z</time>
      </trkpt>
      <trkpt lat="47.7243" lon="3.51471">
        <ele>222.6</ele>
        <time>2022-01-12T09:04:23Z</time>
      </trkpt>
      <trkpt lat="47.7243" lon="3.51471">
        <ele>222.6</ele>
        <time>2022-01-12T09:04:24Z</time>
      </trkpt>
      <trkpt lat="47.7243" lon="3.5147">
        <ele>222.6</ele>
        <time>2022-01-12T09:04:25Z</time>
      </trkpt>
      <trkpt lat="47.7243" lon="3.5147">
        <ele>222.6</ele>
        <time>2022-01-12T09:04:26Z</time>
      </trkpt>
      <trkpt lat="47.7243" lon="3.5147">
        <ele>222.6</ele>
        <time>2022-01-12T09:04:27Z</time>
      </trkpt>
      <trkpt lat="47.7243" lon="3.5147">
        <ele>222.6</ele>
        <time>2022-01-12T09:04:28Z</time>
      </trkpt>
      <trkpt lat="47.7243" lon="3.51471">
        <ele>222.6</ele>
        <time>2022-01-12T09:04:29Z</time>
      </trkpt>
      <trkpt lat="47.7243" lon="3.51472">
        <ele>222.6</ele>
        <time>2022-01-12T09:04:30Z</time>
      </trkpt>
      <trkpt lat="47.7243" lon="3.51472">
        <ele>222.6</ele>
        <time>2022-01-12T09:04:31Z</time>
      </trkpt>
      <trkpt lat="47.7243" lon="3.51471">
        <ele>222.6</ele>
        <time>2022-01-12T09:04:32Z</time>
      </trkpt>
      <trkpt lat="47.7243" lon="3.51471">
        <ele>222.6</ele>
        <time>2022-01-12T09:04:33Z</time>
      </trkpt>
      <trkpt lat="47.7243" lon="3.51471">
        <ele>222.6</ele>
        <time>2022-01-12T09:04:34Z</time>
      </trkpt>
      <trkpt lat="47.7243" lon="3.51471">
        <ele>222.6</ele>
        <time>2022-01-12T09:04:35Z</time>
      </trkpt>
      <trkpt lat="47.7243" lon="3.51471">
        <ele>222.6</ele>
        <time>2022-01-12T09:04:36Z</time>
      </trkpt>
      <trkpt lat="47.7243" lon="3.51471">
        <ele>222.6</ele>
        <time>2022-01-12T09:04:37Z</time>
      </trkpt>
      <trkpt lat="47.7243" lon="3.51471">
        <ele>222.6</ele>
        <time>2022-01-12T09:04:38Z</time>
      </trkpt>
      <trkpt lat="47.7243" lon="3.51471">
        <ele>222.6</ele>
        <time>2022-01-12T09:04:39Z</time>
      </trkpt>
      <trkpt lat="47.7243" lon="3.51471">
        <ele>222.6</ele>
        <time>2022-01-12T09:04:40Z</time>
      </trkpt>
      <trkpt lat="47.7243" lon="3.51471">
        <ele>222.6</ele>
        <time>2022-01-12T09:04:41Z</time>
      </trkpt>
      <trkpt lat="47.7243" lon="3.51471">
        <ele>222.6</ele>
        <time>2022-01-12T09:04:42Z</time>
      </trkpt>
      <trkpt lat="47.7243" lon="3.51471">
        <ele>222.6</ele>
        <time>2022-01-12T09:04:43Z</time>
      </trkpt>
      <trkpt lat="47.7243" lon="3.51471">
        <ele>222.6</ele>
        <time>2022-01-12T09:04:44Z</time>
      </trkpt>
      <trkpt lat="47.7243" lon="3.51471">
        <ele>222.6</ele>
        <time>2022-01-12T09:04:45Z</time>
      </trkpt>
      <trkpt lat="47.72431" lon="3.51471">
        <ele>222.7</ele>
        <time>2022-01-12T09:04:46Z</time>
      </trkpt>
      <trkpt lat="47.7243" lon="3.51471">
        <ele>222.7</ele>
        <time>2022-01-12T09:04:47Z</time>
      </trkpt>
      <trkpt lat="47.7243" lon="3.51471">
        <ele>222.7</ele>
        <time>2022-01-12T09:04:48Z</time>
      </trkpt>
      <trkpt lat="47.7243" lon="3.51471">
        <ele>222.7</ele>
        <time>2022-01-12T09:04:49Z</time>
      </trkpt>
      <trkpt lat="47.7243" lon="3.51471">
        <ele>222.7</ele>
        <time>2022-01-12T09:04:50Z</time>
      </trkpt>
      <trkpt lat="47.7243" lon="3.51471">
        <ele>222.7</ele>
        <time>2022-01-12T09:04:51Z</time>
      </trkpt>
      <trkpt lat="47.7243" lon="3.51471">
        <ele>222.7</ele>
        <time>2022-01-12T09:04:52Z</time>
      </trkpt>
      <trkpt lat="47.7243" lon="3.51471">
        <ele>222.7</ele>
        <time>2022-01-12T09:04:53Z</time>
      </trkpt>
      <trkpt lat="47.72431" lon="3.51471">
        <ele>222.7</ele>
        <time>2022-01-12T09:04:54Z</time>
      </trkpt>
      <trkpt lat="47.72431" lon="3.51471">
        <ele>222.7</ele>
        <time>2022-01-12T09:04:55Z</time>
      </trkpt>
      <trkpt lat="47.72431" lon="3.51471">
        <ele>222.7</ele>
        <time>2022-01-12T09:04:56Z</time>
      </trkpt>
      <trkpt lat="47.72431" lon="3.51471">
        <ele>222.7</ele>
        <time>2022-01-12T09:04:57Z</time>
      </trkpt>
      <trkpt lat="47.72431" lon="3.51471">
        <ele>222.7</ele>
        <time>2022-01-12T09:04:58Z</time>
      </trkpt>
      <trkpt lat="47.72431" lon="3.51471">
        <ele>222.7</ele>
        <time>2022-01-12T09:04:59Z</time>
      </trkpt>
      <trkpt lat="47.72431" lon="3.51471">
        <ele>222.7</ele>
        <time>2022-01-12T09:05:00Z</time>
      </trkpt>
      <trkpt lat="47.7243" lon="3.51471">
        <ele>222.7</ele>
        <time>2022-01-12T09:05:01Z</time>
      </trkpt>
      <trkpt lat="47.7243" lon="3.51471">
        <ele>222.7</ele>
        <time>2022-01-12T09:05:02Z</time>
      </trkpt>
      <trkpt lat="47.7243" lon="3.51471">
        <ele>222.7</ele>
        <time>2022-01-12T09:05:03Z</time>
      </trkpt>
      <trkpt lat="47.7243" lon="3.51471">
        <ele>222.7</ele>
        <time>2022-01-12T09:05:04Z</time>
      </trkpt>
      <trkpt lat="47.7243" lon="3.51471">
        <ele>222.7</ele>
        <time>2022-01-12T09:05:05Z</time>
      </trkpt>
      <trkpt lat="47.7243" lon="3.51471">
        <ele>222.7</ele>
        <time>2022-01-12T09:05:06Z</time>
      </trkpt>
      <trkpt lat="47.7243" lon="3.51471">
        <ele>222.7</ele>
        <time>2022-01-12T09:05:07Z</time>
      </trkpt>
      <trkpt lat="47.7243" lon="3.51471">
        <ele>222.7</ele>
        <time>2022-01-12T09:05:08Z</time>
      </trkpt>
      <trkpt lat="47.7243" lon="3.51471">
        <ele>222.7</ele>
        <time>2022-01-12T09:05:09Z</time>
      </trkpt>
      <trkpt lat="47.7243" lon="3.51471">
        <ele>222.7</ele>
        <time>2022-01-12T09:05:10Z</time>
      </trkpt>
      <trkpt lat="47.7243" lon="3.51471">
        <ele>222.7</ele>
        <time>2022-01-12T09:05:11Z</time>
      </trkpt>
      <trkpt lat="47.7243" lon="3.51471">
        <ele>222.7</ele>
        <time>2022-01-12T09:05:12Z</time>
      </trkpt>
      <trkpt lat="47.7243" lon="3.51471">
        <ele>222.7</ele>
        <time>2022-01-12T09:05:13Z</time>
      </trkpt>
      <trkpt lat="47.7243" lon="3.51471">
        <ele>222.7</ele>
        <time>2022-01-12T09:05:14Z</time>
      </trkpt>
      <trkpt lat="47.7243" lon="3.51471">
        <ele>222.7</ele>
        <time>2022-01-12T09:05:15Z</time>
      </trkpt>
      <trkpt lat="47.7243" lon="3.51471">
        <ele>222.7</ele>
        <time>2022-01-12T09:05:16Z</time>
      </trkpt>
      <trkpt lat="47.7243" lon="3.51471">
        <ele>222.7</ele>
        <time>2022-01-12T09:05:17Z</time>
      </trkpt>
      <trkpt lat="47.7243" lon="3.51472">
        <ele>222.7</ele>
        <time>2022-01-12T09:05:18Z</time>
      </trkpt>
      <trkpt lat="47.7243" lon="3.51472">
        <ele>222.7</ele>
        <time>2022-01-12T09:05:19Z</time>
      </trkpt>
      <trkpt lat="47.7243" lon="3.51472">
        <ele>222.7</ele>
        <time>2022-01-12T09:05:20Z</time>
      </trkpt>
      <trkpt lat="47.7243" lon="3.51472">
        <ele>222.7</ele>
        <time>2022-01-12T09:05:21Z</time>
      </trkpt>
      <trkpt lat="47.7243" lon="3.51471">
        <ele>222.7</ele>
        <time>2022-01-12T09:05:22Z</time>
      </trkpt>
      <trkpt lat="47.7243" lon="3.51471">
        <ele>222.7</ele>
        <time>2022-01-12T09:05:23Z</time>
      </trkpt>
      <trkpt lat="47.7243" lon="3.51471">
        <ele>222.7</ele>
        <time>2022-01-12T09:05:24Z</time>
      </trkpt>
      <trkpt lat="47.7243" lon="3.51471">
        <ele>222.7</ele>
        <time>2022-01-12T09:05:25Z</time>
      </trkpt>
      <trkpt lat="47.7243" lon="3.51471">
        <ele>222.7</ele>
        <time>2022-01-12T09:05:26Z</time>
      </trkpt>
      <trkpt lat="47.7243" lon="3.51471">
        <ele>222.7</ele>
        <time>2022-01-12T09:05:27Z</time>
      </trkpt>
      <trkpt lat="47.7243" lon="3.51471">
        <ele>222.7</ele>
        <time>2022-01-12T09:05:28Z</time>
      </trkpt>
      <trkpt lat="47.7243" lon="3.51471">
        <ele>222.7</ele>
        <time>2022-01-12T09:05:29Z</time>
      </trkpt>
      <trkpt lat="47.7243" lon="3.51471">
        <ele>222.7</ele>
        <time>2022-01-12T09:05:30Z</time>
      </trkpt>
      <trkpt lat="47.7243" lon="3.51471">
        <ele>222.7</ele>
        <time>2022-01-12T09:05:31Z</time>
      </trkpt>
      <trkpt lat="47.7243" lon="3.51472">
        <ele>222.7</ele>
        <time>2022-01-12T09:05:32Z</time>
      </trkpt>
      <trkpt lat="47.7243" lon="3.51472">
        <ele>222.7</ele>
        <time>2022-01-12T09:05:33Z</time>
      </trkpt>
      <trkpt lat="47.7243" lon="3.51471">
        <ele>222.8</ele>
        <time>2022-01-12T09:05:34Z</time>
      </trkpt>
      <trkpt lat="47.7243" lon="3.51471">
        <ele>222.8</ele>
        <time>2022-01-12T09:05:35Z</time>
      </trkpt>
      <trkpt lat="47.7243" lon="3.51471">
        <ele>222.8</ele>
        <time>2022-01-12T09:05:36Z</time>
      </trkpt>
      <trkpt lat="47.7243" lon="3.51472">
        <ele>222.8</ele>
        <time>2022-01-12T09:05:37Z</time>
      </trkpt>
      <trkpt lat="47.7243" lon="3.51472">
        <ele>222.8</ele>
        <time>2022-01-12T09:05:38Z</time>
      </trkpt>
      <trkpt lat="47.7243" lon="3.51473">
        <ele>222.8</ele>
        <time>2022-01-12T09:05:39Z</time>
      </trkpt>
      <trkpt lat="47.72429" lon="3.51473">
        <ele>222.8</ele>
        <time>2022-01-12T09:05:40Z</time>
      </trkpt>
      <trkpt lat="47.72429" lon="3.51473">
        <ele>222.8</ele>
        <time>2022-01-12T09:05:41Z</time>
      </trkpt>
      <trkpt lat="47.72429" lon="3.51473">
        <ele>222.8</ele>
        <time>2022-01-12T09:05:42Z</time>
      </trkpt>
      <trkpt lat="47.72428" lon="3.51473">
        <ele>222.8</ele>
        <time>2022-01-12T09:05:43Z</time>
      </trkpt>
      <trkpt lat="47.72428" lon="3.51473">
        <ele>222.8</ele>
        <time>2022-01-12T09:05:44Z</time>
      </trkpt>
      <trkpt lat="47.72428" lon="3.51473">
        <ele>222.9</ele>
        <time>2022-01-12T09:05:45Z</time>
      </trkpt>
      <trkpt lat="47.72428" lon="3.51473">
        <ele>222.9</ele>
        <time>2022-01-12T09:05:46Z</time>
      </trkpt>
      <trkpt lat="47.72428" lon="3.51473">
        <ele>222.9</ele>
        <time>2022-01-12T09:05:47Z</time>
      </trkpt>
      <trkpt lat="47.72428" lon="3.51473">
        <ele>222.9</ele>
        <time>2022-01-12T09:05:48Z</time>
      </trkpt>
      <trkpt lat="47.72428" lon="3.51473">
        <ele>222.9</ele>
        <time>2022-01-12T09:05:49Z</time>
      </trkpt>
      <trkpt lat="47.72429" lon="3.51473">
        <ele>222.9</ele>
        <time>2022-01-12T09:05:50Z</time>
      </trkpt>
      <trkpt lat="47.72429" lon="3.51472">
        <ele>222.9</ele>
        <time>2022-01-12T09:05:51Z</time>
      </trkpt>
      <trkpt lat="47.7243" lon="3.51472">
        <ele>222.9</ele>
        <time>2022-01-12T09:05:52Z</time>
      </trkpt>
      <trkpt lat="47.7243" lon="3.51472">
        <ele>222.9</ele>
        <time>2022-01-12T09:05:53Z</time>
      </trkpt>
      <trkpt lat="47.7243" lon="3.51472">
        <ele>222.9</ele>
        <time>2022-01-12T09:05:54Z</time>
      </trkpt>
      <trkpt lat="47.7243" lon="3.51472">
        <ele>222.9</ele>
        <time>2022-01-12T09:05:55Z</time>
      </trkpt>
      <trkpt lat="47.7243" lon="3.51472">
        <ele>222.9</ele>
        <time>2022-01-12T09:05:56Z</time>
      </trkpt>
      <trkpt lat="47.7243" lon="3.51472">
        <ele>222.9</ele>
        <time>2022-01-12T09:05:57Z</time>
      </trkpt>
      <trkpt lat="47.7243" lon="3.51472">
        <ele>222.9</ele>
        <time>2022-01-12T09:05:58Z</time>
      </trkpt>
      <trkpt lat="47.7243" lon="3.51471">
        <ele>223</ele>
        <time>2022-01-12T09:05:59Z</time>
      </trkpt>
      <trkpt lat="47.7243" lon="3.51471">
        <ele>223</ele>
        <time>2022-01-12T09:06:00Z</time>
      </trkpt>
      <trkpt lat="47.7243" lon="3.51471">
        <ele>223</ele>
        <time>2022-01-12T09:06:01Z</time>
      </trkpt>
      <trkpt lat="47.7243" lon="3.51471">
        <ele>223</ele>
        <time>2022-01-12T09:06:02Z</time>
      </trkpt>
      <trkpt lat="47.7243" lon="3.51471">
        <ele>223</ele>
        <time>2022-01-12T09:06:03Z</time>
      </trkpt>
      <trkpt lat="47.7243" lon="3.51471">
        <ele>223</ele>
        <time>2022-01-12T09:06:04Z</time>
      </trkpt>
      <trkpt lat="47.7243" lon="3.51471">
        <ele>223</ele>
        <time>2022-01-12T09:06:05Z</time>
      </trkpt>
      <trkpt lat="47.7243" lon="3.51471">
        <ele>223</ele>
        <time>2022-01-12T09:06:06Z</time>
      </trkpt>
      <trkpt lat="47.7243" lon="3.51471">
        <ele>223</ele>
        <time>2022-01-12T09:06:07Z</time>
      </trkpt>
      <trkpt lat="47.7243" lon="3.51471">
        <ele>223</ele>
        <time>2022-01-12T09:06:08Z</time>
      </trkpt>
      <trkpt lat="47.7243" lon="3.51471">
        <ele>223</ele>
        <time>2022-01-12T09:06:09Z</time>
      </trkpt>
      <trkpt lat="47.7243" lon="3.51471">
        <ele>223</ele>
        <time>2022-01-12T09:06:10Z</time>
      </trkpt>
      <trkpt lat="47.7243" lon="3.51471">
        <ele>223</ele>
        <time>2022-01-12T09:06:11Z</time>
      </trkpt>
      <trkpt lat="47.7243" lon="3.51471">
        <ele>223</ele>
        <time>2022-01-12T09:06:12Z</time>
      </trkpt>
      <trkpt lat="47.7243" lon="3.51471">
        <ele>223</ele>
        <time>2022-01-12T09:06:13Z</time>
      </trkpt>
      <trkpt lat="47.7243" lon="3.51471">
        <ele>223</ele>
        <time>2022-01-12T09:06:14Z</time>
      </trkpt>
      <trkpt lat="47.7243" lon="3.51471">
        <ele>223</ele>
        <time>2022-01-12T09:06:15Z</time>
      </trkpt>
      <trkpt lat="47.7243" lon="3.51471">
        <ele>223</ele>
        <time>2022-01-12T09:06:16Z</time>
      </trkpt>
      <trkpt lat="47.7243" lon="3.51471">
        <ele>223</ele>
        <time>2022-01-12T09:06:17Z</time>
      </trkpt>
      <trkpt lat="47.7243" lon="3.51471">
        <ele>223</ele>
        <time>2022-01-12T09:06:18Z</time>
      </trkpt>
      <trkpt lat="47.7243" lon="3.51472">
        <ele>223</ele>
        <time>2022-01-12T09:06:19Z</time>
      </trkpt>
      <trkpt lat="47.7243" lon="3.51472">
        <ele>223</ele>
        <time>2022-01-12T09:06:20Z</time>
      </trkpt>
      <trkpt lat="47.7243" lon="3.51472">
        <ele>223</ele>
        <time>2022-01-12T09:06:21Z</time>
      </trkpt>
      <trkpt lat="47.7243" lon="3.51472">
        <ele>223</ele>
        <time>2022-01-12T09:06:22Z</time>
      </trkpt>
      <trkpt lat="47.7243" lon="3.51472">
        <ele>223</ele>
        <time>2022-01-12T09:06:23Z</time>
      </trkpt>
      <trkpt lat="47.7243" lon="3.51471">
        <ele>223</ele>
        <time>2022-01-12T09:06:24Z</time>
      </trkpt>
      <trkpt lat="47.72429" lon="3.51471">
        <ele>223.1</ele>
        <time>2022-01-12T09:06:25Z</time>
      </trkpt>
      <trkpt lat="47.72429" lon="3.51471">
        <ele>223.1</ele>
        <time>2022-01-12T09:06:26Z</time>
      </trkpt>
      <trkpt lat="47.72429" lon="3.51471">
        <ele>223.1</ele>
        <time>2022-01-12T09:06:27Z</time>
      </trkpt>
      <trkpt lat="47.72429" lon="3.51471">
        <ele>223.1</ele>
        <time>2022-01-12T09:06:28Z</time>
      </trkpt>
      <trkpt lat="47.72429" lon="3.51472">
        <ele>223.1</ele>
        <time>2022-01-12T09:06:29Z</time>
      </trkpt>
      <trkpt lat="47.72429" lon="3.51472">
        <ele>223.1</ele>
        <time>2022-01-12T09:06:30Z</time>
      </trkpt>
      <trkpt lat="47.72428" lon="3.51471">
        <ele>223.1</ele>
        <time>2022-01-12T09:06:31Z</time>
      </trkpt>
      <trkpt lat="47.72428" lon="3.51471">
        <ele>223.1</ele>
        <time>2022-01-12T09:06:32Z</time>
      </trkpt>
      <trkpt lat="47.72427" lon="3.5147">
        <ele>223.1</ele>
        <time>2022-01-12T09:06:33Z</time>
      </trkpt>
      <trkpt lat="47.72426" lon="3.5147">
        <ele>223.2</ele>
        <time>2022-01-12T09:06:34Z</time>
      </trkpt>
      <trkpt lat="47.72425" lon="3.51469">
        <ele>223.2</ele>
        <time>2022-01-12T09:06:35Z</time>
      </trkpt>
      <trkpt lat="47.72424" lon="3.51469">
        <ele>223.2</ele>
        <time>2022-01-12T09:06:36Z</time>
      </trkpt>
      <trkpt lat="47.72423" lon="3.51469">
        <ele>223.2</ele>
        <time>2022-01-12T09:06:37Z</time>
      </trkpt>
      <trkpt lat="47.72422" lon="3.51468">
        <ele>223.3</ele>
        <time>2022-01-12T09:06:38Z</time>
      </trkpt>
      <trkpt lat="47.72421" lon="3.51468">
        <ele>223.3</ele>
        <time>2022-01-12T09:06:39Z</time>
      </trkpt>
      <trkpt lat="47.7242" lon="3.51467">
        <ele>223.3</ele>
        <time>2022-01-12T09:06:40Z</time>
      </trkpt>
      <trkpt lat="47.72419" lon="3.51467">
        <ele>223.3</ele>
        <time>2022-01-12T09:06:41Z</time>
      </trkpt>
      <trkpt lat="47.72419" lon="3.51466">
        <ele>223.4</ele>
        <time>2022-01-12T09:06:42Z</time>
      </trkpt>
      <trkpt lat="47.72417" lon="3.51466">
        <ele>223.4</ele>
        <time>2022-01-12T09:06:43Z</time>
      </trkpt>
      <trkpt lat="47.72417" lon="3.51466">
        <ele>223.4</ele>
        <time>2022-01-12T09:06:44Z</time>
      </trkpt>
      <trkpt lat="47.72416" lon="3.51466">
        <ele>223.4</ele>
        <time>2022-01-12T09:06:45Z</time>
      </trkpt>
      <trkpt lat="47.72415" lon="3.51466">
        <ele>223.5</ele>
        <time>2022-01-12T09:06:46Z</time>
      </trkpt>
      <trkpt lat="47.72414" lon="3.51466">
        <ele>223.5</ele>
        <time>2022-01-12T09:06:47Z</time>
      </trkpt>
      <trkpt lat="47.72414" lon="3.51466">
        <ele>223.5</ele>
        <time>2022-01-12T09:06:48Z</time>
      </trkpt>
      <trkpt lat="47.72413" lon="3.51466">
        <ele>223.6</ele>
        <time>2022-01-12T09:06:49Z</time>
      </trkpt>
      <trkpt lat="47.72412" lon="3.51466">
        <ele>223.6</ele>
        <time>2022-01-12T09:06:50Z</time>
      </trkpt>
      <trkpt lat="47.72412" lon="3.51466">
        <ele>223.6</ele>
        <time>2022-01-12T09:06:51Z</time>
      </trkpt>
      <trkpt lat="47.72411" lon="3.51465">
        <ele>223.6</ele>
        <time>2022-01-12T09:06:52Z</time>
      </trkpt>
      <trkpt lat="47.7241" lon="3.51464">
        <ele>223.6</ele>
        <time>2022-01-12T09:06:53Z</time>
      </trkpt>
      <trkpt lat="47.7241" lon="3.51464">
        <ele>223.7</ele>
        <time>2022-01-12T09:06:54Z</time>
      </trkpt>
      <trkpt lat="47.72408" lon="3.51463">
        <ele>223.7</ele>
        <time>2022-01-12T09:06:55Z</time>
      </trkpt>
      <trkpt lat="47.72407" lon="3.51462">
        <ele>223.8</ele>
        <time>2022-01-12T09:06:56Z</time>
      </trkpt>
      <trkpt lat="47.72406" lon="3.51462">
        <ele>223.8</ele>
        <time>2022-01-12T09:06:57Z</time>
      </trkpt>
      <trkpt lat="47.72404" lon="3.51461">
        <ele>223.9</ele>
        <time>2022-01-12T09:06:58Z</time>
      </trkpt>
      <trkpt lat="47.72404" lon="3.5146">
        <ele>223.9</ele>
        <time>2022-01-12T09:06:59Z</time>
      </trkpt>
      <trkpt lat="47.72403" lon="3.5146">
        <ele>223.9</ele>
        <time>2022-01-12T09:07:00Z</time>
      </trkpt>
      <trkpt lat="47.72402" lon="3.51459">
        <ele>224</ele>
        <time>2022-01-12T09:07:01Z</time>
      </trkpt>
      <trkpt lat="47.72401" lon="3.51458">
        <ele>224</ele>
        <time>2022-01-12T09:07:02Z</time>
      </trkpt>
      <trkpt lat="47.724" lon="3.51457">
        <ele>224.1</ele>
        <time>2022-01-12T09:07:03Z</time>
      </trkpt>
      <trkpt lat="47.72398" lon="3.51457">
        <ele>224.1</ele>
        <time>2022-01-12T09:07:04Z</time>
      </trkpt>
      <trkpt lat="47.72397" lon="3.51456">
        <ele>224.2</ele>
        <time>2022-01-12T09:07:05Z</time>
      </trkpt>
      <trkpt lat="47.72396" lon="3.51456">
        <ele>224.3</ele>
        <time>2022-01-12T09:07:06Z</time>
      </trkpt>
      <trkpt lat="47.72395" lon="3.51455">
        <ele>224.3</ele>
        <time>2022-01-12T09:07:07Z</time>
      </trkpt>
      <trkpt lat="47.72394" lon="3.51454">
        <ele>224.3</ele>
        <time>2022-01-12T09:07:08Z</time>
      </trkpt>
      <trkpt lat="47.72393" lon="3.51453">
        <ele>224.4</ele>
        <time>2022-01-12T09:07:09Z</time>
      </trkpt>
      <trkpt lat="47.72392" lon="3.51453">
        <ele>224.5</ele>
        <time>2022-01-12T09:07:10Z</time>
      </trkpt>
      <trkpt lat="47.72391" lon="3.51453">
        <ele>224.5</ele>
        <time>2022-01-12T09:07:11Z</time>
      </trkpt>
      <trkpt lat="47.7239" lon="3.51452">
        <ele>224.6</ele>
        <time>2022-01-12T09:07:12Z</time>
      </trkpt>
      <trkpt lat="47.72388" lon="3.51452">
        <ele>224.7</ele>
        <time>2022-01-12T09:07:13Z</time>
      </trkpt>
      <trkpt lat="47.72387" lon="3.51451">
        <ele>224.7</ele>
        <time>2022-01-12T09:07:14Z</time>
      </trkpt>
      <trkpt lat="47.72386" lon="3.51451">
        <ele>224.8</ele>
        <time>2022-01-12T09:07:15Z</time>
      </trkpt>
      <trkpt lat="47.72384" lon="3.5145">
        <ele>224.9</ele>
        <time>2022-01-12T09:07:16Z</time>
      </trkpt>
      <trkpt lat="47.72383" lon="3.5145">
        <ele>224.9</ele>
        <time>2022-01-12T09:07:17Z</time>
      </trkpt>
      <trkpt lat="47.72382" lon="3.51449">
        <ele>225</ele>
        <time>2022-01-12T09:07:18Z</time>
      </trkpt>
      <trkpt lat="47.72381" lon="3.51448">
        <ele>225.1</ele>
        <time>2022-01-12T09:07:19Z</time>
      </trkpt>
      <trkpt lat="47.7238" lon="3.51448">
        <ele>225.1</ele>
        <time>2022-01-12T09:07:20Z</time>
      </trkpt>
      <trkpt lat="47.72379" lon="3.51447">
        <ele>225.2</ele>
        <time>2022-01-12T09:07:21Z</time>
      </trkpt>
      <trkpt lat="47.72378" lon="3.51446">
        <ele>225.3</ele>
        <time>2022-01-12T09:07:22Z</time>
      </trkpt>
      <trkpt lat="47.72377" lon="3.51446">
        <ele>225.3</ele>
        <time>2022-01-12T09:07:23Z</time>
      </trkpt>
      <trkpt lat="47.72376" lon="3.51445">
        <ele>225.4</ele>
        <time>2022-01-12T09:07:24Z</time>
      </trkpt>
      <trkpt lat="47.72374" lon="3.51444">
        <ele>225.5</ele>
        <time>2022-01-12T09:07:25Z</time>
      </trkpt>
      <trkpt lat="47.72373" lon="3.51444">
        <ele>225.5</ele>
        <time>2022-01-12T09:07:26Z</time>
      </trkpt>
      <trkpt lat="47.72372" lon="3.51444">
        <ele>225.5</ele>
        <time>2022-01-12T09:07:27Z</time>
      </trkpt>
      <trkpt lat="47.72371" lon="3.51443">
        <ele>225.6</ele>
        <time>2022-01-12T09:07:28Z</time>
      </trkpt>
      <trkpt lat="47.7237" lon="3.51443">
        <ele>225.7</ele>
        <time>2022-01-12T09:07:29Z</time>
      </trkpt>
      <trkpt lat="47.72369" lon="3.51442">
        <ele>225.7</ele>
        <time>2022-01-12T09:07:30Z</time>
      </trkpt>
      <trkpt lat="47.72368" lon="3.51442">
        <ele>225.7</ele>
        <time>2022-01-12T09:07:31Z</time>
      </trkpt>
      <trkpt lat="47.72367" lon="3.51442">
        <ele>225.8</ele>
        <time>2022-01-12T09:07:32Z</time>
      </trkpt>
      <trkpt lat="47.72366" lon="3.51441">
        <ele>225.8</ele>
        <time>2022-01-12T09:07:33Z</time>
      </trkpt>
      <trkpt lat="47.72365" lon="3.51441">
        <ele>225.8</ele>
        <time>2022-01-12T09:07:34Z</time>
      </trkpt>
      <trkpt lat="47.72364" lon="3.51441">
        <ele>225.9</ele>
        <time>2022-01-12T09:07:35Z</time>
      </trkpt>
      <trkpt lat="47.72363" lon="3.5144">
        <ele>225.9</ele>
        <time>2022-01-12T09:07:36Z</time>
      </trkpt>
      <trkpt lat="47.72362" lon="3.5144">
        <ele>225.9</ele>
        <time>2022-01-12T09:07:37Z</time>
      </trkpt>
      <trkpt lat="47.72361" lon="3.5144">
        <ele>226</ele>
        <time>2022-01-12T09:07:38Z</time>
      </trkpt>
      <trkpt lat="47.7236" lon="3.51439">
        <ele>226</ele>
        <time>2022-01-12T09:07:39Z</time>
      </trkpt>
      <trkpt lat="47.72359" lon="3.51439">
        <ele>226</ele>
        <time>2022-01-12T09:07:40Z</time>
      </trkpt>
      <trkpt lat="47.72358" lon="3.51438">
        <ele>226.1</ele>
        <time>2022-01-12T09:07:41Z</time>
      </trkpt>
      <trkpt lat="47.72357" lon="3.51438">
        <ele>226.1</ele>
        <time>2022-01-12T09:07:42Z</time>
      </trkpt>
      <trkpt lat="47.72355" lon="3.51437">
        <ele>226.1</ele>
        <time>2022-01-12T09:07:43Z</time>
      </trkpt>
      <trkpt lat="47.72354" lon="3.51436">
        <ele>226.2</ele>
        <time>2022-01-12T09:07:44Z</time>
      </trkpt>
      <trkpt lat="47.72354" lon="3.51436">
        <ele>226.2</ele>
        <time>2022-01-12T09:07:45Z</time>
      </trkpt>
      <trkpt lat="47.72352" lon="3.51435">
        <ele>226.2</ele>
        <time>2022-01-12T09:07:46Z</time>
      </trkpt>
      <trkpt lat="47.72351" lon="3.51435">
        <ele>226.3</ele>
        <time>2022-01-12T09:07:47Z</time>
      </trkpt>
      <trkpt lat="47.72349" lon="3.51433">
        <ele>226.3</ele>
        <time>2022-01-12T09:07:48Z</time>
      </trkpt>
      <trkpt lat="47.72348" lon="3.51433">
        <ele>226.3</ele>
        <time>2022-01-12T09:07:49Z</time>
      </trkpt>
      <trkpt lat="47.72347" lon="3.51432">
        <ele>226.4</ele>
        <time>2022-01-12T09:07:50Z</time>
      </trkpt>
      <trkpt lat="47.72346" lon="3.51432">
        <ele>226.4</ele>
        <time>2022-01-12T09:07:51Z</time>
      </trkpt>
      <trkpt lat="47.72345" lon="3.51431">
        <ele>226.4</ele>
        <time>2022-01-12T09:07:52Z</time>
      </trkpt>
      <trkpt lat="47.72343" lon="3.5143">
        <ele>226.5</ele>
        <time>2022-01-12T09:07:53Z</time>
      </trkpt>
      <trkpt lat="47.72342" lon="3.51429">
        <ele>226.5</ele>
        <time>2022-01-12T09:07:54Z</time>
      </trkpt>
      <trkpt lat="47.72341" lon="3.51428">
        <ele>226.5</ele>
        <time>2022-01-12T09:07:55Z</time>
      </trkpt>
      <trkpt lat="47.7234" lon="3.51427">
        <ele>226.6</ele>
        <time>2022-01-12T09:07:56Z</time>
      </trkpt>
      <trkpt lat="47.72338" lon="3.51426">
        <ele>226.6</ele>
        <time>2022-01-12T09:07:57Z</time>
      </trkpt>
      <trkpt lat="47.72337" lon="3.51426">
        <ele>226.6</ele>
        <time>2022-01-12T09:07:58Z</time>
      </trkpt>
      <trkpt lat="47.72336" lon="3.51425">
        <ele>226.7</ele>
        <time>2022-01-12T09:07:59Z</time>
      </trkpt>
      <trkpt lat="47.72334" lon="3.51424">
        <ele>226.7</ele>
        <time>2022-01-12T09:08:00Z</time>
      </trkpt>
      <trkpt lat="47.72333" lon="3.51424">
        <ele>226.7</ele>
        <time>2022-01-12T09:08:01Z</time>
      </trkpt>
      <trkpt lat="47.72332" lon="3.51423">
        <ele>226.8</ele>
        <time>2022-01-12T09:08:02Z</time>
      </trkpt>
      <trkpt lat="47.72331" lon="3.51422">
        <ele>226.8</ele>
        <time>2022-01-12T09:08:03Z</time>
      </trkpt>
      <trkpt lat="47.7233" lon="3.51422">
        <ele>226.8</ele>
        <time>2022-01-12T09:08:04Z</time>
      </trkpt>
      <trkpt lat="47.72329" lon="3.51421">
        <ele>226.9</ele>
        <time>2022-01-12T09:08:05Z</time>
      </trkpt>
      <trkpt lat="47.72328" lon="3.51421">
        <ele>226.9</ele>
        <time>2022-01-12T09:08:06Z</time>
      </trkpt>
      <trkpt lat="47.72326" lon="3.5142">
        <ele>226.9</ele>
        <time>2022-01-12T09:08:07Z</time>
      </trkpt>
      <trkpt lat="47.72325" lon="3.51419">
        <ele>227</ele>
        <time>2022-01-12T09:08:08Z</time>
      </trkpt>
      <trkpt lat="47.72324" lon="3.51418">
        <ele>227</ele>
        <time>2022-01-12T09:08:09Z</time>
      </trkpt>
      <trkpt lat="47.72323" lon="3.51418">
        <ele>227.1</ele>
        <time>2022-01-12T09:08:10Z</time>
      </trkpt>
      <trkpt lat="47.72321" lon="3.51416">
        <ele>227.1</ele>
        <time>2022-01-12T09:08:11Z</time>
      </trkpt>
      <trkpt lat="47.7232" lon="3.51416">
        <ele>227.1</ele>
        <time>2022-01-12T09:08:12Z</time>
      </trkpt>
      <trkpt lat="47.7232" lon="3.51416">
        <ele>227.2</ele>
        <time>2022-01-12T09:08:13Z</time>
      </trkpt>
      <trkpt lat="47.72319" lon="3.51415">
        <ele>227.2</ele>
        <time>2022-01-12T09:08:14Z</time>
      </trkpt>
      <trkpt lat="47.72318" lon="3.51415">
        <ele>227.2</ele>
        <time>2022-01-12T09:08:15Z</time>
      </trkpt>
      <trkpt lat="47.72317" lon="3.51414">
        <ele>227.3</ele>
        <time>2022-01-12T09:08:16Z</time>
      </trkpt>
      <trkpt lat="47.72316" lon="3.51414">
        <ele>227.3</ele>
        <time>2022-01-12T09:08:17Z</time>
      </trkpt>
      <trkpt lat="47.72315" lon="3.51413">
        <ele>227.3</ele>
        <time>2022-01-12T09:08:18Z</time>
      </trkpt>
      <trkpt lat="47.72314" lon="3.51412">
        <ele>227.3</ele>
        <time>2022-01-12T09:08:19Z</time>
      </trkpt>
      <trkpt lat="47.72313" lon="3.51412">
        <ele>227.4</ele>
        <time>2022-01-12T09:08:20Z</time>
      </trkpt>
      <trkpt lat="47.72312" lon="3.51411">
        <ele>227.4</ele>
        <time>2022-01-12T09:08:21Z</time>
      </trkpt>
      <trkpt lat="47.72311" lon="3.5141">
        <ele>227.4</ele>
        <time>2022-01-12T09:08:22Z</time>
      </trkpt>
      <trkpt lat="47.7231" lon="3.51409">
        <ele>227.4</ele>
        <time>2022-01-12T09:08:23Z</time>
      </trkpt>
      <trkpt lat="47.72309" lon="3.51409">
        <ele>227.5</ele>
        <time>2022-01-12T09:08:24Z</time>
      </trkpt>
      <trkpt lat="47.72308" lon="3.51408">
        <ele>227.5</ele>
        <time>2022-01-12T09:08:25Z</time>
      </trkpt>
      <trkpt lat="47.72307" lon="3.51408">
        <ele>227.5</ele>
        <time>2022-01-12T09:08:26Z</time>
      </trkpt>
      <trkpt lat="47.72306" lon="3.51407">
        <ele>227.5</ele>
        <time>2022-01-12T09:08:27Z</time>
      </trkpt>
      <trkpt lat="47.72305" lon="3.51407">
        <ele>227.6</ele>
        <time>2022-01-12T09:08:28Z</time>
      </trkpt>
      <trkpt lat="47.72305" lon="3.51406">
        <ele>227.6</ele>
        <time>2022-01-12T09:08:29Z</time>
      </trkpt>
      <trkpt lat="47.72304" lon="3.51406">
        <ele>227.6</ele>
        <time>2022-01-12T09:08:30Z</time>
      </trkpt>
      <trkpt lat="47.72303" lon="3.51406">
        <ele>227.6</ele>
        <time>2022-01-12T09:08:31Z</time>
      </trkpt>
      <trkpt lat="47.72302" lon="3.51405">
        <ele>227.6</ele>
        <time>2022-01-12T09:08:32Z</time>
      </trkpt>
      <trkpt lat="47.72301" lon="3.51405">
        <ele>227.7</ele>
        <time>2022-01-12T09:08:33Z</time>
      </trkpt>
      <trkpt lat="47.723" lon="3.51404">
        <ele>227.7</ele>
        <time>2022-01-12T09:08:34Z</time>
      </trkpt>
      <trkpt lat="47.72299" lon="3.51404">
        <ele>227.7</ele>
        <time>2022-01-12T09:08:35Z</time>
      </trkpt>
      <trkpt lat="47.72298" lon="3.51403">
        <ele>227.7</ele>
        <time>2022-01-12T09:08:36Z</time>
      </trkpt>
      <trkpt lat="47.72297" lon="3.51402">
        <ele>227.7</ele>
        <time>2022-01-12T09:08:37Z</time>
      </trkpt>
      <trkpt lat="47.72297" lon="3.51402">
        <ele>227.7</ele>
        <time>2022-01-12T09:08:38Z</time>
      </trkpt>
      <trkpt lat="47.72296" lon="3.51401">
        <ele>227.7</ele>
        <time>2022-01-12T09:08:39Z</time>
      </trkpt>
      <trkpt lat="47.72295" lon="3.51401">
        <ele>227.8</ele>
        <time>2022-01-12T09:08:40Z</time>
      </trkpt>
      <trkpt lat="47.72294" lon="3.514">
        <ele>227.8</ele>
        <time>2022-01-12T09:08:41Z</time>
      </trkpt>
      <trkpt lat="47.72293" lon="3.514">
        <ele>227.8</ele>
        <time>2022-01-12T09:08:42Z</time>
      </trkpt>
      <trkpt lat="47.72292" lon="3.514">
        <ele>227.8</ele>
        <time>2022-01-12T09:08:43Z</time>
      </trkpt>
      <trkpt lat="47.72291" lon="3.51399">
        <ele>227.8</ele>
        <time>2022-01-12T09:08:44Z</time>
      </trkpt>
      <trkpt lat="47.7229" lon="3.51399">
        <ele>227.8</ele>
        <time>2022-01-12T09:08:45Z</time>
      </trkpt>
      <trkpt lat="47.72287" lon="3.51398">
        <ele>227.9</ele>
        <time>2022-01-12T09:08:47Z</time>
      </trkpt>
      <trkpt lat="47.72285" lon="3.51397">
        <ele>227.9</ele>
        <time>2022-01-12T09:08:48Z</time>
      </trkpt>
      <trkpt lat="47.72285" lon="3.51397">
        <ele>227.9</ele>
        <time>2022-01-12T09:08:49Z</time>
      </trkpt>
      <trkpt lat="47.72284" lon="3.51397">
        <ele>227.9</ele>
        <time>2022-01-12T09:08:50Z</time>
      </trkpt>
      <trkpt lat="47.72283" lon="3.51397">
        <ele>227.9</ele>
        <time>2022-01-12T09:08:51Z</time>
      </trkpt>
      <trkpt lat="47.72282" lon="3.51396">
        <ele>227.9</ele>
        <time>2022-01-12T09:08:53Z</time>
      </trkpt>
      <trkpt lat="47.72281" lon="3.51395">
        <ele>228</ele>
        <time>2022-01-12T09:08:54Z</time>
      </trkpt>
      <trkpt lat="47.72279" lon="3.51395">
        <ele>228</ele>
        <time>2022-01-12T09:08:55Z</time>
      </trkpt>
      <trkpt lat="47.72278" lon="3.51395">
        <ele>228</ele>
        <time>2022-01-12T09:08:56Z</time>
      </trkpt>
      <trkpt lat="47.72277" lon="3.51394">
        <ele>228</ele>
        <time>2022-01-12T09:08:58Z</time>
      </trkpt>
      <trkpt lat="47.72275" lon="3.51393">
        <ele>228</ele>
        <time>2022-01-12T09:08:59Z</time>
      </trkpt>
      <trkpt lat="47.72274" lon="3.51392">
        <ele>228</ele>
        <time>2022-01-12T09:09:00Z</time>
      </trkpt>
      <trkpt lat="47.72274" lon="3.51391">
        <ele>228</ele>
        <time>2022-01-12T09:09:01Z</time>
      </trkpt>
      <trkpt lat="47.72272" lon="3.51391">
        <ele>228</ele>
        <time>2022-01-12T09:09:02Z</time>
      </trkpt>
      <trkpt lat="47.72271" lon="3.5139">
        <ele>228</ele>
        <time>2022-01-12T09:09:03Z</time>
      </trkpt>
      <trkpt lat="47.7227" lon="3.51389">
        <ele>228</ele>
        <time>2022-01-12T09:09:05Z</time>
      </trkpt>
      <trkpt lat="47.72269" lon="3.51388">
        <ele>228</ele>
        <time>2022-01-12T09:09:06Z</time>
      </trkpt>
      <trkpt lat="47.72267" lon="3.51388">
        <ele>228.1</ele>
        <time>2022-01-12T09:09:07Z</time>
      </trkpt>
      <trkpt lat="47.72266" lon="3.51387">
        <ele>228.1</ele>
        <time>2022-01-12T09:09:08Z</time>
      </trkpt>
      <trkpt lat="47.72265" lon="3.51386">
        <ele>228.1</ele>
        <time>2022-01-12T09:09:09Z</time>
      </trkpt>
      <trkpt lat="47.72263" lon="3.51386">
        <ele>228.1</ele>
        <time>2022-01-12T09:09:10Z</time>
      </trkpt>
      <trkpt lat="47.72262" lon="3.51385">
        <ele>228.1</ele>
        <time>2022-01-12T09:09:11Z</time>
      </trkpt>
      <trkpt lat="47.72261" lon="3.51384">
        <ele>228.1</ele>
        <time>2022-01-12T09:09:13Z</time>
      </trkpt>
      <trkpt lat="47.72259" lon="3.51384">
        <ele>228.1</ele>
        <time>2022-01-12T09:09:14Z</time>
      </trkpt>
      <trkpt lat="47.72258" lon="3.51383">
        <ele>228.1</ele>
        <time>2022-01-12T09:09:15Z</time>
      </trkpt>
      <trkpt lat="47.72257" lon="3.51383">
        <ele>228.1</ele>
        <time>2022-01-12T09:09:16Z</time>
      </trkpt>
      <trkpt lat="47.72255" lon="3.51382">
        <ele>228.1</ele>
        <time>2022-01-12T09:09:17Z</time>
      </trkpt>
      <trkpt lat="47.72253" lon="3.51381">
        <ele>228.2</ele>
        <time>2022-01-12T09:09:18Z</time>
      </trkpt>
      <trkpt lat="47.72252" lon="3.51381">
        <ele>228.2</ele>
        <time>2022-01-12T09:09:20Z</time>
      </trkpt>
      <trkpt lat="47.72252" lon="3.5138">
        <ele>228.2</ele>
        <time>2022-01-12T09:09:21Z</time>
      </trkpt>
      <trkpt lat="47.72249" lon="3.51379">
        <ele>228.2</ele>
        <time>2022-01-12T09:09:22Z</time>
      </trkpt>
      <trkpt lat="47.72249" lon="3.51379">
        <ele>228.2</ele>
        <time>2022-01-12T09:09:23Z</time>
      </trkpt>
      <trkpt lat="47.72248" lon="3.51378">
        <ele>228.2</ele>
        <time>2022-01-12T09:09:24Z</time>
      </trkpt>
      <trkpt lat="47.72246" lon="3.51378">
        <ele>228.2</ele>
        <time>2022-01-12T09:09:25Z</time>
      </trkpt>
      <trkpt lat="47.72245" lon="3.51377">
        <ele>228.2</ele>
        <time>2022-01-12T09:09:27Z</time>
      </trkpt>
      <trkpt lat="47.72244" lon="3.51377">
        <ele>228.3</ele>
        <time>2022-01-12T09:09:28Z</time>
      </trkpt>
      <trkpt lat="47.72242" lon="3.51377">
        <ele>228.3</ele>
        <time>2022-01-12T09:09:29Z</time>
      </trkpt>
      <trkpt lat="47.72241" lon="3.51377">
        <ele>228.3</ele>
        <time>2022-01-12T09:09:30Z</time>
      </trkpt>
      <trkpt lat="47.7224" lon="3.51377">
        <ele>228.3</ele>
        <time>2022-01-12T09:09:31Z</time>
      </trkpt>
      <trkpt lat="47.72239" lon="3.51376">
        <ele>228.3</ele>
        <time>2022-01-12T09:09:32Z</time>
      </trkpt>
      <trkpt lat="47.72238" lon="3.51376">
        <ele>228.3</ele>
        <time>2022-01-12T09:09:33Z</time>
      </trkpt>
      <trkpt lat="47.72237" lon="3.51375">
        <ele>228.3</ele>
        <time>2022-01-12T09:09:34Z</time>
      </trkpt>
      <trkpt lat="47.72236" lon="3.51375">
        <ele>228.3</ele>
        <time>2022-01-12T09:09:36Z</time>
      </trkpt>
      <trkpt lat="47.72235" lon="3.51374">
        <ele>228.3</ele>
        <time>2022-01-12T09:09:37Z</time>
      </trkpt>
      <trkpt lat="47.72234" lon="3.51374">
        <ele>228.3</ele>
        <time>2022-01-12T09:09:38Z</time>
      </trkpt>
      <trkpt lat="47.72233" lon="3.51373">
        <ele>228.3</ele>
        <time>2022-01-12T09:09:39Z</time>
      </trkpt>
      <trkpt lat="47.72232" lon="3.51372">
        <ele>228.3</ele>
        <time>2022-01-12T09:09:40Z</time>
      </trkpt>
      <trkpt lat="47.72231" lon="3.51372">
        <ele>228.3</ele>
        <time>2022-01-12T09:09:41Z</time>
      </trkpt>
      <trkpt lat="47.7223" lon="3.51371">
        <ele>228.3</ele>
        <time>2022-01-12T09:09:42Z</time>
      </trkpt>
      <trkpt lat="47.72229" lon="3.5137">
        <ele>228.3</ele>
        <time>2022-01-12T09:09:43Z</time>
      </trkpt>
      <trkpt lat="47.72228" lon="3.5137">
        <ele>228.3</ele>
        <time>2022-01-12T09:09:45Z</time>
      </trkpt>
      <trkpt lat="47.72226" lon="3.51369">
        <ele>228.3</ele>
        <time>2022-01-12T09:09:46Z</time>
      </trkpt>
      <trkpt lat="47.72225" lon="3.51368">
        <ele>228.3</ele>
        <time>2022-01-12T09:09:47Z</time>
      </trkpt>
      <trkpt lat="47.72223" lon="3.51368">
        <ele>228.2</ele>
        <time>2022-01-12T09:09:48Z</time>
      </trkpt>
      <trkpt lat="47.72222" lon="3.51368">
        <ele>228.2</ele>
        <time>2022-01-12T09:09:49Z</time>
      </trkpt>
      <trkpt lat="47.72221" lon="3.51367">
        <ele>228.2</ele>
        <time>2022-01-12T09:09:50Z</time>
      </trkpt>
      <trkpt lat="47.72219" lon="3.51367">
        <ele>228.2</ele>
        <time>2022-01-12T09:09:51Z</time>
      </trkpt>
      <trkpt lat="47.72218" lon="3.51366">
        <ele>228.2</ele>
        <time>2022-01-12T09:09:53Z</time>
      </trkpt>
      <trkpt lat="47.72217" lon="3.51366">
        <ele>228.1</ele>
        <time>2022-01-12T09:09:54Z</time>
      </trkpt>
      <trkpt lat="47.72216" lon="3.51365">
        <ele>228.1</ele>
        <time>2022-01-12T09:09:55Z</time>
      </trkpt>
      <trkpt lat="47.72214" lon="3.51365">
        <ele>228.1</ele>
        <time>2022-01-12T09:09:56Z</time>
      </trkpt>
      <trkpt lat="47.72213" lon="3.51365">
        <ele>228.1</ele>
        <time>2022-01-12T09:09:57Z</time>
      </trkpt>
      <trkpt lat="47.72211" lon="3.51364">
        <ele>228</ele>
        <time>2022-01-12T09:09:58Z</time>
      </trkpt>
      <trkpt lat="47.7221" lon="3.51364">
        <ele>228</ele>
        <time>2022-01-12T09:09:59Z</time>
      </trkpt>
      <trkpt lat="47.72209" lon="3.51364">
        <ele>228</ele>
        <time>2022-01-12T09:10:00Z</time>
      </trkpt>
      <trkpt lat="47.72207" lon="3.51363">
        <ele>228</ele>
        <time>2022-01-12T09:10:01Z</time>
      </trkpt>
      <trkpt lat="47.72206" lon="3.51363">
        <ele>227.9</ele>
        <time>2022-01-12T09:10:03Z</time>
      </trkpt>
      <trkpt lat="47.72204" lon="3.51362">
        <ele>227.9</ele>
        <time>2022-01-12T09:10:04Z</time>
      </trkpt>
      <trkpt lat="47.72202" lon="3.51362">
        <ele>227.8</ele>
        <time>2022-01-12T09:10:05Z</time>
      </trkpt>
      <trkpt lat="47.72201" lon="3.51361">
        <ele>227.8</ele>
        <time>2022-01-12T09:10:06Z</time>
      </trkpt>
      <trkpt lat="47.722" lon="3.51361">
        <ele>227.7</ele>
        <time>2022-01-12T09:10:07Z</time>
      </trkpt>
      <trkpt lat="47.72198" lon="3.5136">
        <ele>227.7</ele>
        <time>2022-01-12T09:10:09Z</time>
      </trkpt>
      <trkpt lat="47.72196" lon="3.5136">
        <ele>227.6</ele>
        <time>2022-01-12T09:10:10Z</time>
      </trkpt>
      <trkpt lat="47.72195" lon="3.51359">
        <ele>227.6</ele>
        <time>2022-01-12T09:10:11Z</time>
      </trkpt>
      <trkpt lat="47.72193" lon="3.51359">
        <ele>227.5</ele>
        <time>2022-01-12T09:10:12Z</time>
      </trkpt>
      <trkpt lat="47.72192" lon="3.51358">
        <ele>227.5</ele>
        <time>2022-01-12T09:10:13Z</time>
      </trkpt>
      <trkpt lat="47.7219" lon="3.51358">
        <ele>227.4</ele>
        <time>2022-01-12T09:10:14Z</time>
      </trkpt>
      <trkpt lat="47.72189" lon="3.51357">
        <ele>227.4</ele>
        <time>2022-01-12T09:10:15Z</time>
      </trkpt>
      <trkpt lat="47.72187" lon="3.51357">
        <ele>227.3</ele>
        <time>2022-01-12T09:10:17Z</time>
      </trkpt>
      <trkpt lat="47.72186" lon="3.51356">
        <ele>227.3</ele>
        <time>2022-01-12T09:10:18Z</time>
      </trkpt>
      <trkpt lat="47.72185" lon="3.51356">
        <ele>227.2</ele>
        <time>2022-01-12T09:10:19Z</time>
      </trkpt>
      <trkpt lat="47.72183" lon="3.51355">
        <ele>227.2</ele>
        <time>2022-01-12T09:10:20Z</time>
      </trkpt>
      <trkpt lat="47.72182" lon="3.51355">
        <ele>227.1</ele>
        <time>2022-01-12T09:10:21Z</time>
      </trkpt>
      <trkpt lat="47.72181" lon="3.51354">
        <ele>227</ele>
        <time>2022-01-12T09:10:22Z</time>
      </trkpt>
      <trkpt lat="47.72179" lon="3.51353">
        <ele>227</ele>
        <time>2022-01-12T09:10:23Z</time>
      </trkpt>
      <trkpt lat="47.72178" lon="3.51352">
        <ele>226.9</ele>
        <time>2022-01-12T09:10:24Z</time>
      </trkpt>
      <trkpt lat="47.72177" lon="3.51352">
        <ele>226.9</ele>
        <time>2022-01-12T09:10:25Z</time>
      </trkpt>
      <trkpt lat="47.72176" lon="3.51351">
        <ele>226.9</ele>
        <time>2022-01-12T09:10:27Z</time>
      </trkpt>
      <trkpt lat="47.72174" lon="3.51349">
        <ele>226.8</ele>
        <time>2022-01-12T09:10:28Z</time>
      </trkpt>
      <trkpt lat="47.72173" lon="3.51349">
        <ele>226.8</ele>
        <time>2022-01-12T09:10:29Z</time>
      </trkpt>
      <trkpt lat="47.72172" lon="3.51348">
        <ele>226.8</ele>
        <time>2022-01-12T09:10:30Z</time>
      </trkpt>
      <trkpt lat="47.72171" lon="3.51348">
        <ele>226.7</ele>
        <time>2022-01-12T09:10:31Z</time>
      </trkpt>
      <trkpt lat="47.7217" lon="3.51347">
        <ele>226.7</ele>
        <time>2022-01-12T09:10:32Z</time>
      </trkpt>
      <trkpt lat="47.72169" lon="3.51346">
        <ele>226.7</ele>
        <time>2022-01-12T09:10:33Z</time>
      </trkpt>
      <trkpt lat="47.72167" lon="3.51345">
        <ele>226.7</ele>
        <time>2022-01-12T09:10:35Z</time>
      </trkpt>
      <trkpt lat="47.72167" lon="3.51344">
        <ele>226.6</ele>
        <time>2022-01-12T09:10:36Z</time>
      </trkpt>
      <trkpt lat="47.72166" lon="3.51344">
        <ele>226.6</ele>
        <time>2022-01-12T09:10:37Z</time>
      </trkpt>
      <trkpt lat="47.72165" lon="3.51343">
        <ele>226.6</ele>
        <time>2022-01-12T09:10:38Z</time>
      </trkpt>
      <trkpt lat="47.72164" lon="3.51342">
        <ele>226.6</ele>
        <time>2022-01-12T09:10:39Z</time>
      </trkpt>
      <trkpt lat="47.72163" lon="3.51342">
        <ele>226.6</ele>
        <time>2022-01-12T09:10:40Z</time>
      </trkpt>
      <trkpt lat="47.72162" lon="3.51341">
        <ele>226.6</ele>
        <time>2022-01-12T09:10:41Z</time>
      </trkpt>
      <trkpt lat="47.72161" lon="3.5134">
        <ele>226.6</ele>
        <time>2022-01-12T09:10:42Z</time>
      </trkpt>
      <trkpt lat="47.7216" lon="3.5134">
        <ele>226.6</ele>
        <time>2022-01-12T09:10:43Z</time>
      </trkpt>
      <trkpt lat="47.72158" lon="3.51339">
        <ele>226.5</ele>
        <time>2022-01-12T09:10:44Z</time>
      </trkpt>
      <trkpt lat="47.72157" lon="3.51338">
        <ele>226.5</ele>
        <time>2022-01-12T09:10:46Z</time>
      </trkpt>
      <trkpt lat="47.72156" lon="3.51338">
        <ele>226.5</ele>
        <time>2022-01-12T09:10:47Z</time>
      </trkpt>
      <trkpt lat="47.72155" lon="3.51337">
        <ele>226.5</ele>
        <time>2022-01-12T09:10:48Z</time>
      </trkpt>
      <trkpt lat="47.72154" lon="3.51337">
        <ele>226.5</ele>
        <time>2022-01-12T09:10:49Z</time>
      </trkpt>
      <trkpt lat="47.72153" lon="3.51337">
        <ele>226.5</ele>
        <time>2022-01-12T09:10:50Z</time>
      </trkpt>
      <trkpt lat="47.72151" lon="3.51335">
        <ele>226.4</ele>
        <time>2022-01-12T09:10:51Z</time>
      </trkpt>
      <trkpt lat="47.7215" lon="3.51335">
        <ele>226.4</ele>
        <time>2022-01-12T09:10:52Z</time>
      </trkpt>
      <trkpt lat="47.72149" lon="3.51334">
        <ele>226.4</ele>
        <time>2022-01-12T09:10:53Z</time>
      </trkpt>
      <trkpt lat="47.72148" lon="3.51334">
        <ele>226.4</ele>
        <time>2022-01-12T09:10:54Z</time>
      </trkpt>
      <trkpt lat="47.72146" lon="3.51333">
        <ele>226.4</ele>
        <time>2022-01-12T09:10:55Z</time>
      </trkpt>
      <trkpt lat="47.72145" lon="3.51332">
        <ele>226.4</ele>
        <time>2022-01-12T09:10:57Z</time>
      </trkpt>
      <trkpt lat="47.72143" lon="3.51331">
        <ele>226.3</ele>
        <time>2022-01-12T09:10:58Z</time>
      </trkpt>
      <trkpt lat="47.72142" lon="3.5133">
        <ele>226.3</ele>
        <time>2022-01-12T09:10:59Z</time>
      </trkpt>
      <trkpt lat="47.7214" lon="3.51329">
        <ele>226.3</ele>
        <time>2022-01-12T09:11:00Z</time>
      </trkpt>
      <trkpt lat="47.72139" lon="3.51329">
        <ele>226.2</ele>
        <time>2022-01-12T09:11:01Z</time>
      </trkpt>
      <trkpt lat="47.72138" lon="3.51328">
        <ele>226.2</ele>
        <time>2022-01-12T09:11:02Z</time>
      </trkpt>
      <trkpt lat="47.72136" lon="3.51327">
        <ele>226.2</ele>
        <time>2022-01-12T09:11:04Z</time>
      </trkpt>
      <trkpt lat="47.72135" lon="3.51326">
        <ele>226.1</ele>
        <time>2022-01-12T09:11:05Z</time>
      </trkpt>
      <trkpt lat="47.72133" lon="3.51326">
        <ele>226.1</ele>
        <time>2022-01-12T09:11:06Z</time>
      </trkpt>
      <trkpt lat="47.72132" lon="3.51325">
        <ele>226</ele>
        <time>2022-01-12T09:11:07Z</time>
      </trkpt>
      <trkpt lat="47.7213" lon="3.51325">
        <ele>226</ele>
        <time>2022-01-12T09:11:08Z</time>
      </trkpt>
      <trkpt lat="47.72129" lon="3.51324">
        <ele>225.9</ele>
        <time>2022-01-12T09:11:09Z</time>
      </trkpt>
      <trkpt lat="47.72128" lon="3.51323">
        <ele>225.9</ele>
        <time>2022-01-12T09:11:10Z</time>
      </trkpt>
      <trkpt lat="47.72127" lon="3.51322">
        <ele>225.8</ele>
        <time>2022-01-12T09:11:12Z</time>
      </trkpt>
      <trkpt lat="47.72125" lon="3.51321">
        <ele>225.8</ele>
        <time>2022-01-12T09:11:13Z</time>
      </trkpt>
      <trkpt lat="47.72124" lon="3.51321">
        <ele>225.7</ele>
        <time>2022-01-12T09:11:14Z</time>
      </trkpt>
      <trkpt lat="47.72122" lon="3.5132">
        <ele>225.6</ele>
        <time>2022-01-12T09:11:15Z</time>
      </trkpt>
      <trkpt lat="47.72121" lon="3.51319">
        <ele>225.6</ele>
        <time>2022-01-12T09:11:16Z</time>
      </trkpt>
      <trkpt lat="47.7212" lon="3.51319">
        <ele>225.5</ele>
        <time>2022-01-12T09:11:17Z</time>
      </trkpt>
      <trkpt lat="47.72118" lon="3.51318">
        <ele>225.4</ele>
        <time>2022-01-12T09:11:18Z</time>
      </trkpt>
      <trkpt lat="47.72118" lon="3.51318">
        <ele>225.4</ele>
        <time>2022-01-12T09:11:19Z</time>
      </trkpt>
      <trkpt lat="47.72117" lon="3.51317">
        <ele>225.3</ele>
        <time>2022-01-12T09:11:20Z</time>
      </trkpt>
      <trkpt lat="47.72115" lon="3.51316">
        <ele>225.2</ele>
        <time>2022-01-12T09:11:21Z</time>
      </trkpt>
      <trkpt lat="47.72114" lon="3.51316">
        <ele>225.2</ele>
        <time>2022-01-12T09:11:23Z</time>
      </trkpt>
      <trkpt lat="47.72113" lon="3.51315">
        <ele>225.1</ele>
        <time>2022-01-12T09:11:24Z</time>
      </trkpt>
      <trkpt lat="47.72112" lon="3.51314">
        <ele>225.1</ele>
        <time>2022-01-12T09:11:25Z</time>
      </trkpt>
      <trkpt lat="47.72111" lon="3.51313">
        <ele>225</ele>
        <time>2022-01-12T09:11:26Z</time>
      </trkpt>
      <trkpt lat="47.72109" lon="3.51312">
        <ele>224.9</ele>
        <time>2022-01-12T09:11:27Z</time>
      </trkpt>
      <trkpt lat="47.72108" lon="3.51311">
        <ele>224.8</ele>
        <time>2022-01-12T09:11:28Z</time>
      </trkpt>
      <trkpt lat="47.72107" lon="3.51311">
        <ele>224.8</ele>
        <time>2022-01-12T09:11:29Z</time>
      </trkpt>
      <trkpt lat="47.72106" lon="3.5131">
        <ele>224.8</ele>
        <time>2022-01-12T09:11:30Z</time>
      </trkpt>
      <trkpt lat="47.72105" lon="3.51309">
        <ele>224.7</ele>
        <time>2022-01-12T09:11:31Z</time>
      </trkpt>
      <trkpt lat="47.72104" lon="3.51308">
        <ele>224.6</ele>
        <time>2022-01-12T09:11:33Z</time>
      </trkpt>
      <trkpt lat="47.72102" lon="3.51307">
        <ele>224.5</ele>
        <time>2022-01-12T09:11:34Z</time>
      </trkpt>
      <trkpt lat="47.72101" lon="3.51307">
        <ele>224.5</ele>
        <time>2022-01-12T09:11:35Z</time>
      </trkpt>
      <trkpt lat="47.721" lon="3.51306">
        <ele>224.5</ele>
        <time>2022-01-12T09:11:36Z</time>
      </trkpt>
      <trkpt lat="47.72098" lon="3.51305">
        <ele>224.4</ele>
        <time>2022-01-12T09:11:37Z</time>
      </trkpt>
      <trkpt lat="47.72097" lon="3.51305">
        <ele>224.3</ele>
        <time>2022-01-12T09:11:39Z</time>
      </trkpt>
      <trkpt lat="47.72096" lon="3.51304">
        <ele>224.3</ele>
        <time>2022-01-12T09:11:40Z</time>
      </trkpt>
      <trkpt lat="47.72095" lon="3.51304">
        <ele>224.3</ele>
        <time>2022-01-12T09:11:41Z</time>
      </trkpt>
      <trkpt lat="47.72094" lon="3.51303">
        <ele>224.2</ele>
        <time>2022-01-12T09:11:42Z</time>
      </trkpt>
      <trkpt lat="47.72092" lon="3.51302">
        <ele>224.2</ele>
        <time>2022-01-12T09:11:43Z</time>
      </trkpt>
      <trkpt lat="47.72092" lon="3.51302">
        <ele>224.1</ele>
        <time>2022-01-12T09:11:44Z</time>
      </trkpt>
      <trkpt lat="47.72091" lon="3.51302">
        <ele>224.1</ele>
        <time>2022-01-12T09:11:45Z</time>
      </trkpt>
      <trkpt lat="47.7209" lon="3.51301">
        <ele>224.1</ele>
        <time>2022-01-12T09:11:46Z</time>
      </trkpt>
      <trkpt lat="47.72089" lon="3.51301">
        <ele>224</ele>
        <time>2022-01-12T09:11:47Z</time>
      </trkpt>
      <trkpt lat="47.72088" lon="3.513">
        <ele>224</ele>
        <time>2022-01-12T09:11:48Z</time>
      </trkpt>
      <trkpt lat="47.72085" lon="3.51299">
        <ele>223.9</ele>
        <time>2022-01-12T09:11:50Z</time>
      </trkpt>
      <trkpt lat="47.72085" lon="3.51299">
        <ele>223.9</ele>
        <time>2022-01-12T09:11:51Z</time>
      </trkpt>
      <trkpt lat="47.72084" lon="3.51298">
        <ele>223.8</ele>
        <time>2022-01-12T09:11:52Z</time>
      </trkpt>
      <trkpt lat="47.72083" lon="3.51298">
        <ele>223.8</ele>
        <time>2022-01-12T09:11:53Z</time>
      </trkpt>
      <trkpt lat="47.72081" lon="3.51297">
        <ele>223.7</ele>
        <time>2022-01-12T09:11:54Z</time>
      </trkpt>
      <trkpt lat="47.7208" lon="3.51296">
        <ele>223.7</ele>
        <time>2022-01-12T09:11:56Z</time>
      </trkpt>
      <trkpt lat="47.72078" lon="3.51296">
        <ele>223.6</ele>
        <time>2022-01-12T09:11:57Z</time>
      </trkpt>
      <trkpt lat="47.72077" lon="3.51295">
        <ele>223.5</ele>
        <time>2022-01-12T09:11:58Z</time>
      </trkpt>
      <trkpt lat="47.72076" lon="3.51295">
        <ele>223.5</ele>
        <time>2022-01-12T09:11:59Z</time>
      </trkpt>
      <trkpt lat="47.72074" lon="3.51294">
        <ele>223.4</ele>
        <time>2022-01-12T09:12:00Z</time>
      </trkpt>
      <trkpt lat="47.72073" lon="3.51294">
        <ele>223.3</ele>
        <time>2022-01-12T09:12:01Z</time>
      </trkpt>
      <trkpt lat="47.72071" lon="3.51293">
        <ele>223.2</ele>
        <time>2022-01-12T09:12:02Z</time>
      </trkpt>
      <trkpt lat="47.7207" lon="3.51292">
        <ele>223.1</ele>
        <time>2022-01-12T09:12:04Z</time>
      </trkpt>
      <trkpt lat="47.72069" lon="3.51292">
        <ele>223.1</ele>
        <time>2022-01-12T09:12:05Z</time>
      </trkpt>
      <trkpt lat="47.72067" lon="3.51291">
        <ele>223</ele>
        <time>2022-01-12T09:12:06Z</time>
      </trkpt>
      <trkpt lat="47.72067" lon="3.5129">
        <ele>222.9</ele>
        <time>2022-01-12T09:12:07Z</time>
      </trkpt>
      <trkpt lat="47.72066" lon="3.5129">
        <ele>222.9</ele>
        <time>2022-01-12T09:12:08Z</time>
      </trkpt>
      <trkpt lat="47.72065" lon="3.51289">
        <ele>222.8</ele>
        <time>2022-01-12T09:12:09Z</time>
      </trkpt>
      <trkpt lat="47.72064" lon="3.51289">
        <ele>222.7</ele>
        <time>2022-01-12T09:12:10Z</time>
      </trkpt>
      <trkpt lat="47.72063" lon="3.51288">
        <ele>222.7</ele>
        <time>2022-01-12T09:12:11Z</time>
      </trkpt>
      <trkpt lat="47.72061" lon="3.51287">
        <ele>222.5</ele>
        <time>2022-01-12T09:12:13Z</time>
      </trkpt>
      <trkpt lat="47.7206" lon="3.51287">
        <ele>222.5</ele>
        <time>2022-01-12T09:12:14Z</time>
      </trkpt>
      <trkpt lat="47.72059" lon="3.51286">
        <ele>222.4</ele>
        <time>2022-01-12T09:12:15Z</time>
      </trkpt>
      <trkpt lat="47.72056" lon="3.51286">
        <ele>222.3</ele>
        <time>2022-01-12T09:12:16Z</time>
      </trkpt>
      <trkpt lat="47.72055" lon="3.51286">
        <ele>222.2</ele>
        <time>2022-01-12T09:12:18Z</time>
      </trkpt>
      <trkpt lat="47.72054" lon="3.51285">
        <ele>222.2</ele>
        <time>2022-01-12T09:12:19Z</time>
      </trkpt>
      <trkpt lat="47.72053" lon="3.51285">
        <ele>222.1</ele>
        <time>2022-01-12T09:12:20Z</time>
      </trkpt>
      <trkpt lat="47.72052" lon="3.51285">
        <ele>222.1</ele>
        <time>2022-01-12T09:12:21Z</time>
      </trkpt>
      <trkpt lat="47.72051" lon="3.51285">
        <ele>222</ele>
        <time>2022-01-12T09:12:22Z</time>
      </trkpt>
      <trkpt lat="47.72049" lon="3.51284">
        <ele>221.9</ele>
        <time>2022-01-12T09:12:23Z</time>
      </trkpt>
      <trkpt lat="47.72048" lon="3.51284">
        <ele>221.8</ele>
        <time>2022-01-12T09:12:24Z</time>
      </trkpt>
      <trkpt lat="47.72047" lon="3.51283">
        <ele>221.8</ele>
        <time>2022-01-12T09:12:25Z</time>
      </trkpt>
      <trkpt lat="47.72044" lon="3.51283">
        <ele>221.6</ele>
        <time>2022-01-12T09:12:26Z</time>
      </trkpt>
      <trkpt lat="47.72043" lon="3.51283">
        <ele>221.6</ele>
        <time>2022-01-12T09:12:28Z</time>
      </trkpt>
      <trkpt lat="47.72042" lon="3.51283">
        <ele>221.5</ele>
        <time>2022-01-12T09:12:29Z</time>
      </trkpt>
      <trkpt lat="47.72041" lon="3.51283">
        <ele>221.5</ele>
        <time>2022-01-12T09:12:30Z</time>
      </trkpt>
      <trkpt lat="47.7204" lon="3.51283">
        <ele>221.4</ele>
        <time>2022-01-12T09:12:31Z</time>
      </trkpt>
      <trkpt lat="47.72039" lon="3.51282">
        <ele>221.3</ele>
        <time>2022-01-12T09:12:32Z</time>
      </trkpt>
      <trkpt lat="47.72038" lon="3.51281">
        <ele>221.3</ele>
        <time>2022-01-12T09:12:33Z</time>
      </trkpt>
      <trkpt lat="47.72036" lon="3.51279">
        <ele>221.1</ele>
        <time>2022-01-12T09:12:34Z</time>
      </trkpt>
      <trkpt lat="47.72035" lon="3.51279">
        <ele>221.1</ele>
        <time>2022-01-12T09:12:35Z</time>
      </trkpt>
      <trkpt lat="47.72034" lon="3.51278">
        <ele>221</ele>
        <time>2022-01-12T09:12:36Z</time>
      </trkpt>
      <trkpt lat="47.72032" lon="3.51277">
        <ele>220.8</ele>
        <time>2022-01-12T09:12:37Z</time>
      </trkpt>
      <trkpt lat="47.72031" lon="3.51277">
        <ele>220.8</ele>
        <time>2022-01-12T09:12:39Z</time>
      </trkpt>
      <trkpt lat="47.7203" lon="3.51276">
        <ele>220.7</ele>
        <time>2022-01-12T09:12:40Z</time>
      </trkpt>
      <trkpt lat="47.72029" lon="3.51275">
        <ele>220.6</ele>
        <time>2022-01-12T09:12:41Z</time>
      </trkpt>
      <trkpt lat="47.72028" lon="3.51275">
        <ele>220.5</ele>
        <time>2022-01-12T09:12:42Z</time>
      </trkpt>
      <trkpt lat="47.72027" lon="3.51274">
        <ele>220.4</ele>
        <time>2022-01-12T09:12:43Z</time>
      </trkpt>
      <trkpt lat="47.72026" lon="3.51274">
        <ele>220.4</ele>
        <time>2022-01-12T09:12:44Z</time>
      </trkpt>
      <trkpt lat="47.72024" lon="3.51272">
        <ele>220.2</ele>
        <time>2022-01-12T09:12:46Z</time>
      </trkpt>
      <trkpt lat="47.72023" lon="3.51272">
        <ele>220.1</ele>
        <time>2022-01-12T09:12:47Z</time>
      </trkpt>
      <trkpt lat="47.72023" lon="3.51271">
        <ele>220.1</ele>
        <time>2022-01-12T09:12:48Z</time>
      </trkpt>
      <trkpt lat="47.72022" lon="3.51271">
        <ele>220</ele>
        <time>2022-01-12T09:12:49Z</time>
      </trkpt>
      <trkpt lat="47.7202" lon="3.51269">
        <ele>219.8</ele>
        <time>2022-01-12T09:12:50Z</time>
      </trkpt>
      <trkpt lat="47.72019" lon="3.51269">
        <ele>219.8</ele>
        <time>2022-01-12T09:12:52Z</time>
      </trkpt>
      <trkpt lat="47.72018" lon="3.51268">
        <ele>219.7</ele>
        <time>2022-01-12T09:12:53Z</time>
      </trkpt>
      <trkpt lat="47.72017" lon="3.51267">
        <ele>219.6</ele>
        <time>2022-01-12T09:12:54Z</time>
      </trkpt>
      <trkpt lat="47.72016" lon="3.51266">
        <ele>219.5</ele>
        <time>2022-01-12T09:12:55Z</time>
      </trkpt>
      <trkpt lat="47.72015" lon="3.51266">
        <ele>219.4</ele>
        <time>2022-01-12T09:12:56Z</time>
      </trkpt>
      <trkpt lat="47.72014" lon="3.51266">
        <ele>219.3</ele>
        <time>2022-01-12T09:12:57Z</time>
      </trkpt>
      <trkpt lat="47.72013" lon="3.51266">
        <ele>219.2</ele>
        <time>2022-01-12T09:12:58Z</time>
      </trkpt>
      <trkpt lat="47.72012" lon="3.51265">
        <ele>219.2</ele>
        <time>2022-01-12T09:12:59Z</time>
      </trkpt>
      <trkpt lat="47.7201" lon="3.51263">
        <ele>219</ele>
        <time>2022-01-12T09:13:01Z</time>
      </trkpt>
      <trkpt lat="47.7201" lon="3.51263">
        <ele>218.9</ele>
        <time>2022-01-12T09:13:02Z</time>
      </trkpt>
      <trkpt lat="47.72009" lon="3.51262">
        <ele>218.8</ele>
        <time>2022-01-12T09:13:03Z</time>
      </trkpt>
      <trkpt lat="47.72008" lon="3.51261">
        <ele>218.8</ele>
        <time>2022-01-12T09:13:04Z</time>
      </trkpt>
      <trkpt lat="47.72008" lon="3.51259">
        <ele>218.7</ele>
        <time>2022-01-12T09:13:05Z</time>
      </trkpt>
      <trkpt lat="47.72007" lon="3.51258">
        <ele>218.6</ele>
        <time>2022-01-12T09:13:06Z</time>
      </trkpt>
      <trkpt lat="47.72005" lon="3.51257">
        <ele>218.5</ele>
        <time>2022-01-12T09:13:07Z</time>
      </trkpt>
      <trkpt lat="47.72004" lon="3.51257">
        <ele>218.4</ele>
        <time>2022-01-12T09:13:09Z</time>
      </trkpt>
      <trkpt lat="47.72003" lon="3.51256">
        <ele>218.3</ele>
        <time>2022-01-12T09:13:10Z</time>
      </trkpt>
      <trkpt lat="47.72001" lon="3.51255">
        <ele>218.2</ele>
        <time>2022-01-12T09:13:11Z</time>
      </trkpt>
      <trkpt lat="47.72" lon="3.51255">
        <ele>218.1</ele>
        <time>2022-01-12T09:13:12Z</time>
      </trkpt>
      <trkpt lat="47.72" lon="3.51255">
        <ele>218.1</ele>
        <time>2022-01-12T09:13:13Z</time>
      </trkpt>
      <trkpt lat="47.71998" lon="3.51254">
        <ele>218</ele>
        <time>2022-01-12T09:13:14Z</time>
      </trkpt>
      <trkpt lat="47.71997" lon="3.51253">
        <ele>217.9</ele>
        <time>2022-01-12T09:13:15Z</time>
      </trkpt>
      <trkpt lat="47.71996" lon="3.51252">
        <ele>217.8</ele>
        <time>2022-01-12T09:13:16Z</time>
      </trkpt>
      <trkpt lat="47.71994" lon="3.51251">
        <ele>217.7</ele>
        <time>2022-01-12T09:13:17Z</time>
      </trkpt>
      <trkpt lat="47.71993" lon="3.5125">
        <ele>217.6</ele>
        <time>2022-01-12T09:13:18Z</time>
      </trkpt>
      <trkpt lat="47.71992" lon="3.51248">
        <ele>217.5</ele>
        <time>2022-01-12T09:13:20Z</time>
      </trkpt>
      <trkpt lat="47.7199" lon="3.51247">
        <ele>217.4</ele>
        <time>2022-01-12T09:13:21Z</time>
      </trkpt>
      <trkpt lat="47.71989" lon="3.51246">
        <ele>217.4</ele>
        <time>2022-01-12T09:13:22Z</time>
      </trkpt>
      <trkpt lat="47.71988" lon="3.51245">
        <ele>217.3</ele>
        <time>2022-01-12T09:13:24Z</time>
      </trkpt>
      <trkpt lat="47.71986" lon="3.51244">
        <ele>217.2</ele>
        <time>2022-01-12T09:13:25Z</time>
      </trkpt>
      <trkpt lat="47.71986" lon="3.51243">
        <ele>217.2</ele>
        <time>2022-01-12T09:13:26Z</time>
      </trkpt>
      <trkpt lat="47.71985" lon="3.51242">
        <ele>217.2</ele>
        <time>2022-01-12T09:13:27Z</time>
      </trkpt>
      <trkpt lat="47.71984" lon="3.51241">
        <ele>217.1</ele>
        <time>2022-01-12T09:13:28Z</time>
      </trkpt>
      <trkpt lat="47.71984" lon="3.5124">
        <ele>217.1</ele>
        <time>2022-01-12T09:13:30Z</time>
      </trkpt>
      <trkpt lat="47.71983" lon="3.5124">
        <ele>217.1</ele>
        <time>2022-01-12T09:13:31Z</time>
      </trkpt>
      <trkpt lat="47.71982" lon="3.51239">
        <ele>217</ele>
        <time>2022-01-12T09:13:32Z</time>
      </trkpt>
      <trkpt lat="47.71981" lon="3.51239">
        <ele>217</ele>
        <time>2022-01-12T09:13:33Z</time>
      </trkpt>
      <trkpt lat="47.7198" lon="3.51238">
        <ele>217</ele>
        <time>2022-01-12T09:13:34Z</time>
      </trkpt>
      <trkpt lat="47.71979" lon="3.51238">
        <ele>217</ele>
        <time>2022-01-12T09:13:35Z</time>
      </trkpt>
      <trkpt lat="47.71979" lon="3.51238">
        <ele>216.9</ele>
        <time>2022-01-12T09:13:36Z</time>
      </trkpt>
      <trkpt lat="47.71978" lon="3.51237">
        <ele>216.9</ele>
        <time>2022-01-12T09:13:37Z</time>
      </trkpt>
      <trkpt lat="47.71977" lon="3.51237">
        <ele>216.9</ele>
        <time>2022-01-12T09:13:38Z</time>
      </trkpt>
      <trkpt lat="47.71977" lon="3.51236">
        <ele>216.9</ele>
        <time>2022-01-12T09:13:39Z</time>
      </trkpt>
      <trkpt lat="47.71976" lon="3.51235">
        <ele>216.8</ele>
        <time>2022-01-12T09:13:40Z</time>
      </trkpt>
      <trkpt lat="47.71975" lon="3.51234">
        <ele>216.8</ele>
        <time>2022-01-12T09:13:42Z</time>
      </trkpt>
      <trkpt lat="47.71974" lon="3.51233">
        <ele>216.8</ele>
        <time>2022-01-12T09:13:43Z</time>
      </trkpt>
      <trkpt lat="47.71972" lon="3.51232">
        <ele>216.7</ele>
        <time>2022-01-12T09:13:44Z</time>
      </trkpt>
      <trkpt lat="47.71971" lon="3.51231">
        <ele>216.7</ele>
        <time>2022-01-12T09:13:45Z</time>
      </trkpt>
      <trkpt lat="47.7197" lon="3.5123">
        <ele>216.7</ele>
        <time>2022-01-12T09:13:46Z</time>
      </trkpt>
      <trkpt lat="47.71969" lon="3.51229">
        <ele>216.6</ele>
        <time>2022-01-12T09:13:48Z</time>
      </trkpt>
      <trkpt lat="47.71968" lon="3.51228">
        <ele>216.6</ele>
        <time>2022-01-12T09:13:49Z</time>
      </trkpt>
      <trkpt lat="47.71966" lon="3.51227">
        <ele>216.6</ele>
        <time>2022-01-12T09:13:50Z</time>
      </trkpt>
      <trkpt lat="47.71965" lon="3.51226">
        <ele>216.5</ele>
        <time>2022-01-12T09:13:51Z</time>
      </trkpt>
      <trkpt lat="47.71964" lon="3.51225">
        <ele>216.5</ele>
        <time>2022-01-12T09:13:52Z</time>
      </trkpt>
      <trkpt lat="47.71963" lon="3.51225">
        <ele>216.5</ele>
        <time>2022-01-12T09:13:53Z</time>
      </trkpt>
      <trkpt lat="47.71962" lon="3.51224">
        <ele>216.5</ele>
        <time>2022-01-12T09:13:54Z</time>
      </trkpt>
      <trkpt lat="47.71961" lon="3.51223">
        <ele>216.5</ele>
        <time>2022-01-12T09:13:56Z</time>
      </trkpt>
      <trkpt lat="47.71959" lon="3.51221">
        <ele>216.5</ele>
        <time>2022-01-12T09:13:57Z</time>
      </trkpt>
      <trkpt lat="47.71958" lon="3.5122">
        <ele>216.5</ele>
        <time>2022-01-12T09:13:58Z</time>
      </trkpt>
      <trkpt lat="47.71957" lon="3.51219">
        <ele>216.5</ele>
        <time>2022-01-12T09:13:59Z</time>
      </trkpt>
      <trkpt lat="47.71956" lon="3.51218">
        <ele>216.6</ele>
        <time>2022-01-12T09:14:00Z</time>
      </trkpt>
      <trkpt lat="47.71955" lon="3.51217">
        <ele>216.6</ele>
        <time>2022-01-12T09:14:01Z</time>
      </trkpt>
      <trkpt lat="47.71954" lon="3.51217">
        <ele>216.6</ele>
        <time>2022-01-12T09:14:03Z</time>
      </trkpt>
      <trkpt lat="47.71953" lon="3.51216">
        <ele>216.7</ele>
        <time>2022-01-12T09:14:04Z</time>
      </trkpt>
      <trkpt lat="47.71951" lon="3.51214">
        <ele>216.7</ele>
        <time>2022-01-12T09:14:05Z</time>
      </trkpt>
      <trkpt lat="47.7195" lon="3.51214">
        <ele>216.8</ele>
        <time>2022-01-12T09:14:06Z</time>
      </trkpt>
      <trkpt lat="47.71949" lon="3.51213">
        <ele>216.8</ele>
        <time>2022-01-12T09:14:07Z</time>
      </trkpt>
      <trkpt lat="47.71948" lon="3.51212">
        <ele>216.9</ele>
        <time>2022-01-12T09:14:08Z</time>
      </trkpt>
      <trkpt lat="47.71946" lon="3.51211">
        <ele>217</ele>
        <time>2022-01-12T09:14:09Z</time>
      </trkpt>
      <trkpt lat="47.71945" lon="3.5121">
        <ele>217.1</ele>
        <time>2022-01-12T09:14:11Z</time>
      </trkpt>
      <trkpt lat="47.71944" lon="3.5121">
        <ele>217.1</ele>
        <time>2022-01-12T09:14:12Z</time>
      </trkpt>
      <trkpt lat="47.71942" lon="3.51209">
        <ele>217.2</ele>
        <time>2022-01-12T09:14:13Z</time>
      </trkpt>
      <trkpt lat="47.71941" lon="3.51209">
        <ele>217.3</ele>
        <time>2022-01-12T09:14:14Z</time>
      </trkpt>
      <trkpt lat="47.7194" lon="3.51209">
        <ele>217.3</ele>
        <time>2022-01-12T09:14:15Z</time>
      </trkpt>
      <trkpt lat="47.71939" lon="3.51209">
        <ele>217.3</ele>
        <time>2022-01-12T09:14:16Z</time>
      </trkpt>
      <trkpt lat="47.71938" lon="3.51209">
        <ele>217.4</ele>
        <time>2022-01-12T09:14:17Z</time>
      </trkpt>
      <trkpt lat="47.71937" lon="3.51209">
        <ele>217.5</ele>
        <time>2022-01-12T09:14:18Z</time>
      </trkpt>
      <trkpt lat="47.71935" lon="3.51207">
        <ele>217.6</ele>
        <time>2022-01-12T09:14:19Z</time>
      </trkpt>
      <trkpt lat="47.71934" lon="3.51206">
        <ele>217.6</ele>
        <time>2022-01-12T09:14:20Z</time>
      </trkpt>
      <trkpt lat="47.71934" lon="3.51205">
        <ele>217.6</ele>
        <time>2022-01-12T09:14:22Z</time>
      </trkpt>
      <trkpt lat="47.71933" lon="3.51204">
        <ele>217.7</ele>
        <time>2022-01-12T09:14:23Z</time>
      </trkpt>
      <trkpt lat="47.71932" lon="3.51203">
        <ele>217.7</ele>
        <time>2022-01-12T09:14:24Z</time>
      </trkpt>
      <trkpt lat="47.71931" lon="3.51203">
        <ele>217.8</ele>
        <time>2022-01-12T09:14:25Z</time>
      </trkpt>
      <trkpt lat="47.71931" lon="3.51202">
        <ele>217.8</ele>
        <time>2022-01-12T09:14:26Z</time>
      </trkpt>
      <trkpt lat="47.7193" lon="3.51201">
        <ele>217.8</ele>
        <time>2022-01-12T09:14:28Z</time>
      </trkpt>
      <trkpt lat="47.71929" lon="3.512">
        <ele>217.9</ele>
        <time>2022-01-12T09:14:29Z</time>
      </trkpt>
      <trkpt lat="47.71928" lon="3.51199">
        <ele>217.9</ele>
        <time>2022-01-12T09:14:30Z</time>
      </trkpt>
      <trkpt lat="47.71927" lon="3.51198">
        <ele>217.9</ele>
        <time>2022-01-12T09:14:31Z</time>
      </trkpt>
      <trkpt lat="47.71926" lon="3.51198">
        <ele>218</ele>
        <time>2022-01-12T09:14:32Z</time>
      </trkpt>
      <trkpt lat="47.71925" lon="3.51197">
        <ele>218</ele>
        <time>2022-01-12T09:14:33Z</time>
      </trkpt>
      <trkpt lat="47.71924" lon="3.51197">
        <ele>218.1</ele>
        <time>2022-01-12T09:14:34Z</time>
      </trkpt>
      <trkpt lat="47.71923" lon="3.51196">
        <ele>218.1</ele>
        <time>2022-01-12T09:14:36Z</time>
      </trkpt>
      <trkpt lat="47.71921" lon="3.51195">
        <ele>218.2</ele>
        <time>2022-01-12T09:14:37Z</time>
      </trkpt>
      <trkpt lat="47.7192" lon="3.51195">
        <ele>218.2</ele>
        <time>2022-01-12T09:14:38Z</time>
      </trkpt>
      <trkpt lat="47.71919" lon="3.51194">
        <ele>218.2</ele>
        <time>2022-01-12T09:14:39Z</time>
      </trkpt>
      <trkpt lat="47.71918" lon="3.51194">
        <ele>218.3</ele>
        <time>2022-01-12T09:14:40Z</time>
      </trkpt>
      <trkpt lat="47.71917" lon="3.51193">
        <ele>218.3</ele>
        <time>2022-01-12T09:14:41Z</time>
      </trkpt>
      <trkpt lat="47.71916" lon="3.51192">
        <ele>218.4</ele>
        <time>2022-01-12T09:14:43Z</time>
      </trkpt>
      <trkpt lat="47.71914" lon="3.51191">
        <ele>218.4</ele>
        <time>2022-01-12T09:14:44Z</time>
      </trkpt>
      <trkpt lat="47.71913" lon="3.5119">
        <ele>218.5</ele>
        <time>2022-01-12T09:14:45Z</time>
      </trkpt>
      <trkpt lat="47.71912" lon="3.51189">
        <ele>218.5</ele>
        <time>2022-01-12T09:14:46Z</time>
      </trkpt>
      <trkpt lat="47.71911" lon="3.51188">
        <ele>218.5</ele>
        <time>2022-01-12T09:14:47Z</time>
      </trkpt>
      <trkpt lat="47.7191" lon="3.51188">
        <ele>218.6</ele>
        <time>2022-01-12T09:14:48Z</time>
      </trkpt>
      <trkpt lat="47.71909" lon="3.51187">
        <ele>218.6</ele>
        <time>2022-01-12T09:14:49Z</time>
      </trkpt>
      <trkpt lat="47.71908" lon="3.51187">
        <ele>218.7</ele>
        <time>2022-01-12T09:14:51Z</time>
      </trkpt>
      <trkpt lat="47.71907" lon="3.51186">
        <ele>218.7</ele>
        <time>2022-01-12T09:14:52Z</time>
      </trkpt>
      <trkpt lat="47.71905" lon="3.51185">
        <ele>218.8</ele>
        <time>2022-01-12T09:14:53Z</time>
      </trkpt>
      <trkpt lat="47.71904" lon="3.51185">
        <ele>218.8</ele>
        <time>2022-01-12T09:14:54Z</time>
      </trkpt>
      <trkpt lat="47.71904" lon="3.51184">
        <ele>218.9</ele>
        <time>2022-01-12T09:14:55Z</time>
      </trkpt>
      <trkpt lat="47.71903" lon="3.51184">
        <ele>218.9</ele>
        <time>2022-01-12T09:14:56Z</time>
      </trkpt>
      <trkpt lat="47.71902" lon="3.51183">
        <ele>218.9</ele>
        <time>2022-01-12T09:14:57Z</time>
      </trkpt>
      <trkpt lat="47.71901" lon="3.51182">
        <ele>219</ele>
        <time>2022-01-12T09:14:59Z</time>
      </trkpt>
      <trkpt lat="47.719" lon="3.51181">
        <ele>219.1</ele>
        <time>2022-01-12T09:15:00Z</time>
      </trkpt>
      <trkpt lat="47.71899" lon="3.51181">
        <ele>219.1</ele>
        <time>2022-01-12T09:15:01Z</time>
      </trkpt>
      <trkpt lat="47.71898" lon="3.5118">
        <ele>219.2</ele>
        <time>2022-01-12T09:15:02Z</time>
      </trkpt>
      <trkpt lat="47.71897" lon="3.5118">
        <ele>219.2</ele>
        <time>2022-01-12T09:15:04Z</time>
      </trkpt>
      <trkpt lat="47.71896" lon="3.51179">
        <ele>219.3</ele>
        <time>2022-01-12T09:15:05Z</time>
      </trkpt>
      <trkpt lat="47.71895" lon="3.51178">
        <ele>219.3</ele>
        <time>2022-01-12T09:15:06Z</time>
      </trkpt>
      <trkpt lat="47.71895" lon="3.51177">
        <ele>219.4</ele>
        <time>2022-01-12T09:15:07Z</time>
      </trkpt>
      <trkpt lat="47.71894" lon="3.51176">
        <ele>219.5</ele>
        <time>2022-01-12T09:15:09Z</time>
      </trkpt>
      <trkpt lat="47.71893" lon="3.51175">
        <ele>219.6</ele>
        <time>2022-01-12T09:15:10Z</time>
      </trkpt>
      <trkpt lat="47.71892" lon="3.51174">
        <ele>219.7</ele>
        <time>2022-01-12T09:15:11Z</time>
      </trkpt>
      <trkpt lat="47.71891" lon="3.51173">
        <ele>219.8</ele>
        <time>2022-01-12T09:15:12Z</time>
      </trkpt>
      <trkpt lat="47.7189" lon="3.51172">
        <ele>219.9</ele>
        <time>2022-01-12T09:15:13Z</time>
      </trkpt>
      <trkpt lat="47.71888" lon="3.51171">
        <ele>220</ele>
        <time>2022-01-12T09:15:15Z</time>
      </trkpt>
      <trkpt lat="47.71887" lon="3.5117">
        <ele>220.1</ele>
        <time>2022-01-12T09:15:16Z</time>
      </trkpt>
      <trkpt lat="47.71886" lon="3.51169">
        <ele>220.1</ele>
        <time>2022-01-12T09:15:17Z</time>
      </trkpt>
      <trkpt lat="47.71886" lon="3.51169">
        <ele>220.2</ele>
        <time>2022-01-12T09:15:18Z</time>
      </trkpt>
      <trkpt lat="47.71885" lon="3.51168">
        <ele>220.3</ele>
        <time>2022-01-12T09:15:19Z</time>
      </trkpt>
      <trkpt lat="47.71884" lon="3.51167">
        <ele>220.4</ele>
        <time>2022-01-12T09:15:20Z</time>
      </trkpt>
      <trkpt lat="47.71882" lon="3.51166">
        <ele>220.5</ele>
        <time>2022-01-12T09:15:21Z</time>
      </trkpt>
      <trkpt lat="47.71882" lon="3.51165">
        <ele>220.5</ele>
        <time>2022-01-12T09:15:23Z</time>
      </trkpt>
      <trkpt lat="47.71881" lon="3.51164">
        <ele>220.6</ele>
        <time>2022-01-12T09:15:24Z</time>
      </trkpt>
      <trkpt lat="47.7188" lon="3.51163">
        <ele>220.7</ele>
        <time>2022-01-12T09:15:25Z</time>
      </trkpt>
      <trkpt lat="47.71879" lon="3.51163">
        <ele>220.7</ele>
        <time>2022-01-12T09:15:26Z</time>
      </trkpt>
      <trkpt lat="47.71878" lon="3.51162">
        <ele>220.8</ele>
        <time>2022-01-12T09:15:27Z</time>
      </trkpt>
      <trkpt lat="47.71877" lon="3.51161">
        <ele>220.8</ele>
        <time>2022-01-12T09:15:28Z</time>
      </trkpt>
      <trkpt lat="47.71877" lon="3.51161">
        <ele>220.9</ele>
        <time>2022-01-12T09:15:29Z</time>
      </trkpt>
      <trkpt lat="47.71876" lon="3.5116">
        <ele>220.9</ele>
        <time>2022-01-12T09:15:30Z</time>
      </trkpt>
      <trkpt lat="47.71875" lon="3.5116">
        <ele>221</ele>
        <time>2022-01-12T09:15:31Z</time>
      </trkpt>
      <trkpt lat="47.71873" lon="3.51159">
        <ele>221.1</ele>
        <time>2022-01-12T09:15:32Z</time>
      </trkpt>
      <trkpt lat="47.71872" lon="3.51158">
        <ele>221.2</ele>
        <time>2022-01-12T09:15:34Z</time>
      </trkpt>
      <trkpt lat="47.71871" lon="3.51157">
        <ele>221.2</ele>
        <time>2022-01-12T09:15:35Z</time>
      </trkpt>
      <trkpt lat="47.7187" lon="3.51156">
        <ele>221.3</ele>
        <time>2022-01-12T09:15:36Z</time>
      </trkpt>
      <trkpt lat="47.71869" lon="3.51155">
        <ele>221.4</ele>
        <time>2022-01-12T09:15:37Z</time>
      </trkpt>
      <trkpt lat="47.71868" lon="3.51154">
        <ele>221.5</ele>
        <time>2022-01-12T09:15:39Z</time>
      </trkpt>
      <trkpt lat="47.71866" lon="3.51153">
        <ele>221.6</ele>
        <time>2022-01-12T09:15:41Z</time>
      </trkpt>
      <trkpt lat="47.71865" lon="3.51153">
        <ele>221.7</ele>
        <time>2022-01-12T09:15:42Z</time>
      </trkpt>
      <trkpt lat="47.71864" lon="3.51152">
        <ele>221.7</ele>
        <time>2022-01-12T09:15:43Z</time>
      </trkpt>
      <trkpt lat="47.71863" lon="3.51152">
        <ele>221.8</ele>
        <time>2022-01-12T09:15:44Z</time>
      </trkpt>
      <trkpt lat="47.71862" lon="3.51152">
        <ele>221.9</ele>
        <time>2022-01-12T09:15:46Z</time>
      </trkpt>
      <trkpt lat="47.71861" lon="3.51151">
        <ele>222</ele>
        <time>2022-01-12T09:15:47Z</time>
      </trkpt>
      <trkpt lat="47.7186" lon="3.5115">
        <ele>222</ele>
        <time>2022-01-12T09:15:48Z</time>
      </trkpt>
      <trkpt lat="47.71859" lon="3.5115">
        <ele>222.1</ele>
        <time>2022-01-12T09:15:50Z</time>
      </trkpt>
      <trkpt lat="47.71858" lon="3.51149">
        <ele>222.2</ele>
        <time>2022-01-12T09:15:51Z</time>
      </trkpt>
      <trkpt lat="47.71856" lon="3.51148">
        <ele>222.3</ele>
        <time>2022-01-12T09:15:52Z</time>
      </trkpt>
      <trkpt lat="47.71855" lon="3.51147">
        <ele>222.4</ele>
        <time>2022-01-12T09:15:54Z</time>
      </trkpt>
      <trkpt lat="47.71854" lon="3.51147">
        <ele>222.5</ele>
        <time>2022-01-12T09:15:55Z</time>
      </trkpt>
      <trkpt lat="47.71853" lon="3.51146">
        <ele>222.5</ele>
        <time>2022-01-12T09:15:56Z</time>
      </trkpt>
      <trkpt lat="47.71852" lon="3.51145">
        <ele>222.6</ele>
        <time>2022-01-12T09:15:57Z</time>
      </trkpt>
      <trkpt lat="47.71851" lon="3.51145">
        <ele>222.7</ele>
        <time>2022-01-12T09:15:58Z</time>
      </trkpt>
      <trkpt lat="47.71849" lon="3.51144">
        <ele>222.9</ele>
        <time>2022-01-12T09:16:00Z</time>
      </trkpt>
      <trkpt lat="47.71848" lon="3.51143">
        <ele>222.9</ele>
        <time>2022-01-12T09:16:01Z</time>
      </trkpt>
      <trkpt lat="47.71848" lon="3.51142">
        <ele>223</ele>
        <time>2022-01-12T09:16:02Z</time>
      </trkpt>
      <trkpt lat="47.71847" lon="3.51142">
        <ele>223</ele>
        <time>2022-01-12T09:16:03Z</time>
      </trkpt>
      <trkpt lat="47.71846" lon="3.51141">
        <ele>223.1</ele>
        <time>2022-01-12T09:16:05Z</time>
      </trkpt>
      <trkpt lat="47.71844" lon="3.5114">
        <ele>223.2</ele>
        <time>2022-01-12T09:16:06Z</time>
      </trkpt>
      <trkpt lat="47.71843" lon="3.51139">
        <ele>223.3</ele>
        <time>2022-01-12T09:16:07Z</time>
      </trkpt>
      <trkpt lat="47.71842" lon="3.51138">
        <ele>223.4</ele>
        <time>2022-01-12T09:16:08Z</time>
      </trkpt>
      <trkpt lat="47.71841" lon="3.51138">
        <ele>223.5</ele>
        <time>2022-01-12T09:16:09Z</time>
      </trkpt>
      <trkpt lat="47.7184" lon="3.51137">
        <ele>223.6</ele>
        <time>2022-01-12T09:16:10Z</time>
      </trkpt>
      <trkpt lat="47.71839" lon="3.51135">
        <ele>223.7</ele>
        <time>2022-01-12T09:16:12Z</time>
      </trkpt>
      <trkpt lat="47.71838" lon="3.51135">
        <ele>223.8</ele>
        <time>2022-01-12T09:16:13Z</time>
      </trkpt>
      <trkpt lat="47.71837" lon="3.51134">
        <ele>223.9</ele>
        <time>2022-01-12T09:16:14Z</time>
      </trkpt>
      <trkpt lat="47.71836" lon="3.51133">
        <ele>224</ele>
        <time>2022-01-12T09:16:15Z</time>
      </trkpt>
      <trkpt lat="47.71834" lon="3.51131">
        <ele>224.1</ele>
        <time>2022-01-12T09:16:16Z</time>
      </trkpt>
      <trkpt lat="47.71833" lon="3.5113">
        <ele>224.2</ele>
        <time>2022-01-12T09:16:18Z</time>
      </trkpt>
      <trkpt lat="47.71832" lon="3.51129">
        <ele>224.3</ele>
        <time>2022-01-12T09:16:19Z</time>
      </trkpt>
      <trkpt lat="47.71831" lon="3.51128">
        <ele>224.4</ele>
        <time>2022-01-12T09:16:20Z</time>
      </trkpt>
      <trkpt lat="47.7183" lon="3.51127">
        <ele>224.5</ele>
        <time>2022-01-12T09:16:21Z</time>
      </trkpt>
      <trkpt lat="47.71829" lon="3.51126">
        <ele>224.6</ele>
        <time>2022-01-12T09:16:22Z</time>
      </trkpt>
      <trkpt lat="47.71828" lon="3.51126">
        <ele>224.6</ele>
        <time>2022-01-12T09:16:23Z</time>
      </trkpt>
      <trkpt lat="47.71827" lon="3.51125">
        <ele>224.7</ele>
        <time>2022-01-12T09:16:24Z</time>
      </trkpt>
      <trkpt lat="47.71825" lon="3.51124">
        <ele>224.9</ele>
        <time>2022-01-12T09:16:25Z</time>
      </trkpt>
      <trkpt lat="47.71825" lon="3.51123">
        <ele>224.9</ele>
        <time>2022-01-12T09:16:26Z</time>
      </trkpt>
      <trkpt lat="47.71824" lon="3.51123">
        <ele>225</ele>
        <time>2022-01-12T09:16:27Z</time>
      </trkpt>
      <trkpt lat="47.71822" lon="3.51122">
        <ele>225.1</ele>
        <time>2022-01-12T09:16:28Z</time>
      </trkpt>
      <trkpt lat="47.71821" lon="3.51121">
        <ele>225.2</ele>
        <time>2022-01-12T09:16:30Z</time>
      </trkpt>
      <trkpt lat="47.7182" lon="3.51121">
        <ele>225.2</ele>
        <time>2022-01-12T09:16:31Z</time>
      </trkpt>
      <trkpt lat="47.71819" lon="3.5112">
        <ele>225.3</ele>
        <time>2022-01-12T09:16:32Z</time>
      </trkpt>
      <trkpt lat="47.71818" lon="3.51119">
        <ele>225.4</ele>
        <time>2022-01-12T09:16:33Z</time>
      </trkpt>
      <trkpt lat="47.71816" lon="3.51117">
        <ele>225.5</ele>
        <time>2022-01-12T09:16:35Z</time>
      </trkpt>
      <trkpt lat="47.71815" lon="3.51116">
        <ele>225.6</ele>
        <time>2022-01-12T09:16:36Z</time>
      </trkpt>
      <trkpt lat="47.71814" lon="3.51116">
        <ele>225.6</ele>
        <time>2022-01-12T09:16:37Z</time>
      </trkpt>
      <trkpt lat="47.71813" lon="3.51115">
        <ele>225.7</ele>
        <time>2022-01-12T09:16:38Z</time>
      </trkpt>
      <trkpt lat="47.71811" lon="3.51113">
        <ele>225.8</ele>
        <time>2022-01-12T09:16:40Z</time>
      </trkpt>
      <trkpt lat="47.7181" lon="3.51113">
        <ele>225.8</ele>
        <time>2022-01-12T09:16:41Z</time>
      </trkpt>
      <trkpt lat="47.71809" lon="3.51112">
        <ele>225.8</ele>
        <time>2022-01-12T09:16:42Z</time>
      </trkpt>
      <trkpt lat="47.71808" lon="3.51111">
        <ele>225.9</ele>
        <time>2022-01-12T09:16:43Z</time>
      </trkpt>
      <trkpt lat="47.71806" lon="3.51109">
        <ele>226</ele>
        <time>2022-01-12T09:16:44Z</time>
      </trkpt>
      <trkpt lat="47.71806" lon="3.51108">
        <ele>226</ele>
        <time>2022-01-12T09:16:46Z</time>
      </trkpt>
      <trkpt lat="47.71805" lon="3.51107">
        <ele>226.1</ele>
        <time>2022-01-12T09:16:47Z</time>
      </trkpt>
      <trkpt lat="47.71803" lon="3.51106">
        <ele>226.1</ele>
        <time>2022-01-12T09:16:48Z</time>
      </trkpt>
      <trkpt lat="47.71803" lon="3.51105">
        <ele>226.2</ele>
        <time>2022-01-12T09:16:49Z</time>
      </trkpt>
      <trkpt lat="47.71802" lon="3.51104">
        <ele>226.2</ele>
        <time>2022-01-12T09:16:50Z</time>
      </trkpt>
      <trkpt lat="47.71801" lon="3.51104">
        <ele>226.2</ele>
        <time>2022-01-12T09:16:51Z</time>
      </trkpt>
      <trkpt lat="47.718" lon="3.51102">
        <ele>226.3</ele>
        <time>2022-01-12T09:16:52Z</time>
      </trkpt>
      <trkpt lat="47.71799" lon="3.51101">
        <ele>226.3</ele>
        <time>2022-01-12T09:16:54Z</time>
      </trkpt>
      <trkpt lat="47.71797" lon="3.51099">
        <ele>226.4</ele>
        <time>2022-01-12T09:16:55Z</time>
      </trkpt>
      <trkpt lat="47.71796" lon="3.51098">
        <ele>226.5</ele>
        <time>2022-01-12T09:16:56Z</time>
      </trkpt>
      <trkpt lat="47.71796" lon="3.51098">
        <ele>226.5</ele>
        <time>2022-01-12T09:16:57Z</time>
      </trkpt>
      <trkpt lat="47.71794" lon="3.51096">
        <ele>226.6</ele>
        <time>2022-01-12T09:16:58Z</time>
      </trkpt>
      <trkpt lat="47.71793" lon="3.51095">
        <ele>226.6</ele>
        <time>2022-01-12T09:17:00Z</time>
      </trkpt>
      <trkpt lat="47.71792" lon="3.51094">
        <ele>226.7</ele>
        <time>2022-01-12T09:17:01Z</time>
      </trkpt>
      <trkpt lat="47.71791" lon="3.51093">
        <ele>226.8</ele>
        <time>2022-01-12T09:17:02Z</time>
      </trkpt>
      <trkpt lat="47.71789" lon="3.51091">
        <ele>226.9</ele>
        <time>2022-01-12T09:17:03Z</time>
      </trkpt>
      <trkpt lat="47.71788" lon="3.51091">
        <ele>226.9</ele>
        <time>2022-01-12T09:17:04Z</time>
      </trkpt>
      <trkpt lat="47.71787" lon="3.5109">
        <ele>227</ele>
        <time>2022-01-12T09:17:05Z</time>
      </trkpt>
      <trkpt lat="47.71786" lon="3.51089">
        <ele>227.1</ele>
        <time>2022-01-12T09:17:07Z</time>
      </trkpt>
      <trkpt lat="47.71784" lon="3.51087">
        <ele>227.3</ele>
        <time>2022-01-12T09:17:08Z</time>
      </trkpt>
      <trkpt lat="47.71783" lon="3.51086">
        <ele>227.3</ele>
        <time>2022-01-12T09:17:10Z</time>
      </trkpt>
      <trkpt lat="47.71782" lon="3.51085">
        <ele>227.4</ele>
        <time>2022-01-12T09:17:11Z</time>
      </trkpt>
      <trkpt lat="47.7178" lon="3.51084">
        <ele>227.5</ele>
        <time>2022-01-12T09:17:12Z</time>
      </trkpt>
      <trkpt lat="47.71779" lon="3.51083">
        <ele>227.7</ele>
        <time>2022-01-12T09:17:13Z</time>
      </trkpt>
      <trkpt lat="47.71778" lon="3.51082">
        <ele>227.7</ele>
        <time>2022-01-12T09:17:14Z</time>
      </trkpt>
      <trkpt lat="47.71776" lon="3.51082">
        <ele>227.9</ele>
        <time>2022-01-12T09:17:15Z</time>
      </trkpt>
      <trkpt lat="47.71775" lon="3.51081">
        <ele>227.9</ele>
        <time>2022-01-12T09:17:16Z</time>
      </trkpt>
      <trkpt lat="47.71774" lon="3.51081">
        <ele>228</ele>
        <time>2022-01-12T09:17:17Z</time>
      </trkpt>
      <trkpt lat="47.71773" lon="3.5108">
        <ele>228.1</ele>
        <time>2022-01-12T09:17:19Z</time>
      </trkpt>
      <trkpt lat="47.71772" lon="3.51079">
        <ele>228.2</ele>
        <time>2022-01-12T09:17:20Z</time>
      </trkpt>
      <trkpt lat="47.7177" lon="3.51078">
        <ele>228.3</ele>
        <time>2022-01-12T09:17:21Z</time>
      </trkpt>
      <trkpt lat="47.71769" lon="3.51078">
        <ele>228.4</ele>
        <time>2022-01-12T09:17:22Z</time>
      </trkpt>
      <trkpt lat="47.71768" lon="3.51077">
        <ele>228.5</ele>
        <time>2022-01-12T09:17:24Z</time>
      </trkpt>
      <trkpt lat="47.71766" lon="3.51076">
        <ele>228.6</ele>
        <time>2022-01-12T09:17:25Z</time>
      </trkpt>
      <trkpt lat="47.71765" lon="3.51075">
        <ele>228.7</ele>
        <time>2022-01-12T09:17:26Z</time>
      </trkpt>
      <trkpt lat="47.71765" lon="3.51075">
        <ele>228.7</ele>
        <time>2022-01-12T09:17:27Z</time>
      </trkpt>
      <trkpt lat="47.71763" lon="3.51074">
        <ele>228.8</ele>
        <time>2022-01-12T09:17:28Z</time>
      </trkpt>
      <trkpt lat="47.71762" lon="3.51073">
        <ele>228.9</ele>
        <time>2022-01-12T09:17:29Z</time>
      </trkpt>
      <trkpt lat="47.71762" lon="3.51072">
        <ele>229</ele>
        <time>2022-01-12T09:17:30Z</time>
      </trkpt>
      <trkpt lat="47.71761" lon="3.51072">
        <ele>229</ele>
        <time>2022-01-12T09:17:31Z</time>
      </trkpt>
      <trkpt lat="47.7176" lon="3.51071">
        <ele>229.1</ele>
        <time>2022-01-12T09:17:32Z</time>
      </trkpt>
      <trkpt lat="47.71758" lon="3.51071">
        <ele>229.2</ele>
        <time>2022-01-12T09:17:34Z</time>
      </trkpt>
      <trkpt lat="47.71757" lon="3.5107">
        <ele>229.4</ele>
        <time>2022-01-12T09:17:35Z</time>
      </trkpt>
      <trkpt lat="47.71756" lon="3.51069">
        <ele>229.4</ele>
        <time>2022-01-12T09:17:36Z</time>
      </trkpt>
      <trkpt lat="47.71754" lon="3.51068">
        <ele>229.6</ele>
        <time>2022-01-12T09:17:37Z</time>
      </trkpt>
      <trkpt lat="47.71753" lon="3.51068">
        <ele>229.7</ele>
        <time>2022-01-12T09:17:39Z</time>
      </trkpt>
      <trkpt lat="47.71752" lon="3.51067">
        <ele>229.8</ele>
        <time>2022-01-12T09:17:40Z</time>
      </trkpt>
      <trkpt lat="47.7175" lon="3.51066">
        <ele>229.9</ele>
        <time>2022-01-12T09:17:41Z</time>
      </trkpt>
      <trkpt lat="47.7175" lon="3.51066">
        <ele>230</ele>
        <time>2022-01-12T09:17:42Z</time>
      </trkpt>
      <trkpt lat="47.71749" lon="3.51066">
        <ele>230</ele>
        <time>2022-01-12T09:17:43Z</time>
      </trkpt>
      <trkpt lat="47.71748" lon="3.51066">
        <ele>230.1</ele>
        <time>2022-01-12T09:17:44Z</time>
      </trkpt>
      <trkpt lat="47.71747" lon="3.51065">
        <ele>230.2</ele>
        <time>2022-01-12T09:17:46Z</time>
      </trkpt>
      <trkpt lat="47.71746" lon="3.51065">
        <ele>230.2</ele>
        <time>2022-01-12T09:17:47Z</time>
      </trkpt>
      <trkpt lat="47.71745" lon="3.51064">
        <ele>230.3</ele>
        <time>2022-01-12T09:17:48Z</time>
      </trkpt>
      <trkpt lat="47.71744" lon="3.51063">
        <ele>230.4</ele>
        <time>2022-01-12T09:17:49Z</time>
      </trkpt>
      <trkpt lat="47.71742" lon="3.51062">
        <ele>230.5</ele>
        <time>2022-01-12T09:17:50Z</time>
      </trkpt>
      <trkpt lat="47.71741" lon="3.51062">
        <ele>230.5</ele>
        <time>2022-01-12T09:17:51Z</time>
      </trkpt>
      <trkpt lat="47.7174" lon="3.51061">
        <ele>230.6</ele>
        <time>2022-01-12T09:17:53Z</time>
      </trkpt>
      <trkpt lat="47.71739" lon="3.5106">
        <ele>230.7</ele>
        <time>2022-01-12T09:17:54Z</time>
      </trkpt>
      <trkpt lat="47.71737" lon="3.5106">
        <ele>230.8</ele>
        <time>2022-01-12T09:17:55Z</time>
      </trkpt>
      <trkpt lat="47.71736" lon="3.51059">
        <ele>230.9</ele>
        <time>2022-01-12T09:17:56Z</time>
      </trkpt>
      <trkpt lat="47.71735" lon="3.51058">
        <ele>230.9</ele>
        <time>2022-01-12T09:17:57Z</time>
      </trkpt>
      <trkpt lat="47.71734" lon="3.51057">
        <ele>230.9</ele>
        <time>2022-01-12T09:17:59Z</time>
      </trkpt>
      <trkpt lat="47.71733" lon="3.51056">
        <ele>231</ele>
        <time>2022-01-12T09:18:00Z</time>
      </trkpt>
      <trkpt lat="47.71733" lon="3.51055">
        <ele>231</ele>
        <time>2022-01-12T09:18:01Z</time>
      </trkpt>
      <trkpt lat="47.71732" lon="3.51054">
        <ele>231.1</ele>
        <time>2022-01-12T09:18:02Z</time>
      </trkpt>
      <trkpt lat="47.7173" lon="3.51053">
        <ele>231.2</ele>
        <time>2022-01-12T09:18:03Z</time>
      </trkpt>
      <trkpt lat="47.71729" lon="3.51052">
        <ele>231.2</ele>
        <time>2022-01-12T09:18:05Z</time>
      </trkpt>
      <trkpt lat="47.71728" lon="3.51051">
        <ele>231.2</ele>
        <time>2022-01-12T09:18:06Z</time>
      </trkpt>
      <trkpt lat="47.71727" lon="3.51051">
        <ele>231.3</ele>
        <time>2022-01-12T09:18:07Z</time>
      </trkpt>
      <trkpt lat="47.71726" lon="3.5105">
        <ele>231.3</ele>
        <time>2022-01-12T09:18:09Z</time>
      </trkpt>
      <trkpt lat="47.71725" lon="3.51049">
        <ele>231.4</ele>
        <time>2022-01-12T09:18:10Z</time>
      </trkpt>
      <trkpt lat="47.71725" lon="3.51048">
        <ele>231.4</ele>
        <time>2022-01-12T09:18:11Z</time>
      </trkpt>
      <trkpt lat="47.71724" lon="3.51047">
        <ele>231.5</ele>
        <time>2022-01-12T09:18:12Z</time>
      </trkpt>
      <trkpt lat="47.71724" lon="3.51046">
        <ele>231.5</ele>
        <time>2022-01-12T09:18:13Z</time>
      </trkpt>
      <trkpt lat="47.71722" lon="3.51044">
        <ele>231.6</ele>
        <time>2022-01-12T09:18:15Z</time>
      </trkpt>
      <trkpt lat="47.71722" lon="3.51044">
        <ele>231.6</ele>
        <time>2022-01-12T09:18:16Z</time>
      </trkpt>
      <trkpt lat="47.71721" lon="3.51043">
        <ele>231.7</ele>
        <time>2022-01-12T09:18:17Z</time>
      </trkpt>
      <trkpt lat="47.7172" lon="3.51042">
        <ele>231.7</ele>
        <time>2022-01-12T09:18:18Z</time>
      </trkpt>
      <trkpt lat="47.7172" lon="3.5104">
        <ele>231.8</ele>
        <time>2022-01-12T09:18:20Z</time>
      </trkpt>
      <trkpt lat="47.71719" lon="3.51039">
        <ele>231.9</ele>
        <time>2022-01-12T09:18:21Z</time>
      </trkpt>
      <trkpt lat="47.71718" lon="3.51038">
        <ele>231.9</ele>
        <time>2022-01-12T09:18:22Z</time>
      </trkpt>
      <trkpt lat="47.71717" lon="3.51037">
        <ele>232</ele>
        <time>2022-01-12T09:18:23Z</time>
      </trkpt>
      <trkpt lat="47.71716" lon="3.51036">
        <ele>232</ele>
        <time>2022-01-12T09:18:24Z</time>
      </trkpt>
      <trkpt lat="47.71715" lon="3.51035">
        <ele>232.1</ele>
        <time>2022-01-12T09:18:26Z</time>
      </trkpt>
      <trkpt lat="47.71714" lon="3.51034">
        <ele>232.1</ele>
        <time>2022-01-12T09:18:27Z</time>
      </trkpt>
      <trkpt lat="47.71713" lon="3.51033">
        <ele>232.2</ele>
        <time>2022-01-12T09:18:28Z</time>
      </trkpt>
      <trkpt lat="47.71712" lon="3.51032">
        <ele>232.2</ele>
        <time>2022-01-12T09:18:29Z</time>
      </trkpt>
      <trkpt lat="47.71711" lon="3.51031">
        <ele>232.3</ele>
        <time>2022-01-12T09:18:30Z</time>
      </trkpt>
      <trkpt lat="47.7171" lon="3.51031">
        <ele>232.3</ele>
        <time>2022-01-12T09:18:31Z</time>
      </trkpt>
      <trkpt lat="47.71709" lon="3.51031">
        <ele>232.4</ele>
        <time>2022-01-12T09:18:32Z</time>
      </trkpt>
      <trkpt lat="47.71708" lon="3.5103">
        <ele>232.4</ele>
        <time>2022-01-12T09:18:33Z</time>
      </trkpt>
      <trkpt lat="47.71705" lon="3.51029">
        <ele>232.5</ele>
        <time>2022-01-12T09:18:35Z</time>
      </trkpt>
      <trkpt lat="47.71704" lon="3.51028">
        <ele>232.6</ele>
        <time>2022-01-12T09:18:37Z</time>
      </trkpt>
      <trkpt lat="47.71703" lon="3.51027">
        <ele>232.6</ele>
        <time>2022-01-12T09:18:38Z</time>
      </trkpt>
      <trkpt lat="47.71703" lon="3.51026">
        <ele>232.6</ele>
        <time>2022-01-12T09:18:39Z</time>
      </trkpt>
      <trkpt lat="47.71702" lon="3.51025">
        <ele>232.7</ele>
        <time>2022-01-12T09:18:40Z</time>
      </trkpt>
      <trkpt lat="47.71701" lon="3.51023">
        <ele>232.8</ele>
        <time>2022-01-12T09:18:41Z</time>
      </trkpt>
      <trkpt lat="47.71699" lon="3.51021">
        <ele>232.9</ele>
        <time>2022-01-12T09:18:42Z</time>
      </trkpt>
      <trkpt lat="47.71698" lon="3.5102">
        <ele>232.9</ele>
        <time>2022-01-12T09:18:44Z</time>
      </trkpt>
      <trkpt lat="47.71697" lon="3.51019">
        <ele>233</ele>
        <time>2022-01-12T09:18:45Z</time>
      </trkpt>
      <trkpt lat="47.71696" lon="3.51019">
        <ele>233.1</ele>
        <time>2022-01-12T09:18:47Z</time>
      </trkpt>
      <trkpt lat="47.71695" lon="3.51018">
        <ele>233.1</ele>
        <time>2022-01-12T09:18:48Z</time>
      </trkpt>
      <trkpt lat="47.71694" lon="3.51017">
        <ele>233.2</ele>
        <time>2022-01-12T09:18:49Z</time>
      </trkpt>
      <trkpt lat="47.71692" lon="3.51015">
        <ele>233.5</ele>
        <time>2022-01-12T09:18:50Z</time>
      </trkpt>
      <trkpt lat="47.71691" lon="3.51015">
        <ele>233.6</ele>
        <time>2022-01-12T09:18:52Z</time>
      </trkpt>
      <trkpt lat="47.7169" lon="3.51014">
        <ele>233.7</ele>
        <time>2022-01-12T09:18:53Z</time>
      </trkpt>
      <trkpt lat="47.71689" lon="3.51013">
        <ele>233.8</ele>
        <time>2022-01-12T09:18:55Z</time>
      </trkpt>
      <trkpt lat="47.71688" lon="3.51013">
        <ele>233.9</ele>
        <time>2022-01-12T09:18:56Z</time>
      </trkpt>
      <trkpt lat="47.71686" lon="3.51012">
        <ele>234</ele>
        <time>2022-01-12T09:18:57Z</time>
      </trkpt>
      <trkpt lat="47.71685" lon="3.51011">
        <ele>234.1</ele>
        <time>2022-01-12T09:18:58Z</time>
      </trkpt>
      <trkpt lat="47.71684" lon="3.5101">
        <ele>234.3</ele>
        <time>2022-01-12T09:18:59Z</time>
      </trkpt>
      <trkpt lat="47.71682" lon="3.51009">
        <ele>234.4</ele>
        <time>2022-01-12T09:19:00Z</time>
      </trkpt>
      <trkpt lat="47.71681" lon="3.51008">
        <ele>234.5</ele>
        <time>2022-01-12T09:19:01Z</time>
      </trkpt>
      <trkpt lat="47.7168" lon="3.51007">
        <ele>234.6</ele>
        <time>2022-01-12T09:19:02Z</time>
      </trkpt>
      <trkpt lat="47.71679" lon="3.51007">
        <ele>234.6</ele>
        <time>2022-01-12T09:19:03Z</time>
      </trkpt>
      <trkpt lat="47.71677" lon="3.51005">
        <ele>234.8</ele>
        <time>2022-01-12T09:19:04Z</time>
      </trkpt>
      <trkpt lat="47.71675" lon="3.51005">
        <ele>234.8</ele>
        <time>2022-01-12T09:19:06Z</time>
      </trkpt>
      <trkpt lat="47.71674" lon="3.51004">
        <ele>234.9</ele>
        <time>2022-01-12T09:19:07Z</time>
      </trkpt>
      <trkpt lat="47.71673" lon="3.51003">
        <ele>234.9</ele>
        <time>2022-01-12T09:19:08Z</time>
      </trkpt>
      <trkpt lat="47.71672" lon="3.51003">
        <ele>235</ele>
        <time>2022-01-12T09:19:09Z</time>
      </trkpt>
      <trkpt lat="47.7167" lon="3.51001">
        <ele>235.1</ele>
        <time>2022-01-12T09:19:10Z</time>
      </trkpt>
      <trkpt lat="47.71669" lon="3.51">
        <ele>235.1</ele>
        <time>2022-01-12T09:19:11Z</time>
      </trkpt>
      <trkpt lat="47.71668" lon="3.51">
        <ele>235.2</ele>
        <time>2022-01-12T09:19:12Z</time>
      </trkpt>
      <trkpt lat="47.71667" lon="3.50998">
        <ele>235.2</ele>
        <time>2022-01-12T09:19:13Z</time>
      </trkpt>
      <trkpt lat="47.71666" lon="3.50997">
        <ele>235.3</ele>
        <time>2022-01-12T09:19:15Z</time>
      </trkpt>
      <trkpt lat="47.71664" lon="3.50996">
        <ele>235.3</ele>
        <time>2022-01-12T09:19:16Z</time>
      </trkpt>
      <trkpt lat="47.71664" lon="3.50995">
        <ele>235.4</ele>
        <time>2022-01-12T09:19:17Z</time>
      </trkpt>
      <trkpt lat="47.71662" lon="3.50994">
        <ele>235.4</ele>
        <time>2022-01-12T09:19:18Z</time>
      </trkpt>
      <trkpt lat="47.71661" lon="3.50993">
        <ele>235.5</ele>
        <time>2022-01-12T09:19:19Z</time>
      </trkpt>
      <trkpt lat="47.71659" lon="3.50991">
        <ele>235.5</ele>
        <time>2022-01-12T09:19:20Z</time>
      </trkpt>
      <trkpt lat="47.71658" lon="3.5099">
        <ele>235.6</ele>
        <time>2022-01-12T09:19:22Z</time>
      </trkpt>
      <trkpt lat="47.71657" lon="3.50989">
        <ele>235.6</ele>
        <time>2022-01-12T09:19:23Z</time>
      </trkpt>
      <trkpt lat="47.71656" lon="3.50988">
        <ele>235.7</ele>
        <time>2022-01-12T09:19:24Z</time>
      </trkpt>
      <trkpt lat="47.71655" lon="3.50987">
        <ele>235.7</ele>
        <time>2022-01-12T09:19:25Z</time>
      </trkpt>
      <trkpt lat="47.71655" lon="3.50986">
        <ele>235.7</ele>
        <time>2022-01-12T09:19:26Z</time>
      </trkpt>
      <trkpt lat="47.71654" lon="3.50986">
        <ele>235.8</ele>
        <time>2022-01-12T09:19:28Z</time>
      </trkpt>
      <trkpt lat="47.71653" lon="3.50985">
        <ele>235.8</ele>
        <time>2022-01-12T09:19:29Z</time>
      </trkpt>
      <trkpt lat="47.71651" lon="3.50983">
        <ele>235.8</ele>
        <time>2022-01-12T09:19:31Z</time>
      </trkpt>
      <trkpt lat="47.7165" lon="3.50982">
        <ele>235.8</ele>
        <time>2022-01-12T09:19:32Z</time>
      </trkpt>
      <trkpt lat="47.71649" lon="3.50982">
        <ele>235.8</ele>
        <time>2022-01-12T09:19:33Z</time>
      </trkpt>
      <trkpt lat="47.71648" lon="3.50981">
        <ele>235.8</ele>
        <time>2022-01-12T09:19:34Z</time>
      </trkpt>
      <trkpt lat="47.71647" lon="3.5098">
        <ele>235.8</ele>
        <time>2022-01-12T09:19:35Z</time>
      </trkpt>
      <trkpt lat="47.71646" lon="3.5098">
        <ele>235.8</ele>
        <time>2022-01-12T09:19:36Z</time>
      </trkpt>
      <trkpt lat="47.71646" lon="3.5098">
        <ele>235.9</ele>
        <time>2022-01-12T09:19:37Z</time>
      </trkpt>
      <trkpt lat="47.71645" lon="3.50979">
        <ele>235.9</ele>
        <time>2022-01-12T09:19:38Z</time>
      </trkpt>
      <trkpt lat="47.71643" lon="3.50977">
        <ele>235.9</ele>
        <time>2022-01-12T09:19:40Z</time>
      </trkpt>
      <trkpt lat="47.71642" lon="3.50977">
        <ele>235.9</ele>
        <time>2022-01-12T09:19:41Z</time>
      </trkpt>
      <trkpt lat="47.71641" lon="3.50976">
        <ele>236</ele>
        <time>2022-01-12T09:19:42Z</time>
      </trkpt>
      <trkpt lat="47.71641" lon="3.50975">
        <ele>236</ele>
        <time>2022-01-12T09:19:43Z</time>
      </trkpt>
      <trkpt lat="47.7164" lon="3.50975">
        <ele>236</ele>
        <time>2022-01-12T09:19:44Z</time>
      </trkpt>
      <trkpt lat="47.71638" lon="3.50975">
        <ele>236.1</ele>
        <time>2022-01-12T09:19:46Z</time>
      </trkpt>
      <trkpt lat="47.71637" lon="3.50975">
        <ele>236.1</ele>
        <time>2022-01-12T09:19:47Z</time>
      </trkpt>
      <trkpt lat="47.71636" lon="3.50975">
        <ele>236.1</ele>
        <time>2022-01-12T09:19:48Z</time>
      </trkpt>
      <trkpt lat="47.71635" lon="3.50975">
        <ele>236.1</ele>
        <time>2022-01-12T09:19:49Z</time>
      </trkpt>
      <trkpt lat="47.71633" lon="3.50974">
        <ele>236.2</ele>
        <time>2022-01-12T09:19:50Z</time>
      </trkpt>
      <trkpt lat="47.71632" lon="3.50973">
        <ele>236.2</ele>
        <time>2022-01-12T09:19:51Z</time>
      </trkpt>
      <trkpt lat="47.7163" lon="3.50972">
        <ele>236.3</ele>
        <time>2022-01-12T09:19:52Z</time>
      </trkpt>
      <trkpt lat="47.71629" lon="3.50972">
        <ele>236.3</ele>
        <time>2022-01-12T09:19:54Z</time>
      </trkpt>
      <trkpt lat="47.71629" lon="3.50971">
        <ele>236.3</ele>
        <time>2022-01-12T09:19:55Z</time>
      </trkpt>
      <trkpt lat="47.71627" lon="3.50971">
        <ele>236.4</ele>
        <time>2022-01-12T09:19:56Z</time>
      </trkpt>
      <trkpt lat="47.71626" lon="3.5097">
        <ele>236.4</ele>
        <time>2022-01-12T09:19:57Z</time>
      </trkpt>
      <trkpt lat="47.71624" lon="3.50969">
        <ele>236.5</ele>
        <time>2022-01-12T09:19:58Z</time>
      </trkpt>
      <trkpt lat="47.71623" lon="3.50968">
        <ele>236.5</ele>
        <time>2022-01-12T09:20:00Z</time>
      </trkpt>
      <trkpt lat="47.71621" lon="3.50967">
        <ele>236.5</ele>
        <time>2022-01-12T09:20:01Z</time>
      </trkpt>
      <trkpt lat="47.7162" lon="3.50967">
        <ele>236.5</ele>
        <time>2022-01-12T09:20:02Z</time>
      </trkpt>
      <trkpt lat="47.71619" lon="3.50966">
        <ele>236.5</ele>
        <time>2022-01-12T09:20:03Z</time>
      </trkpt>
      <trkpt lat="47.71618" lon="3.50964">
        <ele>236.6</ele>
        <time>2022-01-12T09:20:04Z</time>
      </trkpt>
      <trkpt lat="47.71616" lon="3.50963">
        <ele>236.6</ele>
        <time>2022-01-12T09:20:05Z</time>
      </trkpt>
      <trkpt lat="47.71615" lon="3.50962">
        <ele>236.7</ele>
        <time>2022-01-12T09:20:06Z</time>
      </trkpt>
      <trkpt lat="47.71614" lon="3.50962">
        <ele>236.7</ele>
        <time>2022-01-12T09:20:08Z</time>
      </trkpt>
      <trkpt lat="47.71613" lon="3.50961">
        <ele>236.7</ele>
        <time>2022-01-12T09:20:09Z</time>
      </trkpt>
      <trkpt lat="47.71611" lon="3.5096">
        <ele>236.7</ele>
        <time>2022-01-12T09:20:10Z</time>
      </trkpt>
      <trkpt lat="47.7161" lon="3.50959">
        <ele>236.7</ele>
        <time>2022-01-12T09:20:11Z</time>
      </trkpt>
      <trkpt lat="47.71609" lon="3.50958">
        <ele>236.8</ele>
        <time>2022-01-12T09:20:12Z</time>
      </trkpt>
      <trkpt lat="47.71608" lon="3.50957">
        <ele>236.8</ele>
        <time>2022-01-12T09:20:13Z</time>
      </trkpt>
      <trkpt lat="47.71607" lon="3.50956">
        <ele>236.8</ele>
        <time>2022-01-12T09:20:14Z</time>
      </trkpt>
      <trkpt lat="47.71605" lon="3.50955">
        <ele>236.8</ele>
        <time>2022-01-12T09:20:15Z</time>
      </trkpt>
      <trkpt lat="47.71604" lon="3.50954">
        <ele>236.8</ele>
        <time>2022-01-12T09:20:17Z</time>
      </trkpt>
      <trkpt lat="47.71604" lon="3.50954">
        <ele>236.8</ele>
        <time>2022-01-12T09:20:18Z</time>
      </trkpt>
      <trkpt lat="47.71603" lon="3.50953">
        <ele>236.9</ele>
        <time>2022-01-12T09:20:19Z</time>
      </trkpt>
      <trkpt lat="47.71601" lon="3.50953">
        <ele>237</ele>
        <time>2022-01-12T09:20:20Z</time>
      </trkpt>
      <trkpt lat="47.716" lon="3.50952">
        <ele>237</ele>
        <time>2022-01-12T09:20:21Z</time>
      </trkpt>
      <trkpt lat="47.71599" lon="3.50952">
        <ele>237</ele>
        <time>2022-01-12T09:20:22Z</time>
      </trkpt>
      <trkpt lat="47.71598" lon="3.50951">
        <ele>237.1</ele>
        <time>2022-01-12T09:20:23Z</time>
      </trkpt>
      <trkpt lat="47.71597" lon="3.5095">
        <ele>237.1</ele>
        <time>2022-01-12T09:20:24Z</time>
      </trkpt>
      <trkpt lat="47.71595" lon="3.5095">
        <ele>237.2</ele>
        <time>2022-01-12T09:20:26Z</time>
      </trkpt>
      <trkpt lat="47.71594" lon="3.50949">
        <ele>237.2</ele>
        <time>2022-01-12T09:20:27Z</time>
      </trkpt>
      <trkpt lat="47.71594" lon="3.50949">
        <ele>237.3</ele>
        <time>2022-01-12T09:20:28Z</time>
      </trkpt>
      <trkpt lat="47.71593" lon="3.50948">
        <ele>237.3</ele>
        <time>2022-01-12T09:20:29Z</time>
      </trkpt>
      <trkpt lat="47.71592" lon="3.50947">
        <ele>237.4</ele>
        <time>2022-01-12T09:20:30Z</time>
      </trkpt>
      <trkpt lat="47.7159" lon="3.50946">
        <ele>237.5</ele>
        <time>2022-01-12T09:20:31Z</time>
      </trkpt>
      <trkpt lat="47.71589" lon="3.50946">
        <ele>237.5</ele>
        <time>2022-01-12T09:20:32Z</time>
      </trkpt>
      <trkpt lat="47.71588" lon="3.50945">
        <ele>237.5</ele>
        <time>2022-01-12T09:20:33Z</time>
      </trkpt>
      <trkpt lat="47.71587" lon="3.50944">
        <ele>237.6</ele>
        <time>2022-01-12T09:20:35Z</time>
      </trkpt>
      <trkpt lat="47.71586" lon="3.50943">
        <ele>237.6</ele>
        <time>2022-01-12T09:20:36Z</time>
      </trkpt>
      <trkpt lat="47.71585" lon="3.50943">
        <ele>237.6</ele>
        <time>2022-01-12T09:20:37Z</time>
      </trkpt>
      <trkpt lat="47.71584" lon="3.50942">
        <ele>237.6</ele>
        <time>2022-01-12T09:20:38Z</time>
      </trkpt>
      <trkpt lat="47.71583" lon="3.50941">
        <ele>237.7</ele>
        <time>2022-01-12T09:20:39Z</time>
      </trkpt>
      <trkpt lat="47.71582" lon="3.50941">
        <ele>237.7</ele>
        <time>2022-01-12T09:20:40Z</time>
      </trkpt>
      <trkpt lat="47.71581" lon="3.5094">
        <ele>237.7</ele>
        <time>2022-01-12T09:20:41Z</time>
      </trkpt>
      <trkpt lat="47.71579" lon="3.50938">
        <ele>237.7</ele>
        <time>2022-01-12T09:20:43Z</time>
      </trkpt>
      <trkpt lat="47.71579" lon="3.50938">
        <ele>237.7</ele>
        <time>2022-01-12T09:20:44Z</time>
      </trkpt>
      <trkpt lat="47.71578" lon="3.50938">
        <ele>237.8</ele>
        <time>2022-01-12T09:20:45Z</time>
      </trkpt>
      <trkpt lat="47.71576" lon="3.50936">
        <ele>237.8</ele>
        <time>2022-01-12T09:20:46Z</time>
      </trkpt>
      <trkpt lat="47.71576" lon="3.50936">
        <ele>237.8</ele>
        <time>2022-01-12T09:20:47Z</time>
      </trkpt>
      <trkpt lat="47.71575" lon="3.50935">
        <ele>237.8</ele>
        <time>2022-01-12T09:20:48Z</time>
      </trkpt>
      <trkpt lat="47.71573" lon="3.50934">
        <ele>237.8</ele>
        <time>2022-01-12T09:20:49Z</time>
      </trkpt>
      <trkpt lat="47.71572" lon="3.50934">
        <ele>237.9</ele>
        <time>2022-01-12T09:20:51Z</time>
      </trkpt>
      <trkpt lat="47.71572" lon="3.50933">
        <ele>237.9</ele>
        <time>2022-01-12T09:20:52Z</time>
      </trkpt>
      <trkpt lat="47.71571" lon="3.50932">
        <ele>237.9</ele>
        <time>2022-01-12T09:20:53Z</time>
      </trkpt>
      <trkpt lat="47.7157" lon="3.50931">
        <ele>237.9</ele>
        <time>2022-01-12T09:20:54Z</time>
      </trkpt>
      <trkpt lat="47.71569" lon="3.5093">
        <ele>237.9</ele>
        <time>2022-01-12T09:20:55Z</time>
      </trkpt>
      <trkpt lat="47.71568" lon="3.5093">
        <ele>237.9</ele>
        <time>2022-01-12T09:20:56Z</time>
      </trkpt>
      <trkpt lat="47.71567" lon="3.50929">
        <ele>237.9</ele>
        <time>2022-01-12T09:20:58Z</time>
      </trkpt>
      <trkpt lat="47.71566" lon="3.50928">
        <ele>237.9</ele>
        <time>2022-01-12T09:20:59Z</time>
      </trkpt>
      <trkpt lat="47.71564" lon="3.50926">
        <ele>237.9</ele>
        <time>2022-01-12T09:21:00Z</time>
      </trkpt>
      <trkpt lat="47.71564" lon="3.50925">
        <ele>237.9</ele>
        <time>2022-01-12T09:21:01Z</time>
      </trkpt>
      <trkpt lat="47.71563" lon="3.50925">
        <ele>237.9</ele>
        <time>2022-01-12T09:21:02Z</time>
      </trkpt>
      <trkpt lat="47.71562" lon="3.50924">
        <ele>237.9</ele>
        <time>2022-01-12T09:21:03Z</time>
      </trkpt>
      <trkpt lat="47.71561" lon="3.50924">
        <ele>237.9</ele>
        <time>2022-01-12T09:21:04Z</time>
      </trkpt>
      <trkpt lat="47.71559" lon="3.50923">
        <ele>237.9</ele>
        <time>2022-01-12T09:21:06Z</time>
      </trkpt>
      <trkpt lat="47.71558" lon="3.50922">
        <ele>237.9</ele>
        <time>2022-01-12T09:21:07Z</time>
      </trkpt>
      <trkpt lat="47.71557" lon="3.50921">
        <ele>237.9</ele>
        <time>2022-01-12T09:21:08Z</time>
      </trkpt>
      <trkpt lat="47.71555" lon="3.5092">
        <ele>237.8</ele>
        <time>2022-01-12T09:21:09Z</time>
      </trkpt>
      <trkpt lat="47.71554" lon="3.5092">
        <ele>237.8</ele>
        <time>2022-01-12T09:21:10Z</time>
      </trkpt>
      <trkpt lat="47.71553" lon="3.50919">
        <ele>237.8</ele>
        <time>2022-01-12T09:21:11Z</time>
      </trkpt>
      <trkpt lat="47.71551" lon="3.50918">
        <ele>237.8</ele>
        <time>2022-01-12T09:21:13Z</time>
      </trkpt>
      <trkpt lat="47.71551" lon="3.50918">
        <ele>237.8</ele>
        <time>2022-01-12T09:21:14Z</time>
      </trkpt>
      <trkpt lat="47.7155" lon="3.50917">
        <ele>237.8</ele>
        <time>2022-01-12T09:21:15Z</time>
      </trkpt>
      <trkpt lat="47.71549" lon="3.50916">
        <ele>237.8</ele>
        <time>2022-01-12T09:21:16Z</time>
      </trkpt>
      <trkpt lat="47.71547" lon="3.50916">
        <ele>237.8</ele>
        <time>2022-01-12T09:21:17Z</time>
      </trkpt>
      <trkpt lat="47.71546" lon="3.50915">
        <ele>237.8</ele>
        <time>2022-01-12T09:21:18Z</time>
      </trkpt>
      <trkpt lat="47.71545" lon="3.50915">
        <ele>237.7</ele>
        <time>2022-01-12T09:21:19Z</time>
      </trkpt>
      <trkpt lat="47.71544" lon="3.50914">
        <ele>237.7</ele>
        <time>2022-01-12T09:21:21Z</time>
      </trkpt>
      <trkpt lat="47.71543" lon="3.50913">
        <ele>237.7</ele>
        <time>2022-01-12T09:21:22Z</time>
      </trkpt>
      <trkpt lat="47.71541" lon="3.50912">
        <ele>237.7</ele>
        <time>2022-01-12T09:21:23Z</time>
      </trkpt>
      <trkpt lat="47.7154" lon="3.50912">
        <ele>237.7</ele>
        <time>2022-01-12T09:21:24Z</time>
      </trkpt>
      <trkpt lat="47.7154" lon="3.50911">
        <ele>237.7</ele>
        <time>2022-01-12T09:21:25Z</time>
      </trkpt>
      <trkpt lat="47.71539" lon="3.5091">
        <ele>237.8</ele>
        <time>2022-01-12T09:21:26Z</time>
      </trkpt>
      <trkpt lat="47.71537" lon="3.5091">
        <ele>237.8</ele>
        <time>2022-01-12T09:21:27Z</time>
      </trkpt>
      <trkpt lat="47.71536" lon="3.5091">
        <ele>237.8</ele>
        <time>2022-01-12T09:21:29Z</time>
      </trkpt>
      <trkpt lat="47.71534" lon="3.5091">
        <ele>237.8</ele>
        <time>2022-01-12T09:21:30Z</time>
      </trkpt>
      <trkpt lat="47.71533" lon="3.5091">
        <ele>237.8</ele>
        <time>2022-01-12T09:21:31Z</time>
      </trkpt>
      <trkpt lat="47.71531" lon="3.50911">
        <ele>237.8</ele>
        <time>2022-01-12T09:21:33Z</time>
      </trkpt>
      <trkpt lat="47.7153" lon="3.5091">
        <ele>237.8</ele>
        <time>2022-01-12T09:21:34Z</time>
      </trkpt>
      <trkpt lat="47.71528" lon="3.50909">
        <ele>237.8</ele>
        <time>2022-01-12T09:21:35Z</time>
      </trkpt>
      <trkpt lat="47.71527" lon="3.50908">
        <ele>237.9</ele>
        <time>2022-01-12T09:21:37Z</time>
      </trkpt>
      <trkpt lat="47.71525" lon="3.50906">
        <ele>237.9</ele>
        <time>2022-01-12T09:21:38Z</time>
      </trkpt>
      <trkpt lat="47.71524" lon="3.50905">
        <ele>237.9</ele>
        <time>2022-01-12T09:21:39Z</time>
      </trkpt>
      <trkpt lat="47.71523" lon="3.50903">
        <ele>237.9</ele>
        <time>2022-01-12T09:21:41Z</time>
      </trkpt>
      <trkpt lat="47.71522" lon="3.50902">
        <ele>237.9</ele>
        <time>2022-01-12T09:21:42Z</time>
      </trkpt>
      <trkpt lat="47.71522" lon="3.50899">
        <ele>237.9</ele>
        <time>2022-01-12T09:21:43Z</time>
      </trkpt>
      <trkpt lat="47.71522" lon="3.50899">
        <ele>237.9</ele>
        <time>2022-01-12T09:21:44Z</time>
      </trkpt>
      <trkpt lat="47.7152" lon="3.50898">
        <ele>237.9</ele>
        <time>2022-01-12T09:21:46Z</time>
      </trkpt>
      <trkpt lat="47.71517" lon="3.50898">
        <ele>237.8</ele>
        <time>2022-01-12T09:21:47Z</time>
      </trkpt>
      <trkpt lat="47.71516" lon="3.50899">
        <ele>237.8</ele>
        <time>2022-01-12T09:21:49Z</time>
      </trkpt>
      <trkpt lat="47.71514" lon="3.50898">
        <ele>237.7</ele>
        <time>2022-01-12T09:21:50Z</time>
      </trkpt>
      <trkpt lat="47.71513" lon="3.50898">
        <ele>237.7</ele>
        <time>2022-01-12T09:21:51Z</time>
      </trkpt>
      <trkpt lat="47.71511" lon="3.50897">
        <ele>237.6</ele>
        <time>2022-01-12T09:21:52Z</time>
      </trkpt>
      <trkpt lat="47.7151" lon="3.50896">
        <ele>237.6</ele>
        <time>2022-01-12T09:21:53Z</time>
      </trkpt>
      <trkpt lat="47.71509" lon="3.50895">
        <ele>237.5</ele>
        <time>2022-01-12T09:21:54Z</time>
      </trkpt>
      <trkpt lat="47.71508" lon="3.50893">
        <ele>237.5</ele>
        <time>2022-01-12T09:21:55Z</time>
      </trkpt>
      <trkpt lat="47.71505" lon="3.50891">
        <ele>237.4</ele>
        <time>2022-01-12T09:21:56Z</time>
      </trkpt>
      <trkpt lat="47.71504" lon="3.5089">
        <ele>237.4</ele>
        <time>2022-01-12T09:21:58Z</time>
      </trkpt>
      <trkpt lat="47.71503" lon="3.5089">
        <ele>237.4</ele>
        <time>2022-01-12T09:21:59Z</time>
      </trkpt>
      <trkpt lat="47.71502" lon="3.50889">
        <ele>237.4</ele>
        <time>2022-01-12T09:22:00Z</time>
      </trkpt>
      <trkpt lat="47.71501" lon="3.50888">
        <ele>237.4</ele>
        <time>2022-01-12T09:22:01Z</time>
      </trkpt>
      <trkpt lat="47.715" lon="3.50887">
        <ele>237.4</ele>
        <time>2022-01-12T09:22:02Z</time>
      </trkpt>
      <trkpt lat="47.71499" lon="3.50886">
        <ele>237.4</ele>
        <time>2022-01-12T09:22:03Z</time>
      </trkpt>
      <trkpt lat="47.71497" lon="3.50884">
        <ele>237.5</ele>
        <time>2022-01-12T09:22:04Z</time>
      </trkpt>
      <trkpt lat="47.71497" lon="3.50883">
        <ele>237.5</ele>
        <time>2022-01-12T09:22:06Z</time>
      </trkpt>
      <trkpt lat="47.71496" lon="3.50882">
        <ele>237.5</ele>
        <time>2022-01-12T09:22:07Z</time>
      </trkpt>
      <trkpt lat="47.71495" lon="3.50881">
        <ele>237.5</ele>
        <time>2022-01-12T09:22:08Z</time>
      </trkpt>
      <trkpt lat="47.71494" lon="3.50881">
        <ele>237.5</ele>
        <time>2022-01-12T09:22:09Z</time>
      </trkpt>
      <trkpt lat="47.71493" lon="3.5088">
        <ele>237.6</ele>
        <time>2022-01-12T09:22:10Z</time>
      </trkpt>
      <trkpt lat="47.71492" lon="3.5088">
        <ele>237.6</ele>
        <time>2022-01-12T09:22:11Z</time>
      </trkpt>
      <trkpt lat="47.7149" lon="3.50881">
        <ele>237.6</ele>
        <time>2022-01-12T09:22:13Z</time>
      </trkpt>
      <trkpt lat="47.7149" lon="3.50881">
        <ele>237.6</ele>
        <time>2022-01-12T09:22:14Z</time>
      </trkpt>
      <trkpt lat="47.71488" lon="3.50883">
        <ele>237.6</ele>
        <time>2022-01-12T09:22:15Z</time>
      </trkpt>
      <trkpt lat="47.71487" lon="3.50884">
        <ele>237.6</ele>
        <time>2022-01-12T09:22:16Z</time>
      </trkpt>
      <trkpt lat="47.71486" lon="3.50884">
        <ele>237.6</ele>
        <time>2022-01-12T09:22:17Z</time>
      </trkpt>
      <trkpt lat="47.71486" lon="3.50885">
        <ele>237.7</ele>
        <time>2022-01-12T09:22:18Z</time>
      </trkpt>
      <trkpt lat="47.71485" lon="3.50886">
        <ele>237.7</ele>
        <time>2022-01-12T09:22:19Z</time>
      </trkpt>
      <trkpt lat="47.71485" lon="3.50888">
        <ele>237.7</ele>
        <time>2022-01-12T09:22:21Z</time>
      </trkpt>
      <trkpt lat="47.71484" lon="3.50889">
        <ele>237.8</ele>
        <time>2022-01-12T09:22:22Z</time>
      </trkpt>
      <trkpt lat="47.71484" lon="3.50891">
        <ele>237.8</ele>
        <time>2022-01-12T09:22:23Z</time>
      </trkpt>
      <trkpt lat="47.71483" lon="3.50892">
        <ele>237.8</ele>
        <time>2022-01-12T09:22:24Z</time>
      </trkpt>
      <trkpt lat="47.71481" lon="3.50893">
        <ele>237.9</ele>
        <time>2022-01-12T09:22:25Z</time>
      </trkpt>
      <trkpt lat="47.7148" lon="3.50894">
        <ele>237.9</ele>
        <time>2022-01-12T09:22:27Z</time>
      </trkpt>
      <trkpt lat="47.71479" lon="3.50894">
        <ele>237.9</ele>
        <time>2022-01-12T09:22:28Z</time>
      </trkpt>
      <trkpt lat="47.71478" lon="3.50894">
        <ele>237.9</ele>
        <time>2022-01-12T09:22:29Z</time>
      </trkpt>
      <trkpt lat="47.71477" lon="3.50893">
        <ele>237.9</ele>
        <time>2022-01-12T09:22:30Z</time>
      </trkpt>
      <trkpt lat="47.71475" lon="3.50892">
        <ele>237.9</ele>
        <time>2022-01-12T09:22:32Z</time>
      </trkpt>
      <trkpt lat="47.71472" lon="3.50892">
        <ele>238</ele>
        <time>2022-01-12T09:22:33Z</time>
      </trkpt>
      <trkpt lat="47.71472" lon="3.50891">
        <ele>238</ele>
        <time>2022-01-12T09:22:35Z</time>
      </trkpt>
      <trkpt lat="47.71472" lon="3.50891">
        <ele>237.9</ele>
        <time>2022-01-12T09:22:36Z</time>
      </trkpt>
      <trkpt lat="47.71471" lon="3.50891">
        <ele>237.9</ele>
        <time>2022-01-12T09:22:37Z</time>
      </trkpt>
      <trkpt lat="47.71471" lon="3.50891">
        <ele>237.9</ele>
        <time>2022-01-12T09:22:39Z</time>
      </trkpt>
      <trkpt lat="47.71471" lon="3.50891">
        <ele>237.9</ele>
        <time>2022-01-12T09:22:40Z</time>
      </trkpt>
      <trkpt lat="47.7147" lon="3.50891">
        <ele>237.9</ele>
        <time>2022-01-12T09:22:41Z</time>
      </trkpt>
      <trkpt lat="47.7147" lon="3.50891">
        <ele>238</ele>
        <time>2022-01-12T09:22:42Z</time>
      </trkpt>
      <trkpt lat="47.7147" lon="3.50891">
        <ele>238</ele>
        <time>2022-01-12T09:22:43Z</time>
      </trkpt>
      <trkpt lat="47.71469" lon="3.50891">
        <ele>238</ele>
        <time>2022-01-12T09:22:44Z</time>
      </trkpt>
      <trkpt lat="47.71469" lon="3.50891">
        <ele>238</ele>
        <time>2022-01-12T09:22:45Z</time>
      </trkpt>
      <trkpt lat="47.71469" lon="3.50891">
        <ele>238</ele>
        <time>2022-01-12T09:22:46Z</time>
      </trkpt>
      <trkpt lat="47.71468" lon="3.50891">
        <ele>238</ele>
        <time>2022-01-12T09:22:48Z</time>
      </trkpt>
      <trkpt lat="47.71468" lon="3.50891">
        <ele>238</ele>
        <time>2022-01-12T09:22:49Z</time>
      </trkpt>
      <trkpt lat="47.71468" lon="3.5089">
        <ele>238</ele>
        <time>2022-01-12T09:22:50Z</time>
      </trkpt>
      <trkpt lat="47.71465" lon="3.50889">
        <ele>238</ele>
        <time>2022-01-12T09:22:52Z</time>
      </trkpt>
      <trkpt lat="47.71464" lon="3.50889">
        <ele>238.1</ele>
        <time>2022-01-12T09:22:53Z</time>
      </trkpt>
      <trkpt lat="47.71463" lon="3.50888">
        <ele>238</ele>
        <time>2022-01-12T09:22:54Z</time>
      </trkpt>
      <trkpt lat="47.71462" lon="3.50888">
        <ele>238</ele>
        <time>2022-01-12T09:22:55Z</time>
      </trkpt>
      <trkpt lat="47.71461" lon="3.50888">
        <ele>238</ele>
        <time>2022-01-12T09:22:56Z</time>
      </trkpt>
      <trkpt lat="47.71459" lon="3.50888">
        <ele>238</ele>
        <time>2022-01-12T09:22:57Z</time>
      </trkpt>
      <trkpt lat="47.71458" lon="3.50887">
        <ele>238.1</ele>
        <time>2022-01-12T09:22:58Z</time>
      </trkpt>
      <trkpt lat="47.71457" lon="3.50887">
        <ele>238.1</ele>
        <time>2022-01-12T09:22:59Z</time>
      </trkpt>
      <trkpt lat="47.71456" lon="3.50887">
        <ele>238.1</ele>
        <time>2022-01-12T09:23:00Z</time>
      </trkpt>
      <trkpt lat="47.71456" lon="3.50886">
        <ele>238.1</ele>
        <time>2022-01-12T09:23:01Z</time>
      </trkpt>
      <trkpt lat="47.71453" lon="3.50886">
        <ele>238.1</ele>
        <time>2022-01-12T09:23:03Z</time>
      </trkpt>
      <trkpt lat="47.71452" lon="3.50886">
        <ele>238.1</ele>
        <time>2022-01-12T09:23:04Z</time>
      </trkpt>
      <trkpt lat="47.71451" lon="3.50886">
        <ele>238.1</ele>
        <time>2022-01-12T09:23:05Z</time>
      </trkpt>
      <trkpt lat="47.7145" lon="3.50886">
        <ele>238.1</ele>
        <time>2022-01-12T09:23:06Z</time>
      </trkpt>
      <trkpt lat="47.71448" lon="3.50885">
        <ele>238.2</ele>
        <time>2022-01-12T09:23:07Z</time>
      </trkpt>
      <trkpt lat="47.71447" lon="3.50885">
        <ele>238.2</ele>
        <time>2022-01-12T09:23:09Z</time>
      </trkpt>
      <trkpt lat="47.71446" lon="3.50885">
        <ele>238.2</ele>
        <time>2022-01-12T09:23:10Z</time>
      </trkpt>
      <trkpt lat="47.71446" lon="3.50886">
        <ele>238.2</ele>
        <time>2022-01-12T09:23:11Z</time>
      </trkpt>
      <trkpt lat="47.71446" lon="3.50886">
        <ele>238.2</ele>
        <time>2022-01-12T09:23:12Z</time>
      </trkpt>
      <trkpt lat="47.71445" lon="3.50886">
        <ele>238.2</ele>
        <time>2022-01-12T09:23:13Z</time>
      </trkpt>
      <trkpt lat="47.71445" lon="3.50886">
        <ele>238.2</ele>
        <time>2022-01-12T09:23:14Z</time>
      </trkpt>
      <trkpt lat="47.71445" lon="3.50886">
        <ele>238.2</ele>
        <time>2022-01-12T09:23:15Z</time>
      </trkpt>
      <trkpt lat="47.71445" lon="3.50886">
        <ele>238.2</ele>
        <time>2022-01-12T09:23:16Z</time>
      </trkpt>
      <trkpt lat="47.71445" lon="3.50886">
        <ele>238.2</ele>
        <time>2022-01-12T09:23:17Z</time>
      </trkpt>
      <trkpt lat="47.71445" lon="3.50886">
        <ele>238.2</ele>
        <time>2022-01-12T09:23:18Z</time>
      </trkpt>
      <trkpt lat="47.71445" lon="3.50886">
        <ele>238.2</ele>
        <time>2022-01-12T09:23:19Z</time>
      </trkpt>
      <trkpt lat="47.71445" lon="3.50886">
        <ele>238.2</ele>
        <time>2022-01-12T09:23:20Z</time>
      </trkpt>
      <trkpt lat="47.71446" lon="3.50886">
        <ele>238.2</ele>
        <time>2022-01-12T09:23:21Z</time>
      </trkpt>
      <trkpt lat="47.71446" lon="3.50886">
        <ele>238.2</ele>
        <time>2022-01-12T09:23:22Z</time>
      </trkpt>
      <trkpt lat="47.71446" lon="3.50886">
        <ele>238.2</ele>
        <time>2022-01-12T09:23:23Z</time>
      </trkpt>
      <trkpt lat="47.71446" lon="3.50886">
        <ele>238.2</ele>
        <time>2022-01-12T09:23:24Z</time>
      </trkpt>
      <trkpt lat="47.71446" lon="3.50886">
        <ele>238.2</ele>
        <time>2022-01-12T09:23:25Z</time>
      </trkpt>
      <trkpt lat="47.71446" lon="3.50886">
        <ele>238.1</ele>
        <time>2022-01-12T09:23:26Z</time>
      </trkpt>
      <trkpt lat="47.71447" lon="3.50886">
        <ele>238.1</ele>
        <time>2022-01-12T09:23:27Z</time>
      </trkpt>
      <trkpt lat="47.71447" lon="3.50887">
        <ele>238.1</ele>
        <time>2022-01-12T09:23:28Z</time>
      </trkpt>
      <trkpt lat="47.71447" lon="3.50887">
        <ele>238.1</ele>
        <time>2022-01-12T09:23:29Z</time>
      </trkpt>
      <trkpt lat="47.71448" lon="3.50886">
        <ele>238.1</ele>
        <time>2022-01-12T09:23:30Z</time>
      </trkpt>
      <trkpt lat="47.71448" lon="3.50886">
        <ele>238.1</ele>
        <time>2022-01-12T09:23:31Z</time>
      </trkpt>
      <trkpt lat="47.71449" lon="3.50886">
        <ele>238.1</ele>
        <time>2022-01-12T09:23:32Z</time>
      </trkpt>
      <trkpt lat="47.71449" lon="3.50886">
        <ele>238.1</ele>
        <time>2022-01-12T09:23:33Z</time>
      </trkpt>
      <trkpt lat="47.71449" lon="3.50886">
        <ele>238.1</ele>
        <time>2022-01-12T09:23:34Z</time>
      </trkpt>
      <trkpt lat="47.71449" lon="3.50886">
        <ele>238.1</ele>
        <time>2022-01-12T09:23:35Z</time>
      </trkpt>
      <trkpt lat="47.71449" lon="3.50886">
        <ele>238.1</ele>
        <time>2022-01-12T09:23:36Z</time>
      </trkpt>
      <trkpt lat="47.71449" lon="3.50886">
        <ele>238.1</ele>
        <time>2022-01-12T09:23:37Z</time>
      </trkpt>
      <trkpt lat="47.71449" lon="3.50886">
        <ele>238.1</ele>
        <time>2022-01-12T09:23:38Z</time>
      </trkpt>
      <trkpt lat="47.71449" lon="3.50886">
        <ele>238.1</ele>
        <time>2022-01-12T09:23:39Z</time>
      </trkpt>
      <trkpt lat="47.71449" lon="3.50886">
        <ele>238.1</ele>
        <time>2022-01-12T09:23:40Z</time>
      </trkpt>
      <trkpt lat="47.71449" lon="3.50886">
        <ele>238</ele>
        <time>2022-01-12T09:23:41Z</time>
      </trkpt>
      <trkpt lat="47.71449" lon="3.50886">
        <ele>238</ele>
        <time>2022-01-12T09:23:42Z</time>
      </trkpt>
      <trkpt lat="47.71449" lon="3.50886">
        <ele>238</ele>
        <time>2022-01-12T09:23:43Z</time>
      </trkpt>
      <trkpt lat="47.71449" lon="3.50886">
        <ele>238</ele>
        <time>2022-01-12T09:23:44Z</time>
      </trkpt>
      <trkpt lat="47.71449" lon="3.50886">
        <ele>238</ele>
        <time>2022-01-12T09:23:45Z</time>
      </trkpt>
      <trkpt lat="47.71449" lon="3.50886">
        <ele>238</ele>
        <time>2022-01-12T09:23:46Z</time>
      </trkpt>
      <trkpt lat="47.71449" lon="3.50886">
        <ele>238</ele>
        <time>2022-01-12T09:23:47Z</time>
      </trkpt>
      <trkpt lat="47.71449" lon="3.50886">
        <ele>238</ele>
        <time>2022-01-12T09:23:48Z</time>
      </trkpt>
      <trkpt lat="47.71449" lon="3.50886">
        <ele>238</ele>
        <time>2022-01-12T09:23:49Z</time>
      </trkpt>
      <trkpt lat="47.71448" lon="3.50886">
        <ele>238</ele>
        <time>2022-01-12T09:23:50Z</time>
      </trkpt>
      <trkpt lat="47.71448" lon="3.50886">
        <ele>238</ele>
        <time>2022-01-12T09:23:51Z</time>
      </trkpt>
      <trkpt lat="47.71448" lon="3.50886">
        <ele>238</ele>
        <time>2022-01-12T09:23:52Z</time>
      </trkpt>
      <trkpt lat="47.71448" lon="3.50886">
        <ele>238</ele>
        <time>2022-01-12T09:23:53Z</time>
      </trkpt>
      <trkpt lat="47.71448" lon="3.50886">
        <ele>238</ele>
        <time>2022-01-12T09:23:54Z</time>
      </trkpt>
      <trkpt lat="47.71448" lon="3.50886">
        <ele>238</ele>
        <time>2022-01-12T09:23:55Z</time>
      </trkpt>
      <trkpt lat="47.71448" lon="3.50886">
        <ele>238</ele>
        <time>2022-01-12T09:23:56Z</time>
      </trkpt>
      <trkpt lat="47.71448" lon="3.50886">
        <ele>238</ele>
        <time>2022-01-12T09:23:57Z</time>
      </trkpt>
      <trkpt lat="47.71448" lon="3.50886">
        <ele>238</ele>
        <time>2022-01-12T09:23:58Z</time>
      </trkpt>
      <trkpt lat="47.71448" lon="3.50886">
        <ele>238</ele>
        <time>2022-01-12T09:23:59Z</time>
      </trkpt>
      <trkpt lat="47.71448" lon="3.50886">
        <ele>238</ele>
        <time>2022-01-12T09:24:00Z</time>
      </trkpt>
      <trkpt lat="47.71448" lon="3.50886">
        <ele>238</ele>
        <time>2022-01-12T09:24:01Z</time>
      </trkpt>
      <trkpt lat="47.71448" lon="3.50886">
        <ele>238</ele>
        <time>2022-01-12T09:24:02Z</time>
      </trkpt>
      <trkpt lat="47.71448" lon="3.50886">
        <ele>238</ele>
        <time>2022-01-12T09:24:03Z</time>
      </trkpt>
      <trkpt lat="47.71448" lon="3.50886">
        <ele>238</ele>
        <time>2022-01-12T09:24:04Z</time>
      </trkpt>
      <trkpt lat="47.71448" lon="3.50887">
        <ele>238</ele>
        <time>2022-01-12T09:24:05Z</time>
      </trkpt>
      <trkpt lat="47.71448" lon="3.50887">
        <ele>238</ele>
        <time>2022-01-12T09:24:06Z</time>
      </trkpt>
      <trkpt lat="47.71448" lon="3.50887">
        <ele>237.9</ele>
        <time>2022-01-12T09:24:07Z</time>
      </trkpt>
      <trkpt lat="47.71449" lon="3.50887">
        <ele>237.9</ele>
        <time>2022-01-12T09:24:08Z</time>
      </trkpt>
      <trkpt lat="47.71449" lon="3.50887">
        <ele>237.9</ele>
        <time>2022-01-12T09:24:09Z</time>
      </trkpt>
      <trkpt lat="47.71449" lon="3.50887">
        <ele>237.9</ele>
        <time>2022-01-12T09:24:10Z</time>
      </trkpt>
      <trkpt lat="47.71449" lon="3.50887">
        <ele>237.9</ele>
        <time>2022-01-12T09:24:11Z</time>
      </trkpt>
      <trkpt lat="47.71449" lon="3.50887">
        <ele>237.9</ele>
        <time>2022-01-12T09:24:12Z</time>
      </trkpt>
      <trkpt lat="47.71449" lon="3.50887">
        <ele>237.9</ele>
        <time>2022-01-12T09:24:13Z</time>
      </trkpt>
      <trkpt lat="47.71449" lon="3.50887">
        <ele>237.9</ele>
        <time>2022-01-12T09:24:14Z</time>
      </trkpt>
      <trkpt lat="47.71449" lon="3.50887">
        <ele>237.9</ele>
        <time>2022-01-12T09:24:15Z</time>
      </trkpt>
      <trkpt lat="47.71449" lon="3.50887">
        <ele>237.9</ele>
        <time>2022-01-12T09:24:16Z</time>
      </trkpt>
      <trkpt lat="47.71449" lon="3.50888">
        <ele>237.9</ele>
        <time>2022-01-12T09:24:17Z</time>
      </trkpt>
      <trkpt lat="47.71449" lon="3.50888">
        <ele>237.9</ele>
        <time>2022-01-12T09:24:18Z</time>
      </trkpt>
      <trkpt lat="47.71449" lon="3.50887">
        <ele>237.9</ele>
        <time>2022-01-12T09:24:19Z</time>
      </trkpt>
      <trkpt lat="47.71448" lon="3.50887">
        <ele>237.9</ele>
        <time>2022-01-12T09:24:20Z</time>
      </trkpt>
      <trkpt lat="47.71448" lon="3.50887">
        <ele>237.9</ele>
        <time>2022-01-12T09:24:21Z</time>
      </trkpt>
      <trkpt lat="47.71448" lon="3.50887">
        <ele>237.9</ele>
        <time>2022-01-12T09:24:22Z</time>
      </trkpt>
      <trkpt lat="47.71448" lon="3.50887">
        <ele>237.9</ele>
        <time>2022-01-12T09:24:23Z</time>
      </trkpt>
      <trkpt lat="47.71448" lon="3.50887">
        <ele>237.9</ele>
        <time>2022-01-12T09:24:24Z</time>
      </trkpt>
      <trkpt lat="47.71448" lon="3.50887">
        <ele>237.9</ele>
        <time>2022-01-12T09:24:25Z</time>
      </trkpt>
      <trkpt lat="47.71448" lon="3.50887">
        <ele>237.9</ele>
        <time>2022-01-12T09:24:26Z</time>
      </trkpt>
      <trkpt lat="47.71448" lon="3.50887">
        <ele>237.9</ele>
        <time>2022-01-12T09:24:27Z</time>
      </trkpt>
      <trkpt lat="47.71448" lon="3.50887">
        <ele>237.9</ele>
        <time>2022-01-12T09:24:28Z</time>
      </trkpt>
      <trkpt lat="47.71448" lon="3.50887">
        <ele>237.9</ele>
        <time>2022-01-12T09:24:29Z</time>
      </trkpt>
      <trkpt lat="47.71448" lon="3.50887">
        <ele>237.9</ele>
        <time>2022-01-12T09:24:30Z</time>
      </trkpt>
      <trkpt lat="47.71448" lon="3.50887">
        <ele>237.9</ele>
        <time>2022-01-12T09:24:31Z</time>
      </trkpt>
      <trkpt lat="47.71448" lon="3.50887">
        <ele>237.9</ele>
        <time>2022-01-12T09:24:32Z</time>
      </trkpt>
      <trkpt lat="47.71448" lon="3.50887">
        <ele>237.9</ele>
        <time>2022-01-12T09:24:33Z</time>
      </trkpt>
      <trkpt lat="47.71448" lon="3.50887">
        <ele>237.8</ele>
        <time>2022-01-12T09:24:34Z</time>
      </trkpt>
      <trkpt lat="47.71448" lon="3.50887">
        <ele>237.8</ele>
        <time>2022-01-12T09:24:35Z</time>
      </trkpt>
      <trkpt lat="47.71448" lon="3.50886">
        <ele>237.8</ele>
        <time>2022-01-12T09:24:36Z</time>
      </trkpt>
      <trkpt lat="47.71448" lon="3.50886">
        <ele>237.8</ele>
        <time>2022-01-12T09:24:37Z</time>
      </trkpt>
      <trkpt lat="47.71448" lon="3.50886">
        <ele>237.8</ele>
        <time>2022-01-12T09:24:38Z</time>
      </trkpt>
      <trkpt lat="47.71448" lon="3.50886">
        <ele>237.8</ele>
        <time>2022-01-12T09:24:39Z</time>
      </trkpt>
      <trkpt lat="47.71448" lon="3.50886">
        <ele>237.8</ele>
        <time>2022-01-12T09:24:40Z</time>
      </trkpt>
      <trkpt lat="47.71448" lon="3.50886">
        <ele>237.8</ele>
        <time>2022-01-12T09:24:41Z</time>
      </trkpt>
      <trkpt lat="47.71448" lon="3.50886">
        <ele>237.8</ele>
        <time>2022-01-12T09:24:42Z</time>
      </trkpt>
      <trkpt lat="47.71448" lon="3.50886">
        <ele>237.8</ele>
        <time>2022-01-12T09:24:43Z</time>
      </trkpt>
      <trkpt lat="47.71448" lon="3.50887">
        <ele>237.8</ele>
        <time>2022-01-12T09:24:44Z</time>
      </trkpt>
      <trkpt lat="47.71448" lon="3.50886">
        <ele>237.8</ele>
        <time>2022-01-12T09:24:45Z</time>
      </trkpt>
      <trkpt lat="47.71447" lon="3.50886">
        <ele>237.8</ele>
        <time>2022-01-12T09:24:46Z</time>
      </trkpt>
      <trkpt lat="47.71446" lon="3.50885">
        <ele>237.8</ele>
        <time>2022-01-12T09:24:47Z</time>
      </trkpt>
      <trkpt lat="47.71443" lon="3.50885">
        <ele>237.9</ele>
        <time>2022-01-12T09:24:48Z</time>
      </trkpt>
      <trkpt lat="47.71442" lon="3.50885">
        <ele>237.9</ele>
        <time>2022-01-12T09:24:49Z</time>
      </trkpt>
      <trkpt lat="47.71441" lon="3.50885">
        <ele>237.9</ele>
        <time>2022-01-12T09:24:50Z</time>
      </trkpt>
      <trkpt lat="47.7144" lon="3.50885">
        <ele>237.9</ele>
        <time>2022-01-12T09:24:51Z</time>
      </trkpt>
      <trkpt lat="47.71438" lon="3.50885">
        <ele>237.9</ele>
        <time>2022-01-12T09:24:52Z</time>
      </trkpt>
      <trkpt lat="47.71437" lon="3.50884">
        <ele>237.9</ele>
        <time>2022-01-12T09:24:53Z</time>
      </trkpt>
      <trkpt lat="47.71436" lon="3.50884">
        <ele>237.9</ele>
        <time>2022-01-12T09:24:54Z</time>
      </trkpt>
      <trkpt lat="47.71434" lon="3.50884">
        <ele>237.9</ele>
        <time>2022-01-12T09:24:55Z</time>
      </trkpt>
      <trkpt lat="47.71434" lon="3.50884">
        <ele>237.9</ele>
        <time>2022-01-12T09:24:56Z</time>
      </trkpt>
      <trkpt lat="47.71432" lon="3.50885">
        <ele>238</ele>
        <time>2022-01-12T09:24:57Z</time>
      </trkpt>
      <trkpt lat="47.7143" lon="3.50885">
        <ele>238</ele>
        <time>2022-01-12T09:24:59Z</time>
      </trkpt>
      <trkpt lat="47.71429" lon="3.50884">
        <ele>238</ele>
        <time>2022-01-12T09:25:00Z</time>
      </trkpt>
      <trkpt lat="47.71427" lon="3.50884">
        <ele>238</ele>
        <time>2022-01-12T09:25:01Z</time>
      </trkpt>
      <trkpt lat="47.71425" lon="3.50883">
        <ele>238</ele>
        <time>2022-01-12T09:25:02Z</time>
      </trkpt>
      <trkpt lat="47.71424" lon="3.50883">
        <ele>238</ele>
        <time>2022-01-12T09:25:03Z</time>
      </trkpt>
      <trkpt lat="47.71422" lon="3.50883">
        <ele>238</ele>
        <time>2022-01-12T09:25:04Z</time>
      </trkpt>
      <trkpt lat="47.71421" lon="3.50883">
        <ele>238</ele>
        <time>2022-01-12T09:25:05Z</time>
      </trkpt>
      <trkpt lat="47.71419" lon="3.50882">
        <ele>238</ele>
        <time>2022-01-12T09:25:07Z</time>
      </trkpt>
      <trkpt lat="47.71418" lon="3.50882">
        <ele>238.1</ele>
        <time>2022-01-12T09:25:08Z</time>
      </trkpt>
      <trkpt lat="47.71415" lon="3.50882">
        <ele>238.1</ele>
        <time>2022-01-12T09:25:09Z</time>
      </trkpt>
      <trkpt lat="47.71415" lon="3.50882">
        <ele>238.1</ele>
        <time>2022-01-12T09:25:10Z</time>
      </trkpt>
      <trkpt lat="47.71413" lon="3.50882">
        <ele>238.1</ele>
        <time>2022-01-12T09:25:11Z</time>
      </trkpt>
      <trkpt lat="47.71412" lon="3.50882">
        <ele>238.1</ele>
        <time>2022-01-12T09:25:12Z</time>
      </trkpt>
      <trkpt lat="47.7141" lon="3.50882">
        <ele>238.1</ele>
        <time>2022-01-12T09:25:13Z</time>
      </trkpt>
      <trkpt lat="47.71409" lon="3.50882">
        <ele>238.2</ele>
        <time>2022-01-12T09:25:14Z</time>
      </trkpt>
      <trkpt lat="47.71408" lon="3.50882">
        <ele>238.2</ele>
        <time>2022-01-12T09:25:15Z</time>
      </trkpt>
      <trkpt lat="47.71407" lon="3.50882">
        <ele>238.2</ele>
        <time>2022-01-12T09:25:17Z</time>
      </trkpt>
      <trkpt lat="47.71405" lon="3.50882">
        <ele>238.2</ele>
        <time>2022-01-12T09:25:18Z</time>
      </trkpt>
      <trkpt lat="47.71403" lon="3.50881">
        <ele>238.2</ele>
        <time>2022-01-12T09:25:19Z</time>
      </trkpt>
      <trkpt lat="47.71402" lon="3.50881">
        <ele>238.2</ele>
        <time>2022-01-12T09:25:20Z</time>
      </trkpt>
      <trkpt lat="47.71401" lon="3.50881">
        <ele>238.2</ele>
        <time>2022-01-12T09:25:21Z</time>
      </trkpt>
      <trkpt lat="47.714" lon="3.5088">
        <ele>238.2</ele>
        <time>2022-01-12T09:25:22Z</time>
      </trkpt>
      <trkpt lat="47.71398" lon="3.5088">
        <ele>238.2</ele>
        <time>2022-01-12T09:25:23Z</time>
      </trkpt>
      <trkpt lat="47.71397" lon="3.50879">
        <ele>238.2</ele>
        <time>2022-01-12T09:25:24Z</time>
      </trkpt>
      <trkpt lat="47.71396" lon="3.50879">
        <ele>238.2</ele>
        <time>2022-01-12T09:25:25Z</time>
      </trkpt>
      <trkpt lat="47.71394" lon="3.50878">
        <ele>238.2</ele>
        <time>2022-01-12T09:25:27Z</time>
      </trkpt>
      <trkpt lat="47.71393" lon="3.50878">
        <ele>238.2</ele>
        <time>2022-01-12T09:25:28Z</time>
      </trkpt>
      <trkpt lat="47.71391" lon="3.50877">
        <ele>238.3</ele>
        <time>2022-01-12T09:25:29Z</time>
      </trkpt>
      <trkpt lat="47.7139" lon="3.50877">
        <ele>238.3</ele>
        <time>2022-01-12T09:25:30Z</time>
      </trkpt>
      <trkpt lat="47.71389" lon="3.50877">
        <ele>238.3</ele>
        <time>2022-01-12T09:25:31Z</time>
      </trkpt>
      <trkpt lat="47.71387" lon="3.50876">
        <ele>238.3</ele>
        <time>2022-01-12T09:25:32Z</time>
      </trkpt>
      <trkpt lat="47.71386" lon="3.50876">
        <ele>238.3</ele>
        <time>2022-01-12T09:25:33Z</time>
      </trkpt>
      <trkpt lat="47.71384" lon="3.50876">
        <ele>238.2</ele>
        <time>2022-01-12T09:25:34Z</time>
      </trkpt>
      <trkpt lat="47.71384" lon="3.50876">
        <ele>238.2</ele>
        <time>2022-01-12T09:25:35Z</time>
      </trkpt>
      <trkpt lat="47.71382" lon="3.50875">
        <ele>238.2</ele>
        <time>2022-01-12T09:25:36Z</time>
      </trkpt>
      <trkpt lat="47.71381" lon="3.50875">
        <ele>238.2</ele>
        <time>2022-01-12T09:25:38Z</time>
      </trkpt>
      <trkpt lat="47.71379" lon="3.50875">
        <ele>238.2</ele>
        <time>2022-01-12T09:25:39Z</time>
      </trkpt>
      <trkpt lat="47.71378" lon="3.50875">
        <ele>238.2</ele>
        <time>2022-01-12T09:25:40Z</time>
      </trkpt>
      <trkpt lat="47.71377" lon="3.50875">
        <ele>238.2</ele>
        <time>2022-01-12T09:25:41Z</time>
      </trkpt>
      <trkpt lat="47.71376" lon="3.50875">
        <ele>238.2</ele>
        <time>2022-01-12T09:25:42Z</time>
      </trkpt>
      <trkpt lat="47.71374" lon="3.50875">
        <ele>238.3</ele>
        <time>2022-01-12T09:25:43Z</time>
      </trkpt>
      <trkpt lat="47.71372" lon="3.50875">
        <ele>238.2</ele>
        <time>2022-01-12T09:25:44Z</time>
      </trkpt>
      <trkpt lat="47.71372" lon="3.50874">
        <ele>238.3</ele>
        <time>2022-01-12T09:25:45Z</time>
      </trkpt>
      <trkpt lat="47.71371" lon="3.50874">
        <ele>238.2</ele>
        <time>2022-01-12T09:25:46Z</time>
      </trkpt>
      <trkpt lat="47.7137" lon="3.50874">
        <ele>238.2</ele>
        <time>2022-01-12T09:25:47Z</time>
      </trkpt>
      <trkpt lat="47.71368" lon="3.50873">
        <ele>238.2</ele>
        <time>2022-01-12T09:25:49Z</time>
      </trkpt>
      <trkpt lat="47.71367" lon="3.50873">
        <ele>238.2</ele>
        <time>2022-01-12T09:25:50Z</time>
      </trkpt>
      <trkpt lat="47.71366" lon="3.50873">
        <ele>238.2</ele>
        <time>2022-01-12T09:25:51Z</time>
      </trkpt>
      <trkpt lat="47.71365" lon="3.50873">
        <ele>238.2</ele>
        <time>2022-01-12T09:25:52Z</time>
      </trkpt>
      <trkpt lat="47.71364" lon="3.50873">
        <ele>238.2</ele>
        <time>2022-01-12T09:25:53Z</time>
      </trkpt>
      <trkpt lat="47.71362" lon="3.50873">
        <ele>238.2</ele>
        <time>2022-01-12T09:25:54Z</time>
      </trkpt>
      <trkpt lat="47.71361" lon="3.50873">
        <ele>238.2</ele>
        <time>2022-01-12T09:25:55Z</time>
      </trkpt>
      <trkpt lat="47.7136" lon="3.50872">
        <ele>238.2</ele>
        <time>2022-01-12T09:25:56Z</time>
      </trkpt>
      <trkpt lat="47.71359" lon="3.50872">
        <ele>238.2</ele>
        <time>2022-01-12T09:25:57Z</time>
      </trkpt>
      <trkpt lat="47.71357" lon="3.50872">
        <ele>238.2</ele>
        <time>2022-01-12T09:25:59Z</time>
      </trkpt>
      <trkpt lat="47.71356" lon="3.50872">
        <ele>238.2</ele>
        <time>2022-01-12T09:26:00Z</time>
      </trkpt>
      <trkpt lat="47.71354" lon="3.50871">
        <ele>238.1</ele>
        <time>2022-01-12T09:26:01Z</time>
      </trkpt>
      <trkpt lat="47.71353" lon="3.50871">
        <ele>238.1</ele>
        <time>2022-01-12T09:26:02Z</time>
      </trkpt>
      <trkpt lat="47.71352" lon="3.50871">
        <ele>238.1</ele>
        <time>2022-01-12T09:26:03Z</time>
      </trkpt>
      <trkpt lat="47.7135" lon="3.50871">
        <ele>238</ele>
        <time>2022-01-12T09:26:04Z</time>
      </trkpt>
      <trkpt lat="47.71349" lon="3.50871">
        <ele>238</ele>
        <time>2022-01-12T09:26:05Z</time>
      </trkpt>
      <trkpt lat="47.71348" lon="3.50871">
        <ele>238</ele>
        <time>2022-01-12T09:26:06Z</time>
      </trkpt>
      <trkpt lat="47.71346" lon="3.5087">
        <ele>238</ele>
        <time>2022-01-12T09:26:08Z</time>
      </trkpt>
      <trkpt lat="47.71344" lon="3.5087">
        <ele>238</ele>
        <time>2022-01-12T09:26:09Z</time>
      </trkpt>
      <trkpt lat="47.71343" lon="3.5087">
        <ele>238</ele>
        <time>2022-01-12T09:26:10Z</time>
      </trkpt>
      <trkpt lat="47.71341" lon="3.50869">
        <ele>238</ele>
        <time>2022-01-12T09:26:11Z</time>
      </trkpt>
      <trkpt lat="47.7134" lon="3.50868">
        <ele>238</ele>
        <time>2022-01-12T09:26:12Z</time>
      </trkpt>
      <trkpt lat="47.71339" lon="3.50868">
        <ele>238</ele>
        <time>2022-01-12T09:26:13Z</time>
      </trkpt>
      <trkpt lat="47.71338" lon="3.50868">
        <ele>238</ele>
        <time>2022-01-12T09:26:14Z</time>
      </trkpt>
      <trkpt lat="47.71336" lon="3.50868">
        <ele>238</ele>
        <time>2022-01-12T09:26:16Z</time>
      </trkpt>
      <trkpt lat="47.71335" lon="3.50867">
        <ele>237.8</ele>
        <time>2022-01-12T09:26:17Z</time>
      </trkpt>
      <trkpt lat="47.71333" lon="3.50867">
        <ele>237.8</ele>
        <time>2022-01-12T09:26:18Z</time>
      </trkpt>
      <trkpt lat="47.71331" lon="3.50866">
        <ele>237.8</ele>
        <time>2022-01-12T09:26:19Z</time>
      </trkpt>
      <trkpt lat="47.7133" lon="3.50866">
        <ele>237.8</ele>
        <time>2022-01-12T09:26:20Z</time>
      </trkpt>
      <trkpt lat="47.71329" lon="3.50866">
        <ele>237.8</ele>
        <time>2022-01-12T09:26:21Z</time>
      </trkpt>
      <trkpt lat="47.71328" lon="3.50866">
        <ele>237.8</ele>
        <time>2022-01-12T09:26:22Z</time>
      </trkpt>
      <trkpt lat="47.71326" lon="3.50866">
        <ele>237.8</ele>
        <time>2022-01-12T09:26:23Z</time>
      </trkpt>
      <trkpt lat="47.71324" lon="3.50865">
        <ele>237.8</ele>
        <time>2022-01-12T09:26:24Z</time>
      </trkpt>
      <trkpt lat="47.71322" lon="3.50865">
        <ele>237.8</ele>
        <time>2022-01-12T09:26:25Z</time>
      </trkpt>
      <trkpt lat="47.71321" lon="3.50865">
        <ele>237.8</ele>
        <time>2022-01-12T09:26:27Z</time>
      </trkpt>
      <trkpt lat="47.7132" lon="3.50865">
        <ele>237.8</ele>
        <time>2022-01-12T09:26:28Z</time>
      </trkpt>
      <trkpt lat="47.71318" lon="3.50865">
        <ele>237.8</ele>
        <time>2022-01-12T09:26:29Z</time>
      </trkpt>
      <trkpt lat="47.71317" lon="3.50865">
        <ele>237.8</ele>
        <time>2022-01-12T09:26:30Z</time>
      </trkpt>
      <trkpt lat="47.71315" lon="3.50865">
        <ele>237.8</ele>
        <time>2022-01-12T09:26:31Z</time>
      </trkpt>
      <trkpt lat="47.71314" lon="3.50865">
        <ele>237.7</ele>
        <time>2022-01-12T09:26:32Z</time>
      </trkpt>
      <trkpt lat="47.71312" lon="3.50864">
        <ele>237.7</ele>
        <time>2022-01-12T09:26:33Z</time>
      </trkpt>
      <trkpt lat="47.71311" lon="3.50864">
        <ele>237.7</ele>
        <time>2022-01-12T09:26:34Z</time>
      </trkpt>
      <trkpt lat="47.71308" lon="3.50862">
        <ele>237.6</ele>
        <time>2022-01-12T09:26:35Z</time>
      </trkpt>
      <trkpt lat="47.71307" lon="3.50862">
        <ele>237.6</ele>
        <time>2022-01-12T09:26:37Z</time>
      </trkpt>
      <trkpt lat="47.71306" lon="3.50861">
        <ele>237.6</ele>
        <time>2022-01-12T09:26:38Z</time>
      </trkpt>
      <trkpt lat="47.71305" lon="3.50861">
        <ele>237.6</ele>
        <time>2022-01-12T09:26:39Z</time>
      </trkpt>
      <trkpt lat="47.71304" lon="3.5086">
        <ele>237.6</ele>
        <time>2022-01-12T09:26:40Z</time>
      </trkpt>
      <trkpt lat="47.71302" lon="3.5086">
        <ele>237.6</ele>
        <time>2022-01-12T09:26:41Z</time>
      </trkpt>
      <trkpt lat="47.71301" lon="3.50859">
        <ele>237.6</ele>
        <time>2022-01-12T09:26:42Z</time>
      </trkpt>
      <trkpt lat="47.71299" lon="3.50859">
        <ele>237.6</ele>
        <time>2022-01-12T09:26:43Z</time>
      </trkpt>
      <trkpt lat="47.71297" lon="3.50859">
        <ele>237.4</ele>
        <time>2022-01-12T09:26:44Z</time>
      </trkpt>
      <trkpt lat="47.71296" lon="3.50858">
        <ele>237.4</ele>
        <time>2022-01-12T09:26:45Z</time>
      </trkpt>
      <trkpt lat="47.71295" lon="3.50858">
        <ele>237.4</ele>
        <time>2022-01-12T09:26:47Z</time>
      </trkpt>
      <trkpt lat="47.71294" lon="3.50858">
        <ele>237.4</ele>
        <time>2022-01-12T09:26:48Z</time>
      </trkpt>
      <trkpt lat="47.71291" lon="3.50858">
        <ele>237.4</ele>
        <time>2022-01-12T09:26:49Z</time>
      </trkpt>
      <trkpt lat="47.71291" lon="3.50858">
        <ele>237.4</ele>
        <time>2022-01-12T09:26:50Z</time>
      </trkpt>
      <trkpt lat="47.7129" lon="3.50858">
        <ele>237.4</ele>
        <time>2022-01-12T09:26:51Z</time>
      </trkpt>
      <trkpt lat="47.71288" lon="3.50858">
        <ele>237.4</ele>
        <time>2022-01-12T09:26:52Z</time>
      </trkpt>
      <trkpt lat="47.71287" lon="3.50857">
        <ele>237.4</ele>
        <time>2022-01-12T09:26:53Z</time>
      </trkpt>
      <trkpt lat="47.71286" lon="3.50857">
        <ele>237.4</ele>
        <time>2022-01-12T09:26:54Z</time>
      </trkpt>
      <trkpt lat="47.71285" lon="3.50857">
        <ele>237.4</ele>
        <time>2022-01-12T09:26:55Z</time>
      </trkpt>
      <trkpt lat="47.71284" lon="3.50858">
        <ele>237.4</ele>
        <time>2022-01-12T09:26:56Z</time>
      </trkpt>
      <trkpt lat="47.71282" lon="3.50857">
        <ele>237.4</ele>
        <time>2022-01-12T09:26:58Z</time>
      </trkpt>
      <trkpt lat="47.71281" lon="3.50857">
        <ele>237.4</ele>
        <time>2022-01-12T09:26:59Z</time>
      </trkpt>
      <trkpt lat="47.7128" lon="3.50857">
        <ele>237.4</ele>
        <time>2022-01-12T09:27:00Z</time>
      </trkpt>
      <trkpt lat="47.71279" lon="3.50857">
        <ele>237.4</ele>
        <time>2022-01-12T09:27:01Z</time>
      </trkpt>
      <trkpt lat="47.71277" lon="3.50857">
        <ele>237.4</ele>
        <time>2022-01-12T09:27:02Z</time>
      </trkpt>
      <trkpt lat="47.71276" lon="3.50857">
        <ele>237.4</ele>
        <time>2022-01-12T09:27:03Z</time>
      </trkpt>
      <trkpt lat="47.71275" lon="3.50857">
        <ele>237.4</ele>
        <time>2022-01-12T09:27:04Z</time>
      </trkpt>
      <trkpt lat="47.71274" lon="3.50857">
        <ele>237.4</ele>
        <time>2022-01-12T09:27:05Z</time>
      </trkpt>
      <trkpt lat="47.71273" lon="3.50857">
        <ele>237.4</ele>
        <time>2022-01-12T09:27:07Z</time>
      </trkpt>
      <trkpt lat="47.71272" lon="3.50857">
        <ele>237.4</ele>
        <time>2022-01-12T09:27:08Z</time>
      </trkpt>
      <trkpt lat="47.7127" lon="3.50857">
        <ele>237.4</ele>
        <time>2022-01-12T09:27:09Z</time>
      </trkpt>
      <trkpt lat="47.71269" lon="3.50857">
        <ele>237.4</ele>
        <time>2022-01-12T09:27:10Z</time>
      </trkpt>
      <trkpt lat="47.71268" lon="3.50857">
        <ele>237.4</ele>
        <time>2022-01-12T09:27:11Z</time>
      </trkpt>
      <trkpt lat="47.71266" lon="3.50857">
        <ele>237.4</ele>
        <time>2022-01-12T09:27:12Z</time>
      </trkpt>
      <trkpt lat="47.71265" lon="3.50857">
        <ele>237.4</ele>
        <time>2022-01-12T09:27:13Z</time>
      </trkpt>
      <trkpt lat="47.71265" lon="3.50857">
        <ele>237.4</ele>
        <time>2022-01-12T09:27:14Z</time>
      </trkpt>
      <trkpt lat="47.71263" lon="3.50857">
        <ele>237.4</ele>
        <time>2022-01-12T09:27:16Z</time>
      </trkpt>
      <trkpt lat="47.71262" lon="3.50857">
        <ele>237.4</ele>
        <time>2022-01-12T09:27:17Z</time>
      </trkpt>
      <trkpt lat="47.71261" lon="3.50857">
        <ele>237.4</ele>
        <time>2022-01-12T09:27:18Z</time>
      </trkpt>
      <trkpt lat="47.7126" lon="3.50857">
        <ele>237.4</ele>
        <time>2022-01-12T09:27:19Z</time>
      </trkpt>
      <trkpt lat="47.71258" lon="3.50857">
        <ele>237.4</ele>
        <time>2022-01-12T09:27:20Z</time>
      </trkpt>
      <trkpt lat="47.71256" lon="3.50856">
        <ele>237.4</ele>
        <time>2022-01-12T09:27:21Z</time>
      </trkpt>
      <trkpt lat="47.71255" lon="3.50856">
        <ele>237.4</ele>
        <time>2022-01-12T09:27:22Z</time>
      </trkpt>
      <trkpt lat="47.71254" lon="3.50856">
        <ele>237.4</ele>
        <time>2022-01-12T09:27:23Z</time>
      </trkpt>
      <trkpt lat="47.71252" lon="3.50856">
        <ele>237.5</ele>
        <time>2022-01-12T09:27:25Z</time>
      </trkpt>
      <trkpt lat="47.71251" lon="3.50856">
        <ele>237.5</ele>
        <time>2022-01-12T09:27:26Z</time>
      </trkpt>
      <trkpt lat="47.71249" lon="3.50856">
        <ele>237.5</ele>
        <time>2022-01-12T09:27:27Z</time>
      </trkpt>
      <trkpt lat="47.71248" lon="3.50856">
        <ele>237.5</ele>
        <time>2022-01-12T09:27:28Z</time>
      </trkpt>
      <trkpt lat="47.71245" lon="3.50856">
        <ele>237.5</ele>
        <time>2022-01-12T09:27:29Z</time>
      </trkpt>
      <trkpt lat="47.71244" lon="3.50856">
        <ele>237.6</ele>
        <time>2022-01-12T09:27:30Z</time>
      </trkpt>
      <trkpt lat="47.71241" lon="3.50855">
        <ele>237.6</ele>
        <time>2022-01-12T09:27:31Z</time>
      </trkpt>
      <trkpt lat="47.7124" lon="3.50855">
        <ele>237.6</ele>
        <time>2022-01-12T09:27:33Z</time>
      </trkpt>
      <trkpt lat="47.71239" lon="3.50855">
        <ele>237.6</ele>
        <time>2022-01-12T09:27:34Z</time>
      </trkpt>
      <trkpt lat="47.71237" lon="3.50855">
        <ele>237.6</ele>
        <time>2022-01-12T09:27:35Z</time>
      </trkpt>
      <trkpt lat="47.71236" lon="3.50854">
        <ele>237.5</ele>
        <time>2022-01-12T09:27:36Z</time>
      </trkpt>
      <trkpt lat="47.71235" lon="3.50854">
        <ele>237.5</ele>
        <time>2022-01-12T09:27:37Z</time>
      </trkpt>
      <trkpt lat="47.71234" lon="3.50853">
        <ele>237.5</ele>
        <time>2022-01-12T09:27:38Z</time>
      </trkpt>
      <trkpt lat="47.71233" lon="3.50852">
        <ele>237.5</ele>
        <time>2022-01-12T09:27:39Z</time>
      </trkpt>
      <trkpt lat="47.71231" lon="3.50852">
        <ele>237.5</ele>
        <time>2022-01-12T09:27:40Z</time>
      </trkpt>
      <trkpt lat="47.7123" lon="3.50852">
        <ele>237.5</ele>
        <time>2022-01-12T09:27:42Z</time>
      </trkpt>
      <trkpt lat="47.71229" lon="3.50852">
        <ele>237.6</ele>
        <time>2022-01-12T09:27:43Z</time>
      </trkpt>
      <trkpt lat="47.71228" lon="3.50852">
        <ele>237.6</ele>
        <time>2022-01-12T09:27:44Z</time>
      </trkpt>
      <trkpt lat="47.71227" lon="3.50851">
        <ele>237.6</ele>
        <time>2022-01-12T09:27:45Z</time>
      </trkpt>
      <trkpt lat="47.71226" lon="3.50851">
        <ele>237.6</ele>
        <time>2022-01-12T09:27:46Z</time>
      </trkpt>
      <trkpt lat="47.71225" lon="3.50851">
        <ele>237.6</ele>
        <time>2022-01-12T09:27:47Z</time>
      </trkpt>
      <trkpt lat="47.71224" lon="3.5085">
        <ele>237.5</ele>
        <time>2022-01-12T09:27:48Z</time>
      </trkpt>
      <trkpt lat="47.71222" lon="3.50849">
        <ele>237.5</ele>
        <time>2022-01-12T09:27:50Z</time>
      </trkpt>
      <trkpt lat="47.71221" lon="3.50849">
        <ele>237.5</ele>
        <time>2022-01-12T09:27:51Z</time>
      </trkpt>
      <trkpt lat="47.7122" lon="3.50848">
        <ele>237.5</ele>
        <time>2022-01-12T09:27:52Z</time>
      </trkpt>
      <trkpt lat="47.71219" lon="3.50848">
        <ele>237.5</ele>
        <time>2022-01-12T09:27:53Z</time>
      </trkpt>
      <trkpt lat="47.71218" lon="3.50848">
        <ele>237.5</ele>
        <time>2022-01-12T09:27:55Z</time>
      </trkpt>
      <trkpt lat="47.71218" lon="3.50848">
        <ele>237.5</ele>
        <time>2022-01-12T09:27:56Z</time>
      </trkpt>
      <trkpt lat="47.71217" lon="3.50847">
        <ele>237.5</ele>
        <time>2022-01-12T09:27:57Z</time>
      </trkpt>
      <trkpt lat="47.71216" lon="3.50847">
        <ele>237.5</ele>
        <time>2022-01-12T09:27:58Z</time>
      </trkpt>
      <trkpt lat="47.71215" lon="3.50847">
        <ele>237.6</ele>
        <time>2022-01-12T09:27:59Z</time>
      </trkpt>
      <trkpt lat="47.71214" lon="3.50847">
        <ele>237.6</ele>
        <time>2022-01-12T09:28:00Z</time>
      </trkpt>
      <trkpt lat="47.71213" lon="3.50846">
        <ele>237.6</ele>
        <time>2022-01-12T09:28:01Z</time>
      </trkpt>
      <trkpt lat="47.71212" lon="3.50846">
        <ele>237.6</ele>
        <time>2022-01-12T09:28:02Z</time>
      </trkpt>
      <trkpt lat="47.71211" lon="3.50846">
        <ele>237.6</ele>
        <time>2022-01-12T09:28:04Z</time>
      </trkpt>
      <trkpt lat="47.7121" lon="3.50846">
        <ele>237.5</ele>
        <time>2022-01-12T09:28:05Z</time>
      </trkpt>
      <trkpt lat="47.7121" lon="3.50846">
        <ele>237.5</ele>
        <time>2022-01-12T09:28:06Z</time>
      </trkpt>
      <trkpt lat="47.71209" lon="3.50846">
        <ele>237.5</ele>
        <time>2022-01-12T09:28:07Z</time>
      </trkpt>
      <trkpt lat="47.71208" lon="3.50846">
        <ele>237.5</ele>
        <time>2022-01-12T09:28:08Z</time>
      </trkpt>
      <trkpt lat="47.71207" lon="3.50846">
        <ele>237.5</ele>
        <time>2022-01-12T09:28:09Z</time>
      </trkpt>
      <trkpt lat="47.71206" lon="3.50845">
        <ele>237.5</ele>
        <time>2022-01-12T09:28:10Z</time>
      </trkpt>
      <trkpt lat="47.71205" lon="3.50845">
        <ele>237.5</ele>
        <time>2022-01-12T09:28:12Z</time>
      </trkpt>
      <trkpt lat="47.71204" lon="3.50844">
        <ele>237.5</ele>
        <time>2022-01-12T09:28:13Z</time>
      </trkpt>
      <trkpt lat="47.71202" lon="3.50844">
        <ele>237.5</ele>
        <time>2022-01-12T09:28:14Z</time>
      </trkpt>
      <trkpt lat="47.71201" lon="3.50843">
        <ele>237.6</ele>
        <time>2022-01-12T09:28:15Z</time>
      </trkpt>
      <trkpt lat="47.712" lon="3.50843">
        <ele>237.6</ele>
        <time>2022-01-12T09:28:16Z</time>
      </trkpt>
      <trkpt lat="47.71199" lon="3.50842">
        <ele>237.6</ele>
        <time>2022-01-12T09:28:17Z</time>
      </trkpt>
      <trkpt lat="47.71198" lon="3.50842">
        <ele>237.6</ele>
        <time>2022-01-12T09:28:18Z</time>
      </trkpt>
      <trkpt lat="47.71196" lon="3.50841">
        <ele>237.5</ele>
        <time>2022-01-12T09:28:20Z</time>
      </trkpt>
      <trkpt lat="47.71195" lon="3.50841">
        <ele>237.5</ele>
        <time>2022-01-12T09:28:21Z</time>
      </trkpt>
      <trkpt lat="47.71193" lon="3.50841">
        <ele>237.6</ele>
        <time>2022-01-12T09:28:22Z</time>
      </trkpt>
      <trkpt lat="47.71192" lon="3.50841">
        <ele>237.6</ele>
        <time>2022-01-12T09:28:23Z</time>
      </trkpt>
      <trkpt lat="47.71191" lon="3.50841">
        <ele>237.6</ele>
        <time>2022-01-12T09:28:24Z</time>
      </trkpt>
      <trkpt lat="47.71189" lon="3.50841">
        <ele>237.6</ele>
        <time>2022-01-12T09:28:25Z</time>
      </trkpt>
      <trkpt lat="47.71188" lon="3.50841">
        <ele>237.6</ele>
        <time>2022-01-12T09:28:26Z</time>
      </trkpt>
      <trkpt lat="47.71187" lon="3.5084">
        <ele>237.7</ele>
        <time>2022-01-12T09:28:27Z</time>
      </trkpt>
      <trkpt lat="47.71185" lon="3.5084">
        <ele>237.7</ele>
        <time>2022-01-12T09:28:29Z</time>
      </trkpt>
      <trkpt lat="47.71183" lon="3.5084">
        <ele>237.7</ele>
        <time>2022-01-12T09:28:30Z</time>
      </trkpt>
      <trkpt lat="47.71181" lon="3.5084">
        <ele>237.7</ele>
        <time>2022-01-12T09:28:31Z</time>
      </trkpt>
      <trkpt lat="47.7118" lon="3.50839">
        <ele>237.8</ele>
        <time>2022-01-12T09:28:32Z</time>
      </trkpt>
      <trkpt lat="47.71179" lon="3.50839">
        <ele>237.8</ele>
        <time>2022-01-12T09:28:33Z</time>
      </trkpt>
      <trkpt lat="47.71176" lon="3.50839">
        <ele>237.8</ele>
        <time>2022-01-12T09:28:34Z</time>
      </trkpt>
      <trkpt lat="47.71175" lon="3.50838">
        <ele>237.9</ele>
        <time>2022-01-12T09:28:35Z</time>
      </trkpt>
      <trkpt lat="47.71173" lon="3.50838">
        <ele>237.9</ele>
        <time>2022-01-12T09:28:37Z</time>
      </trkpt>
      <trkpt lat="47.71172" lon="3.50838">
        <ele>238</ele>
        <time>2022-01-12T09:28:38Z</time>
      </trkpt>
      <trkpt lat="47.71171" lon="3.50837">
        <ele>237.8</ele>
        <time>2022-01-12T09:28:39Z</time>
      </trkpt>
      <trkpt lat="47.71169" lon="3.50837">
        <ele>237.9</ele>
        <time>2022-01-12T09:28:40Z</time>
      </trkpt>
      <trkpt lat="47.71168" lon="3.50837">
        <ele>237.9</ele>
        <time>2022-01-12T09:28:41Z</time>
      </trkpt>
      <trkpt lat="47.71166" lon="3.50837">
        <ele>238</ele>
        <time>2022-01-12T09:28:42Z</time>
      </trkpt>
      <trkpt lat="47.71165" lon="3.50837">
        <ele>238</ele>
        <time>2022-01-12T09:28:43Z</time>
      </trkpt>
      <trkpt lat="47.71164" lon="3.50836">
        <ele>238.1</ele>
        <time>2022-01-12T09:28:44Z</time>
      </trkpt>
      <trkpt lat="47.71162" lon="3.50836">
        <ele>238.1</ele>
        <time>2022-01-12T09:28:46Z</time>
      </trkpt>
      <trkpt lat="47.7116" lon="3.50836">
        <ele>238.1</ele>
        <time>2022-01-12T09:28:47Z</time>
      </trkpt>
      <trkpt lat="47.71159" lon="3.50836">
        <ele>238.1</ele>
        <time>2022-01-12T09:28:48Z</time>
      </trkpt>
      <trkpt lat="47.71157" lon="3.50836">
        <ele>238.2</ele>
        <time>2022-01-12T09:28:49Z</time>
      </trkpt>
      <trkpt lat="47.71156" lon="3.50836">
        <ele>238.2</ele>
        <time>2022-01-12T09:28:50Z</time>
      </trkpt>
      <trkpt lat="47.71155" lon="3.50836">
        <ele>238.3</ele>
        <time>2022-01-12T09:28:51Z</time>
      </trkpt>
      <trkpt lat="47.71154" lon="3.50836">
        <ele>238.3</ele>
        <time>2022-01-12T09:28:52Z</time>
      </trkpt>
      <trkpt lat="47.71153" lon="3.50836">
        <ele>238.3</ele>
        <time>2022-01-12T09:28:53Z</time>
      </trkpt>
      <trkpt lat="47.71151" lon="3.50835">
        <ele>238.3</ele>
        <time>2022-01-12T09:28:54Z</time>
      </trkpt>
      <trkpt lat="47.7115" lon="3.50835">
        <ele>238.3</ele>
        <time>2022-01-12T09:28:56Z</time>
      </trkpt>
      <trkpt lat="47.71148" lon="3.50834">
        <ele>238.4</ele>
        <time>2022-01-12T09:28:57Z</time>
      </trkpt>
      <trkpt lat="47.71147" lon="3.50834">
        <ele>238.4</ele>
        <time>2022-01-12T09:28:58Z</time>
      </trkpt>
      <trkpt lat="47.71146" lon="3.50834">
        <ele>238.5</ele>
        <time>2022-01-12T09:28:59Z</time>
      </trkpt>
      <trkpt lat="47.71144" lon="3.50833">
        <ele>238.5</ele>
        <time>2022-01-12T09:29:00Z</time>
      </trkpt>
      <trkpt lat="47.71142" lon="3.50833">
        <ele>238.6</ele>
        <time>2022-01-12T09:29:01Z</time>
      </trkpt>
      <trkpt lat="47.71142" lon="3.50833">
        <ele>238.4</ele>
        <time>2022-01-12T09:29:02Z</time>
      </trkpt>
      <trkpt lat="47.7114" lon="3.50833">
        <ele>238.5</ele>
        <time>2022-01-12T09:29:03Z</time>
      </trkpt>
      <trkpt lat="47.71139" lon="3.50832">
        <ele>238.5</ele>
        <time>2022-01-12T09:29:05Z</time>
      </trkpt>
      <trkpt lat="47.71137" lon="3.50832">
        <ele>238.6</ele>
        <time>2022-01-12T09:29:06Z</time>
      </trkpt>
      <trkpt lat="47.71136" lon="3.50832">
        <ele>238.6</ele>
        <time>2022-01-12T09:29:07Z</time>
      </trkpt>
      <trkpt lat="47.71133" lon="3.50832">
        <ele>238.6</ele>
        <time>2022-01-12T09:29:08Z</time>
      </trkpt>
      <trkpt lat="47.71132" lon="3.50832">
        <ele>238.6</ele>
        <time>2022-01-12T09:29:09Z</time>
      </trkpt>
      <trkpt lat="47.71131" lon="3.50832">
        <ele>238.7</ele>
        <time>2022-01-12T09:29:10Z</time>
      </trkpt>
      <trkpt lat="47.7113" lon="3.50832">
        <ele>238.7</ele>
        <time>2022-01-12T09:29:11Z</time>
      </trkpt>
      <trkpt lat="47.71128" lon="3.50831">
        <ele>238.8</ele>
        <time>2022-01-12T09:29:12Z</time>
      </trkpt>
      <trkpt lat="47.71127" lon="3.50831">
        <ele>238.8</ele>
        <time>2022-01-12T09:29:14Z</time>
      </trkpt>
      <trkpt lat="47.71125" lon="3.50831">
        <ele>238.8</ele>
        <time>2022-01-12T09:29:15Z</time>
      </trkpt>
      <trkpt lat="47.71123" lon="3.5083">
        <ele>238.9</ele>
        <time>2022-01-12T09:29:16Z</time>
      </trkpt>
      <trkpt lat="47.71122" lon="3.5083">
        <ele>238.9</ele>
        <time>2022-01-12T09:29:17Z</time>
      </trkpt>
      <trkpt lat="47.7112" lon="3.50829">
        <ele>239</ele>
        <time>2022-01-12T09:29:18Z</time>
      </trkpt>
      <trkpt lat="47.71119" lon="3.50829">
        <ele>239</ele>
        <time>2022-01-12T09:29:19Z</time>
      </trkpt>
      <trkpt lat="47.71118" lon="3.50828">
        <ele>239</ele>
        <time>2022-01-12T09:29:20Z</time>
      </trkpt>
      <trkpt lat="47.71117" lon="3.50828">
        <ele>239</ele>
        <time>2022-01-12T09:29:22Z</time>
      </trkpt>
      <trkpt lat="47.71115" lon="3.50828">
        <ele>239</ele>
        <time>2022-01-12T09:29:23Z</time>
      </trkpt>
      <trkpt lat="47.71114" lon="3.50828">
        <ele>239.1</ele>
        <time>2022-01-12T09:29:24Z</time>
      </trkpt>
      <trkpt lat="47.71113" lon="3.50828">
        <ele>239.1</ele>
        <time>2022-01-12T09:29:25Z</time>
      </trkpt>
      <trkpt lat="47.71111" lon="3.50828">
        <ele>239.2</ele>
        <time>2022-01-12T09:29:26Z</time>
      </trkpt>
      <trkpt lat="47.7111" lon="3.50827">
        <ele>239.2</ele>
        <time>2022-01-12T09:29:27Z</time>
      </trkpt>
      <trkpt lat="47.71109" lon="3.50827">
        <ele>239.3</ele>
        <time>2022-01-12T09:29:28Z</time>
      </trkpt>
      <trkpt lat="47.71107" lon="3.50827">
        <ele>239.3</ele>
        <time>2022-01-12T09:29:30Z</time>
      </trkpt>
      <trkpt lat="47.71105" lon="3.50827">
        <ele>239.4</ele>
        <time>2022-01-12T09:29:31Z</time>
      </trkpt>
      <trkpt lat="47.71105" lon="3.50827">
        <ele>239.4</ele>
        <time>2022-01-12T09:29:32Z</time>
      </trkpt>
      <trkpt lat="47.71104" lon="3.50826">
        <ele>239.4</ele>
        <time>2022-01-12T09:29:33Z</time>
      </trkpt>
      <trkpt lat="47.71102" lon="3.50826">
        <ele>239.6</ele>
        <time>2022-01-12T09:29:34Z</time>
      </trkpt>
      <trkpt lat="47.71101" lon="3.50826">
        <ele>239.6</ele>
        <time>2022-01-12T09:29:35Z</time>
      </trkpt>
      <trkpt lat="47.711" lon="3.50826">
        <ele>239.7</ele>
        <time>2022-01-12T09:29:36Z</time>
      </trkpt>
      <trkpt lat="47.71099" lon="3.50826">
        <ele>239.7</ele>
        <time>2022-01-12T09:29:38Z</time>
      </trkpt>
      <trkpt lat="47.71098" lon="3.50825">
        <ele>239.7</ele>
        <time>2022-01-12T09:29:39Z</time>
      </trkpt>
      <trkpt lat="47.71097" lon="3.50825">
        <ele>239.8</ele>
        <time>2022-01-12T09:29:40Z</time>
      </trkpt>
      <trkpt lat="47.71095" lon="3.50825">
        <ele>239.8</ele>
        <time>2022-01-12T09:29:41Z</time>
      </trkpt>
      <trkpt lat="47.71094" lon="3.50825">
        <ele>239.9</ele>
        <time>2022-01-12T09:29:42Z</time>
      </trkpt>
      <trkpt lat="47.71093" lon="3.50825">
        <ele>239.9</ele>
        <time>2022-01-12T09:29:43Z</time>
      </trkpt>
      <trkpt lat="47.71092" lon="3.50825">
        <ele>239.9</ele>
        <time>2022-01-12T09:29:44Z</time>
      </trkpt>
      <trkpt lat="47.71091" lon="3.50825">
        <ele>240</ele>
        <time>2022-01-12T09:29:46Z</time>
      </trkpt>
      <trkpt lat="47.71089" lon="3.50825">
        <ele>240</ele>
        <time>2022-01-12T09:29:47Z</time>
      </trkpt>
      <trkpt lat="47.71089" lon="3.50826">
        <ele>240.2</ele>
        <time>2022-01-12T09:29:48Z</time>
      </trkpt>
      <trkpt lat="47.71088" lon="3.50826">
        <ele>240.2</ele>
        <time>2022-01-12T09:29:49Z</time>
      </trkpt>
      <trkpt lat="47.71086" lon="3.50825">
        <ele>240.2</ele>
        <time>2022-01-12T09:29:50Z</time>
      </trkpt>
      <trkpt lat="47.71085" lon="3.50825">
        <ele>240.4</ele>
        <time>2022-01-12T09:29:51Z</time>
      </trkpt>
      <trkpt lat="47.71084" lon="3.50825">
        <ele>240.4</ele>
        <time>2022-01-12T09:29:52Z</time>
      </trkpt>
      <trkpt lat="47.71083" lon="3.50824">
        <ele>240.4</ele>
        <time>2022-01-12T09:29:54Z</time>
      </trkpt>
      <trkpt lat="47.71081" lon="3.50824">
        <ele>240.4</ele>
        <time>2022-01-12T09:29:55Z</time>
      </trkpt>
      <trkpt lat="47.71079" lon="3.50823">
        <ele>240.7</ele>
        <time>2022-01-12T09:29:56Z</time>
      </trkpt>
      <trkpt lat="47.71078" lon="3.50823">
        <ele>240.7</ele>
        <time>2022-01-12T09:29:57Z</time>
      </trkpt>
      <trkpt lat="47.71076" lon="3.50822">
        <ele>240.9</ele>
        <time>2022-01-12T09:29:58Z</time>
      </trkpt>
      <trkpt lat="47.71075" lon="3.50822">
        <ele>240.9</ele>
        <time>2022-01-12T09:29:59Z</time>
      </trkpt>
      <trkpt lat="47.71075" lon="3.50822">
        <ele>240.9</ele>
        <time>2022-01-12T09:30:00Z</time>
      </trkpt>
      <trkpt lat="47.71073" lon="3.50822">
        <ele>241.1</ele>
        <time>2022-01-12T09:30:01Z</time>
      </trkpt>
      <trkpt lat="47.71072" lon="3.50822">
        <ele>241.1</ele>
        <time>2022-01-12T09:30:03Z</time>
      </trkpt>
      <trkpt lat="47.71071" lon="3.50821">
        <ele>241.4</ele>
        <time>2022-01-12T09:30:04Z</time>
      </trkpt>
      <trkpt lat="47.71069" lon="3.50821">
        <ele>241.4</ele>
        <time>2022-01-12T09:30:05Z</time>
      </trkpt>
      <trkpt lat="47.71068" lon="3.50821">
        <ele>241.6</ele>
        <time>2022-01-12T09:30:06Z</time>
      </trkpt>
      <trkpt lat="47.71066" lon="3.5082">
        <ele>241.6</ele>
        <time>2022-01-12T09:30:07Z</time>
      </trkpt>
      <trkpt lat="47.71065" lon="3.5082">
        <ele>241.7</ele>
        <time>2022-01-12T09:30:08Z</time>
      </trkpt>
      <trkpt lat="47.71063" lon="3.50819">
        <ele>241.7</ele>
        <time>2022-01-12T09:30:09Z</time>
      </trkpt>
      <trkpt lat="47.71062" lon="3.50819">
        <ele>242</ele>
        <time>2022-01-12T09:30:11Z</time>
      </trkpt>
      <trkpt lat="47.7106" lon="3.50819">
        <ele>242</ele>
        <time>2022-01-12T09:30:12Z</time>
      </trkpt>
      <trkpt lat="47.71059" lon="3.50819">
        <ele>242.3</ele>
        <time>2022-01-12T09:30:13Z</time>
      </trkpt>
      <trkpt lat="47.71058" lon="3.50819">
        <ele>242.3</ele>
        <time>2022-01-12T09:30:14Z</time>
      </trkpt>
      <trkpt lat="47.71056" lon="3.50818">
        <ele>242.6</ele>
        <time>2022-01-12T09:30:15Z</time>
      </trkpt>
      <trkpt lat="47.71055" lon="3.50818">
        <ele>242.6</ele>
        <time>2022-01-12T09:30:16Z</time>
      </trkpt>
      <trkpt lat="47.71053" lon="3.50818">
        <ele>243</ele>
        <time>2022-01-12T09:30:17Z</time>
      </trkpt>
      <trkpt lat="47.71052" lon="3.50818">
        <ele>243</ele>
        <time>2022-01-12T09:30:19Z</time>
      </trkpt>
      <trkpt lat="47.71051" lon="3.50818">
        <ele>243.3</ele>
        <time>2022-01-12T09:30:20Z</time>
      </trkpt>
      <trkpt lat="47.7105" lon="3.50818">
        <ele>243.3</ele>
        <time>2022-01-12T09:30:21Z</time>
      </trkpt>
      <trkpt lat="47.71048" lon="3.50818">
        <ele>243.7</ele>
        <time>2022-01-12T09:30:22Z</time>
      </trkpt>
      <trkpt lat="47.71048" lon="3.50818">
        <ele>243.7</ele>
        <time>2022-01-12T09:30:23Z</time>
      </trkpt>
      <trkpt lat="47.71046" lon="3.50818">
        <ele>243.6</ele>
        <time>2022-01-12T09:30:24Z</time>
      </trkpt>
      <trkpt lat="47.71046" lon="3.50818">
        <ele>243.6</ele>
        <time>2022-01-12T09:30:25Z</time>
      </trkpt>
      <trkpt lat="47.71044" lon="3.50817">
        <ele>244</ele>
        <time>2022-01-12T09:30:27Z</time>
      </trkpt>
      <trkpt lat="47.71043" lon="3.50817">
        <ele>244</ele>
        <time>2022-01-12T09:30:28Z</time>
      </trkpt>
      <trkpt lat="47.71042" lon="3.50817">
        <ele>244.3</ele>
        <time>2022-01-12T09:30:29Z</time>
      </trkpt>
      <trkpt lat="47.71041" lon="3.50817">
        <ele>244.3</ele>
        <time>2022-01-12T09:30:30Z</time>
      </trkpt>
      <trkpt lat="47.7104" lon="3.50817">
        <ele>244.3</ele>
        <time>2022-01-12T09:30:31Z</time>
      </trkpt>
      <trkpt lat="47.71039" lon="3.50817">
        <ele>244.6</ele>
        <time>2022-01-12T09:30:32Z</time>
      </trkpt>
      <trkpt lat="47.71038" lon="3.50817">
        <ele>244.6</ele>
        <time>2022-01-12T09:30:34Z</time>
      </trkpt>
      <trkpt lat="47.71037" lon="3.50817">
        <ele>244.6</ele>
        <time>2022-01-12T09:30:35Z</time>
      </trkpt>
      <trkpt lat="47.71036" lon="3.50817">
        <ele>244.9</ele>
        <time>2022-01-12T09:30:36Z</time>
      </trkpt>
      <trkpt lat="47.71035" lon="3.50817">
        <ele>244.9</ele>
        <time>2022-01-12T09:30:37Z</time>
      </trkpt>
      <trkpt lat="47.71034" lon="3.50818">
        <ele>244.9</ele>
        <time>2022-01-12T09:30:38Z</time>
      </trkpt>
      <trkpt lat="47.71033" lon="3.50817">
        <ele>245.2</ele>
        <time>2022-01-12T09:30:39Z</time>
      </trkpt>
      <trkpt lat="47.71033" lon="3.50817">
        <ele>245.2</ele>
        <time>2022-01-12T09:30:40Z</time>
      </trkpt>
      <trkpt lat="47.71032" lon="3.50816">
        <ele>245.2</ele>
        <time>2022-01-12T09:30:41Z</time>
      </trkpt>
      <trkpt lat="47.71031" lon="3.50816">
        <ele>245.5</ele>
        <time>2022-01-12T09:30:42Z</time>
      </trkpt>
      <trkpt lat="47.7103" lon="3.50816">
        <ele>245.5</ele>
        <time>2022-01-12T09:30:44Z</time>
      </trkpt>
      <trkpt lat="47.71029" lon="3.50816">
        <ele>245.2</ele>
        <time>2022-01-12T09:30:45Z</time>
      </trkpt>
      <trkpt lat="47.71028" lon="3.50815">
        <ele>245.5</ele>
        <time>2022-01-12T09:30:46Z</time>
      </trkpt>
      <trkpt lat="47.71027" lon="3.50815">
        <ele>245.5</ele>
        <time>2022-01-12T09:30:47Z</time>
      </trkpt>
      <trkpt lat="47.71025" lon="3.50815">
        <ele>245.8</ele>
        <time>2022-01-12T09:30:48Z</time>
      </trkpt>
      <trkpt lat="47.71023" lon="3.50815">
        <ele>245.7</ele>
        <time>2022-01-12T09:30:49Z</time>
      </trkpt>
      <trkpt lat="47.71023" lon="3.50815">
        <ele>245.7</ele>
        <time>2022-01-12T09:30:50Z</time>
      </trkpt>
      <trkpt lat="47.7102" lon="3.50815">
        <ele>246</ele>
        <time>2022-01-12T09:30:52Z</time>
      </trkpt>
      <trkpt lat="47.71019" lon="3.50814">
        <ele>246.3</ele>
        <time>2022-01-12T09:30:53Z</time>
      </trkpt>
      <trkpt lat="47.71018" lon="3.50813">
        <ele>246.3</ele>
        <time>2022-01-12T09:30:54Z</time>
      </trkpt>
      <trkpt lat="47.71017" lon="3.50813">
        <ele>246.3</ele>
        <time>2022-01-12T09:30:55Z</time>
      </trkpt>
      <trkpt lat="47.71015" lon="3.50812">
        <ele>246.5</ele>
        <time>2022-01-12T09:30:56Z</time>
      </trkpt>
      <trkpt lat="47.71013" lon="3.50812">
        <ele>246.7</ele>
        <time>2022-01-12T09:30:58Z</time>
      </trkpt>
      <trkpt lat="47.71012" lon="3.50811">
        <ele>246.3</ele>
        <time>2022-01-12T09:30:59Z</time>
      </trkpt>
      <trkpt lat="47.71011" lon="3.50811">
        <ele>246.3</ele>
        <time>2022-01-12T09:31:00Z</time>
      </trkpt>
      <trkpt lat="47.7101" lon="3.50811">
        <ele>246.4</ele>
        <time>2022-01-12T09:31:01Z</time>
      </trkpt>
      <trkpt lat="47.71008" lon="3.5081">
        <ele>246.4</ele>
        <time>2022-01-12T09:31:02Z</time>
      </trkpt>
      <trkpt lat="47.71007" lon="3.5081">
        <ele>246.6</ele>
        <time>2022-01-12T09:31:03Z</time>
      </trkpt>
      <trkpt lat="47.71006" lon="3.5081">
        <ele>246.6</ele>
        <time>2022-01-12T09:31:04Z</time>
      </trkpt>
      <trkpt lat="47.71005" lon="3.5081">
        <ele>246.7</ele>
        <time>2022-01-12T09:31:05Z</time>
      </trkpt>
      <trkpt lat="47.71003" lon="3.5081">
        <ele>246.7</ele>
        <time>2022-01-12T09:31:07Z</time>
      </trkpt>
      <trkpt lat="47.71002" lon="3.5081">
        <ele>246.9</ele>
        <time>2022-01-12T09:31:08Z</time>
      </trkpt>
      <trkpt lat="47.71" lon="3.50809">
        <ele>246.9</ele>
        <time>2022-01-12T09:31:09Z</time>
      </trkpt>
      <trkpt lat="47.70999" lon="3.5081">
        <ele>247</ele>
        <time>2022-01-12T09:31:11Z</time>
      </trkpt>
      <trkpt lat="47.70997" lon="3.5081">
        <ele>247</ele>
        <time>2022-01-12T09:31:12Z</time>
      </trkpt>
      <trkpt lat="47.70996" lon="3.5081">
        <ele>247.1</ele>
        <time>2022-01-12T09:31:13Z</time>
      </trkpt>
      <trkpt lat="47.70995" lon="3.5081">
        <ele>247.1</ele>
        <time>2022-01-12T09:31:14Z</time>
      </trkpt>
      <trkpt lat="47.70994" lon="3.50811">
        <ele>247.1</ele>
        <time>2022-01-12T09:31:15Z</time>
      </trkpt>
      <trkpt lat="47.70993" lon="3.50811">
        <ele>247.3</ele>
        <time>2022-01-12T09:31:16Z</time>
      </trkpt>
      <trkpt lat="47.70991" lon="3.50812">
        <ele>247.6</ele>
        <time>2022-01-12T09:31:17Z</time>
      </trkpt>
      <trkpt lat="47.7099" lon="3.50812">
        <ele>247.7</ele>
        <time>2022-01-12T09:31:18Z</time>
      </trkpt>
      <trkpt lat="47.70989" lon="3.50812">
        <ele>247.7</ele>
        <time>2022-01-12T09:31:19Z</time>
      </trkpt>
      <trkpt lat="47.70987" lon="3.50813">
        <ele>247.8</ele>
        <time>2022-01-12T09:31:20Z</time>
      </trkpt>
      <trkpt lat="47.70986" lon="3.50814">
        <ele>247.8</ele>
        <time>2022-01-12T09:31:22Z</time>
      </trkpt>
      <trkpt lat="47.70985" lon="3.50814">
        <ele>247.8</ele>
        <time>2022-01-12T09:31:23Z</time>
      </trkpt>
      <trkpt lat="47.70984" lon="3.50814">
        <ele>247.9</ele>
        <time>2022-01-12T09:31:24Z</time>
      </trkpt>
      <trkpt lat="47.70983" lon="3.50814">
        <ele>247.9</ele>
        <time>2022-01-12T09:31:25Z</time>
      </trkpt>
      <trkpt lat="47.70982" lon="3.50814">
        <ele>247.9</ele>
        <time>2022-01-12T09:31:26Z</time>
      </trkpt>
      <trkpt lat="47.7098" lon="3.50815">
        <ele>247.9</ele>
        <time>2022-01-12T09:31:27Z</time>
      </trkpt>
      <trkpt lat="47.70979" lon="3.50816">
        <ele>247.9</ele>
        <time>2022-01-12T09:31:28Z</time>
      </trkpt>
      <trkpt lat="47.70978" lon="3.50817">
        <ele>248.4</ele>
        <time>2022-01-12T09:31:29Z</time>
      </trkpt>
      <trkpt lat="47.70977" lon="3.50817">
        <ele>248.4</ele>
        <time>2022-01-12T09:31:30Z</time>
      </trkpt>
      <trkpt lat="47.70975" lon="3.50818">
        <ele>248.5</ele>
        <time>2022-01-12T09:31:32Z</time>
      </trkpt>
      <trkpt lat="47.70974" lon="3.50819">
        <ele>248.5</ele>
        <time>2022-01-12T09:31:33Z</time>
      </trkpt>
      <trkpt lat="47.70972" lon="3.50819">
        <ele>248.6</ele>
        <time>2022-01-12T09:31:34Z</time>
      </trkpt>
      <trkpt lat="47.70971" lon="3.5082">
        <ele>248.6</ele>
        <time>2022-01-12T09:31:35Z</time>
      </trkpt>
      <trkpt lat="47.70969" lon="3.5082">
        <ele>248.9</ele>
        <time>2022-01-12T09:31:36Z</time>
      </trkpt>
      <trkpt lat="47.70968" lon="3.50821">
        <ele>248.9</ele>
        <time>2022-01-12T09:31:37Z</time>
      </trkpt>
      <trkpt lat="47.70966" lon="3.50821">
        <ele>249</ele>
        <time>2022-01-12T09:31:39Z</time>
      </trkpt>
      <trkpt lat="47.70965" lon="3.50822">
        <ele>249.1</ele>
        <time>2022-01-12T09:31:40Z</time>
      </trkpt>
      <trkpt lat="47.70963" lon="3.50822">
        <ele>249.1</ele>
        <time>2022-01-12T09:31:41Z</time>
      </trkpt>
      <trkpt lat="47.70961" lon="3.50822">
        <ele>249.1</ele>
        <time>2022-01-12T09:31:43Z</time>
      </trkpt>
      <trkpt lat="47.7096" lon="3.50823">
        <ele>249.1</ele>
        <time>2022-01-12T09:31:44Z</time>
      </trkpt>
      <trkpt lat="47.70959" lon="3.50824">
        <ele>249.1</ele>
        <time>2022-01-12T09:31:45Z</time>
      </trkpt>
      <trkpt lat="47.70958" lon="3.50825">
        <ele>249.3</ele>
        <time>2022-01-12T09:31:46Z</time>
      </trkpt>
      <trkpt lat="47.70958" lon="3.50826">
        <ele>249.3</ele>
        <time>2022-01-12T09:31:47Z</time>
      </trkpt>
      <trkpt lat="47.70957" lon="3.50827">
        <ele>249.3</ele>
        <time>2022-01-12T09:31:49Z</time>
      </trkpt>
      <trkpt lat="47.70957" lon="3.50827">
        <ele>249.3</ele>
        <time>2022-01-12T09:31:50Z</time>
      </trkpt>
      <trkpt lat="47.70956" lon="3.50828">
        <ele>249.3</ele>
        <time>2022-01-12T09:31:51Z</time>
      </trkpt>
      <trkpt lat="47.70956" lon="3.50829">
        <ele>249.4</ele>
        <time>2022-01-12T09:31:52Z</time>
      </trkpt>
      <trkpt lat="47.70955" lon="3.5083">
        <ele>249.4</ele>
        <time>2022-01-12T09:31:53Z</time>
      </trkpt>
      <trkpt lat="47.70955" lon="3.50831">
        <ele>249.4</ele>
        <time>2022-01-12T09:31:54Z</time>
      </trkpt>
      <trkpt lat="47.70954" lon="3.50831">
        <ele>249.4</ele>
        <time>2022-01-12T09:31:55Z</time>
      </trkpt>
      <trkpt lat="47.70953" lon="3.50832">
        <ele>249.4</ele>
        <time>2022-01-12T09:31:57Z</time>
      </trkpt>
      <trkpt lat="47.70952" lon="3.50832">
        <ele>249.4</ele>
        <time>2022-01-12T09:31:58Z</time>
      </trkpt>
      <trkpt lat="47.70951" lon="3.50833">
        <ele>249.4</ele>
        <time>2022-01-12T09:31:59Z</time>
      </trkpt>
      <trkpt lat="47.7095" lon="3.50833">
        <ele>249.4</ele>
        <time>2022-01-12T09:32:00Z</time>
      </trkpt>
      <trkpt lat="47.7095" lon="3.50833">
        <ele>249.4</ele>
        <time>2022-01-12T09:32:01Z</time>
      </trkpt>
      <trkpt lat="47.70949" lon="3.50833">
        <ele>249.4</ele>
        <time>2022-01-12T09:32:02Z</time>
      </trkpt>
      <trkpt lat="47.70947" lon="3.50833">
        <ele>249.4</ele>
        <time>2022-01-12T09:32:04Z</time>
      </trkpt>
      <trkpt lat="47.70946" lon="3.50833">
        <ele>249.4</ele>
        <time>2022-01-12T09:32:05Z</time>
      </trkpt>
      <trkpt lat="47.70945" lon="3.50833">
        <ele>249.3</ele>
        <time>2022-01-12T09:32:06Z</time>
      </trkpt>
      <trkpt lat="47.70944" lon="3.50832">
        <ele>249.3</ele>
        <time>2022-01-12T09:32:07Z</time>
      </trkpt>
      <trkpt lat="47.70943" lon="3.50831">
        <ele>249.3</ele>
        <time>2022-01-12T09:32:08Z</time>
      </trkpt>
      <trkpt lat="47.70942" lon="3.5083">
        <ele>249.3</ele>
        <time>2022-01-12T09:32:09Z</time>
      </trkpt>
      <trkpt lat="47.70941" lon="3.50831">
        <ele>249.3</ele>
        <time>2022-01-12T09:32:10Z</time>
      </trkpt>
      <trkpt lat="47.70938" lon="3.50832">
        <ele>249.3</ele>
        <time>2022-01-12T09:32:12Z</time>
      </trkpt>
      <trkpt lat="47.70937" lon="3.50833">
        <ele>249.3</ele>
        <time>2022-01-12T09:32:13Z</time>
      </trkpt>
      <trkpt lat="47.70935" lon="3.50835">
        <ele>249.4</ele>
        <time>2022-01-12T09:32:14Z</time>
      </trkpt>
      <trkpt lat="47.70934" lon="3.50835">
        <ele>249.4</ele>
        <time>2022-01-12T09:32:15Z</time>
      </trkpt>
      <trkpt lat="47.70932" lon="3.50836">
        <ele>249.4</ele>
        <time>2022-01-12T09:32:16Z</time>
      </trkpt>
      <trkpt lat="47.70931" lon="3.50836">
        <ele>249.4</ele>
        <time>2022-01-12T09:32:18Z</time>
      </trkpt>
      <trkpt lat="47.7093" lon="3.50836">
        <ele>249.4</ele>
        <time>2022-01-12T09:32:19Z</time>
      </trkpt>
      <trkpt lat="47.70928" lon="3.50837">
        <ele>249.4</ele>
        <time>2022-01-12T09:32:20Z</time>
      </trkpt>
      <trkpt lat="47.70927" lon="3.50837">
        <ele>249.5</ele>
        <time>2022-01-12T09:32:21Z</time>
      </trkpt>
      <trkpt lat="47.70926" lon="3.50838">
        <ele>249.6</ele>
        <time>2022-01-12T09:32:22Z</time>
      </trkpt>
      <trkpt lat="47.70925" lon="3.50839">
        <ele>249.6</ele>
        <time>2022-01-12T09:32:23Z</time>
      </trkpt>
      <trkpt lat="47.70923" lon="3.50839">
        <ele>249.6</ele>
        <time>2022-01-12T09:32:25Z</time>
      </trkpt>
      <trkpt lat="47.70922" lon="3.5084">
        <ele>249.6</ele>
        <time>2022-01-12T09:32:26Z</time>
      </trkpt>
      <trkpt lat="47.70921" lon="3.5084">
        <ele>249.6</ele>
        <time>2022-01-12T09:32:27Z</time>
      </trkpt>
      <trkpt lat="47.70919" lon="3.50841">
        <ele>249.6</ele>
        <time>2022-01-12T09:32:28Z</time>
      </trkpt>
      <trkpt lat="47.70918" lon="3.50841">
        <ele>249.7</ele>
        <time>2022-01-12T09:32:29Z</time>
      </trkpt>
      <trkpt lat="47.70916" lon="3.50842">
        <ele>249.8</ele>
        <time>2022-01-12T09:32:30Z</time>
      </trkpt>
      <trkpt lat="47.70915" lon="3.50843">
        <ele>249.8</ele>
        <time>2022-01-12T09:32:32Z</time>
      </trkpt>
      <trkpt lat="47.70913" lon="3.50843">
        <ele>249.8</ele>
        <time>2022-01-12T09:32:33Z</time>
      </trkpt>
      <trkpt lat="47.70912" lon="3.50844">
        <ele>249.9</ele>
        <time>2022-01-12T09:32:34Z</time>
      </trkpt>
      <trkpt lat="47.70911" lon="3.50844">
        <ele>249.9</ele>
        <time>2022-01-12T09:32:35Z</time>
      </trkpt>
      <trkpt lat="47.70911" lon="3.50844">
        <ele>249.9</ele>
        <time>2022-01-12T09:32:36Z</time>
      </trkpt>
      <trkpt lat="47.7091" lon="3.50843">
        <ele>249.9</ele>
        <time>2022-01-12T09:32:37Z</time>
      </trkpt>
      <trkpt lat="47.70909" lon="3.50844">
        <ele>249.9</ele>
        <time>2022-01-12T09:32:39Z</time>
      </trkpt>
      <trkpt lat="47.70907" lon="3.50844">
        <ele>249.9</ele>
        <time>2022-01-12T09:32:40Z</time>
      </trkpt>
      <trkpt lat="47.70907" lon="3.50844">
        <ele>250</ele>
        <time>2022-01-12T09:32:41Z</time>
      </trkpt>
      <trkpt lat="47.70905" lon="3.50845">
        <ele>250</ele>
        <time>2022-01-12T09:32:42Z</time>
      </trkpt>
      <trkpt lat="47.70904" lon="3.50846">
        <ele>250</ele>
        <time>2022-01-12T09:32:43Z</time>
      </trkpt>
      <trkpt lat="47.70903" lon="3.50847">
        <ele>250.1</ele>
        <time>2022-01-12T09:32:44Z</time>
      </trkpt>
      <trkpt lat="47.70901" lon="3.50848">
        <ele>250.1</ele>
        <time>2022-01-12T09:32:46Z</time>
      </trkpt>
      <trkpt lat="47.709" lon="3.50849">
        <ele>250.2</ele>
        <time>2022-01-12T09:32:47Z</time>
      </trkpt>
      <trkpt lat="47.70899" lon="3.5085">
        <ele>250.3</ele>
        <time>2022-01-12T09:32:48Z</time>
      </trkpt>
      <trkpt lat="47.70897" lon="3.50851">
        <ele>250.3</ele>
        <time>2022-01-12T09:32:49Z</time>
      </trkpt>
      <trkpt lat="47.70895" lon="3.50852">
        <ele>250.3</ele>
        <time>2022-01-12T09:32:50Z</time>
      </trkpt>
      <trkpt lat="47.70892" lon="3.50852">
        <ele>250.4</ele>
        <time>2022-01-12T09:32:51Z</time>
      </trkpt>
      <trkpt lat="47.70891" lon="3.50852">
        <ele>250.4</ele>
        <time>2022-01-12T09:32:53Z</time>
      </trkpt>
      <trkpt lat="47.7089" lon="3.50852">
        <ele>250.4</ele>
        <time>2022-01-12T09:32:54Z</time>
      </trkpt>
      <trkpt lat="47.70888" lon="3.50853">
        <ele>250.5</ele>
        <time>2022-01-12T09:32:55Z</time>
      </trkpt>
      <trkpt lat="47.70887" lon="3.50851">
        <ele>250.5</ele>
        <time>2022-01-12T09:32:56Z</time>
      </trkpt>
      <trkpt lat="47.70886" lon="3.50851">
        <ele>250.5</ele>
        <time>2022-01-12T09:32:57Z</time>
      </trkpt>
      <trkpt lat="47.70885" lon="3.5085">
        <ele>250.5</ele>
        <time>2022-01-12T09:32:58Z</time>
      </trkpt>
      <trkpt lat="47.70883" lon="3.5085">
        <ele>250.5</ele>
        <time>2022-01-12T09:32:59Z</time>
      </trkpt>
      <trkpt lat="47.70882" lon="3.5085">
        <ele>250.5</ele>
        <time>2022-01-12T09:33:01Z</time>
      </trkpt>
      <trkpt lat="47.70881" lon="3.50849">
        <ele>250.5</ele>
        <time>2022-01-12T09:33:02Z</time>
      </trkpt>
      <trkpt lat="47.70879" lon="3.50849">
        <ele>250.5</ele>
        <time>2022-01-12T09:33:03Z</time>
      </trkpt>
      <trkpt lat="47.70878" lon="3.50849">
        <ele>250.5</ele>
        <time>2022-01-12T09:33:04Z</time>
      </trkpt>
      <trkpt lat="47.70877" lon="3.50848">
        <ele>250.5</ele>
        <time>2022-01-12T09:33:05Z</time>
      </trkpt>
      <trkpt lat="47.70876" lon="3.50848">
        <ele>250.5</ele>
        <time>2022-01-12T09:33:07Z</time>
      </trkpt>
      <trkpt lat="47.70875" lon="3.50847">
        <ele>250.5</ele>
        <time>2022-01-12T09:33:08Z</time>
      </trkpt>
      <trkpt lat="47.70874" lon="3.50847">
        <ele>250.5</ele>
        <time>2022-01-12T09:33:09Z</time>
      </trkpt>
      <trkpt lat="47.70872" lon="3.50847">
        <ele>250.5</ele>
        <time>2022-01-12T09:33:10Z</time>
      </trkpt>
      <trkpt lat="47.7087" lon="3.50846">
        <ele>250.5</ele>
        <time>2022-01-12T09:33:11Z</time>
      </trkpt>
      <trkpt lat="47.70869" lon="3.50846">
        <ele>250.5</ele>
        <time>2022-01-12T09:33:12Z</time>
      </trkpt>
      <trkpt lat="47.70869" lon="3.50846">
        <ele>250.5</ele>
        <time>2022-01-12T09:33:13Z</time>
      </trkpt>
      <trkpt lat="47.70868" lon="3.50846">
        <ele>250.5</ele>
        <time>2022-01-12T09:33:14Z</time>
      </trkpt>
      <trkpt lat="47.70866" lon="3.50846">
        <ele>250.6</ele>
        <time>2022-01-12T09:33:15Z</time>
      </trkpt>
      <trkpt lat="47.70865" lon="3.50846">
        <ele>250.6</ele>
        <time>2022-01-12T09:33:17Z</time>
      </trkpt>
      <trkpt lat="47.70864" lon="3.50847">
        <ele>250.5</ele>
        <time>2022-01-12T09:33:18Z</time>
      </trkpt>
      <trkpt lat="47.70863" lon="3.50847">
        <ele>250.6</ele>
        <time>2022-01-12T09:33:19Z</time>
      </trkpt>
      <trkpt lat="47.70861" lon="3.50847">
        <ele>250.6</ele>
        <time>2022-01-12T09:33:20Z</time>
      </trkpt>
      <trkpt lat="47.7086" lon="3.50848">
        <ele>250.6</ele>
        <time>2022-01-12T09:33:22Z</time>
      </trkpt>
      <trkpt lat="47.70858" lon="3.50848">
        <ele>250.6</ele>
        <time>2022-01-12T09:33:23Z</time>
      </trkpt>
      <trkpt lat="47.70857" lon="3.50848">
        <ele>250.6</ele>
        <time>2022-01-12T09:33:24Z</time>
      </trkpt>
      <trkpt lat="47.70855" lon="3.50848">
        <ele>250.6</ele>
        <time>2022-01-12T09:33:25Z</time>
      </trkpt>
      <trkpt lat="47.70854" lon="3.50848">
        <ele>250.6</ele>
        <time>2022-01-12T09:33:26Z</time>
      </trkpt>
      <trkpt lat="47.70853" lon="3.50848">
        <ele>250.6</ele>
        <time>2022-01-12T09:33:27Z</time>
      </trkpt>
      <trkpt lat="47.70852" lon="3.50849">
        <ele>250.6</ele>
        <time>2022-01-12T09:33:29Z</time>
      </trkpt>
      <trkpt lat="47.7085" lon="3.50849">
        <ele>250.6</ele>
        <time>2022-01-12T09:33:30Z</time>
      </trkpt>
      <trkpt lat="47.70849" lon="3.5085">
        <ele>250.6</ele>
        <time>2022-01-12T09:33:31Z</time>
      </trkpt>
      <trkpt lat="47.70848" lon="3.5085">
        <ele>250.6</ele>
        <time>2022-01-12T09:33:32Z</time>
      </trkpt>
      <trkpt lat="47.70847" lon="3.50851">
        <ele>250.7</ele>
        <time>2022-01-12T09:33:33Z</time>
      </trkpt>
      <trkpt lat="47.70845" lon="3.50851">
        <ele>250.7</ele>
        <time>2022-01-12T09:33:34Z</time>
      </trkpt>
      <trkpt lat="47.70844" lon="3.50852">
        <ele>250.7</ele>
        <time>2022-01-12T09:33:36Z</time>
      </trkpt>
      <trkpt lat="47.70843" lon="3.50852">
        <ele>250.7</ele>
        <time>2022-01-12T09:33:37Z</time>
      </trkpt>
      <trkpt lat="47.70842" lon="3.50853">
        <ele>250.7</ele>
        <time>2022-01-12T09:33:38Z</time>
      </trkpt>
      <trkpt lat="47.70841" lon="3.50853">
        <ele>250.7</ele>
        <time>2022-01-12T09:33:39Z</time>
      </trkpt>
      <trkpt lat="47.70839" lon="3.50853">
        <ele>250.7</ele>
        <time>2022-01-12T09:33:40Z</time>
      </trkpt>
      <trkpt lat="47.70839" lon="3.50852">
        <ele>250.7</ele>
        <time>2022-01-12T09:33:41Z</time>
      </trkpt>
      <trkpt lat="47.70837" lon="3.50852">
        <ele>250.8</ele>
        <time>2022-01-12T09:33:43Z</time>
      </trkpt>
      <trkpt lat="47.70836" lon="3.50852">
        <ele>250.8</ele>
        <time>2022-01-12T09:33:44Z</time>
      </trkpt>
      <trkpt lat="47.70835" lon="3.50852">
        <ele>250.8</ele>
        <time>2022-01-12T09:33:45Z</time>
      </trkpt>
      <trkpt lat="47.70834" lon="3.50852">
        <ele>250.8</ele>
        <time>2022-01-12T09:33:46Z</time>
      </trkpt>
      <trkpt lat="47.70833" lon="3.50852">
        <ele>250.8</ele>
        <time>2022-01-12T09:33:47Z</time>
      </trkpt>
      <trkpt lat="47.70832" lon="3.50852">
        <ele>250.8</ele>
        <time>2022-01-12T09:33:48Z</time>
      </trkpt>
      <trkpt lat="47.7083" lon="3.50852">
        <ele>250.8</ele>
        <time>2022-01-12T09:33:50Z</time>
      </trkpt>
      <trkpt lat="47.70829" lon="3.50852">
        <ele>250.9</ele>
        <time>2022-01-12T09:33:51Z</time>
      </trkpt>
      <trkpt lat="47.70828" lon="3.50852">
        <ele>250.9</ele>
        <time>2022-01-12T09:33:52Z</time>
      </trkpt>
      <trkpt lat="47.70826" lon="3.50852">
        <ele>250.9</ele>
        <time>2022-01-12T09:33:53Z</time>
      </trkpt>
      <trkpt lat="47.70825" lon="3.50851">
        <ele>250.9</ele>
        <time>2022-01-12T09:33:54Z</time>
      </trkpt>
      <trkpt lat="47.70823" lon="3.50851">
        <ele>250.9</ele>
        <time>2022-01-12T09:33:55Z</time>
      </trkpt>
      <trkpt lat="47.70823" lon="3.50851">
        <ele>250.9</ele>
        <time>2022-01-12T09:33:57Z</time>
      </trkpt>
      <trkpt lat="47.70822" lon="3.50851">
        <ele>250.9</ele>
        <time>2022-01-12T09:33:58Z</time>
      </trkpt>
      <trkpt lat="47.70821" lon="3.5085">
        <ele>250.9</ele>
        <time>2022-01-12T09:33:59Z</time>
      </trkpt>
      <trkpt lat="47.70819" lon="3.5085">
        <ele>250.9</ele>
        <time>2022-01-12T09:34:00Z</time>
      </trkpt>
      <trkpt lat="47.70818" lon="3.50849">
        <ele>250.9</ele>
        <time>2022-01-12T09:34:01Z</time>
      </trkpt>
      <trkpt lat="47.70817" lon="3.50849">
        <ele>250.9</ele>
        <time>2022-01-12T09:34:02Z</time>
      </trkpt>
      <trkpt lat="47.70816" lon="3.50848">
        <ele>250.9</ele>
        <time>2022-01-12T09:34:04Z</time>
      </trkpt>
      <trkpt lat="47.70814" lon="3.50847">
        <ele>250.9</ele>
        <time>2022-01-12T09:34:05Z</time>
      </trkpt>
      <trkpt lat="47.70814" lon="3.50847">
        <ele>250.9</ele>
        <time>2022-01-12T09:34:06Z</time>
      </trkpt>
      <trkpt lat="47.70813" lon="3.50847">
        <ele>250.9</ele>
        <time>2022-01-12T09:34:07Z</time>
      </trkpt>
      <trkpt lat="47.70811" lon="3.50846">
        <ele>250.9</ele>
        <time>2022-01-12T09:34:09Z</time>
      </trkpt>
      <trkpt lat="47.70809" lon="3.50846">
        <ele>250.9</ele>
        <time>2022-01-12T09:34:10Z</time>
      </trkpt>
      <trkpt lat="47.70808" lon="3.50846">
        <ele>250.8</ele>
        <time>2022-01-12T09:34:11Z</time>
      </trkpt>
      <trkpt lat="47.70807" lon="3.50846">
        <ele>250.8</ele>
        <time>2022-01-12T09:34:12Z</time>
      </trkpt>
      <trkpt lat="47.70806" lon="3.50845">
        <ele>250.9</ele>
        <time>2022-01-12T09:34:13Z</time>
      </trkpt>
      <trkpt lat="47.70805" lon="3.50845">
        <ele>250.9</ele>
        <time>2022-01-12T09:34:14Z</time>
      </trkpt>
      <trkpt lat="47.70805" lon="3.50845">
        <ele>250.9</ele>
        <time>2022-01-12T09:34:15Z</time>
      </trkpt>
      <trkpt lat="47.70805" lon="3.50845">
        <ele>250.9</ele>
        <time>2022-01-12T09:34:16Z</time>
      </trkpt>
      <trkpt lat="47.70805" lon="3.50845">
        <ele>250.9</ele>
        <time>2022-01-12T09:34:17Z</time>
      </trkpt>
      <trkpt lat="47.70805" lon="3.50845">
        <ele>250.9</ele>
        <time>2022-01-12T09:34:18Z</time>
      </trkpt>
      <trkpt lat="47.70805" lon="3.50845">
        <ele>250.9</ele>
        <time>2022-01-12T09:34:20Z</time>
      </trkpt>
      <trkpt lat="47.70805" lon="3.50846">
        <ele>250.9</ele>
        <time>2022-01-12T09:34:21Z</time>
      </trkpt>
      <trkpt lat="47.70805" lon="3.50846">
        <ele>250.9</ele>
        <time>2022-01-12T09:34:22Z</time>
      </trkpt>
      <trkpt lat="47.70804" lon="3.50846">
        <ele>250.9</ele>
        <time>2022-01-12T09:34:23Z</time>
      </trkpt>
      <trkpt lat="47.70803" lon="3.50845">
        <ele>251</ele>
        <time>2022-01-12T09:34:24Z</time>
      </trkpt>
      <trkpt lat="47.70803" lon="3.50844">
        <ele>251</ele>
        <time>2022-01-12T09:34:25Z</time>
      </trkpt>
      <trkpt lat="47.70802" lon="3.50844">
        <ele>251</ele>
        <time>2022-01-12T09:34:27Z</time>
      </trkpt>
      <trkpt lat="47.70801" lon="3.50844">
        <ele>251</ele>
        <time>2022-01-12T09:34:28Z</time>
      </trkpt>
      <trkpt lat="47.70799" lon="3.50844">
        <ele>251</ele>
        <time>2022-01-12T09:34:29Z</time>
      </trkpt>
      <trkpt lat="47.70797" lon="3.50845">
        <ele>251.1</ele>
        <time>2022-01-12T09:34:31Z</time>
      </trkpt>
      <trkpt lat="47.70796" lon="3.50845">
        <ele>251.1</ele>
        <time>2022-01-12T09:34:32Z</time>
      </trkpt>
      <trkpt lat="47.70794" lon="3.50844">
        <ele>251.1</ele>
        <time>2022-01-12T09:34:33Z</time>
      </trkpt>
      <trkpt lat="47.70793" lon="3.50844">
        <ele>251.1</ele>
        <time>2022-01-12T09:34:35Z</time>
      </trkpt>
      <trkpt lat="47.70792" lon="3.50843">
        <ele>251.2</ele>
        <time>2022-01-12T09:34:36Z</time>
      </trkpt>
      <trkpt lat="47.70791" lon="3.50843">
        <ele>251.2</ele>
        <time>2022-01-12T09:34:37Z</time>
      </trkpt>
      <trkpt lat="47.7079" lon="3.50842">
        <ele>251.2</ele>
        <time>2022-01-12T09:34:38Z</time>
      </trkpt>
      <trkpt lat="47.70788" lon="3.50842">
        <ele>251.3</ele>
        <time>2022-01-12T09:34:40Z</time>
      </trkpt>
      <trkpt lat="47.70786" lon="3.50842">
        <ele>251.3</ele>
        <time>2022-01-12T09:34:41Z</time>
      </trkpt>
      <trkpt lat="47.70785" lon="3.50842">
        <ele>251.3</ele>
        <time>2022-01-12T09:34:42Z</time>
      </trkpt>
      <trkpt lat="47.70784" lon="3.50842">
        <ele>251.3</ele>
        <time>2022-01-12T09:34:43Z</time>
      </trkpt>
      <trkpt lat="47.70784" lon="3.50842">
        <ele>251.4</ele>
        <time>2022-01-12T09:34:44Z</time>
      </trkpt>
      <trkpt lat="47.70783" lon="3.50842">
        <ele>251.4</ele>
        <time>2022-01-12T09:34:45Z</time>
      </trkpt>
      <trkpt lat="47.70781" lon="3.50842">
        <ele>251.4</ele>
        <time>2022-01-12T09:34:46Z</time>
      </trkpt>
      <trkpt lat="47.7078" lon="3.50841">
        <ele>251.4</ele>
        <time>2022-01-12T09:34:48Z</time>
      </trkpt>
      <trkpt lat="47.70779" lon="3.50841">
        <ele>251.5</ele>
        <time>2022-01-12T09:34:49Z</time>
      </trkpt>
      <trkpt lat="47.70778" lon="3.50841">
        <ele>251.5</ele>
        <time>2022-01-12T09:34:50Z</time>
      </trkpt>
      <trkpt lat="47.70777" lon="3.50841">
        <ele>251.5</ele>
        <time>2022-01-12T09:34:51Z</time>
      </trkpt>
      <trkpt lat="47.70776" lon="3.50841">
        <ele>251.5</ele>
        <time>2022-01-12T09:34:52Z</time>
      </trkpt>
      <trkpt lat="47.70775" lon="3.50841">
        <ele>251.6</ele>
        <time>2022-01-12T09:34:53Z</time>
      </trkpt>
      <trkpt lat="47.70774" lon="3.50841">
        <ele>251.6</ele>
        <time>2022-01-12T09:34:54Z</time>
      </trkpt>
      <trkpt lat="47.70773" lon="3.50841">
        <ele>251.6</ele>
        <time>2022-01-12T09:34:55Z</time>
      </trkpt>
      <trkpt lat="47.70772" lon="3.50841">
        <ele>251.6</ele>
        <time>2022-01-12T09:34:56Z</time>
      </trkpt>
      <trkpt lat="47.70771" lon="3.50841">
        <ele>251.6</ele>
        <time>2022-01-12T09:34:57Z</time>
      </trkpt>
      <trkpt lat="47.7077" lon="3.50841">
        <ele>251.7</ele>
        <time>2022-01-12T09:34:58Z</time>
      </trkpt>
      <trkpt lat="47.70769" lon="3.50841">
        <ele>251.7</ele>
        <time>2022-01-12T09:34:59Z</time>
      </trkpt>
      <trkpt lat="47.70768" lon="3.50841">
        <ele>251.7</ele>
        <time>2022-01-12T09:35:00Z</time>
      </trkpt>
      <trkpt lat="47.70767" lon="3.50841">
        <ele>251.7</ele>
        <time>2022-01-12T09:35:01Z</time>
      </trkpt>
      <trkpt lat="47.70766" lon="3.5084">
        <ele>251.8</ele>
        <time>2022-01-12T09:35:03Z</time>
      </trkpt>
      <trkpt lat="47.70765" lon="3.5084">
        <ele>251.8</ele>
        <time>2022-01-12T09:35:04Z</time>
      </trkpt>
      <trkpt lat="47.70763" lon="3.5084">
        <ele>251.8</ele>
        <time>2022-01-12T09:35:05Z</time>
      </trkpt>
      <trkpt lat="47.70762" lon="3.50839">
        <ele>251.9</ele>
        <time>2022-01-12T09:35:06Z</time>
      </trkpt>
      <trkpt lat="47.70762" lon="3.50838">
        <ele>251.9</ele>
        <time>2022-01-12T09:35:07Z</time>
      </trkpt>
      <trkpt lat="47.70761" lon="3.50838">
        <ele>251.9</ele>
        <time>2022-01-12T09:35:08Z</time>
      </trkpt>
      <trkpt lat="47.70761" lon="3.50838">
        <ele>251.9</ele>
        <time>2022-01-12T09:35:09Z</time>
      </trkpt>
      <trkpt lat="47.70759" lon="3.50837">
        <ele>251.9</ele>
        <time>2022-01-12T09:35:10Z</time>
      </trkpt>
      <trkpt lat="47.70759" lon="3.50837">
        <ele>251.9</ele>
        <time>2022-01-12T09:35:11Z</time>
      </trkpt>
      <trkpt lat="47.70758" lon="3.50837">
        <ele>251.9</ele>
        <time>2022-01-12T09:35:12Z</time>
      </trkpt>
      <trkpt lat="47.70757" lon="3.50837">
        <ele>252</ele>
        <time>2022-01-12T09:35:14Z</time>
      </trkpt>
      <trkpt lat="47.70755" lon="3.50837">
        <ele>252</ele>
        <time>2022-01-12T09:35:15Z</time>
      </trkpt>
      <trkpt lat="47.70754" lon="3.50838">
        <ele>252</ele>
        <time>2022-01-12T09:35:16Z</time>
      </trkpt>
      <trkpt lat="47.70753" lon="3.50838">
        <ele>252</ele>
        <time>2022-01-12T09:35:17Z</time>
      </trkpt>
      <trkpt lat="47.70751" lon="3.50838">
        <ele>252</ele>
        <time>2022-01-12T09:35:18Z</time>
      </trkpt>
      <trkpt lat="47.7075" lon="3.50838">
        <ele>252.1</ele>
        <time>2022-01-12T09:35:19Z</time>
      </trkpt>
      <trkpt lat="47.7075" lon="3.50838">
        <ele>252.1</ele>
        <time>2022-01-12T09:35:20Z</time>
      </trkpt>
      <trkpt lat="47.70749" lon="3.50838">
        <ele>252.1</ele>
        <time>2022-01-12T09:35:21Z</time>
      </trkpt>
      <trkpt lat="47.70747" lon="3.50839">
        <ele>252.1</ele>
        <time>2022-01-12T09:35:23Z</time>
      </trkpt>
      <trkpt lat="47.70746" lon="3.50839">
        <ele>252.1</ele>
        <time>2022-01-12T09:35:24Z</time>
      </trkpt>
      <trkpt lat="47.70745" lon="3.50839">
        <ele>252.1</ele>
        <time>2022-01-12T09:35:25Z</time>
      </trkpt>
      <trkpt lat="47.70744" lon="3.50839">
        <ele>252.1</ele>
        <time>2022-01-12T09:35:26Z</time>
      </trkpt>
      <trkpt lat="47.70743" lon="3.50839">
        <ele>252.1</ele>
        <time>2022-01-12T09:35:27Z</time>
      </trkpt>
      <trkpt lat="47.70742" lon="3.50839">
        <ele>252.2</ele>
        <time>2022-01-12T09:35:28Z</time>
      </trkpt>
      <trkpt lat="47.70741" lon="3.50839">
        <ele>252.2</ele>
        <time>2022-01-12T09:35:29Z</time>
      </trkpt>
      <trkpt lat="47.70739" lon="3.50839">
        <ele>252.2</ele>
        <time>2022-01-12T09:35:31Z</time>
      </trkpt>
      <trkpt lat="47.70738" lon="3.50839">
        <ele>252.2</ele>
        <time>2022-01-12T09:35:32Z</time>
      </trkpt>
      <trkpt lat="47.70737" lon="3.5084">
        <ele>252.2</ele>
        <time>2022-01-12T09:35:33Z</time>
      </trkpt>
      <trkpt lat="47.70736" lon="3.5084">
        <ele>252.2</ele>
        <time>2022-01-12T09:35:34Z</time>
      </trkpt>
      <trkpt lat="47.70735" lon="3.5084">
        <ele>252.2</ele>
        <time>2022-01-12T09:35:35Z</time>
      </trkpt>
      <trkpt lat="47.70733" lon="3.50841">
        <ele>252.3</ele>
        <time>2022-01-12T09:35:36Z</time>
      </trkpt>
      <trkpt lat="47.70732" lon="3.50841">
        <ele>252.3</ele>
        <time>2022-01-12T09:35:37Z</time>
      </trkpt>
      <trkpt lat="47.70731" lon="3.50842">
        <ele>252.3</ele>
        <time>2022-01-12T09:35:39Z</time>
      </trkpt>
      <trkpt lat="47.7073" lon="3.50842">
        <ele>252.3</ele>
        <time>2022-01-12T09:35:40Z</time>
      </trkpt>
      <trkpt lat="47.70728" lon="3.50842">
        <ele>252.4</ele>
        <time>2022-01-12T09:35:41Z</time>
      </trkpt>
      <trkpt lat="47.70727" lon="3.50842">
        <ele>252.4</ele>
        <time>2022-01-12T09:35:42Z</time>
      </trkpt>
      <trkpt lat="47.70726" lon="3.50843">
        <ele>252.4</ele>
        <time>2022-01-12T09:35:43Z</time>
      </trkpt>
      <trkpt lat="47.70724" lon="3.50843">
        <ele>252.4</ele>
        <time>2022-01-12T09:35:44Z</time>
      </trkpt>
      <trkpt lat="47.70723" lon="3.50843">
        <ele>252.4</ele>
        <time>2022-01-12T09:35:45Z</time>
      </trkpt>
      <trkpt lat="47.70721" lon="3.50843">
        <ele>252.5</ele>
        <time>2022-01-12T09:35:46Z</time>
      </trkpt>
      <trkpt lat="47.7072" lon="3.50843">
        <ele>252.5</ele>
        <time>2022-01-12T09:35:48Z</time>
      </trkpt>
      <trkpt lat="47.70718" lon="3.50844">
        <ele>252.5</ele>
        <time>2022-01-12T09:35:49Z</time>
      </trkpt>
      <trkpt lat="47.70716" lon="3.50844">
        <ele>252.5</ele>
        <time>2022-01-12T09:35:50Z</time>
      </trkpt>
      <trkpt lat="47.70715" lon="3.50844">
        <ele>252.6</ele>
        <time>2022-01-12T09:35:51Z</time>
      </trkpt>
      <trkpt lat="47.70713" lon="3.50844">
        <ele>252.6</ele>
        <time>2022-01-12T09:35:52Z</time>
      </trkpt>
      <trkpt lat="47.70712" lon="3.50844">
        <ele>252.6</ele>
        <time>2022-01-12T09:35:53Z</time>
      </trkpt>
      <trkpt lat="47.70709" lon="3.50844">
        <ele>252.7</ele>
        <time>2022-01-12T09:35:55Z</time>
      </trkpt>
      <trkpt lat="47.70708" lon="3.50845">
        <ele>252.7</ele>
        <time>2022-01-12T09:35:56Z</time>
      </trkpt>
      <trkpt lat="47.70706" lon="3.50845">
        <ele>252.7</ele>
        <time>2022-01-12T09:35:57Z</time>
      </trkpt>
      <trkpt lat="47.70705" lon="3.50845">
        <ele>252.7</ele>
        <time>2022-01-12T09:35:58Z</time>
      </trkpt>
      <trkpt lat="47.70704" lon="3.50845">
        <ele>252.7</ele>
        <time>2022-01-12T09:35:59Z</time>
      </trkpt>
      <trkpt lat="47.70703" lon="3.50844">
        <ele>252.8</ele>
        <time>2022-01-12T09:36:00Z</time>
      </trkpt>
      <trkpt lat="47.70701" lon="3.50844">
        <ele>252.8</ele>
        <time>2022-01-12T09:36:01Z</time>
      </trkpt>
      <trkpt lat="47.707" lon="3.50844">
        <ele>252.8</ele>
        <time>2022-01-12T09:36:03Z</time>
      </trkpt>
      <trkpt lat="47.70698" lon="3.50843">
        <ele>252.8</ele>
        <time>2022-01-12T09:36:04Z</time>
      </trkpt>
      <trkpt lat="47.70697" lon="3.50843">
        <ele>252.9</ele>
        <time>2022-01-12T09:36:05Z</time>
      </trkpt>
      <trkpt lat="47.70695" lon="3.50843">
        <ele>252.9</ele>
        <time>2022-01-12T09:36:06Z</time>
      </trkpt>
      <trkpt lat="47.70694" lon="3.50842">
        <ele>252.9</ele>
        <time>2022-01-12T09:36:07Z</time>
      </trkpt>
      <trkpt lat="47.70693" lon="3.50842">
        <ele>253</ele>
        <time>2022-01-12T09:36:08Z</time>
      </trkpt>
      <trkpt lat="47.70692" lon="3.50841">
        <ele>253</ele>
        <time>2022-01-12T09:36:10Z</time>
      </trkpt>
      <trkpt lat="47.7069" lon="3.5084">
        <ele>253.1</ele>
        <time>2022-01-12T09:36:11Z</time>
      </trkpt>
      <trkpt lat="47.70689" lon="3.5084">
        <ele>253.1</ele>
        <time>2022-01-12T09:36:12Z</time>
      </trkpt>
      <trkpt lat="47.70688" lon="3.5084">
        <ele>253.2</ele>
        <time>2022-01-12T09:36:13Z</time>
      </trkpt>
      <trkpt lat="47.70687" lon="3.5084">
        <ele>253.2</ele>
        <time>2022-01-12T09:36:14Z</time>
      </trkpt>
      <trkpt lat="47.70686" lon="3.5084">
        <ele>253.3</ele>
        <time>2022-01-12T09:36:15Z</time>
      </trkpt>
      <trkpt lat="47.70684" lon="3.5084">
        <ele>253.4</ele>
        <time>2022-01-12T09:36:17Z</time>
      </trkpt>
      <trkpt lat="47.70683" lon="3.5084">
        <ele>253.4</ele>
        <time>2022-01-12T09:36:18Z</time>
      </trkpt>
      <trkpt lat="47.70681" lon="3.50842">
        <ele>253.5</ele>
        <time>2022-01-12T09:36:19Z</time>
      </trkpt>
      <trkpt lat="47.7068" lon="3.50843">
        <ele>253.6</ele>
        <time>2022-01-12T09:36:20Z</time>
      </trkpt>
      <trkpt lat="47.7068" lon="3.50843">
        <ele>253.6</ele>
        <time>2022-01-12T09:36:21Z</time>
      </trkpt>
      <trkpt lat="47.70679" lon="3.50844">
        <ele>253.6</ele>
        <time>2022-01-12T09:36:22Z</time>
      </trkpt>
      <trkpt lat="47.70678" lon="3.50845">
        <ele>253.7</ele>
        <time>2022-01-12T09:36:24Z</time>
      </trkpt>
      <trkpt lat="47.70677" lon="3.50846">
        <ele>253.7</ele>
        <time>2022-01-12T09:36:25Z</time>
      </trkpt>
      <trkpt lat="47.70676" lon="3.50846">
        <ele>253.8</ele>
        <time>2022-01-12T09:36:26Z</time>
      </trkpt>
      <trkpt lat="47.70675" lon="3.50846">
        <ele>253.8</ele>
        <time>2022-01-12T09:36:27Z</time>
      </trkpt>
      <trkpt lat="47.70674" lon="3.50846">
        <ele>253.8</ele>
        <time>2022-01-12T09:36:28Z</time>
      </trkpt>
      <trkpt lat="47.70674" lon="3.50846">
        <ele>253.8</ele>
        <time>2022-01-12T09:36:30Z</time>
      </trkpt>
      <trkpt lat="47.70672" lon="3.50847">
        <ele>253.9</ele>
        <time>2022-01-12T09:36:31Z</time>
      </trkpt>
      <trkpt lat="47.70672" lon="3.50848">
        <ele>253.9</ele>
        <time>2022-01-12T09:36:32Z</time>
      </trkpt>
      <trkpt lat="47.70671" lon="3.50848">
        <ele>253.9</ele>
        <time>2022-01-12T09:36:33Z</time>
      </trkpt>
      <trkpt lat="47.7067" lon="3.50848">
        <ele>253.9</ele>
        <time>2022-01-12T09:36:34Z</time>
      </trkpt>
      <trkpt lat="47.70669" lon="3.50848">
        <ele>254</ele>
        <time>2022-01-12T09:36:35Z</time>
      </trkpt>
      <trkpt lat="47.70668" lon="3.50848">
        <ele>254</ele>
        <time>2022-01-12T09:36:36Z</time>
      </trkpt>
      <trkpt lat="47.70667" lon="3.50848">
        <ele>254</ele>
        <time>2022-01-12T09:36:37Z</time>
      </trkpt>
      <trkpt lat="47.70666" lon="3.50848">
        <ele>254</ele>
        <time>2022-01-12T09:36:39Z</time>
      </trkpt>
      <trkpt lat="47.70666" lon="3.50848">
        <ele>254.1</ele>
        <time>2022-01-12T09:36:40Z</time>
      </trkpt>
      <trkpt lat="47.70664" lon="3.50847">
        <ele>254.1</ele>
        <time>2022-01-12T09:36:41Z</time>
      </trkpt>
      <trkpt lat="47.70664" lon="3.50847">
        <ele>254.1</ele>
        <time>2022-01-12T09:36:42Z</time>
      </trkpt>
      <trkpt lat="47.70663" lon="3.50846">
        <ele>254.1</ele>
        <time>2022-01-12T09:36:44Z</time>
      </trkpt>
      <trkpt lat="47.70662" lon="3.50846">
        <ele>254.2</ele>
        <time>2022-01-12T09:36:45Z</time>
      </trkpt>
      <trkpt lat="47.70659" lon="3.50845">
        <ele>254.2</ele>
        <time>2022-01-12T09:36:46Z</time>
      </trkpt>
      <trkpt lat="47.70659" lon="3.50844">
        <ele>254.2</ele>
        <time>2022-01-12T09:36:47Z</time>
      </trkpt>
      <trkpt lat="47.70658" lon="3.50844">
        <ele>254.2</ele>
        <time>2022-01-12T09:36:48Z</time>
      </trkpt>
      <trkpt lat="47.70655" lon="3.50845">
        <ele>254.3</ele>
        <time>2022-01-12T09:36:50Z</time>
      </trkpt>
      <trkpt lat="47.70654" lon="3.50845">
        <ele>254.3</ele>
        <time>2022-01-12T09:36:51Z</time>
      </trkpt>
      <trkpt lat="47.70653" lon="3.50845">
        <ele>254.3</ele>
        <time>2022-01-12T09:36:52Z</time>
      </trkpt>
      <trkpt lat="47.70651" lon="3.50846">
        <ele>254.4</ele>
        <time>2022-01-12T09:36:53Z</time>
      </trkpt>
      <trkpt lat="47.70649" lon="3.50846">
        <ele>254.4</ele>
        <time>2022-01-12T09:36:54Z</time>
      </trkpt>
      <trkpt lat="47.70648" lon="3.50846">
        <ele>254.4</ele>
        <time>2022-01-12T09:36:55Z</time>
      </trkpt>
      <trkpt lat="47.70647" lon="3.50847">
        <ele>254.5</ele>
        <time>2022-01-12T09:36:56Z</time>
      </trkpt>
      <trkpt lat="47.70645" lon="3.50848">
        <ele>254.5</ele>
        <time>2022-01-12T09:36:58Z</time>
      </trkpt>
      <trkpt lat="47.70644" lon="3.50848">
        <ele>254.5</ele>
        <time>2022-01-12T09:36:59Z</time>
      </trkpt>
      <trkpt lat="47.70644" lon="3.50849">
        <ele>254.5</ele>
        <time>2022-01-12T09:37:00Z</time>
      </trkpt>
      <trkpt lat="47.70642" lon="3.5085">
        <ele>254.6</ele>
        <time>2022-01-12T09:37:01Z</time>
      </trkpt>
      <trkpt lat="47.70641" lon="3.50851">
        <ele>254.6</ele>
        <time>2022-01-12T09:37:02Z</time>
      </trkpt>
      <trkpt lat="47.7064" lon="3.50852">
        <ele>254.6</ele>
        <time>2022-01-12T09:37:03Z</time>
      </trkpt>
      <trkpt lat="47.70639" lon="3.50853">
        <ele>254.6</ele>
        <time>2022-01-12T09:37:04Z</time>
      </trkpt>
      <trkpt lat="47.70637" lon="3.50853">
        <ele>254.7</ele>
        <time>2022-01-12T09:37:06Z</time>
      </trkpt>
      <trkpt lat="47.70635" lon="3.50855">
        <ele>254.7</ele>
        <time>2022-01-12T09:37:07Z</time>
      </trkpt>
      <trkpt lat="47.70634" lon="3.50855">
        <ele>254.7</ele>
        <time>2022-01-12T09:37:08Z</time>
      </trkpt>
      <trkpt lat="47.70634" lon="3.50855">
        <ele>254.7</ele>
        <time>2022-01-12T09:37:09Z</time>
      </trkpt>
      <trkpt lat="47.70632" lon="3.50856">
        <ele>254.8</ele>
        <time>2022-01-12T09:37:10Z</time>
      </trkpt>
      <trkpt lat="47.70631" lon="3.50856">
        <ele>254.8</ele>
        <time>2022-01-12T09:37:11Z</time>
      </trkpt>
      <trkpt lat="47.7063" lon="3.50856">
        <ele>254.8</ele>
        <time>2022-01-12T09:37:13Z</time>
      </trkpt>
      <trkpt lat="47.70629" lon="3.50856">
        <ele>254.8</ele>
        <time>2022-01-12T09:37:14Z</time>
      </trkpt>
      <trkpt lat="47.70627" lon="3.50857">
        <ele>254.9</ele>
        <time>2022-01-12T09:37:15Z</time>
      </trkpt>
      <trkpt lat="47.70625" lon="3.50857">
        <ele>254.9</ele>
        <time>2022-01-12T09:37:16Z</time>
      </trkpt>
      <trkpt lat="47.70625" lon="3.50857">
        <ele>254.9</ele>
        <time>2022-01-12T09:37:17Z</time>
      </trkpt>
      <trkpt lat="47.70624" lon="3.50857">
        <ele>254.9</ele>
        <time>2022-01-12T09:37:18Z</time>
      </trkpt>
      <trkpt lat="47.70623" lon="3.50858">
        <ele>254.9</ele>
        <time>2022-01-12T09:37:19Z</time>
      </trkpt>
      <trkpt lat="47.7062" lon="3.50858">
        <ele>255</ele>
        <time>2022-01-12T09:37:21Z</time>
      </trkpt>
      <trkpt lat="47.70619" lon="3.50858">
        <ele>255</ele>
        <time>2022-01-12T09:37:22Z</time>
      </trkpt>
      <trkpt lat="47.70618" lon="3.50858">
        <ele>255</ele>
        <time>2022-01-12T09:37:23Z</time>
      </trkpt>
      <trkpt lat="47.70617" lon="3.50857">
        <ele>255</ele>
        <time>2022-01-12T09:37:25Z</time>
      </trkpt>
      <trkpt lat="47.70616" lon="3.50857">
        <ele>255.1</ele>
        <time>2022-01-12T09:37:26Z</time>
      </trkpt>
      <trkpt lat="47.70615" lon="3.50857">
        <ele>255.1</ele>
        <time>2022-01-12T09:37:27Z</time>
      </trkpt>
      <trkpt lat="47.70614" lon="3.50858">
        <ele>255.1</ele>
        <time>2022-01-12T09:37:28Z</time>
      </trkpt>
      <trkpt lat="47.70614" lon="3.50858">
        <ele>255.1</ele>
        <time>2022-01-12T09:37:29Z</time>
      </trkpt>
      <trkpt lat="47.70613" lon="3.50859">
        <ele>255.1</ele>
        <time>2022-01-12T09:37:30Z</time>
      </trkpt>
      <trkpt lat="47.70612" lon="3.50859">
        <ele>255.1</ele>
        <time>2022-01-12T09:37:32Z</time>
      </trkpt>
      <trkpt lat="47.70611" lon="3.50859">
        <ele>255.1</ele>
        <time>2022-01-12T09:37:33Z</time>
      </trkpt>
      <trkpt lat="47.7061" lon="3.50859">
        <ele>255.2</ele>
        <time>2022-01-12T09:37:34Z</time>
      </trkpt>
      <trkpt lat="47.70609" lon="3.50859">
        <ele>255.2</ele>
        <time>2022-01-12T09:37:35Z</time>
      </trkpt>
      <trkpt lat="47.70607" lon="3.5086">
        <ele>255.2</ele>
        <time>2022-01-12T09:37:36Z</time>
      </trkpt>
      <trkpt lat="47.70607" lon="3.5086">
        <ele>255.2</ele>
        <time>2022-01-12T09:37:37Z</time>
      </trkpt>
      <trkpt lat="47.70606" lon="3.5086">
        <ele>255.2</ele>
        <time>2022-01-12T09:37:38Z</time>
      </trkpt>
      <trkpt lat="47.70605" lon="3.5086">
        <ele>255.2</ele>
        <time>2022-01-12T09:37:39Z</time>
      </trkpt>
      <trkpt lat="47.70604" lon="3.50861">
        <ele>255.3</ele>
        <time>2022-01-12T09:37:41Z</time>
      </trkpt>
      <trkpt lat="47.70602" lon="3.50861">
        <ele>255.3</ele>
        <time>2022-01-12T09:37:42Z</time>
      </trkpt>
      <trkpt lat="47.70601" lon="3.5086">
        <ele>255.3</ele>
        <time>2022-01-12T09:37:43Z</time>
      </trkpt>
      <trkpt lat="47.706" lon="3.5086">
        <ele>255.3</ele>
        <time>2022-01-12T09:37:44Z</time>
      </trkpt>
      <trkpt lat="47.70599" lon="3.5086">
        <ele>255.4</ele>
        <time>2022-01-12T09:37:45Z</time>
      </trkpt>
      <trkpt lat="47.70598" lon="3.50861">
        <ele>255.4</ele>
        <time>2022-01-12T09:37:46Z</time>
      </trkpt>
      <trkpt lat="47.70597" lon="3.50861">
        <ele>255.4</ele>
        <time>2022-01-12T09:37:48Z</time>
      </trkpt>
      <trkpt lat="47.70596" lon="3.50862">
        <ele>255.4</ele>
        <time>2022-01-12T09:37:49Z</time>
      </trkpt>
      <trkpt lat="47.70595" lon="3.50862">
        <ele>255.4</ele>
        <time>2022-01-12T09:37:50Z</time>
      </trkpt>
      <trkpt lat="47.70593" lon="3.50863">
        <ele>255.5</ele>
        <time>2022-01-12T09:37:51Z</time>
      </trkpt>
      <trkpt lat="47.70592" lon="3.50863">
        <ele>255.5</ele>
        <time>2022-01-12T09:37:52Z</time>
      </trkpt>
      <trkpt lat="47.70591" lon="3.50863">
        <ele>255.5</ele>
        <time>2022-01-12T09:37:53Z</time>
      </trkpt>
      <trkpt lat="47.7059" lon="3.50864">
        <ele>255.6</ele>
        <time>2022-01-12T09:37:54Z</time>
      </trkpt>
      <trkpt lat="47.70589" lon="3.50864">
        <ele>255.6</ele>
        <time>2022-01-12T09:37:55Z</time>
      </trkpt>
      <trkpt lat="47.70587" lon="3.50865">
        <ele>255.6</ele>
        <time>2022-01-12T09:37:57Z</time>
      </trkpt>
      <trkpt lat="47.70586" lon="3.50866">
        <ele>255.7</ele>
        <time>2022-01-12T09:37:58Z</time>
      </trkpt>
      <trkpt lat="47.70584" lon="3.50867">
        <ele>255.7</ele>
        <time>2022-01-12T09:37:59Z</time>
      </trkpt>
      <trkpt lat="47.70583" lon="3.50868">
        <ele>255.7</ele>
        <time>2022-01-12T09:38:00Z</time>
      </trkpt>
      <trkpt lat="47.70581" lon="3.50869">
        <ele>255.8</ele>
        <time>2022-01-12T09:38:01Z</time>
      </trkpt>
      <trkpt lat="47.7058" lon="3.50869">
        <ele>255.8</ele>
        <time>2022-01-12T09:38:02Z</time>
      </trkpt>
      <trkpt lat="47.70579" lon="3.5087">
        <ele>255.8</ele>
        <time>2022-01-12T09:38:03Z</time>
      </trkpt>
      <trkpt lat="47.70578" lon="3.5087">
        <ele>255.8</ele>
        <time>2022-01-12T09:38:04Z</time>
      </trkpt>
      <trkpt lat="47.70577" lon="3.50871">
        <ele>255.9</ele>
        <time>2022-01-12T09:38:06Z</time>
      </trkpt>
      <trkpt lat="47.70575" lon="3.50872">
        <ele>255.9</ele>
        <time>2022-01-12T09:38:07Z</time>
      </trkpt>
      <trkpt lat="47.70574" lon="3.50872">
        <ele>255.9</ele>
        <time>2022-01-12T09:38:08Z</time>
      </trkpt>
      <trkpt lat="47.70572" lon="3.50872">
        <ele>255.9</ele>
        <time>2022-01-12T09:38:09Z</time>
      </trkpt>
      <trkpt lat="47.70571" lon="3.50872">
        <ele>256</ele>
        <time>2022-01-12T09:38:10Z</time>
      </trkpt>
      <trkpt lat="47.70569" lon="3.50873">
        <ele>256</ele>
        <time>2022-01-12T09:38:11Z</time>
      </trkpt>
      <trkpt lat="47.70569" lon="3.50872">
        <ele>256</ele>
        <time>2022-01-12T09:38:12Z</time>
      </trkpt>
      <trkpt lat="47.70568" lon="3.50873">
        <ele>256</ele>
        <time>2022-01-12T09:38:13Z</time>
      </trkpt>
      <trkpt lat="47.70566" lon="3.50873">
        <ele>256</ele>
        <time>2022-01-12T09:38:15Z</time>
      </trkpt>
      <trkpt lat="47.70565" lon="3.50874">
        <ele>256.1</ele>
        <time>2022-01-12T09:38:16Z</time>
      </trkpt>
      <trkpt lat="47.70563" lon="3.50874">
        <ele>256.1</ele>
        <time>2022-01-12T09:38:17Z</time>
      </trkpt>
      <trkpt lat="47.70561" lon="3.50875">
        <ele>256.2</ele>
        <time>2022-01-12T09:38:18Z</time>
      </trkpt>
      <trkpt lat="47.7056" lon="3.50875">
        <ele>256.2</ele>
        <time>2022-01-12T09:38:19Z</time>
      </trkpt>
      <trkpt lat="47.70559" lon="3.50875">
        <ele>256.2</ele>
        <time>2022-01-12T09:38:20Z</time>
      </trkpt>
      <trkpt lat="47.70558" lon="3.50876">
        <ele>256.2</ele>
        <time>2022-01-12T09:38:22Z</time>
      </trkpt>
      <trkpt lat="47.70557" lon="3.50876">
        <ele>256.3</ele>
        <time>2022-01-12T09:38:23Z</time>
      </trkpt>
      <trkpt lat="47.70554" lon="3.50877">
        <ele>256.3</ele>
        <time>2022-01-12T09:38:24Z</time>
      </trkpt>
      <trkpt lat="47.70553" lon="3.50878">
        <ele>256.3</ele>
        <time>2022-01-12T09:38:25Z</time>
      </trkpt>
      <trkpt lat="47.70552" lon="3.50878">
        <ele>256.4</ele>
        <time>2022-01-12T09:38:26Z</time>
      </trkpt>
      <trkpt lat="47.70552" lon="3.50878">
        <ele>256.4</ele>
        <time>2022-01-12T09:38:27Z</time>
      </trkpt>
      <trkpt lat="47.70551" lon="3.50878">
        <ele>256.4</ele>
        <time>2022-01-12T09:38:28Z</time>
      </trkpt>
      <trkpt lat="47.70549" lon="3.50878">
        <ele>256.4</ele>
        <time>2022-01-12T09:38:30Z</time>
      </trkpt>
      <trkpt lat="47.70548" lon="3.50879">
        <ele>256.5</ele>
        <time>2022-01-12T09:38:31Z</time>
      </trkpt>
      <trkpt lat="47.70546" lon="3.50879">
        <ele>256.5</ele>
        <time>2022-01-12T09:38:32Z</time>
      </trkpt>
      <trkpt lat="47.70544" lon="3.50879">
        <ele>256.5</ele>
        <time>2022-01-12T09:38:33Z</time>
      </trkpt>
      <trkpt lat="47.70543" lon="3.50879">
        <ele>256.6</ele>
        <time>2022-01-12T09:38:34Z</time>
      </trkpt>
      <trkpt lat="47.70543" lon="3.5088">
        <ele>256.6</ele>
        <time>2022-01-12T09:38:35Z</time>
      </trkpt>
      <trkpt lat="47.7054" lon="3.5088">
        <ele>256.6</ele>
        <time>2022-01-12T09:38:36Z</time>
      </trkpt>
      <trkpt lat="47.7054" lon="3.5088">
        <ele>256.6</ele>
        <time>2022-01-12T09:38:38Z</time>
      </trkpt>
      <trkpt lat="47.70539" lon="3.50881">
        <ele>256.6</ele>
        <time>2022-01-12T09:38:39Z</time>
      </trkpt>
      <trkpt lat="47.70537" lon="3.50881">
        <ele>256.7</ele>
        <time>2022-01-12T09:38:40Z</time>
      </trkpt>
      <trkpt lat="47.70536" lon="3.50881">
        <ele>256.7</ele>
        <time>2022-01-12T09:38:41Z</time>
      </trkpt>
      <trkpt lat="47.70535" lon="3.50881">
        <ele>256.7</ele>
        <time>2022-01-12T09:38:42Z</time>
      </trkpt>
      <trkpt lat="47.70534" lon="3.50882">
        <ele>256.7</ele>
        <time>2022-01-12T09:38:43Z</time>
      </trkpt>
      <trkpt lat="47.70533" lon="3.50882">
        <ele>256.7</ele>
        <time>2022-01-12T09:38:45Z</time>
      </trkpt>
      <trkpt lat="47.70531" lon="3.50882">
        <ele>256.8</ele>
        <time>2022-01-12T09:38:46Z</time>
      </trkpt>
      <trkpt lat="47.7053" lon="3.50881">
        <ele>256.8</ele>
        <time>2022-01-12T09:38:47Z</time>
      </trkpt>
      <trkpt lat="47.70529" lon="3.50881">
        <ele>256.8</ele>
        <time>2022-01-12T09:38:48Z</time>
      </trkpt>
      <trkpt lat="47.70528" lon="3.50882">
        <ele>256.8</ele>
        <time>2022-01-12T09:38:49Z</time>
      </trkpt>
      <trkpt lat="47.70526" lon="3.50884">
        <ele>256.8</ele>
        <time>2022-01-12T09:38:51Z</time>
      </trkpt>
      <trkpt lat="47.70525" lon="3.50885">
        <ele>256.8</ele>
        <time>2022-01-12T09:38:52Z</time>
      </trkpt>
      <trkpt lat="47.70524" lon="3.50886">
        <ele>256.8</ele>
        <time>2022-01-12T09:38:53Z</time>
      </trkpt>
      <trkpt lat="47.70522" lon="3.50888">
        <ele>256.8</ele>
        <time>2022-01-12T09:38:55Z</time>
      </trkpt>
      <trkpt lat="47.70521" lon="3.50888">
        <ele>256.9</ele>
        <time>2022-01-12T09:38:56Z</time>
      </trkpt>
      <trkpt lat="47.70521" lon="3.50889">
        <ele>256.9</ele>
        <time>2022-01-12T09:38:57Z</time>
      </trkpt>
      <trkpt lat="47.70519" lon="3.50889">
        <ele>256.9</ele>
        <time>2022-01-12T09:38:58Z</time>
      </trkpt>
      <trkpt lat="47.70518" lon="3.5089">
        <ele>256.9</ele>
        <time>2022-01-12T09:38:59Z</time>
      </trkpt>
      <trkpt lat="47.70517" lon="3.5089">
        <ele>256.9</ele>
        <time>2022-01-12T09:39:00Z</time>
      </trkpt>
      <trkpt lat="47.70515" lon="3.5089">
        <ele>256.9</ele>
        <time>2022-01-12T09:39:01Z</time>
      </trkpt>
      <trkpt lat="47.70514" lon="3.5089">
        <ele>257</ele>
        <time>2022-01-12T09:39:02Z</time>
      </trkpt>
      <trkpt lat="47.70513" lon="3.50891">
        <ele>257</ele>
        <time>2022-01-12T09:39:04Z</time>
      </trkpt>
      <trkpt lat="47.70512" lon="3.5089">
        <ele>257</ele>
        <time>2022-01-12T09:39:05Z</time>
      </trkpt>
      <trkpt lat="47.70511" lon="3.5089">
        <ele>257</ele>
        <time>2022-01-12T09:39:06Z</time>
      </trkpt>
      <trkpt lat="47.7051" lon="3.5089">
        <ele>257</ele>
        <time>2022-01-12T09:39:07Z</time>
      </trkpt>
      <trkpt lat="47.70509" lon="3.5089">
        <ele>257</ele>
        <time>2022-01-12T09:39:08Z</time>
      </trkpt>
      <trkpt lat="47.70508" lon="3.5089">
        <ele>257.1</ele>
        <time>2022-01-12T09:39:10Z</time>
      </trkpt>
      <trkpt lat="47.70507" lon="3.5089">
        <ele>257.1</ele>
        <time>2022-01-12T09:39:11Z</time>
      </trkpt>
      <trkpt lat="47.70505" lon="3.5089">
        <ele>257.1</ele>
        <time>2022-01-12T09:39:12Z</time>
      </trkpt>
      <trkpt lat="47.70504" lon="3.5089">
        <ele>257.1</ele>
        <time>2022-01-12T09:39:13Z</time>
      </trkpt>
      <trkpt lat="47.70502" lon="3.50891">
        <ele>257.2</ele>
        <time>2022-01-12T09:39:14Z</time>
      </trkpt>
      <trkpt lat="47.70501" lon="3.50891">
        <ele>257.2</ele>
        <time>2022-01-12T09:39:15Z</time>
      </trkpt>
      <trkpt lat="47.70499" lon="3.50892">
        <ele>257.2</ele>
        <time>2022-01-12T09:39:16Z</time>
      </trkpt>
      <trkpt lat="47.70498" lon="3.50892">
        <ele>257.3</ele>
        <time>2022-01-12T09:39:18Z</time>
      </trkpt>
      <trkpt lat="47.70497" lon="3.50891">
        <ele>257.3</ele>
        <time>2022-01-12T09:39:19Z</time>
      </trkpt>
      <trkpt lat="47.70495" lon="3.5089">
        <ele>257.3</ele>
        <time>2022-01-12T09:39:21Z</time>
      </trkpt>
      <trkpt lat="47.70493" lon="3.50888">
        <ele>257.3</ele>
        <time>2022-01-12T09:39:22Z</time>
      </trkpt>
      <trkpt lat="47.70493" lon="3.50886">
        <ele>257.3</ele>
        <time>2022-01-12T09:39:23Z</time>
      </trkpt>
      <trkpt lat="47.70493" lon="3.50885">
        <ele>257.3</ele>
        <time>2022-01-12T09:39:24Z</time>
      </trkpt>
      <trkpt lat="47.70494" lon="3.50883">
        <ele>257.3</ele>
        <time>2022-01-12T09:39:25Z</time>
      </trkpt>
      <trkpt lat="47.70494" lon="3.50881">
        <ele>257.3</ele>
        <time>2022-01-12T09:39:26Z</time>
      </trkpt>
      <trkpt lat="47.70493" lon="3.5088">
        <ele>257.3</ele>
        <time>2022-01-12T09:39:27Z</time>
      </trkpt>
      <trkpt lat="47.70493" lon="3.50879">
        <ele>257.3</ele>
        <time>2022-01-12T09:39:28Z</time>
      </trkpt>
      <trkpt lat="47.70492" lon="3.50878">
        <ele>257.3</ele>
        <time>2022-01-12T09:39:29Z</time>
      </trkpt>
      <trkpt lat="47.70492" lon="3.50879">
        <ele>257.3</ele>
        <time>2022-01-12T09:39:30Z</time>
      </trkpt>
      <trkpt lat="47.70491" lon="3.50879">
        <ele>257.3</ele>
        <time>2022-01-12T09:39:31Z</time>
      </trkpt>
      <trkpt lat="47.70491" lon="3.50878">
        <ele>257.3</ele>
        <time>2022-01-12T09:39:33Z</time>
      </trkpt>
      <trkpt lat="47.70491" lon="3.50877">
        <ele>257.2</ele>
        <time>2022-01-12T09:39:34Z</time>
      </trkpt>
      <trkpt lat="47.70491" lon="3.50875">
        <ele>257.2</ele>
        <time>2022-01-12T09:39:35Z</time>
      </trkpt>
      <trkpt lat="47.70491" lon="3.50875">
        <ele>257.2</ele>
        <time>2022-01-12T09:39:36Z</time>
      </trkpt>
      <trkpt lat="47.70492" lon="3.50874">
        <ele>257.2</ele>
        <time>2022-01-12T09:39:37Z</time>
      </trkpt>
      <trkpt lat="47.70493" lon="3.50873">
        <ele>257.2</ele>
        <time>2022-01-12T09:39:38Z</time>
      </trkpt>
      <trkpt lat="47.70493" lon="3.50872">
        <ele>257.2</ele>
        <time>2022-01-12T09:39:40Z</time>
      </trkpt>
      <trkpt lat="47.70493" lon="3.5087">
        <ele>257.2</ele>
        <time>2022-01-12T09:39:41Z</time>
      </trkpt>
      <trkpt lat="47.70493" lon="3.50869">
        <ele>257.2</ele>
        <time>2022-01-12T09:39:42Z</time>
      </trkpt>
      <trkpt lat="47.70493" lon="3.50868">
        <ele>257.2</ele>
        <time>2022-01-12T09:39:43Z</time>
      </trkpt>
      <trkpt lat="47.70492" lon="3.50867">
        <ele>257.2</ele>
        <time>2022-01-12T09:39:44Z</time>
      </trkpt>
      <trkpt lat="47.70493" lon="3.50867">
        <ele>257.2</ele>
        <time>2022-01-12T09:39:45Z</time>
      </trkpt>
      <trkpt lat="47.70493" lon="3.50866">
        <ele>257.2</ele>
        <time>2022-01-12T09:39:46Z</time>
      </trkpt>
      <trkpt lat="47.70492" lon="3.50865">
        <ele>257.2</ele>
        <time>2022-01-12T09:39:48Z</time>
      </trkpt>
      <trkpt lat="47.70492" lon="3.50864">
        <ele>257.2</ele>
        <time>2022-01-12T09:39:49Z</time>
      </trkpt>
      <trkpt lat="47.70492" lon="3.50863">
        <ele>257.2</ele>
        <time>2022-01-12T09:39:50Z</time>
      </trkpt>
      <trkpt lat="47.70491" lon="3.50862">
        <ele>257.2</ele>
        <time>2022-01-12T09:39:51Z</time>
      </trkpt>
      <trkpt lat="47.70491" lon="3.5086">
        <ele>257.2</ele>
        <time>2022-01-12T09:39:52Z</time>
      </trkpt>
      <trkpt lat="47.7049" lon="3.50858">
        <ele>257.2</ele>
        <time>2022-01-12T09:39:54Z</time>
      </trkpt>
      <trkpt lat="47.70489" lon="3.50857">
        <ele>257.2</ele>
        <time>2022-01-12T09:39:55Z</time>
      </trkpt>
      <trkpt lat="47.70489" lon="3.50855">
        <ele>257.2</ele>
        <time>2022-01-12T09:39:56Z</time>
      </trkpt>
      <trkpt lat="47.70488" lon="3.50853">
        <ele>257.2</ele>
        <time>2022-01-12T09:39:58Z</time>
      </trkpt>
      <trkpt lat="47.70487" lon="3.50852">
        <ele>257.2</ele>
        <time>2022-01-12T09:39:59Z</time>
      </trkpt>
      <trkpt lat="47.70487" lon="3.50852">
        <ele>257.2</ele>
        <time>2022-01-12T09:40:00Z</time>
      </trkpt>
      <trkpt lat="47.70487" lon="3.50852">
        <ele>257.2</ele>
        <time>2022-01-12T09:40:01Z</time>
      </trkpt>
      <trkpt lat="47.70487" lon="3.50852">
        <ele>257.2</ele>
        <time>2022-01-12T09:40:02Z</time>
      </trkpt>
      <trkpt lat="47.70487" lon="3.50852">
        <ele>257.2</ele>
        <time>2022-01-12T09:40:03Z</time>
      </trkpt>
      <trkpt lat="47.70487" lon="3.50852">
        <ele>257.2</ele>
        <time>2022-01-12T09:40:04Z</time>
      </trkpt>
      <trkpt lat="47.70487" lon="3.50852">
        <ele>257.2</ele>
        <time>2022-01-12T09:40:05Z</time>
      </trkpt>
      <trkpt lat="47.70488" lon="3.50853">
        <ele>257.2</ele>
        <time>2022-01-12T09:40:06Z</time>
      </trkpt>
      <trkpt lat="47.70488" lon="3.50852">
        <ele>257.2</ele>
        <time>2022-01-12T09:40:07Z</time>
      </trkpt>
      <trkpt lat="47.70488" lon="3.50852">
        <ele>257.2</ele>
        <time>2022-01-12T09:40:08Z</time>
      </trkpt>
      <trkpt lat="47.70488" lon="3.50852">
        <ele>257.2</ele>
        <time>2022-01-12T09:40:09Z</time>
      </trkpt>
      <trkpt lat="47.70488" lon="3.50851">
        <ele>257.2</ele>
        <time>2022-01-12T09:40:10Z</time>
      </trkpt>
      <trkpt lat="47.70488" lon="3.5085">
        <ele>257.2</ele>
        <time>2022-01-12T09:40:11Z</time>
      </trkpt>
      <trkpt lat="47.70488" lon="3.50848">
        <ele>257.2</ele>
        <time>2022-01-12T09:40:12Z</time>
      </trkpt>
      <trkpt lat="47.70488" lon="3.50848">
        <ele>257.2</ele>
        <time>2022-01-12T09:40:13Z</time>
      </trkpt>
      <trkpt lat="47.70488" lon="3.50848">
        <ele>257.2</ele>
        <time>2022-01-12T09:40:14Z</time>
      </trkpt>
      <trkpt lat="47.70488" lon="3.50848">
        <ele>257.2</ele>
        <time>2022-01-12T09:40:15Z</time>
      </trkpt>
      <trkpt lat="47.70488" lon="3.50848">
        <ele>257.2</ele>
        <time>2022-01-12T09:40:16Z</time>
      </trkpt>
      <trkpt lat="47.70488" lon="3.50848">
        <ele>257.2</ele>
        <time>2022-01-12T09:40:17Z</time>
      </trkpt>
      <trkpt lat="47.70488" lon="3.50848">
        <ele>257.2</ele>
        <time>2022-01-12T09:40:18Z</time>
      </trkpt>
      <trkpt lat="47.70488" lon="3.50848">
        <ele>257.2</ele>
        <time>2022-01-12T09:40:19Z</time>
      </trkpt>
      <trkpt lat="47.70488" lon="3.50848">
        <ele>257.2</ele>
        <time>2022-01-12T09:40:20Z</time>
      </trkpt>
      <trkpt lat="47.70488" lon="3.50848">
        <ele>257.2</ele>
        <time>2022-01-12T09:40:21Z</time>
      </trkpt>
      <trkpt lat="47.70489" lon="3.50846">
        <ele>257.2</ele>
        <time>2022-01-12T09:40:22Z</time>
      </trkpt>
      <trkpt lat="47.70489" lon="3.50845">
        <ele>257.2</ele>
        <time>2022-01-12T09:40:23Z</time>
      </trkpt>
      <trkpt lat="47.70489" lon="3.50845">
        <ele>257.2</ele>
        <time>2022-01-12T09:40:24Z</time>
      </trkpt>
      <trkpt lat="47.70489" lon="3.50845">
        <ele>257.2</ele>
        <time>2022-01-12T09:40:25Z</time>
      </trkpt>
      <trkpt lat="47.70489" lon="3.50845">
        <ele>257.2</ele>
        <time>2022-01-12T09:40:26Z</time>
      </trkpt>
      <trkpt lat="47.70489" lon="3.50845">
        <ele>257.2</ele>
        <time>2022-01-12T09:40:27Z</time>
      </trkpt>
      <trkpt lat="47.70489" lon="3.50845">
        <ele>257.2</ele>
        <time>2022-01-12T09:40:28Z</time>
      </trkpt>
      <trkpt lat="47.70489" lon="3.50845">
        <ele>257.2</ele>
        <time>2022-01-12T09:40:29Z</time>
      </trkpt>
      <trkpt lat="47.7049" lon="3.50846">
        <ele>257.2</ele>
        <time>2022-01-12T09:40:30Z</time>
      </trkpt>
      <trkpt lat="47.7049" lon="3.50846">
        <ele>257.2</ele>
        <time>2022-01-12T09:40:31Z</time>
      </trkpt>
      <trkpt lat="47.7049" lon="3.50845">
        <ele>257.2</ele>
        <time>2022-01-12T09:40:32Z</time>
      </trkpt>
      <trkpt lat="47.7049" lon="3.50845">
        <ele>257.2</ele>
        <time>2022-01-12T09:40:33Z</time>
      </trkpt>
      <trkpt lat="47.7049" lon="3.50844">
        <ele>257.2</ele>
        <time>2022-01-12T09:40:34Z</time>
      </trkpt>
      <trkpt lat="47.7049" lon="3.50844">
        <ele>257.2</ele>
        <time>2022-01-12T09:40:35Z</time>
      </trkpt>
      <trkpt lat="47.7049" lon="3.50844">
        <ele>257.2</ele>
        <time>2022-01-12T09:40:36Z</time>
      </trkpt>
      <trkpt lat="47.70489" lon="3.50844">
        <ele>257.2</ele>
        <time>2022-01-12T09:40:37Z</time>
      </trkpt>
      <trkpt lat="47.7049" lon="3.50844">
        <ele>257.2</ele>
        <time>2022-01-12T09:40:38Z</time>
      </trkpt>
      <trkpt lat="47.7049" lon="3.50844">
        <ele>257.2</ele>
        <time>2022-01-12T09:40:39Z</time>
      </trkpt>
      <trkpt lat="47.7049" lon="3.50845">
        <ele>257.2</ele>
        <time>2022-01-12T09:40:40Z</time>
      </trkpt>
      <trkpt lat="47.70491" lon="3.50845">
        <ele>257.2</ele>
        <time>2022-01-12T09:40:41Z</time>
      </trkpt>
      <trkpt lat="47.70491" lon="3.50844">
        <ele>257.2</ele>
        <time>2022-01-12T09:40:42Z</time>
      </trkpt>
      <trkpt lat="47.70492" lon="3.50844">
        <ele>257.1</ele>
        <time>2022-01-12T09:40:43Z</time>
      </trkpt>
      <trkpt lat="47.70491" lon="3.50844">
        <ele>257.1</ele>
        <time>2022-01-12T09:40:44Z</time>
      </trkpt>
      <trkpt lat="47.70491" lon="3.50844">
        <ele>257.1</ele>
        <time>2022-01-12T09:40:45Z</time>
      </trkpt>
      <trkpt lat="47.70491" lon="3.50845">
        <ele>257.1</ele>
        <time>2022-01-12T09:40:46Z</time>
      </trkpt>
      <trkpt lat="47.70492" lon="3.50845">
        <ele>257.1</ele>
        <time>2022-01-12T09:40:47Z</time>
      </trkpt>
      <trkpt lat="47.70492" lon="3.50844">
        <ele>257.1</ele>
        <time>2022-01-12T09:40:48Z</time>
      </trkpt>
      <trkpt lat="47.70493" lon="3.50844">
        <ele>257.1</ele>
        <time>2022-01-12T09:40:49Z</time>
      </trkpt>
      <trkpt lat="47.70493" lon="3.50844">
        <ele>257</ele>
        <time>2022-01-12T09:40:50Z</time>
      </trkpt>
      <trkpt lat="47.70493" lon="3.50844">
        <ele>257</ele>
        <time>2022-01-12T09:40:51Z</time>
      </trkpt>
      <trkpt lat="47.70493" lon="3.50844">
        <ele>257</ele>
        <time>2022-01-12T09:40:52Z</time>
      </trkpt>
      <trkpt lat="47.70493" lon="3.50844">
        <ele>257</ele>
        <time>2022-01-12T09:40:53Z</time>
      </trkpt>
      <trkpt lat="47.70493" lon="3.50844">
        <ele>257</ele>
        <time>2022-01-12T09:40:54Z</time>
      </trkpt>
      <trkpt lat="47.70493" lon="3.50844">
        <ele>257</ele>
        <time>2022-01-12T09:40:55Z</time>
      </trkpt>
      <trkpt lat="47.70493" lon="3.50844">
        <ele>257</ele>
        <time>2022-01-12T09:40:56Z</time>
      </trkpt>
      <trkpt lat="47.70493" lon="3.50844">
        <ele>257</ele>
        <time>2022-01-12T09:40:57Z</time>
      </trkpt>
      <trkpt lat="47.70493" lon="3.50844">
        <ele>257</ele>
        <time>2022-01-12T09:40:58Z</time>
      </trkpt>
      <trkpt lat="47.70493" lon="3.50844">
        <ele>257</ele>
        <time>2022-01-12T09:40:59Z</time>
      </trkpt>
      <trkpt lat="47.70493" lon="3.50844">
        <ele>257</ele>
        <time>2022-01-12T09:41:00Z</time>
      </trkpt>
      <trkpt lat="47.70493" lon="3.50844">
        <ele>257</ele>
        <time>2022-01-12T09:41:01Z</time>
      </trkpt>
      <trkpt lat="47.70493" lon="3.50844">
        <ele>257</ele>
        <time>2022-01-12T09:41:02Z</time>
      </trkpt>
      <trkpt lat="47.70493" lon="3.50845">
        <ele>257</ele>
        <time>2022-01-12T09:41:03Z</time>
      </trkpt>
      <trkpt lat="47.70493" lon="3.50846">
        <ele>257</ele>
        <time>2022-01-12T09:41:04Z</time>
      </trkpt>
      <trkpt lat="47.70492" lon="3.50845">
        <ele>257</ele>
        <time>2022-01-12T09:41:05Z</time>
      </trkpt>
      <trkpt lat="47.70492" lon="3.50845">
        <ele>257</ele>
        <time>2022-01-12T09:41:06Z</time>
      </trkpt>
      <trkpt lat="47.70492" lon="3.50844">
        <ele>257</ele>
        <time>2022-01-12T09:41:07Z</time>
      </trkpt>
      <trkpt lat="47.70492" lon="3.50844">
        <ele>257</ele>
        <time>2022-01-12T09:41:08Z</time>
      </trkpt>
      <trkpt lat="47.70492" lon="3.50844">
        <ele>257</ele>
        <time>2022-01-12T09:41:09Z</time>
      </trkpt>
      <trkpt lat="47.70493" lon="3.50844">
        <ele>257</ele>
        <time>2022-01-12T09:41:10Z</time>
      </trkpt>
      <trkpt lat="47.70493" lon="3.50844">
        <ele>257</ele>
        <time>2022-01-12T09:41:11Z</time>
      </trkpt>
      <trkpt lat="47.70493" lon="3.50843">
        <ele>257</ele>
        <time>2022-01-12T09:41:12Z</time>
      </trkpt>
      <trkpt lat="47.70494" lon="3.50842">
        <ele>257</ele>
        <time>2022-01-12T09:41:13Z</time>
      </trkpt>
      <trkpt lat="47.70494" lon="3.50842">
        <ele>257</ele>
        <time>2022-01-12T09:41:14Z</time>
      </trkpt>
      <trkpt lat="47.70494" lon="3.50841">
        <ele>257</ele>
        <time>2022-01-12T09:41:15Z</time>
      </trkpt>
      <trkpt lat="47.70493" lon="3.50842">
        <ele>257</ele>
        <time>2022-01-12T09:41:16Z</time>
      </trkpt>
      <trkpt lat="47.70492" lon="3.50843">
        <ele>257</ele>
        <time>2022-01-12T09:41:17Z</time>
      </trkpt>
      <trkpt lat="47.70492" lon="3.50843">
        <ele>257</ele>
        <time>2022-01-12T09:41:18Z</time>
      </trkpt>
      <trkpt lat="47.70492" lon="3.50843">
        <ele>257</ele>
        <time>2022-01-12T09:41:19Z</time>
      </trkpt>
      <trkpt lat="47.70492" lon="3.50843">
        <ele>257</ele>
        <time>2022-01-12T09:41:20Z</time>
      </trkpt>
      <trkpt lat="47.70492" lon="3.50843">
        <ele>257</ele>
        <time>2022-01-12T09:41:21Z</time>
      </trkpt>
      <trkpt lat="47.70492" lon="3.50843">
        <ele>257</ele>
        <time>2022-01-12T09:41:22Z</time>
      </trkpt>
      <trkpt lat="47.70492" lon="3.50843">
        <ele>257</ele>
        <time>2022-01-12T09:41:23Z</time>
      </trkpt>
      <trkpt lat="47.70492" lon="3.50843">
        <ele>257</ele>
        <time>2022-01-12T09:41:24Z</time>
      </trkpt>
      <trkpt lat="47.70491" lon="3.50843">
        <ele>257</ele>
        <time>2022-01-12T09:41:25Z</time>
      </trkpt>
      <trkpt lat="47.70491" lon="3.50844">
        <ele>257</ele>
        <time>2022-01-12T09:41:26Z</time>
      </trkpt>
      <trkpt lat="47.70491" lon="3.50844">
        <ele>257</ele>
        <time>2022-01-12T09:41:27Z</time>
      </trkpt>
      <trkpt lat="47.70491" lon="3.50844">
        <ele>257</ele>
        <time>2022-01-12T09:41:28Z</time>
      </trkpt>
      <trkpt lat="47.70491" lon="3.50844">
        <ele>257</ele>
        <time>2022-01-12T09:41:29Z</time>
      </trkpt>
      <trkpt lat="47.70491" lon="3.50844">
        <ele>257</ele>
        <time>2022-01-12T09:41:30Z</time>
      </trkpt>
      <trkpt lat="47.7049" lon="3.50844">
        <ele>257</ele>
        <time>2022-01-12T09:41:31Z</time>
      </trkpt>
      <trkpt lat="47.7049" lon="3.50844">
        <ele>257</ele>
        <time>2022-01-12T09:41:32Z</time>
      </trkpt>
      <trkpt lat="47.7049" lon="3.50843">
        <ele>257</ele>
        <time>2022-01-12T09:41:33Z</time>
      </trkpt>
      <trkpt lat="47.7049" lon="3.50843">
        <ele>257</ele>
        <time>2022-01-12T09:41:34Z</time>
      </trkpt>
      <trkpt lat="47.70491" lon="3.50843">
        <ele>257</ele>
        <time>2022-01-12T09:41:35Z</time>
      </trkpt>
      <trkpt lat="47.70491" lon="3.50843">
        <ele>257</ele>
        <time>2022-01-12T09:41:36Z</time>
      </trkpt>
      <trkpt lat="47.70492" lon="3.50844">
        <ele>257</ele>
        <time>2022-01-12T09:41:37Z</time>
      </trkpt>
      <trkpt lat="47.70493" lon="3.50843">
        <ele>257</ele>
        <time>2022-01-12T09:41:38Z</time>
      </trkpt>
      <trkpt lat="47.70493" lon="3.50843">
        <ele>257</ele>
        <time>2022-01-12T09:41:39Z</time>
      </trkpt>
      <trkpt lat="47.70494" lon="3.50843">
        <ele>256.9</ele>
        <time>2022-01-12T09:41:40Z</time>
      </trkpt>
      <trkpt lat="47.70494" lon="3.50843">
        <ele>256.9</ele>
        <time>2022-01-12T09:41:41Z</time>
      </trkpt>
      <trkpt lat="47.70494" lon="3.50842">
        <ele>256.9</ele>
        <time>2022-01-12T09:41:42Z</time>
      </trkpt>
      <trkpt lat="47.70494" lon="3.50842">
        <ele>256.9</ele>
        <time>2022-01-12T09:41:43Z</time>
      </trkpt>
      <trkpt lat="47.70494" lon="3.50842">
        <ele>256.9</ele>
        <time>2022-01-12T09:41:44Z</time>
      </trkpt>
      <trkpt lat="47.70494" lon="3.50842">
        <ele>256.9</ele>
        <time>2022-01-12T09:41:45Z</time>
      </trkpt>
      <trkpt lat="47.70494" lon="3.50842">
        <ele>256.9</ele>
        <time>2022-01-12T09:41:46Z</time>
      </trkpt>
      <trkpt lat="47.70494" lon="3.50842">
        <ele>256.9</ele>
        <time>2022-01-12T09:41:47Z</time>
      </trkpt>
      <trkpt lat="47.70494" lon="3.50843">
        <ele>256.9</ele>
        <time>2022-01-12T09:41:48Z</time>
      </trkpt>
      <trkpt lat="47.70494" lon="3.50843">
        <ele>256.9</ele>
        <time>2022-01-12T09:41:49Z</time>
      </trkpt>
      <trkpt lat="47.70493" lon="3.50843">
        <ele>256.9</ele>
        <time>2022-01-12T09:41:50Z</time>
      </trkpt>
      <trkpt lat="47.70493" lon="3.50843">
        <ele>256.9</ele>
        <time>2022-01-12T09:41:51Z</time>
      </trkpt>
      <trkpt lat="47.70493" lon="3.50843">
        <ele>256.9</ele>
        <time>2022-01-12T09:41:52Z</time>
      </trkpt>
      <trkpt lat="47.70493" lon="3.50843">
        <ele>256.9</ele>
        <time>2022-01-12T09:41:53Z</time>
      </trkpt>
      <trkpt lat="47.70493" lon="3.50842">
        <ele>256.9</ele>
        <time>2022-01-12T09:41:54Z</time>
      </trkpt>
      <trkpt lat="47.70493" lon="3.50842">
        <ele>256.9</ele>
        <time>2022-01-12T09:41:55Z</time>
      </trkpt>
      <trkpt lat="47.70494" lon="3.50842">
        <ele>256.9</ele>
        <time>2022-01-12T09:41:56Z</time>
      </trkpt>
      <trkpt lat="47.70494" lon="3.50842">
        <ele>256.9</ele>
        <time>2022-01-12T09:41:57Z</time>
      </trkpt>
      <trkpt lat="47.70494" lon="3.50842">
        <ele>256.9</ele>
        <time>2022-01-12T09:41:58Z</time>
      </trkpt>
      <trkpt lat="47.70494" lon="3.50842">
        <ele>256.9</ele>
        <time>2022-01-12T09:41:59Z</time>
      </trkpt>
      <trkpt lat="47.70494" lon="3.50842">
        <ele>256.9</ele>
        <time>2022-01-12T09:42:00Z</time>
      </trkpt>
      <trkpt lat="47.70494" lon="3.50842">
        <ele>256.9</ele>
        <time>2022-01-12T09:42:01Z</time>
      </trkpt>
      <trkpt lat="47.70494" lon="3.50842">
        <ele>256.9</ele>
        <time>2022-01-12T09:42:02Z</time>
      </trkpt>
      <trkpt lat="47.70494" lon="3.50842">
        <ele>256.9</ele>
        <time>2022-01-12T09:42:03Z</time>
      </trkpt>
      <trkpt lat="47.70494" lon="3.50843">
        <ele>256.9</ele>
        <time>2022-01-12T09:42:04Z</time>
      </trkpt>
      <trkpt lat="47.70493" lon="3.50843">
        <ele>256.9</ele>
        <time>2022-01-12T09:42:05Z</time>
      </trkpt>
      <trkpt lat="47.70493" lon="3.50843">
        <ele>256.9</ele>
        <time>2022-01-12T09:42:06Z</time>
      </trkpt>
      <trkpt lat="47.70493" lon="3.50843">
        <ele>256.9</ele>
        <time>2022-01-12T09:42:07Z</time>
      </trkpt>
      <trkpt lat="47.70493" lon="3.50843">
        <ele>256.9</ele>
        <time>2022-01-12T09:42:08Z</time>
      </trkpt>
      <trkpt lat="47.70493" lon="3.50843">
        <ele>256.9</ele>
        <time>2022-01-12T09:42:09Z</time>
      </trkpt>
      <trkpt lat="47.70492" lon="3.50843">
        <ele>256.9</ele>
        <time>2022-01-12T09:42:10Z</time>
      </trkpt>
      <trkpt lat="47.70492" lon="3.50843">
        <ele>256.9</ele>
        <time>2022-01-12T09:42:11Z</time>
      </trkpt>
      <trkpt lat="47.70492" lon="3.50843">
        <ele>256.9</ele>
        <time>2022-01-12T09:42:12Z</time>
      </trkpt>
      <trkpt lat="47.70492" lon="3.50842">
        <ele>256.9</ele>
        <time>2022-01-12T09:42:13Z</time>
      </trkpt>
      <trkpt lat="47.70492" lon="3.50842">
        <ele>256.9</ele>
        <time>2022-01-12T09:42:14Z</time>
      </trkpt>
      <trkpt lat="47.70492" lon="3.50842">
        <ele>256.9</ele>
        <time>2022-01-12T09:42:15Z</time>
      </trkpt>
      <trkpt lat="47.70492" lon="3.50842">
        <ele>256.9</ele>
        <time>2022-01-12T09:42:16Z</time>
      </trkpt>
      <trkpt lat="47.70492" lon="3.50842">
        <ele>256.9</ele>
        <time>2022-01-12T09:42:17Z</time>
      </trkpt>
      <trkpt lat="47.70491" lon="3.50842">
        <ele>256.9</ele>
        <time>2022-01-12T09:42:18Z</time>
      </trkpt>
      <trkpt lat="47.70491" lon="3.50842">
        <ele>256.9</ele>
        <time>2022-01-12T09:42:19Z</time>
      </trkpt>
      <trkpt lat="47.70491" lon="3.50842">
        <ele>256.9</ele>
        <time>2022-01-12T09:42:20Z</time>
      </trkpt>
      <trkpt lat="47.70491" lon="3.50842">
        <ele>256.9</ele>
        <time>2022-01-12T09:42:21Z</time>
      </trkpt>
      <trkpt lat="47.70491" lon="3.50842">
        <ele>256.9</ele>
        <time>2022-01-12T09:42:22Z</time>
      </trkpt>
      <trkpt lat="47.70491" lon="3.50842">
        <ele>256.9</ele>
        <time>2022-01-12T09:42:23Z</time>
      </trkpt>
      <trkpt lat="47.70491" lon="3.50842">
        <ele>256.9</ele>
        <time>2022-01-12T09:42:24Z</time>
      </trkpt>
      <trkpt lat="47.70491" lon="3.50842">
        <ele>256.9</ele>
        <time>2022-01-12T09:42:25Z</time>
      </trkpt>
      <trkpt lat="47.70491" lon="3.50842">
        <ele>256.9</ele>
        <time>2022-01-12T09:42:26Z</time>
      </trkpt>
      <trkpt lat="47.70491" lon="3.50842">
        <ele>256.9</ele>
        <time>2022-01-12T09:42:27Z</time>
      </trkpt>
      <trkpt lat="47.70491" lon="3.50842">
        <ele>256.9</ele>
        <time>2022-01-12T09:42:28Z</time>
      </trkpt>
      <trkpt lat="47.70491" lon="3.50842">
        <ele>256.9</ele>
        <time>2022-01-12T09:42:29Z</time>
      </trkpt>
      <trkpt lat="47.70491" lon="3.50842">
        <ele>256.9</ele>
        <time>2022-01-12T09:42:30Z</time>
      </trkpt>
      <trkpt lat="47.70491" lon="3.50843">
        <ele>256.9</ele>
        <time>2022-01-12T09:42:31Z</time>
      </trkpt>
      <trkpt lat="47.70491" lon="3.50843">
        <ele>256.9</ele>
        <time>2022-01-12T09:42:32Z</time>
      </trkpt>
      <trkpt lat="47.70491" lon="3.50844">
        <ele>256.9</ele>
        <time>2022-01-12T09:42:33Z</time>
      </trkpt>
      <trkpt lat="47.7049" lon="3.50844">
        <ele>256.9</ele>
        <time>2022-01-12T09:42:34Z</time>
      </trkpt>
      <trkpt lat="47.7049" lon="3.50844">
        <ele>256.9</ele>
        <time>2022-01-12T09:42:35Z</time>
      </trkpt>
      <trkpt lat="47.7049" lon="3.50844">
        <ele>256.9</ele>
        <time>2022-01-12T09:42:36Z</time>
      </trkpt>
      <trkpt lat="47.7049" lon="3.50844">
        <ele>256.9</ele>
        <time>2022-01-12T09:42:37Z</time>
      </trkpt>
      <trkpt lat="47.7049" lon="3.50844">
        <ele>256.9</ele>
        <time>2022-01-12T09:42:38Z</time>
      </trkpt>
      <trkpt lat="47.7049" lon="3.50844">
        <ele>256.9</ele>
        <time>2022-01-12T09:42:39Z</time>
      </trkpt>
      <trkpt lat="47.7049" lon="3.50845">
        <ele>256.9</ele>
        <time>2022-01-12T09:42:40Z</time>
      </trkpt>
      <trkpt lat="47.7049" lon="3.50845">
        <ele>256.9</ele>
        <time>2022-01-12T09:42:41Z</time>
      </trkpt>
      <trkpt lat="47.70489" lon="3.50845">
        <ele>256.9</ele>
        <time>2022-01-12T09:42:42Z</time>
      </trkpt>
      <trkpt lat="47.70489" lon="3.50845">
        <ele>256.9</ele>
        <time>2022-01-12T09:42:43Z</time>
      </trkpt>
      <trkpt lat="47.70489" lon="3.50844">
        <ele>256.9</ele>
        <time>2022-01-12T09:42:44Z</time>
      </trkpt>
      <trkpt lat="47.70489" lon="3.50844">
        <ele>256.9</ele>
        <time>2022-01-12T09:42:45Z</time>
      </trkpt>
      <trkpt lat="47.70489" lon="3.50844">
        <ele>256.9</ele>
        <time>2022-01-12T09:42:46Z</time>
      </trkpt>
      <trkpt lat="47.70489" lon="3.50844">
        <ele>256.9</ele>
        <time>2022-01-12T09:42:47Z</time>
      </trkpt>
      <trkpt lat="47.70489" lon="3.50844">
        <ele>256.9</ele>
        <time>2022-01-12T09:42:48Z</time>
      </trkpt>
      <trkpt lat="47.7049" lon="3.50843">
        <ele>256.9</ele>
        <time>2022-01-12T09:42:49Z</time>
      </trkpt>
      <trkpt lat="47.7049" lon="3.50842">
        <ele>256.9</ele>
        <time>2022-01-12T09:42:50Z</time>
      </trkpt>
      <trkpt lat="47.7049" lon="3.50842">
        <ele>256.9</ele>
        <time>2022-01-12T09:42:51Z</time>
      </trkpt>
      <trkpt lat="47.7049" lon="3.50842">
        <ele>256.9</ele>
        <time>2022-01-12T09:42:52Z</time>
      </trkpt>
      <trkpt lat="47.7049" lon="3.50842">
        <ele>256.9</ele>
        <time>2022-01-12T09:42:53Z</time>
      </trkpt>
      <trkpt lat="47.7049" lon="3.50842">
        <ele>256.9</ele>
        <time>2022-01-12T09:42:54Z</time>
      </trkpt>
      <trkpt lat="47.7049" lon="3.50842">
        <ele>256.9</ele>
        <time>2022-01-12T09:42:55Z</time>
      </trkpt>
      <trkpt lat="47.70491" lon="3.50842">
        <ele>256.9</ele>
        <time>2022-01-12T09:42:56Z</time>
      </trkpt>
      <trkpt lat="47.70491" lon="3.50841">
        <ele>256.9</ele>
        <time>2022-01-12T09:42:57Z</time>
      </trkpt>
      <trkpt lat="47.70491" lon="3.50841">
        <ele>256.9</ele>
        <time>2022-01-12T09:42:58Z</time>
      </trkpt>
      <trkpt lat="47.70491" lon="3.50841">
        <ele>256.9</ele>
        <time>2022-01-12T09:42:59Z</time>
      </trkpt>
      <trkpt lat="47.70491" lon="3.50841">
        <ele>256.9</ele>
        <time>2022-01-12T09:43:00Z</time>
      </trkpt>
      <trkpt lat="47.70491" lon="3.50841">
        <ele>256.9</ele>
        <time>2022-01-12T09:43:01Z</time>
      </trkpt>
      <trkpt lat="47.70491" lon="3.50841">
        <ele>256.9</ele>
        <time>2022-01-12T09:43:02Z</time>
      </trkpt>
      <trkpt lat="47.70491" lon="3.5084">
        <ele>256.9</ele>
        <time>2022-01-12T09:43:03Z</time>
      </trkpt>
      <trkpt lat="47.7049" lon="3.50839">
        <ele>256.9</ele>
        <time>2022-01-12T09:43:04Z</time>
      </trkpt>
      <trkpt lat="47.7049" lon="3.50837">
        <ele>256.8</ele>
        <time>2022-01-12T09:43:05Z</time>
      </trkpt>
      <trkpt lat="47.70489" lon="3.50836">
        <ele>256.8</ele>
        <time>2022-01-12T09:43:06Z</time>
      </trkpt>
      <trkpt lat="47.70489" lon="3.50835">
        <ele>256.8</ele>
        <time>2022-01-12T09:43:07Z</time>
      </trkpt>
      <trkpt lat="47.70488" lon="3.50833">
        <ele>256.8</ele>
        <time>2022-01-12T09:43:08Z</time>
      </trkpt>
      <trkpt lat="47.70488" lon="3.50832">
        <ele>256.8</ele>
        <time>2022-01-12T09:43:09Z</time>
      </trkpt>
      <trkpt lat="47.70488" lon="3.50831">
        <ele>256.8</ele>
        <time>2022-01-12T09:43:10Z</time>
      </trkpt>
      <trkpt lat="47.70487" lon="3.5083">
        <ele>256.8</ele>
        <time>2022-01-12T09:43:11Z</time>
      </trkpt>
      <trkpt lat="47.70488" lon="3.5083">
        <ele>256.8</ele>
        <time>2022-01-12T09:43:12Z</time>
      </trkpt>
      <trkpt lat="47.70488" lon="3.50828">
        <ele>256.8</ele>
        <time>2022-01-12T09:43:13Z</time>
      </trkpt>
      <trkpt lat="47.70487" lon="3.50827">
        <ele>256.8</ele>
        <time>2022-01-12T09:43:14Z</time>
      </trkpt>
      <trkpt lat="47.70487" lon="3.50825">
        <ele>256.8</ele>
        <time>2022-01-12T09:43:15Z</time>
      </trkpt>
      <trkpt lat="47.70487" lon="3.50823">
        <ele>256.8</ele>
        <time>2022-01-12T09:43:16Z</time>
      </trkpt>
      <trkpt lat="47.70486" lon="3.50819">
        <ele>256.8</ele>
        <time>2022-01-12T09:43:18Z</time>
      </trkpt>
      <trkpt lat="47.70486" lon="3.50818">
        <ele>256.8</ele>
        <time>2022-01-12T09:43:19Z</time>
      </trkpt>
      <trkpt lat="47.70486" lon="3.50816">
        <ele>256.8</ele>
        <time>2022-01-12T09:43:20Z</time>
      </trkpt>
      <trkpt lat="47.70486" lon="3.50815">
        <ele>256.8</ele>
        <time>2022-01-12T09:43:21Z</time>
      </trkpt>
      <trkpt lat="47.70486" lon="3.50813">
        <ele>256.8</ele>
        <time>2022-01-12T09:43:22Z</time>
      </trkpt>
      <trkpt lat="47.70485" lon="3.50811">
        <ele>256.8</ele>
        <time>2022-01-12T09:43:24Z</time>
      </trkpt>
      <trkpt lat="47.70485" lon="3.5081">
        <ele>256.7</ele>
        <time>2022-01-12T09:43:25Z</time>
      </trkpt>
      <trkpt lat="47.70485" lon="3.50809">
        <ele>256.7</ele>
        <time>2022-01-12T09:43:26Z</time>
      </trkpt>
      <trkpt lat="47.70485" lon="3.50807">
        <ele>256.7</ele>
        <time>2022-01-12T09:43:27Z</time>
      </trkpt>
      <trkpt lat="47.70484" lon="3.50806">
        <ele>256.7</ele>
        <time>2022-01-12T09:43:28Z</time>
      </trkpt>
      <trkpt lat="47.70484" lon="3.50805">
        <ele>256.7</ele>
        <time>2022-01-12T09:43:29Z</time>
      </trkpt>
      <trkpt lat="47.70484" lon="3.50804">
        <ele>256.7</ele>
        <time>2022-01-12T09:43:31Z</time>
      </trkpt>
      <trkpt lat="47.70484" lon="3.50803">
        <ele>256.7</ele>
        <time>2022-01-12T09:43:32Z</time>
      </trkpt>
      <trkpt lat="47.70484" lon="3.50801">
        <ele>256.7</ele>
        <time>2022-01-12T09:43:33Z</time>
      </trkpt>
      <trkpt lat="47.70484" lon="3.508">
        <ele>256.7</ele>
        <time>2022-01-12T09:43:34Z</time>
      </trkpt>
      <trkpt lat="47.70484" lon="3.50799">
        <ele>256.7</ele>
        <time>2022-01-12T09:43:35Z</time>
      </trkpt>
      <trkpt lat="47.70484" lon="3.50798">
        <ele>256.7</ele>
        <time>2022-01-12T09:43:36Z</time>
      </trkpt>
      <trkpt lat="47.70484" lon="3.50798">
        <ele>256.7</ele>
        <time>2022-01-12T09:43:37Z</time>
      </trkpt>
      <trkpt lat="47.70484" lon="3.50796">
        <ele>256.7</ele>
        <time>2022-01-12T09:43:39Z</time>
      </trkpt>
      <trkpt lat="47.70484" lon="3.50794">
        <ele>256.7</ele>
        <time>2022-01-12T09:43:40Z</time>
      </trkpt>
      <trkpt lat="47.70484" lon="3.50793">
        <ele>256.7</ele>
        <time>2022-01-12T09:43:41Z</time>
      </trkpt>
      <trkpt lat="47.70483" lon="3.50791">
        <ele>256.7</ele>
        <time>2022-01-12T09:43:42Z</time>
      </trkpt>
      <trkpt lat="47.70483" lon="3.50788">
        <ele>256.7</ele>
        <time>2022-01-12T09:43:43Z</time>
      </trkpt>
      <trkpt lat="47.70482" lon="3.50786">
        <ele>256.7</ele>
        <time>2022-01-12T09:43:44Z</time>
      </trkpt>
      <trkpt lat="47.70482" lon="3.50785">
        <ele>256.7</ele>
        <time>2022-01-12T09:43:45Z</time>
      </trkpt>
      <trkpt lat="47.70482" lon="3.50783">
        <ele>256.6</ele>
        <time>2022-01-12T09:43:47Z</time>
      </trkpt>
      <trkpt lat="47.70481" lon="3.50781">
        <ele>256.6</ele>
        <time>2022-01-12T09:43:48Z</time>
      </trkpt>
      <trkpt lat="47.70481" lon="3.50779">
        <ele>256.6</ele>
        <time>2022-01-12T09:43:49Z</time>
      </trkpt>
      <trkpt lat="47.70481" lon="3.50777">
        <ele>256.6</ele>
        <time>2022-01-12T09:43:50Z</time>
      </trkpt>
      <trkpt lat="47.7048" lon="3.50775">
        <ele>256.6</ele>
        <time>2022-01-12T09:43:51Z</time>
      </trkpt>
      <trkpt lat="47.7048" lon="3.50773">
        <ele>256.6</ele>
        <time>2022-01-12T09:43:52Z</time>
      </trkpt>
      <trkpt lat="47.7048" lon="3.50771">
        <ele>256.6</ele>
        <time>2022-01-12T09:43:54Z</time>
      </trkpt>
      <trkpt lat="47.70479" lon="3.50769">
        <ele>256.6</ele>
        <time>2022-01-12T09:43:55Z</time>
      </trkpt>
      <trkpt lat="47.70479" lon="3.50768">
        <ele>256.6</ele>
        <time>2022-01-12T09:43:56Z</time>
      </trkpt>
      <trkpt lat="47.70479" lon="3.50766">
        <ele>256.6</ele>
        <time>2022-01-12T09:43:57Z</time>
      </trkpt>
      <trkpt lat="47.70479" lon="3.50765">
        <ele>256.6</ele>
        <time>2022-01-12T09:43:58Z</time>
      </trkpt>
      <trkpt lat="47.70479" lon="3.50764">
        <ele>256.6</ele>
        <time>2022-01-12T09:44:00Z</time>
      </trkpt>
      <trkpt lat="47.70479" lon="3.50761">
        <ele>256.6</ele>
        <time>2022-01-12T09:44:01Z</time>
      </trkpt>
      <trkpt lat="47.70479" lon="3.5076">
        <ele>256.6</ele>
        <time>2022-01-12T09:44:02Z</time>
      </trkpt>
      <trkpt lat="47.70479" lon="3.50759">
        <ele>256.6</ele>
        <time>2022-01-12T09:44:03Z</time>
      </trkpt>
      <trkpt lat="47.70479" lon="3.50757">
        <ele>256.6</ele>
        <time>2022-01-12T09:44:05Z</time>
      </trkpt>
      <trkpt lat="47.70479" lon="3.50756">
        <ele>256.5</ele>
        <time>2022-01-12T09:44:06Z</time>
      </trkpt>
      <trkpt lat="47.70479" lon="3.50754">
        <ele>256.5</ele>
        <time>2022-01-12T09:44:07Z</time>
      </trkpt>
      <trkpt lat="47.70479" lon="3.50752">
        <ele>256.5</ele>
        <time>2022-01-12T09:44:08Z</time>
      </trkpt>
      <trkpt lat="47.70479" lon="3.5075">
        <ele>256.5</ele>
        <time>2022-01-12T09:44:09Z</time>
      </trkpt>
      <trkpt lat="47.70479" lon="3.50749">
        <ele>256.5</ele>
        <time>2022-01-12T09:44:10Z</time>
      </trkpt>
      <trkpt lat="47.70479" lon="3.50748">
        <ele>256.5</ele>
        <time>2022-01-12T09:44:11Z</time>
      </trkpt>
      <trkpt lat="47.70479" lon="3.50747">
        <ele>256.5</ele>
        <time>2022-01-12T09:44:12Z</time>
      </trkpt>
      <trkpt lat="47.70478" lon="3.50744">
        <ele>256.5</ele>
        <time>2022-01-12T09:44:14Z</time>
      </trkpt>
      <trkpt lat="47.70478" lon="3.50742">
        <ele>256.5</ele>
        <time>2022-01-12T09:44:15Z</time>
      </trkpt>
      <trkpt lat="47.70477" lon="3.50741">
        <ele>256.5</ele>
        <time>2022-01-12T09:44:16Z</time>
      </trkpt>
      <trkpt lat="47.70477" lon="3.50739">
        <ele>256.5</ele>
        <time>2022-01-12T09:44:17Z</time>
      </trkpt>
      <trkpt lat="47.70476" lon="3.50737">
        <ele>256.5</ele>
        <time>2022-01-12T09:44:18Z</time>
      </trkpt>
      <trkpt lat="47.70476" lon="3.50736">
        <ele>256.5</ele>
        <time>2022-01-12T09:44:19Z</time>
      </trkpt>
      <trkpt lat="47.70475" lon="3.50734">
        <ele>256.5</ele>
        <time>2022-01-12T09:44:21Z</time>
      </trkpt>
      <trkpt lat="47.70475" lon="3.50731">
        <ele>256.5</ele>
        <time>2022-01-12T09:44:22Z</time>
      </trkpt>
      <trkpt lat="47.70475" lon="3.50729">
        <ele>256.4</ele>
        <time>2022-01-12T09:44:23Z</time>
      </trkpt>
      <trkpt lat="47.70475" lon="3.50727">
        <ele>256.4</ele>
        <time>2022-01-12T09:44:24Z</time>
      </trkpt>
      <trkpt lat="47.70474" lon="3.50725">
        <ele>256.4</ele>
        <time>2022-01-12T09:44:25Z</time>
      </trkpt>
      <trkpt lat="47.70474" lon="3.50723">
        <ele>256.4</ele>
        <time>2022-01-12T09:44:26Z</time>
      </trkpt>
      <trkpt lat="47.70474" lon="3.50721">
        <ele>256.4</ele>
        <time>2022-01-12T09:44:28Z</time>
      </trkpt>
      <trkpt lat="47.70473" lon="3.50719">
        <ele>256.4</ele>
        <time>2022-01-12T09:44:29Z</time>
      </trkpt>
      <trkpt lat="47.70473" lon="3.50716">
        <ele>256.4</ele>
        <time>2022-01-12T09:44:30Z</time>
      </trkpt>
      <trkpt lat="47.70473" lon="3.50714">
        <ele>256.4</ele>
        <time>2022-01-12T09:44:31Z</time>
      </trkpt>
      <trkpt lat="47.70472" lon="3.50712">
        <ele>256.4</ele>
        <time>2022-01-12T09:44:32Z</time>
      </trkpt>
      <trkpt lat="47.70472" lon="3.50709">
        <ele>256.4</ele>
        <time>2022-01-12T09:44:33Z</time>
      </trkpt>
      <trkpt lat="47.70471" lon="3.50708">
        <ele>256.4</ele>
        <time>2022-01-12T09:44:34Z</time>
      </trkpt>
      <trkpt lat="47.70471" lon="3.50706">
        <ele>256.4</ele>
        <time>2022-01-12T09:44:36Z</time>
      </trkpt>
      <trkpt lat="47.70471" lon="3.50704">
        <ele>256.4</ele>
        <time>2022-01-12T09:44:37Z</time>
      </trkpt>
      <trkpt lat="47.7047" lon="3.50701">
        <ele>256.3</ele>
        <time>2022-01-12T09:44:38Z</time>
      </trkpt>
      <trkpt lat="47.7047" lon="3.50699">
        <ele>256.3</ele>
        <time>2022-01-12T09:44:39Z</time>
      </trkpt>
      <trkpt lat="47.7047" lon="3.50698">
        <ele>256.3</ele>
        <time>2022-01-12T09:44:40Z</time>
      </trkpt>
      <trkpt lat="47.70469" lon="3.50694">
        <ele>256.3</ele>
        <time>2022-01-12T09:44:41Z</time>
      </trkpt>
      <trkpt lat="47.70469" lon="3.50693">
        <ele>256.3</ele>
        <time>2022-01-12T09:44:43Z</time>
      </trkpt>
      <trkpt lat="47.70469" lon="3.50691">
        <ele>256.3</ele>
        <time>2022-01-12T09:44:44Z</time>
      </trkpt>
      <trkpt lat="47.70469" lon="3.50689">
        <ele>256.3</ele>
        <time>2022-01-12T09:44:45Z</time>
      </trkpt>
      <trkpt lat="47.70468" lon="3.50688">
        <ele>256.3</ele>
        <time>2022-01-12T09:44:46Z</time>
      </trkpt>
      <trkpt lat="47.70468" lon="3.50687">
        <ele>256.3</ele>
        <time>2022-01-12T09:44:47Z</time>
      </trkpt>
      <trkpt lat="47.70468" lon="3.50685">
        <ele>256.3</ele>
        <time>2022-01-12T09:44:48Z</time>
      </trkpt>
      <trkpt lat="47.70468" lon="3.50683">
        <ele>256.3</ele>
        <time>2022-01-12T09:44:49Z</time>
      </trkpt>
      <trkpt lat="47.70467" lon="3.5068">
        <ele>256.3</ele>
        <time>2022-01-12T09:44:50Z</time>
      </trkpt>
      <trkpt lat="47.70467" lon="3.50679">
        <ele>256.3</ele>
        <time>2022-01-12T09:44:52Z</time>
      </trkpt>
      <trkpt lat="47.70467" lon="3.50677">
        <ele>256.3</ele>
        <time>2022-01-12T09:44:53Z</time>
      </trkpt>
      <trkpt lat="47.70467" lon="3.50674">
        <ele>256.2</ele>
        <time>2022-01-12T09:44:54Z</time>
      </trkpt>
      <trkpt lat="47.70467" lon="3.50673">
        <ele>256.2</ele>
        <time>2022-01-12T09:44:55Z</time>
      </trkpt>
      <trkpt lat="47.70466" lon="3.50671">
        <ele>256.2</ele>
        <time>2022-01-12T09:44:56Z</time>
      </trkpt>
      <trkpt lat="47.70466" lon="3.5067">
        <ele>256.2</ele>
        <time>2022-01-12T09:44:57Z</time>
      </trkpt>
      <trkpt lat="47.70466" lon="3.50668">
        <ele>256.2</ele>
        <time>2022-01-12T09:44:58Z</time>
      </trkpt>
      <trkpt lat="47.70466" lon="3.50666">
        <ele>256.2</ele>
        <time>2022-01-12T09:45:00Z</time>
      </trkpt>
      <trkpt lat="47.70465" lon="3.50664">
        <ele>256.2</ele>
        <time>2022-01-12T09:45:01Z</time>
      </trkpt>
      <trkpt lat="47.70465" lon="3.50662">
        <ele>256.2</ele>
        <time>2022-01-12T09:45:02Z</time>
      </trkpt>
      <trkpt lat="47.70465" lon="3.5066">
        <ele>256.2</ele>
        <time>2022-01-12T09:45:03Z</time>
      </trkpt>
      <trkpt lat="47.70465" lon="3.50657">
        <ele>256.2</ele>
        <time>2022-01-12T09:45:04Z</time>
      </trkpt>
      <trkpt lat="47.70465" lon="3.50656">
        <ele>256.2</ele>
        <time>2022-01-12T09:45:05Z</time>
      </trkpt>
      <trkpt lat="47.70465" lon="3.50653">
        <ele>256.2</ele>
        <time>2022-01-12T09:45:06Z</time>
      </trkpt>
      <trkpt lat="47.70465" lon="3.50651">
        <ele>256.2</ele>
        <time>2022-01-12T09:45:08Z</time>
      </trkpt>
      <trkpt lat="47.70464" lon="3.50649">
        <ele>256.2</ele>
        <time>2022-01-12T09:45:09Z</time>
      </trkpt>
      <trkpt lat="47.70464" lon="3.50647">
        <ele>256.1</ele>
        <time>2022-01-12T09:45:10Z</time>
      </trkpt>
      <trkpt lat="47.70464" lon="3.50645">
        <ele>256.1</ele>
        <time>2022-01-12T09:45:11Z</time>
      </trkpt>
      <trkpt lat="47.70464" lon="3.50643">
        <ele>256.1</ele>
        <time>2022-01-12T09:45:12Z</time>
      </trkpt>
      <trkpt lat="47.70463" lon="3.5064">
        <ele>256.1</ele>
        <time>2022-01-12T09:45:13Z</time>
      </trkpt>
      <trkpt lat="47.70463" lon="3.50639">
        <ele>256.1</ele>
        <time>2022-01-12T09:45:14Z</time>
      </trkpt>
      <trkpt lat="47.70463" lon="3.50636">
        <ele>256.1</ele>
        <time>2022-01-12T09:45:16Z</time>
      </trkpt>
      <trkpt lat="47.70462" lon="3.50633">
        <ele>256.1</ele>
        <time>2022-01-12T09:45:17Z</time>
      </trkpt>
      <trkpt lat="47.70462" lon="3.50631">
        <ele>256.1</ele>
        <time>2022-01-12T09:45:18Z</time>
      </trkpt>
      <trkpt lat="47.70461" lon="3.50629">
        <ele>256.1</ele>
        <time>2022-01-12T09:45:19Z</time>
      </trkpt>
      <trkpt lat="47.70461" lon="3.50627">
        <ele>256.1</ele>
        <time>2022-01-12T09:45:20Z</time>
      </trkpt>
      <trkpt lat="47.70461" lon="3.50624">
        <ele>256.1</ele>
        <time>2022-01-12T09:45:22Z</time>
      </trkpt>
      <trkpt lat="47.70461" lon="3.50622">
        <ele>256.1</ele>
        <time>2022-01-12T09:45:23Z</time>
      </trkpt>
      <trkpt lat="47.7046" lon="3.5062">
        <ele>256</ele>
        <time>2022-01-12T09:45:24Z</time>
      </trkpt>
      <trkpt lat="47.7046" lon="3.50617">
        <ele>256</ele>
        <time>2022-01-12T09:45:25Z</time>
      </trkpt>
      <trkpt lat="47.7046" lon="3.50615">
        <ele>256</ele>
        <time>2022-01-12T09:45:26Z</time>
      </trkpt>
      <trkpt lat="47.70459" lon="3.50613">
        <ele>256</ele>
        <time>2022-01-12T09:45:27Z</time>
      </trkpt>
      <trkpt lat="47.70459" lon="3.50611">
        <ele>256</ele>
        <time>2022-01-12T09:45:29Z</time>
      </trkpt>
      <trkpt lat="47.70458" lon="3.50609">
        <ele>256</ele>
        <time>2022-01-12T09:45:30Z</time>
      </trkpt>
      <trkpt lat="47.70458" lon="3.50606">
        <ele>256</ele>
        <time>2022-01-12T09:45:31Z</time>
      </trkpt>
      <trkpt lat="47.70457" lon="3.50604">
        <ele>256</ele>
        <time>2022-01-12T09:45:32Z</time>
      </trkpt>
      <trkpt lat="47.70457" lon="3.50602">
        <ele>256</ele>
        <time>2022-01-12T09:45:33Z</time>
      </trkpt>
      <trkpt lat="47.70456" lon="3.50599">
        <ele>256</ele>
        <time>2022-01-12T09:45:34Z</time>
      </trkpt>
      <trkpt lat="47.70455" lon="3.50598">
        <ele>256</ele>
        <time>2022-01-12T09:45:36Z</time>
      </trkpt>
      <trkpt lat="47.70455" lon="3.50597">
        <ele>256</ele>
        <time>2022-01-12T09:45:37Z</time>
      </trkpt>
      <trkpt lat="47.70454" lon="3.50594">
        <ele>255.9</ele>
        <time>2022-01-12T09:45:38Z</time>
      </trkpt>
      <trkpt lat="47.70454" lon="3.50593">
        <ele>255.9</ele>
        <time>2022-01-12T09:45:39Z</time>
      </trkpt>
      <trkpt lat="47.70453" lon="3.50592">
        <ele>255.9</ele>
        <time>2022-01-12T09:45:40Z</time>
      </trkpt>
      <trkpt lat="47.70453" lon="3.5059">
        <ele>255.9</ele>
        <time>2022-01-12T09:45:41Z</time>
      </trkpt>
      <trkpt lat="47.70453" lon="3.50588">
        <ele>255.9</ele>
        <time>2022-01-12T09:45:42Z</time>
      </trkpt>
      <trkpt lat="47.70453" lon="3.50586">
        <ele>255.9</ele>
        <time>2022-01-12T09:45:44Z</time>
      </trkpt>
      <trkpt lat="47.70452" lon="3.50585">
        <ele>255.9</ele>
        <time>2022-01-12T09:45:45Z</time>
      </trkpt>
      <trkpt lat="47.70452" lon="3.50583">
        <ele>255.9</ele>
        <time>2022-01-12T09:45:46Z</time>
      </trkpt>
      <trkpt lat="47.70452" lon="3.50581">
        <ele>255.9</ele>
        <time>2022-01-12T09:45:47Z</time>
      </trkpt>
      <trkpt lat="47.70452" lon="3.50579">
        <ele>255.9</ele>
        <time>2022-01-12T09:45:48Z</time>
      </trkpt>
      <trkpt lat="47.70453" lon="3.50578">
        <ele>255.9</ele>
        <time>2022-01-12T09:45:49Z</time>
      </trkpt>
      <trkpt lat="47.70453" lon="3.50577">
        <ele>255.9</ele>
        <time>2022-01-12T09:45:50Z</time>
      </trkpt>
      <trkpt lat="47.70453" lon="3.50576">
        <ele>255.9</ele>
        <time>2022-01-12T09:45:51Z</time>
      </trkpt>
      <trkpt lat="47.70453" lon="3.50574">
        <ele>255.9</ele>
        <time>2022-01-12T09:45:53Z</time>
      </trkpt>
      <trkpt lat="47.70453" lon="3.50572">
        <ele>255.9</ele>
        <time>2022-01-12T09:45:54Z</time>
      </trkpt>
      <trkpt lat="47.70453" lon="3.50571">
        <ele>255.9</ele>
        <time>2022-01-12T09:45:55Z</time>
      </trkpt>
      <trkpt lat="47.70454" lon="3.50569">
        <ele>255.9</ele>
        <time>2022-01-12T09:45:56Z</time>
      </trkpt>
      <trkpt lat="47.70454" lon="3.50568">
        <ele>255.9</ele>
        <time>2022-01-12T09:45:58Z</time>
      </trkpt>
      <trkpt lat="47.70454" lon="3.50566">
        <ele>255.8</ele>
        <time>2022-01-12T09:45:59Z</time>
      </trkpt>
      <trkpt lat="47.70454" lon="3.50565">
        <ele>255.8</ele>
        <time>2022-01-12T09:46:00Z</time>
      </trkpt>
      <trkpt lat="47.70454" lon="3.50563">
        <ele>255.8</ele>
        <time>2022-01-12T09:46:01Z</time>
      </trkpt>
      <trkpt lat="47.70454" lon="3.50562">
        <ele>255.8</ele>
        <time>2022-01-12T09:46:02Z</time>
      </trkpt>
      <trkpt lat="47.70454" lon="3.5056">
        <ele>255.8</ele>
        <time>2022-01-12T09:46:03Z</time>
      </trkpt>
      <trkpt lat="47.70453" lon="3.50558">
        <ele>255.8</ele>
        <time>2022-01-12T09:46:04Z</time>
      </trkpt>
      <trkpt lat="47.70453" lon="3.50557">
        <ele>255.8</ele>
        <time>2022-01-12T09:46:06Z</time>
      </trkpt>
      <trkpt lat="47.70453" lon="3.50555">
        <ele>255.8</ele>
        <time>2022-01-12T09:46:07Z</time>
      </trkpt>
      <trkpt lat="47.70452" lon="3.50553">
        <ele>255.8</ele>
        <time>2022-01-12T09:46:08Z</time>
      </trkpt>
      <trkpt lat="47.70452" lon="3.50552">
        <ele>255.8</ele>
        <time>2022-01-12T09:46:09Z</time>
      </trkpt>
      <trkpt lat="47.70451" lon="3.5055">
        <ele>255.8</ele>
        <time>2022-01-12T09:46:10Z</time>
      </trkpt>
      <trkpt lat="47.70451" lon="3.50549">
        <ele>255.8</ele>
        <time>2022-01-12T09:46:11Z</time>
      </trkpt>
      <trkpt lat="47.7045" lon="3.50547">
        <ele>255.8</ele>
        <time>2022-01-12T09:46:12Z</time>
      </trkpt>
      <trkpt lat="47.7045" lon="3.50546">
        <ele>255.8</ele>
        <time>2022-01-12T09:46:14Z</time>
      </trkpt>
      <trkpt lat="47.7045" lon="3.50544">
        <ele>255.8</ele>
        <time>2022-01-12T09:46:15Z</time>
      </trkpt>
      <trkpt lat="47.70449" lon="3.50541">
        <ele>255.8</ele>
        <time>2022-01-12T09:46:16Z</time>
      </trkpt>
      <trkpt lat="47.70449" lon="3.5054">
        <ele>255.7</ele>
        <time>2022-01-12T09:46:17Z</time>
      </trkpt>
      <trkpt lat="47.70449" lon="3.50539">
        <ele>255.7</ele>
        <time>2022-01-12T09:46:18Z</time>
      </trkpt>
      <trkpt lat="47.70448" lon="3.50537">
        <ele>255.7</ele>
        <time>2022-01-12T09:46:19Z</time>
      </trkpt>
      <trkpt lat="47.70448" lon="3.50536">
        <ele>255.7</ele>
        <time>2022-01-12T09:46:20Z</time>
      </trkpt>
      <trkpt lat="47.70448" lon="3.50534">
        <ele>255.7</ele>
        <time>2022-01-12T09:46:22Z</time>
      </trkpt>
      <trkpt lat="47.70448" lon="3.50532">
        <ele>255.7</ele>
        <time>2022-01-12T09:46:23Z</time>
      </trkpt>
      <trkpt lat="47.70447" lon="3.50531">
        <ele>255.7</ele>
        <time>2022-01-12T09:46:24Z</time>
      </trkpt>
      <trkpt lat="47.70447" lon="3.50529">
        <ele>255.7</ele>
        <time>2022-01-12T09:46:25Z</time>
      </trkpt>
      <trkpt lat="47.70447" lon="3.50527">
        <ele>255.7</ele>
        <time>2022-01-12T09:46:26Z</time>
      </trkpt>
      <trkpt lat="47.70447" lon="3.50526">
        <ele>255.7</ele>
        <time>2022-01-12T09:46:27Z</time>
      </trkpt>
      <trkpt lat="47.70446" lon="3.50524">
        <ele>255.7</ele>
        <time>2022-01-12T09:46:28Z</time>
      </trkpt>
      <trkpt lat="47.70446" lon="3.50521">
        <ele>255.7</ele>
        <time>2022-01-12T09:46:30Z</time>
      </trkpt>
      <trkpt lat="47.70445" lon="3.5052">
        <ele>255.7</ele>
        <time>2022-01-12T09:46:31Z</time>
      </trkpt>
      <trkpt lat="47.70445" lon="3.50518">
        <ele>255.7</ele>
        <time>2022-01-12T09:46:32Z</time>
      </trkpt>
      <trkpt lat="47.70445" lon="3.50516">
        <ele>255.7</ele>
        <time>2022-01-12T09:46:33Z</time>
      </trkpt>
      <trkpt lat="47.70444" lon="3.50514">
        <ele>255.7</ele>
        <time>2022-01-12T09:46:34Z</time>
      </trkpt>
      <trkpt lat="47.70444" lon="3.50512">
        <ele>255.6</ele>
        <time>2022-01-12T09:46:35Z</time>
      </trkpt>
      <trkpt lat="47.70444" lon="3.5051">
        <ele>255.6</ele>
        <time>2022-01-12T09:46:36Z</time>
      </trkpt>
      <trkpt lat="47.70444" lon="3.50508">
        <ele>255.6</ele>
        <time>2022-01-12T09:46:37Z</time>
      </trkpt>
      <trkpt lat="47.70443" lon="3.50505">
        <ele>255.6</ele>
        <time>2022-01-12T09:46:39Z</time>
      </trkpt>
      <trkpt lat="47.70443" lon="3.50503">
        <ele>255.6</ele>
        <time>2022-01-12T09:46:40Z</time>
      </trkpt>
      <trkpt lat="47.70442" lon="3.50501">
        <ele>255.6</ele>
        <time>2022-01-12T09:46:41Z</time>
      </trkpt>
      <trkpt lat="47.70442" lon="3.50498">
        <ele>255.6</ele>
        <time>2022-01-12T09:46:42Z</time>
      </trkpt>
      <trkpt lat="47.70442" lon="3.50496">
        <ele>255.6</ele>
        <time>2022-01-12T09:46:43Z</time>
      </trkpt>
      <trkpt lat="47.70442" lon="3.50494">
        <ele>255.6</ele>
        <time>2022-01-12T09:46:45Z</time>
      </trkpt>
      <trkpt lat="47.70442" lon="3.50491">
        <ele>255.6</ele>
        <time>2022-01-12T09:46:46Z</time>
      </trkpt>
      <trkpt lat="47.70442" lon="3.50489">
        <ele>255.6</ele>
        <time>2022-01-12T09:46:47Z</time>
      </trkpt>
      <trkpt lat="47.70442" lon="3.50487">
        <ele>255.5</ele>
        <time>2022-01-12T09:46:48Z</time>
      </trkpt>
      <trkpt lat="47.70442" lon="3.50485">
        <ele>255.5</ele>
        <time>2022-01-12T09:46:49Z</time>
      </trkpt>
      <trkpt lat="47.70442" lon="3.50482">
        <ele>255.5</ele>
        <time>2022-01-12T09:46:51Z</time>
      </trkpt>
      <trkpt lat="47.70442" lon="3.5048">
        <ele>255.5</ele>
        <time>2022-01-12T09:46:52Z</time>
      </trkpt>
      <trkpt lat="47.70442" lon="3.50478">
        <ele>255.5</ele>
        <time>2022-01-12T09:46:53Z</time>
      </trkpt>
      <trkpt lat="47.70441" lon="3.50475">
        <ele>255.5</ele>
        <time>2022-01-12T09:46:54Z</time>
      </trkpt>
      <trkpt lat="47.70441" lon="3.50474">
        <ele>255.5</ele>
        <time>2022-01-12T09:46:55Z</time>
      </trkpt>
      <trkpt lat="47.70441" lon="3.50472">
        <ele>255.5</ele>
        <time>2022-01-12T09:46:56Z</time>
      </trkpt>
      <trkpt lat="47.70441" lon="3.50471">
        <ele>255.5</ele>
        <time>2022-01-12T09:46:57Z</time>
      </trkpt>
      <trkpt lat="47.70441" lon="3.5047">
        <ele>255.5</ele>
        <time>2022-01-12T09:46:58Z</time>
      </trkpt>
      <trkpt lat="47.70441" lon="3.50468">
        <ele>255.5</ele>
        <time>2022-01-12T09:46:59Z</time>
      </trkpt>
      <trkpt lat="47.70441" lon="3.50467">
        <ele>255.5</ele>
        <time>2022-01-12T09:47:00Z</time>
      </trkpt>
      <trkpt lat="47.70441" lon="3.50465">
        <ele>255.5</ele>
        <time>2022-01-12T09:47:01Z</time>
      </trkpt>
      <trkpt lat="47.70442" lon="3.50463">
        <ele>255.5</ele>
        <time>2022-01-12T09:47:02Z</time>
      </trkpt>
      <trkpt lat="47.70442" lon="3.50462">
        <ele>255.5</ele>
        <time>2022-01-12T09:47:03Z</time>
      </trkpt>
      <trkpt lat="47.70442" lon="3.5046">
        <ele>255.5</ele>
        <time>2022-01-12T09:47:04Z</time>
      </trkpt>
      <trkpt lat="47.70442" lon="3.50459">
        <ele>255.4</ele>
        <time>2022-01-12T09:47:05Z</time>
      </trkpt>
      <trkpt lat="47.70442" lon="3.50456">
        <ele>255.4</ele>
        <time>2022-01-12T09:47:07Z</time>
      </trkpt>
      <trkpt lat="47.70442" lon="3.50455">
        <ele>255.4</ele>
        <time>2022-01-12T09:47:08Z</time>
      </trkpt>
      <trkpt lat="47.70442" lon="3.50454">
        <ele>255.4</ele>
        <time>2022-01-12T09:47:09Z</time>
      </trkpt>
      <trkpt lat="47.70442" lon="3.50452">
        <ele>255.4</ele>
        <time>2022-01-12T09:47:10Z</time>
      </trkpt>
      <trkpt lat="47.70442" lon="3.50451">
        <ele>255.4</ele>
        <time>2022-01-12T09:47:11Z</time>
      </trkpt>
      <trkpt lat="47.70441" lon="3.5045">
        <ele>255.4</ele>
        <time>2022-01-12T09:47:12Z</time>
      </trkpt>
      <trkpt lat="47.7044" lon="3.5045">
        <ele>255.4</ele>
        <time>2022-01-12T09:47:14Z</time>
      </trkpt>
      <trkpt lat="47.70439" lon="3.50449">
        <ele>255.4</ele>
        <time>2022-01-12T09:47:15Z</time>
      </trkpt>
      <trkpt lat="47.70439" lon="3.50448">
        <ele>255.4</ele>
        <time>2022-01-12T09:47:16Z</time>
      </trkpt>
      <trkpt lat="47.70439" lon="3.50447">
        <ele>255.4</ele>
        <time>2022-01-12T09:47:17Z</time>
      </trkpt>
      <trkpt lat="47.70438" lon="3.50446">
        <ele>255.4</ele>
        <time>2022-01-12T09:47:18Z</time>
      </trkpt>
      <trkpt lat="47.70438" lon="3.50444">
        <ele>255.4</ele>
        <time>2022-01-12T09:47:19Z</time>
      </trkpt>
      <trkpt lat="47.70438" lon="3.50443">
        <ele>255.4</ele>
        <time>2022-01-12T09:47:20Z</time>
      </trkpt>
      <trkpt lat="47.70438" lon="3.50442">
        <ele>255.4</ele>
        <time>2022-01-12T09:47:21Z</time>
      </trkpt>
      <trkpt lat="47.70438" lon="3.5044">
        <ele>255.4</ele>
        <time>2022-01-12T09:47:23Z</time>
      </trkpt>
      <trkpt lat="47.70438" lon="3.50438">
        <ele>255.4</ele>
        <time>2022-01-12T09:47:24Z</time>
      </trkpt>
      <trkpt lat="47.70438" lon="3.50437">
        <ele>255.4</ele>
        <time>2022-01-12T09:47:25Z</time>
      </trkpt>
      <trkpt lat="47.70437" lon="3.50435">
        <ele>255.4</ele>
        <time>2022-01-12T09:47:26Z</time>
      </trkpt>
      <trkpt lat="47.70437" lon="3.50432">
        <ele>255.3</ele>
        <time>2022-01-12T09:47:27Z</time>
      </trkpt>
      <trkpt lat="47.70436" lon="3.5043">
        <ele>255.3</ele>
        <time>2022-01-12T09:47:28Z</time>
      </trkpt>
      <trkpt lat="47.70436" lon="3.50429">
        <ele>255.3</ele>
        <time>2022-01-12T09:47:29Z</time>
      </trkpt>
      <trkpt lat="47.70434" lon="3.50426">
        <ele>255.3</ele>
        <time>2022-01-12T09:47:31Z</time>
      </trkpt>
      <trkpt lat="47.70434" lon="3.50425">
        <ele>255.3</ele>
        <time>2022-01-12T09:47:32Z</time>
      </trkpt>
      <trkpt lat="47.70433" lon="3.50422">
        <ele>255.3</ele>
        <time>2022-01-12T09:47:33Z</time>
      </trkpt>
      <trkpt lat="47.70433" lon="3.5042">
        <ele>255.3</ele>
        <time>2022-01-12T09:47:34Z</time>
      </trkpt>
      <trkpt lat="47.70433" lon="3.50419">
        <ele>255.3</ele>
        <time>2022-01-12T09:47:35Z</time>
      </trkpt>
      <trkpt lat="47.70432" lon="3.50417">
        <ele>255.3</ele>
        <time>2022-01-12T09:47:36Z</time>
      </trkpt>
      <trkpt lat="47.70432" lon="3.50414">
        <ele>255.3</ele>
        <time>2022-01-12T09:47:37Z</time>
      </trkpt>
      <trkpt lat="47.70432" lon="3.50412">
        <ele>255.3</ele>
        <time>2022-01-12T09:47:38Z</time>
      </trkpt>
      <trkpt lat="47.70431" lon="3.5041">
        <ele>255.3</ele>
        <time>2022-01-12T09:47:39Z</time>
      </trkpt>
      <trkpt lat="47.70431" lon="3.50409">
        <ele>255.3</ele>
        <time>2022-01-12T09:47:40Z</time>
      </trkpt>
      <trkpt lat="47.70431" lon="3.50406">
        <ele>255.2</ele>
        <time>2022-01-12T09:47:42Z</time>
      </trkpt>
      <trkpt lat="47.70431" lon="3.50404">
        <ele>255.2</ele>
        <time>2022-01-12T09:47:43Z</time>
      </trkpt>
      <trkpt lat="47.70431" lon="3.50401">
        <ele>255.2</ele>
        <time>2022-01-12T09:47:44Z</time>
      </trkpt>
      <trkpt lat="47.7043" lon="3.50399">
        <ele>255.2</ele>
        <time>2022-01-12T09:47:45Z</time>
      </trkpt>
      <trkpt lat="47.7043" lon="3.50397">
        <ele>255.2</ele>
        <time>2022-01-12T09:47:46Z</time>
      </trkpt>
      <trkpt lat="47.7043" lon="3.50394">
        <ele>255.2</ele>
        <time>2022-01-12T09:47:47Z</time>
      </trkpt>
      <trkpt lat="47.7043" lon="3.50392">
        <ele>255.2</ele>
        <time>2022-01-12T09:47:48Z</time>
      </trkpt>
      <trkpt lat="47.7043" lon="3.5039">
        <ele>255.2</ele>
        <time>2022-01-12T09:47:49Z</time>
      </trkpt>
      <trkpt lat="47.7043" lon="3.50386">
        <ele>255.2</ele>
        <time>2022-01-12T09:47:51Z</time>
      </trkpt>
      <trkpt lat="47.70429" lon="3.50384">
        <ele>255.2</ele>
        <time>2022-01-12T09:47:52Z</time>
      </trkpt>
      <trkpt lat="47.70429" lon="3.50382">
        <ele>255.2</ele>
        <time>2022-01-12T09:47:53Z</time>
      </trkpt>
      <trkpt lat="47.70429" lon="3.5038">
        <ele>255.1</ele>
        <time>2022-01-12T09:47:54Z</time>
      </trkpt>
      <trkpt lat="47.70429" lon="3.50378">
        <ele>255.1</ele>
        <time>2022-01-12T09:47:55Z</time>
      </trkpt>
      <trkpt lat="47.70429" lon="3.50375">
        <ele>255.1</ele>
        <time>2022-01-12T09:47:57Z</time>
      </trkpt>
      <trkpt lat="47.70428" lon="3.50373">
        <ele>255.1</ele>
        <time>2022-01-12T09:47:58Z</time>
      </trkpt>
      <trkpt lat="47.70428" lon="3.50371">
        <ele>255.1</ele>
        <time>2022-01-12T09:47:59Z</time>
      </trkpt>
      <trkpt lat="47.70427" lon="3.50368">
        <ele>255.1</ele>
        <time>2022-01-12T09:48:00Z</time>
      </trkpt>
      <trkpt lat="47.70427" lon="3.50367">
        <ele>255.1</ele>
        <time>2022-01-12T09:48:01Z</time>
      </trkpt>
      <trkpt lat="47.70427" lon="3.50366">
        <ele>255.1</ele>
        <time>2022-01-12T09:48:02Z</time>
      </trkpt>
      <trkpt lat="47.70426" lon="3.50364">
        <ele>255.1</ele>
        <time>2022-01-12T09:48:03Z</time>
      </trkpt>
      <trkpt lat="47.70426" lon="3.50362">
        <ele>255.1</ele>
        <time>2022-01-12T09:48:04Z</time>
      </trkpt>
      <trkpt lat="47.70426" lon="3.5036">
        <ele>255.1</ele>
        <time>2022-01-12T09:48:05Z</time>
      </trkpt>
      <trkpt lat="47.70426" lon="3.50358">
        <ele>255.1</ele>
        <time>2022-01-12T09:48:06Z</time>
      </trkpt>
      <trkpt lat="47.70425" lon="3.50356">
        <ele>255</ele>
        <time>2022-01-12T09:48:08Z</time>
      </trkpt>
      <trkpt lat="47.70425" lon="3.50354">
        <ele>254.9</ele>
        <time>2022-01-12T09:48:09Z</time>
      </trkpt>
      <trkpt lat="47.70425" lon="3.50352">
        <ele>254.8</ele>
        <time>2022-01-12T09:48:10Z</time>
      </trkpt>
      <trkpt lat="47.70425" lon="3.5035">
        <ele>254.7</ele>
        <time>2022-01-12T09:48:11Z</time>
      </trkpt>
      <trkpt lat="47.70424" lon="3.50348">
        <ele>254.6</ele>
        <time>2022-01-12T09:48:12Z</time>
      </trkpt>
      <trkpt lat="47.70424" lon="3.50346">
        <ele>254.5</ele>
        <time>2022-01-12T09:48:13Z</time>
      </trkpt>
      <trkpt lat="47.70424" lon="3.50343">
        <ele>254.4</ele>
        <time>2022-01-12T09:48:14Z</time>
      </trkpt>
      <trkpt lat="47.70424" lon="3.50342">
        <ele>254.3</ele>
        <time>2022-01-12T09:48:15Z</time>
      </trkpt>
      <trkpt lat="47.70423" lon="3.5034">
        <ele>254.2</ele>
        <time>2022-01-12T09:48:16Z</time>
      </trkpt>
      <trkpt lat="47.70423" lon="3.50338">
        <ele>254.1</ele>
        <time>2022-01-12T09:48:18Z</time>
      </trkpt>
      <trkpt lat="47.70422" lon="3.50335">
        <ele>254</ele>
        <time>2022-01-12T09:48:19Z</time>
      </trkpt>
      <trkpt lat="47.70422" lon="3.50334">
        <ele>253.9</ele>
        <time>2022-01-12T09:48:20Z</time>
      </trkpt>
      <trkpt lat="47.70421" lon="3.5033">
        <ele>253.7</ele>
        <time>2022-01-12T09:48:21Z</time>
      </trkpt>
      <trkpt lat="47.7042" lon="3.50329">
        <ele>253.7</ele>
        <time>2022-01-12T09:48:22Z</time>
      </trkpt>
      <trkpt lat="47.7042" lon="3.50328">
        <ele>253.6</ele>
        <time>2022-01-12T09:48:23Z</time>
      </trkpt>
      <trkpt lat="47.70419" lon="3.50325">
        <ele>253.5</ele>
        <time>2022-01-12T09:48:24Z</time>
      </trkpt>
      <trkpt lat="47.70419" lon="3.50324">
        <ele>253.4</ele>
        <time>2022-01-12T09:48:25Z</time>
      </trkpt>
      <trkpt lat="47.70418" lon="3.50323">
        <ele>253.3</ele>
        <time>2022-01-12T09:48:26Z</time>
      </trkpt>
      <trkpt lat="47.70418" lon="3.5032">
        <ele>253.2</ele>
        <time>2022-01-12T09:48:27Z</time>
      </trkpt>
      <trkpt lat="47.70417" lon="3.50318">
        <ele>253.1</ele>
        <time>2022-01-12T09:48:28Z</time>
      </trkpt>
      <trkpt lat="47.70416" lon="3.50316">
        <ele>253</ele>
        <time>2022-01-12T09:48:30Z</time>
      </trkpt>
      <trkpt lat="47.70416" lon="3.50314">
        <ele>252.9</ele>
        <time>2022-01-12T09:48:31Z</time>
      </trkpt>
      <trkpt lat="47.70415" lon="3.50311">
        <ele>252.8</ele>
        <time>2022-01-12T09:48:32Z</time>
      </trkpt>
      <trkpt lat="47.70415" lon="3.50309">
        <ele>252.7</ele>
        <time>2022-01-12T09:48:33Z</time>
      </trkpt>
      <trkpt lat="47.70415" lon="3.50307">
        <ele>252.5</ele>
        <time>2022-01-12T09:48:34Z</time>
      </trkpt>
      <trkpt lat="47.70414" lon="3.50305">
        <ele>252.5</ele>
        <time>2022-01-12T09:48:35Z</time>
      </trkpt>
      <trkpt lat="47.70414" lon="3.50302">
        <ele>252.3</ele>
        <time>2022-01-12T09:48:36Z</time>
      </trkpt>
      <trkpt lat="47.70414" lon="3.503">
        <ele>252.3</ele>
        <time>2022-01-12T09:48:37Z</time>
      </trkpt>
      <trkpt lat="47.70414" lon="3.50299">
        <ele>252.2</ele>
        <time>2022-01-12T09:48:38Z</time>
      </trkpt>
      <trkpt lat="47.70414" lon="3.50296">
        <ele>252</ele>
        <time>2022-01-12T09:48:40Z</time>
      </trkpt>
      <trkpt lat="47.70413" lon="3.50295">
        <ele>252</ele>
        <time>2022-01-12T09:48:41Z</time>
      </trkpt>
      <trkpt lat="47.70413" lon="3.50293">
        <ele>251.9</ele>
        <time>2022-01-12T09:48:42Z</time>
      </trkpt>
      <trkpt lat="47.70413" lon="3.5029">
        <ele>251.8</ele>
        <time>2022-01-12T09:48:43Z</time>
      </trkpt>
      <trkpt lat="47.70413" lon="3.50289">
        <ele>251.7</ele>
        <time>2022-01-12T09:48:44Z</time>
      </trkpt>
      <trkpt lat="47.70412" lon="3.50288">
        <ele>251.7</ele>
        <time>2022-01-12T09:48:45Z</time>
      </trkpt>
      <trkpt lat="47.70412" lon="3.50284">
        <ele>251.5</ele>
        <time>2022-01-12T09:48:47Z</time>
      </trkpt>
      <trkpt lat="47.70412" lon="3.50283">
        <ele>251.4</ele>
        <time>2022-01-12T09:48:48Z</time>
      </trkpt>
      <trkpt lat="47.70412" lon="3.50282">
        <ele>251.4</ele>
        <time>2022-01-12T09:48:49Z</time>
      </trkpt>
      <trkpt lat="47.70412" lon="3.5028">
        <ele>251.3</ele>
        <time>2022-01-12T09:48:50Z</time>
      </trkpt>
      <trkpt lat="47.70412" lon="3.50279">
        <ele>251.2</ele>
        <time>2022-01-12T09:48:51Z</time>
      </trkpt>
      <trkpt lat="47.70413" lon="3.50277">
        <ele>251.1</ele>
        <time>2022-01-12T09:48:52Z</time>
      </trkpt>
      <trkpt lat="47.70413" lon="3.50274">
        <ele>251.1</ele>
        <time>2022-01-12T09:48:53Z</time>
      </trkpt>
      <trkpt lat="47.70413" lon="3.50272">
        <ele>251</ele>
        <time>2022-01-12T09:48:55Z</time>
      </trkpt>
      <trkpt lat="47.70413" lon="3.5027">
        <ele>250.9</ele>
        <time>2022-01-12T09:48:56Z</time>
      </trkpt>
      <trkpt lat="47.70413" lon="3.50268">
        <ele>250.7</ele>
        <time>2022-01-12T09:48:57Z</time>
      </trkpt>
      <trkpt lat="47.70412" lon="3.50266">
        <ele>250.7</ele>
        <time>2022-01-12T09:48:58Z</time>
      </trkpt>
      <trkpt lat="47.70412" lon="3.50264">
        <ele>250.6</ele>
        <time>2022-01-12T09:48:59Z</time>
      </trkpt>
      <trkpt lat="47.70412" lon="3.50261">
        <ele>250.4</ele>
        <time>2022-01-12T09:49:00Z</time>
      </trkpt>
      <trkpt lat="47.70411" lon="3.5026">
        <ele>250.4</ele>
        <time>2022-01-12T09:49:01Z</time>
      </trkpt>
      <trkpt lat="47.70411" lon="3.50258">
        <ele>250.3</ele>
        <time>2022-01-12T09:49:03Z</time>
      </trkpt>
      <trkpt lat="47.7041" lon="3.50255">
        <ele>250.2</ele>
        <time>2022-01-12T09:49:04Z</time>
      </trkpt>
      <trkpt lat="47.7041" lon="3.50253">
        <ele>250.1</ele>
        <time>2022-01-12T09:49:05Z</time>
      </trkpt>
      <trkpt lat="47.7041" lon="3.50251">
        <ele>250</ele>
        <time>2022-01-12T09:49:06Z</time>
      </trkpt>
      <trkpt lat="47.7041" lon="3.50249">
        <ele>249.9</ele>
        <time>2022-01-12T09:49:07Z</time>
      </trkpt>
      <trkpt lat="47.7041" lon="3.50247">
        <ele>249.8</ele>
        <time>2022-01-12T09:49:08Z</time>
      </trkpt>
      <trkpt lat="47.7041" lon="3.50245">
        <ele>249.7</ele>
        <time>2022-01-12T09:49:09Z</time>
      </trkpt>
      <trkpt lat="47.7041" lon="3.50243">
        <ele>249.6</ele>
        <time>2022-01-12T09:49:10Z</time>
      </trkpt>
      <trkpt lat="47.70409" lon="3.50241">
        <ele>249.5</ele>
        <time>2022-01-12T09:49:11Z</time>
      </trkpt>
      <trkpt lat="47.70409" lon="3.50239">
        <ele>249.4</ele>
        <time>2022-01-12T09:49:12Z</time>
      </trkpt>
      <trkpt lat="47.70409" lon="3.50237">
        <ele>249.3</ele>
        <time>2022-01-12T09:49:14Z</time>
      </trkpt>
      <trkpt lat="47.70408" lon="3.50235">
        <ele>249.2</ele>
        <time>2022-01-12T09:49:15Z</time>
      </trkpt>
      <trkpt lat="47.70408" lon="3.50232">
        <ele>249</ele>
        <time>2022-01-12T09:49:16Z</time>
      </trkpt>
      <trkpt lat="47.70407" lon="3.5023">
        <ele>249</ele>
        <time>2022-01-12T09:49:17Z</time>
      </trkpt>
      <trkpt lat="47.70406" lon="3.50227">
        <ele>248.8</ele>
        <time>2022-01-12T09:49:19Z</time>
      </trkpt>
      <trkpt lat="47.70406" lon="3.50226">
        <ele>248.8</ele>
        <time>2022-01-12T09:49:20Z</time>
      </trkpt>
      <trkpt lat="47.70406" lon="3.50225">
        <ele>248.7</ele>
        <time>2022-01-12T09:49:21Z</time>
      </trkpt>
      <trkpt lat="47.70406" lon="3.50223">
        <ele>248.6</ele>
        <time>2022-01-12T09:49:22Z</time>
      </trkpt>
      <trkpt lat="47.70406" lon="3.50221">
        <ele>248.5</ele>
        <time>2022-01-12T09:49:23Z</time>
      </trkpt>
      <trkpt lat="47.70406" lon="3.50219">
        <ele>248.4</ele>
        <time>2022-01-12T09:49:24Z</time>
      </trkpt>
      <trkpt lat="47.70406" lon="3.50217">
        <ele>248.3</ele>
        <time>2022-01-12T09:49:25Z</time>
      </trkpt>
      <trkpt lat="47.70405" lon="3.50215">
        <ele>248.2</ele>
        <time>2022-01-12T09:49:27Z</time>
      </trkpt>
      <trkpt lat="47.70405" lon="3.50213">
        <ele>248.1</ele>
        <time>2022-01-12T09:49:28Z</time>
      </trkpt>
      <trkpt lat="47.70405" lon="3.5021">
        <ele>248</ele>
        <time>2022-01-12T09:49:29Z</time>
      </trkpt>
      <trkpt lat="47.70404" lon="3.50208">
        <ele>247.9</ele>
        <time>2022-01-12T09:49:30Z</time>
      </trkpt>
      <trkpt lat="47.70404" lon="3.50205">
        <ele>247.8</ele>
        <time>2022-01-12T09:49:31Z</time>
      </trkpt>
      <trkpt lat="47.70404" lon="3.50203">
        <ele>247.7</ele>
        <time>2022-01-12T09:49:33Z</time>
      </trkpt>
      <trkpt lat="47.70404" lon="3.50201">
        <ele>247.6</ele>
        <time>2022-01-12T09:49:34Z</time>
      </trkpt>
      <trkpt lat="47.70404" lon="3.50198">
        <ele>247.5</ele>
        <time>2022-01-12T09:49:35Z</time>
      </trkpt>
      <trkpt lat="47.70405" lon="3.50197">
        <ele>247.4</ele>
        <time>2022-01-12T09:49:36Z</time>
      </trkpt>
      <trkpt lat="47.70405" lon="3.50196">
        <ele>247.3</ele>
        <time>2022-01-12T09:49:37Z</time>
      </trkpt>
      <trkpt lat="47.70405" lon="3.50194">
        <ele>247.3</ele>
        <time>2022-01-12T09:49:38Z</time>
      </trkpt>
      <trkpt lat="47.70405" lon="3.50192">
        <ele>247.2</ele>
        <time>2022-01-12T09:49:39Z</time>
      </trkpt>
      <trkpt lat="47.70404" lon="3.50188">
        <ele>247</ele>
        <time>2022-01-12T09:49:41Z</time>
      </trkpt>
      <trkpt lat="47.70404" lon="3.50185">
        <ele>246.9</ele>
        <time>2022-01-12T09:49:42Z</time>
      </trkpt>
      <trkpt lat="47.70404" lon="3.50184">
        <ele>246.8</ele>
        <time>2022-01-12T09:49:43Z</time>
      </trkpt>
      <trkpt lat="47.70403" lon="3.50183">
        <ele>246.7</ele>
        <time>2022-01-12T09:49:44Z</time>
      </trkpt>
      <trkpt lat="47.70403" lon="3.50181">
        <ele>246.6</ele>
        <time>2022-01-12T09:49:45Z</time>
      </trkpt>
      <trkpt lat="47.70402" lon="3.50179">
        <ele>246.5</ele>
        <time>2022-01-12T09:49:46Z</time>
      </trkpt>
      <trkpt lat="47.70402" lon="3.50178">
        <ele>246.5</ele>
        <time>2022-01-12T09:49:47Z</time>
      </trkpt>
      <trkpt lat="47.70401" lon="3.50175">
        <ele>246.4</ele>
        <time>2022-01-12T09:49:49Z</time>
      </trkpt>
      <trkpt lat="47.70401" lon="3.50174">
        <ele>246.3</ele>
        <time>2022-01-12T09:49:50Z</time>
      </trkpt>
      <trkpt lat="47.704" lon="3.50173">
        <ele>246.2</ele>
        <time>2022-01-12T09:49:51Z</time>
      </trkpt>
      <trkpt lat="47.704" lon="3.50172">
        <ele>246.2</ele>
        <time>2022-01-12T09:49:52Z</time>
      </trkpt>
      <trkpt lat="47.70399" lon="3.5017">
        <ele>246.1</ele>
        <time>2022-01-12T09:49:53Z</time>
      </trkpt>
      <trkpt lat="47.70399" lon="3.50168">
        <ele>246</ele>
        <time>2022-01-12T09:49:54Z</time>
      </trkpt>
      <trkpt lat="47.70398" lon="3.50166">
        <ele>245.9</ele>
        <time>2022-01-12T09:49:55Z</time>
      </trkpt>
      <trkpt lat="47.70398" lon="3.50164">
        <ele>245.8</ele>
        <time>2022-01-12T09:49:56Z</time>
      </trkpt>
      <trkpt lat="47.70398" lon="3.50162">
        <ele>245.7</ele>
        <time>2022-01-12T09:49:58Z</time>
      </trkpt>
      <trkpt lat="47.70398" lon="3.5016">
        <ele>245.6</ele>
        <time>2022-01-12T09:49:59Z</time>
      </trkpt>
      <trkpt lat="47.70398" lon="3.50158">
        <ele>245.5</ele>
        <time>2022-01-12T09:50:00Z</time>
      </trkpt>
      <trkpt lat="47.70397" lon="3.50155">
        <ele>245.4</ele>
        <time>2022-01-12T09:50:01Z</time>
      </trkpt>
      <trkpt lat="47.70397" lon="3.50153">
        <ele>245.3</ele>
        <time>2022-01-12T09:50:02Z</time>
      </trkpt>
      <trkpt lat="47.70397" lon="3.5015">
        <ele>245.2</ele>
        <time>2022-01-12T09:50:03Z</time>
      </trkpt>
      <trkpt lat="47.70397" lon="3.50149">
        <ele>245.1</ele>
        <time>2022-01-12T09:50:04Z</time>
      </trkpt>
      <trkpt lat="47.70396" lon="3.50148">
        <ele>245</ele>
        <time>2022-01-12T09:50:05Z</time>
      </trkpt>
      <trkpt lat="47.70396" lon="3.50146">
        <ele>244.9</ele>
        <time>2022-01-12T09:50:06Z</time>
      </trkpt>
      <trkpt lat="47.70395" lon="3.50144">
        <ele>244.9</ele>
        <time>2022-01-12T09:50:07Z</time>
      </trkpt>
      <trkpt lat="47.70395" lon="3.50141">
        <ele>244.7</ele>
        <time>2022-01-12T09:50:08Z</time>
      </trkpt>
      <trkpt lat="47.70395" lon="3.5014">
        <ele>244.7</ele>
        <time>2022-01-12T09:50:09Z</time>
      </trkpt>
      <trkpt lat="47.70395" lon="3.50138">
        <ele>244.6</ele>
        <time>2022-01-12T09:50:10Z</time>
      </trkpt>
      <trkpt lat="47.70395" lon="3.50135">
        <ele>244.5</ele>
        <time>2022-01-12T09:50:11Z</time>
      </trkpt>
      <trkpt lat="47.70394" lon="3.50134">
        <ele>244.4</ele>
        <time>2022-01-12T09:50:13Z</time>
      </trkpt>
      <trkpt lat="47.70394" lon="3.50133">
        <ele>244.3</ele>
        <time>2022-01-12T09:50:14Z</time>
      </trkpt>
      <trkpt lat="47.70394" lon="3.50129">
        <ele>244.2</ele>
        <time>2022-01-12T09:50:15Z</time>
      </trkpt>
      <trkpt lat="47.70394" lon="3.50128">
        <ele>244.1</ele>
        <time>2022-01-12T09:50:16Z</time>
      </trkpt>
      <trkpt lat="47.70394" lon="3.50127">
        <ele>244.1</ele>
        <time>2022-01-12T09:50:17Z</time>
      </trkpt>
      <trkpt lat="47.70393" lon="3.50123">
        <ele>243.9</ele>
        <time>2022-01-12T09:50:18Z</time>
      </trkpt>
      <trkpt lat="47.70393" lon="3.50122">
        <ele>243.8</ele>
        <time>2022-01-12T09:50:19Z</time>
      </trkpt>
      <trkpt lat="47.70393" lon="3.50121">
        <ele>243.8</ele>
        <time>2022-01-12T09:50:20Z</time>
      </trkpt>
      <trkpt lat="47.70393" lon="3.50119">
        <ele>243.7</ele>
        <time>2022-01-12T09:50:21Z</time>
      </trkpt>
      <trkpt lat="47.70393" lon="3.50117">
        <ele>243.6</ele>
        <time>2022-01-12T09:50:22Z</time>
      </trkpt>
      <trkpt lat="47.70393" lon="3.50115">
        <ele>243.5</ele>
        <time>2022-01-12T09:50:24Z</time>
      </trkpt>
      <trkpt lat="47.70392" lon="3.50112">
        <ele>243.4</ele>
        <time>2022-01-12T09:50:25Z</time>
      </trkpt>
      <trkpt lat="47.70392" lon="3.50111">
        <ele>243.3</ele>
        <time>2022-01-12T09:50:26Z</time>
      </trkpt>
      <trkpt lat="47.70392" lon="3.50109">
        <ele>243.3</ele>
        <time>2022-01-12T09:50:27Z</time>
      </trkpt>
      <trkpt lat="47.70392" lon="3.50106">
        <ele>243.1</ele>
        <time>2022-01-12T09:50:28Z</time>
      </trkpt>
      <trkpt lat="47.70392" lon="3.50105">
        <ele>243</ele>
        <time>2022-01-12T09:50:29Z</time>
      </trkpt>
      <trkpt lat="47.70391" lon="3.50104">
        <ele>243</ele>
        <time>2022-01-12T09:50:30Z</time>
      </trkpt>
      <trkpt lat="47.70391" lon="3.50102">
        <ele>242.9</ele>
        <time>2022-01-12T09:50:31Z</time>
      </trkpt>
      <trkpt lat="47.7039" lon="3.501">
        <ele>242.8</ele>
        <time>2022-01-12T09:50:32Z</time>
      </trkpt>
      <trkpt lat="47.7039" lon="3.50097">
        <ele>242.6</ele>
        <time>2022-01-12T09:50:33Z</time>
      </trkpt>
      <trkpt lat="47.70389" lon="3.50095">
        <ele>242.6</ele>
        <time>2022-01-12T09:50:34Z</time>
      </trkpt>
      <trkpt lat="47.70389" lon="3.50094">
        <ele>242.5</ele>
        <time>2022-01-12T09:50:35Z</time>
      </trkpt>
      <trkpt lat="47.70389" lon="3.50092">
        <ele>242.4</ele>
        <time>2022-01-12T09:50:37Z</time>
      </trkpt>
      <trkpt lat="47.70389" lon="3.5009">
        <ele>242.3</ele>
        <time>2022-01-12T09:50:38Z</time>
      </trkpt>
      <trkpt lat="47.70389" lon="3.50088">
        <ele>242.2</ele>
        <time>2022-01-12T09:50:39Z</time>
      </trkpt>
      <trkpt lat="47.70389" lon="3.50086">
        <ele>242.1</ele>
        <time>2022-01-12T09:50:40Z</time>
      </trkpt>
      <trkpt lat="47.7039" lon="3.50084">
        <ele>242.1</ele>
        <time>2022-01-12T09:50:41Z</time>
      </trkpt>
      <trkpt lat="47.7039" lon="3.50082">
        <ele>242</ele>
        <time>2022-01-12T09:50:42Z</time>
      </trkpt>
      <trkpt lat="47.7039" lon="3.5008">
        <ele>241.9</ele>
        <time>2022-01-12T09:50:43Z</time>
      </trkpt>
      <trkpt lat="47.7039" lon="3.50077">
        <ele>241.7</ele>
        <time>2022-01-12T09:50:44Z</time>
      </trkpt>
      <trkpt lat="47.70391" lon="3.50076">
        <ele>241.7</ele>
        <time>2022-01-12T09:50:45Z</time>
      </trkpt>
      <trkpt lat="47.70391" lon="3.50075">
        <ele>241.6</ele>
        <time>2022-01-12T09:50:46Z</time>
      </trkpt>
      <trkpt lat="47.70391" lon="3.50072">
        <ele>241.5</ele>
        <time>2022-01-12T09:50:48Z</time>
      </trkpt>
      <trkpt lat="47.70391" lon="3.50071">
        <ele>241.4</ele>
        <time>2022-01-12T09:50:49Z</time>
      </trkpt>
      <trkpt lat="47.70391" lon="3.50069">
        <ele>241.4</ele>
        <time>2022-01-12T09:50:50Z</time>
      </trkpt>
      <trkpt lat="47.70391" lon="3.50068">
        <ele>241.3</ele>
        <time>2022-01-12T09:50:51Z</time>
      </trkpt>
      <trkpt lat="47.70391" lon="3.50066">
        <ele>241.2</ele>
        <time>2022-01-12T09:50:52Z</time>
      </trkpt>
      <trkpt lat="47.70391" lon="3.50065">
        <ele>241.2</ele>
        <time>2022-01-12T09:50:53Z</time>
      </trkpt>
      <trkpt lat="47.70391" lon="3.50063">
        <ele>241.1</ele>
        <time>2022-01-12T09:50:54Z</time>
      </trkpt>
      <trkpt lat="47.70391" lon="3.50061">
        <ele>241</ele>
        <time>2022-01-12T09:50:55Z</time>
      </trkpt>
      <trkpt lat="47.70391" lon="3.50059">
        <ele>240.9</ele>
        <time>2022-01-12T09:50:56Z</time>
      </trkpt>
      <trkpt lat="47.70391" lon="3.50058">
        <ele>240.9</ele>
        <time>2022-01-12T09:50:57Z</time>
      </trkpt>
      <trkpt lat="47.70391" lon="3.50056">
        <ele>240.8</ele>
        <time>2022-01-12T09:50:58Z</time>
      </trkpt>
      <trkpt lat="47.70391" lon="3.50055">
        <ele>240.7</ele>
        <time>2022-01-12T09:51:00Z</time>
      </trkpt>
      <trkpt lat="47.70391" lon="3.50053">
        <ele>240.6</ele>
        <time>2022-01-12T09:51:01Z</time>
      </trkpt>
      <trkpt lat="47.7039" lon="3.50051">
        <ele>240.5</ele>
        <time>2022-01-12T09:51:02Z</time>
      </trkpt>
      <trkpt lat="47.7039" lon="3.5005">
        <ele>240.5</ele>
        <time>2022-01-12T09:51:03Z</time>
      </trkpt>
      <trkpt lat="47.7039" lon="3.50047">
        <ele>240.3</ele>
        <time>2022-01-12T09:51:04Z</time>
      </trkpt>
      <trkpt lat="47.7039" lon="3.50045">
        <ele>240.3</ele>
        <time>2022-01-12T09:51:05Z</time>
      </trkpt>
      <trkpt lat="47.7039" lon="3.50044">
        <ele>240.2</ele>
        <time>2022-01-12T09:51:06Z</time>
      </trkpt>
      <trkpt lat="47.7039" lon="3.50042">
        <ele>240.1</ele>
        <time>2022-01-12T09:51:07Z</time>
      </trkpt>
      <trkpt lat="47.7039" lon="3.5004">
        <ele>240</ele>
        <time>2022-01-12T09:51:08Z</time>
      </trkpt>
      <trkpt lat="47.70389" lon="3.50037">
        <ele>239.9</ele>
        <time>2022-01-12T09:51:09Z</time>
      </trkpt>
      <trkpt lat="47.70389" lon="3.50035">
        <ele>239.8</ele>
        <time>2022-01-12T09:51:10Z</time>
      </trkpt>
      <trkpt lat="47.70389" lon="3.50034">
        <ele>239.7</ele>
        <time>2022-01-12T09:51:11Z</time>
      </trkpt>
      <trkpt lat="47.70388" lon="3.50032">
        <ele>239.6</ele>
        <time>2022-01-12T09:51:13Z</time>
      </trkpt>
      <trkpt lat="47.70388" lon="3.5003">
        <ele>239.5</ele>
        <time>2022-01-12T09:51:14Z</time>
      </trkpt>
      <trkpt lat="47.70388" lon="3.50027">
        <ele>239.4</ele>
        <time>2022-01-12T09:51:15Z</time>
      </trkpt>
      <trkpt lat="47.70388" lon="3.50025">
        <ele>239.3</ele>
        <time>2022-01-12T09:51:16Z</time>
      </trkpt>
      <trkpt lat="47.70387" lon="3.50023">
        <ele>239.2</ele>
        <time>2022-01-12T09:51:17Z</time>
      </trkpt>
      <trkpt lat="47.70387" lon="3.50021">
        <ele>239.1</ele>
        <time>2022-01-12T09:51:18Z</time>
      </trkpt>
      <trkpt lat="47.70387" lon="3.50019">
        <ele>239</ele>
        <time>2022-01-12T09:51:19Z</time>
      </trkpt>
      <trkpt lat="47.70386" lon="3.50016">
        <ele>238.9</ele>
        <time>2022-01-12T09:51:20Z</time>
      </trkpt>
      <trkpt lat="47.70386" lon="3.50014">
        <ele>238.8</ele>
        <time>2022-01-12T09:51:21Z</time>
      </trkpt>
      <trkpt lat="47.70386" lon="3.50012">
        <ele>238.7</ele>
        <time>2022-01-12T09:51:22Z</time>
      </trkpt>
      <trkpt lat="47.70386" lon="3.5001">
        <ele>238.6</ele>
        <time>2022-01-12T09:51:24Z</time>
      </trkpt>
      <trkpt lat="47.70386" lon="3.50008">
        <ele>238.5</ele>
        <time>2022-01-12T09:51:25Z</time>
      </trkpt>
      <trkpt lat="47.70385" lon="3.50006">
        <ele>238.4</ele>
        <time>2022-01-12T09:51:26Z</time>
      </trkpt>
      <trkpt lat="47.70385" lon="3.50004">
        <ele>238.3</ele>
        <time>2022-01-12T09:51:27Z</time>
      </trkpt>
      <trkpt lat="47.70385" lon="3.50002">
        <ele>238.2</ele>
        <time>2022-01-12T09:51:28Z</time>
      </trkpt>
      <trkpt lat="47.70384" lon="3.5">
        <ele>238.1</ele>
        <time>2022-01-12T09:51:29Z</time>
      </trkpt>
      <trkpt lat="47.70384" lon="3.49998">
        <ele>238</ele>
        <time>2022-01-12T09:51:30Z</time>
      </trkpt>
      <trkpt lat="47.70384" lon="3.49996">
        <ele>238</ele>
        <time>2022-01-12T09:51:31Z</time>
      </trkpt>
      <trkpt lat="47.70383" lon="3.49994">
        <ele>237.9</ele>
        <time>2022-01-12T09:51:33Z</time>
      </trkpt>
      <trkpt lat="47.70383" lon="3.49991">
        <ele>237.7</ele>
        <time>2022-01-12T09:51:34Z</time>
      </trkpt>
      <trkpt lat="47.70383" lon="3.4999">
        <ele>237.7</ele>
        <time>2022-01-12T09:51:35Z</time>
      </trkpt>
      <trkpt lat="47.70382" lon="3.49989">
        <ele>237.6</ele>
        <time>2022-01-12T09:51:36Z</time>
      </trkpt>
      <trkpt lat="47.70382" lon="3.49987">
        <ele>237.5</ele>
        <time>2022-01-12T09:51:37Z</time>
      </trkpt>
      <trkpt lat="47.70382" lon="3.49986">
        <ele>237.5</ele>
        <time>2022-01-12T09:51:38Z</time>
      </trkpt>
      <trkpt lat="47.70382" lon="3.49984">
        <ele>237.4</ele>
        <time>2022-01-12T09:51:39Z</time>
      </trkpt>
      <trkpt lat="47.70382" lon="3.49982">
        <ele>237.3</ele>
        <time>2022-01-12T09:51:40Z</time>
      </trkpt>
      <trkpt lat="47.70382" lon="3.4998">
        <ele>237.2</ele>
        <time>2022-01-12T09:51:42Z</time>
      </trkpt>
      <trkpt lat="47.70382" lon="3.49977">
        <ele>237.1</ele>
        <time>2022-01-12T09:51:43Z</time>
      </trkpt>
      <trkpt lat="47.70382" lon="3.49975">
        <ele>237</ele>
        <time>2022-01-12T09:51:44Z</time>
      </trkpt>
      <trkpt lat="47.70381" lon="3.49974">
        <ele>236.9</ele>
        <time>2022-01-12T09:51:45Z</time>
      </trkpt>
      <trkpt lat="47.7038" lon="3.49974">
        <ele>236.9</ele>
        <time>2022-01-12T09:51:46Z</time>
      </trkpt>
      <trkpt lat="47.7038" lon="3.49976">
        <ele>236.8</ele>
        <time>2022-01-12T09:51:47Z</time>
      </trkpt>
      <trkpt lat="47.7038" lon="3.49976">
        <ele>236.8</ele>
        <time>2022-01-12T09:51:48Z</time>
      </trkpt>
      <trkpt lat="47.7038" lon="3.49976">
        <ele>236.7</ele>
        <time>2022-01-12T09:51:49Z</time>
      </trkpt>
      <trkpt lat="47.7038" lon="3.49975">
        <ele>236.7</ele>
        <time>2022-01-12T09:51:50Z</time>
      </trkpt>
      <trkpt lat="47.70381" lon="3.49975">
        <ele>236.7</ele>
        <time>2022-01-12T09:51:51Z</time>
      </trkpt>
      <trkpt lat="47.70381" lon="3.49975">
        <ele>236.6</ele>
        <time>2022-01-12T09:51:52Z</time>
      </trkpt>
      <trkpt lat="47.70382" lon="3.49975">
        <ele>236.6</ele>
        <time>2022-01-12T09:51:53Z</time>
      </trkpt>
      <trkpt lat="47.70382" lon="3.49975">
        <ele>236.6</ele>
        <time>2022-01-12T09:51:54Z</time>
      </trkpt>
      <trkpt lat="47.70382" lon="3.49975">
        <ele>236.6</ele>
        <time>2022-01-12T09:51:55Z</time>
      </trkpt>
      <trkpt lat="47.70383" lon="3.49975">
        <ele>236.5</ele>
        <time>2022-01-12T09:51:56Z</time>
      </trkpt>
      <trkpt lat="47.70383" lon="3.49976">
        <ele>236.5</ele>
        <time>2022-01-12T09:51:57Z</time>
      </trkpt>
      <trkpt lat="47.70383" lon="3.49976">
        <ele>236.5</ele>
        <time>2022-01-12T09:51:58Z</time>
      </trkpt>
      <trkpt lat="47.70384" lon="3.49976">
        <ele>236.5</ele>
        <time>2022-01-12T09:51:59Z</time>
      </trkpt>
      <trkpt lat="47.70384" lon="3.49977">
        <ele>236.4</ele>
        <time>2022-01-12T09:52:00Z</time>
      </trkpt>
      <trkpt lat="47.70384" lon="3.49977">
        <ele>236.4</ele>
        <time>2022-01-12T09:52:01Z</time>
      </trkpt>
      <trkpt lat="47.70385" lon="3.49977">
        <ele>236.4</ele>
        <time>2022-01-12T09:52:02Z</time>
      </trkpt>
      <trkpt lat="47.70385" lon="3.49977">
        <ele>236.4</ele>
        <time>2022-01-12T09:52:03Z</time>
      </trkpt>
      <trkpt lat="47.70385" lon="3.49978">
        <ele>236.3</ele>
        <time>2022-01-12T09:52:04Z</time>
      </trkpt>
      <trkpt lat="47.70386" lon="3.49979">
        <ele>236.3</ele>
        <time>2022-01-12T09:52:05Z</time>
      </trkpt>
      <trkpt lat="47.70386" lon="3.49979">
        <ele>236.2</ele>
        <time>2022-01-12T09:52:06Z</time>
      </trkpt>
      <trkpt lat="47.70387" lon="3.4998">
        <ele>236.2</ele>
        <time>2022-01-12T09:52:07Z</time>
      </trkpt>
      <trkpt lat="47.70387" lon="3.4998">
        <ele>236.2</ele>
        <time>2022-01-12T09:52:08Z</time>
      </trkpt>
      <trkpt lat="47.70387" lon="3.4998">
        <ele>236.2</ele>
        <time>2022-01-12T09:52:09Z</time>
      </trkpt>
      <trkpt lat="47.70387" lon="3.49979">
        <ele>236.1</ele>
        <time>2022-01-12T09:52:10Z</time>
      </trkpt>
      <trkpt lat="47.70387" lon="3.49978">
        <ele>236.1</ele>
        <time>2022-01-12T09:52:11Z</time>
      </trkpt>
      <trkpt lat="47.70387" lon="3.49978">
        <ele>236.1</ele>
        <time>2022-01-12T09:52:12Z</time>
      </trkpt>
      <trkpt lat="47.70387" lon="3.49977">
        <ele>236.1</ele>
        <time>2022-01-12T09:52:13Z</time>
      </trkpt>
      <trkpt lat="47.70387" lon="3.49977">
        <ele>236</ele>
        <time>2022-01-12T09:52:14Z</time>
      </trkpt>
      <trkpt lat="47.70387" lon="3.49976">
        <ele>236</ele>
        <time>2022-01-12T09:52:15Z</time>
      </trkpt>
      <trkpt lat="47.70386" lon="3.49976">
        <ele>236</ele>
        <time>2022-01-12T09:52:16Z</time>
      </trkpt>
      <trkpt lat="47.70387" lon="3.49976">
        <ele>236</ele>
        <time>2022-01-12T09:52:17Z</time>
      </trkpt>
      <trkpt lat="47.70387" lon="3.49976">
        <ele>236</ele>
        <time>2022-01-12T09:52:18Z</time>
      </trkpt>
      <trkpt lat="47.70387" lon="3.49975">
        <ele>236</ele>
        <time>2022-01-12T09:52:19Z</time>
      </trkpt>
      <trkpt lat="47.70387" lon="3.49975">
        <ele>235.9</ele>
        <time>2022-01-12T09:52:20Z</time>
      </trkpt>
      <trkpt lat="47.70388" lon="3.49975">
        <ele>235.9</ele>
        <time>2022-01-12T09:52:21Z</time>
      </trkpt>
      <trkpt lat="47.70388" lon="3.49975">
        <ele>235.9</ele>
        <time>2022-01-12T09:52:22Z</time>
      </trkpt>
      <trkpt lat="47.70388" lon="3.49974">
        <ele>235.8</ele>
        <time>2022-01-12T09:52:23Z</time>
      </trkpt>
      <trkpt lat="47.70388" lon="3.49974">
        <ele>235.8</ele>
        <time>2022-01-12T09:52:24Z</time>
      </trkpt>
      <trkpt lat="47.70388" lon="3.49973">
        <ele>235.8</ele>
        <time>2022-01-12T09:52:25Z</time>
      </trkpt>
      <trkpt lat="47.70389" lon="3.49973">
        <ele>235.8</ele>
        <time>2022-01-12T09:52:26Z</time>
      </trkpt>
      <trkpt lat="47.70389" lon="3.49973">
        <ele>235.8</ele>
        <time>2022-01-12T09:52:27Z</time>
      </trkpt>
      <trkpt lat="47.70389" lon="3.49973">
        <ele>235.8</ele>
        <time>2022-01-12T09:52:28Z</time>
      </trkpt>
      <trkpt lat="47.70389" lon="3.49972">
        <ele>235.7</ele>
        <time>2022-01-12T09:52:29Z</time>
      </trkpt>
      <trkpt lat="47.70389" lon="3.49972">
        <ele>235.7</ele>
        <time>2022-01-12T09:52:30Z</time>
      </trkpt>
      <trkpt lat="47.70389" lon="3.4997">
        <ele>235.6</ele>
        <time>2022-01-12T09:52:31Z</time>
      </trkpt>
      <trkpt lat="47.70388" lon="3.49968">
        <ele>235.5</ele>
        <time>2022-01-12T09:52:32Z</time>
      </trkpt>
      <trkpt lat="47.70387" lon="3.49967">
        <ele>235.4</ele>
        <time>2022-01-12T09:52:33Z</time>
      </trkpt>
      <trkpt lat="47.70386" lon="3.49964">
        <ele>235.3</ele>
        <time>2022-01-12T09:52:34Z</time>
      </trkpt>
      <trkpt lat="47.70385" lon="3.49962">
        <ele>235.2</ele>
        <time>2022-01-12T09:52:35Z</time>
      </trkpt>
      <trkpt lat="47.70385" lon="3.49961">
        <ele>235.1</ele>
        <time>2022-01-12T09:52:36Z</time>
      </trkpt>
      <trkpt lat="47.70384" lon="3.49959">
        <ele>235</ele>
        <time>2022-01-12T09:52:38Z</time>
      </trkpt>
      <trkpt lat="47.70383" lon="3.49956">
        <ele>234.9</ele>
        <time>2022-01-12T09:52:39Z</time>
      </trkpt>
      <trkpt lat="47.70382" lon="3.49955">
        <ele>234.8</ele>
        <time>2022-01-12T09:52:40Z</time>
      </trkpt>
      <trkpt lat="47.70382" lon="3.49953">
        <ele>234.7</ele>
        <time>2022-01-12T09:52:41Z</time>
      </trkpt>
      <trkpt lat="47.70381" lon="3.49951">
        <ele>234.6</ele>
        <time>2022-01-12T09:52:42Z</time>
      </trkpt>
      <trkpt lat="47.70381" lon="3.49949">
        <ele>234.5</ele>
        <time>2022-01-12T09:52:43Z</time>
      </trkpt>
      <trkpt lat="47.7038" lon="3.49947">
        <ele>234.4</ele>
        <time>2022-01-12T09:52:44Z</time>
      </trkpt>
      <trkpt lat="47.7038" lon="3.49944">
        <ele>234.3</ele>
        <time>2022-01-12T09:52:45Z</time>
      </trkpt>
      <trkpt lat="47.7038" lon="3.49942">
        <ele>234.2</ele>
        <time>2022-01-12T09:52:46Z</time>
      </trkpt>
      <trkpt lat="47.7038" lon="3.4994">
        <ele>234.1</ele>
        <time>2022-01-12T09:52:47Z</time>
      </trkpt>
      <trkpt lat="47.7038" lon="3.49937">
        <ele>233.9</ele>
        <time>2022-01-12T09:52:48Z</time>
      </trkpt>
      <trkpt lat="47.7038" lon="3.49936">
        <ele>233.9</ele>
        <time>2022-01-12T09:52:49Z</time>
      </trkpt>
      <trkpt lat="47.7038" lon="3.49935">
        <ele>233.8</ele>
        <time>2022-01-12T09:52:50Z</time>
      </trkpt>
      <trkpt lat="47.70379" lon="3.4993">
        <ele>233.6</ele>
        <time>2022-01-12T09:52:52Z</time>
      </trkpt>
      <trkpt lat="47.70379" lon="3.49929">
        <ele>233.6</ele>
        <time>2022-01-12T09:52:53Z</time>
      </trkpt>
      <trkpt lat="47.70379" lon="3.49927">
        <ele>233.5</ele>
        <time>2022-01-12T09:52:54Z</time>
      </trkpt>
      <trkpt lat="47.70379" lon="3.49926">
        <ele>233.4</ele>
        <time>2022-01-12T09:52:55Z</time>
      </trkpt>
      <trkpt lat="47.70379" lon="3.49924">
        <ele>233.4</ele>
        <time>2022-01-12T09:52:56Z</time>
      </trkpt>
      <trkpt lat="47.70379" lon="3.49922">
        <ele>233.3</ele>
        <time>2022-01-12T09:52:57Z</time>
      </trkpt>
      <trkpt lat="47.70378" lon="3.49921">
        <ele>233.2</ele>
        <time>2022-01-12T09:52:58Z</time>
      </trkpt>
      <trkpt lat="47.70378" lon="3.4992">
        <ele>233.1</ele>
        <time>2022-01-12T09:52:59Z</time>
      </trkpt>
      <trkpt lat="47.70377" lon="3.49917">
        <ele>233</ele>
        <time>2022-01-12T09:53:00Z</time>
      </trkpt>
      <trkpt lat="47.70377" lon="3.49916">
        <ele>232.9</ele>
        <time>2022-01-12T09:53:02Z</time>
      </trkpt>
      <trkpt lat="47.70377" lon="3.49915">
        <ele>232.9</ele>
        <time>2022-01-12T09:53:03Z</time>
      </trkpt>
      <trkpt lat="47.70377" lon="3.49914">
        <ele>232.8</ele>
        <time>2022-01-12T09:53:04Z</time>
      </trkpt>
      <trkpt lat="47.70377" lon="3.49912">
        <ele>232.7</ele>
        <time>2022-01-12T09:53:05Z</time>
      </trkpt>
      <trkpt lat="47.70377" lon="3.49909">
        <ele>232.6</ele>
        <time>2022-01-12T09:53:06Z</time>
      </trkpt>
      <trkpt lat="47.70376" lon="3.49907">
        <ele>232.5</ele>
        <time>2022-01-12T09:53:07Z</time>
      </trkpt>
      <trkpt lat="47.70376" lon="3.49905">
        <ele>232.4</ele>
        <time>2022-01-12T09:53:08Z</time>
      </trkpt>
      <trkpt lat="47.70376" lon="3.49903">
        <ele>232.3</ele>
        <time>2022-01-12T09:53:09Z</time>
      </trkpt>
      <trkpt lat="47.70376" lon="3.49901">
        <ele>232.2</ele>
        <time>2022-01-12T09:53:11Z</time>
      </trkpt>
      <trkpt lat="47.70376" lon="3.49898">
        <ele>232.1</ele>
        <time>2022-01-12T09:53:12Z</time>
      </trkpt>
      <trkpt lat="47.70376" lon="3.49896">
        <ele>232</ele>
        <time>2022-01-12T09:53:13Z</time>
      </trkpt>
      <trkpt lat="47.70375" lon="3.49893">
        <ele>231.9</ele>
        <time>2022-01-12T09:53:14Z</time>
      </trkpt>
      <trkpt lat="47.70375" lon="3.4989">
        <ele>231.8</ele>
        <time>2022-01-12T09:53:15Z</time>
      </trkpt>
      <trkpt lat="47.70375" lon="3.49888">
        <ele>231.6</ele>
        <time>2022-01-12T09:53:16Z</time>
      </trkpt>
      <trkpt lat="47.70375" lon="3.49886">
        <ele>231.5</ele>
        <time>2022-01-12T09:53:17Z</time>
      </trkpt>
      <trkpt lat="47.70375" lon="3.49883">
        <ele>231.4</ele>
        <time>2022-01-12T09:53:18Z</time>
      </trkpt>
      <trkpt lat="47.70374" lon="3.4988">
        <ele>231.3</ele>
        <time>2022-01-12T09:53:19Z</time>
      </trkpt>
      <trkpt lat="47.70374" lon="3.49878">
        <ele>231.2</ele>
        <time>2022-01-12T09:53:20Z</time>
      </trkpt>
      <trkpt lat="47.70374" lon="3.49876">
        <ele>231.1</ele>
        <time>2022-01-12T09:53:21Z</time>
      </trkpt>
      <trkpt lat="47.70374" lon="3.49873">
        <ele>231</ele>
        <time>2022-01-12T09:53:23Z</time>
      </trkpt>
      <trkpt lat="47.70374" lon="3.49871">
        <ele>230.8</ele>
        <time>2022-01-12T09:53:24Z</time>
      </trkpt>
      <trkpt lat="47.70373" lon="3.49868">
        <ele>230.7</ele>
        <time>2022-01-12T09:53:25Z</time>
      </trkpt>
      <trkpt lat="47.70373" lon="3.49866">
        <ele>230.6</ele>
        <time>2022-01-12T09:53:26Z</time>
      </trkpt>
      <trkpt lat="47.70373" lon="3.49864">
        <ele>230.5</ele>
        <time>2022-01-12T09:53:27Z</time>
      </trkpt>
      <trkpt lat="47.70373" lon="3.49861">
        <ele>230.4</ele>
        <time>2022-01-12T09:53:28Z</time>
      </trkpt>
      <trkpt lat="47.70373" lon="3.49859">
        <ele>230.3</ele>
        <time>2022-01-12T09:53:29Z</time>
      </trkpt>
      <trkpt lat="47.70373" lon="3.49857">
        <ele>230.2</ele>
        <time>2022-01-12T09:53:30Z</time>
      </trkpt>
      <trkpt lat="47.70372" lon="3.49854">
        <ele>230.1</ele>
        <time>2022-01-12T09:53:31Z</time>
      </trkpt>
      <trkpt lat="47.70372" lon="3.49852">
        <ele>230</ele>
        <time>2022-01-12T09:53:32Z</time>
      </trkpt>
      <trkpt lat="47.70372" lon="3.4985">
        <ele>229.9</ele>
        <time>2022-01-12T09:53:33Z</time>
      </trkpt>
      <trkpt lat="47.70372" lon="3.49847">
        <ele>229.8</ele>
        <time>2022-01-12T09:53:35Z</time>
      </trkpt>
      <trkpt lat="47.70372" lon="3.49845">
        <ele>229.6</ele>
        <time>2022-01-12T09:53:36Z</time>
      </trkpt>
      <trkpt lat="47.70372" lon="3.49842">
        <ele>229.5</ele>
        <time>2022-01-12T09:53:37Z</time>
      </trkpt>
      <trkpt lat="47.70371" lon="3.4984">
        <ele>229.4</ele>
        <time>2022-01-12T09:53:38Z</time>
      </trkpt>
      <trkpt lat="47.70371" lon="3.49838">
        <ele>229.3</ele>
        <time>2022-01-12T09:53:39Z</time>
      </trkpt>
      <trkpt lat="47.7037" lon="3.49836">
        <ele>229.2</ele>
        <time>2022-01-12T09:53:40Z</time>
      </trkpt>
      <trkpt lat="47.7037" lon="3.49833">
        <ele>229.1</ele>
        <time>2022-01-12T09:53:41Z</time>
      </trkpt>
      <trkpt lat="47.7037" lon="3.49832">
        <ele>229</ele>
        <time>2022-01-12T09:53:42Z</time>
      </trkpt>
      <trkpt lat="47.7037" lon="3.4983">
        <ele>229</ele>
        <time>2022-01-12T09:53:43Z</time>
      </trkpt>
      <trkpt lat="47.7037" lon="3.49827">
        <ele>228.8</ele>
        <time>2022-01-12T09:53:44Z</time>
      </trkpt>
      <trkpt lat="47.7037" lon="3.49826">
        <ele>228.8</ele>
        <time>2022-01-12T09:53:46Z</time>
      </trkpt>
      <trkpt lat="47.7037" lon="3.49825">
        <ele>228.7</ele>
        <time>2022-01-12T09:53:47Z</time>
      </trkpt>
      <trkpt lat="47.7037" lon="3.49822">
        <ele>228.6</ele>
        <time>2022-01-12T09:53:48Z</time>
      </trkpt>
      <trkpt lat="47.7037" lon="3.49821">
        <ele>228.5</ele>
        <time>2022-01-12T09:53:49Z</time>
      </trkpt>
      <trkpt lat="47.7037" lon="3.49819">
        <ele>228.5</ele>
        <time>2022-01-12T09:53:50Z</time>
      </trkpt>
      <trkpt lat="47.7037" lon="3.49817">
        <ele>228.4</ele>
        <time>2022-01-12T09:53:51Z</time>
      </trkpt>
      <trkpt lat="47.7037" lon="3.49815">
        <ele>228.3</ele>
        <time>2022-01-12T09:53:52Z</time>
      </trkpt>
      <trkpt lat="47.7037" lon="3.49812">
        <ele>228.2</ele>
        <time>2022-01-12T09:53:53Z</time>
      </trkpt>
      <trkpt lat="47.7037" lon="3.49811">
        <ele>228.1</ele>
        <time>2022-01-12T09:53:54Z</time>
      </trkpt>
      <trkpt lat="47.7037" lon="3.49809">
        <ele>228</ele>
        <time>2022-01-12T09:53:55Z</time>
      </trkpt>
      <trkpt lat="47.7037" lon="3.49806">
        <ele>227.9</ele>
        <time>2022-01-12T09:53:57Z</time>
      </trkpt>
      <trkpt lat="47.7037" lon="3.49805">
        <ele>227.8</ele>
        <time>2022-01-12T09:53:58Z</time>
      </trkpt>
      <trkpt lat="47.7037" lon="3.49803">
        <ele>227.7</ele>
        <time>2022-01-12T09:53:59Z</time>
      </trkpt>
      <trkpt lat="47.70371" lon="3.49802">
        <ele>227.6</ele>
        <time>2022-01-12T09:54:00Z</time>
      </trkpt>
      <trkpt lat="47.70371" lon="3.498">
        <ele>227.6</ele>
        <time>2022-01-12T09:54:01Z</time>
      </trkpt>
      <trkpt lat="47.7037" lon="3.49798">
        <ele>227.5</ele>
        <time>2022-01-12T09:54:02Z</time>
      </trkpt>
      <trkpt lat="47.7037" lon="3.49795">
        <ele>227.4</ele>
        <time>2022-01-12T09:54:04Z</time>
      </trkpt>
      <trkpt lat="47.7037" lon="3.49794">
        <ele>227.3</ele>
        <time>2022-01-12T09:54:05Z</time>
      </trkpt>
      <trkpt lat="47.7037" lon="3.49793">
        <ele>227.2</ele>
        <time>2022-01-12T09:54:06Z</time>
      </trkpt>
      <trkpt lat="47.7037" lon="3.4979">
        <ele>227.1</ele>
        <time>2022-01-12T09:54:07Z</time>
      </trkpt>
      <trkpt lat="47.70369" lon="3.49789">
        <ele>227</ele>
        <time>2022-01-12T09:54:08Z</time>
      </trkpt>
      <trkpt lat="47.70369" lon="3.49787">
        <ele>227</ele>
        <time>2022-01-12T09:54:09Z</time>
      </trkpt>
      <trkpt lat="47.70369" lon="3.49785">
        <ele>226.9</ele>
        <time>2022-01-12T09:54:11Z</time>
      </trkpt>
      <trkpt lat="47.70369" lon="3.49782">
        <ele>226.7</ele>
        <time>2022-01-12T09:54:12Z</time>
      </trkpt>
      <trkpt lat="47.70369" lon="3.49779">
        <ele>226.6</ele>
        <time>2022-01-12T09:54:13Z</time>
      </trkpt>
      <trkpt lat="47.70369" lon="3.49778">
        <ele>226.5</ele>
        <time>2022-01-12T09:54:15Z</time>
      </trkpt>
      <trkpt lat="47.70369" lon="3.49776">
        <ele>226.5</ele>
        <time>2022-01-12T09:54:16Z</time>
      </trkpt>
      <trkpt lat="47.70368" lon="3.49774">
        <ele>226.4</ele>
        <time>2022-01-12T09:54:17Z</time>
      </trkpt>
      <trkpt lat="47.70368" lon="3.49771">
        <ele>226.2</ele>
        <time>2022-01-12T09:54:18Z</time>
      </trkpt>
      <trkpt lat="47.70367" lon="3.4977">
        <ele>226.1</ele>
        <time>2022-01-12T09:54:19Z</time>
      </trkpt>
      <trkpt lat="47.70367" lon="3.49767">
        <ele>226</ele>
        <time>2022-01-12T09:54:21Z</time>
      </trkpt>
      <trkpt lat="47.70366" lon="3.49765">
        <ele>225.9</ele>
        <time>2022-01-12T09:54:22Z</time>
      </trkpt>
      <trkpt lat="47.70366" lon="3.49763">
        <ele>225.8</ele>
        <time>2022-01-12T09:54:23Z</time>
      </trkpt>
      <trkpt lat="47.70365" lon="3.4976">
        <ele>225.7</ele>
        <time>2022-01-12T09:54:24Z</time>
      </trkpt>
      <trkpt lat="47.70365" lon="3.49759">
        <ele>225.6</ele>
        <time>2022-01-12T09:54:25Z</time>
      </trkpt>
      <trkpt lat="47.70365" lon="3.49757">
        <ele>225.5</ele>
        <time>2022-01-12T09:54:26Z</time>
      </trkpt>
      <trkpt lat="47.70364" lon="3.49755">
        <ele>225.4</ele>
        <time>2022-01-12T09:54:27Z</time>
      </trkpt>
      <trkpt lat="47.70364" lon="3.49752">
        <ele>225.3</ele>
        <time>2022-01-12T09:54:28Z</time>
      </trkpt>
      <trkpt lat="47.70364" lon="3.4975">
        <ele>225.2</ele>
        <time>2022-01-12T09:54:29Z</time>
      </trkpt>
      <trkpt lat="47.70364" lon="3.49748">
        <ele>225.1</ele>
        <time>2022-01-12T09:54:30Z</time>
      </trkpt>
      <trkpt lat="47.70363" lon="3.49745">
        <ele>225</ele>
        <time>2022-01-12T09:54:32Z</time>
      </trkpt>
      <trkpt lat="47.70363" lon="3.49743">
        <ele>224.9</ele>
        <time>2022-01-12T09:54:33Z</time>
      </trkpt>
      <trkpt lat="47.70362" lon="3.4974">
        <ele>224.8</ele>
        <time>2022-01-12T09:54:34Z</time>
      </trkpt>
      <trkpt lat="47.70362" lon="3.49738">
        <ele>224.7</ele>
        <time>2022-01-12T09:54:35Z</time>
      </trkpt>
      <trkpt lat="47.70362" lon="3.49736">
        <ele>224.6</ele>
        <time>2022-01-12T09:54:36Z</time>
      </trkpt>
      <trkpt lat="47.70362" lon="3.49734">
        <ele>224.5</ele>
        <time>2022-01-12T09:54:37Z</time>
      </trkpt>
      <trkpt lat="47.70361" lon="3.49731">
        <ele>224.4</ele>
        <time>2022-01-12T09:54:38Z</time>
      </trkpt>
      <trkpt lat="47.70361" lon="3.49729">
        <ele>224.2</ele>
        <time>2022-01-12T09:54:39Z</time>
      </trkpt>
      <trkpt lat="47.70361" lon="3.49727">
        <ele>224.1</ele>
        <time>2022-01-12T09:54:40Z</time>
      </trkpt>
      <trkpt lat="47.7036" lon="3.49725">
        <ele>224</ele>
        <time>2022-01-12T09:54:41Z</time>
      </trkpt>
      <trkpt lat="47.7036" lon="3.49723">
        <ele>223.9</ele>
        <time>2022-01-12T09:54:42Z</time>
      </trkpt>
      <trkpt lat="47.7036" lon="3.49721">
        <ele>223.8</ele>
        <time>2022-01-12T09:54:43Z</time>
      </trkpt>
      <trkpt lat="47.7036" lon="3.49718">
        <ele>223.7</ele>
        <time>2022-01-12T09:54:45Z</time>
      </trkpt>
      <trkpt lat="47.7036" lon="3.49716">
        <ele>223.6</ele>
        <time>2022-01-12T09:54:46Z</time>
      </trkpt>
      <trkpt lat="47.7036" lon="3.49714">
        <ele>223.5</ele>
        <time>2022-01-12T09:54:47Z</time>
      </trkpt>
      <trkpt lat="47.70359" lon="3.49712">
        <ele>223.5</ele>
        <time>2022-01-12T09:54:48Z</time>
      </trkpt>
      <trkpt lat="47.70359" lon="3.49709">
        <ele>223.3</ele>
        <time>2022-01-12T09:54:49Z</time>
      </trkpt>
      <trkpt lat="47.70359" lon="3.49707">
        <ele>223.2</ele>
        <time>2022-01-12T09:54:50Z</time>
      </trkpt>
      <trkpt lat="47.70359" lon="3.49706">
        <ele>223.2</ele>
        <time>2022-01-12T09:54:51Z</time>
      </trkpt>
      <trkpt lat="47.70359" lon="3.49704">
        <ele>223.1</ele>
        <time>2022-01-12T09:54:52Z</time>
      </trkpt>
      <trkpt lat="47.70359" lon="3.49702">
        <ele>223</ele>
        <time>2022-01-12T09:54:53Z</time>
      </trkpt>
      <trkpt lat="47.70359" lon="3.49699">
        <ele>222.8</ele>
        <time>2022-01-12T09:54:54Z</time>
      </trkpt>
      <trkpt lat="47.70359" lon="3.49697">
        <ele>222.8</ele>
        <time>2022-01-12T09:54:55Z</time>
      </trkpt>
      <trkpt lat="47.7036" lon="3.49696">
        <ele>222.7</ele>
        <time>2022-01-12T09:54:56Z</time>
      </trkpt>
      <trkpt lat="47.7036" lon="3.49694">
        <ele>222.6</ele>
        <time>2022-01-12T09:54:58Z</time>
      </trkpt>
      <trkpt lat="47.7036" lon="3.49691">
        <ele>222.5</ele>
        <time>2022-01-12T09:54:59Z</time>
      </trkpt>
      <trkpt lat="47.70359" lon="3.49689">
        <ele>222.4</ele>
        <time>2022-01-12T09:55:00Z</time>
      </trkpt>
      <trkpt lat="47.70359" lon="3.49687">
        <ele>222.3</ele>
        <time>2022-01-12T09:55:01Z</time>
      </trkpt>
      <trkpt lat="47.70359" lon="3.49685">
        <ele>222.2</ele>
        <time>2022-01-12T09:55:02Z</time>
      </trkpt>
      <trkpt lat="47.70359" lon="3.49683">
        <ele>222.1</ele>
        <time>2022-01-12T09:55:04Z</time>
      </trkpt>
      <trkpt lat="47.70358" lon="3.49681">
        <ele>222</ele>
        <time>2022-01-12T09:55:05Z</time>
      </trkpt>
      <trkpt lat="47.70358" lon="3.49679">
        <ele>221.9</ele>
        <time>2022-01-12T09:55:06Z</time>
      </trkpt>
      <trkpt lat="47.70358" lon="3.49676">
        <ele>221.8</ele>
        <time>2022-01-12T09:55:08Z</time>
      </trkpt>
      <trkpt lat="47.70357" lon="3.49675">
        <ele>221.7</ele>
        <time>2022-01-12T09:55:09Z</time>
      </trkpt>
      <trkpt lat="47.70357" lon="3.49673">
        <ele>221.6</ele>
        <time>2022-01-12T09:55:10Z</time>
      </trkpt>
      <trkpt lat="47.70357" lon="3.49671">
        <ele>221.5</ele>
        <time>2022-01-12T09:55:11Z</time>
      </trkpt>
      <trkpt lat="47.70357" lon="3.49669">
        <ele>221.5</ele>
        <time>2022-01-12T09:55:12Z</time>
      </trkpt>
      <trkpt lat="47.70357" lon="3.49666">
        <ele>221.3</ele>
        <time>2022-01-12T09:55:13Z</time>
      </trkpt>
      <trkpt lat="47.70357" lon="3.49665">
        <ele>221.3</ele>
        <time>2022-01-12T09:55:14Z</time>
      </trkpt>
      <trkpt lat="47.70357" lon="3.49664">
        <ele>221.2</ele>
        <time>2022-01-12T09:55:15Z</time>
      </trkpt>
      <trkpt lat="47.70357" lon="3.49661">
        <ele>221.1</ele>
        <time>2022-01-12T09:55:16Z</time>
      </trkpt>
      <trkpt lat="47.70356" lon="3.4966">
        <ele>221</ele>
        <time>2022-01-12T09:55:17Z</time>
      </trkpt>
      <trkpt lat="47.70356" lon="3.49659">
        <ele>221</ele>
        <time>2022-01-12T09:55:18Z</time>
      </trkpt>
      <trkpt lat="47.70356" lon="3.49657">
        <ele>220.9</ele>
        <time>2022-01-12T09:55:20Z</time>
      </trkpt>
      <trkpt lat="47.70356" lon="3.49655">
        <ele>220.8</ele>
        <time>2022-01-12T09:55:21Z</time>
      </trkpt>
      <trkpt lat="47.70356" lon="3.49653">
        <ele>220.7</ele>
        <time>2022-01-12T09:55:22Z</time>
      </trkpt>
      <trkpt lat="47.70357" lon="3.49651">
        <ele>220.6</ele>
        <time>2022-01-12T09:55:23Z</time>
      </trkpt>
      <trkpt lat="47.70357" lon="3.49649">
        <ele>220.5</ele>
        <time>2022-01-12T09:55:24Z</time>
      </trkpt>
      <trkpt lat="47.70357" lon="3.49646">
        <ele>220.4</ele>
        <time>2022-01-12T09:55:25Z</time>
      </trkpt>
      <trkpt lat="47.70357" lon="3.49645">
        <ele>220.3</ele>
        <time>2022-01-12T09:55:26Z</time>
      </trkpt>
      <trkpt lat="47.70357" lon="3.49644">
        <ele>220.3</ele>
        <time>2022-01-12T09:55:27Z</time>
      </trkpt>
      <trkpt lat="47.70357" lon="3.49643">
        <ele>220.2</ele>
        <time>2022-01-12T09:55:28Z</time>
      </trkpt>
      <trkpt lat="47.70357" lon="3.49641">
        <ele>220.2</ele>
        <time>2022-01-12T09:55:29Z</time>
      </trkpt>
      <trkpt lat="47.70357" lon="3.49639">
        <ele>220.1</ele>
        <time>2022-01-12T09:55:30Z</time>
      </trkpt>
      <trkpt lat="47.70357" lon="3.49637">
        <ele>220</ele>
        <time>2022-01-12T09:55:31Z</time>
      </trkpt>
      <trkpt lat="47.70357" lon="3.49636">
        <ele>219.9</ele>
        <time>2022-01-12T09:55:32Z</time>
      </trkpt>
      <trkpt lat="47.70357" lon="3.49634">
        <ele>219.9</ele>
        <time>2022-01-12T09:55:33Z</time>
      </trkpt>
      <trkpt lat="47.70357" lon="3.49631">
        <ele>219.7</ele>
        <time>2022-01-12T09:55:34Z</time>
      </trkpt>
      <trkpt lat="47.70356" lon="3.4963">
        <ele>219.6</ele>
        <time>2022-01-12T09:55:35Z</time>
      </trkpt>
      <trkpt lat="47.70356" lon="3.49629">
        <ele>219.6</ele>
        <time>2022-01-12T09:55:36Z</time>
      </trkpt>
      <trkpt lat="47.70356" lon="3.49626">
        <ele>219.5</ele>
        <time>2022-01-12T09:55:37Z</time>
      </trkpt>
      <trkpt lat="47.70356" lon="3.49624">
        <ele>219.4</ele>
        <time>2022-01-12T09:55:39Z</time>
      </trkpt>
      <trkpt lat="47.70356" lon="3.49622">
        <ele>219.3</ele>
        <time>2022-01-12T09:55:40Z</time>
      </trkpt>
      <trkpt lat="47.70356" lon="3.4962">
        <ele>219.2</ele>
        <time>2022-01-12T09:55:41Z</time>
      </trkpt>
      <trkpt lat="47.70355" lon="3.49618">
        <ele>219.1</ele>
        <time>2022-01-12T09:55:42Z</time>
      </trkpt>
      <trkpt lat="47.70355" lon="3.49616">
        <ele>219</ele>
        <time>2022-01-12T09:55:43Z</time>
      </trkpt>
      <trkpt lat="47.70355" lon="3.49613">
        <ele>218.9</ele>
        <time>2022-01-12T09:55:45Z</time>
      </trkpt>
      <trkpt lat="47.70354" lon="3.49611">
        <ele>218.8</ele>
        <time>2022-01-12T09:55:46Z</time>
      </trkpt>
      <trkpt lat="47.70354" lon="3.49609">
        <ele>218.7</ele>
        <time>2022-01-12T09:55:47Z</time>
      </trkpt>
      <trkpt lat="47.70354" lon="3.49607">
        <ele>218.6</ele>
        <time>2022-01-12T09:55:48Z</time>
      </trkpt>
      <trkpt lat="47.70353" lon="3.49605">
        <ele>218.5</ele>
        <time>2022-01-12T09:55:49Z</time>
      </trkpt>
      <trkpt lat="47.70353" lon="3.49603">
        <ele>218.4</ele>
        <time>2022-01-12T09:55:50Z</time>
      </trkpt>
      <trkpt lat="47.70352" lon="3.49601">
        <ele>218.3</ele>
        <time>2022-01-12T09:55:52Z</time>
      </trkpt>
      <trkpt lat="47.70352" lon="3.49598">
        <ele>218.2</ele>
        <time>2022-01-12T09:55:53Z</time>
      </trkpt>
      <trkpt lat="47.70352" lon="3.49597">
        <ele>218.1</ele>
        <time>2022-01-12T09:55:54Z</time>
      </trkpt>
      <trkpt lat="47.70352" lon="3.49596">
        <ele>218</ele>
        <time>2022-01-12T09:55:55Z</time>
      </trkpt>
      <trkpt lat="47.70351" lon="3.49594">
        <ele>218</ele>
        <time>2022-01-12T09:55:56Z</time>
      </trkpt>
      <trkpt lat="47.70351" lon="3.49592">
        <ele>217.9</ele>
        <time>2022-01-12T09:55:57Z</time>
      </trkpt>
      <trkpt lat="47.70351" lon="3.4959">
        <ele>217.8</ele>
        <time>2022-01-12T09:55:58Z</time>
      </trkpt>
      <trkpt lat="47.70351" lon="3.49589">
        <ele>217.7</ele>
        <time>2022-01-12T09:55:59Z</time>
      </trkpt>
      <trkpt lat="47.70351" lon="3.49587">
        <ele>217.6</ele>
        <time>2022-01-12T09:56:00Z</time>
      </trkpt>
      <trkpt lat="47.70351" lon="3.49585">
        <ele>217.5</ele>
        <time>2022-01-12T09:56:02Z</time>
      </trkpt>
      <trkpt lat="47.70351" lon="3.49582">
        <ele>217.4</ele>
        <time>2022-01-12T09:56:03Z</time>
      </trkpt>
      <trkpt lat="47.70351" lon="3.4958">
        <ele>217.3</ele>
        <time>2022-01-12T09:56:04Z</time>
      </trkpt>
      <trkpt lat="47.70351" lon="3.49579">
        <ele>217.3</ele>
        <time>2022-01-12T09:56:05Z</time>
      </trkpt>
      <trkpt lat="47.70351" lon="3.49576">
        <ele>217.1</ele>
        <time>2022-01-12T09:56:06Z</time>
      </trkpt>
      <trkpt lat="47.70352" lon="3.49575">
        <ele>217.1</ele>
        <time>2022-01-12T09:56:07Z</time>
      </trkpt>
      <trkpt lat="47.70352" lon="3.49573">
        <ele>217</ele>
        <time>2022-01-12T09:56:08Z</time>
      </trkpt>
      <trkpt lat="47.70352" lon="3.49571">
        <ele>216.9</ele>
        <time>2022-01-12T09:56:10Z</time>
      </trkpt>
      <trkpt lat="47.70352" lon="3.49569">
        <ele>216.8</ele>
        <time>2022-01-12T09:56:11Z</time>
      </trkpt>
      <trkpt lat="47.70353" lon="3.49566">
        <ele>216.7</ele>
        <time>2022-01-12T09:56:12Z</time>
      </trkpt>
      <trkpt lat="47.70353" lon="3.49565">
        <ele>216.6</ele>
        <time>2022-01-12T09:56:13Z</time>
      </trkpt>
      <trkpt lat="47.70353" lon="3.49564">
        <ele>216.5</ele>
        <time>2022-01-12T09:56:14Z</time>
      </trkpt>
      <trkpt lat="47.70353" lon="3.4956">
        <ele>216.4</ele>
        <time>2022-01-12T09:56:15Z</time>
      </trkpt>
      <trkpt lat="47.70353" lon="3.49559">
        <ele>216.3</ele>
        <time>2022-01-12T09:56:16Z</time>
      </trkpt>
      <trkpt lat="47.70353" lon="3.49558">
        <ele>216.3</ele>
        <time>2022-01-12T09:56:17Z</time>
      </trkpt>
      <trkpt lat="47.70353" lon="3.49556">
        <ele>216.2</ele>
        <time>2022-01-12T09:56:18Z</time>
      </trkpt>
      <trkpt lat="47.70353" lon="3.49554">
        <ele>216.1</ele>
        <time>2022-01-12T09:56:19Z</time>
      </trkpt>
      <trkpt lat="47.70353" lon="3.49552">
        <ele>216</ele>
        <time>2022-01-12T09:56:21Z</time>
      </trkpt>
      <trkpt lat="47.70353" lon="3.4955">
        <ele>215.9</ele>
        <time>2022-01-12T09:56:22Z</time>
      </trkpt>
      <trkpt lat="47.70353" lon="3.49547">
        <ele>215.8</ele>
        <time>2022-01-12T09:56:23Z</time>
      </trkpt>
      <trkpt lat="47.70354" lon="3.49546">
        <ele>215.7</ele>
        <time>2022-01-12T09:56:24Z</time>
      </trkpt>
      <trkpt lat="47.70354" lon="3.49544">
        <ele>215.6</ele>
        <time>2022-01-12T09:56:25Z</time>
      </trkpt>
      <trkpt lat="47.70354" lon="3.49542">
        <ele>215.6</ele>
        <time>2022-01-12T09:56:26Z</time>
      </trkpt>
      <trkpt lat="47.70354" lon="3.49539">
        <ele>215.4</ele>
        <time>2022-01-12T09:56:28Z</time>
      </trkpt>
      <trkpt lat="47.70354" lon="3.49537">
        <ele>215.3</ele>
        <time>2022-01-12T09:56:29Z</time>
      </trkpt>
      <trkpt lat="47.70354" lon="3.49535">
        <ele>215.2</ele>
        <time>2022-01-12T09:56:30Z</time>
      </trkpt>
      <trkpt lat="47.70354" lon="3.49533">
        <ele>215.1</ele>
        <time>2022-01-12T09:56:31Z</time>
      </trkpt>
      <trkpt lat="47.70354" lon="3.49531">
        <ele>215</ele>
        <time>2022-01-12T09:56:32Z</time>
      </trkpt>
      <trkpt lat="47.70354" lon="3.49528">
        <ele>214.9</ele>
        <time>2022-01-12T09:56:33Z</time>
      </trkpt>
      <trkpt lat="47.70354" lon="3.49526">
        <ele>214.8</ele>
        <time>2022-01-12T09:56:34Z</time>
      </trkpt>
      <trkpt lat="47.70355" lon="3.49524">
        <ele>214.7</ele>
        <time>2022-01-12T09:56:35Z</time>
      </trkpt>
      <trkpt lat="47.70355" lon="3.49523">
        <ele>214.7</ele>
        <time>2022-01-12T09:56:36Z</time>
      </trkpt>
      <trkpt lat="47.70355" lon="3.49521">
        <ele>214.6</ele>
        <time>2022-01-12T09:56:37Z</time>
      </trkpt>
      <trkpt lat="47.70355" lon="3.49519">
        <ele>214.5</ele>
        <time>2022-01-12T09:56:38Z</time>
      </trkpt>
      <trkpt lat="47.70355" lon="3.49516">
        <ele>214.4</ele>
        <time>2022-01-12T09:56:40Z</time>
      </trkpt>
      <trkpt lat="47.70355" lon="3.49514">
        <ele>214.3</ele>
        <time>2022-01-12T09:56:41Z</time>
      </trkpt>
      <trkpt lat="47.70355" lon="3.49512">
        <ele>214.2</ele>
        <time>2022-01-12T09:56:42Z</time>
      </trkpt>
      <trkpt lat="47.70355" lon="3.4951">
        <ele>214.1</ele>
        <time>2022-01-12T09:56:43Z</time>
      </trkpt>
      <trkpt lat="47.70354" lon="3.49508">
        <ele>214</ele>
        <time>2022-01-12T09:56:44Z</time>
      </trkpt>
      <trkpt lat="47.70354" lon="3.49505">
        <ele>213.9</ele>
        <time>2022-01-12T09:56:45Z</time>
      </trkpt>
      <trkpt lat="47.70354" lon="3.49503">
        <ele>213.8</ele>
        <time>2022-01-12T09:56:46Z</time>
      </trkpt>
      <trkpt lat="47.70354" lon="3.49501">
        <ele>213.7</ele>
        <time>2022-01-12T09:56:47Z</time>
      </trkpt>
      <trkpt lat="47.70355" lon="3.49498">
        <ele>213.5</ele>
        <time>2022-01-12T09:56:48Z</time>
      </trkpt>
      <trkpt lat="47.70355" lon="3.49497">
        <ele>213.5</ele>
        <time>2022-01-12T09:56:49Z</time>
      </trkpt>
      <trkpt lat="47.70355" lon="3.49496">
        <ele>213.4</ele>
        <time>2022-01-12T09:56:50Z</time>
      </trkpt>
      <trkpt lat="47.70355" lon="3.49494">
        <ele>213.3</ele>
        <time>2022-01-12T09:56:51Z</time>
      </trkpt>
      <trkpt lat="47.70354" lon="3.49491">
        <ele>213.2</ele>
        <time>2022-01-12T09:56:53Z</time>
      </trkpt>
      <trkpt lat="47.70354" lon="3.49489">
        <ele>213.1</ele>
        <time>2022-01-12T09:56:54Z</time>
      </trkpt>
      <trkpt lat="47.70354" lon="3.49487">
        <ele>213</ele>
        <time>2022-01-12T09:56:55Z</time>
      </trkpt>
      <trkpt lat="47.70354" lon="3.49484">
        <ele>212.9</ele>
        <time>2022-01-12T09:56:56Z</time>
      </trkpt>
      <trkpt lat="47.70354" lon="3.49482">
        <ele>212.8</ele>
        <time>2022-01-12T09:56:57Z</time>
      </trkpt>
      <trkpt lat="47.70354" lon="3.4948">
        <ele>212.7</ele>
        <time>2022-01-12T09:56:58Z</time>
      </trkpt>
      <trkpt lat="47.70354" lon="3.49477">
        <ele>212.6</ele>
        <time>2022-01-12T09:56:59Z</time>
      </trkpt>
      <trkpt lat="47.70354" lon="3.49475">
        <ele>212.5</ele>
        <time>2022-01-12T09:57:00Z</time>
      </trkpt>
      <trkpt lat="47.70355" lon="3.49473">
        <ele>212.4</ele>
        <time>2022-01-12T09:57:02Z</time>
      </trkpt>
      <trkpt lat="47.70355" lon="3.49471">
        <ele>212.3</ele>
        <time>2022-01-12T09:57:03Z</time>
      </trkpt>
      <trkpt lat="47.70355" lon="3.49469">
        <ele>212.2</ele>
        <time>2022-01-12T09:57:04Z</time>
      </trkpt>
      <trkpt lat="47.70355" lon="3.49467">
        <ele>212.1</ele>
        <time>2022-01-12T09:57:05Z</time>
      </trkpt>
      <trkpt lat="47.70355" lon="3.49465">
        <ele>212</ele>
        <time>2022-01-12T09:57:06Z</time>
      </trkpt>
      <trkpt lat="47.70355" lon="3.49464">
        <ele>211.9</ele>
        <time>2022-01-12T09:57:07Z</time>
      </trkpt>
      <trkpt lat="47.70355" lon="3.49462">
        <ele>211.9</ele>
        <time>2022-01-12T09:57:08Z</time>
      </trkpt>
      <trkpt lat="47.70355" lon="3.49461">
        <ele>211.8</ele>
        <time>2022-01-12T09:57:09Z</time>
      </trkpt>
      <trkpt lat="47.70355" lon="3.49459">
        <ele>211.7</ele>
        <time>2022-01-12T09:57:10Z</time>
      </trkpt>
      <trkpt lat="47.70355" lon="3.49455">
        <ele>211.6</ele>
        <time>2022-01-12T09:57:11Z</time>
      </trkpt>
      <trkpt lat="47.70355" lon="3.49454">
        <ele>211.5</ele>
        <time>2022-01-12T09:57:12Z</time>
      </trkpt>
      <trkpt lat="47.70355" lon="3.49453">
        <ele>211.4</ele>
        <time>2022-01-12T09:57:13Z</time>
      </trkpt>
      <trkpt lat="47.70355" lon="3.4945">
        <ele>211.3</ele>
        <time>2022-01-12T09:57:15Z</time>
      </trkpt>
      <trkpt lat="47.70356" lon="3.49448">
        <ele>211.2</ele>
        <time>2022-01-12T09:57:16Z</time>
      </trkpt>
      <trkpt lat="47.70356" lon="3.49445">
        <ele>211.1</ele>
        <time>2022-01-12T09:57:17Z</time>
      </trkpt>
      <trkpt lat="47.70356" lon="3.49443">
        <ele>211</ele>
        <time>2022-01-12T09:57:18Z</time>
      </trkpt>
      <trkpt lat="47.70356" lon="3.49442">
        <ele>210.9</ele>
        <time>2022-01-12T09:57:19Z</time>
      </trkpt>
      <trkpt lat="47.70356" lon="3.4944">
        <ele>210.9</ele>
        <time>2022-01-12T09:57:20Z</time>
      </trkpt>
      <trkpt lat="47.70356" lon="3.49438">
        <ele>210.8</ele>
        <time>2022-01-12T09:57:21Z</time>
      </trkpt>
      <trkpt lat="47.70356" lon="3.49435">
        <ele>210.6</ele>
        <time>2022-01-12T09:57:22Z</time>
      </trkpt>
      <trkpt lat="47.70356" lon="3.49434">
        <ele>210.6</ele>
        <time>2022-01-12T09:57:23Z</time>
      </trkpt>
      <trkpt lat="47.70356" lon="3.49433">
        <ele>210.5</ele>
        <time>2022-01-12T09:57:24Z</time>
      </trkpt>
      <trkpt lat="47.70355" lon="3.4943">
        <ele>210.4</ele>
        <time>2022-01-12T09:57:25Z</time>
      </trkpt>
      <trkpt lat="47.70355" lon="3.49428">
        <ele>210.3</ele>
        <time>2022-01-12T09:57:26Z</time>
      </trkpt>
      <trkpt lat="47.70355" lon="3.49427">
        <ele>210.2</ele>
        <time>2022-01-12T09:57:27Z</time>
      </trkpt>
      <trkpt lat="47.70355" lon="3.49425">
        <ele>210.1</ele>
        <time>2022-01-12T09:57:28Z</time>
      </trkpt>
      <trkpt lat="47.70355" lon="3.49422">
        <ele>210</ele>
        <time>2022-01-12T09:57:30Z</time>
      </trkpt>
      <trkpt lat="47.70355" lon="3.4942">
        <ele>209.9</ele>
        <time>2022-01-12T09:57:31Z</time>
      </trkpt>
      <trkpt lat="47.70355" lon="3.49418">
        <ele>209.9</ele>
        <time>2022-01-12T09:57:32Z</time>
      </trkpt>
      <trkpt lat="47.70355" lon="3.49416">
        <ele>209.8</ele>
        <time>2022-01-12T09:57:33Z</time>
      </trkpt>
      <trkpt lat="47.70355" lon="3.49414">
        <ele>209.6</ele>
        <time>2022-01-12T09:57:34Z</time>
      </trkpt>
      <trkpt lat="47.70355" lon="3.49412">
        <ele>209.6</ele>
        <time>2022-01-12T09:57:35Z</time>
      </trkpt>
      <trkpt lat="47.70355" lon="3.4941">
        <ele>209.5</ele>
        <time>2022-01-12T09:57:36Z</time>
      </trkpt>
      <trkpt lat="47.70355" lon="3.49408">
        <ele>209.4</ele>
        <time>2022-01-12T09:57:37Z</time>
      </trkpt>
      <trkpt lat="47.70355" lon="3.49406">
        <ele>209.3</ele>
        <time>2022-01-12T09:57:38Z</time>
      </trkpt>
      <trkpt lat="47.70355" lon="3.49404">
        <ele>209.2</ele>
        <time>2022-01-12T09:57:40Z</time>
      </trkpt>
      <trkpt lat="47.70354" lon="3.49401">
        <ele>209.1</ele>
        <time>2022-01-12T09:57:41Z</time>
      </trkpt>
      <trkpt lat="47.70354" lon="3.49398">
        <ele>208.9</ele>
        <time>2022-01-12T09:57:42Z</time>
      </trkpt>
      <trkpt lat="47.70354" lon="3.49396">
        <ele>208.8</ele>
        <time>2022-01-12T09:57:43Z</time>
      </trkpt>
      <trkpt lat="47.70354" lon="3.49395">
        <ele>208.8</ele>
        <time>2022-01-12T09:57:44Z</time>
      </trkpt>
      <trkpt lat="47.70354" lon="3.49392">
        <ele>208.6</ele>
        <time>2022-01-12T09:57:45Z</time>
      </trkpt>
      <trkpt lat="47.70354" lon="3.49391">
        <ele>208.6</ele>
        <time>2022-01-12T09:57:46Z</time>
      </trkpt>
      <trkpt lat="47.70354" lon="3.49389">
        <ele>208.5</ele>
        <time>2022-01-12T09:57:47Z</time>
      </trkpt>
      <trkpt lat="47.70353" lon="3.49387">
        <ele>208.4</ele>
        <time>2022-01-12T09:57:49Z</time>
      </trkpt>
      <trkpt lat="47.70353" lon="3.49385">
        <ele>208.3</ele>
        <time>2022-01-12T09:57:50Z</time>
      </trkpt>
      <trkpt lat="47.70353" lon="3.49382">
        <ele>208.2</ele>
        <time>2022-01-12T09:57:51Z</time>
      </trkpt>
      <trkpt lat="47.70353" lon="3.4938">
        <ele>208.1</ele>
        <time>2022-01-12T09:57:52Z</time>
      </trkpt>
      <trkpt lat="47.70353" lon="3.49379">
        <ele>208</ele>
        <time>2022-01-12T09:57:53Z</time>
      </trkpt>
      <trkpt lat="47.70353" lon="3.49377">
        <ele>207.9</ele>
        <time>2022-01-12T09:57:55Z</time>
      </trkpt>
      <trkpt lat="47.70353" lon="3.49375">
        <ele>207.8</ele>
        <time>2022-01-12T09:57:56Z</time>
      </trkpt>
      <trkpt lat="47.70353" lon="3.49373">
        <ele>207.7</ele>
        <time>2022-01-12T09:57:57Z</time>
      </trkpt>
      <trkpt lat="47.70353" lon="3.49371">
        <ele>207.7</ele>
        <time>2022-01-12T09:57:58Z</time>
      </trkpt>
      <trkpt lat="47.70353" lon="3.49368">
        <ele>207.5</ele>
        <time>2022-01-12T09:57:59Z</time>
      </trkpt>
      <trkpt lat="47.70353" lon="3.49366">
        <ele>207.5</ele>
        <time>2022-01-12T09:58:00Z</time>
      </trkpt>
      <trkpt lat="47.70353" lon="3.49364">
        <ele>207.3</ele>
        <time>2022-01-12T09:58:02Z</time>
      </trkpt>
      <trkpt lat="47.70354" lon="3.49361">
        <ele>207.2</ele>
        <time>2022-01-12T09:58:03Z</time>
      </trkpt>
      <trkpt lat="47.70355" lon="3.4936">
        <ele>207.1</ele>
        <time>2022-01-12T09:58:04Z</time>
      </trkpt>
      <trkpt lat="47.70356" lon="3.49358">
        <ele>207</ele>
        <time>2022-01-12T09:58:05Z</time>
      </trkpt>
      <trkpt lat="47.70357" lon="3.49357">
        <ele>206.9</ele>
        <time>2022-01-12T09:58:06Z</time>
      </trkpt>
      <trkpt lat="47.70358" lon="3.49356">
        <ele>206.8</ele>
        <time>2022-01-12T09:58:07Z</time>
      </trkpt>
      <trkpt lat="47.70359" lon="3.49356">
        <ele>206.8</ele>
        <time>2022-01-12T09:58:08Z</time>
      </trkpt>
      <trkpt lat="47.70359" lon="3.49355">
        <ele>206.7</ele>
        <time>2022-01-12T09:58:09Z</time>
      </trkpt>
      <trkpt lat="47.7036" lon="3.49355">
        <ele>206.7</ele>
        <time>2022-01-12T09:58:10Z</time>
      </trkpt>
      <trkpt lat="47.7036" lon="3.49354">
        <ele>206.7</ele>
        <time>2022-01-12T09:58:11Z</time>
      </trkpt>
      <trkpt lat="47.70359" lon="3.49354">
        <ele>206.6</ele>
        <time>2022-01-12T09:58:13Z</time>
      </trkpt>
      <trkpt lat="47.70359" lon="3.49355">
        <ele>206.6</ele>
        <time>2022-01-12T09:58:14Z</time>
      </trkpt>
      <trkpt lat="47.70358" lon="3.49356">
        <ele>206.5</ele>
        <time>2022-01-12T09:58:15Z</time>
      </trkpt>
      <trkpt lat="47.70358" lon="3.49357">
        <ele>206.5</ele>
        <time>2022-01-12T09:58:16Z</time>
      </trkpt>
      <trkpt lat="47.70358" lon="3.49357">
        <ele>206.5</ele>
        <time>2022-01-12T09:58:17Z</time>
      </trkpt>
      <trkpt lat="47.70358" lon="3.49359">
        <ele>206.4</ele>
        <time>2022-01-12T09:58:19Z</time>
      </trkpt>
      <trkpt lat="47.70358" lon="3.49359">
        <ele>206.4</ele>
        <time>2022-01-12T09:58:20Z</time>
      </trkpt>
      <trkpt lat="47.70358" lon="3.49358">
        <ele>206.3</ele>
        <time>2022-01-12T09:58:21Z</time>
      </trkpt>
      <trkpt lat="47.70357" lon="3.49356">
        <ele>206.3</ele>
        <time>2022-01-12T09:58:22Z</time>
      </trkpt>
      <trkpt lat="47.70357" lon="3.49354">
        <ele>206.2</ele>
        <time>2022-01-12T09:58:23Z</time>
      </trkpt>
      <trkpt lat="47.70357" lon="3.49353">
        <ele>206.1</ele>
        <time>2022-01-12T09:58:24Z</time>
      </trkpt>
      <trkpt lat="47.70357" lon="3.49351">
        <ele>206</ele>
        <time>2022-01-12T09:58:25Z</time>
      </trkpt>
      <trkpt lat="47.70357" lon="3.49348">
        <ele>205.9</ele>
        <time>2022-01-12T09:58:27Z</time>
      </trkpt>
      <trkpt lat="47.70357" lon="3.49345">
        <ele>205.8</ele>
        <time>2022-01-12T09:58:28Z</time>
      </trkpt>
      <trkpt lat="47.70357" lon="3.49344">
        <ele>205.7</ele>
        <time>2022-01-12T09:58:29Z</time>
      </trkpt>
      <trkpt lat="47.70357" lon="3.49341">
        <ele>205.6</ele>
        <time>2022-01-12T09:58:31Z</time>
      </trkpt>
      <trkpt lat="47.70356" lon="3.49339">
        <ele>205.5</ele>
        <time>2022-01-12T09:58:32Z</time>
      </trkpt>
      <trkpt lat="47.70356" lon="3.49337">
        <ele>205.4</ele>
        <time>2022-01-12T09:58:33Z</time>
      </trkpt>
      <trkpt lat="47.70356" lon="3.49335">
        <ele>205.3</ele>
        <time>2022-01-12T09:58:34Z</time>
      </trkpt>
      <trkpt lat="47.70357" lon="3.49332">
        <ele>205.1</ele>
        <time>2022-01-12T09:58:35Z</time>
      </trkpt>
      <trkpt lat="47.70357" lon="3.4933">
        <ele>205.1</ele>
        <time>2022-01-12T09:58:36Z</time>
      </trkpt>
      <trkpt lat="47.70357" lon="3.49329">
        <ele>205</ele>
        <time>2022-01-12T09:58:38Z</time>
      </trkpt>
      <trkpt lat="47.70357" lon="3.49327">
        <ele>204.9</ele>
        <time>2022-01-12T09:58:39Z</time>
      </trkpt>
      <trkpt lat="47.70357" lon="3.49326">
        <ele>204.9</ele>
        <time>2022-01-12T09:58:40Z</time>
      </trkpt>
      <trkpt lat="47.70357" lon="3.49324">
        <ele>204.8</ele>
        <time>2022-01-12T09:58:41Z</time>
      </trkpt>
      <trkpt lat="47.70357" lon="3.4932">
        <ele>204.6</ele>
        <time>2022-01-12T09:58:42Z</time>
      </trkpt>
      <trkpt lat="47.70357" lon="3.49319">
        <ele>204.5</ele>
        <time>2022-01-12T09:58:44Z</time>
      </trkpt>
      <trkpt lat="47.70358" lon="3.49317">
        <ele>204.5</ele>
        <time>2022-01-12T09:58:45Z</time>
      </trkpt>
      <trkpt lat="47.70358" lon="3.49316">
        <ele>204.4</ele>
        <time>2022-01-12T09:58:46Z</time>
      </trkpt>
      <trkpt lat="47.70358" lon="3.49314">
        <ele>204.3</ele>
        <time>2022-01-12T09:58:47Z</time>
      </trkpt>
      <trkpt lat="47.70358" lon="3.49312">
        <ele>204.2</ele>
        <time>2022-01-12T09:58:48Z</time>
      </trkpt>
      <trkpt lat="47.70357" lon="3.49309">
        <ele>204.1</ele>
        <time>2022-01-12T09:58:50Z</time>
      </trkpt>
      <trkpt lat="47.70357" lon="3.49307">
        <ele>204</ele>
        <time>2022-01-12T09:58:51Z</time>
      </trkpt>
      <trkpt lat="47.70357" lon="3.49305">
        <ele>203.9</ele>
        <time>2022-01-12T09:58:52Z</time>
      </trkpt>
      <trkpt lat="47.70357" lon="3.49303">
        <ele>203.8</ele>
        <time>2022-01-12T09:58:53Z</time>
      </trkpt>
      <trkpt lat="47.70357" lon="3.49301">
        <ele>203.7</ele>
        <time>2022-01-12T09:58:54Z</time>
      </trkpt>
      <trkpt lat="47.70357" lon="3.49299">
        <ele>203.6</ele>
        <time>2022-01-12T09:58:56Z</time>
      </trkpt>
      <trkpt lat="47.70358" lon="3.49296">
        <ele>203.4</ele>
        <time>2022-01-12T09:58:57Z</time>
      </trkpt>
      <trkpt lat="47.70358" lon="3.49294">
        <ele>203.4</ele>
        <time>2022-01-12T09:58:58Z</time>
      </trkpt>
      <trkpt lat="47.70358" lon="3.49293">
        <ele>203.3</ele>
        <time>2022-01-12T09:58:59Z</time>
      </trkpt>
      <trkpt lat="47.70358" lon="3.4929">
        <ele>203.2</ele>
        <time>2022-01-12T09:59:00Z</time>
      </trkpt>
      <trkpt lat="47.70358" lon="3.49289">
        <ele>203.2</ele>
        <time>2022-01-12T09:59:01Z</time>
      </trkpt>
      <trkpt lat="47.70358" lon="3.49288">
        <ele>203.1</ele>
        <time>2022-01-12T09:59:02Z</time>
      </trkpt>
      <trkpt lat="47.70358" lon="3.49285">
        <ele>202.9</ele>
        <time>2022-01-12T09:59:04Z</time>
      </trkpt>
      <trkpt lat="47.70358" lon="3.49283">
        <ele>202.9</ele>
        <time>2022-01-12T09:59:05Z</time>
      </trkpt>
      <trkpt lat="47.70358" lon="3.49282">
        <ele>202.8</ele>
        <time>2022-01-12T09:59:06Z</time>
      </trkpt>
      <trkpt lat="47.70358" lon="3.49279">
        <ele>202.7</ele>
        <time>2022-01-12T09:59:07Z</time>
      </trkpt>
      <trkpt lat="47.70358" lon="3.49277">
        <ele>202.6</ele>
        <time>2022-01-12T09:59:08Z</time>
      </trkpt>
      <trkpt lat="47.70357" lon="3.49276">
        <ele>202.5</ele>
        <time>2022-01-12T09:59:09Z</time>
      </trkpt>
      <trkpt lat="47.70357" lon="3.49273">
        <ele>202.4</ele>
        <time>2022-01-12T09:59:10Z</time>
      </trkpt>
      <trkpt lat="47.70357" lon="3.49271">
        <ele>202.3</ele>
        <time>2022-01-12T09:59:11Z</time>
      </trkpt>
      <trkpt lat="47.70357" lon="3.4927">
        <ele>202.3</ele>
        <time>2022-01-12T09:59:12Z</time>
      </trkpt>
      <trkpt lat="47.70357" lon="3.49268">
        <ele>202.2</ele>
        <time>2022-01-12T09:59:14Z</time>
      </trkpt>
      <trkpt lat="47.70357" lon="3.49266">
        <ele>202.1</ele>
        <time>2022-01-12T09:59:15Z</time>
      </trkpt>
      <trkpt lat="47.70357" lon="3.49263">
        <ele>202</ele>
        <time>2022-01-12T09:59:16Z</time>
      </trkpt>
      <trkpt lat="47.70357" lon="3.4926">
        <ele>201.8</ele>
        <time>2022-01-12T09:59:18Z</time>
      </trkpt>
      <trkpt lat="47.70357" lon="3.49258">
        <ele>201.7</ele>
        <time>2022-01-12T09:59:19Z</time>
      </trkpt>
      <trkpt lat="47.70357" lon="3.49256">
        <ele>201.6</ele>
        <time>2022-01-12T09:59:20Z</time>
      </trkpt>
      <trkpt lat="47.70357" lon="3.49253">
        <ele>201.5</ele>
        <time>2022-01-12T09:59:21Z</time>
      </trkpt>
      <trkpt lat="47.70356" lon="3.49251">
        <ele>201.4</ele>
        <time>2022-01-12T09:59:22Z</time>
      </trkpt>
      <trkpt lat="47.70356" lon="3.49249">
        <ele>201.3</ele>
        <time>2022-01-12T09:59:24Z</time>
      </trkpt>
      <trkpt lat="47.70356" lon="3.49247">
        <ele>201.2</ele>
        <time>2022-01-12T09:59:25Z</time>
      </trkpt>
      <trkpt lat="47.70356" lon="3.49244">
        <ele>201.1</ele>
        <time>2022-01-12T09:59:26Z</time>
      </trkpt>
      <trkpt lat="47.70356" lon="3.49242">
        <ele>201</ele>
        <time>2022-01-12T09:59:27Z</time>
      </trkpt>
      <trkpt lat="47.70356" lon="3.4924">
        <ele>200.9</ele>
        <time>2022-01-12T09:59:28Z</time>
      </trkpt>
      <trkpt lat="47.70356" lon="3.49238">
        <ele>200.8</ele>
        <time>2022-01-12T09:59:29Z</time>
      </trkpt>
      <trkpt lat="47.70356" lon="3.49235">
        <ele>200.7</ele>
        <time>2022-01-12T09:59:30Z</time>
      </trkpt>
      <trkpt lat="47.70356" lon="3.49234">
        <ele>200.6</ele>
        <time>2022-01-12T09:59:31Z</time>
      </trkpt>
      <trkpt lat="47.70356" lon="3.49233">
        <ele>200.5</ele>
        <time>2022-01-12T09:59:32Z</time>
      </trkpt>
      <trkpt lat="47.70356" lon="3.4923">
        <ele>200.4</ele>
        <time>2022-01-12T09:59:34Z</time>
      </trkpt>
      <trkpt lat="47.70356" lon="3.49228">
        <ele>200.3</ele>
        <time>2022-01-12T09:59:35Z</time>
      </trkpt>
      <trkpt lat="47.70356" lon="3.49225">
        <ele>200.2</ele>
        <time>2022-01-12T09:59:36Z</time>
      </trkpt>
      <trkpt lat="47.70356" lon="3.49223">
        <ele>200.1</ele>
        <time>2022-01-12T09:59:37Z</time>
      </trkpt>
      <trkpt lat="47.70356" lon="3.49222">
        <ele>200.1</ele>
        <time>2022-01-12T09:59:38Z</time>
      </trkpt>
      <trkpt lat="47.70356" lon="3.49219">
        <ele>199.9</ele>
        <time>2022-01-12T09:59:39Z</time>
      </trkpt>
      <trkpt lat="47.70356" lon="3.49218">
        <ele>199.9</ele>
        <time>2022-01-12T09:59:40Z</time>
      </trkpt>
      <trkpt lat="47.70356" lon="3.49216">
        <ele>199.8</ele>
        <time>2022-01-12T09:59:41Z</time>
      </trkpt>
      <trkpt lat="47.70356" lon="3.49214">
        <ele>199.7</ele>
        <time>2022-01-12T09:59:42Z</time>
      </trkpt>
      <trkpt lat="47.70356" lon="3.49212">
        <ele>199.6</ele>
        <time>2022-01-12T09:59:43Z</time>
      </trkpt>
      <trkpt lat="47.70356" lon="3.49209">
        <ele>199.5</ele>
        <time>2022-01-12T09:59:44Z</time>
      </trkpt>
      <trkpt lat="47.70357" lon="3.49207">
        <ele>199.4</ele>
        <time>2022-01-12T09:59:46Z</time>
      </trkpt>
      <trkpt lat="47.70357" lon="3.49206">
        <ele>199.3</ele>
        <time>2022-01-12T09:59:47Z</time>
      </trkpt>
      <trkpt lat="47.70357" lon="3.49203">
        <ele>199.2</ele>
        <time>2022-01-12T09:59:48Z</time>
      </trkpt>
      <trkpt lat="47.70357" lon="3.49201">
        <ele>199.1</ele>
        <time>2022-01-12T09:59:49Z</time>
      </trkpt>
      <trkpt lat="47.70357" lon="3.492">
        <ele>199.1</ele>
        <time>2022-01-12T09:59:50Z</time>
      </trkpt>
      <trkpt lat="47.70357" lon="3.49198">
        <ele>199</ele>
        <time>2022-01-12T09:59:51Z</time>
      </trkpt>
      <trkpt lat="47.70358" lon="3.49197">
        <ele>198.9</ele>
        <time>2022-01-12T09:59:52Z</time>
      </trkpt>
      <trkpt lat="47.70358" lon="3.49195">
        <ele>198.8</ele>
        <time>2022-01-12T09:59:53Z</time>
      </trkpt>
      <trkpt lat="47.70358" lon="3.49193">
        <ele>198.7</ele>
        <time>2022-01-12T09:59:55Z</time>
      </trkpt>
      <trkpt lat="47.70358" lon="3.49191">
        <ele>198.6</ele>
        <time>2022-01-12T09:59:56Z</time>
      </trkpt>
      <trkpt lat="47.70358" lon="3.49188">
        <ele>198.5</ele>
        <time>2022-01-12T09:59:57Z</time>
      </trkpt>
      <trkpt lat="47.70358" lon="3.49186">
        <ele>198.4</ele>
        <time>2022-01-12T09:59:58Z</time>
      </trkpt>
      <trkpt lat="47.70358" lon="3.49185">
        <ele>198.4</ele>
        <time>2022-01-12T09:59:59Z</time>
      </trkpt>
      <trkpt lat="47.70359" lon="3.49181">
        <ele>198.2</ele>
        <time>2022-01-12T10:00:01Z</time>
      </trkpt>
      <trkpt lat="47.70359" lon="3.4918">
        <ele>198.1</ele>
        <time>2022-01-12T10:00:02Z</time>
      </trkpt>
      <trkpt lat="47.70359" lon="3.49178">
        <ele>198</ele>
        <time>2022-01-12T10:00:03Z</time>
      </trkpt>
      <trkpt lat="47.70359" lon="3.49176">
        <ele>197.9</ele>
        <time>2022-01-12T10:00:04Z</time>
      </trkpt>
      <trkpt lat="47.70359" lon="3.49174">
        <ele>197.8</ele>
        <time>2022-01-12T10:00:06Z</time>
      </trkpt>
      <trkpt lat="47.70359" lon="3.49172">
        <ele>197.7</ele>
        <time>2022-01-12T10:00:07Z</time>
      </trkpt>
      <trkpt lat="47.70359" lon="3.4917">
        <ele>197.6</ele>
        <time>2022-01-12T10:00:08Z</time>
      </trkpt>
      <trkpt lat="47.7036" lon="3.49168">
        <ele>197.6</ele>
        <time>2022-01-12T10:00:09Z</time>
      </trkpt>
      <trkpt lat="47.7036" lon="3.49166">
        <ele>197.5</ele>
        <time>2022-01-12T10:00:10Z</time>
      </trkpt>
      <trkpt lat="47.7036" lon="3.49165">
        <ele>197.4</ele>
        <time>2022-01-12T10:00:11Z</time>
      </trkpt>
      <trkpt lat="47.70361" lon="3.49162">
        <ele>197.3</ele>
        <time>2022-01-12T10:00:12Z</time>
      </trkpt>
      <trkpt lat="47.70361" lon="3.4916">
        <ele>197.2</ele>
        <time>2022-01-12T10:00:14Z</time>
      </trkpt>
      <trkpt lat="47.70361" lon="3.49159">
        <ele>197.1</ele>
        <time>2022-01-12T10:00:15Z</time>
      </trkpt>
      <trkpt lat="47.70362" lon="3.49156">
        <ele>197</ele>
        <time>2022-01-12T10:00:16Z</time>
      </trkpt>
      <trkpt lat="47.70362" lon="3.49154">
        <ele>196.9</ele>
        <time>2022-01-12T10:00:17Z</time>
      </trkpt>
      <trkpt lat="47.70362" lon="3.49153">
        <ele>196.9</ele>
        <time>2022-01-12T10:00:18Z</time>
      </trkpt>
      <trkpt lat="47.70362" lon="3.49151">
        <ele>196.8</ele>
        <time>2022-01-12T10:00:20Z</time>
      </trkpt>
      <trkpt lat="47.70362" lon="3.49149">
        <ele>196.6</ele>
        <time>2022-01-12T10:00:21Z</time>
      </trkpt>
      <trkpt lat="47.70363" lon="3.49148">
        <ele>196.5</ele>
        <time>2022-01-12T10:00:22Z</time>
      </trkpt>
      <trkpt lat="47.70363" lon="3.49145">
        <ele>196.4</ele>
        <time>2022-01-12T10:00:23Z</time>
      </trkpt>
      <trkpt lat="47.70363" lon="3.49144">
        <ele>196.3</ele>
        <time>2022-01-12T10:00:24Z</time>
      </trkpt>
      <trkpt lat="47.70364" lon="3.49142">
        <ele>196.1</ele>
        <time>2022-01-12T10:00:25Z</time>
      </trkpt>
      <trkpt lat="47.70364" lon="3.4914">
        <ele>196</ele>
        <time>2022-01-12T10:00:27Z</time>
      </trkpt>
      <trkpt lat="47.70364" lon="3.49138">
        <ele>196</ele>
        <time>2022-01-12T10:00:28Z</time>
      </trkpt>
      <trkpt lat="47.70365" lon="3.49136">
        <ele>195.8</ele>
        <time>2022-01-12T10:00:29Z</time>
      </trkpt>
      <trkpt lat="47.70365" lon="3.49135">
        <ele>195.7</ele>
        <time>2022-01-12T10:00:30Z</time>
      </trkpt>
      <trkpt lat="47.70365" lon="3.49132">
        <ele>195.6</ele>
        <time>2022-01-12T10:00:31Z</time>
      </trkpt>
      <trkpt lat="47.70365" lon="3.49131">
        <ele>195.5</ele>
        <time>2022-01-12T10:00:32Z</time>
      </trkpt>
      <trkpt lat="47.70365" lon="3.49129">
        <ele>195.3</ele>
        <time>2022-01-12T10:00:33Z</time>
      </trkpt>
      <trkpt lat="47.70365" lon="3.49127">
        <ele>195.3</ele>
        <time>2022-01-12T10:00:34Z</time>
      </trkpt>
      <trkpt lat="47.70365" lon="3.49125">
        <ele>195.1</ele>
        <time>2022-01-12T10:00:35Z</time>
      </trkpt>
      <trkpt lat="47.70365" lon="3.49123">
        <ele>195</ele>
        <time>2022-01-12T10:00:37Z</time>
      </trkpt>
      <trkpt lat="47.70365" lon="3.49121">
        <ele>194.9</ele>
        <time>2022-01-12T10:00:38Z</time>
      </trkpt>
      <trkpt lat="47.70365" lon="3.49119">
        <ele>194.8</ele>
        <time>2022-01-12T10:00:39Z</time>
      </trkpt>
      <trkpt lat="47.70365" lon="3.49117">
        <ele>194.6</ele>
        <time>2022-01-12T10:00:40Z</time>
      </trkpt>
      <trkpt lat="47.70365" lon="3.49115">
        <ele>194.5</ele>
        <time>2022-01-12T10:00:41Z</time>
      </trkpt>
      <trkpt lat="47.70365" lon="3.49112">
        <ele>194.4</ele>
        <time>2022-01-12T10:00:42Z</time>
      </trkpt>
      <trkpt lat="47.70365" lon="3.49111">
        <ele>194.2</ele>
        <time>2022-01-12T10:00:43Z</time>
      </trkpt>
      <trkpt lat="47.70365" lon="3.49109">
        <ele>194.1</ele>
        <time>2022-01-12T10:00:45Z</time>
      </trkpt>
      <trkpt lat="47.70365" lon="3.49107">
        <ele>194</ele>
        <time>2022-01-12T10:00:46Z</time>
      </trkpt>
      <trkpt lat="47.70365" lon="3.49103">
        <ele>193.8</ele>
        <time>2022-01-12T10:00:47Z</time>
      </trkpt>
      <trkpt lat="47.70365" lon="3.49102">
        <ele>193.7</ele>
        <time>2022-01-12T10:00:48Z</time>
      </trkpt>
      <trkpt lat="47.70366" lon="3.49101">
        <ele>193.6</ele>
        <time>2022-01-12T10:00:49Z</time>
      </trkpt>
      <trkpt lat="47.70366" lon="3.49099">
        <ele>193.5</ele>
        <time>2022-01-12T10:00:50Z</time>
      </trkpt>
      <trkpt lat="47.70366" lon="3.49098">
        <ele>193.4</ele>
        <time>2022-01-12T10:00:51Z</time>
      </trkpt>
      <trkpt lat="47.70366" lon="3.49096">
        <ele>193.3</ele>
        <time>2022-01-12T10:00:52Z</time>
      </trkpt>
      <trkpt lat="47.70365" lon="3.49094">
        <ele>193.2</ele>
        <time>2022-01-12T10:00:53Z</time>
      </trkpt>
      <trkpt lat="47.70365" lon="3.49093">
        <ele>193.1</ele>
        <time>2022-01-12T10:00:54Z</time>
      </trkpt>
      <trkpt lat="47.70365" lon="3.4909">
        <ele>193</ele>
        <time>2022-01-12T10:00:56Z</time>
      </trkpt>
      <trkpt lat="47.70365" lon="3.49088">
        <ele>192.9</ele>
        <time>2022-01-12T10:00:57Z</time>
      </trkpt>
      <trkpt lat="47.70364" lon="3.49088">
        <ele>192.9</ele>
        <time>2022-01-12T10:00:58Z</time>
      </trkpt>
      <trkpt lat="47.70364" lon="3.49088">
        <ele>192.8</ele>
        <time>2022-01-12T10:00:59Z</time>
      </trkpt>
      <trkpt lat="47.70364" lon="3.49088">
        <ele>192.8</ele>
        <time>2022-01-12T10:01:00Z</time>
      </trkpt>
      <trkpt lat="47.70364" lon="3.49089">
        <ele>192.7</ele>
        <time>2022-01-12T10:01:01Z</time>
      </trkpt>
      <trkpt lat="47.70364" lon="3.49089">
        <ele>192.7</ele>
        <time>2022-01-12T10:01:02Z</time>
      </trkpt>
      <trkpt lat="47.70364" lon="3.49089">
        <ele>192.7</ele>
        <time>2022-01-12T10:01:03Z</time>
      </trkpt>
      <trkpt lat="47.70364" lon="3.4909">
        <ele>192.6</ele>
        <time>2022-01-12T10:01:04Z</time>
      </trkpt>
      <trkpt lat="47.70364" lon="3.4909">
        <ele>192.6</ele>
        <time>2022-01-12T10:01:05Z</time>
      </trkpt>
      <trkpt lat="47.70364" lon="3.49091">
        <ele>192.5</ele>
        <time>2022-01-12T10:01:06Z</time>
      </trkpt>
      <trkpt lat="47.70364" lon="3.49092">
        <ele>192.4</ele>
        <time>2022-01-12T10:01:07Z</time>
      </trkpt>
      <trkpt lat="47.70364" lon="3.49093">
        <ele>192.4</ele>
        <time>2022-01-12T10:01:08Z</time>
      </trkpt>
      <trkpt lat="47.70364" lon="3.49094">
        <ele>192.4</ele>
        <time>2022-01-12T10:01:09Z</time>
      </trkpt>
      <trkpt lat="47.70364" lon="3.49094">
        <ele>192.4</ele>
        <time>2022-01-12T10:01:11Z</time>
      </trkpt>
      <trkpt lat="47.70364" lon="3.49094">
        <ele>192.3</ele>
        <time>2022-01-12T10:01:12Z</time>
      </trkpt>
      <trkpt lat="47.70364" lon="3.49094">
        <ele>192.3</ele>
        <time>2022-01-12T10:01:13Z</time>
      </trkpt>
      <trkpt lat="47.70365" lon="3.49094">
        <ele>192.3</ele>
        <time>2022-01-12T10:01:14Z</time>
      </trkpt>
      <trkpt lat="47.70365" lon="3.49095">
        <ele>192.2</ele>
        <time>2022-01-12T10:01:15Z</time>
      </trkpt>
      <trkpt lat="47.70365" lon="3.49095">
        <ele>192.2</ele>
        <time>2022-01-12T10:01:16Z</time>
      </trkpt>
      <trkpt lat="47.70365" lon="3.49096">
        <ele>192.2</ele>
        <time>2022-01-12T10:01:17Z</time>
      </trkpt>
      <trkpt lat="47.70365" lon="3.49096">
        <ele>192.1</ele>
        <time>2022-01-12T10:01:18Z</time>
      </trkpt>
      <trkpt lat="47.70365" lon="3.49096">
        <ele>192.1</ele>
        <time>2022-01-12T10:01:20Z</time>
      </trkpt>
      <trkpt lat="47.70365" lon="3.49097">
        <ele>192.1</ele>
        <time>2022-01-12T10:01:21Z</time>
      </trkpt>
      <trkpt lat="47.70365" lon="3.49097">
        <ele>192</ele>
        <time>2022-01-12T10:01:22Z</time>
      </trkpt>
      <trkpt lat="47.70365" lon="3.49098">
        <ele>192</ele>
        <time>2022-01-12T10:01:24Z</time>
      </trkpt>
      <trkpt lat="47.70365" lon="3.49098">
        <ele>192</ele>
        <time>2022-01-12T10:01:25Z</time>
      </trkpt>
      <trkpt lat="47.70365" lon="3.49098">
        <ele>191.9</ele>
        <time>2022-01-12T10:01:26Z</time>
      </trkpt>
      <trkpt lat="47.70365" lon="3.49098">
        <ele>191.9</ele>
        <time>2022-01-12T10:01:27Z</time>
      </trkpt>
      <trkpt lat="47.70366" lon="3.49098">
        <ele>191.9</ele>
        <time>2022-01-12T10:01:28Z</time>
      </trkpt>
      <trkpt lat="47.70366" lon="3.49099">
        <ele>191.9</ele>
        <time>2022-01-12T10:01:29Z</time>
      </trkpt>
      <trkpt lat="47.70366" lon="3.49099">
        <ele>191.9</ele>
        <time>2022-01-12T10:01:30Z</time>
      </trkpt>
      <trkpt lat="47.70366" lon="3.49099">
        <ele>191.8</ele>
        <time>2022-01-12T10:01:31Z</time>
      </trkpt>
      <trkpt lat="47.70366" lon="3.49099">
        <ele>191.8</ele>
        <time>2022-01-12T10:01:32Z</time>
      </trkpt>
      <trkpt lat="47.70366" lon="3.49099">
        <ele>191.8</ele>
        <time>2022-01-12T10:01:33Z</time>
      </trkpt>
      <trkpt lat="47.70366" lon="3.49099">
        <ele>191.7</ele>
        <time>2022-01-12T10:01:34Z</time>
      </trkpt>
      <trkpt lat="47.70366" lon="3.49099">
        <ele>191.7</ele>
        <time>2022-01-12T10:01:35Z</time>
      </trkpt>
      <trkpt lat="47.70366" lon="3.491">
        <ele>191.7</ele>
        <time>2022-01-12T10:01:36Z</time>
      </trkpt>
      <trkpt lat="47.70366" lon="3.491">
        <ele>191.7</ele>
        <time>2022-01-12T10:01:37Z</time>
      </trkpt>
      <trkpt lat="47.70366" lon="3.491">
        <ele>191.7</ele>
        <time>2022-01-12T10:01:38Z</time>
      </trkpt>
      <trkpt lat="47.70366" lon="3.491">
        <ele>191.6</ele>
        <time>2022-01-12T10:01:39Z</time>
      </trkpt>
      <trkpt lat="47.70366" lon="3.491">
        <ele>191.6</ele>
        <time>2022-01-12T10:01:40Z</time>
      </trkpt>
      <trkpt lat="47.70366" lon="3.491">
        <ele>191.6</ele>
        <time>2022-01-12T10:01:41Z</time>
      </trkpt>
      <trkpt lat="47.70366" lon="3.491">
        <ele>191.6</ele>
        <time>2022-01-12T10:01:42Z</time>
      </trkpt>
      <trkpt lat="47.70365" lon="3.491">
        <ele>191.5</ele>
        <time>2022-01-12T10:01:43Z</time>
      </trkpt>
      <trkpt lat="47.70365" lon="3.491">
        <ele>191.5</ele>
        <time>2022-01-12T10:01:44Z</time>
      </trkpt>
      <trkpt lat="47.70366" lon="3.49101">
        <ele>191.4</ele>
        <time>2022-01-12T10:01:45Z</time>
      </trkpt>
      <trkpt lat="47.70366" lon="3.49101">
        <ele>191.4</ele>
        <time>2022-01-12T10:01:46Z</time>
      </trkpt>
      <trkpt lat="47.70366" lon="3.49102">
        <ele>191.4</ele>
        <time>2022-01-12T10:01:47Z</time>
      </trkpt>
      <trkpt lat="47.70366" lon="3.49102">
        <ele>191.3</ele>
        <time>2022-01-12T10:01:48Z</time>
      </trkpt>
      <trkpt lat="47.70366" lon="3.49102">
        <ele>191.3</ele>
        <time>2022-01-12T10:01:49Z</time>
      </trkpt>
      <trkpt lat="47.70366" lon="3.49102">
        <ele>191.3</ele>
        <time>2022-01-12T10:01:50Z</time>
      </trkpt>
      <trkpt lat="47.70366" lon="3.49102">
        <ele>191.3</ele>
        <time>2022-01-12T10:01:51Z</time>
      </trkpt>
      <trkpt lat="47.70366" lon="3.49102">
        <ele>191.3</ele>
        <time>2022-01-12T10:01:52Z</time>
      </trkpt>
      <trkpt lat="47.70366" lon="3.49102">
        <ele>191.2</ele>
        <time>2022-01-12T10:01:53Z</time>
      </trkpt>
      <trkpt lat="47.70366" lon="3.49102">
        <ele>191.2</ele>
        <time>2022-01-12T10:01:54Z</time>
      </trkpt>
      <trkpt lat="47.70366" lon="3.49102">
        <ele>191.2</ele>
        <time>2022-01-12T10:01:55Z</time>
      </trkpt>
      <trkpt lat="47.70365" lon="3.49101">
        <ele>191.2</ele>
        <time>2022-01-12T10:01:56Z</time>
      </trkpt>
      <trkpt lat="47.70365" lon="3.49101">
        <ele>191.2</ele>
        <time>2022-01-12T10:01:57Z</time>
      </trkpt>
      <trkpt lat="47.70365" lon="3.49101">
        <ele>191.1</ele>
        <time>2022-01-12T10:01:58Z</time>
      </trkpt>
      <trkpt lat="47.70366" lon="3.49101">
        <ele>191.1</ele>
        <time>2022-01-12T10:01:59Z</time>
      </trkpt>
      <trkpt lat="47.70366" lon="3.49101">
        <ele>191.1</ele>
        <time>2022-01-12T10:02:00Z</time>
      </trkpt>
      <trkpt lat="47.70366" lon="3.49101">
        <ele>191.1</ele>
        <time>2022-01-12T10:02:01Z</time>
      </trkpt>
      <trkpt lat="47.70366" lon="3.49101">
        <ele>191.1</ele>
        <time>2022-01-12T10:02:02Z</time>
      </trkpt>
      <trkpt lat="47.70367" lon="3.49102">
        <ele>191.1</ele>
        <time>2022-01-12T10:02:03Z</time>
      </trkpt>
      <trkpt lat="47.70367" lon="3.49102">
        <ele>191</ele>
        <time>2022-01-12T10:02:04Z</time>
      </trkpt>
      <trkpt lat="47.70367" lon="3.49102">
        <ele>191</ele>
        <time>2022-01-12T10:02:05Z</time>
      </trkpt>
      <trkpt lat="47.70367" lon="3.49102">
        <ele>191</ele>
        <time>2022-01-12T10:02:06Z</time>
      </trkpt>
      <trkpt lat="47.70367" lon="3.49102">
        <ele>191</ele>
        <time>2022-01-12T10:02:07Z</time>
      </trkpt>
      <trkpt lat="47.70367" lon="3.49103">
        <ele>191</ele>
        <time>2022-01-12T10:02:08Z</time>
      </trkpt>
      <trkpt lat="47.70367" lon="3.49103">
        <ele>191</ele>
        <time>2022-01-12T10:02:09Z</time>
      </trkpt>
      <trkpt lat="47.70367" lon="3.49102">
        <ele>191</ele>
        <time>2022-01-12T10:02:10Z</time>
      </trkpt>
      <trkpt lat="47.70367" lon="3.49102">
        <ele>191</ele>
        <time>2022-01-12T10:02:11Z</time>
      </trkpt>
      <trkpt lat="47.70367" lon="3.49102">
        <ele>191</ele>
        <time>2022-01-12T10:02:12Z</time>
      </trkpt>
      <trkpt lat="47.70367" lon="3.49102">
        <ele>191</ele>
        <time>2022-01-12T10:02:13Z</time>
      </trkpt>
      <trkpt lat="47.70367" lon="3.49102">
        <ele>191</ele>
        <time>2022-01-12T10:02:14Z</time>
      </trkpt>
      <trkpt lat="47.70366" lon="3.49102">
        <ele>191</ele>
        <time>2022-01-12T10:02:15Z</time>
      </trkpt>
      <trkpt lat="47.70365" lon="3.49101">
        <ele>191</ele>
        <time>2022-01-12T10:02:16Z</time>
      </trkpt>
      <trkpt lat="47.70364" lon="3.49101">
        <ele>191</ele>
        <time>2022-01-12T10:02:17Z</time>
      </trkpt>
      <trkpt lat="47.70364" lon="3.49101">
        <ele>191</ele>
        <time>2022-01-12T10:02:18Z</time>
      </trkpt>
      <trkpt lat="47.70364" lon="3.491">
        <ele>191</ele>
        <time>2022-01-12T10:02:19Z</time>
      </trkpt>
      <trkpt lat="47.70364" lon="3.491">
        <ele>191</ele>
        <time>2022-01-12T10:02:20Z</time>
      </trkpt>
      <trkpt lat="47.70364" lon="3.491">
        <ele>191</ele>
        <time>2022-01-12T10:02:21Z</time>
      </trkpt>
      <trkpt lat="47.70364" lon="3.491">
        <ele>191</ele>
        <time>2022-01-12T10:02:22Z</time>
      </trkpt>
      <trkpt lat="47.70364" lon="3.491">
        <ele>191</ele>
        <time>2022-01-12T10:02:23Z</time>
      </trkpt>
      <trkpt lat="47.70364" lon="3.491">
        <ele>191</ele>
        <time>2022-01-12T10:02:24Z</time>
      </trkpt>
      <trkpt lat="47.70363" lon="3.49099">
        <ele>191</ele>
        <time>2022-01-12T10:02:25Z</time>
      </trkpt>
      <trkpt lat="47.70363" lon="3.49099">
        <ele>191</ele>
        <time>2022-01-12T10:02:26Z</time>
      </trkpt>
      <trkpt lat="47.70363" lon="3.49098">
        <ele>190.9</ele>
        <time>2022-01-12T10:02:27Z</time>
      </trkpt>
      <trkpt lat="47.70363" lon="3.49098">
        <ele>190.9</ele>
        <time>2022-01-12T10:02:28Z</time>
      </trkpt>
      <trkpt lat="47.70363" lon="3.49098">
        <ele>190.9</ele>
        <time>2022-01-12T10:02:29Z</time>
      </trkpt>
      <trkpt lat="47.70363" lon="3.49098">
        <ele>190.9</ele>
        <time>2022-01-12T10:02:30Z</time>
      </trkpt>
      <trkpt lat="47.70363" lon="3.49098">
        <ele>190.9</ele>
        <time>2022-01-12T10:02:31Z</time>
      </trkpt>
      <trkpt lat="47.70363" lon="3.49097">
        <ele>190.9</ele>
        <time>2022-01-12T10:02:32Z</time>
      </trkpt>
      <trkpt lat="47.70363" lon="3.49097">
        <ele>190.9</ele>
        <time>2022-01-12T10:02:33Z</time>
      </trkpt>
      <trkpt lat="47.70363" lon="3.49097">
        <ele>190.9</ele>
        <time>2022-01-12T10:02:34Z</time>
      </trkpt>
      <trkpt lat="47.70363" lon="3.49097">
        <ele>190.9</ele>
        <time>2022-01-12T10:02:35Z</time>
      </trkpt>
      <trkpt lat="47.70363" lon="3.49097">
        <ele>190.9</ele>
        <time>2022-01-12T10:02:36Z</time>
      </trkpt>
      <trkpt lat="47.70363" lon="3.49097">
        <ele>190.9</ele>
        <time>2022-01-12T10:02:37Z</time>
      </trkpt>
      <trkpt lat="47.70363" lon="3.49098">
        <ele>190.9</ele>
        <time>2022-01-12T10:02:38Z</time>
      </trkpt>
      <trkpt lat="47.70363" lon="3.49098">
        <ele>190.9</ele>
        <time>2022-01-12T10:02:39Z</time>
      </trkpt>
      <trkpt lat="47.70363" lon="3.49098">
        <ele>190.9</ele>
        <time>2022-01-12T10:02:40Z</time>
      </trkpt>
      <trkpt lat="47.70363" lon="3.49098">
        <ele>190.9</ele>
        <time>2022-01-12T10:02:41Z</time>
      </trkpt>
      <trkpt lat="47.70364" lon="3.49098">
        <ele>190.9</ele>
        <time>2022-01-12T10:02:42Z</time>
      </trkpt>
      <trkpt lat="47.70364" lon="3.49098">
        <ele>190.9</ele>
        <time>2022-01-12T10:02:43Z</time>
      </trkpt>
      <trkpt lat="47.70364" lon="3.49098">
        <ele>190.9</ele>
        <time>2022-01-12T10:02:44Z</time>
      </trkpt>
      <trkpt lat="47.70364" lon="3.49098">
        <ele>190.9</ele>
        <time>2022-01-12T10:02:45Z</time>
      </trkpt>
      <trkpt lat="47.70364" lon="3.49098">
        <ele>190.9</ele>
        <time>2022-01-12T10:02:46Z</time>
      </trkpt>
      <trkpt lat="47.70364" lon="3.49098">
        <ele>190.9</ele>
        <time>2022-01-12T10:02:47Z</time>
      </trkpt>
      <trkpt lat="47.70365" lon="3.49098">
        <ele>190.9</ele>
        <time>2022-01-12T10:02:48Z</time>
      </trkpt>
      <trkpt lat="47.70365" lon="3.49098">
        <ele>190.9</ele>
        <time>2022-01-12T10:02:49Z</time>
      </trkpt>
      <trkpt lat="47.70365" lon="3.49098">
        <ele>190.9</ele>
        <time>2022-01-12T10:02:50Z</time>
      </trkpt>
      <trkpt lat="47.70365" lon="3.49098">
        <ele>190.9</ele>
        <time>2022-01-12T10:02:51Z</time>
      </trkpt>
      <trkpt lat="47.70365" lon="3.49098">
        <ele>190.9</ele>
        <time>2022-01-12T10:02:52Z</time>
      </trkpt>
      <trkpt lat="47.70365" lon="3.49098">
        <ele>190.9</ele>
        <time>2022-01-12T10:02:53Z</time>
      </trkpt>
      <trkpt lat="47.70365" lon="3.49099">
        <ele>190.9</ele>
        <time>2022-01-12T10:02:54Z</time>
      </trkpt>
      <trkpt lat="47.70365" lon="3.49099">
        <ele>190.9</ele>
        <time>2022-01-12T10:02:55Z</time>
      </trkpt>
      <trkpt lat="47.70365" lon="3.491">
        <ele>190.9</ele>
        <time>2022-01-12T10:02:56Z</time>
      </trkpt>
      <trkpt lat="47.70365" lon="3.49099">
        <ele>190.9</ele>
        <time>2022-01-12T10:02:57Z</time>
      </trkpt>
      <trkpt lat="47.70365" lon="3.491">
        <ele>190.9</ele>
        <time>2022-01-12T10:02:58Z</time>
      </trkpt>
      <trkpt lat="47.70365" lon="3.491">
        <ele>190.9</ele>
        <time>2022-01-12T10:02:59Z</time>
      </trkpt>
      <trkpt lat="47.70365" lon="3.491">
        <ele>190.9</ele>
        <time>2022-01-12T10:03:00Z</time>
      </trkpt>
      <trkpt lat="47.70365" lon="3.491">
        <ele>190.9</ele>
        <time>2022-01-12T10:03:01Z</time>
      </trkpt>
      <trkpt lat="47.70365" lon="3.49099">
        <ele>190.9</ele>
        <time>2022-01-12T10:03:02Z</time>
      </trkpt>
      <trkpt lat="47.70365" lon="3.49099">
        <ele>190.9</ele>
        <time>2022-01-12T10:03:03Z</time>
      </trkpt>
      <trkpt lat="47.70366" lon="3.49099">
        <ele>190.9</ele>
        <time>2022-01-12T10:03:04Z</time>
      </trkpt>
      <trkpt lat="47.70366" lon="3.49099">
        <ele>190.9</ele>
        <time>2022-01-12T10:03:05Z</time>
      </trkpt>
      <trkpt lat="47.70366" lon="3.49099">
        <ele>190.9</ele>
        <time>2022-01-12T10:03:06Z</time>
      </trkpt>
      <trkpt lat="47.70366" lon="3.49099">
        <ele>190.9</ele>
        <time>2022-01-12T10:03:07Z</time>
      </trkpt>
      <trkpt lat="47.70366" lon="3.49098">
        <ele>190.9</ele>
        <time>2022-01-12T10:03:08Z</time>
      </trkpt>
      <trkpt lat="47.70366" lon="3.49098">
        <ele>190.9</ele>
        <time>2022-01-12T10:03:09Z</time>
      </trkpt>
      <trkpt lat="47.70366" lon="3.49098">
        <ele>190.9</ele>
        <time>2022-01-12T10:03:10Z</time>
      </trkpt>
      <trkpt lat="47.70366" lon="3.49098">
        <ele>190.9</ele>
        <time>2022-01-12T10:03:11Z</time>
      </trkpt>
      <trkpt lat="47.70366" lon="3.49098">
        <ele>190.9</ele>
        <time>2022-01-12T10:03:12Z</time>
      </trkpt>
      <trkpt lat="47.70366" lon="3.49098">
        <ele>190.9</ele>
        <time>2022-01-12T10:03:13Z</time>
      </trkpt>
      <trkpt lat="47.70366" lon="3.49098">
        <ele>190.9</ele>
        <time>2022-01-12T10:03:14Z</time>
      </trkpt>
      <trkpt lat="47.70366" lon="3.49098">
        <ele>190.9</ele>
        <time>2022-01-12T10:03:15Z</time>
      </trkpt>
      <trkpt lat="47.70366" lon="3.49098">
        <ele>190.9</ele>
        <time>2022-01-12T10:03:16Z</time>
      </trkpt>
      <trkpt lat="47.70366" lon="3.49098">
        <ele>190.9</ele>
        <time>2022-01-12T10:03:17Z</time>
      </trkpt>
      <trkpt lat="47.70366" lon="3.49098">
        <ele>190.9</ele>
        <time>2022-01-12T10:03:18Z</time>
      </trkpt>
      <trkpt lat="47.70366" lon="3.49098">
        <ele>190.9</ele>
        <time>2022-01-12T10:03:19Z</time>
      </trkpt>
      <trkpt lat="47.70367" lon="3.49098">
        <ele>190.9</ele>
        <time>2022-01-12T10:03:20Z</time>
      </trkpt>
      <trkpt lat="47.70367" lon="3.49098">
        <ele>190.9</ele>
        <time>2022-01-12T10:03:21Z</time>
      </trkpt>
      <trkpt lat="47.70367" lon="3.49098">
        <ele>190.9</ele>
        <time>2022-01-12T10:03:22Z</time>
      </trkpt>
      <trkpt lat="47.70367" lon="3.49098">
        <ele>190.9</ele>
        <time>2022-01-12T10:03:23Z</time>
      </trkpt>
      <trkpt lat="47.70367" lon="3.49098">
        <ele>190.9</ele>
        <time>2022-01-12T10:03:24Z</time>
      </trkpt>
      <trkpt lat="47.70367" lon="3.49098">
        <ele>190.9</ele>
        <time>2022-01-12T10:03:25Z</time>
      </trkpt>
      <trkpt lat="47.70367" lon="3.49098">
        <ele>190.8</ele>
        <time>2022-01-12T10:03:26Z</time>
      </trkpt>
      <trkpt lat="47.70367" lon="3.49098">
        <ele>190.8</ele>
        <time>2022-01-12T10:03:27Z</time>
      </trkpt>
      <trkpt lat="47.70367" lon="3.49098">
        <ele>190.8</ele>
        <time>2022-01-12T10:03:28Z</time>
      </trkpt>
      <trkpt lat="47.70367" lon="3.49098">
        <ele>190.8</ele>
        <time>2022-01-12T10:03:29Z</time>
      </trkpt>
      <trkpt lat="47.70367" lon="3.49098">
        <ele>190.8</ele>
        <time>2022-01-12T10:03:30Z</time>
      </trkpt>
      <trkpt lat="47.70367" lon="3.49098">
        <ele>190.8</ele>
        <time>2022-01-12T10:03:31Z</time>
      </trkpt>
      <trkpt lat="47.70367" lon="3.49098">
        <ele>190.8</ele>
        <time>2022-01-12T10:03:32Z</time>
      </trkpt>
      <trkpt lat="47.70366" lon="3.49098">
        <ele>190.8</ele>
        <time>2022-01-12T10:03:33Z</time>
      </trkpt>
      <trkpt lat="47.70366" lon="3.49097">
        <ele>190.8</ele>
        <time>2022-01-12T10:03:34Z</time>
      </trkpt>
      <trkpt lat="47.70366" lon="3.49097">
        <ele>190.8</ele>
        <time>2022-01-12T10:03:35Z</time>
      </trkpt>
      <trkpt lat="47.70366" lon="3.49097">
        <ele>190.8</ele>
        <time>2022-01-12T10:03:36Z</time>
      </trkpt>
      <trkpt lat="47.70366" lon="3.49097">
        <ele>190.8</ele>
        <time>2022-01-12T10:03:37Z</time>
      </trkpt>
      <trkpt lat="47.70365" lon="3.49097">
        <ele>190.8</ele>
        <time>2022-01-12T10:03:38Z</time>
      </trkpt>
      <trkpt lat="47.70365" lon="3.49097">
        <ele>190.8</ele>
        <time>2022-01-12T10:03:39Z</time>
      </trkpt>
      <trkpt lat="47.70365" lon="3.49097">
        <ele>190.8</ele>
        <time>2022-01-12T10:03:40Z</time>
      </trkpt>
      <trkpt lat="47.70365" lon="3.49097">
        <ele>190.8</ele>
        <time>2022-01-12T10:03:41Z</time>
      </trkpt>
      <trkpt lat="47.70365" lon="3.49097">
        <ele>190.8</ele>
        <time>2022-01-12T10:03:42Z</time>
      </trkpt>
      <trkpt lat="47.70365" lon="3.49097">
        <ele>190.8</ele>
        <time>2022-01-12T10:03:43Z</time>
      </trkpt>
      <trkpt lat="47.70365" lon="3.49097">
        <ele>190.8</ele>
        <time>2022-01-12T10:03:44Z</time>
      </trkpt>
      <trkpt lat="47.70366" lon="3.49097">
        <ele>190.8</ele>
        <time>2022-01-12T10:03:45Z</time>
      </trkpt>
      <trkpt lat="47.70366" lon="3.49098">
        <ele>190.8</ele>
        <time>2022-01-12T10:03:46Z</time>
      </trkpt>
      <trkpt lat="47.70367" lon="3.49098">
        <ele>190.8</ele>
        <time>2022-01-12T10:03:47Z</time>
      </trkpt>
      <trkpt lat="47.70367" lon="3.49098">
        <ele>190.8</ele>
        <time>2022-01-12T10:03:48Z</time>
      </trkpt>
      <trkpt lat="47.70367" lon="3.49098">
        <ele>190.8</ele>
        <time>2022-01-12T10:03:49Z</time>
      </trkpt>
      <trkpt lat="47.70367" lon="3.49098">
        <ele>190.8</ele>
        <time>2022-01-12T10:03:50Z</time>
      </trkpt>
      <trkpt lat="47.70367" lon="3.49098">
        <ele>190.8</ele>
        <time>2022-01-12T10:03:51Z</time>
      </trkpt>
      <trkpt lat="47.70367" lon="3.49097">
        <ele>190.8</ele>
        <time>2022-01-12T10:03:52Z</time>
      </trkpt>
      <trkpt lat="47.70366" lon="3.49097">
        <ele>190.8</ele>
        <time>2022-01-12T10:03:53Z</time>
      </trkpt>
      <trkpt lat="47.70366" lon="3.49097">
        <ele>190.8</ele>
        <time>2022-01-12T10:03:54Z</time>
      </trkpt>
      <trkpt lat="47.70366" lon="3.49097">
        <ele>190.8</ele>
        <time>2022-01-12T10:03:55Z</time>
      </trkpt>
      <trkpt lat="47.70366" lon="3.49097">
        <ele>190.8</ele>
        <time>2022-01-12T10:03:56Z</time>
      </trkpt>
      <trkpt lat="47.70367" lon="3.49097">
        <ele>190.8</ele>
        <time>2022-01-12T10:03:57Z</time>
      </trkpt>
      <trkpt lat="47.70367" lon="3.49096">
        <ele>190.8</ele>
        <time>2022-01-12T10:03:58Z</time>
      </trkpt>
      <trkpt lat="47.70367" lon="3.49095">
        <ele>190.8</ele>
        <time>2022-01-12T10:03:59Z</time>
      </trkpt>
      <trkpt lat="47.70367" lon="3.49095">
        <ele>190.8</ele>
        <time>2022-01-12T10:04:00Z</time>
      </trkpt>
      <trkpt lat="47.70368" lon="3.49096">
        <ele>190.8</ele>
        <time>2022-01-12T10:04:01Z</time>
      </trkpt>
      <trkpt lat="47.70368" lon="3.49096">
        <ele>190.8</ele>
        <time>2022-01-12T10:04:02Z</time>
      </trkpt>
      <trkpt lat="47.70368" lon="3.49096">
        <ele>190.8</ele>
        <time>2022-01-12T10:04:03Z</time>
      </trkpt>
      <trkpt lat="47.70367" lon="3.49096">
        <ele>190.8</ele>
        <time>2022-01-12T10:04:04Z</time>
      </trkpt>
      <trkpt lat="47.70367" lon="3.49096">
        <ele>190.8</ele>
        <time>2022-01-12T10:04:05Z</time>
      </trkpt>
      <trkpt lat="47.70367" lon="3.49096">
        <ele>190.8</ele>
        <time>2022-01-12T10:04:06Z</time>
      </trkpt>
      <trkpt lat="47.70367" lon="3.49096">
        <ele>190.8</ele>
        <time>2022-01-12T10:04:07Z</time>
      </trkpt>
      <trkpt lat="47.70367" lon="3.49096">
        <ele>190.8</ele>
        <time>2022-01-12T10:04:08Z</time>
      </trkpt>
      <trkpt lat="47.70368" lon="3.49096">
        <ele>190.8</ele>
        <time>2022-01-12T10:04:09Z</time>
      </trkpt>
      <trkpt lat="47.70368" lon="3.49097">
        <ele>190.8</ele>
        <time>2022-01-12T10:04:10Z</time>
      </trkpt>
      <trkpt lat="47.70368" lon="3.49097">
        <ele>190.8</ele>
        <time>2022-01-12T10:04:11Z</time>
      </trkpt>
      <trkpt lat="47.70368" lon="3.49097">
        <ele>190.8</ele>
        <time>2022-01-12T10:04:12Z</time>
      </trkpt>
      <trkpt lat="47.70368" lon="3.49097">
        <ele>190.7</ele>
        <time>2022-01-12T10:04:13Z</time>
      </trkpt>
      <trkpt lat="47.70368" lon="3.49097">
        <ele>190.7</ele>
        <time>2022-01-12T10:04:14Z</time>
      </trkpt>
      <trkpt lat="47.70368" lon="3.49097">
        <ele>190.7</ele>
        <time>2022-01-12T10:04:15Z</time>
      </trkpt>
      <trkpt lat="47.70368" lon="3.49097">
        <ele>190.7</ele>
        <time>2022-01-12T10:04:16Z</time>
      </trkpt>
      <trkpt lat="47.70368" lon="3.49097">
        <ele>190.7</ele>
        <time>2022-01-12T10:04:17Z</time>
      </trkpt>
      <trkpt lat="47.70368" lon="3.49097">
        <ele>190.7</ele>
        <time>2022-01-12T10:04:18Z</time>
      </trkpt>
      <trkpt lat="47.70368" lon="3.49096">
        <ele>190.7</ele>
        <time>2022-01-12T10:04:19Z</time>
      </trkpt>
      <trkpt lat="47.70368" lon="3.49096">
        <ele>190.7</ele>
        <time>2022-01-12T10:04:20Z</time>
      </trkpt>
      <trkpt lat="47.70367" lon="3.49096">
        <ele>190.7</ele>
        <time>2022-01-12T10:04:21Z</time>
      </trkpt>
      <trkpt lat="47.70367" lon="3.49096">
        <ele>190.7</ele>
        <time>2022-01-12T10:04:22Z</time>
      </trkpt>
      <trkpt lat="47.70367" lon="3.49096">
        <ele>190.7</ele>
        <time>2022-01-12T10:04:23Z</time>
      </trkpt>
      <trkpt lat="47.70367" lon="3.49096">
        <ele>190.7</ele>
        <time>2022-01-12T10:04:24Z</time>
      </trkpt>
      <trkpt lat="47.70367" lon="3.49096">
        <ele>190.7</ele>
        <time>2022-01-12T10:04:25Z</time>
      </trkpt>
      <trkpt lat="47.70367" lon="3.49096">
        <ele>190.7</ele>
        <time>2022-01-12T10:04:26Z</time>
      </trkpt>
      <trkpt lat="47.70367" lon="3.49095">
        <ele>190.7</ele>
        <time>2022-01-12T10:04:27Z</time>
      </trkpt>
      <trkpt lat="47.70368" lon="3.49095">
        <ele>190.7</ele>
        <time>2022-01-12T10:04:28Z</time>
      </trkpt>
      <trkpt lat="47.70368" lon="3.49095">
        <ele>190.7</ele>
        <time>2022-01-12T10:04:29Z</time>
      </trkpt>
      <trkpt lat="47.70368" lon="3.49095">
        <ele>190.7</ele>
        <time>2022-01-12T10:04:30Z</time>
      </trkpt>
      <trkpt lat="47.70367" lon="3.49095">
        <ele>190.7</ele>
        <time>2022-01-12T10:04:31Z</time>
      </trkpt>
      <trkpt lat="47.70367" lon="3.49095">
        <ele>190.7</ele>
        <time>2022-01-12T10:04:32Z</time>
      </trkpt>
      <trkpt lat="47.70367" lon="3.49095">
        <ele>190.7</ele>
        <time>2022-01-12T10:04:33Z</time>
      </trkpt>
      <trkpt lat="47.70367" lon="3.49095">
        <ele>190.7</ele>
        <time>2022-01-12T10:04:34Z</time>
      </trkpt>
      <trkpt lat="47.70367" lon="3.49095">
        <ele>190.7</ele>
        <time>2022-01-12T10:04:35Z</time>
      </trkpt>
      <trkpt lat="47.70367" lon="3.49095">
        <ele>190.7</ele>
        <time>2022-01-12T10:04:36Z</time>
      </trkpt>
      <trkpt lat="47.70367" lon="3.49095">
        <ele>190.7</ele>
        <time>2022-01-12T10:04:37Z</time>
      </trkpt>
      <trkpt lat="47.70367" lon="3.49095">
        <ele>190.7</ele>
        <time>2022-01-12T10:04:38Z</time>
      </trkpt>
      <trkpt lat="47.70367" lon="3.49095">
        <ele>190.7</ele>
        <time>2022-01-12T10:04:39Z</time>
      </trkpt>
      <trkpt lat="47.70367" lon="3.49095">
        <ele>190.7</ele>
        <time>2022-01-12T10:04:40Z</time>
      </trkpt>
      <trkpt lat="47.70367" lon="3.49095">
        <ele>190.7</ele>
        <time>2022-01-12T10:04:41Z</time>
      </trkpt>
      <trkpt lat="47.70367" lon="3.49095">
        <ele>190.7</ele>
        <time>2022-01-12T10:04:42Z</time>
      </trkpt>
      <trkpt lat="47.70367" lon="3.49095">
        <ele>190.7</ele>
        <time>2022-01-12T10:04:43Z</time>
      </trkpt>
      <trkpt lat="47.70367" lon="3.49095">
        <ele>190.7</ele>
        <time>2022-01-12T10:04:44Z</time>
      </trkpt>
      <trkpt lat="47.70367" lon="3.49095">
        <ele>190.7</ele>
        <time>2022-01-12T10:04:45Z</time>
      </trkpt>
      <trkpt lat="47.70367" lon="3.49095">
        <ele>190.7</ele>
        <time>2022-01-12T10:04:46Z</time>
      </trkpt>
      <trkpt lat="47.70367" lon="3.49095">
        <ele>190.7</ele>
        <time>2022-01-12T10:04:47Z</time>
      </trkpt>
      <trkpt lat="47.70367" lon="3.49095">
        <ele>190.7</ele>
        <time>2022-01-12T10:04:48Z</time>
      </trkpt>
      <trkpt lat="47.70367" lon="3.49095">
        <ele>190.7</ele>
        <time>2022-01-12T10:04:49Z</time>
      </trkpt>
      <trkpt lat="47.70367" lon="3.49095">
        <ele>190.7</ele>
        <time>2022-01-12T10:04:50Z</time>
      </trkpt>
      <trkpt lat="47.70367" lon="3.49095">
        <ele>190.7</ele>
        <time>2022-01-12T10:04:51Z</time>
      </trkpt>
      <trkpt lat="47.70367" lon="3.49095">
        <ele>190.7</ele>
        <time>2022-01-12T10:04:52Z</time>
      </trkpt>
      <trkpt lat="47.70367" lon="3.49095">
        <ele>190.7</ele>
        <time>2022-01-12T10:04:53Z</time>
      </trkpt>
      <trkpt lat="47.70367" lon="3.49095">
        <ele>190.7</ele>
        <time>2022-01-12T10:04:54Z</time>
      </trkpt>
      <trkpt lat="47.70367" lon="3.49095">
        <ele>190.7</ele>
        <time>2022-01-12T10:04:55Z</time>
      </trkpt>
      <trkpt lat="47.70367" lon="3.49095">
        <ele>190.7</ele>
        <time>2022-01-12T10:04:56Z</time>
      </trkpt>
      <trkpt lat="47.70367" lon="3.49095">
        <ele>190.7</ele>
        <time>2022-01-12T10:04:57Z</time>
      </trkpt>
      <trkpt lat="47.70367" lon="3.49095">
        <ele>190.7</ele>
        <time>2022-01-12T10:04:58Z</time>
      </trkpt>
      <trkpt lat="47.70367" lon="3.49095">
        <ele>190.7</ele>
        <time>2022-01-12T10:04:59Z</time>
      </trkpt>
      <trkpt lat="47.70367" lon="3.49095">
        <ele>190.7</ele>
        <time>2022-01-12T10:05:00Z</time>
      </trkpt>
      <trkpt lat="47.70367" lon="3.49095">
        <ele>190.7</ele>
        <time>2022-01-12T10:05:01Z</time>
      </trkpt>
      <trkpt lat="47.70367" lon="3.49095">
        <ele>190.7</ele>
        <time>2022-01-12T10:05:02Z</time>
      </trkpt>
      <trkpt lat="47.70367" lon="3.49095">
        <ele>190.7</ele>
        <time>2022-01-12T10:05:03Z</time>
      </trkpt>
      <trkpt lat="47.70367" lon="3.49095">
        <ele>190.7</ele>
        <time>2022-01-12T10:05:04Z</time>
      </trkpt>
      <trkpt lat="47.70367" lon="3.49095">
        <ele>190.7</ele>
        <time>2022-01-12T10:05:05Z</time>
      </trkpt>
      <trkpt lat="47.70367" lon="3.49095">
        <ele>190.7</ele>
        <time>2022-01-12T10:05:06Z</time>
      </trkpt>
      <trkpt lat="47.70367" lon="3.49095">
        <ele>190.7</ele>
        <time>2022-01-12T10:05:07Z</time>
      </trkpt>
      <trkpt lat="47.70367" lon="3.49095">
        <ele>190.7</ele>
        <time>2022-01-12T10:05:08Z</time>
      </trkpt>
      <trkpt lat="47.70367" lon="3.49095">
        <ele>190.7</ele>
        <time>2022-01-12T10:05:09Z</time>
      </trkpt>
      <trkpt lat="47.70367" lon="3.49095">
        <ele>190.7</ele>
        <time>2022-01-12T10:05:10Z</time>
      </trkpt>
      <trkpt lat="47.70367" lon="3.49095">
        <ele>190.7</ele>
        <time>2022-01-12T10:05:11Z</time>
      </trkpt>
      <trkpt lat="47.70367" lon="3.49095">
        <ele>190.7</ele>
        <time>2022-01-12T10:05:12Z</time>
      </trkpt>
      <trkpt lat="47.70367" lon="3.49096">
        <ele>190.7</ele>
        <time>2022-01-12T10:05:13Z</time>
      </trkpt>
      <trkpt lat="47.70367" lon="3.49096">
        <ele>190.7</ele>
        <time>2022-01-12T10:05:14Z</time>
      </trkpt>
      <trkpt lat="47.70367" lon="3.49096">
        <ele>190.7</ele>
        <time>2022-01-12T10:05:15Z</time>
      </trkpt>
      <trkpt lat="47.70367" lon="3.49096">
        <ele>190.7</ele>
        <time>2022-01-12T10:05:16Z</time>
      </trkpt>
      <trkpt lat="47.70367" lon="3.49096">
        <ele>190.7</ele>
        <time>2022-01-12T10:05:17Z</time>
      </trkpt>
      <trkpt lat="47.70367" lon="3.49096">
        <ele>190.7</ele>
        <time>2022-01-12T10:05:18Z</time>
      </trkpt>
      <trkpt lat="47.70367" lon="3.49096">
        <ele>190.7</ele>
        <time>2022-01-12T10:05:19Z</time>
      </trkpt>
      <trkpt lat="47.70367" lon="3.49096">
        <ele>190.7</ele>
        <time>2022-01-12T10:05:20Z</time>
      </trkpt>
      <trkpt lat="47.70367" lon="3.49096">
        <ele>190.7</ele>
        <time>2022-01-12T10:05:21Z</time>
      </trkpt>
      <trkpt lat="47.70367" lon="3.49096">
        <ele>190.7</ele>
        <time>2022-01-12T10:05:22Z</time>
      </trkpt>
      <trkpt lat="47.70367" lon="3.49096">
        <ele>190.7</ele>
        <time>2022-01-12T10:05:23Z</time>
      </trkpt>
      <trkpt lat="47.70367" lon="3.49096">
        <ele>190.7</ele>
        <time>2022-01-12T10:05:24Z</time>
      </trkpt>
      <trkpt lat="47.70367" lon="3.49096">
        <ele>190.7</ele>
        <time>2022-01-12T10:05:25Z</time>
      </trkpt>
      <trkpt lat="47.70367" lon="3.49096">
        <ele>190.7</ele>
        <time>2022-01-12T10:05:26Z</time>
      </trkpt>
      <trkpt lat="47.70367" lon="3.49096">
        <ele>190.7</ele>
        <time>2022-01-12T10:05:27Z</time>
      </trkpt>
      <trkpt lat="47.70367" lon="3.49096">
        <ele>190.7</ele>
        <time>2022-01-12T10:05:28Z</time>
      </trkpt>
      <trkpt lat="47.70367" lon="3.49096">
        <ele>190.7</ele>
        <time>2022-01-12T10:05:29Z</time>
      </trkpt>
      <trkpt lat="47.70367" lon="3.49096">
        <ele>190.7</ele>
        <time>2022-01-12T10:05:30Z</time>
      </trkpt>
      <trkpt lat="47.70367" lon="3.49096">
        <ele>190.7</ele>
        <time>2022-01-12T10:05:31Z</time>
      </trkpt>
      <trkpt lat="47.70367" lon="3.49096">
        <ele>190.7</ele>
        <time>2022-01-12T10:05:32Z</time>
      </trkpt>
      <trkpt lat="47.70367" lon="3.49096">
        <ele>190.7</ele>
        <time>2022-01-12T10:05:33Z</time>
      </trkpt>
      <trkpt lat="47.70367" lon="3.49096">
        <ele>190.7</ele>
        <time>2022-01-12T10:05:34Z</time>
      </trkpt>
      <trkpt lat="47.70367" lon="3.49096">
        <ele>190.7</ele>
        <time>2022-01-12T10:05:35Z</time>
      </trkpt>
      <trkpt lat="47.70367" lon="3.49096">
        <ele>190.7</ele>
        <time>2022-01-12T10:05:36Z</time>
      </trkpt>
      <trkpt lat="47.70367" lon="3.49096">
        <ele>190.7</ele>
        <time>2022-01-12T10:05:37Z</time>
      </trkpt>
      <trkpt lat="47.70367" lon="3.49097">
        <ele>190.7</ele>
        <time>2022-01-12T10:05:38Z</time>
      </trkpt>
      <trkpt lat="47.70367" lon="3.49097">
        <ele>190.7</ele>
        <time>2022-01-12T10:05:39Z</time>
      </trkpt>
      <trkpt lat="47.70366" lon="3.49097">
        <ele>190.7</ele>
        <time>2022-01-12T10:05:40Z</time>
      </trkpt>
      <trkpt lat="47.70366" lon="3.49097">
        <ele>190.7</ele>
        <time>2022-01-12T10:05:41Z</time>
      </trkpt>
      <trkpt lat="47.70366" lon="3.49097">
        <ele>190.7</ele>
        <time>2022-01-12T10:05:42Z</time>
      </trkpt>
      <trkpt lat="47.70366" lon="3.49097">
        <ele>190.7</ele>
        <time>2022-01-12T10:05:43Z</time>
      </trkpt>
      <trkpt lat="47.70367" lon="3.49097">
        <ele>190.7</ele>
        <time>2022-01-12T10:05:44Z</time>
      </trkpt>
      <trkpt lat="47.70367" lon="3.49097">
        <ele>190.7</ele>
        <time>2022-01-12T10:05:45Z</time>
      </trkpt>
      <trkpt lat="47.70367" lon="3.49097">
        <ele>190.7</ele>
        <time>2022-01-12T10:05:46Z</time>
      </trkpt>
      <trkpt lat="47.70367" lon="3.49097">
        <ele>190.7</ele>
        <time>2022-01-12T10:05:47Z</time>
      </trkpt>
      <trkpt lat="47.70367" lon="3.49097">
        <ele>190.7</ele>
        <time>2022-01-12T10:05:48Z</time>
      </trkpt>
      <trkpt lat="47.70367" lon="3.49096">
        <ele>190.7</ele>
        <time>2022-01-12T10:05:49Z</time>
      </trkpt>
      <trkpt lat="47.70367" lon="3.49096">
        <ele>190.7</ele>
        <time>2022-01-12T10:05:50Z</time>
      </trkpt>
      <trkpt lat="47.70367" lon="3.49095">
        <ele>190.6</ele>
        <time>2022-01-12T10:05:51Z</time>
      </trkpt>
      <trkpt lat="47.70368" lon="3.49094">
        <ele>190.6</ele>
        <time>2022-01-12T10:05:52Z</time>
      </trkpt>
      <trkpt lat="47.70369" lon="3.49093">
        <ele>190.6</ele>
        <time>2022-01-12T10:05:53Z</time>
      </trkpt>
      <trkpt lat="47.7037" lon="3.49092">
        <ele>190.6</ele>
        <time>2022-01-12T10:05:54Z</time>
      </trkpt>
      <trkpt lat="47.70371" lon="3.49091">
        <ele>190.6</ele>
        <time>2022-01-12T10:05:55Z</time>
      </trkpt>
      <trkpt lat="47.70372" lon="3.4909">
        <ele>190.6</ele>
        <time>2022-01-12T10:05:56Z</time>
      </trkpt>
      <trkpt lat="47.70373" lon="3.49089">
        <ele>190.5</ele>
        <time>2022-01-12T10:05:57Z</time>
      </trkpt>
      <trkpt lat="47.70375" lon="3.49087">
        <ele>190.5</ele>
        <time>2022-01-12T10:05:58Z</time>
      </trkpt>
      <trkpt lat="47.70376" lon="3.49087">
        <ele>190.5</ele>
        <time>2022-01-12T10:05:59Z</time>
      </trkpt>
      <trkpt lat="47.70377" lon="3.49086">
        <ele>190.5</ele>
        <time>2022-01-12T10:06:00Z</time>
      </trkpt>
      <trkpt lat="47.70378" lon="3.49084">
        <ele>190.5</ele>
        <time>2022-01-12T10:06:01Z</time>
      </trkpt>
      <trkpt lat="47.70379" lon="3.49083">
        <ele>190.4</ele>
        <time>2022-01-12T10:06:02Z</time>
      </trkpt>
      <trkpt lat="47.7038" lon="3.49083">
        <ele>190.4</ele>
        <time>2022-01-12T10:06:03Z</time>
      </trkpt>
      <trkpt lat="47.70382" lon="3.49082">
        <ele>190.4</ele>
        <time>2022-01-12T10:06:04Z</time>
      </trkpt>
      <trkpt lat="47.70383" lon="3.49081">
        <ele>190.4</ele>
        <time>2022-01-12T10:06:05Z</time>
      </trkpt>
      <trkpt lat="47.70383" lon="3.49081">
        <ele>190.4</ele>
        <time>2022-01-12T10:06:06Z</time>
      </trkpt>
      <trkpt lat="47.70385" lon="3.4908">
        <ele>190.3</ele>
        <time>2022-01-12T10:06:07Z</time>
      </trkpt>
      <trkpt lat="47.70386" lon="3.4908">
        <ele>190.3</ele>
        <time>2022-01-12T10:06:08Z</time>
      </trkpt>
      <trkpt lat="47.70387" lon="3.49079">
        <ele>190.3</ele>
        <time>2022-01-12T10:06:09Z</time>
      </trkpt>
      <trkpt lat="47.70389" lon="3.49078">
        <ele>190.3</ele>
        <time>2022-01-12T10:06:10Z</time>
      </trkpt>
      <trkpt lat="47.7039" lon="3.49077">
        <ele>190.3</ele>
        <time>2022-01-12T10:06:11Z</time>
      </trkpt>
      <trkpt lat="47.7039" lon="3.49077">
        <ele>190.2</ele>
        <time>2022-01-12T10:06:12Z</time>
      </trkpt>
      <trkpt lat="47.70392" lon="3.49075">
        <ele>190.2</ele>
        <time>2022-01-12T10:06:13Z</time>
      </trkpt>
      <trkpt lat="47.70393" lon="3.49075">
        <ele>190.2</ele>
        <time>2022-01-12T10:06:14Z</time>
      </trkpt>
      <trkpt lat="47.70394" lon="3.49074">
        <ele>190.2</ele>
        <time>2022-01-12T10:06:15Z</time>
      </trkpt>
      <trkpt lat="47.70396" lon="3.49073">
        <ele>190.1</ele>
        <time>2022-01-12T10:06:16Z</time>
      </trkpt>
      <trkpt lat="47.70397" lon="3.49072">
        <ele>190.1</ele>
        <time>2022-01-12T10:06:17Z</time>
      </trkpt>
      <trkpt lat="47.70398" lon="3.49072">
        <ele>190.1</ele>
        <time>2022-01-12T10:06:18Z</time>
      </trkpt>
      <trkpt lat="47.70399" lon="3.49071">
        <ele>190.1</ele>
        <time>2022-01-12T10:06:19Z</time>
      </trkpt>
      <trkpt lat="47.70401" lon="3.4907">
        <ele>190.1</ele>
        <time>2022-01-12T10:06:20Z</time>
      </trkpt>
      <trkpt lat="47.70402" lon="3.49069">
        <ele>190</ele>
        <time>2022-01-12T10:06:21Z</time>
      </trkpt>
      <trkpt lat="47.70403" lon="3.49069">
        <ele>190</ele>
        <time>2022-01-12T10:06:22Z</time>
      </trkpt>
      <trkpt lat="47.70404" lon="3.49068">
        <ele>190</ele>
        <time>2022-01-12T10:06:23Z</time>
      </trkpt>
      <trkpt lat="47.70405" lon="3.49067">
        <ele>190</ele>
        <time>2022-01-12T10:06:24Z</time>
      </trkpt>
      <trkpt lat="47.70407" lon="3.49066">
        <ele>190</ele>
        <time>2022-01-12T10:06:25Z</time>
      </trkpt>
      <trkpt lat="47.70408" lon="3.49065">
        <ele>189.9</ele>
        <time>2022-01-12T10:06:26Z</time>
      </trkpt>
      <trkpt lat="47.70409" lon="3.49064">
        <ele>189.9</ele>
        <time>2022-01-12T10:06:27Z</time>
      </trkpt>
      <trkpt lat="47.70411" lon="3.49064">
        <ele>189.9</ele>
        <time>2022-01-12T10:06:28Z</time>
      </trkpt>
      <trkpt lat="47.70413" lon="3.49063">
        <ele>189.9</ele>
        <time>2022-01-12T10:06:29Z</time>
      </trkpt>
      <trkpt lat="47.70414" lon="3.49062">
        <ele>189.9</ele>
        <time>2022-01-12T10:06:30Z</time>
      </trkpt>
      <trkpt lat="47.70416" lon="3.49062">
        <ele>189.8</ele>
        <time>2022-01-12T10:06:31Z</time>
      </trkpt>
      <trkpt lat="47.70418" lon="3.49062">
        <ele>189.8</ele>
        <time>2022-01-12T10:06:32Z</time>
      </trkpt>
      <trkpt lat="47.70419" lon="3.49062">
        <ele>189.8</ele>
        <time>2022-01-12T10:06:33Z</time>
      </trkpt>
      <trkpt lat="47.70421" lon="3.49061">
        <ele>189.8</ele>
        <time>2022-01-12T10:06:34Z</time>
      </trkpt>
      <trkpt lat="47.70423" lon="3.49061">
        <ele>189.7</ele>
        <time>2022-01-12T10:06:35Z</time>
      </trkpt>
      <trkpt lat="47.70424" lon="3.4906">
        <ele>189.7</ele>
        <time>2022-01-12T10:06:36Z</time>
      </trkpt>
      <trkpt lat="47.70425" lon="3.4906">
        <ele>189.7</ele>
        <time>2022-01-12T10:06:37Z</time>
      </trkpt>
      <trkpt lat="47.70427" lon="3.49059">
        <ele>189.7</ele>
        <time>2022-01-12T10:06:38Z</time>
      </trkpt>
      <trkpt lat="47.70429" lon="3.49058">
        <ele>189.6</ele>
        <time>2022-01-12T10:06:39Z</time>
      </trkpt>
      <trkpt lat="47.7043" lon="3.49057">
        <ele>189.6</ele>
        <time>2022-01-12T10:06:40Z</time>
      </trkpt>
      <trkpt lat="47.70432" lon="3.49056">
        <ele>189.6</ele>
        <time>2022-01-12T10:06:41Z</time>
      </trkpt>
      <trkpt lat="47.70434" lon="3.49055">
        <ele>189.6</ele>
        <time>2022-01-12T10:06:42Z</time>
      </trkpt>
      <trkpt lat="47.70435" lon="3.49055">
        <ele>189.5</ele>
        <time>2022-01-12T10:06:44Z</time>
      </trkpt>
      <trkpt lat="47.70437" lon="3.49054">
        <ele>189.5</ele>
        <time>2022-01-12T10:06:45Z</time>
      </trkpt>
      <trkpt lat="47.70439" lon="3.49053">
        <ele>189.5</ele>
        <time>2022-01-12T10:06:46Z</time>
      </trkpt>
      <trkpt lat="47.70441" lon="3.49053">
        <ele>189.5</ele>
        <time>2022-01-12T10:06:47Z</time>
      </trkpt>
      <trkpt lat="47.70442" lon="3.49052">
        <ele>189.4</ele>
        <time>2022-01-12T10:06:48Z</time>
      </trkpt>
      <trkpt lat="47.70445" lon="3.4905">
        <ele>189.4</ele>
        <time>2022-01-12T10:06:50Z</time>
      </trkpt>
      <trkpt lat="47.70446" lon="3.4905">
        <ele>189.4</ele>
        <time>2022-01-12T10:06:51Z</time>
      </trkpt>
      <trkpt lat="47.70447" lon="3.49049">
        <ele>189.3</ele>
        <time>2022-01-12T10:06:52Z</time>
      </trkpt>
      <trkpt lat="47.70449" lon="3.49048">
        <ele>189.3</ele>
        <time>2022-01-12T10:06:53Z</time>
      </trkpt>
      <trkpt lat="47.7045" lon="3.49047">
        <ele>189.3</ele>
        <time>2022-01-12T10:06:55Z</time>
      </trkpt>
      <trkpt lat="47.70452" lon="3.49047">
        <ele>189.2</ele>
        <time>2022-01-12T10:06:56Z</time>
      </trkpt>
      <trkpt lat="47.70453" lon="3.49046">
        <ele>189.2</ele>
        <time>2022-01-12T10:06:57Z</time>
      </trkpt>
      <trkpt lat="47.70454" lon="3.49045">
        <ele>189.2</ele>
        <time>2022-01-12T10:06:58Z</time>
      </trkpt>
      <trkpt lat="47.70456" lon="3.49044">
        <ele>189.2</ele>
        <time>2022-01-12T10:06:59Z</time>
      </trkpt>
      <trkpt lat="47.70457" lon="3.49043">
        <ele>189.1</ele>
        <time>2022-01-12T10:07:00Z</time>
      </trkpt>
      <trkpt lat="47.70458" lon="3.49042">
        <ele>189.1</ele>
        <time>2022-01-12T10:07:01Z</time>
      </trkpt>
      <trkpt lat="47.70459" lon="3.49041">
        <ele>189.1</ele>
        <time>2022-01-12T10:07:02Z</time>
      </trkpt>
      <trkpt lat="47.70459" lon="3.4904">
        <ele>189.1</ele>
        <time>2022-01-12T10:07:03Z</time>
      </trkpt>
      <trkpt lat="47.7046" lon="3.49039">
        <ele>189.1</ele>
        <time>2022-01-12T10:07:04Z</time>
      </trkpt>
      <trkpt lat="47.70461" lon="3.49038">
        <ele>189</ele>
        <time>2022-01-12T10:07:05Z</time>
      </trkpt>
      <trkpt lat="47.70463" lon="3.49037">
        <ele>189</ele>
        <time>2022-01-12T10:07:06Z</time>
      </trkpt>
      <trkpt lat="47.70464" lon="3.49036">
        <ele>189</ele>
        <time>2022-01-12T10:07:07Z</time>
      </trkpt>
      <trkpt lat="47.70465" lon="3.49035">
        <ele>189</ele>
        <time>2022-01-12T10:07:09Z</time>
      </trkpt>
      <trkpt lat="47.70466" lon="3.49034">
        <ele>188.9</ele>
        <time>2022-01-12T10:07:10Z</time>
      </trkpt>
      <trkpt lat="47.70468" lon="3.49032">
        <ele>188.9</ele>
        <time>2022-01-12T10:07:11Z</time>
      </trkpt>
      <trkpt lat="47.70469" lon="3.49031">
        <ele>188.9</ele>
        <time>2022-01-12T10:07:12Z</time>
      </trkpt>
      <trkpt lat="47.7047" lon="3.4903">
        <ele>188.9</ele>
        <time>2022-01-12T10:07:13Z</time>
      </trkpt>
      <trkpt lat="47.70471" lon="3.4903">
        <ele>188.8</ele>
        <time>2022-01-12T10:07:14Z</time>
      </trkpt>
      <trkpt lat="47.70472" lon="3.49029">
        <ele>188.8</ele>
        <time>2022-01-12T10:07:15Z</time>
      </trkpt>
      <trkpt lat="47.70473" lon="3.49028">
        <ele>188.8</ele>
        <time>2022-01-12T10:07:16Z</time>
      </trkpt>
      <trkpt lat="47.70476" lon="3.49028">
        <ele>188.8</ele>
        <time>2022-01-12T10:07:17Z</time>
      </trkpt>
      <trkpt lat="47.70476" lon="3.49027">
        <ele>188.7</ele>
        <time>2022-01-12T10:07:18Z</time>
      </trkpt>
      <trkpt lat="47.70477" lon="3.49027">
        <ele>188.7</ele>
        <time>2022-01-12T10:07:19Z</time>
      </trkpt>
      <trkpt lat="47.70479" lon="3.49027">
        <ele>188.7</ele>
        <time>2022-01-12T10:07:20Z</time>
      </trkpt>
      <trkpt lat="47.7048" lon="3.49027">
        <ele>188.7</ele>
        <time>2022-01-12T10:07:21Z</time>
      </trkpt>
      <trkpt lat="47.70482" lon="3.49027">
        <ele>188.7</ele>
        <time>2022-01-12T10:07:22Z</time>
      </trkpt>
      <trkpt lat="47.70483" lon="3.49027">
        <ele>188.6</ele>
        <time>2022-01-12T10:07:23Z</time>
      </trkpt>
      <trkpt lat="47.70484" lon="3.49027">
        <ele>188.6</ele>
        <time>2022-01-12T10:07:24Z</time>
      </trkpt>
      <trkpt lat="47.70485" lon="3.49027">
        <ele>188.6</ele>
        <time>2022-01-12T10:07:25Z</time>
      </trkpt>
      <trkpt lat="47.70487" lon="3.49027">
        <ele>188.6</ele>
        <time>2022-01-12T10:07:27Z</time>
      </trkpt>
      <trkpt lat="47.70489" lon="3.49027">
        <ele>188.6</ele>
        <time>2022-01-12T10:07:28Z</time>
      </trkpt>
      <trkpt lat="47.7049" lon="3.49026">
        <ele>188.6</ele>
        <time>2022-01-12T10:07:29Z</time>
      </trkpt>
      <trkpt lat="47.70492" lon="3.49026">
        <ele>188.5</ele>
        <time>2022-01-12T10:07:30Z</time>
      </trkpt>
      <trkpt lat="47.70493" lon="3.49026">
        <ele>188.5</ele>
        <time>2022-01-12T10:07:31Z</time>
      </trkpt>
      <trkpt lat="47.70494" lon="3.49025">
        <ele>188.5</ele>
        <time>2022-01-12T10:07:32Z</time>
      </trkpt>
      <trkpt lat="47.70496" lon="3.49025">
        <ele>188.5</ele>
        <time>2022-01-12T10:07:33Z</time>
      </trkpt>
      <trkpt lat="47.70497" lon="3.49025">
        <ele>188.5</ele>
        <time>2022-01-12T10:07:35Z</time>
      </trkpt>
      <trkpt lat="47.70499" lon="3.49024">
        <ele>188.5</ele>
        <time>2022-01-12T10:07:36Z</time>
      </trkpt>
      <trkpt lat="47.705" lon="3.49023">
        <ele>188.4</ele>
        <time>2022-01-12T10:07:37Z</time>
      </trkpt>
      <trkpt lat="47.70501" lon="3.49023">
        <ele>188.4</ele>
        <time>2022-01-12T10:07:38Z</time>
      </trkpt>
      <trkpt lat="47.70503" lon="3.49023">
        <ele>188.4</ele>
        <time>2022-01-12T10:07:39Z</time>
      </trkpt>
      <trkpt lat="47.70505" lon="3.49024">
        <ele>188.4</ele>
        <time>2022-01-12T10:07:40Z</time>
      </trkpt>
      <trkpt lat="47.70506" lon="3.49024">
        <ele>188.4</ele>
        <time>2022-01-12T10:07:41Z</time>
      </trkpt>
      <trkpt lat="47.70507" lon="3.49024">
        <ele>188.3</ele>
        <time>2022-01-12T10:07:42Z</time>
      </trkpt>
      <trkpt lat="47.70508" lon="3.49024">
        <ele>188.3</ele>
        <time>2022-01-12T10:07:43Z</time>
      </trkpt>
      <trkpt lat="47.70509" lon="3.49024">
        <ele>188.3</ele>
        <time>2022-01-12T10:07:44Z</time>
      </trkpt>
      <trkpt lat="47.70511" lon="3.49024">
        <ele>188.3</ele>
        <time>2022-01-12T10:07:45Z</time>
      </trkpt>
      <trkpt lat="47.70512" lon="3.49024">
        <ele>188.3</ele>
        <time>2022-01-12T10:07:46Z</time>
      </trkpt>
      <trkpt lat="47.70513" lon="3.49024">
        <ele>188.3</ele>
        <time>2022-01-12T10:07:47Z</time>
      </trkpt>
      <trkpt lat="47.70515" lon="3.49024">
        <ele>188.3</ele>
        <time>2022-01-12T10:07:48Z</time>
      </trkpt>
      <trkpt lat="47.70516" lon="3.49024">
        <ele>188.2</ele>
        <time>2022-01-12T10:07:50Z</time>
      </trkpt>
      <trkpt lat="47.70517" lon="3.49024">
        <ele>188.2</ele>
        <time>2022-01-12T10:07:51Z</time>
      </trkpt>
      <trkpt lat="47.70518" lon="3.49024">
        <ele>188.2</ele>
        <time>2022-01-12T10:07:52Z</time>
      </trkpt>
      <trkpt lat="47.70518" lon="3.49024">
        <ele>188.2</ele>
        <time>2022-01-12T10:07:53Z</time>
      </trkpt>
      <trkpt lat="47.70519" lon="3.49024">
        <ele>188.2</ele>
        <time>2022-01-12T10:07:54Z</time>
      </trkpt>
      <trkpt lat="47.7052" lon="3.49023">
        <ele>188.2</ele>
        <time>2022-01-12T10:07:55Z</time>
      </trkpt>
      <trkpt lat="47.70521" lon="3.49023">
        <ele>188.2</ele>
        <time>2022-01-12T10:07:56Z</time>
      </trkpt>
      <trkpt lat="47.70522" lon="3.49023">
        <ele>188.2</ele>
        <time>2022-01-12T10:07:58Z</time>
      </trkpt>
      <trkpt lat="47.70523" lon="3.49023">
        <ele>188.2</ele>
        <time>2022-01-12T10:07:59Z</time>
      </trkpt>
      <trkpt lat="47.70524" lon="3.49022">
        <ele>188.1</ele>
        <time>2022-01-12T10:08:00Z</time>
      </trkpt>
      <trkpt lat="47.70525" lon="3.49022">
        <ele>188.1</ele>
        <time>2022-01-12T10:08:01Z</time>
      </trkpt>
      <trkpt lat="47.70526" lon="3.49021">
        <ele>188.1</ele>
        <time>2022-01-12T10:08:02Z</time>
      </trkpt>
      <trkpt lat="47.70527" lon="3.49021">
        <ele>188.1</ele>
        <time>2022-01-12T10:08:03Z</time>
      </trkpt>
      <trkpt lat="47.70528" lon="3.4902">
        <ele>188.1</ele>
        <time>2022-01-12T10:08:04Z</time>
      </trkpt>
      <trkpt lat="47.70529" lon="3.49019">
        <ele>188.1</ele>
        <time>2022-01-12T10:08:05Z</time>
      </trkpt>
      <trkpt lat="47.7053" lon="3.49019">
        <ele>188.1</ele>
        <time>2022-01-12T10:08:06Z</time>
      </trkpt>
      <trkpt lat="47.70531" lon="3.49019">
        <ele>188</ele>
        <time>2022-01-12T10:08:07Z</time>
      </trkpt>
      <trkpt lat="47.70532" lon="3.49019">
        <ele>188</ele>
        <time>2022-01-12T10:08:08Z</time>
      </trkpt>
      <trkpt lat="47.70533" lon="3.49019">
        <ele>188</ele>
        <time>2022-01-12T10:08:09Z</time>
      </trkpt>
      <trkpt lat="47.70534" lon="3.49019">
        <ele>188</ele>
        <time>2022-01-12T10:08:10Z</time>
      </trkpt>
      <trkpt lat="47.70535" lon="3.49018">
        <ele>188</ele>
        <time>2022-01-12T10:08:11Z</time>
      </trkpt>
      <trkpt lat="47.70537" lon="3.49018">
        <ele>188</ele>
        <time>2022-01-12T10:08:12Z</time>
      </trkpt>
      <trkpt lat="47.70538" lon="3.49018">
        <ele>187.9</ele>
        <time>2022-01-12T10:08:14Z</time>
      </trkpt>
      <trkpt lat="47.7054" lon="3.49017">
        <ele>187.9</ele>
        <time>2022-01-12T10:08:15Z</time>
      </trkpt>
      <trkpt lat="47.70541" lon="3.49017">
        <ele>187.9</ele>
        <time>2022-01-12T10:08:16Z</time>
      </trkpt>
      <trkpt lat="47.70543" lon="3.49017">
        <ele>187.9</ele>
        <time>2022-01-12T10:08:17Z</time>
      </trkpt>
      <trkpt lat="47.70544" lon="3.49017">
        <ele>187.8</ele>
        <time>2022-01-12T10:08:18Z</time>
      </trkpt>
      <trkpt lat="47.70546" lon="3.49017">
        <ele>187.8</ele>
        <time>2022-01-12T10:08:19Z</time>
      </trkpt>
      <trkpt lat="47.70548" lon="3.49017">
        <ele>187.8</ele>
        <time>2022-01-12T10:08:20Z</time>
      </trkpt>
      <trkpt lat="47.7055" lon="3.49018">
        <ele>187.7</ele>
        <time>2022-01-12T10:08:21Z</time>
      </trkpt>
      <trkpt lat="47.70551" lon="3.49018">
        <ele>187.7</ele>
        <time>2022-01-12T10:08:22Z</time>
      </trkpt>
      <trkpt lat="47.70552" lon="3.49018">
        <ele>187.7</ele>
        <time>2022-01-12T10:08:23Z</time>
      </trkpt>
      <trkpt lat="47.70555" lon="3.49018">
        <ele>187.7</ele>
        <time>2022-01-12T10:08:24Z</time>
      </trkpt>
      <trkpt lat="47.70556" lon="3.49018">
        <ele>187.6</ele>
        <time>2022-01-12T10:08:25Z</time>
      </trkpt>
      <trkpt lat="47.70557" lon="3.49019">
        <ele>187.6</ele>
        <time>2022-01-12T10:08:27Z</time>
      </trkpt>
      <trkpt lat="47.70559" lon="3.49018">
        <ele>187.6</ele>
        <time>2022-01-12T10:08:28Z</time>
      </trkpt>
      <trkpt lat="47.70561" lon="3.49018">
        <ele>187.6</ele>
        <time>2022-01-12T10:08:29Z</time>
      </trkpt>
      <trkpt lat="47.70563" lon="3.49019">
        <ele>187.5</ele>
        <time>2022-01-12T10:08:30Z</time>
      </trkpt>
      <trkpt lat="47.70565" lon="3.49019">
        <ele>187.5</ele>
        <time>2022-01-12T10:08:31Z</time>
      </trkpt>
      <trkpt lat="47.70566" lon="3.49019">
        <ele>187.5</ele>
        <time>2022-01-12T10:08:32Z</time>
      </trkpt>
      <trkpt lat="47.70569" lon="3.49019">
        <ele>187.5</ele>
        <time>2022-01-12T10:08:33Z</time>
      </trkpt>
      <trkpt lat="47.70571" lon="3.4902">
        <ele>187.4</ele>
        <time>2022-01-12T10:08:34Z</time>
      </trkpt>
      <trkpt lat="47.70572" lon="3.4902">
        <ele>187.4</ele>
        <time>2022-01-12T10:08:35Z</time>
      </trkpt>
      <trkpt lat="47.70574" lon="3.4902">
        <ele>187.4</ele>
        <time>2022-01-12T10:08:36Z</time>
      </trkpt>
      <trkpt lat="47.70576" lon="3.49021">
        <ele>187.4</ele>
        <time>2022-01-12T10:08:37Z</time>
      </trkpt>
      <trkpt lat="47.70577" lon="3.49021">
        <ele>187.4</ele>
        <time>2022-01-12T10:08:38Z</time>
      </trkpt>
      <trkpt lat="47.70579" lon="3.49021">
        <ele>187.3</ele>
        <time>2022-01-12T10:08:39Z</time>
      </trkpt>
      <trkpt lat="47.7058" lon="3.4902">
        <ele>187.3</ele>
        <time>2022-01-12T10:08:41Z</time>
      </trkpt>
      <trkpt lat="47.70582" lon="3.49019">
        <ele>187.3</ele>
        <time>2022-01-12T10:08:42Z</time>
      </trkpt>
      <trkpt lat="47.70583" lon="3.49018">
        <ele>187.3</ele>
        <time>2022-01-12T10:08:43Z</time>
      </trkpt>
      <trkpt lat="47.70586" lon="3.49016">
        <ele>187.3</ele>
        <time>2022-01-12T10:08:44Z</time>
      </trkpt>
      <trkpt lat="47.70586" lon="3.49015">
        <ele>187.2</ele>
        <time>2022-01-12T10:08:45Z</time>
      </trkpt>
      <trkpt lat="47.70588" lon="3.49014">
        <ele>187.2</ele>
        <time>2022-01-12T10:08:46Z</time>
      </trkpt>
      <trkpt lat="47.70589" lon="3.49013">
        <ele>187.2</ele>
        <time>2022-01-12T10:08:47Z</time>
      </trkpt>
      <trkpt lat="47.7059" lon="3.49013">
        <ele>187.2</ele>
        <time>2022-01-12T10:08:48Z</time>
      </trkpt>
      <trkpt lat="47.70592" lon="3.49012">
        <ele>187.2</ele>
        <time>2022-01-12T10:08:50Z</time>
      </trkpt>
      <trkpt lat="47.70594" lon="3.49012">
        <ele>187.2</ele>
        <time>2022-01-12T10:08:51Z</time>
      </trkpt>
      <trkpt lat="47.70595" lon="3.49013">
        <ele>187.1</ele>
        <time>2022-01-12T10:08:52Z</time>
      </trkpt>
      <trkpt lat="47.70597" lon="3.49013">
        <ele>187.1</ele>
        <time>2022-01-12T10:08:53Z</time>
      </trkpt>
      <trkpt lat="47.70598" lon="3.49013">
        <ele>187.1</ele>
        <time>2022-01-12T10:08:54Z</time>
      </trkpt>
      <trkpt lat="47.70599" lon="3.49012">
        <ele>187.1</ele>
        <time>2022-01-12T10:08:55Z</time>
      </trkpt>
      <trkpt lat="47.706" lon="3.49012">
        <ele>187.1</ele>
        <time>2022-01-12T10:08:56Z</time>
      </trkpt>
      <trkpt lat="47.70601" lon="3.49011">
        <ele>187.1</ele>
        <time>2022-01-12T10:08:57Z</time>
      </trkpt>
      <trkpt lat="47.70602" lon="3.4901">
        <ele>187.1</ele>
        <time>2022-01-12T10:08:58Z</time>
      </trkpt>
      <trkpt lat="47.70603" lon="3.49009">
        <ele>187</ele>
        <time>2022-01-12T10:08:59Z</time>
      </trkpt>
      <trkpt lat="47.70604" lon="3.49009">
        <ele>187</ele>
        <time>2022-01-12T10:09:00Z</time>
      </trkpt>
      <trkpt lat="47.70605" lon="3.49009">
        <ele>187</ele>
        <time>2022-01-12T10:09:01Z</time>
      </trkpt>
      <trkpt lat="47.70606" lon="3.49009">
        <ele>187</ele>
        <time>2022-01-12T10:09:03Z</time>
      </trkpt>
      <trkpt lat="47.70608" lon="3.49009">
        <ele>187</ele>
        <time>2022-01-12T10:09:04Z</time>
      </trkpt>
      <trkpt lat="47.7061" lon="3.49011">
        <ele>187</ele>
        <time>2022-01-12T10:09:05Z</time>
      </trkpt>
      <trkpt lat="47.7061" lon="3.49011">
        <ele>187</ele>
        <time>2022-01-12T10:09:06Z</time>
      </trkpt>
      <trkpt lat="47.70611" lon="3.49011">
        <ele>187</ele>
        <time>2022-01-12T10:09:07Z</time>
      </trkpt>
      <trkpt lat="47.70613" lon="3.49011">
        <ele>186.9</ele>
        <time>2022-01-12T10:09:08Z</time>
      </trkpt>
      <trkpt lat="47.70614" lon="3.49011">
        <ele>186.9</ele>
        <time>2022-01-12T10:09:09Z</time>
      </trkpt>
      <trkpt lat="47.70615" lon="3.49011">
        <ele>186.9</ele>
        <time>2022-01-12T10:09:10Z</time>
      </trkpt>
      <trkpt lat="47.70617" lon="3.49011">
        <ele>186.9</ele>
        <time>2022-01-12T10:09:11Z</time>
      </trkpt>
      <trkpt lat="47.70618" lon="3.4901">
        <ele>186.9</ele>
        <time>2022-01-12T10:09:13Z</time>
      </trkpt>
      <trkpt lat="47.70619" lon="3.4901">
        <ele>186.9</ele>
        <time>2022-01-12T10:09:14Z</time>
      </trkpt>
      <trkpt lat="47.70621" lon="3.49009">
        <ele>186.7</ele>
        <time>2022-01-12T10:09:15Z</time>
      </trkpt>
      <trkpt lat="47.70621" lon="3.49006">
        <ele>186.7</ele>
        <time>2022-01-12T10:09:17Z</time>
      </trkpt>
      <trkpt lat="47.70621" lon="3.49004">
        <ele>186.5</ele>
        <time>2022-01-12T10:09:18Z</time>
      </trkpt>
      <trkpt lat="47.70621" lon="3.49002">
        <ele>186.5</ele>
        <time>2022-01-12T10:09:19Z</time>
      </trkpt>
      <trkpt lat="47.70621" lon="3.49">
        <ele>186.5</ele>
        <time>2022-01-12T10:09:20Z</time>
      </trkpt>
      <trkpt lat="47.7062" lon="3.48997">
        <ele>186.5</ele>
        <time>2022-01-12T10:09:21Z</time>
      </trkpt>
      <trkpt lat="47.7062" lon="3.48995">
        <ele>186.4</ele>
        <time>2022-01-12T10:09:23Z</time>
      </trkpt>
      <trkpt lat="47.70619" lon="3.48992">
        <ele>186.4</ele>
        <time>2022-01-12T10:09:24Z</time>
      </trkpt>
      <trkpt lat="47.70618" lon="3.4899">
        <ele>186.3</ele>
        <time>2022-01-12T10:09:25Z</time>
      </trkpt>
      <trkpt lat="47.70618" lon="3.48988">
        <ele>186.4</ele>
        <time>2022-01-12T10:09:26Z</time>
      </trkpt>
      <trkpt lat="47.70617" lon="3.48985">
        <ele>186.3</ele>
        <time>2022-01-12T10:09:27Z</time>
      </trkpt>
      <trkpt lat="47.70617" lon="3.48984">
        <ele>186.3</ele>
        <time>2022-01-12T10:09:28Z</time>
      </trkpt>
      <trkpt lat="47.70616" lon="3.48983">
        <ele>186.3</ele>
        <time>2022-01-12T10:09:29Z</time>
      </trkpt>
      <trkpt lat="47.70617" lon="3.4898">
        <ele>186.3</ele>
        <time>2022-01-12T10:09:30Z</time>
      </trkpt>
      <trkpt lat="47.70617" lon="3.48978">
        <ele>186.2</ele>
        <time>2022-01-12T10:09:31Z</time>
      </trkpt>
      <trkpt lat="47.70617" lon="3.48975">
        <ele>186.2</ele>
        <time>2022-01-12T10:09:32Z</time>
      </trkpt>
      <trkpt lat="47.70617" lon="3.48974">
        <ele>186.1</ele>
        <time>2022-01-12T10:09:33Z</time>
      </trkpt>
      <trkpt lat="47.70617" lon="3.4897">
        <ele>186.1</ele>
        <time>2022-01-12T10:09:35Z</time>
      </trkpt>
      <trkpt lat="47.70617" lon="3.48968">
        <ele>186.1</ele>
        <time>2022-01-12T10:09:36Z</time>
      </trkpt>
      <trkpt lat="47.70616" lon="3.48966">
        <ele>186</ele>
        <time>2022-01-12T10:09:37Z</time>
      </trkpt>
      <trkpt lat="47.70616" lon="3.48963">
        <ele>186</ele>
        <time>2022-01-12T10:09:38Z</time>
      </trkpt>
      <trkpt lat="47.70616" lon="3.48961">
        <ele>186</ele>
        <time>2022-01-12T10:09:39Z</time>
      </trkpt>
      <trkpt lat="47.70615" lon="3.48959">
        <ele>186</ele>
        <time>2022-01-12T10:09:40Z</time>
      </trkpt>
      <trkpt lat="47.70615" lon="3.48957">
        <ele>185.9</ele>
        <time>2022-01-12T10:09:41Z</time>
      </trkpt>
      <trkpt lat="47.70615" lon="3.48955">
        <ele>186</ele>
        <time>2022-01-12T10:09:43Z</time>
      </trkpt>
      <trkpt lat="47.70615" lon="3.48952">
        <ele>185.9</ele>
        <time>2022-01-12T10:09:44Z</time>
      </trkpt>
      <trkpt lat="47.70615" lon="3.4895">
        <ele>185.9</ele>
        <time>2022-01-12T10:09:45Z</time>
      </trkpt>
      <trkpt lat="47.70614" lon="3.48947">
        <ele>185.9</ele>
        <time>2022-01-12T10:09:46Z</time>
      </trkpt>
      <trkpt lat="47.70614" lon="3.48945">
        <ele>185.9</ele>
        <time>2022-01-12T10:09:48Z</time>
      </trkpt>
      <trkpt lat="47.70613" lon="3.48942">
        <ele>185.9</ele>
        <time>2022-01-12T10:09:49Z</time>
      </trkpt>
      <trkpt lat="47.70613" lon="3.4894">
        <ele>185.9</ele>
        <time>2022-01-12T10:09:50Z</time>
      </trkpt>
      <trkpt lat="47.70613" lon="3.48938">
        <ele>185.9</ele>
        <time>2022-01-12T10:09:51Z</time>
      </trkpt>
      <trkpt lat="47.70613" lon="3.48936">
        <ele>185.9</ele>
        <time>2022-01-12T10:09:52Z</time>
      </trkpt>
      <trkpt lat="47.70613" lon="3.48935">
        <ele>185.9</ele>
        <time>2022-01-12T10:09:53Z</time>
      </trkpt>
      <trkpt lat="47.70613" lon="3.48933">
        <ele>185.9</ele>
        <time>2022-01-12T10:09:54Z</time>
      </trkpt>
      <trkpt lat="47.70613" lon="3.4893">
        <ele>185.9</ele>
        <time>2022-01-12T10:09:56Z</time>
      </trkpt>
      <trkpt lat="47.70613" lon="3.48928">
        <ele>185.9</ele>
        <time>2022-01-12T10:09:57Z</time>
      </trkpt>
      <trkpt lat="47.70613" lon="3.48927">
        <ele>186</ele>
        <time>2022-01-12T10:09:58Z</time>
      </trkpt>
      <trkpt lat="47.70612" lon="3.48924">
        <ele>186</ele>
        <time>2022-01-12T10:09:59Z</time>
      </trkpt>
      <trkpt lat="47.70612" lon="3.48922">
        <ele>186.1</ele>
        <time>2022-01-12T10:10:00Z</time>
      </trkpt>
      <trkpt lat="47.70611" lon="3.4892">
        <ele>186.1</ele>
        <time>2022-01-12T10:10:01Z</time>
      </trkpt>
      <trkpt lat="47.70611" lon="3.48917">
        <ele>186.3</ele>
        <time>2022-01-12T10:10:02Z</time>
      </trkpt>
      <trkpt lat="47.7061" lon="3.48913">
        <ele>186.4</ele>
        <time>2022-01-12T10:10:03Z</time>
      </trkpt>
      <trkpt lat="47.70609" lon="3.48912">
        <ele>186.5</ele>
        <time>2022-01-12T10:10:04Z</time>
      </trkpt>
      <trkpt lat="47.70609" lon="3.4891">
        <ele>186.6</ele>
        <time>2022-01-12T10:10:05Z</time>
      </trkpt>
      <trkpt lat="47.70608" lon="3.48907">
        <ele>186.6</ele>
        <time>2022-01-12T10:10:07Z</time>
      </trkpt>
      <trkpt lat="47.70608" lon="3.48905">
        <ele>186.7</ele>
        <time>2022-01-12T10:10:08Z</time>
      </trkpt>
      <trkpt lat="47.70607" lon="3.48902">
        <ele>186.7</ele>
        <time>2022-01-12T10:10:09Z</time>
      </trkpt>
      <trkpt lat="47.70607" lon="3.489">
        <ele>186.9</ele>
        <time>2022-01-12T10:10:10Z</time>
      </trkpt>
      <trkpt lat="47.70607" lon="3.48897">
        <ele>187</ele>
        <time>2022-01-12T10:10:11Z</time>
      </trkpt>
      <trkpt lat="47.70606" lon="3.48895">
        <ele>187.1</ele>
        <time>2022-01-12T10:10:12Z</time>
      </trkpt>
      <trkpt lat="47.70605" lon="3.48893">
        <ele>187.3</ele>
        <time>2022-01-12T10:10:13Z</time>
      </trkpt>
      <trkpt lat="47.70604" lon="3.48891">
        <ele>187.3</ele>
        <time>2022-01-12T10:10:14Z</time>
      </trkpt>
      <trkpt lat="47.70603" lon="3.48889">
        <ele>187.7</ele>
        <time>2022-01-12T10:10:15Z</time>
      </trkpt>
      <trkpt lat="47.70603" lon="3.48886">
        <ele>187.7</ele>
        <time>2022-01-12T10:10:16Z</time>
      </trkpt>
      <trkpt lat="47.70602" lon="3.48884">
        <ele>188</ele>
        <time>2022-01-12T10:10:17Z</time>
      </trkpt>
      <trkpt lat="47.70601" lon="3.48882">
        <ele>188</ele>
        <time>2022-01-12T10:10:19Z</time>
      </trkpt>
      <trkpt lat="47.706" lon="3.4888">
        <ele>188.6</ele>
        <time>2022-01-12T10:10:20Z</time>
      </trkpt>
      <trkpt lat="47.706" lon="3.48878">
        <ele>188.6</ele>
        <time>2022-01-12T10:10:21Z</time>
      </trkpt>
      <trkpt lat="47.70599" lon="3.48876">
        <ele>188.6</ele>
        <time>2022-01-12T10:10:22Z</time>
      </trkpt>
      <trkpt lat="47.70598" lon="3.48875">
        <ele>189.1</ele>
        <time>2022-01-12T10:10:23Z</time>
      </trkpt>
      <trkpt lat="47.70597" lon="3.48873">
        <ele>189.2</ele>
        <time>2022-01-12T10:10:24Z</time>
      </trkpt>
      <trkpt lat="47.70596" lon="3.48872">
        <ele>189.2</ele>
        <time>2022-01-12T10:10:25Z</time>
      </trkpt>
      <trkpt lat="47.70595" lon="3.4887">
        <ele>189.9</ele>
        <time>2022-01-12T10:10:26Z</time>
      </trkpt>
      <trkpt lat="47.70593" lon="3.48867">
        <ele>190.6</ele>
        <time>2022-01-12T10:10:28Z</time>
      </trkpt>
      <trkpt lat="47.70592" lon="3.48866">
        <ele>190.6</ele>
        <time>2022-01-12T10:10:29Z</time>
      </trkpt>
      <trkpt lat="47.70592" lon="3.48864">
        <ele>190.7</ele>
        <time>2022-01-12T10:10:30Z</time>
      </trkpt>
      <trkpt lat="47.70591" lon="3.48862">
        <ele>191.4</ele>
        <time>2022-01-12T10:10:31Z</time>
      </trkpt>
      <trkpt lat="47.70589" lon="3.4886">
        <ele>191.4</ele>
        <time>2022-01-12T10:10:32Z</time>
      </trkpt>
      <trkpt lat="47.70588" lon="3.48859">
        <ele>192.3</ele>
        <time>2022-01-12T10:10:33Z</time>
      </trkpt>
      <trkpt lat="47.70587" lon="3.48856">
        <ele>192.3</ele>
        <time>2022-01-12T10:10:34Z</time>
      </trkpt>
      <trkpt lat="47.70586" lon="3.48856">
        <ele>192.4</ele>
        <time>2022-01-12T10:10:36Z</time>
      </trkpt>
      <trkpt lat="47.70585" lon="3.48855">
        <ele>192.4</ele>
        <time>2022-01-12T10:10:37Z</time>
      </trkpt>
      <trkpt lat="47.70584" lon="3.48857">
        <ele>192.4</ele>
        <time>2022-01-12T10:10:39Z</time>
      </trkpt>
      <trkpt lat="47.70583" lon="3.48856">
        <ele>192.5</ele>
        <time>2022-01-12T10:10:40Z</time>
      </trkpt>
      <trkpt lat="47.70582" lon="3.48855">
        <ele>192.5</ele>
        <time>2022-01-12T10:10:41Z</time>
      </trkpt>
      <trkpt lat="47.70581" lon="3.48854">
        <ele>193.2</ele>
        <time>2022-01-12T10:10:42Z</time>
      </trkpt>
      <trkpt lat="47.7058" lon="3.48852">
        <ele>193.3</ele>
        <time>2022-01-12T10:10:43Z</time>
      </trkpt>
      <trkpt lat="47.7058" lon="3.48851">
        <ele>193.3</ele>
        <time>2022-01-12T10:10:44Z</time>
      </trkpt>
      <trkpt lat="47.7058" lon="3.4885">
        <ele>194</ele>
        <time>2022-01-12T10:10:45Z</time>
      </trkpt>
      <trkpt lat="47.70579" lon="3.48848">
        <ele>194</ele>
        <time>2022-01-12T10:10:46Z</time>
      </trkpt>
      <trkpt lat="47.70579" lon="3.48847">
        <ele>194</ele>
        <time>2022-01-12T10:10:47Z</time>
      </trkpt>
      <trkpt lat="47.70578" lon="3.48845">
        <ele>194.5</ele>
        <time>2022-01-12T10:10:49Z</time>
      </trkpt>
      <trkpt lat="47.70578" lon="3.48845">
        <ele>194.6</ele>
        <time>2022-01-12T10:10:51Z</time>
      </trkpt>
      <trkpt lat="47.70577" lon="3.48845">
        <ele>194.6</ele>
        <time>2022-01-12T10:10:52Z</time>
      </trkpt>
      <trkpt lat="47.70578" lon="3.48844">
        <ele>194.6</ele>
        <time>2022-01-12T10:10:54Z</time>
      </trkpt>
      <trkpt lat="47.70579" lon="3.48843">
        <ele>194.5</ele>
        <time>2022-01-12T10:10:55Z</time>
      </trkpt>
      <trkpt lat="47.70579" lon="3.48843">
        <ele>194.5</ele>
        <time>2022-01-12T10:10:56Z</time>
      </trkpt>
      <trkpt lat="47.7058" lon="3.48844">
        <ele>194.5</ele>
        <time>2022-01-12T10:10:57Z</time>
      </trkpt>
      <trkpt lat="47.70581" lon="3.48844">
        <ele>194.4</ele>
        <time>2022-01-12T10:10:58Z</time>
      </trkpt>
      <trkpt lat="47.70581" lon="3.48845">
        <ele>194.4</ele>
        <time>2022-01-12T10:10:59Z</time>
      </trkpt>
      <trkpt lat="47.70582" lon="3.48845">
        <ele>194.4</ele>
        <time>2022-01-12T10:11:00Z</time>
      </trkpt>
      <trkpt lat="47.70582" lon="3.48845">
        <ele>194.4</ele>
        <time>2022-01-12T10:11:01Z</time>
      </trkpt>
      <trkpt lat="47.70582" lon="3.48846">
        <ele>194.4</ele>
        <time>2022-01-12T10:11:02Z</time>
      </trkpt>
      <trkpt lat="47.70583" lon="3.48846">
        <ele>193.8</ele>
        <time>2022-01-12T10:11:03Z</time>
      </trkpt>
      <trkpt lat="47.70583" lon="3.48846">
        <ele>193.8</ele>
        <time>2022-01-12T10:11:04Z</time>
      </trkpt>
      <trkpt lat="47.70583" lon="3.48847">
        <ele>193.8</ele>
        <time>2022-01-12T10:11:05Z</time>
      </trkpt>
      <trkpt lat="47.70583" lon="3.48847">
        <ele>193.8</ele>
        <time>2022-01-12T10:11:06Z</time>
      </trkpt>
      <trkpt lat="47.70583" lon="3.48847">
        <ele>193.8</ele>
        <time>2022-01-12T10:11:07Z</time>
      </trkpt>
      <trkpt lat="47.70583" lon="3.48847">
        <ele>193.8</ele>
        <time>2022-01-12T10:11:08Z</time>
      </trkpt>
      <trkpt lat="47.70583" lon="3.48847">
        <ele>193.8</ele>
        <time>2022-01-12T10:11:09Z</time>
      </trkpt>
      <trkpt lat="47.70583" lon="3.48847">
        <ele>193.8</ele>
        <time>2022-01-12T10:11:10Z</time>
      </trkpt>
      <trkpt lat="47.70583" lon="3.48848">
        <ele>193.8</ele>
        <time>2022-01-12T10:11:11Z</time>
      </trkpt>
      <trkpt lat="47.70583" lon="3.48848">
        <ele>193.8</ele>
        <time>2022-01-12T10:11:12Z</time>
      </trkpt>
      <trkpt lat="47.70584" lon="3.48848">
        <ele>193.7</ele>
        <time>2022-01-12T10:11:13Z</time>
      </trkpt>
      <trkpt lat="47.70583" lon="3.48848">
        <ele>193.8</ele>
        <time>2022-01-12T10:11:14Z</time>
      </trkpt>
      <trkpt lat="47.70583" lon="3.48849">
        <ele>193.8</ele>
        <time>2022-01-12T10:11:15Z</time>
      </trkpt>
      <trkpt lat="47.70583" lon="3.48849">
        <ele>193.8</ele>
        <time>2022-01-12T10:11:16Z</time>
      </trkpt>
      <trkpt lat="47.70583" lon="3.48849">
        <ele>193.8</ele>
        <time>2022-01-12T10:11:17Z</time>
      </trkpt>
      <trkpt lat="47.70583" lon="3.48849">
        <ele>193.8</ele>
        <time>2022-01-12T10:11:18Z</time>
      </trkpt>
      <trkpt lat="47.70583" lon="3.4885">
        <ele>193.8</ele>
        <time>2022-01-12T10:11:19Z</time>
      </trkpt>
      <trkpt lat="47.70583" lon="3.4885">
        <ele>193.8</ele>
        <time>2022-01-12T10:11:20Z</time>
      </trkpt>
      <trkpt lat="47.70583" lon="3.4885">
        <ele>193.8</ele>
        <time>2022-01-12T10:11:21Z</time>
      </trkpt>
      <trkpt lat="47.70583" lon="3.4885">
        <ele>193.8</ele>
        <time>2022-01-12T10:11:22Z</time>
      </trkpt>
      <trkpt lat="47.70583" lon="3.4885">
        <ele>193.8</ele>
        <time>2022-01-12T10:11:23Z</time>
      </trkpt>
      <trkpt lat="47.70583" lon="3.4885">
        <ele>193.8</ele>
        <time>2022-01-12T10:11:24Z</time>
      </trkpt>
      <trkpt lat="47.70583" lon="3.4885">
        <ele>193.8</ele>
        <time>2022-01-12T10:11:25Z</time>
      </trkpt>
      <trkpt lat="47.70583" lon="3.4885">
        <ele>193.8</ele>
        <time>2022-01-12T10:11:26Z</time>
      </trkpt>
      <trkpt lat="47.70583" lon="3.4885">
        <ele>193.8</ele>
        <time>2022-01-12T10:11:27Z</time>
      </trkpt>
      <trkpt lat="47.70583" lon="3.4885">
        <ele>193.8</ele>
        <time>2022-01-12T10:11:28Z</time>
      </trkpt>
      <trkpt lat="47.70583" lon="3.4885">
        <ele>193.2</ele>
        <time>2022-01-12T10:11:29Z</time>
      </trkpt>
      <trkpt lat="47.70583" lon="3.4885">
        <ele>193.2</ele>
        <time>2022-01-12T10:11:30Z</time>
      </trkpt>
      <trkpt lat="47.70584" lon="3.48851">
        <ele>193</ele>
        <time>2022-01-12T10:11:31Z</time>
      </trkpt>
      <trkpt lat="47.70583" lon="3.48852">
        <ele>193.2</ele>
        <time>2022-01-12T10:11:33Z</time>
      </trkpt>
      <trkpt lat="47.70583" lon="3.48853">
        <ele>193.2</ele>
        <time>2022-01-12T10:11:34Z</time>
      </trkpt>
      <trkpt lat="47.70583" lon="3.48853">
        <ele>193.2</ele>
        <time>2022-01-12T10:11:36Z</time>
      </trkpt>
      <trkpt lat="47.70582" lon="3.48853">
        <ele>193.2</ele>
        <time>2022-01-12T10:11:37Z</time>
      </trkpt>
      <trkpt lat="47.70582" lon="3.48853">
        <ele>193.2</ele>
        <time>2022-01-12T10:11:39Z</time>
      </trkpt>
      <trkpt lat="47.70582" lon="3.48853">
        <ele>193.2</ele>
        <time>2022-01-12T10:11:40Z</time>
      </trkpt>
      <trkpt lat="47.70582" lon="3.48853">
        <ele>193.2</ele>
        <time>2022-01-12T10:11:41Z</time>
      </trkpt>
      <trkpt lat="47.70583" lon="3.48853">
        <ele>193.2</ele>
        <time>2022-01-12T10:11:43Z</time>
      </trkpt>
      <trkpt lat="47.70583" lon="3.48854">
        <ele>193.2</ele>
        <time>2022-01-12T10:11:44Z</time>
      </trkpt>
      <trkpt lat="47.70585" lon="3.48856">
        <ele>192.4</ele>
        <time>2022-01-12T10:11:46Z</time>
      </trkpt>
      <trkpt lat="47.70586" lon="3.48857">
        <ele>192.4</ele>
        <time>2022-01-12T10:11:47Z</time>
      </trkpt>
      <trkpt lat="47.70587" lon="3.48858">
        <ele>192.2</ele>
        <time>2022-01-12T10:11:48Z</time>
      </trkpt>
      <trkpt lat="47.70588" lon="3.48858">
        <ele>192.2</ele>
        <time>2022-01-12T10:11:50Z</time>
      </trkpt>
      <trkpt lat="47.70588" lon="3.48858">
        <ele>192.2</ele>
        <time>2022-01-12T10:11:51Z</time>
      </trkpt>
      <trkpt lat="47.70589" lon="3.48858">
        <ele>192.2</ele>
        <time>2022-01-12T10:11:52Z</time>
      </trkpt>
      <trkpt lat="47.70589" lon="3.48858">
        <ele>192.2</ele>
        <time>2022-01-12T10:11:53Z</time>
      </trkpt>
      <trkpt lat="47.70589" lon="3.48858">
        <ele>192.2</ele>
        <time>2022-01-12T10:11:54Z</time>
      </trkpt>
      <trkpt lat="47.70589" lon="3.48858">
        <ele>192.1</ele>
        <time>2022-01-12T10:11:55Z</time>
      </trkpt>
      <trkpt lat="47.70589" lon="3.48858">
        <ele>192.1</ele>
        <time>2022-01-12T10:11:56Z</time>
      </trkpt>
      <trkpt lat="47.7059" lon="3.48858">
        <ele>192.1</ele>
        <time>2022-01-12T10:11:58Z</time>
      </trkpt>
      <trkpt lat="47.7059" lon="3.48858">
        <ele>192.1</ele>
        <time>2022-01-12T10:11:59Z</time>
      </trkpt>
      <trkpt lat="47.7059" lon="3.48858">
        <ele>192.1</ele>
        <time>2022-01-12T10:12:00Z</time>
      </trkpt>
      <trkpt lat="47.7059" lon="3.48858">
        <ele>192.1</ele>
        <time>2022-01-12T10:12:01Z</time>
      </trkpt>
      <trkpt lat="47.7059" lon="3.48858">
        <ele>192.1</ele>
        <time>2022-01-12T10:12:02Z</time>
      </trkpt>
      <trkpt lat="47.7059" lon="3.48858">
        <ele>192.1</ele>
        <time>2022-01-12T10:12:03Z</time>
      </trkpt>
      <trkpt lat="47.7059" lon="3.48859">
        <ele>192.1</ele>
        <time>2022-01-12T10:12:04Z</time>
      </trkpt>
      <trkpt lat="47.7059" lon="3.4886">
        <ele>191.4</ele>
        <time>2022-01-12T10:12:05Z</time>
      </trkpt>
      <trkpt lat="47.7059" lon="3.48861">
        <ele>191.4</ele>
        <time>2022-01-12T10:12:06Z</time>
      </trkpt>
      <trkpt lat="47.70591" lon="3.48863">
        <ele>190.7</ele>
        <time>2022-01-12T10:12:08Z</time>
      </trkpt>
      <trkpt lat="47.70592" lon="3.48865">
        <ele>190.7</ele>
        <time>2022-01-12T10:12:09Z</time>
      </trkpt>
      <trkpt lat="47.70593" lon="3.48867">
        <ele>190.5</ele>
        <time>2022-01-12T10:12:10Z</time>
      </trkpt>
      <trkpt lat="47.70594" lon="3.48869">
        <ele>189.9</ele>
        <time>2022-01-12T10:12:11Z</time>
      </trkpt>
      <trkpt lat="47.70594" lon="3.4887">
        <ele>189.9</ele>
        <time>2022-01-12T10:12:12Z</time>
      </trkpt>
      <trkpt lat="47.70595" lon="3.48872">
        <ele>189.1</ele>
        <time>2022-01-12T10:12:13Z</time>
      </trkpt>
      <trkpt lat="47.70596" lon="3.48874">
        <ele>189.1</ele>
        <time>2022-01-12T10:12:15Z</time>
      </trkpt>
      <trkpt lat="47.70597" lon="3.48876">
        <ele>189.1</ele>
        <time>2022-01-12T10:12:16Z</time>
      </trkpt>
      <trkpt lat="47.70598" lon="3.48878">
        <ele>188.6</ele>
        <time>2022-01-12T10:12:17Z</time>
      </trkpt>
      <trkpt lat="47.70599" lon="3.4888">
        <ele>188.5</ele>
        <time>2022-01-12T10:12:18Z</time>
      </trkpt>
      <trkpt lat="47.706" lon="3.4888">
        <ele>188.1</ele>
        <time>2022-01-12T10:12:20Z</time>
      </trkpt>
      <trkpt lat="47.70601" lon="3.48881">
        <ele>188.1</ele>
        <time>2022-01-12T10:12:21Z</time>
      </trkpt>
      <trkpt lat="47.70602" lon="3.48882">
        <ele>188</ele>
        <time>2022-01-12T10:12:22Z</time>
      </trkpt>
      <trkpt lat="47.70603" lon="3.48883">
        <ele>188</ele>
        <time>2022-01-12T10:12:23Z</time>
      </trkpt>
      <trkpt lat="47.70603" lon="3.48884">
        <ele>188</ele>
        <time>2022-01-12T10:12:24Z</time>
      </trkpt>
      <trkpt lat="47.70604" lon="3.48887">
        <ele>187.5</ele>
        <time>2022-01-12T10:12:26Z</time>
      </trkpt>
      <trkpt lat="47.70604" lon="3.48888">
        <ele>187.5</ele>
        <time>2022-01-12T10:12:27Z</time>
      </trkpt>
      <trkpt lat="47.70604" lon="3.48889">
        <ele>187.3</ele>
        <time>2022-01-12T10:12:28Z</time>
      </trkpt>
      <trkpt lat="47.70605" lon="3.48891">
        <ele>187.3</ele>
        <time>2022-01-12T10:12:29Z</time>
      </trkpt>
      <trkpt lat="47.70605" lon="3.48893">
        <ele>187.3</ele>
        <time>2022-01-12T10:12:30Z</time>
      </trkpt>
      <trkpt lat="47.70605" lon="3.48894">
        <ele>187</ele>
        <time>2022-01-12T10:12:31Z</time>
      </trkpt>
      <trkpt lat="47.70606" lon="3.48895">
        <ele>187</ele>
        <time>2022-01-12T10:12:32Z</time>
      </trkpt>
      <trkpt lat="47.70606" lon="3.48897">
        <ele>187</ele>
        <time>2022-01-12T10:12:33Z</time>
      </trkpt>
      <trkpt lat="47.70606" lon="3.48898">
        <ele>186.9</ele>
        <time>2022-01-12T10:12:34Z</time>
      </trkpt>
      <trkpt lat="47.70607" lon="3.48901">
        <ele>186.8</ele>
        <time>2022-01-12T10:12:35Z</time>
      </trkpt>
      <trkpt lat="47.70608" lon="3.48903">
        <ele>186.7</ele>
        <time>2022-01-12T10:12:37Z</time>
      </trkpt>
      <trkpt lat="47.70609" lon="3.48904">
        <ele>186.7</ele>
        <time>2022-01-12T10:12:38Z</time>
      </trkpt>
      <trkpt lat="47.7061" lon="3.48906">
        <ele>186.6</ele>
        <time>2022-01-12T10:12:40Z</time>
      </trkpt>
      <trkpt lat="47.7061" lon="3.48908">
        <ele>186.4</ele>
        <time>2022-01-12T10:12:41Z</time>
      </trkpt>
      <trkpt lat="47.70611" lon="3.48909">
        <ele>186.4</ele>
        <time>2022-01-12T10:12:43Z</time>
      </trkpt>
      <trkpt lat="47.70611" lon="3.48911">
        <ele>186.3</ele>
        <time>2022-01-12T10:12:44Z</time>
      </trkpt>
      <trkpt lat="47.70612" lon="3.48912">
        <ele>186.3</ele>
        <time>2022-01-12T10:12:45Z</time>
      </trkpt>
      <trkpt lat="47.70612" lon="3.48913">
        <ele>186.3</ele>
        <time>2022-01-12T10:12:46Z</time>
      </trkpt>
      <trkpt lat="47.70612" lon="3.48914">
        <ele>186.3</ele>
        <time>2022-01-12T10:12:47Z</time>
      </trkpt>
      <trkpt lat="47.70612" lon="3.48915">
        <ele>186.2</ele>
        <time>2022-01-12T10:12:48Z</time>
      </trkpt>
      <trkpt lat="47.70612" lon="3.48917">
        <ele>186.2</ele>
        <time>2022-01-12T10:12:49Z</time>
      </trkpt>
      <trkpt lat="47.70612" lon="3.48918">
        <ele>186.1</ele>
        <time>2022-01-12T10:12:50Z</time>
      </trkpt>
      <trkpt lat="47.70613" lon="3.48919">
        <ele>186.1</ele>
        <time>2022-01-12T10:12:51Z</time>
      </trkpt>
      <trkpt lat="47.70613" lon="3.4892">
        <ele>186</ele>
        <time>2022-01-12T10:12:53Z</time>
      </trkpt>
      <trkpt lat="47.70613" lon="3.48921">
        <ele>186</ele>
        <time>2022-01-12T10:12:54Z</time>
      </trkpt>
      <trkpt lat="47.70613" lon="3.48922">
        <ele>186</ele>
        <time>2022-01-12T10:12:55Z</time>
      </trkpt>
      <trkpt lat="47.70614" lon="3.48924">
        <ele>185.9</ele>
        <time>2022-01-12T10:12:56Z</time>
      </trkpt>
      <trkpt lat="47.70614" lon="3.48925">
        <ele>185.9</ele>
        <time>2022-01-12T10:12:57Z</time>
      </trkpt>
      <trkpt lat="47.70614" lon="3.48925">
        <ele>185.9</ele>
        <time>2022-01-12T10:12:58Z</time>
      </trkpt>
      <trkpt lat="47.70615" lon="3.48926">
        <ele>185.9</ele>
        <time>2022-01-12T10:12:59Z</time>
      </trkpt>
      <trkpt lat="47.70615" lon="3.48927">
        <ele>185.9</ele>
        <time>2022-01-12T10:13:00Z</time>
      </trkpt>
      <trkpt lat="47.70615" lon="3.48928">
        <ele>185.8</ele>
        <time>2022-01-12T10:13:02Z</time>
      </trkpt>
      <trkpt lat="47.70615" lon="3.4893">
        <ele>185.8</ele>
        <time>2022-01-12T10:13:03Z</time>
      </trkpt>
      <trkpt lat="47.70616" lon="3.48931">
        <ele>185.8</ele>
        <time>2022-01-12T10:13:04Z</time>
      </trkpt>
      <trkpt lat="47.70616" lon="3.48931">
        <ele>185.8</ele>
        <time>2022-01-12T10:13:05Z</time>
      </trkpt>
      <trkpt lat="47.70617" lon="3.48932">
        <ele>185.7</ele>
        <time>2022-01-12T10:13:06Z</time>
      </trkpt>
      <trkpt lat="47.70617" lon="3.48932">
        <ele>185.7</ele>
        <time>2022-01-12T10:13:07Z</time>
      </trkpt>
      <trkpt lat="47.70617" lon="3.48933">
        <ele>185.7</ele>
        <time>2022-01-12T10:13:08Z</time>
      </trkpt>
      <trkpt lat="47.70618" lon="3.48934">
        <ele>185.7</ele>
        <time>2022-01-12T10:13:09Z</time>
      </trkpt>
      <trkpt lat="47.70618" lon="3.48935">
        <ele>185.7</ele>
        <time>2022-01-12T10:13:10Z</time>
      </trkpt>
      <trkpt lat="47.70618" lon="3.48936">
        <ele>185.7</ele>
        <time>2022-01-12T10:13:11Z</time>
      </trkpt>
      <trkpt lat="47.70618" lon="3.48938">
        <ele>185.7</ele>
        <time>2022-01-12T10:13:13Z</time>
      </trkpt>
      <trkpt lat="47.70617" lon="3.4894">
        <ele>185.7</ele>
        <time>2022-01-12T10:13:14Z</time>
      </trkpt>
      <trkpt lat="47.70617" lon="3.48941">
        <ele>185.7</ele>
        <time>2022-01-12T10:13:15Z</time>
      </trkpt>
      <trkpt lat="47.70617" lon="3.48942">
        <ele>185.7</ele>
        <time>2022-01-12T10:13:16Z</time>
      </trkpt>
      <trkpt lat="47.70617" lon="3.48944">
        <ele>185.7</ele>
        <time>2022-01-12T10:13:18Z</time>
      </trkpt>
      <trkpt lat="47.70616" lon="3.48946">
        <ele>185.7</ele>
        <time>2022-01-12T10:13:19Z</time>
      </trkpt>
      <trkpt lat="47.70616" lon="3.48947">
        <ele>185.7</ele>
        <time>2022-01-12T10:13:20Z</time>
      </trkpt>
      <trkpt lat="47.70616" lon="3.48949">
        <ele>185.7</ele>
        <time>2022-01-12T10:13:21Z</time>
      </trkpt>
      <trkpt lat="47.70616" lon="3.48951">
        <ele>185.8</ele>
        <time>2022-01-12T10:13:22Z</time>
      </trkpt>
      <trkpt lat="47.70616" lon="3.48952">
        <ele>185.8</ele>
        <time>2022-01-12T10:13:23Z</time>
      </trkpt>
      <trkpt lat="47.70616" lon="3.48955">
        <ele>185.8</ele>
        <time>2022-01-12T10:13:25Z</time>
      </trkpt>
      <trkpt lat="47.70616" lon="3.48957">
        <ele>185.8</ele>
        <time>2022-01-12T10:13:26Z</time>
      </trkpt>
      <trkpt lat="47.70616" lon="3.48958">
        <ele>185.8</ele>
        <time>2022-01-12T10:13:27Z</time>
      </trkpt>
      <trkpt lat="47.70617" lon="3.48961">
        <ele>185.8</ele>
        <time>2022-01-12T10:13:28Z</time>
      </trkpt>
      <trkpt lat="47.70617" lon="3.48962">
        <ele>185.9</ele>
        <time>2022-01-12T10:13:29Z</time>
      </trkpt>
      <trkpt lat="47.70618" lon="3.48964">
        <ele>185.9</ele>
        <time>2022-01-12T10:13:30Z</time>
      </trkpt>
      <trkpt lat="47.70618" lon="3.48966">
        <ele>185.9</ele>
        <time>2022-01-12T10:13:32Z</time>
      </trkpt>
      <trkpt lat="47.70618" lon="3.48968">
        <ele>185.9</ele>
        <time>2022-01-12T10:13:33Z</time>
      </trkpt>
      <trkpt lat="47.70618" lon="3.4897">
        <ele>185.9</ele>
        <time>2022-01-12T10:13:34Z</time>
      </trkpt>
      <trkpt lat="47.70618" lon="3.48972">
        <ele>185.9</ele>
        <time>2022-01-12T10:13:35Z</time>
      </trkpt>
      <trkpt lat="47.70618" lon="3.48975">
        <ele>186</ele>
        <time>2022-01-12T10:13:36Z</time>
      </trkpt>
      <trkpt lat="47.70619" lon="3.48977">
        <ele>186</ele>
        <time>2022-01-12T10:13:37Z</time>
      </trkpt>
      <trkpt lat="47.70619" lon="3.48978">
        <ele>186</ele>
        <time>2022-01-12T10:13:38Z</time>
      </trkpt>
      <trkpt lat="47.70619" lon="3.4898">
        <ele>186.1</ele>
        <time>2022-01-12T10:13:40Z</time>
      </trkpt>
      <trkpt lat="47.7062" lon="3.48982">
        <ele>186.1</ele>
        <time>2022-01-12T10:13:41Z</time>
      </trkpt>
      <trkpt lat="47.7062" lon="3.48984">
        <ele>186.1</ele>
        <time>2022-01-12T10:13:42Z</time>
      </trkpt>
      <trkpt lat="47.70621" lon="3.48986">
        <ele>186.1</ele>
        <time>2022-01-12T10:13:43Z</time>
      </trkpt>
      <trkpt lat="47.70621" lon="3.48988">
        <ele>186.1</ele>
        <time>2022-01-12T10:13:44Z</time>
      </trkpt>
      <trkpt lat="47.70621" lon="3.48991">
        <ele>186.2</ele>
        <time>2022-01-12T10:13:45Z</time>
      </trkpt>
      <trkpt lat="47.70621" lon="3.48994">
        <ele>186.2</ele>
        <time>2022-01-12T10:13:46Z</time>
      </trkpt>
      <trkpt lat="47.7062" lon="3.48995">
        <ele>186.2</ele>
        <time>2022-01-12T10:13:48Z</time>
      </trkpt>
      <trkpt lat="47.7062" lon="3.48997">
        <ele>186.3</ele>
        <time>2022-01-12T10:13:49Z</time>
      </trkpt>
      <trkpt lat="47.7062" lon="3.49">
        <ele>186.3</ele>
        <time>2022-01-12T10:13:50Z</time>
      </trkpt>
      <trkpt lat="47.7062" lon="3.49001">
        <ele>186.4</ele>
        <time>2022-01-12T10:13:51Z</time>
      </trkpt>
      <trkpt lat="47.7062" lon="3.49002">
        <ele>186.4</ele>
        <time>2022-01-12T10:13:52Z</time>
      </trkpt>
      <trkpt lat="47.7062" lon="3.49006">
        <ele>186.6</ele>
        <time>2022-01-12T10:13:54Z</time>
      </trkpt>
      <trkpt lat="47.7062" lon="3.49007">
        <ele>186.6</ele>
        <time>2022-01-12T10:13:55Z</time>
      </trkpt>
      <trkpt lat="47.70619" lon="3.49008">
        <ele>186.5</ele>
        <time>2022-01-12T10:13:56Z</time>
      </trkpt>
      <trkpt lat="47.70619" lon="3.49009">
        <ele>186.7</ele>
        <time>2022-01-12T10:13:57Z</time>
      </trkpt>
      <trkpt lat="47.7062" lon="3.49011">
        <ele>186.7</ele>
        <time>2022-01-12T10:13:58Z</time>
      </trkpt>
      <trkpt lat="47.7062" lon="3.49013">
        <ele>186.7</ele>
        <time>2022-01-12T10:13:59Z</time>
      </trkpt>
      <trkpt lat="47.70621" lon="3.49013">
        <ele>186.7</ele>
        <time>2022-01-12T10:14:00Z</time>
      </trkpt>
      <trkpt lat="47.70621" lon="3.49013">
        <ele>186.7</ele>
        <time>2022-01-12T10:14:01Z</time>
      </trkpt>
      <trkpt lat="47.70622" lon="3.49013">
        <ele>186.7</ele>
        <time>2022-01-12T10:14:03Z</time>
      </trkpt>
      <trkpt lat="47.70623" lon="3.49013">
        <ele>186.7</ele>
        <time>2022-01-12T10:14:04Z</time>
      </trkpt>
      <trkpt lat="47.70623" lon="3.49013">
        <ele>186.7</ele>
        <time>2022-01-12T10:14:05Z</time>
      </trkpt>
      <trkpt lat="47.70623" lon="3.49012">
        <ele>186.7</ele>
        <time>2022-01-12T10:14:06Z</time>
      </trkpt>
      <trkpt lat="47.70623" lon="3.49011">
        <ele>186.7</ele>
        <time>2022-01-12T10:14:08Z</time>
      </trkpt>
      <trkpt lat="47.70623" lon="3.49011">
        <ele>186.7</ele>
        <time>2022-01-12T10:14:09Z</time>
      </trkpt>
      <trkpt lat="47.70622" lon="3.49011">
        <ele>186.7</ele>
        <time>2022-01-12T10:14:10Z</time>
      </trkpt>
      <trkpt lat="47.70622" lon="3.49012">
        <ele>186.7</ele>
        <time>2022-01-12T10:14:11Z</time>
      </trkpt>
      <trkpt lat="47.70622" lon="3.49013">
        <ele>186.7</ele>
        <time>2022-01-12T10:14:12Z</time>
      </trkpt>
      <trkpt lat="47.70622" lon="3.49013">
        <ele>186.7</ele>
        <time>2022-01-12T10:14:13Z</time>
      </trkpt>
      <trkpt lat="47.70622" lon="3.49013">
        <ele>186.7</ele>
        <time>2022-01-12T10:14:14Z</time>
      </trkpt>
      <trkpt lat="47.70623" lon="3.49013">
        <ele>186.7</ele>
        <time>2022-01-12T10:14:16Z</time>
      </trkpt>
      <trkpt lat="47.70623" lon="3.49013">
        <ele>186.7</ele>
        <time>2022-01-12T10:14:17Z</time>
      </trkpt>
      <trkpt lat="47.70623" lon="3.49013">
        <ele>186.7</ele>
        <time>2022-01-12T10:14:18Z</time>
      </trkpt>
      <trkpt lat="47.70623" lon="3.49013">
        <ele>186.9</ele>
        <time>2022-01-12T10:14:19Z</time>
      </trkpt>
      <trkpt lat="47.70623" lon="3.49014">
        <ele>186.9</ele>
        <time>2022-01-12T10:14:20Z</time>
      </trkpt>
      <trkpt lat="47.70623" lon="3.49014">
        <ele>186.9</ele>
        <time>2022-01-12T10:14:22Z</time>
      </trkpt>
      <trkpt lat="47.70622" lon="3.49014">
        <ele>186.9</ele>
        <time>2022-01-12T10:14:23Z</time>
      </trkpt>
      <trkpt lat="47.70622" lon="3.49013">
        <ele>186.9</ele>
        <time>2022-01-12T10:14:24Z</time>
      </trkpt>
      <trkpt lat="47.70622" lon="3.49014">
        <ele>186.9</ele>
        <time>2022-01-12T10:14:25Z</time>
      </trkpt>
      <trkpt lat="47.70623" lon="3.49014">
        <ele>186.9</ele>
        <time>2022-01-12T10:14:27Z</time>
      </trkpt>
      <trkpt lat="47.70622" lon="3.49014">
        <ele>186.9</ele>
        <time>2022-01-12T10:14:28Z</time>
      </trkpt>
      <trkpt lat="47.70622" lon="3.49015">
        <ele>186.9</ele>
        <time>2022-01-12T10:14:29Z</time>
      </trkpt>
      <trkpt lat="47.70622" lon="3.49015">
        <ele>186.9</ele>
        <time>2022-01-12T10:14:31Z</time>
      </trkpt>
      <trkpt lat="47.70623" lon="3.49015">
        <ele>186.9</ele>
        <time>2022-01-12T10:14:32Z</time>
      </trkpt>
      <trkpt lat="47.70624" lon="3.49016">
        <ele>186.9</ele>
        <time>2022-01-12T10:14:33Z</time>
      </trkpt>
      <trkpt lat="47.70625" lon="3.49017">
        <ele>186.8</ele>
        <time>2022-01-12T10:14:34Z</time>
      </trkpt>
      <trkpt lat="47.70626" lon="3.49017">
        <ele>186.8</ele>
        <time>2022-01-12T10:14:35Z</time>
      </trkpt>
      <trkpt lat="47.70627" lon="3.49018">
        <ele>186.8</ele>
        <time>2022-01-12T10:14:36Z</time>
      </trkpt>
      <trkpt lat="47.70629" lon="3.49018">
        <ele>186.8</ele>
        <time>2022-01-12T10:14:38Z</time>
      </trkpt>
      <trkpt lat="47.70631" lon="3.49018">
        <ele>186.8</ele>
        <time>2022-01-12T10:14:39Z</time>
      </trkpt>
      <trkpt lat="47.70633" lon="3.49018">
        <ele>186.8</ele>
        <time>2022-01-12T10:14:40Z</time>
      </trkpt>
      <trkpt lat="47.70635" lon="3.49018">
        <ele>186.7</ele>
        <time>2022-01-12T10:14:41Z</time>
      </trkpt>
      <trkpt lat="47.70636" lon="3.49018">
        <ele>186.7</ele>
        <time>2022-01-12T10:14:42Z</time>
      </trkpt>
      <trkpt lat="47.70638" lon="3.49018">
        <ele>186.7</ele>
        <time>2022-01-12T10:14:43Z</time>
      </trkpt>
      <trkpt lat="47.7064" lon="3.49018">
        <ele>186.7</ele>
        <time>2022-01-12T10:14:45Z</time>
      </trkpt>
      <trkpt lat="47.70641" lon="3.49019">
        <ele>186.7</ele>
        <time>2022-01-12T10:14:46Z</time>
      </trkpt>
      <trkpt lat="47.70643" lon="3.4902">
        <ele>186.7</ele>
        <time>2022-01-12T10:14:47Z</time>
      </trkpt>
      <trkpt lat="47.70644" lon="3.4902">
        <ele>186.7</ele>
        <time>2022-01-12T10:14:48Z</time>
      </trkpt>
      <trkpt lat="47.70646" lon="3.49021">
        <ele>186.7</ele>
        <time>2022-01-12T10:14:49Z</time>
      </trkpt>
      <trkpt lat="47.70647" lon="3.49021">
        <ele>186.6</ele>
        <time>2022-01-12T10:14:50Z</time>
      </trkpt>
      <trkpt lat="47.70649" lon="3.4902">
        <ele>186.6</ele>
        <time>2022-01-12T10:14:51Z</time>
      </trkpt>
      <trkpt lat="47.70651" lon="3.4902">
        <ele>186.6</ele>
        <time>2022-01-12T10:14:53Z</time>
      </trkpt>
      <trkpt lat="47.70652" lon="3.49019">
        <ele>186.6</ele>
        <time>2022-01-12T10:14:54Z</time>
      </trkpt>
      <trkpt lat="47.70654" lon="3.49019">
        <ele>186.6</ele>
        <time>2022-01-12T10:14:55Z</time>
      </trkpt>
      <trkpt lat="47.70656" lon="3.49019">
        <ele>186.6</ele>
        <time>2022-01-12T10:14:56Z</time>
      </trkpt>
      <trkpt lat="47.70657" lon="3.49019">
        <ele>186.6</ele>
        <time>2022-01-12T10:14:57Z</time>
      </trkpt>
      <trkpt lat="47.70658" lon="3.49019">
        <ele>186.5</ele>
        <time>2022-01-12T10:14:58Z</time>
      </trkpt>
      <trkpt lat="47.7066" lon="3.49019">
        <ele>186.5</ele>
        <time>2022-01-12T10:14:59Z</time>
      </trkpt>
      <trkpt lat="47.70662" lon="3.4902">
        <ele>186.5</ele>
        <time>2022-01-12T10:15:00Z</time>
      </trkpt>
      <trkpt lat="47.70664" lon="3.4902">
        <ele>186.5</ele>
        <time>2022-01-12T10:15:01Z</time>
      </trkpt>
      <trkpt lat="47.70664" lon="3.4902">
        <ele>186.5</ele>
        <time>2022-01-12T10:15:02Z</time>
      </trkpt>
      <trkpt lat="47.70665" lon="3.4902">
        <ele>186.5</ele>
        <time>2022-01-12T10:15:03Z</time>
      </trkpt>
      <trkpt lat="47.70668" lon="3.4902">
        <ele>186.5</ele>
        <time>2022-01-12T10:15:04Z</time>
      </trkpt>
      <trkpt lat="47.70669" lon="3.4902">
        <ele>186.5</ele>
        <time>2022-01-12T10:15:06Z</time>
      </trkpt>
      <trkpt lat="47.70671" lon="3.4902">
        <ele>186.5</ele>
        <time>2022-01-12T10:15:07Z</time>
      </trkpt>
      <trkpt lat="47.70672" lon="3.49021">
        <ele>186.4</ele>
        <time>2022-01-12T10:15:08Z</time>
      </trkpt>
      <trkpt lat="47.70674" lon="3.49021">
        <ele>186.4</ele>
        <time>2022-01-12T10:15:09Z</time>
      </trkpt>
      <trkpt lat="47.70675" lon="3.49021">
        <ele>186.4</ele>
        <time>2022-01-12T10:15:10Z</time>
      </trkpt>
      <trkpt lat="47.70676" lon="3.49021">
        <ele>186.4</ele>
        <time>2022-01-12T10:15:11Z</time>
      </trkpt>
      <trkpt lat="47.70679" lon="3.49022">
        <ele>186.4</ele>
        <time>2022-01-12T10:15:13Z</time>
      </trkpt>
      <trkpt lat="47.7068" lon="3.49023">
        <ele>186.4</ele>
        <time>2022-01-12T10:15:14Z</time>
      </trkpt>
      <trkpt lat="47.70682" lon="3.49023">
        <ele>186.4</ele>
        <time>2022-01-12T10:15:15Z</time>
      </trkpt>
      <trkpt lat="47.70685" lon="3.49023">
        <ele>186.4</ele>
        <time>2022-01-12T10:15:17Z</time>
      </trkpt>
      <trkpt lat="47.70686" lon="3.49023">
        <ele>186.3</ele>
        <time>2022-01-12T10:15:18Z</time>
      </trkpt>
      <trkpt lat="47.70688" lon="3.49024">
        <ele>186.3</ele>
        <time>2022-01-12T10:15:19Z</time>
      </trkpt>
      <trkpt lat="47.70689" lon="3.49024">
        <ele>186.3</ele>
        <time>2022-01-12T10:15:20Z</time>
      </trkpt>
      <trkpt lat="47.70691" lon="3.49024">
        <ele>186.3</ele>
        <time>2022-01-12T10:15:21Z</time>
      </trkpt>
      <trkpt lat="47.70693" lon="3.49025">
        <ele>186.3</ele>
        <time>2022-01-12T10:15:22Z</time>
      </trkpt>
      <trkpt lat="47.70694" lon="3.49025">
        <ele>186.3</ele>
        <time>2022-01-12T10:15:23Z</time>
      </trkpt>
      <trkpt lat="47.70696" lon="3.49026">
        <ele>186.3</ele>
        <time>2022-01-12T10:15:24Z</time>
      </trkpt>
      <trkpt lat="47.70698" lon="3.49027">
        <ele>186.3</ele>
        <time>2022-01-12T10:15:25Z</time>
      </trkpt>
      <trkpt lat="47.70699" lon="3.49028">
        <ele>186.3</ele>
        <time>2022-01-12T10:15:26Z</time>
      </trkpt>
      <trkpt lat="47.70701" lon="3.49028">
        <ele>186.2</ele>
        <time>2022-01-12T10:15:28Z</time>
      </trkpt>
      <trkpt lat="47.70704" lon="3.49029">
        <ele>186.2</ele>
        <time>2022-01-12T10:15:29Z</time>
      </trkpt>
      <trkpt lat="47.70705" lon="3.49029">
        <ele>186.2</ele>
        <time>2022-01-12T10:15:30Z</time>
      </trkpt>
      <trkpt lat="47.70709" lon="3.4903">
        <ele>186.2</ele>
        <time>2022-01-12T10:15:31Z</time>
      </trkpt>
      <trkpt lat="47.7071" lon="3.4903">
        <ele>186.2</ele>
        <time>2022-01-12T10:15:32Z</time>
      </trkpt>
      <trkpt lat="47.70712" lon="3.4903">
        <ele>186.2</ele>
        <time>2022-01-12T10:15:33Z</time>
      </trkpt>
      <trkpt lat="47.70714" lon="3.49029">
        <ele>186.2</ele>
        <time>2022-01-12T10:15:35Z</time>
      </trkpt>
      <trkpt lat="47.70713" lon="3.49029">
        <ele>186.2</ele>
        <time>2022-01-12T10:15:36Z</time>
      </trkpt>
      <trkpt lat="47.70712" lon="3.49028">
        <ele>186.2</ele>
        <time>2022-01-12T10:15:37Z</time>
      </trkpt>
      <trkpt lat="47.70712" lon="3.49028">
        <ele>186.2</ele>
        <time>2022-01-12T10:15:38Z</time>
      </trkpt>
      <trkpt lat="47.70712" lon="3.49028">
        <ele>186.2</ele>
        <time>2022-01-12T10:15:39Z</time>
      </trkpt>
      <trkpt lat="47.70712" lon="3.49028">
        <ele>186.2</ele>
        <time>2022-01-12T10:15:40Z</time>
      </trkpt>
      <trkpt lat="47.70712" lon="3.49027">
        <ele>186.2</ele>
        <time>2022-01-12T10:15:41Z</time>
      </trkpt>
      <trkpt lat="47.70712" lon="3.49027">
        <ele>186.2</ele>
        <time>2022-01-12T10:15:42Z</time>
      </trkpt>
      <trkpt lat="47.70711" lon="3.49028">
        <ele>186.2</ele>
        <time>2022-01-12T10:15:43Z</time>
      </trkpt>
      <trkpt lat="47.7071" lon="3.4903">
        <ele>186.2</ele>
        <time>2022-01-12T10:15:44Z</time>
      </trkpt>
      <trkpt lat="47.7071" lon="3.49031">
        <ele>186.2</ele>
        <time>2022-01-12T10:15:45Z</time>
      </trkpt>
      <trkpt lat="47.7071" lon="3.49031">
        <ele>186.2</ele>
        <time>2022-01-12T10:15:46Z</time>
      </trkpt>
      <trkpt lat="47.70709" lon="3.49032">
        <ele>186.2</ele>
        <time>2022-01-12T10:15:47Z</time>
      </trkpt>
      <trkpt lat="47.7071" lon="3.49033">
        <ele>186.2</ele>
        <time>2022-01-12T10:15:48Z</time>
      </trkpt>
      <trkpt lat="47.70709" lon="3.49033">
        <ele>186.2</ele>
        <time>2022-01-12T10:15:49Z</time>
      </trkpt>
      <trkpt lat="47.70709" lon="3.49032">
        <ele>186.2</ele>
        <time>2022-01-12T10:15:50Z</time>
      </trkpt>
      <trkpt lat="47.70709" lon="3.49032">
        <ele>186.2</ele>
        <time>2022-01-12T10:15:51Z</time>
      </trkpt>
      <trkpt lat="47.70709" lon="3.49033">
        <ele>186.2</ele>
        <time>2022-01-12T10:15:52Z</time>
      </trkpt>
      <trkpt lat="47.7071" lon="3.49034">
        <ele>186.2</ele>
        <time>2022-01-12T10:15:53Z</time>
      </trkpt>
      <trkpt lat="47.70711" lon="3.49035">
        <ele>186.1</ele>
        <time>2022-01-12T10:15:54Z</time>
      </trkpt>
      <trkpt lat="47.70712" lon="3.49037">
        <ele>186.1</ele>
        <time>2022-01-12T10:15:55Z</time>
      </trkpt>
      <trkpt lat="47.70713" lon="3.49038">
        <ele>186.1</ele>
        <time>2022-01-12T10:15:56Z</time>
      </trkpt>
      <trkpt lat="47.70713" lon="3.49039">
        <ele>186.1</ele>
        <time>2022-01-12T10:15:58Z</time>
      </trkpt>
      <trkpt lat="47.70714" lon="3.4904">
        <ele>186.1</ele>
        <time>2022-01-12T10:15:59Z</time>
      </trkpt>
      <trkpt lat="47.70714" lon="3.49041">
        <ele>186.1</ele>
        <time>2022-01-12T10:16:00Z</time>
      </trkpt>
      <trkpt lat="47.70718" lon="3.49038">
        <ele>186.1</ele>
        <time>2022-01-12T10:16:01Z</time>
      </trkpt>
      <trkpt lat="47.70719" lon="3.49038">
        <ele>186.1</ele>
        <time>2022-01-12T10:16:02Z</time>
      </trkpt>
      <trkpt lat="47.70721" lon="3.49036">
        <ele>186.1</ele>
        <time>2022-01-12T10:16:03Z</time>
      </trkpt>
      <trkpt lat="47.70722" lon="3.49036">
        <ele>186.1</ele>
        <time>2022-01-12T10:16:04Z</time>
      </trkpt>
      <trkpt lat="47.70724" lon="3.49036">
        <ele>186.1</ele>
        <time>2022-01-12T10:16:05Z</time>
      </trkpt>
      <trkpt lat="47.70725" lon="3.49036">
        <ele>186.1</ele>
        <time>2022-01-12T10:16:06Z</time>
      </trkpt>
      <trkpt lat="47.70727" lon="3.49036">
        <ele>186.1</ele>
        <time>2022-01-12T10:16:07Z</time>
      </trkpt>
      <trkpt lat="47.70729" lon="3.49036">
        <ele>186.1</ele>
        <time>2022-01-12T10:16:08Z</time>
      </trkpt>
      <trkpt lat="47.7073" lon="3.49037">
        <ele>186.1</ele>
        <time>2022-01-12T10:16:09Z</time>
      </trkpt>
      <trkpt lat="47.70732" lon="3.49037">
        <ele>186.1</ele>
        <time>2022-01-12T10:16:10Z</time>
      </trkpt>
      <trkpt lat="47.70733" lon="3.49038">
        <ele>186.1</ele>
        <time>2022-01-12T10:16:11Z</time>
      </trkpt>
      <trkpt lat="47.70735" lon="3.49038">
        <ele>186.1</ele>
        <time>2022-01-12T10:16:12Z</time>
      </trkpt>
      <trkpt lat="47.70737" lon="3.49039">
        <ele>186.1</ele>
        <time>2022-01-12T10:16:13Z</time>
      </trkpt>
      <trkpt lat="47.70738" lon="3.49039">
        <ele>186.1</ele>
        <time>2022-01-12T10:16:14Z</time>
      </trkpt>
      <trkpt lat="47.70739" lon="3.4904">
        <ele>186.1</ele>
        <time>2022-01-12T10:16:15Z</time>
      </trkpt>
      <trkpt lat="47.70741" lon="3.4904">
        <ele>186.1</ele>
        <time>2022-01-12T10:16:16Z</time>
      </trkpt>
      <trkpt lat="47.70742" lon="3.49041">
        <ele>186</ele>
        <time>2022-01-12T10:16:17Z</time>
      </trkpt>
      <trkpt lat="47.70744" lon="3.49041">
        <ele>186</ele>
        <time>2022-01-12T10:16:18Z</time>
      </trkpt>
      <trkpt lat="47.70746" lon="3.49042">
        <ele>186</ele>
        <time>2022-01-12T10:16:19Z</time>
      </trkpt>
      <trkpt lat="47.70748" lon="3.49042">
        <ele>186</ele>
        <time>2022-01-12T10:16:21Z</time>
      </trkpt>
      <trkpt lat="47.70749" lon="3.49043">
        <ele>186</ele>
        <time>2022-01-12T10:16:22Z</time>
      </trkpt>
      <trkpt lat="47.7075" lon="3.49043">
        <ele>186</ele>
        <time>2022-01-12T10:16:23Z</time>
      </trkpt>
      <trkpt lat="47.70752" lon="3.49043">
        <ele>186</ele>
        <time>2022-01-12T10:16:24Z</time>
      </trkpt>
      <trkpt lat="47.70753" lon="3.49044">
        <ele>186</ele>
        <time>2022-01-12T10:16:25Z</time>
      </trkpt>
      <trkpt lat="47.70754" lon="3.49044">
        <ele>186</ele>
        <time>2022-01-12T10:16:26Z</time>
      </trkpt>
      <trkpt lat="47.70756" lon="3.49045">
        <ele>186</ele>
        <time>2022-01-12T10:16:27Z</time>
      </trkpt>
      <trkpt lat="47.70757" lon="3.49045">
        <ele>186</ele>
        <time>2022-01-12T10:16:28Z</time>
      </trkpt>
      <trkpt lat="47.70759" lon="3.49046">
        <ele>186</ele>
        <time>2022-01-12T10:16:29Z</time>
      </trkpt>
      <trkpt lat="47.70761" lon="3.49047">
        <ele>186</ele>
        <time>2022-01-12T10:16:30Z</time>
      </trkpt>
      <trkpt lat="47.70762" lon="3.49047">
        <ele>186</ele>
        <time>2022-01-12T10:16:31Z</time>
      </trkpt>
      <trkpt lat="47.70765" lon="3.49048">
        <ele>185.9</ele>
        <time>2022-01-12T10:16:32Z</time>
      </trkpt>
      <trkpt lat="47.70766" lon="3.49048">
        <ele>185.9</ele>
        <time>2022-01-12T10:16:33Z</time>
      </trkpt>
      <trkpt lat="47.70767" lon="3.49049">
        <ele>185.9</ele>
        <time>2022-01-12T10:16:34Z</time>
      </trkpt>
      <trkpt lat="47.70769" lon="3.49049">
        <ele>185.9</ele>
        <time>2022-01-12T10:16:35Z</time>
      </trkpt>
      <trkpt lat="47.70771" lon="3.49049">
        <ele>185.9</ele>
        <time>2022-01-12T10:16:36Z</time>
      </trkpt>
      <trkpt lat="47.70772" lon="3.49049">
        <ele>185.9</ele>
        <time>2022-01-12T10:16:37Z</time>
      </trkpt>
      <trkpt lat="47.70774" lon="3.49049">
        <ele>185.8</ele>
        <time>2022-01-12T10:16:38Z</time>
      </trkpt>
      <trkpt lat="47.70776" lon="3.49049">
        <ele>185.8</ele>
        <time>2022-01-12T10:16:39Z</time>
      </trkpt>
      <trkpt lat="47.70777" lon="3.4905">
        <ele>185.8</ele>
        <time>2022-01-12T10:16:40Z</time>
      </trkpt>
      <trkpt lat="47.70778" lon="3.4905">
        <ele>185.8</ele>
        <time>2022-01-12T10:16:41Z</time>
      </trkpt>
      <trkpt lat="47.7078" lon="3.4905">
        <ele>185.8</ele>
        <time>2022-01-12T10:16:42Z</time>
      </trkpt>
      <trkpt lat="47.70781" lon="3.4905">
        <ele>185.7</ele>
        <time>2022-01-12T10:16:43Z</time>
      </trkpt>
      <trkpt lat="47.70784" lon="3.49051">
        <ele>185.7</ele>
        <time>2022-01-12T10:16:44Z</time>
      </trkpt>
      <trkpt lat="47.70784" lon="3.49051">
        <ele>185.7</ele>
        <time>2022-01-12T10:16:45Z</time>
      </trkpt>
      <trkpt lat="47.70785" lon="3.49051">
        <ele>185.7</ele>
        <time>2022-01-12T10:16:46Z</time>
      </trkpt>
      <trkpt lat="47.70787" lon="3.49052">
        <ele>185.7</ele>
        <time>2022-01-12T10:16:47Z</time>
      </trkpt>
      <trkpt lat="47.70788" lon="3.49052">
        <ele>185.6</ele>
        <time>2022-01-12T10:16:48Z</time>
      </trkpt>
      <trkpt lat="47.7079" lon="3.49053">
        <ele>185.6</ele>
        <time>2022-01-12T10:16:50Z</time>
      </trkpt>
      <trkpt lat="47.70792" lon="3.49053">
        <ele>185.6</ele>
        <time>2022-01-12T10:16:51Z</time>
      </trkpt>
      <trkpt lat="47.70793" lon="3.49054">
        <ele>185.5</ele>
        <time>2022-01-12T10:16:52Z</time>
      </trkpt>
      <trkpt lat="47.70795" lon="3.49054">
        <ele>185.5</ele>
        <time>2022-01-12T10:16:53Z</time>
      </trkpt>
      <trkpt lat="47.70796" lon="3.49055">
        <ele>185.5</ele>
        <time>2022-01-12T10:16:54Z</time>
      </trkpt>
      <trkpt lat="47.70798" lon="3.49055">
        <ele>185.5</ele>
        <time>2022-01-12T10:16:55Z</time>
      </trkpt>
      <trkpt lat="47.70799" lon="3.49055">
        <ele>185.4</ele>
        <time>2022-01-12T10:16:57Z</time>
      </trkpt>
      <trkpt lat="47.70801" lon="3.49056">
        <ele>185.4</ele>
        <time>2022-01-12T10:16:58Z</time>
      </trkpt>
      <trkpt lat="47.70802" lon="3.49056">
        <ele>185.4</ele>
        <time>2022-01-12T10:16:59Z</time>
      </trkpt>
      <trkpt lat="47.70804" lon="3.49056">
        <ele>185.3</ele>
        <time>2022-01-12T10:17:00Z</time>
      </trkpt>
      <trkpt lat="47.70806" lon="3.49056">
        <ele>185.3</ele>
        <time>2022-01-12T10:17:01Z</time>
      </trkpt>
      <trkpt lat="47.70807" lon="3.49056">
        <ele>185.3</ele>
        <time>2022-01-12T10:17:02Z</time>
      </trkpt>
      <trkpt lat="47.70808" lon="3.49056">
        <ele>185.3</ele>
        <time>2022-01-12T10:17:03Z</time>
      </trkpt>
      <trkpt lat="47.70809" lon="3.49056">
        <ele>185.3</ele>
        <time>2022-01-12T10:17:04Z</time>
      </trkpt>
      <trkpt lat="47.7081" lon="3.49057">
        <ele>185.2</ele>
        <time>2022-01-12T10:17:05Z</time>
      </trkpt>
      <trkpt lat="47.70811" lon="3.49057">
        <ele>185.2</ele>
        <time>2022-01-12T10:17:06Z</time>
      </trkpt>
      <trkpt lat="47.70813" lon="3.49057">
        <ele>185.2</ele>
        <time>2022-01-12T10:17:08Z</time>
      </trkpt>
      <trkpt lat="47.70814" lon="3.49057">
        <ele>185.2</ele>
        <time>2022-01-12T10:17:09Z</time>
      </trkpt>
      <trkpt lat="47.70816" lon="3.49057">
        <ele>185.1</ele>
        <time>2022-01-12T10:17:10Z</time>
      </trkpt>
      <trkpt lat="47.70817" lon="3.49058">
        <ele>185.1</ele>
        <time>2022-01-12T10:17:11Z</time>
      </trkpt>
      <trkpt lat="47.7082" lon="3.49058">
        <ele>185.1</ele>
        <time>2022-01-12T10:17:13Z</time>
      </trkpt>
      <trkpt lat="47.70821" lon="3.49058">
        <ele>185</ele>
        <time>2022-01-12T10:17:14Z</time>
      </trkpt>
      <trkpt lat="47.70824" lon="3.49058">
        <ele>185</ele>
        <time>2022-01-12T10:17:15Z</time>
      </trkpt>
      <trkpt lat="47.70825" lon="3.49058">
        <ele>185</ele>
        <time>2022-01-12T10:17:16Z</time>
      </trkpt>
      <trkpt lat="47.70826" lon="3.49059">
        <ele>184.9</ele>
        <time>2022-01-12T10:17:17Z</time>
      </trkpt>
      <trkpt lat="47.70827" lon="3.49059">
        <ele>184.9</ele>
        <time>2022-01-12T10:17:18Z</time>
      </trkpt>
      <trkpt lat="47.70828" lon="3.49059">
        <ele>184.9</ele>
        <time>2022-01-12T10:17:19Z</time>
      </trkpt>
      <trkpt lat="47.70831" lon="3.49059">
        <ele>184.8</ele>
        <time>2022-01-12T10:17:20Z</time>
      </trkpt>
      <trkpt lat="47.70832" lon="3.49059">
        <ele>184.8</ele>
        <time>2022-01-12T10:17:21Z</time>
      </trkpt>
      <trkpt lat="47.70833" lon="3.49059">
        <ele>184.8</ele>
        <time>2022-01-12T10:17:22Z</time>
      </trkpt>
      <trkpt lat="47.70835" lon="3.4906">
        <ele>184.8</ele>
        <time>2022-01-12T10:17:23Z</time>
      </trkpt>
      <trkpt lat="47.70836" lon="3.4906">
        <ele>184.7</ele>
        <time>2022-01-12T10:17:25Z</time>
      </trkpt>
      <trkpt lat="47.70838" lon="3.49059">
        <ele>184.7</ele>
        <time>2022-01-12T10:17:26Z</time>
      </trkpt>
      <trkpt lat="47.7084" lon="3.49059">
        <ele>184.6</ele>
        <time>2022-01-12T10:17:27Z</time>
      </trkpt>
      <trkpt lat="47.70843" lon="3.49059">
        <ele>184.6</ele>
        <time>2022-01-12T10:17:28Z</time>
      </trkpt>
      <trkpt lat="47.70843" lon="3.49059">
        <ele>184.6</ele>
        <time>2022-01-12T10:17:29Z</time>
      </trkpt>
      <trkpt lat="47.70845" lon="3.4906">
        <ele>184.5</ele>
        <time>2022-01-12T10:17:30Z</time>
      </trkpt>
      <trkpt lat="47.70847" lon="3.4906">
        <ele>184.5</ele>
        <time>2022-01-12T10:17:31Z</time>
      </trkpt>
      <trkpt lat="47.70848" lon="3.49059">
        <ele>184.5</ele>
        <time>2022-01-12T10:17:32Z</time>
      </trkpt>
      <trkpt lat="47.7085" lon="3.49059">
        <ele>184.4</ele>
        <time>2022-01-12T10:17:33Z</time>
      </trkpt>
      <trkpt lat="47.70852" lon="3.49059">
        <ele>184.4</ele>
        <time>2022-01-12T10:17:35Z</time>
      </trkpt>
      <trkpt lat="47.70853" lon="3.4906">
        <ele>184.4</ele>
        <time>2022-01-12T10:17:36Z</time>
      </trkpt>
      <trkpt lat="47.70855" lon="3.49059">
        <ele>184.3</ele>
        <time>2022-01-12T10:17:37Z</time>
      </trkpt>
      <trkpt lat="47.70856" lon="3.49059">
        <ele>184.3</ele>
        <time>2022-01-12T10:17:38Z</time>
      </trkpt>
      <trkpt lat="47.70857" lon="3.49059">
        <ele>184.3</ele>
        <time>2022-01-12T10:17:39Z</time>
      </trkpt>
      <trkpt lat="47.70858" lon="3.49059">
        <ele>184.2</ele>
        <time>2022-01-12T10:17:40Z</time>
      </trkpt>
      <trkpt lat="47.7086" lon="3.49059">
        <ele>184.2</ele>
        <time>2022-01-12T10:17:41Z</time>
      </trkpt>
      <trkpt lat="47.70862" lon="3.49059">
        <ele>184.2</ele>
        <time>2022-01-12T10:17:42Z</time>
      </trkpt>
      <trkpt lat="47.70863" lon="3.49059">
        <ele>184.1</ele>
        <time>2022-01-12T10:17:43Z</time>
      </trkpt>
      <trkpt lat="47.70864" lon="3.49059">
        <ele>184.1</ele>
        <time>2022-01-12T10:17:44Z</time>
      </trkpt>
      <trkpt lat="47.70866" lon="3.49058">
        <ele>184.1</ele>
        <time>2022-01-12T10:17:45Z</time>
      </trkpt>
      <trkpt lat="47.70867" lon="3.49058">
        <ele>184.1</ele>
        <time>2022-01-12T10:17:46Z</time>
      </trkpt>
      <trkpt lat="47.70867" lon="3.49057">
        <ele>184.1</ele>
        <time>2022-01-12T10:17:47Z</time>
      </trkpt>
      <trkpt lat="47.70869" lon="3.49057">
        <ele>184</ele>
        <time>2022-01-12T10:17:49Z</time>
      </trkpt>
      <trkpt lat="47.70871" lon="3.49057">
        <ele>184</ele>
        <time>2022-01-12T10:17:50Z</time>
      </trkpt>
      <trkpt lat="47.70873" lon="3.49057">
        <ele>184</ele>
        <time>2022-01-12T10:17:51Z</time>
      </trkpt>
      <trkpt lat="47.70874" lon="3.49057">
        <ele>183.9</ele>
        <time>2022-01-12T10:17:52Z</time>
      </trkpt>
      <trkpt lat="47.70874" lon="3.49057">
        <ele>183.9</ele>
        <time>2022-01-12T10:17:53Z</time>
      </trkpt>
      <trkpt lat="47.70876" lon="3.49057">
        <ele>183.9</ele>
        <time>2022-01-12T10:17:54Z</time>
      </trkpt>
      <trkpt lat="47.70878" lon="3.49057">
        <ele>183.9</ele>
        <time>2022-01-12T10:17:55Z</time>
      </trkpt>
      <trkpt lat="47.7088" lon="3.49057">
        <ele>183.8</ele>
        <time>2022-01-12T10:17:56Z</time>
      </trkpt>
      <trkpt lat="47.70881" lon="3.49057">
        <ele>183.8</ele>
        <time>2022-01-12T10:17:57Z</time>
      </trkpt>
      <trkpt lat="47.70882" lon="3.49057">
        <ele>183.8</ele>
        <time>2022-01-12T10:17:58Z</time>
      </trkpt>
      <trkpt lat="47.70883" lon="3.49057">
        <ele>183.8</ele>
        <time>2022-01-12T10:18:00Z</time>
      </trkpt>
      <trkpt lat="47.70885" lon="3.49057">
        <ele>183.8</ele>
        <time>2022-01-12T10:18:01Z</time>
      </trkpt>
      <trkpt lat="47.70887" lon="3.49057">
        <ele>183.7</ele>
        <time>2022-01-12T10:18:02Z</time>
      </trkpt>
      <trkpt lat="47.70888" lon="3.49057">
        <ele>183.7</ele>
        <time>2022-01-12T10:18:03Z</time>
      </trkpt>
      <trkpt lat="47.70889" lon="3.49057">
        <ele>183.7</ele>
        <time>2022-01-12T10:18:04Z</time>
      </trkpt>
      <trkpt lat="47.70891" lon="3.49057">
        <ele>183.7</ele>
        <time>2022-01-12T10:18:05Z</time>
      </trkpt>
      <trkpt lat="47.70892" lon="3.49057">
        <ele>183.7</ele>
        <time>2022-01-12T10:18:06Z</time>
      </trkpt>
      <trkpt lat="47.70894" lon="3.49057">
        <ele>183.6</ele>
        <time>2022-01-12T10:18:07Z</time>
      </trkpt>
      <trkpt lat="47.70894" lon="3.49057">
        <ele>183.6</ele>
        <time>2022-01-12T10:18:08Z</time>
      </trkpt>
      <trkpt lat="47.70895" lon="3.49057">
        <ele>183.6</ele>
        <time>2022-01-12T10:18:09Z</time>
      </trkpt>
      <trkpt lat="47.70897" lon="3.49056">
        <ele>183.6</ele>
        <time>2022-01-12T10:18:11Z</time>
      </trkpt>
      <trkpt lat="47.70898" lon="3.49056">
        <ele>183.6</ele>
        <time>2022-01-12T10:18:12Z</time>
      </trkpt>
      <trkpt lat="47.70901" lon="3.49056">
        <ele>183.5</ele>
        <time>2022-01-12T10:18:13Z</time>
      </trkpt>
      <trkpt lat="47.70902" lon="3.49056">
        <ele>183.5</ele>
        <time>2022-01-12T10:18:14Z</time>
      </trkpt>
      <trkpt lat="47.70903" lon="3.49055">
        <ele>183.5</ele>
        <time>2022-01-12T10:18:15Z</time>
      </trkpt>
      <trkpt lat="47.70904" lon="3.49055">
        <ele>183.5</ele>
        <time>2022-01-12T10:18:16Z</time>
      </trkpt>
      <trkpt lat="47.70905" lon="3.49056">
        <ele>183.5</ele>
        <time>2022-01-12T10:18:17Z</time>
      </trkpt>
      <trkpt lat="47.70906" lon="3.49056">
        <ele>183.5</ele>
        <time>2022-01-12T10:18:19Z</time>
      </trkpt>
      <trkpt lat="47.70908" lon="3.49057">
        <ele>183.4</ele>
        <time>2022-01-12T10:18:20Z</time>
      </trkpt>
      <trkpt lat="47.70909" lon="3.49057">
        <ele>183.4</ele>
        <time>2022-01-12T10:18:21Z</time>
      </trkpt>
      <trkpt lat="47.7091" lon="3.49058">
        <ele>183.4</ele>
        <time>2022-01-12T10:18:22Z</time>
      </trkpt>
      <trkpt lat="47.70911" lon="3.49058">
        <ele>183.4</ele>
        <time>2022-01-12T10:18:23Z</time>
      </trkpt>
      <trkpt lat="47.70912" lon="3.49059">
        <ele>183.4</ele>
        <time>2022-01-12T10:18:24Z</time>
      </trkpt>
      <trkpt lat="47.70913" lon="3.4906">
        <ele>183.4</ele>
        <time>2022-01-12T10:18:25Z</time>
      </trkpt>
      <trkpt lat="47.70914" lon="3.4906">
        <ele>183.4</ele>
        <time>2022-01-12T10:18:27Z</time>
      </trkpt>
      <trkpt lat="47.70915" lon="3.4906">
        <ele>183.4</ele>
        <time>2022-01-12T10:18:28Z</time>
      </trkpt>
      <trkpt lat="47.70916" lon="3.49061">
        <ele>183.3</ele>
        <time>2022-01-12T10:18:29Z</time>
      </trkpt>
      <trkpt lat="47.70917" lon="3.49061">
        <ele>183.3</ele>
        <time>2022-01-12T10:18:30Z</time>
      </trkpt>
      <trkpt lat="47.70918" lon="3.49061">
        <ele>183.3</ele>
        <time>2022-01-12T10:18:31Z</time>
      </trkpt>
      <trkpt lat="47.7092" lon="3.49062">
        <ele>183.3</ele>
        <time>2022-01-12T10:18:32Z</time>
      </trkpt>
      <trkpt lat="47.70921" lon="3.49062">
        <ele>183.3</ele>
        <time>2022-01-12T10:18:33Z</time>
      </trkpt>
      <trkpt lat="47.70922" lon="3.49062">
        <ele>183.3</ele>
        <time>2022-01-12T10:18:35Z</time>
      </trkpt>
      <trkpt lat="47.70923" lon="3.49063">
        <ele>183.2</ele>
        <time>2022-01-12T10:18:36Z</time>
      </trkpt>
      <trkpt lat="47.70924" lon="3.49063">
        <ele>183.2</ele>
        <time>2022-01-12T10:18:37Z</time>
      </trkpt>
      <trkpt lat="47.70925" lon="3.49063">
        <ele>183.2</ele>
        <time>2022-01-12T10:18:38Z</time>
      </trkpt>
      <trkpt lat="47.70926" lon="3.49063">
        <ele>183.2</ele>
        <time>2022-01-12T10:18:39Z</time>
      </trkpt>
      <trkpt lat="47.70928" lon="3.49063">
        <ele>183.2</ele>
        <time>2022-01-12T10:18:40Z</time>
      </trkpt>
      <trkpt lat="47.70929" lon="3.49063">
        <ele>183.2</ele>
        <time>2022-01-12T10:18:41Z</time>
      </trkpt>
      <trkpt lat="47.7093" lon="3.49063">
        <ele>183.2</ele>
        <time>2022-01-12T10:18:42Z</time>
      </trkpt>
      <trkpt lat="47.70931" lon="3.49063">
        <ele>183.1</ele>
        <time>2022-01-12T10:18:44Z</time>
      </trkpt>
      <trkpt lat="47.70932" lon="3.49063">
        <ele>183.1</ele>
        <time>2022-01-12T10:18:45Z</time>
      </trkpt>
      <trkpt lat="47.70934" lon="3.49063">
        <ele>183.1</ele>
        <time>2022-01-12T10:18:46Z</time>
      </trkpt>
      <trkpt lat="47.70935" lon="3.49063">
        <ele>183.1</ele>
        <time>2022-01-12T10:18:47Z</time>
      </trkpt>
      <trkpt lat="47.70935" lon="3.49063">
        <ele>183.1</ele>
        <time>2022-01-12T10:18:48Z</time>
      </trkpt>
      <trkpt lat="47.70938" lon="3.49063">
        <ele>183.1</ele>
        <time>2022-01-12T10:18:49Z</time>
      </trkpt>
      <trkpt lat="47.70939" lon="3.49063">
        <ele>183.1</ele>
        <time>2022-01-12T10:18:50Z</time>
      </trkpt>
      <trkpt lat="47.7094" lon="3.49063">
        <ele>183.1</ele>
        <time>2022-01-12T10:18:52Z</time>
      </trkpt>
      <trkpt lat="47.70941" lon="3.49063">
        <ele>183</ele>
        <time>2022-01-12T10:18:53Z</time>
      </trkpt>
      <trkpt lat="47.70942" lon="3.49063">
        <ele>183</ele>
        <time>2022-01-12T10:18:54Z</time>
      </trkpt>
      <trkpt lat="47.70943" lon="3.49062">
        <ele>183</ele>
        <time>2022-01-12T10:18:55Z</time>
      </trkpt>
      <trkpt lat="47.70943" lon="3.49063">
        <ele>183</ele>
        <time>2022-01-12T10:18:56Z</time>
      </trkpt>
      <trkpt lat="47.70944" lon="3.49063">
        <ele>183</ele>
        <time>2022-01-12T10:18:57Z</time>
      </trkpt>
      <trkpt lat="47.70945" lon="3.49063">
        <ele>183</ele>
        <time>2022-01-12T10:18:58Z</time>
      </trkpt>
      <trkpt lat="47.70946" lon="3.49064">
        <ele>183</ele>
        <time>2022-01-12T10:18:59Z</time>
      </trkpt>
      <trkpt lat="47.70947" lon="3.49065">
        <ele>183</ele>
        <time>2022-01-12T10:19:00Z</time>
      </trkpt>
      <trkpt lat="47.70948" lon="3.49065">
        <ele>183</ele>
        <time>2022-01-12T10:19:02Z</time>
      </trkpt>
      <trkpt lat="47.70948" lon="3.49066">
        <ele>183</ele>
        <time>2022-01-12T10:19:03Z</time>
      </trkpt>
      <trkpt lat="47.70949" lon="3.49067">
        <ele>182.9</ele>
        <time>2022-01-12T10:19:04Z</time>
      </trkpt>
      <trkpt lat="47.7095" lon="3.49067">
        <ele>182.9</ele>
        <time>2022-01-12T10:19:05Z</time>
      </trkpt>
      <trkpt lat="47.70951" lon="3.49067">
        <ele>182.9</ele>
        <time>2022-01-12T10:19:06Z</time>
      </trkpt>
      <trkpt lat="47.70951" lon="3.49067">
        <ele>182.9</ele>
        <time>2022-01-12T10:19:07Z</time>
      </trkpt>
      <trkpt lat="47.70952" lon="3.49067">
        <ele>182.9</ele>
        <time>2022-01-12T10:19:08Z</time>
      </trkpt>
      <trkpt lat="47.70953" lon="3.49067">
        <ele>182.9</ele>
        <time>2022-01-12T10:19:09Z</time>
      </trkpt>
      <trkpt lat="47.70954" lon="3.49068">
        <ele>182.9</ele>
        <time>2022-01-12T10:19:10Z</time>
      </trkpt>
      <trkpt lat="47.70956" lon="3.49068">
        <ele>182.9</ele>
        <time>2022-01-12T10:19:11Z</time>
      </trkpt>
      <trkpt lat="47.70957" lon="3.49068">
        <ele>182.9</ele>
        <time>2022-01-12T10:19:12Z</time>
      </trkpt>
      <trkpt lat="47.70958" lon="3.49068">
        <ele>182.9</ele>
        <time>2022-01-12T10:19:14Z</time>
      </trkpt>
      <trkpt lat="47.70959" lon="3.49069">
        <ele>182.8</ele>
        <time>2022-01-12T10:19:15Z</time>
      </trkpt>
      <trkpt lat="47.7096" lon="3.49069">
        <ele>182.8</ele>
        <time>2022-01-12T10:19:16Z</time>
      </trkpt>
      <trkpt lat="47.70961" lon="3.49069">
        <ele>182.8</ele>
        <time>2022-01-12T10:19:17Z</time>
      </trkpt>
      <trkpt lat="47.70963" lon="3.49069">
        <ele>182.8</ele>
        <time>2022-01-12T10:19:18Z</time>
      </trkpt>
      <trkpt lat="47.70964" lon="3.49069">
        <ele>182.8</ele>
        <time>2022-01-12T10:19:19Z</time>
      </trkpt>
      <trkpt lat="47.70964" lon="3.49069">
        <ele>182.8</ele>
        <time>2022-01-12T10:19:20Z</time>
      </trkpt>
      <trkpt lat="47.70967" lon="3.49069">
        <ele>182.8</ele>
        <time>2022-01-12T10:19:21Z</time>
      </trkpt>
      <trkpt lat="47.70968" lon="3.49069">
        <ele>182.8</ele>
        <time>2022-01-12T10:19:23Z</time>
      </trkpt>
      <trkpt lat="47.70969" lon="3.49069">
        <ele>182.7</ele>
        <time>2022-01-12T10:19:24Z</time>
      </trkpt>
      <trkpt lat="47.7097" lon="3.49069">
        <ele>182.7</ele>
        <time>2022-01-12T10:19:25Z</time>
      </trkpt>
      <trkpt lat="47.70972" lon="3.49069">
        <ele>182.7</ele>
        <time>2022-01-12T10:19:26Z</time>
      </trkpt>
      <trkpt lat="47.70973" lon="3.4907">
        <ele>182.7</ele>
        <time>2022-01-12T10:19:27Z</time>
      </trkpt>
      <trkpt lat="47.70975" lon="3.4907">
        <ele>182.7</ele>
        <time>2022-01-12T10:19:28Z</time>
      </trkpt>
      <trkpt lat="47.70976" lon="3.4907">
        <ele>182.7</ele>
        <time>2022-01-12T10:19:29Z</time>
      </trkpt>
      <trkpt lat="47.70978" lon="3.4907">
        <ele>182.7</ele>
        <time>2022-01-12T10:19:30Z</time>
      </trkpt>
      <trkpt lat="47.70979" lon="3.4907">
        <ele>182.7</ele>
        <time>2022-01-12T10:19:31Z</time>
      </trkpt>
      <trkpt lat="47.70981" lon="3.4907">
        <ele>182.6</ele>
        <time>2022-01-12T10:19:32Z</time>
      </trkpt>
      <trkpt lat="47.70982" lon="3.4907">
        <ele>182.6</ele>
        <time>2022-01-12T10:19:34Z</time>
      </trkpt>
      <trkpt lat="47.70983" lon="3.49068">
        <ele>182.6</ele>
        <time>2022-01-12T10:19:35Z</time>
      </trkpt>
      <trkpt lat="47.70985" lon="3.49067">
        <ele>182.6</ele>
        <time>2022-01-12T10:19:36Z</time>
      </trkpt>
      <trkpt lat="47.70986" lon="3.49067">
        <ele>182.6</ele>
        <time>2022-01-12T10:19:37Z</time>
      </trkpt>
      <trkpt lat="47.70987" lon="3.49067">
        <ele>182.6</ele>
        <time>2022-01-12T10:19:38Z</time>
      </trkpt>
      <trkpt lat="47.70989" lon="3.49067">
        <ele>182.6</ele>
        <time>2022-01-12T10:19:39Z</time>
      </trkpt>
      <trkpt lat="47.7099" lon="3.49067">
        <ele>182.5</ele>
        <time>2022-01-12T10:19:40Z</time>
      </trkpt>
      <trkpt lat="47.70991" lon="3.49068">
        <ele>182.5</ele>
        <time>2022-01-12T10:19:41Z</time>
      </trkpt>
      <trkpt lat="47.70992" lon="3.49068">
        <ele>182.5</ele>
        <time>2022-01-12T10:19:43Z</time>
      </trkpt>
      <trkpt lat="47.70994" lon="3.49069">
        <ele>182.5</ele>
        <time>2022-01-12T10:19:44Z</time>
      </trkpt>
      <trkpt lat="47.70996" lon="3.49069">
        <ele>182.5</ele>
        <time>2022-01-12T10:19:45Z</time>
      </trkpt>
      <trkpt lat="47.70997" lon="3.4907">
        <ele>182.5</ele>
        <time>2022-01-12T10:19:46Z</time>
      </trkpt>
      <trkpt lat="47.70998" lon="3.4907">
        <ele>182.5</ele>
        <time>2022-01-12T10:19:47Z</time>
      </trkpt>
      <trkpt lat="47.70999" lon="3.49071">
        <ele>182.5</ele>
        <time>2022-01-12T10:19:48Z</time>
      </trkpt>
      <trkpt lat="47.71" lon="3.49071">
        <ele>182.4</ele>
        <time>2022-01-12T10:19:49Z</time>
      </trkpt>
      <trkpt lat="47.71002" lon="3.49072">
        <ele>182.4</ele>
        <time>2022-01-12T10:19:51Z</time>
      </trkpt>
      <trkpt lat="47.71003" lon="3.49072">
        <ele>182.4</ele>
        <time>2022-01-12T10:19:52Z</time>
      </trkpt>
      <trkpt lat="47.71005" lon="3.49073">
        <ele>182.4</ele>
        <time>2022-01-12T10:19:53Z</time>
      </trkpt>
      <trkpt lat="47.71006" lon="3.49074">
        <ele>182.4</ele>
        <time>2022-01-12T10:19:54Z</time>
      </trkpt>
      <trkpt lat="47.71006" lon="3.49074">
        <ele>182.4</ele>
        <time>2022-01-12T10:19:55Z</time>
      </trkpt>
      <trkpt lat="47.71008" lon="3.49074">
        <ele>182.4</ele>
        <time>2022-01-12T10:19:56Z</time>
      </trkpt>
      <trkpt lat="47.71009" lon="3.49074">
        <ele>182.4</ele>
        <time>2022-01-12T10:19:57Z</time>
      </trkpt>
      <trkpt lat="47.7101" lon="3.49075">
        <ele>182.4</ele>
        <time>2022-01-12T10:19:59Z</time>
      </trkpt>
      <trkpt lat="47.71013" lon="3.49075">
        <ele>182.3</ele>
        <time>2022-01-12T10:20:00Z</time>
      </trkpt>
      <trkpt lat="47.71013" lon="3.49075">
        <ele>182.3</ele>
        <time>2022-01-12T10:20:01Z</time>
      </trkpt>
      <trkpt lat="47.71014" lon="3.49075">
        <ele>182.3</ele>
        <time>2022-01-12T10:20:02Z</time>
      </trkpt>
      <trkpt lat="47.71015" lon="3.49076">
        <ele>182.3</ele>
        <time>2022-01-12T10:20:03Z</time>
      </trkpt>
      <trkpt lat="47.71017" lon="3.49076">
        <ele>182.3</ele>
        <time>2022-01-12T10:20:04Z</time>
      </trkpt>
      <trkpt lat="47.71018" lon="3.49076">
        <ele>182.3</ele>
        <time>2022-01-12T10:20:05Z</time>
      </trkpt>
      <trkpt lat="47.71019" lon="3.49076">
        <ele>182.3</ele>
        <time>2022-01-12T10:20:06Z</time>
      </trkpt>
      <trkpt lat="47.7102" lon="3.49077">
        <ele>182.3</ele>
        <time>2022-01-12T10:20:07Z</time>
      </trkpt>
      <trkpt lat="47.71021" lon="3.49077">
        <ele>182.3</ele>
        <time>2022-01-12T10:20:08Z</time>
      </trkpt>
      <trkpt lat="47.71022" lon="3.49078">
        <ele>182.3</ele>
        <time>2022-01-12T10:20:10Z</time>
      </trkpt>
      <trkpt lat="47.71023" lon="3.49078">
        <ele>182.3</ele>
        <time>2022-01-12T10:20:11Z</time>
      </trkpt>
      <trkpt lat="47.71025" lon="3.49078">
        <ele>182.2</ele>
        <time>2022-01-12T10:20:12Z</time>
      </trkpt>
      <trkpt lat="47.71025" lon="3.49078">
        <ele>182.2</ele>
        <time>2022-01-12T10:20:13Z</time>
      </trkpt>
      <trkpt lat="47.71027" lon="3.49078">
        <ele>182.2</ele>
        <time>2022-01-12T10:20:14Z</time>
      </trkpt>
      <trkpt lat="47.71028" lon="3.49079">
        <ele>182.2</ele>
        <time>2022-01-12T10:20:15Z</time>
      </trkpt>
      <trkpt lat="47.71029" lon="3.49079">
        <ele>182.2</ele>
        <time>2022-01-12T10:20:16Z</time>
      </trkpt>
      <trkpt lat="47.7103" lon="3.49079">
        <ele>182.2</ele>
        <time>2022-01-12T10:20:17Z</time>
      </trkpt>
      <trkpt lat="47.71031" lon="3.49079">
        <ele>182.2</ele>
        <time>2022-01-12T10:20:18Z</time>
      </trkpt>
      <trkpt lat="47.71032" lon="3.4908">
        <ele>182.2</ele>
        <time>2022-01-12T10:20:19Z</time>
      </trkpt>
      <trkpt lat="47.71033" lon="3.4908">
        <ele>182.2</ele>
        <time>2022-01-12T10:20:21Z</time>
      </trkpt>
      <trkpt lat="47.71034" lon="3.4908">
        <ele>182.2</ele>
        <time>2022-01-12T10:20:22Z</time>
      </trkpt>
      <trkpt lat="47.71036" lon="3.49081">
        <ele>182.2</ele>
        <time>2022-01-12T10:20:23Z</time>
      </trkpt>
      <trkpt lat="47.71036" lon="3.49082">
        <ele>182.1</ele>
        <time>2022-01-12T10:20:24Z</time>
      </trkpt>
      <trkpt lat="47.71038" lon="3.49082">
        <ele>182.1</ele>
        <time>2022-01-12T10:20:25Z</time>
      </trkpt>
      <trkpt lat="47.71039" lon="3.49083">
        <ele>182.1</ele>
        <time>2022-01-12T10:20:26Z</time>
      </trkpt>
      <trkpt lat="47.7104" lon="3.49084">
        <ele>182.1</ele>
        <time>2022-01-12T10:20:27Z</time>
      </trkpt>
      <trkpt lat="47.71041" lon="3.49084">
        <ele>182.1</ele>
        <time>2022-01-12T10:20:28Z</time>
      </trkpt>
      <trkpt lat="47.71043" lon="3.49085">
        <ele>182.1</ele>
        <time>2022-01-12T10:20:29Z</time>
      </trkpt>
      <trkpt lat="47.71044" lon="3.49086">
        <ele>182.1</ele>
        <time>2022-01-12T10:20:31Z</time>
      </trkpt>
      <trkpt lat="47.71044" lon="3.49086">
        <ele>182.1</ele>
        <time>2022-01-12T10:20:32Z</time>
      </trkpt>
      <trkpt lat="47.71046" lon="3.49087">
        <ele>182.1</ele>
        <time>2022-01-12T10:20:33Z</time>
      </trkpt>
      <trkpt lat="47.71047" lon="3.49087">
        <ele>182</ele>
        <time>2022-01-12T10:20:34Z</time>
      </trkpt>
      <trkpt lat="47.71048" lon="3.49087">
        <ele>182</ele>
        <time>2022-01-12T10:20:35Z</time>
      </trkpt>
      <trkpt lat="47.7105" lon="3.49088">
        <ele>182</ele>
        <time>2022-01-12T10:20:36Z</time>
      </trkpt>
      <trkpt lat="47.71051" lon="3.49088">
        <ele>182</ele>
        <time>2022-01-12T10:20:37Z</time>
      </trkpt>
      <trkpt lat="47.71052" lon="3.49089">
        <ele>182</ele>
        <time>2022-01-12T10:20:38Z</time>
      </trkpt>
      <trkpt lat="47.71053" lon="3.49089">
        <ele>182</ele>
        <time>2022-01-12T10:20:40Z</time>
      </trkpt>
      <trkpt lat="47.71055" lon="3.4909">
        <ele>182</ele>
        <time>2022-01-12T10:20:41Z</time>
      </trkpt>
      <trkpt lat="47.71056" lon="3.4909">
        <ele>181.9</ele>
        <time>2022-01-12T10:20:42Z</time>
      </trkpt>
      <trkpt lat="47.71058" lon="3.4909">
        <ele>181.9</ele>
        <time>2022-01-12T10:20:43Z</time>
      </trkpt>
      <trkpt lat="47.7106" lon="3.4909">
        <ele>181.9</ele>
        <time>2022-01-12T10:20:44Z</time>
      </trkpt>
      <trkpt lat="47.71061" lon="3.4909">
        <ele>181.9</ele>
        <time>2022-01-12T10:20:45Z</time>
      </trkpt>
      <trkpt lat="47.71062" lon="3.4909">
        <ele>181.9</ele>
        <time>2022-01-12T10:20:46Z</time>
      </trkpt>
      <trkpt lat="47.71063" lon="3.4909">
        <ele>181.9</ele>
        <time>2022-01-12T10:20:47Z</time>
      </trkpt>
      <trkpt lat="47.71064" lon="3.49091">
        <ele>181.9</ele>
        <time>2022-01-12T10:20:48Z</time>
      </trkpt>
      <trkpt lat="47.71066" lon="3.49091">
        <ele>181.8</ele>
        <time>2022-01-12T10:20:50Z</time>
      </trkpt>
      <trkpt lat="47.71068" lon="3.4909">
        <ele>181.8</ele>
        <time>2022-01-12T10:20:51Z</time>
      </trkpt>
      <trkpt lat="47.71069" lon="3.4909">
        <ele>181.8</ele>
        <time>2022-01-12T10:20:52Z</time>
      </trkpt>
      <trkpt lat="47.7107" lon="3.4909">
        <ele>181.8</ele>
        <time>2022-01-12T10:20:53Z</time>
      </trkpt>
      <trkpt lat="47.71072" lon="3.49088">
        <ele>181.8</ele>
        <time>2022-01-12T10:20:54Z</time>
      </trkpt>
      <trkpt lat="47.71072" lon="3.49088">
        <ele>181.8</ele>
        <time>2022-01-12T10:20:55Z</time>
      </trkpt>
      <trkpt lat="47.71073" lon="3.49087">
        <ele>181.8</ele>
        <time>2022-01-12T10:20:56Z</time>
      </trkpt>
      <trkpt lat="47.71074" lon="3.49086">
        <ele>181.8</ele>
        <time>2022-01-12T10:20:57Z</time>
      </trkpt>
      <trkpt lat="47.71076" lon="3.49086">
        <ele>181.8</ele>
        <time>2022-01-12T10:20:58Z</time>
      </trkpt>
      <trkpt lat="47.71077" lon="3.49085">
        <ele>181.7</ele>
        <time>2022-01-12T10:21:00Z</time>
      </trkpt>
      <trkpt lat="47.71079" lon="3.49084">
        <ele>181.7</ele>
        <time>2022-01-12T10:21:01Z</time>
      </trkpt>
      <trkpt lat="47.7108" lon="3.49083">
        <ele>181.7</ele>
        <time>2022-01-12T10:21:02Z</time>
      </trkpt>
      <trkpt lat="47.7108" lon="3.49083">
        <ele>181.7</ele>
        <time>2022-01-12T10:21:03Z</time>
      </trkpt>
      <trkpt lat="47.71081" lon="3.49082">
        <ele>181.7</ele>
        <time>2022-01-12T10:21:04Z</time>
      </trkpt>
      <trkpt lat="47.71083" lon="3.49082">
        <ele>181.7</ele>
        <time>2022-01-12T10:21:06Z</time>
      </trkpt>
      <trkpt lat="47.71084" lon="3.49081">
        <ele>181.7</ele>
        <time>2022-01-12T10:21:07Z</time>
      </trkpt>
      <trkpt lat="47.71085" lon="3.4908">
        <ele>181.7</ele>
        <time>2022-01-12T10:21:08Z</time>
      </trkpt>
      <trkpt lat="47.71086" lon="3.4908">
        <ele>181.6</ele>
        <time>2022-01-12T10:21:09Z</time>
      </trkpt>
      <trkpt lat="47.71087" lon="3.49079">
        <ele>181.6</ele>
        <time>2022-01-12T10:21:10Z</time>
      </trkpt>
      <trkpt lat="47.71087" lon="3.49078">
        <ele>181.6</ele>
        <time>2022-01-12T10:21:11Z</time>
      </trkpt>
      <trkpt lat="47.71088" lon="3.49078">
        <ele>181.6</ele>
        <time>2022-01-12T10:21:13Z</time>
      </trkpt>
      <trkpt lat="47.71089" lon="3.49077">
        <ele>181.6</ele>
        <time>2022-01-12T10:21:14Z</time>
      </trkpt>
      <trkpt lat="47.7109" lon="3.49076">
        <ele>181.6</ele>
        <time>2022-01-12T10:21:15Z</time>
      </trkpt>
      <trkpt lat="47.71091" lon="3.49075">
        <ele>181.6</ele>
        <time>2022-01-12T10:21:16Z</time>
      </trkpt>
      <trkpt lat="47.71092" lon="3.49075">
        <ele>181.6</ele>
        <time>2022-01-12T10:21:17Z</time>
      </trkpt>
      <trkpt lat="47.71093" lon="3.49074">
        <ele>181.6</ele>
        <time>2022-01-12T10:21:18Z</time>
      </trkpt>
      <trkpt lat="47.71094" lon="3.49073">
        <ele>181.5</ele>
        <time>2022-01-12T10:21:19Z</time>
      </trkpt>
      <trkpt lat="47.71096" lon="3.49073">
        <ele>181.5</ele>
        <time>2022-01-12T10:21:21Z</time>
      </trkpt>
      <trkpt lat="47.71097" lon="3.49073">
        <ele>181.5</ele>
        <time>2022-01-12T10:21:22Z</time>
      </trkpt>
      <trkpt lat="47.71099" lon="3.49072">
        <ele>181.5</ele>
        <time>2022-01-12T10:21:23Z</time>
      </trkpt>
      <trkpt lat="47.71101" lon="3.49073">
        <ele>181.5</ele>
        <time>2022-01-12T10:21:24Z</time>
      </trkpt>
      <trkpt lat="47.71102" lon="3.49073">
        <ele>181.5</ele>
        <time>2022-01-12T10:21:25Z</time>
      </trkpt>
      <trkpt lat="47.71103" lon="3.49074">
        <ele>181.5</ele>
        <time>2022-01-12T10:21:26Z</time>
      </trkpt>
      <trkpt lat="47.71104" lon="3.49074">
        <ele>181.4</ele>
        <time>2022-01-12T10:21:28Z</time>
      </trkpt>
      <trkpt lat="47.71106" lon="3.49073">
        <ele>181.4</ele>
        <time>2022-01-12T10:21:29Z</time>
      </trkpt>
      <trkpt lat="47.71107" lon="3.49072">
        <ele>181.4</ele>
        <time>2022-01-12T10:21:30Z</time>
      </trkpt>
      <trkpt lat="47.71109" lon="3.49072">
        <ele>181.4</ele>
        <time>2022-01-12T10:21:31Z</time>
      </trkpt>
      <trkpt lat="47.7111" lon="3.49071">
        <ele>181.3</ele>
        <time>2022-01-12T10:21:32Z</time>
      </trkpt>
      <trkpt lat="47.71112" lon="3.49071">
        <ele>181.3</ele>
        <time>2022-01-12T10:21:33Z</time>
      </trkpt>
      <trkpt lat="47.71113" lon="3.4907">
        <ele>181.3</ele>
        <time>2022-01-12T10:21:35Z</time>
      </trkpt>
      <trkpt lat="47.71114" lon="3.4907">
        <ele>181.3</ele>
        <time>2022-01-12T10:21:36Z</time>
      </trkpt>
      <trkpt lat="47.71116" lon="3.49069">
        <ele>181.3</ele>
        <time>2022-01-12T10:21:37Z</time>
      </trkpt>
      <trkpt lat="47.71117" lon="3.49069">
        <ele>181.3</ele>
        <time>2022-01-12T10:21:38Z</time>
      </trkpt>
      <trkpt lat="47.71118" lon="3.49069">
        <ele>181.2</ele>
        <time>2022-01-12T10:21:39Z</time>
      </trkpt>
      <trkpt lat="47.7112" lon="3.49068">
        <ele>181.2</ele>
        <time>2022-01-12T10:21:40Z</time>
      </trkpt>
      <trkpt lat="47.71121" lon="3.49068">
        <ele>181.2</ele>
        <time>2022-01-12T10:21:42Z</time>
      </trkpt>
      <trkpt lat="47.71122" lon="3.49068">
        <ele>181.2</ele>
        <time>2022-01-12T10:21:43Z</time>
      </trkpt>
      <trkpt lat="47.71124" lon="3.49067">
        <ele>181.2</ele>
        <time>2022-01-12T10:21:44Z</time>
      </trkpt>
      <trkpt lat="47.71125" lon="3.49066">
        <ele>181.2</ele>
        <time>2022-01-12T10:21:45Z</time>
      </trkpt>
      <trkpt lat="47.71126" lon="3.49066">
        <ele>181.2</ele>
        <time>2022-01-12T10:21:46Z</time>
      </trkpt>
      <trkpt lat="47.71128" lon="3.49065">
        <ele>181.2</ele>
        <time>2022-01-12T10:21:47Z</time>
      </trkpt>
      <trkpt lat="47.71129" lon="3.49065">
        <ele>181.2</ele>
        <time>2022-01-12T10:21:49Z</time>
      </trkpt>
      <trkpt lat="47.7113" lon="3.49065">
        <ele>181.1</ele>
        <time>2022-01-12T10:21:50Z</time>
      </trkpt>
      <trkpt lat="47.71131" lon="3.49064">
        <ele>181.1</ele>
        <time>2022-01-12T10:21:51Z</time>
      </trkpt>
      <trkpt lat="47.71132" lon="3.49064">
        <ele>181.1</ele>
        <time>2022-01-12T10:21:52Z</time>
      </trkpt>
      <trkpt lat="47.71134" lon="3.49063">
        <ele>181.1</ele>
        <time>2022-01-12T10:21:53Z</time>
      </trkpt>
      <trkpt lat="47.71135" lon="3.49062">
        <ele>181.1</ele>
        <time>2022-01-12T10:21:54Z</time>
      </trkpt>
      <trkpt lat="47.71136" lon="3.49062">
        <ele>181.1</ele>
        <time>2022-01-12T10:21:55Z</time>
      </trkpt>
      <trkpt lat="47.71138" lon="3.49061">
        <ele>181.1</ele>
        <time>2022-01-12T10:21:57Z</time>
      </trkpt>
      <trkpt lat="47.71139" lon="3.4906">
        <ele>181.1</ele>
        <time>2022-01-12T10:21:58Z</time>
      </trkpt>
      <trkpt lat="47.71141" lon="3.4906">
        <ele>181.1</ele>
        <time>2022-01-12T10:21:59Z</time>
      </trkpt>
      <trkpt lat="47.71143" lon="3.49059">
        <ele>181.1</ele>
        <time>2022-01-12T10:22:00Z</time>
      </trkpt>
      <trkpt lat="47.71144" lon="3.49059">
        <ele>181.1</ele>
        <time>2022-01-12T10:22:01Z</time>
      </trkpt>
      <trkpt lat="47.71144" lon="3.49059">
        <ele>181.1</ele>
        <time>2022-01-12T10:22:02Z</time>
      </trkpt>
      <trkpt lat="47.71146" lon="3.49059">
        <ele>181.1</ele>
        <time>2022-01-12T10:22:03Z</time>
      </trkpt>
      <trkpt lat="47.71147" lon="3.49058">
        <ele>181.1</ele>
        <time>2022-01-12T10:22:04Z</time>
      </trkpt>
      <trkpt lat="47.71148" lon="3.49058">
        <ele>181.1</ele>
        <time>2022-01-12T10:22:06Z</time>
      </trkpt>
      <trkpt lat="47.71149" lon="3.49056">
        <ele>181.1</ele>
        <time>2022-01-12T10:22:07Z</time>
      </trkpt>
      <trkpt lat="47.7115" lon="3.49055">
        <ele>181.1</ele>
        <time>2022-01-12T10:22:08Z</time>
      </trkpt>
      <trkpt lat="47.71151" lon="3.49054">
        <ele>181.1</ele>
        <time>2022-01-12T10:22:09Z</time>
      </trkpt>
      <trkpt lat="47.71151" lon="3.49053">
        <ele>181.1</ele>
        <time>2022-01-12T10:22:10Z</time>
      </trkpt>
      <trkpt lat="47.71152" lon="3.49053">
        <ele>181.1</ele>
        <time>2022-01-12T10:22:11Z</time>
      </trkpt>
      <trkpt lat="47.71153" lon="3.49052">
        <ele>181.1</ele>
        <time>2022-01-12T10:22:13Z</time>
      </trkpt>
      <trkpt lat="47.71154" lon="3.49052">
        <ele>181.1</ele>
        <time>2022-01-12T10:22:14Z</time>
      </trkpt>
      <trkpt lat="47.71155" lon="3.49051">
        <ele>181.1</ele>
        <time>2022-01-12T10:22:15Z</time>
      </trkpt>
      <trkpt lat="47.71156" lon="3.49051">
        <ele>181.1</ele>
        <time>2022-01-12T10:22:16Z</time>
      </trkpt>
      <trkpt lat="47.71158" lon="3.49051">
        <ele>181.1</ele>
        <time>2022-01-12T10:22:17Z</time>
      </trkpt>
      <trkpt lat="47.71159" lon="3.49051">
        <ele>181.1</ele>
        <time>2022-01-12T10:22:19Z</time>
      </trkpt>
      <trkpt lat="47.7116" lon="3.49051">
        <ele>181.1</ele>
        <time>2022-01-12T10:22:20Z</time>
      </trkpt>
      <trkpt lat="47.71161" lon="3.49051">
        <ele>181.1</ele>
        <time>2022-01-12T10:22:21Z</time>
      </trkpt>
      <trkpt lat="47.71162" lon="3.49051">
        <ele>181.1</ele>
        <time>2022-01-12T10:22:22Z</time>
      </trkpt>
      <trkpt lat="47.71162" lon="3.4905">
        <ele>181.1</ele>
        <time>2022-01-12T10:22:23Z</time>
      </trkpt>
      <trkpt lat="47.71162" lon="3.4905">
        <ele>181.1</ele>
        <time>2022-01-12T10:22:24Z</time>
      </trkpt>
      <trkpt lat="47.71163" lon="3.4905">
        <ele>181.1</ele>
        <time>2022-01-12T10:22:25Z</time>
      </trkpt>
      <trkpt lat="47.71163" lon="3.49049">
        <ele>181.1</ele>
        <time>2022-01-12T10:22:26Z</time>
      </trkpt>
      <trkpt lat="47.71163" lon="3.49048">
        <ele>181.1</ele>
        <time>2022-01-12T10:22:27Z</time>
      </trkpt>
      <trkpt lat="47.71163" lon="3.49047">
        <ele>181.1</ele>
        <time>2022-01-12T10:22:28Z</time>
      </trkpt>
      <trkpt lat="47.71163" lon="3.49046">
        <ele>181.1</ele>
        <time>2022-01-12T10:22:29Z</time>
      </trkpt>
      <trkpt lat="47.71163" lon="3.49044">
        <ele>181.1</ele>
        <time>2022-01-12T10:22:30Z</time>
      </trkpt>
      <trkpt lat="47.71163" lon="3.49043">
        <ele>181.1</ele>
        <time>2022-01-12T10:22:31Z</time>
      </trkpt>
      <trkpt lat="47.71163" lon="3.49041">
        <ele>181.1</ele>
        <time>2022-01-12T10:22:33Z</time>
      </trkpt>
      <trkpt lat="47.71163" lon="3.4904">
        <ele>181.1</ele>
        <time>2022-01-12T10:22:34Z</time>
      </trkpt>
      <trkpt lat="47.71163" lon="3.49038">
        <ele>181.1</ele>
        <time>2022-01-12T10:22:35Z</time>
      </trkpt>
      <trkpt lat="47.71163" lon="3.49037">
        <ele>181.1</ele>
        <time>2022-01-12T10:22:36Z</time>
      </trkpt>
      <trkpt lat="47.71162" lon="3.49036">
        <ele>181.1</ele>
        <time>2022-01-12T10:22:37Z</time>
      </trkpt>
      <trkpt lat="47.71161" lon="3.49036">
        <ele>181.1</ele>
        <time>2022-01-12T10:22:38Z</time>
      </trkpt>
      <trkpt lat="47.71161" lon="3.49036">
        <ele>181.1</ele>
        <time>2022-01-12T10:22:39Z</time>
      </trkpt>
      <trkpt lat="47.7116" lon="3.49035">
        <ele>181.1</ele>
        <time>2022-01-12T10:22:40Z</time>
      </trkpt>
      <trkpt lat="47.71159" lon="3.49033">
        <ele>181.1</ele>
        <time>2022-01-12T10:22:41Z</time>
      </trkpt>
      <trkpt lat="47.71159" lon="3.49032">
        <ele>181.1</ele>
        <time>2022-01-12T10:22:43Z</time>
      </trkpt>
      <trkpt lat="47.71159" lon="3.49031">
        <ele>181.1</ele>
        <time>2022-01-12T10:22:44Z</time>
      </trkpt>
      <trkpt lat="47.71158" lon="3.4903">
        <ele>181.1</ele>
        <time>2022-01-12T10:22:45Z</time>
      </trkpt>
      <trkpt lat="47.71158" lon="3.49029">
        <ele>181.1</ele>
        <time>2022-01-12T10:22:46Z</time>
      </trkpt>
      <trkpt lat="47.71157" lon="3.49027">
        <ele>181.1</ele>
        <time>2022-01-12T10:22:48Z</time>
      </trkpt>
      <trkpt lat="47.71156" lon="3.49026">
        <ele>181.1</ele>
        <time>2022-01-12T10:22:49Z</time>
      </trkpt>
      <trkpt lat="47.71156" lon="3.49025">
        <ele>181.1</ele>
        <time>2022-01-12T10:22:50Z</time>
      </trkpt>
      <trkpt lat="47.71155" lon="3.49024">
        <ele>181.1</ele>
        <time>2022-01-12T10:22:51Z</time>
      </trkpt>
      <trkpt lat="47.71154" lon="3.49023">
        <ele>181.1</ele>
        <time>2022-01-12T10:22:53Z</time>
      </trkpt>
      <trkpt lat="47.71153" lon="3.49022">
        <ele>181.2</ele>
        <time>2022-01-12T10:22:54Z</time>
      </trkpt>
      <trkpt lat="47.71153" lon="3.49021">
        <ele>181.2</ele>
        <time>2022-01-12T10:22:55Z</time>
      </trkpt>
      <trkpt lat="47.71152" lon="3.4902">
        <ele>181.2</ele>
        <time>2022-01-12T10:22:56Z</time>
      </trkpt>
      <trkpt lat="47.71151" lon="3.49019">
        <ele>181.2</ele>
        <time>2022-01-12T10:22:58Z</time>
      </trkpt>
      <trkpt lat="47.71151" lon="3.49018">
        <ele>181.2</ele>
        <time>2022-01-12T10:22:59Z</time>
      </trkpt>
      <trkpt lat="47.71151" lon="3.49017">
        <ele>181.2</ele>
        <time>2022-01-12T10:23:00Z</time>
      </trkpt>
      <trkpt lat="47.7115" lon="3.49016">
        <ele>181.2</ele>
        <time>2022-01-12T10:23:01Z</time>
      </trkpt>
      <trkpt lat="47.7115" lon="3.49015">
        <ele>181.2</ele>
        <time>2022-01-12T10:23:02Z</time>
      </trkpt>
      <trkpt lat="47.71149" lon="3.49014">
        <ele>181.2</ele>
        <time>2022-01-12T10:23:04Z</time>
      </trkpt>
      <trkpt lat="47.71148" lon="3.49012">
        <ele>181.3</ele>
        <time>2022-01-12T10:23:05Z</time>
      </trkpt>
      <trkpt lat="47.71148" lon="3.4901">
        <ele>181.3</ele>
        <time>2022-01-12T10:23:06Z</time>
      </trkpt>
      <trkpt lat="47.71148" lon="3.49009">
        <ele>181.3</ele>
        <time>2022-01-12T10:23:07Z</time>
      </trkpt>
      <trkpt lat="47.71148" lon="3.49007">
        <ele>181.3</ele>
        <time>2022-01-12T10:23:09Z</time>
      </trkpt>
      <trkpt lat="47.71148" lon="3.49006">
        <ele>181.3</ele>
        <time>2022-01-12T10:23:10Z</time>
      </trkpt>
      <trkpt lat="47.71148" lon="3.49005">
        <ele>181.3</ele>
        <time>2022-01-12T10:23:11Z</time>
      </trkpt>
      <trkpt lat="47.71147" lon="3.49002">
        <ele>181.4</ele>
        <time>2022-01-12T10:23:13Z</time>
      </trkpt>
      <trkpt lat="47.71147" lon="3.49001">
        <ele>181.4</ele>
        <time>2022-01-12T10:23:14Z</time>
      </trkpt>
      <trkpt lat="47.71147" lon="3.49">
        <ele>181.4</ele>
        <time>2022-01-12T10:23:16Z</time>
      </trkpt>
      <trkpt lat="47.71146" lon="3.48998">
        <ele>181.4</ele>
        <time>2022-01-12T10:23:17Z</time>
      </trkpt>
      <trkpt lat="47.71146" lon="3.48997">
        <ele>181.4</ele>
        <time>2022-01-12T10:23:18Z</time>
      </trkpt>
      <trkpt lat="47.71145" lon="3.48996">
        <ele>181.5</ele>
        <time>2022-01-12T10:23:20Z</time>
      </trkpt>
      <trkpt lat="47.71145" lon="3.48994">
        <ele>181.5</ele>
        <time>2022-01-12T10:23:21Z</time>
      </trkpt>
      <trkpt lat="47.71145" lon="3.48993">
        <ele>181.5</ele>
        <time>2022-01-12T10:23:22Z</time>
      </trkpt>
      <trkpt lat="47.71144" lon="3.48992">
        <ele>181.5</ele>
        <time>2022-01-12T10:23:24Z</time>
      </trkpt>
      <trkpt lat="47.71144" lon="3.4899">
        <ele>181.6</ele>
        <time>2022-01-12T10:23:25Z</time>
      </trkpt>
      <trkpt lat="47.71144" lon="3.48989">
        <ele>181.6</ele>
        <time>2022-01-12T10:23:26Z</time>
      </trkpt>
      <trkpt lat="47.71144" lon="3.48988">
        <ele>181.6</ele>
        <time>2022-01-12T10:23:27Z</time>
      </trkpt>
      <trkpt lat="47.71143" lon="3.48987">
        <ele>181.6</ele>
        <time>2022-01-12T10:23:28Z</time>
      </trkpt>
      <trkpt lat="47.71143" lon="3.48986">
        <ele>181.6</ele>
        <time>2022-01-12T10:23:30Z</time>
      </trkpt>
      <trkpt lat="47.71143" lon="3.48985">
        <ele>181.6</ele>
        <time>2022-01-12T10:23:31Z</time>
      </trkpt>
      <trkpt lat="47.71143" lon="3.48985">
        <ele>181.7</ele>
        <time>2022-01-12T10:23:32Z</time>
      </trkpt>
      <trkpt lat="47.71144" lon="3.48984">
        <ele>181.7</ele>
        <time>2022-01-12T10:23:33Z</time>
      </trkpt>
      <trkpt lat="47.71144" lon="3.48984">
        <ele>181.7</ele>
        <time>2022-01-12T10:23:34Z</time>
      </trkpt>
      <trkpt lat="47.71144" lon="3.48982">
        <ele>181.7</ele>
        <time>2022-01-12T10:23:35Z</time>
      </trkpt>
      <trkpt lat="47.71142" lon="3.4898">
        <ele>181.8</ele>
        <time>2022-01-12T10:23:37Z</time>
      </trkpt>
      <trkpt lat="47.71142" lon="3.48979">
        <ele>181.8</ele>
        <time>2022-01-12T10:23:38Z</time>
      </trkpt>
      <trkpt lat="47.71141" lon="3.48978">
        <ele>181.8</ele>
        <time>2022-01-12T10:23:39Z</time>
      </trkpt>
      <trkpt lat="47.71141" lon="3.48977">
        <ele>181.9</ele>
        <time>2022-01-12T10:23:40Z</time>
      </trkpt>
      <trkpt lat="47.7114" lon="3.48975">
        <ele>181.9</ele>
        <time>2022-01-12T10:23:42Z</time>
      </trkpt>
      <trkpt lat="47.7114" lon="3.48973">
        <ele>181.9</ele>
        <time>2022-01-12T10:23:43Z</time>
      </trkpt>
      <trkpt lat="47.7114" lon="3.48972">
        <ele>182</ele>
        <time>2022-01-12T10:23:44Z</time>
      </trkpt>
      <trkpt lat="47.71139" lon="3.48971">
        <ele>182</ele>
        <time>2022-01-12T10:23:45Z</time>
      </trkpt>
      <trkpt lat="47.71139" lon="3.48969">
        <ele>182</ele>
        <time>2022-01-12T10:23:47Z</time>
      </trkpt>
      <trkpt lat="47.71139" lon="3.48967">
        <ele>182.1</ele>
        <time>2022-01-12T10:23:48Z</time>
      </trkpt>
      <trkpt lat="47.71139" lon="3.48966">
        <ele>182.1</ele>
        <time>2022-01-12T10:23:49Z</time>
      </trkpt>
      <trkpt lat="47.71138" lon="3.48964">
        <ele>182.2</ele>
        <time>2022-01-12T10:23:51Z</time>
      </trkpt>
      <trkpt lat="47.71138" lon="3.48962">
        <ele>182.2</ele>
        <time>2022-01-12T10:23:52Z</time>
      </trkpt>
      <trkpt lat="47.71138" lon="3.48961">
        <ele>182.2</ele>
        <time>2022-01-12T10:23:53Z</time>
      </trkpt>
      <trkpt lat="47.71138" lon="3.48959">
        <ele>182.3</ele>
        <time>2022-01-12T10:23:54Z</time>
      </trkpt>
      <trkpt lat="47.71138" lon="3.48956">
        <ele>182.4</ele>
        <time>2022-01-12T10:23:55Z</time>
      </trkpt>
      <trkpt lat="47.71138" lon="3.48955">
        <ele>182.4</ele>
        <time>2022-01-12T10:23:57Z</time>
      </trkpt>
      <trkpt lat="47.71138" lon="3.48953">
        <ele>182.5</ele>
        <time>2022-01-12T10:23:58Z</time>
      </trkpt>
      <trkpt lat="47.71138" lon="3.4895">
        <ele>182.5</ele>
        <time>2022-01-12T10:23:59Z</time>
      </trkpt>
      <trkpt lat="47.71137" lon="3.48949">
        <ele>182.6</ele>
        <time>2022-01-12T10:24:00Z</time>
      </trkpt>
      <trkpt lat="47.71137" lon="3.48948">
        <ele>182.6</ele>
        <time>2022-01-12T10:24:01Z</time>
      </trkpt>
      <trkpt lat="47.71136" lon="3.48945">
        <ele>182.7</ele>
        <time>2022-01-12T10:24:03Z</time>
      </trkpt>
      <trkpt lat="47.71136" lon="3.48943">
        <ele>182.8</ele>
        <time>2022-01-12T10:24:04Z</time>
      </trkpt>
      <trkpt lat="47.71136" lon="3.48941">
        <ele>182.8</ele>
        <time>2022-01-12T10:24:05Z</time>
      </trkpt>
      <trkpt lat="47.71136" lon="3.48939">
        <ele>182.9</ele>
        <time>2022-01-12T10:24:06Z</time>
      </trkpt>
      <trkpt lat="47.71136" lon="3.48936">
        <ele>183</ele>
        <time>2022-01-12T10:24:08Z</time>
      </trkpt>
      <trkpt lat="47.71136" lon="3.48934">
        <ele>183.1</ele>
        <time>2022-01-12T10:24:09Z</time>
      </trkpt>
      <trkpt lat="47.71136" lon="3.48932">
        <ele>183.1</ele>
        <time>2022-01-12T10:24:10Z</time>
      </trkpt>
      <trkpt lat="47.71137" lon="3.48929">
        <ele>183.3</ele>
        <time>2022-01-12T10:24:11Z</time>
      </trkpt>
      <trkpt lat="47.71137" lon="3.48927">
        <ele>183.3</ele>
        <time>2022-01-12T10:24:12Z</time>
      </trkpt>
      <trkpt lat="47.71137" lon="3.48926">
        <ele>183.3</ele>
        <time>2022-01-12T10:24:13Z</time>
      </trkpt>
      <trkpt lat="47.71137" lon="3.48924">
        <ele>183.4</ele>
        <time>2022-01-12T10:24:14Z</time>
      </trkpt>
      <trkpt lat="47.71137" lon="3.48922">
        <ele>183.5</ele>
        <time>2022-01-12T10:24:15Z</time>
      </trkpt>
      <trkpt lat="47.71138" lon="3.48918">
        <ele>183.7</ele>
        <time>2022-01-12T10:24:17Z</time>
      </trkpt>
      <trkpt lat="47.71138" lon="3.48916">
        <ele>183.7</ele>
        <time>2022-01-12T10:24:18Z</time>
      </trkpt>
      <trkpt lat="47.71138" lon="3.48914">
        <ele>183.8</ele>
        <time>2022-01-12T10:24:19Z</time>
      </trkpt>
      <trkpt lat="47.71139" lon="3.48913">
        <ele>183.9</ele>
        <time>2022-01-12T10:24:20Z</time>
      </trkpt>
      <trkpt lat="47.71139" lon="3.48912">
        <ele>183.9</ele>
        <time>2022-01-12T10:24:21Z</time>
      </trkpt>
      <trkpt lat="47.71139" lon="3.48911">
        <ele>184</ele>
        <time>2022-01-12T10:24:22Z</time>
      </trkpt>
      <trkpt lat="47.71139" lon="3.48908">
        <ele>184.1</ele>
        <time>2022-01-12T10:24:24Z</time>
      </trkpt>
      <trkpt lat="47.7114" lon="3.48906">
        <ele>184.2</ele>
        <time>2022-01-12T10:24:25Z</time>
      </trkpt>
      <trkpt lat="47.7114" lon="3.48903">
        <ele>184.3</ele>
        <time>2022-01-12T10:24:26Z</time>
      </trkpt>
      <trkpt lat="47.7114" lon="3.48902">
        <ele>184.4</ele>
        <time>2022-01-12T10:24:27Z</time>
      </trkpt>
      <trkpt lat="47.71141" lon="3.489">
        <ele>184.5</ele>
        <time>2022-01-12T10:24:28Z</time>
      </trkpt>
      <trkpt lat="47.71141" lon="3.48897">
        <ele>184.6</ele>
        <time>2022-01-12T10:24:30Z</time>
      </trkpt>
      <trkpt lat="47.71141" lon="3.48896">
        <ele>184.7</ele>
        <time>2022-01-12T10:24:31Z</time>
      </trkpt>
      <trkpt lat="47.71142" lon="3.48894">
        <ele>184.8</ele>
        <time>2022-01-12T10:24:32Z</time>
      </trkpt>
      <trkpt lat="47.71142" lon="3.48892">
        <ele>184.9</ele>
        <time>2022-01-12T10:24:33Z</time>
      </trkpt>
      <trkpt lat="47.71143" lon="3.48889">
        <ele>185</ele>
        <time>2022-01-12T10:24:34Z</time>
      </trkpt>
      <trkpt lat="47.71143" lon="3.48887">
        <ele>185.1</ele>
        <time>2022-01-12T10:24:35Z</time>
      </trkpt>
      <trkpt lat="47.71143" lon="3.48885">
        <ele>185.3</ele>
        <time>2022-01-12T10:24:36Z</time>
      </trkpt>
      <trkpt lat="47.71144" lon="3.48882">
        <ele>185.4</ele>
        <time>2022-01-12T10:24:38Z</time>
      </trkpt>
      <trkpt lat="47.71143" lon="3.4888">
        <ele>185.5</ele>
        <time>2022-01-12T10:24:39Z</time>
      </trkpt>
      <trkpt lat="47.71143" lon="3.48878">
        <ele>185.6</ele>
        <time>2022-01-12T10:24:40Z</time>
      </trkpt>
      <trkpt lat="47.71143" lon="3.48875">
        <ele>185.7</ele>
        <time>2022-01-12T10:24:42Z</time>
      </trkpt>
      <trkpt lat="47.71143" lon="3.48873">
        <ele>185.8</ele>
        <time>2022-01-12T10:24:43Z</time>
      </trkpt>
      <trkpt lat="47.71144" lon="3.48871">
        <ele>185.9</ele>
        <time>2022-01-12T10:24:44Z</time>
      </trkpt>
      <trkpt lat="47.71144" lon="3.4887">
        <ele>186</ele>
        <time>2022-01-12T10:24:45Z</time>
      </trkpt>
      <trkpt lat="47.71145" lon="3.48867">
        <ele>186.1</ele>
        <time>2022-01-12T10:24:47Z</time>
      </trkpt>
      <trkpt lat="47.71145" lon="3.48865">
        <ele>186.2</ele>
        <time>2022-01-12T10:24:48Z</time>
      </trkpt>
      <trkpt lat="47.71145" lon="3.48864">
        <ele>186.3</ele>
        <time>2022-01-12T10:24:49Z</time>
      </trkpt>
      <trkpt lat="47.71144" lon="3.48862">
        <ele>186.4</ele>
        <time>2022-01-12T10:24:50Z</time>
      </trkpt>
      <trkpt lat="47.71145" lon="3.4886">
        <ele>186.5</ele>
        <time>2022-01-12T10:24:51Z</time>
      </trkpt>
      <trkpt lat="47.71145" lon="3.48858">
        <ele>186.5</ele>
        <time>2022-01-12T10:24:52Z</time>
      </trkpt>
      <trkpt lat="47.71145" lon="3.48857">
        <ele>186.6</ele>
        <time>2022-01-12T10:24:53Z</time>
      </trkpt>
      <trkpt lat="47.71147" lon="3.48854">
        <ele>186.8</ele>
        <time>2022-01-12T10:24:54Z</time>
      </trkpt>
      <trkpt lat="47.71147" lon="3.48853">
        <ele>186.8</ele>
        <time>2022-01-12T10:24:56Z</time>
      </trkpt>
      <trkpt lat="47.71148" lon="3.48852">
        <ele>186.9</ele>
        <time>2022-01-12T10:24:57Z</time>
      </trkpt>
      <trkpt lat="47.71148" lon="3.4885">
        <ele>186.9</ele>
        <time>2022-01-12T10:24:58Z</time>
      </trkpt>
      <trkpt lat="47.71149" lon="3.48849">
        <ele>187</ele>
        <time>2022-01-12T10:24:59Z</time>
      </trkpt>
      <trkpt lat="47.7115" lon="3.48847">
        <ele>187.1</ele>
        <time>2022-01-12T10:25:00Z</time>
      </trkpt>
      <trkpt lat="47.71151" lon="3.48846">
        <ele>187.2</ele>
        <time>2022-01-12T10:25:01Z</time>
      </trkpt>
      <trkpt lat="47.71151" lon="3.48844">
        <ele>187.2</ele>
        <time>2022-01-12T10:25:02Z</time>
      </trkpt>
      <trkpt lat="47.71152" lon="3.48841">
        <ele>187.3</ele>
        <time>2022-01-12T10:25:04Z</time>
      </trkpt>
      <trkpt lat="47.71152" lon="3.4884">
        <ele>187.4</ele>
        <time>2022-01-12T10:25:05Z</time>
      </trkpt>
      <trkpt lat="47.71151" lon="3.48838">
        <ele>187.4</ele>
        <time>2022-01-12T10:25:06Z</time>
      </trkpt>
      <trkpt lat="47.71151" lon="3.48836">
        <ele>187.5</ele>
        <time>2022-01-12T10:25:07Z</time>
      </trkpt>
      <trkpt lat="47.71151" lon="3.48835">
        <ele>187.5</ele>
        <time>2022-01-12T10:25:08Z</time>
      </trkpt>
      <trkpt lat="47.71152" lon="3.48833">
        <ele>187.6</ele>
        <time>2022-01-12T10:25:09Z</time>
      </trkpt>
      <trkpt lat="47.71153" lon="3.48831">
        <ele>187.6</ele>
        <time>2022-01-12T10:25:11Z</time>
      </trkpt>
      <trkpt lat="47.71154" lon="3.48828">
        <ele>187.7</ele>
        <time>2022-01-12T10:25:12Z</time>
      </trkpt>
      <trkpt lat="47.71154" lon="3.48827">
        <ele>187.7</ele>
        <time>2022-01-12T10:25:13Z</time>
      </trkpt>
      <trkpt lat="47.71154" lon="3.48826">
        <ele>187.7</ele>
        <time>2022-01-12T10:25:14Z</time>
      </trkpt>
      <trkpt lat="47.71154" lon="3.48823">
        <ele>187.8</ele>
        <time>2022-01-12T10:25:15Z</time>
      </trkpt>
      <trkpt lat="47.71154" lon="3.48822">
        <ele>187.8</ele>
        <time>2022-01-12T10:25:16Z</time>
      </trkpt>
      <trkpt lat="47.71154" lon="3.4882">
        <ele>187.8</ele>
        <time>2022-01-12T10:25:17Z</time>
      </trkpt>
      <trkpt lat="47.71154" lon="3.48818">
        <ele>187.9</ele>
        <time>2022-01-12T10:25:18Z</time>
      </trkpt>
      <trkpt lat="47.71154" lon="3.48815">
        <ele>187.9</ele>
        <time>2022-01-12T10:25:20Z</time>
      </trkpt>
      <trkpt lat="47.71155" lon="3.48812">
        <ele>187.9</ele>
        <time>2022-01-12T10:25:21Z</time>
      </trkpt>
      <trkpt lat="47.71155" lon="3.4881">
        <ele>187.9</ele>
        <time>2022-01-12T10:25:22Z</time>
      </trkpt>
      <trkpt lat="47.71156" lon="3.48809">
        <ele>187.9</ele>
        <time>2022-01-12T10:25:23Z</time>
      </trkpt>
      <trkpt lat="47.71157" lon="3.48806">
        <ele>188</ele>
        <time>2022-01-12T10:25:24Z</time>
      </trkpt>
      <trkpt lat="47.71157" lon="3.48804">
        <ele>188</ele>
        <time>2022-01-12T10:25:26Z</time>
      </trkpt>
      <trkpt lat="47.71158" lon="3.48803">
        <ele>188</ele>
        <time>2022-01-12T10:25:27Z</time>
      </trkpt>
      <trkpt lat="47.71158" lon="3.48801">
        <ele>188</ele>
        <time>2022-01-12T10:25:28Z</time>
      </trkpt>
      <trkpt lat="47.71159" lon="3.488">
        <ele>188</ele>
        <time>2022-01-12T10:25:29Z</time>
      </trkpt>
      <trkpt lat="47.7116" lon="3.48797">
        <ele>188</ele>
        <time>2022-01-12T10:25:30Z</time>
      </trkpt>
      <trkpt lat="47.7116" lon="3.48796">
        <ele>188</ele>
        <time>2022-01-12T10:25:32Z</time>
      </trkpt>
      <trkpt lat="47.71161" lon="3.48795">
        <ele>188</ele>
        <time>2022-01-12T10:25:33Z</time>
      </trkpt>
      <trkpt lat="47.71161" lon="3.48793">
        <ele>187.9</ele>
        <time>2022-01-12T10:25:34Z</time>
      </trkpt>
      <trkpt lat="47.71162" lon="3.48792">
        <ele>187.9</ele>
        <time>2022-01-12T10:25:35Z</time>
      </trkpt>
      <trkpt lat="47.71162" lon="3.4879">
        <ele>187.9</ele>
        <time>2022-01-12T10:25:36Z</time>
      </trkpt>
      <trkpt lat="47.71163" lon="3.48789">
        <ele>187.9</ele>
        <time>2022-01-12T10:25:37Z</time>
      </trkpt>
      <trkpt lat="47.71163" lon="3.48787">
        <ele>187.9</ele>
        <time>2022-01-12T10:25:39Z</time>
      </trkpt>
      <trkpt lat="47.71164" lon="3.48785">
        <ele>187.9</ele>
        <time>2022-01-12T10:25:40Z</time>
      </trkpt>
      <trkpt lat="47.71166" lon="3.48783">
        <ele>187.9</ele>
        <time>2022-01-12T10:25:41Z</time>
      </trkpt>
      <trkpt lat="47.71166" lon="3.48782">
        <ele>187.8</ele>
        <time>2022-01-12T10:25:42Z</time>
      </trkpt>
      <trkpt lat="47.71167" lon="3.48782">
        <ele>187.8</ele>
        <time>2022-01-12T10:25:43Z</time>
      </trkpt>
      <trkpt lat="47.71168" lon="3.48781">
        <ele>187.8</ele>
        <time>2022-01-12T10:25:44Z</time>
      </trkpt>
      <trkpt lat="47.71169" lon="3.48779">
        <ele>187.8</ele>
        <time>2022-01-12T10:25:46Z</time>
      </trkpt>
      <trkpt lat="47.7117" lon="3.48778">
        <ele>187.8</ele>
        <time>2022-01-12T10:25:47Z</time>
      </trkpt>
      <trkpt lat="47.71171" lon="3.48777">
        <ele>187.8</ele>
        <time>2022-01-12T10:25:48Z</time>
      </trkpt>
      <trkpt lat="47.71171" lon="3.48776">
        <ele>187.7</ele>
        <time>2022-01-12T10:25:49Z</time>
      </trkpt>
      <trkpt lat="47.71173" lon="3.48774">
        <ele>187.7</ele>
        <time>2022-01-12T10:25:51Z</time>
      </trkpt>
      <trkpt lat="47.71174" lon="3.48773">
        <ele>187.7</ele>
        <time>2022-01-12T10:25:52Z</time>
      </trkpt>
      <trkpt lat="47.71175" lon="3.48771">
        <ele>187.6</ele>
        <time>2022-01-12T10:25:53Z</time>
      </trkpt>
      <trkpt lat="47.71176" lon="3.4877">
        <ele>187.6</ele>
        <time>2022-01-12T10:25:55Z</time>
      </trkpt>
      <trkpt lat="47.71176" lon="3.48769">
        <ele>187.6</ele>
        <time>2022-01-12T10:25:56Z</time>
      </trkpt>
      <trkpt lat="47.71177" lon="3.48768">
        <ele>187.6</ele>
        <time>2022-01-12T10:25:57Z</time>
      </trkpt>
      <trkpt lat="47.71178" lon="3.48766">
        <ele>187.6</ele>
        <time>2022-01-12T10:25:58Z</time>
      </trkpt>
      <trkpt lat="47.71178" lon="3.48765">
        <ele>187.5</ele>
        <time>2022-01-12T10:25:59Z</time>
      </trkpt>
      <trkpt lat="47.71179" lon="3.48764">
        <ele>187.5</ele>
        <time>2022-01-12T10:26:00Z</time>
      </trkpt>
      <trkpt lat="47.7118" lon="3.48763">
        <ele>187.5</ele>
        <time>2022-01-12T10:26:01Z</time>
      </trkpt>
      <trkpt lat="47.71181" lon="3.48761">
        <ele>187.4</ele>
        <time>2022-01-12T10:26:02Z</time>
      </trkpt>
      <trkpt lat="47.71181" lon="3.48759">
        <ele>187.4</ele>
        <time>2022-01-12T10:26:04Z</time>
      </trkpt>
      <trkpt lat="47.71183" lon="3.48757">
        <ele>187.4</ele>
        <time>2022-01-12T10:26:05Z</time>
      </trkpt>
      <trkpt lat="47.71184" lon="3.48754">
        <ele>187.3</ele>
        <time>2022-01-12T10:26:06Z</time>
      </trkpt>
      <trkpt lat="47.71184" lon="3.48753">
        <ele>187.3</ele>
        <time>2022-01-12T10:26:07Z</time>
      </trkpt>
      <trkpt lat="47.71185" lon="3.48752">
        <ele>187.3</ele>
        <time>2022-01-12T10:26:08Z</time>
      </trkpt>
      <trkpt lat="47.71186" lon="3.4875">
        <ele>187.2</ele>
        <time>2022-01-12T10:26:10Z</time>
      </trkpt>
      <trkpt lat="47.71187" lon="3.48749">
        <ele>187.2</ele>
        <time>2022-01-12T10:26:11Z</time>
      </trkpt>
      <trkpt lat="47.71187" lon="3.48748">
        <ele>187.2</ele>
        <time>2022-01-12T10:26:12Z</time>
      </trkpt>
      <trkpt lat="47.71188" lon="3.48747">
        <ele>187.1</ele>
        <time>2022-01-12T10:26:13Z</time>
      </trkpt>
      <trkpt lat="47.71189" lon="3.48746">
        <ele>187.1</ele>
        <time>2022-01-12T10:26:14Z</time>
      </trkpt>
      <trkpt lat="47.71189" lon="3.48744">
        <ele>187.1</ele>
        <time>2022-01-12T10:26:15Z</time>
      </trkpt>
      <trkpt lat="47.71191" lon="3.48741">
        <ele>187</ele>
        <time>2022-01-12T10:26:16Z</time>
      </trkpt>
      <trkpt lat="47.71191" lon="3.4874">
        <ele>187</ele>
        <time>2022-01-12T10:26:17Z</time>
      </trkpt>
      <trkpt lat="47.71192" lon="3.48739">
        <ele>187</ele>
        <time>2022-01-12T10:26:18Z</time>
      </trkpt>
      <trkpt lat="47.71193" lon="3.48738">
        <ele>186.9</ele>
        <time>2022-01-12T10:26:20Z</time>
      </trkpt>
      <trkpt lat="47.71195" lon="3.48736">
        <ele>186.9</ele>
        <time>2022-01-12T10:26:21Z</time>
      </trkpt>
      <trkpt lat="47.71196" lon="3.48734">
        <ele>186.8</ele>
        <time>2022-01-12T10:26:22Z</time>
      </trkpt>
      <trkpt lat="47.71197" lon="3.48733">
        <ele>186.8</ele>
        <time>2022-01-12T10:26:23Z</time>
      </trkpt>
      <trkpt lat="47.71198" lon="3.48731">
        <ele>186.7</ele>
        <time>2022-01-12T10:26:24Z</time>
      </trkpt>
      <trkpt lat="47.71199" lon="3.4873">
        <ele>186.7</ele>
        <time>2022-01-12T10:26:25Z</time>
      </trkpt>
      <trkpt lat="47.71199" lon="3.48729">
        <ele>186.7</ele>
        <time>2022-01-12T10:26:26Z</time>
      </trkpt>
      <trkpt lat="47.71201" lon="3.48728">
        <ele>186.6</ele>
        <time>2022-01-12T10:26:27Z</time>
      </trkpt>
      <trkpt lat="47.71202" lon="3.48727">
        <ele>186.5</ele>
        <time>2022-01-12T10:26:28Z</time>
      </trkpt>
      <trkpt lat="47.71203" lon="3.48726">
        <ele>186.5</ele>
        <time>2022-01-12T10:26:30Z</time>
      </trkpt>
      <trkpt lat="47.71204" lon="3.48725">
        <ele>186.4</ele>
        <time>2022-01-12T10:26:31Z</time>
      </trkpt>
      <trkpt lat="47.71206" lon="3.48724">
        <ele>186.3</ele>
        <time>2022-01-12T10:26:32Z</time>
      </trkpt>
      <trkpt lat="47.71208" lon="3.48723">
        <ele>186.3</ele>
        <time>2022-01-12T10:26:33Z</time>
      </trkpt>
      <trkpt lat="47.7121" lon="3.48722">
        <ele>186.2</ele>
        <time>2022-01-12T10:26:35Z</time>
      </trkpt>
      <trkpt lat="47.71211" lon="3.48721">
        <ele>186.1</ele>
        <time>2022-01-12T10:26:36Z</time>
      </trkpt>
      <trkpt lat="47.71212" lon="3.48719">
        <ele>186</ele>
        <time>2022-01-12T10:26:37Z</time>
      </trkpt>
      <trkpt lat="47.71213" lon="3.48719">
        <ele>186</ele>
        <time>2022-01-12T10:26:38Z</time>
      </trkpt>
      <trkpt lat="47.71214" lon="3.48718">
        <ele>185.9</ele>
        <time>2022-01-12T10:26:39Z</time>
      </trkpt>
      <trkpt lat="47.71215" lon="3.48717">
        <ele>185.9</ele>
        <time>2022-01-12T10:26:41Z</time>
      </trkpt>
      <trkpt lat="47.71217" lon="3.48716">
        <ele>185.8</ele>
        <time>2022-01-12T10:26:42Z</time>
      </trkpt>
      <trkpt lat="47.71219" lon="3.48714">
        <ele>185.7</ele>
        <time>2022-01-12T10:26:43Z</time>
      </trkpt>
      <trkpt lat="47.71219" lon="3.48713">
        <ele>185.6</ele>
        <time>2022-01-12T10:26:44Z</time>
      </trkpt>
      <trkpt lat="47.7122" lon="3.48713">
        <ele>185.6</ele>
        <time>2022-01-12T10:26:45Z</time>
      </trkpt>
      <trkpt lat="47.71221" lon="3.48712">
        <ele>185.6</ele>
        <time>2022-01-12T10:26:46Z</time>
      </trkpt>
      <trkpt lat="47.71222" lon="3.4871">
        <ele>185.5</ele>
        <time>2022-01-12T10:26:47Z</time>
      </trkpt>
      <trkpt lat="47.71224" lon="3.4871">
        <ele>185.4</ele>
        <time>2022-01-12T10:26:48Z</time>
      </trkpt>
      <trkpt lat="47.71225" lon="3.4871">
        <ele>185.3</ele>
        <time>2022-01-12T10:26:49Z</time>
      </trkpt>
      <trkpt lat="47.71226" lon="3.48709">
        <ele>185.2</ele>
        <time>2022-01-12T10:26:50Z</time>
      </trkpt>
      <trkpt lat="47.71228" lon="3.48708">
        <ele>185.2</ele>
        <time>2022-01-12T10:26:52Z</time>
      </trkpt>
      <trkpt lat="47.71229" lon="3.48707">
        <ele>185.1</ele>
        <time>2022-01-12T10:26:53Z</time>
      </trkpt>
      <trkpt lat="47.7123" lon="3.48706">
        <ele>185</ele>
        <time>2022-01-12T10:26:54Z</time>
      </trkpt>
      <trkpt lat="47.71232" lon="3.48705">
        <ele>184.9</ele>
        <time>2022-01-12T10:26:55Z</time>
      </trkpt>
      <trkpt lat="47.71233" lon="3.48703">
        <ele>184.8</ele>
        <time>2022-01-12T10:26:56Z</time>
      </trkpt>
      <trkpt lat="47.71234" lon="3.48702">
        <ele>184.7</ele>
        <time>2022-01-12T10:26:58Z</time>
      </trkpt>
      <trkpt lat="47.71235" lon="3.487">
        <ele>184.7</ele>
        <time>2022-01-12T10:26:59Z</time>
      </trkpt>
      <trkpt lat="47.71236" lon="3.48699">
        <ele>184.6</ele>
        <time>2022-01-12T10:27:00Z</time>
      </trkpt>
      <trkpt lat="47.71237" lon="3.48698">
        <ele>184.5</ele>
        <time>2022-01-12T10:27:01Z</time>
      </trkpt>
      <trkpt lat="47.71238" lon="3.48697">
        <ele>184.5</ele>
        <time>2022-01-12T10:27:02Z</time>
      </trkpt>
      <trkpt lat="47.71239" lon="3.48697">
        <ele>184.4</ele>
        <time>2022-01-12T10:27:03Z</time>
      </trkpt>
      <trkpt lat="47.7124" lon="3.48696">
        <ele>184.3</ele>
        <time>2022-01-12T10:27:04Z</time>
      </trkpt>
      <trkpt lat="47.71241" lon="3.48695">
        <ele>184.2</ele>
        <time>2022-01-12T10:27:05Z</time>
      </trkpt>
      <trkpt lat="47.71242" lon="3.48694">
        <ele>184.2</ele>
        <time>2022-01-12T10:27:06Z</time>
      </trkpt>
      <trkpt lat="47.71242" lon="3.48693">
        <ele>184.1</ele>
        <time>2022-01-12T10:27:07Z</time>
      </trkpt>
      <trkpt lat="47.71244" lon="3.48691">
        <ele>184</ele>
        <time>2022-01-12T10:27:09Z</time>
      </trkpt>
      <trkpt lat="47.71245" lon="3.4869">
        <ele>183.9</ele>
        <time>2022-01-12T10:27:10Z</time>
      </trkpt>
      <trkpt lat="47.71246" lon="3.48688">
        <ele>183.9</ele>
        <time>2022-01-12T10:27:11Z</time>
      </trkpt>
      <trkpt lat="47.71247" lon="3.48685">
        <ele>183.7</ele>
        <time>2022-01-12T10:27:13Z</time>
      </trkpt>
      <trkpt lat="47.71248" lon="3.48683">
        <ele>183.6</ele>
        <time>2022-01-12T10:27:14Z</time>
      </trkpt>
      <trkpt lat="47.71249" lon="3.48682">
        <ele>183.6</ele>
        <time>2022-01-12T10:27:15Z</time>
      </trkpt>
      <trkpt lat="47.71249" lon="3.4868">
        <ele>183.5</ele>
        <time>2022-01-12T10:27:16Z</time>
      </trkpt>
      <trkpt lat="47.7125" lon="3.48679">
        <ele>183.4</ele>
        <time>2022-01-12T10:27:17Z</time>
      </trkpt>
      <trkpt lat="47.71251" lon="3.48676">
        <ele>183.3</ele>
        <time>2022-01-12T10:27:19Z</time>
      </trkpt>
      <trkpt lat="47.71251" lon="3.48674">
        <ele>183.3</ele>
        <time>2022-01-12T10:27:20Z</time>
      </trkpt>
      <trkpt lat="47.71252" lon="3.48672">
        <ele>183.2</ele>
        <time>2022-01-12T10:27:21Z</time>
      </trkpt>
      <trkpt lat="47.71253" lon="3.4867">
        <ele>183.1</ele>
        <time>2022-01-12T10:27:22Z</time>
      </trkpt>
      <trkpt lat="47.71254" lon="3.48669">
        <ele>183.1</ele>
        <time>2022-01-12T10:27:23Z</time>
      </trkpt>
      <trkpt lat="47.71254" lon="3.48668">
        <ele>183</ele>
        <time>2022-01-12T10:27:24Z</time>
      </trkpt>
      <trkpt lat="47.71255" lon="3.48666">
        <ele>183</ele>
        <time>2022-01-12T10:27:25Z</time>
      </trkpt>
      <trkpt lat="47.71256" lon="3.48663">
        <ele>182.9</ele>
        <time>2022-01-12T10:27:27Z</time>
      </trkpt>
      <trkpt lat="47.71256" lon="3.48661">
        <ele>182.8</ele>
        <time>2022-01-12T10:27:28Z</time>
      </trkpt>
      <trkpt lat="47.71256" lon="3.48659">
        <ele>182.8</ele>
        <time>2022-01-12T10:27:29Z</time>
      </trkpt>
      <trkpt lat="47.71257" lon="3.48657">
        <ele>182.7</ele>
        <time>2022-01-12T10:27:30Z</time>
      </trkpt>
      <trkpt lat="47.71257" lon="3.48656">
        <ele>182.7</ele>
        <time>2022-01-12T10:27:31Z</time>
      </trkpt>
      <trkpt lat="47.71257" lon="3.48655">
        <ele>182.6</ele>
        <time>2022-01-12T10:27:32Z</time>
      </trkpt>
      <trkpt lat="47.71259" lon="3.48652">
        <ele>182.6</ele>
        <time>2022-01-12T10:27:33Z</time>
      </trkpt>
      <trkpt lat="47.71259" lon="3.48651">
        <ele>182.5</ele>
        <time>2022-01-12T10:27:34Z</time>
      </trkpt>
      <trkpt lat="47.71259" lon="3.4865">
        <ele>182.5</ele>
        <time>2022-01-12T10:27:35Z</time>
      </trkpt>
      <trkpt lat="47.7126" lon="3.48649">
        <ele>182.5</ele>
        <time>2022-01-12T10:27:36Z</time>
      </trkpt>
      <trkpt lat="47.71261" lon="3.48647">
        <ele>182.4</ele>
        <time>2022-01-12T10:27:37Z</time>
      </trkpt>
      <trkpt lat="47.71261" lon="3.48644">
        <ele>182.4</ele>
        <time>2022-01-12T10:27:39Z</time>
      </trkpt>
      <trkpt lat="47.71262" lon="3.48641">
        <ele>182.3</ele>
        <time>2022-01-12T10:27:40Z</time>
      </trkpt>
      <trkpt lat="47.71262" lon="3.4864">
        <ele>182.2</ele>
        <time>2022-01-12T10:27:41Z</time>
      </trkpt>
      <trkpt lat="47.71263" lon="3.48639">
        <ele>182.2</ele>
        <time>2022-01-12T10:27:42Z</time>
      </trkpt>
      <trkpt lat="47.71263" lon="3.48637">
        <ele>182.2</ele>
        <time>2022-01-12T10:27:43Z</time>
      </trkpt>
      <trkpt lat="47.71263" lon="3.48635">
        <ele>182.1</ele>
        <time>2022-01-12T10:27:45Z</time>
      </trkpt>
      <trkpt lat="47.71264" lon="3.48634">
        <ele>182.1</ele>
        <time>2022-01-12T10:27:46Z</time>
      </trkpt>
      <trkpt lat="47.71265" lon="3.48633">
        <ele>182.1</ele>
        <time>2022-01-12T10:27:47Z</time>
      </trkpt>
      <trkpt lat="47.71266" lon="3.48631">
        <ele>182</ele>
        <time>2022-01-12T10:27:48Z</time>
      </trkpt>
      <trkpt lat="47.71268" lon="3.48629">
        <ele>181.9</ele>
        <time>2022-01-12T10:27:49Z</time>
      </trkpt>
      <trkpt lat="47.71268" lon="3.48628">
        <ele>181.9</ele>
        <time>2022-01-12T10:27:50Z</time>
      </trkpt>
      <trkpt lat="47.71268" lon="3.48627">
        <ele>181.9</ele>
        <time>2022-01-12T10:27:51Z</time>
      </trkpt>
      <trkpt lat="47.71269" lon="3.48625">
        <ele>181.8</ele>
        <time>2022-01-12T10:27:52Z</time>
      </trkpt>
      <trkpt lat="47.7127" lon="3.48624">
        <ele>181.8</ele>
        <time>2022-01-12T10:27:53Z</time>
      </trkpt>
      <trkpt lat="47.7127" lon="3.48623">
        <ele>181.8</ele>
        <time>2022-01-12T10:27:54Z</time>
      </trkpt>
      <trkpt lat="47.71271" lon="3.48621">
        <ele>181.7</ele>
        <time>2022-01-12T10:27:55Z</time>
      </trkpt>
      <trkpt lat="47.71273" lon="3.48619">
        <ele>181.7</ele>
        <time>2022-01-12T10:27:57Z</time>
      </trkpt>
      <trkpt lat="47.71274" lon="3.48617">
        <ele>181.6</ele>
        <time>2022-01-12T10:27:58Z</time>
      </trkpt>
      <trkpt lat="47.71275" lon="3.48615">
        <ele>181.6</ele>
        <time>2022-01-12T10:27:59Z</time>
      </trkpt>
      <trkpt lat="47.71276" lon="3.48613">
        <ele>181.5</ele>
        <time>2022-01-12T10:28:00Z</time>
      </trkpt>
      <trkpt lat="47.71276" lon="3.48612">
        <ele>181.5</ele>
        <time>2022-01-12T10:28:01Z</time>
      </trkpt>
      <trkpt lat="47.71277" lon="3.4861">
        <ele>181.5</ele>
        <time>2022-01-12T10:28:02Z</time>
      </trkpt>
      <trkpt lat="47.71278" lon="3.48608">
        <ele>181.4</ele>
        <time>2022-01-12T10:28:03Z</time>
      </trkpt>
      <trkpt lat="47.71279" lon="3.48607">
        <ele>181.4</ele>
        <time>2022-01-12T10:28:04Z</time>
      </trkpt>
      <trkpt lat="47.71279" lon="3.48605">
        <ele>181.4</ele>
        <time>2022-01-12T10:28:05Z</time>
      </trkpt>
      <trkpt lat="47.7128" lon="3.48603">
        <ele>181.3</ele>
        <time>2022-01-12T10:28:06Z</time>
      </trkpt>
      <trkpt lat="47.71281" lon="3.48601">
        <ele>181.3</ele>
        <time>2022-01-12T10:28:07Z</time>
      </trkpt>
      <trkpt lat="47.71282" lon="3.48599">
        <ele>181.2</ele>
        <time>2022-01-12T10:28:08Z</time>
      </trkpt>
      <trkpt lat="47.71283" lon="3.48597">
        <ele>181.2</ele>
        <time>2022-01-12T10:28:09Z</time>
      </trkpt>
      <trkpt lat="47.71284" lon="3.48594">
        <ele>181.1</ele>
        <time>2022-01-12T10:28:10Z</time>
      </trkpt>
      <trkpt lat="47.71285" lon="3.4859">
        <ele>181</ele>
        <time>2022-01-12T10:28:12Z</time>
      </trkpt>
      <trkpt lat="47.71285" lon="3.48589">
        <ele>181</ele>
        <time>2022-01-12T10:28:13Z</time>
      </trkpt>
      <trkpt lat="47.71286" lon="3.48587">
        <ele>181</ele>
        <time>2022-01-12T10:28:14Z</time>
      </trkpt>
      <trkpt lat="47.71286" lon="3.48585">
        <ele>181</ele>
        <time>2022-01-12T10:28:15Z</time>
      </trkpt>
      <trkpt lat="47.71287" lon="3.48583">
        <ele>180.9</ele>
        <time>2022-01-12T10:28:16Z</time>
      </trkpt>
      <trkpt lat="47.71288" lon="3.48581">
        <ele>180.9</ele>
        <time>2022-01-12T10:28:18Z</time>
      </trkpt>
      <trkpt lat="47.71289" lon="3.48578">
        <ele>180.8</ele>
        <time>2022-01-12T10:28:19Z</time>
      </trkpt>
      <trkpt lat="47.7129" lon="3.48576">
        <ele>180.8</ele>
        <time>2022-01-12T10:28:20Z</time>
      </trkpt>
      <trkpt lat="47.7129" lon="3.48574">
        <ele>180.7</ele>
        <time>2022-01-12T10:28:21Z</time>
      </trkpt>
      <trkpt lat="47.71291" lon="3.48572">
        <ele>180.7</ele>
        <time>2022-01-12T10:28:22Z</time>
      </trkpt>
      <trkpt lat="47.71291" lon="3.48569">
        <ele>180.7</ele>
        <time>2022-01-12T10:28:24Z</time>
      </trkpt>
      <trkpt lat="47.71291" lon="3.48567">
        <ele>180.6</ele>
        <time>2022-01-12T10:28:25Z</time>
      </trkpt>
      <trkpt lat="47.71291" lon="3.48566">
        <ele>180.6</ele>
        <time>2022-01-12T10:28:26Z</time>
      </trkpt>
      <trkpt lat="47.71292" lon="3.48564">
        <ele>180.6</ele>
        <time>2022-01-12T10:28:27Z</time>
      </trkpt>
      <trkpt lat="47.71292" lon="3.48562">
        <ele>180.6</ele>
        <time>2022-01-12T10:28:29Z</time>
      </trkpt>
      <trkpt lat="47.71292" lon="3.48562">
        <ele>180.6</ele>
        <time>2022-01-12T10:28:30Z</time>
      </trkpt>
      <trkpt lat="47.71292" lon="3.48561">
        <ele>180.5</ele>
        <time>2022-01-12T10:28:31Z</time>
      </trkpt>
      <trkpt lat="47.71292" lon="3.48561">
        <ele>180.5</ele>
        <time>2022-01-12T10:28:32Z</time>
      </trkpt>
      <trkpt lat="47.71293" lon="3.4856">
        <ele>180.5</ele>
        <time>2022-01-12T10:28:34Z</time>
      </trkpt>
      <trkpt lat="47.71293" lon="3.48559">
        <ele>180.5</ele>
        <time>2022-01-12T10:28:35Z</time>
      </trkpt>
      <trkpt lat="47.71294" lon="3.48559">
        <ele>180.5</ele>
        <time>2022-01-12T10:28:36Z</time>
      </trkpt>
      <trkpt lat="47.71295" lon="3.48558">
        <ele>180.5</ele>
        <time>2022-01-12T10:28:37Z</time>
      </trkpt>
      <trkpt lat="47.71298" lon="3.48555">
        <ele>180.4</ele>
        <time>2022-01-12T10:28:39Z</time>
      </trkpt>
      <trkpt lat="47.71298" lon="3.48554">
        <ele>180.4</ele>
        <time>2022-01-12T10:28:40Z</time>
      </trkpt>
      <trkpt lat="47.713" lon="3.48552">
        <ele>180.3</ele>
        <time>2022-01-12T10:28:41Z</time>
      </trkpt>
      <trkpt lat="47.71301" lon="3.4855">
        <ele>180.3</ele>
        <time>2022-01-12T10:28:42Z</time>
      </trkpt>
      <trkpt lat="47.71302" lon="3.48548">
        <ele>180.3</ele>
        <time>2022-01-12T10:28:43Z</time>
      </trkpt>
      <trkpt lat="47.71302" lon="3.48546">
        <ele>180.2</ele>
        <time>2022-01-12T10:28:44Z</time>
      </trkpt>
      <trkpt lat="47.71302" lon="3.48544">
        <ele>180.2</ele>
        <time>2022-01-12T10:28:46Z</time>
      </trkpt>
      <trkpt lat="47.71303" lon="3.48542">
        <ele>180.2</ele>
        <time>2022-01-12T10:28:47Z</time>
      </trkpt>
      <trkpt lat="47.71303" lon="3.4854">
        <ele>180.2</ele>
        <time>2022-01-12T10:28:48Z</time>
      </trkpt>
      <trkpt lat="47.71304" lon="3.48538">
        <ele>180.1</ele>
        <time>2022-01-12T10:28:49Z</time>
      </trkpt>
      <trkpt lat="47.71305" lon="3.48536">
        <ele>180.1</ele>
        <time>2022-01-12T10:28:50Z</time>
      </trkpt>
      <trkpt lat="47.71305" lon="3.48534">
        <ele>180.1</ele>
        <time>2022-01-12T10:28:51Z</time>
      </trkpt>
      <trkpt lat="47.71306" lon="3.48532">
        <ele>180</ele>
        <time>2022-01-12T10:28:52Z</time>
      </trkpt>
      <trkpt lat="47.71307" lon="3.4853">
        <ele>180</ele>
        <time>2022-01-12T10:28:53Z</time>
      </trkpt>
      <trkpt lat="47.71308" lon="3.48528">
        <ele>180</ele>
        <time>2022-01-12T10:28:55Z</time>
      </trkpt>
      <trkpt lat="47.71309" lon="3.48527">
        <ele>180</ele>
        <time>2022-01-12T10:28:56Z</time>
      </trkpt>
      <trkpt lat="47.7131" lon="3.48524">
        <ele>179.9</ele>
        <time>2022-01-12T10:28:57Z</time>
      </trkpt>
      <trkpt lat="47.7131" lon="3.48523">
        <ele>179.9</ele>
        <time>2022-01-12T10:28:58Z</time>
      </trkpt>
      <trkpt lat="47.71311" lon="3.48522">
        <ele>179.9</ele>
        <time>2022-01-12T10:28:59Z</time>
      </trkpt>
      <trkpt lat="47.71311" lon="3.4852">
        <ele>179.9</ele>
        <time>2022-01-12T10:29:00Z</time>
      </trkpt>
      <trkpt lat="47.71312" lon="3.48519">
        <ele>179.8</ele>
        <time>2022-01-12T10:29:01Z</time>
      </trkpt>
      <trkpt lat="47.71313" lon="3.48519">
        <ele>179.8</ele>
        <time>2022-01-12T10:29:02Z</time>
      </trkpt>
      <trkpt lat="47.71314" lon="3.48518">
        <ele>179.8</ele>
        <time>2022-01-12T10:29:03Z</time>
      </trkpt>
      <trkpt lat="47.71316" lon="3.48516">
        <ele>179.7</ele>
        <time>2022-01-12T10:29:05Z</time>
      </trkpt>
      <trkpt lat="47.71318" lon="3.48516">
        <ele>179.7</ele>
        <time>2022-01-12T10:29:06Z</time>
      </trkpt>
      <trkpt lat="47.71319" lon="3.48515">
        <ele>179.7</ele>
        <time>2022-01-12T10:29:07Z</time>
      </trkpt>
      <trkpt lat="47.7132" lon="3.48514">
        <ele>179.7</ele>
        <time>2022-01-12T10:29:08Z</time>
      </trkpt>
      <trkpt lat="47.71322" lon="3.48512">
        <ele>179.6</ele>
        <time>2022-01-12T10:29:10Z</time>
      </trkpt>
      <trkpt lat="47.71324" lon="3.48509">
        <ele>179.6</ele>
        <time>2022-01-12T10:29:11Z</time>
      </trkpt>
      <trkpt lat="47.71324" lon="3.48509">
        <ele>179.5</ele>
        <time>2022-01-12T10:29:12Z</time>
      </trkpt>
      <trkpt lat="47.71325" lon="3.48508">
        <ele>179.5</ele>
        <time>2022-01-12T10:29:13Z</time>
      </trkpt>
      <trkpt lat="47.71325" lon="3.48507">
        <ele>179.5</ele>
        <time>2022-01-12T10:29:14Z</time>
      </trkpt>
      <trkpt lat="47.71325" lon="3.48505">
        <ele>179.5</ele>
        <time>2022-01-12T10:29:16Z</time>
      </trkpt>
      <trkpt lat="47.71326" lon="3.48504">
        <ele>179.5</ele>
        <time>2022-01-12T10:29:17Z</time>
      </trkpt>
      <trkpt lat="47.71327" lon="3.48503">
        <ele>179.4</ele>
        <time>2022-01-12T10:29:18Z</time>
      </trkpt>
      <trkpt lat="47.71327" lon="3.48502">
        <ele>179.4</ele>
        <time>2022-01-12T10:29:19Z</time>
      </trkpt>
      <trkpt lat="47.71328" lon="3.48501">
        <ele>179.4</ele>
        <time>2022-01-12T10:29:20Z</time>
      </trkpt>
      <trkpt lat="47.71329" lon="3.48501">
        <ele>179.4</ele>
        <time>2022-01-12T10:29:21Z</time>
      </trkpt>
      <trkpt lat="47.71329" lon="3.48502">
        <ele>179.4</ele>
        <time>2022-01-12T10:29:22Z</time>
      </trkpt>
      <trkpt lat="47.71331" lon="3.48501">
        <ele>179.4</ele>
        <time>2022-01-12T10:29:24Z</time>
      </trkpt>
      <trkpt lat="47.71332" lon="3.48499">
        <ele>179.3</ele>
        <time>2022-01-12T10:29:25Z</time>
      </trkpt>
      <trkpt lat="47.71333" lon="3.48497">
        <ele>179.3</ele>
        <time>2022-01-12T10:29:26Z</time>
      </trkpt>
      <trkpt lat="47.71334" lon="3.48496">
        <ele>179.3</ele>
        <time>2022-01-12T10:29:27Z</time>
      </trkpt>
      <trkpt lat="47.71335" lon="3.48492">
        <ele>179.3</ele>
        <time>2022-01-12T10:29:29Z</time>
      </trkpt>
      <trkpt lat="47.71334" lon="3.48488">
        <ele>179.2</ele>
        <time>2022-01-12T10:29:30Z</time>
      </trkpt>
      <trkpt lat="47.71333" lon="3.48487">
        <ele>179.2</ele>
        <time>2022-01-12T10:29:31Z</time>
      </trkpt>
      <trkpt lat="47.71333" lon="3.48482">
        <ele>179.1</ele>
        <time>2022-01-12T10:29:33Z</time>
      </trkpt>
      <trkpt lat="47.71334" lon="3.48481">
        <ele>179.1</ele>
        <time>2022-01-12T10:29:34Z</time>
      </trkpt>
      <trkpt lat="47.71335" lon="3.4848">
        <ele>179.1</ele>
        <time>2022-01-12T10:29:36Z</time>
      </trkpt>
      <trkpt lat="47.71337" lon="3.4848">
        <ele>179.1</ele>
        <time>2022-01-12T10:29:37Z</time>
      </trkpt>
      <trkpt lat="47.71339" lon="3.4848">
        <ele>179.1</ele>
        <time>2022-01-12T10:29:38Z</time>
      </trkpt>
      <trkpt lat="47.7134" lon="3.4848">
        <ele>179</ele>
        <time>2022-01-12T10:29:39Z</time>
      </trkpt>
      <trkpt lat="47.7134" lon="3.4848">
        <ele>179</ele>
        <time>2022-01-12T10:29:40Z</time>
      </trkpt>
      <trkpt lat="47.71341" lon="3.4848">
        <ele>179</ele>
        <time>2022-01-12T10:29:41Z</time>
      </trkpt>
      <trkpt lat="47.71341" lon="3.4848">
        <ele>179</ele>
        <time>2022-01-12T10:29:42Z</time>
      </trkpt>
      <trkpt lat="47.7134" lon="3.48478">
        <ele>179</ele>
        <time>2022-01-12T10:29:43Z</time>
      </trkpt>
      <trkpt lat="47.7134" lon="3.48477">
        <ele>179</ele>
        <time>2022-01-12T10:29:44Z</time>
      </trkpt>
      <trkpt lat="47.7134" lon="3.48476">
        <ele>179</ele>
        <time>2022-01-12T10:29:45Z</time>
      </trkpt>
      <trkpt lat="47.7134" lon="3.48475">
        <ele>179</ele>
        <time>2022-01-12T10:29:46Z</time>
      </trkpt>
      <trkpt lat="47.7134" lon="3.48474">
        <ele>179</ele>
        <time>2022-01-12T10:29:47Z</time>
      </trkpt>
      <trkpt lat="47.71343" lon="3.48472">
        <ele>178.9</ele>
        <time>2022-01-12T10:29:49Z</time>
      </trkpt>
      <trkpt lat="47.71344" lon="3.4847">
        <ele>178.9</ele>
        <time>2022-01-12T10:29:50Z</time>
      </trkpt>
      <trkpt lat="47.71347" lon="3.48466">
        <ele>178.8</ele>
        <time>2022-01-12T10:29:52Z</time>
      </trkpt>
      <trkpt lat="47.71348" lon="3.48464">
        <ele>178.8</ele>
        <time>2022-01-12T10:29:54Z</time>
      </trkpt>
      <trkpt lat="47.71349" lon="3.48463">
        <ele>178.8</ele>
        <time>2022-01-12T10:29:55Z</time>
      </trkpt>
      <trkpt lat="47.71349" lon="3.48462">
        <ele>178.8</ele>
        <time>2022-01-12T10:29:56Z</time>
      </trkpt>
      <trkpt lat="47.7135" lon="3.48461">
        <ele>178.8</ele>
        <time>2022-01-12T10:29:57Z</time>
      </trkpt>
      <trkpt lat="47.7135" lon="3.4846">
        <ele>178.8</ele>
        <time>2022-01-12T10:29:59Z</time>
      </trkpt>
      <trkpt lat="47.71351" lon="3.48459">
        <ele>178.8</ele>
        <time>2022-01-12T10:30:00Z</time>
      </trkpt>
      <trkpt lat="47.71351" lon="3.48458">
        <ele>178.8</ele>
        <time>2022-01-12T10:30:01Z</time>
      </trkpt>
      <trkpt lat="47.71352" lon="3.48456">
        <ele>178.7</ele>
        <time>2022-01-12T10:30:02Z</time>
      </trkpt>
      <trkpt lat="47.71353" lon="3.48454">
        <ele>178.7</ele>
        <time>2022-01-12T10:30:03Z</time>
      </trkpt>
      <trkpt lat="47.71353" lon="3.48453">
        <ele>178.7</ele>
        <time>2022-01-12T10:30:04Z</time>
      </trkpt>
      <trkpt lat="47.71353" lon="3.48452">
        <ele>178.7</ele>
        <time>2022-01-12T10:30:05Z</time>
      </trkpt>
      <trkpt lat="47.71354" lon="3.48451">
        <ele>178.7</ele>
        <time>2022-01-12T10:30:06Z</time>
      </trkpt>
      <trkpt lat="47.71354" lon="3.4845">
        <ele>178.7</ele>
        <time>2022-01-12T10:30:07Z</time>
      </trkpt>
      <trkpt lat="47.71355" lon="3.48448">
        <ele>178.7</ele>
        <time>2022-01-12T10:30:08Z</time>
      </trkpt>
      <trkpt lat="47.71355" lon="3.48445">
        <ele>178.7</ele>
        <time>2022-01-12T10:30:09Z</time>
      </trkpt>
      <trkpt lat="47.71355" lon="3.48444">
        <ele>178.6</ele>
        <time>2022-01-12T10:30:10Z</time>
      </trkpt>
      <trkpt lat="47.71356" lon="3.48443">
        <ele>178.6</ele>
        <time>2022-01-12T10:30:11Z</time>
      </trkpt>
      <trkpt lat="47.71356" lon="3.48442">
        <ele>178.6</ele>
        <time>2022-01-12T10:30:12Z</time>
      </trkpt>
      <trkpt lat="47.71356" lon="3.4844">
        <ele>178.6</ele>
        <time>2022-01-12T10:30:13Z</time>
      </trkpt>
      <trkpt lat="47.71357" lon="3.48439">
        <ele>178.6</ele>
        <time>2022-01-12T10:30:14Z</time>
      </trkpt>
      <trkpt lat="47.71357" lon="3.48438">
        <ele>178.6</ele>
        <time>2022-01-12T10:30:15Z</time>
      </trkpt>
      <trkpt lat="47.71358" lon="3.48437">
        <ele>178.6</ele>
        <time>2022-01-12T10:30:16Z</time>
      </trkpt>
      <trkpt lat="47.71358" lon="3.48434">
        <ele>178.6</ele>
        <time>2022-01-12T10:30:18Z</time>
      </trkpt>
      <trkpt lat="47.7136" lon="3.48432">
        <ele>178.5</ele>
        <time>2022-01-12T10:30:19Z</time>
      </trkpt>
      <trkpt lat="47.71361" lon="3.4843">
        <ele>178.5</ele>
        <time>2022-01-12T10:30:20Z</time>
      </trkpt>
      <trkpt lat="47.71365" lon="3.48426">
        <ele>178.4</ele>
        <time>2022-01-12T10:30:22Z</time>
      </trkpt>
      <trkpt lat="47.71366" lon="3.48425">
        <ele>178.4</ele>
        <time>2022-01-12T10:30:23Z</time>
      </trkpt>
      <trkpt lat="47.71368" lon="3.48424">
        <ele>178.4</ele>
        <time>2022-01-12T10:30:24Z</time>
      </trkpt>
      <trkpt lat="47.71371" lon="3.48423">
        <ele>178.4</ele>
        <time>2022-01-12T10:30:25Z</time>
      </trkpt>
      <trkpt lat="47.71372" lon="3.48422">
        <ele>178.4</ele>
        <time>2022-01-12T10:30:26Z</time>
      </trkpt>
      <trkpt lat="47.71374" lon="3.4842">
        <ele>178.3</ele>
        <time>2022-01-12T10:30:28Z</time>
      </trkpt>
      <trkpt lat="47.71374" lon="3.48419">
        <ele>178.3</ele>
        <time>2022-01-12T10:30:29Z</time>
      </trkpt>
      <trkpt lat="47.71376" lon="3.48416">
        <ele>178.3</ele>
        <time>2022-01-12T10:30:30Z</time>
      </trkpt>
      <trkpt lat="47.71377" lon="3.48415">
        <ele>178.3</ele>
        <time>2022-01-12T10:30:31Z</time>
      </trkpt>
      <trkpt lat="47.71379" lon="3.48413">
        <ele>178.3</ele>
        <time>2022-01-12T10:30:32Z</time>
      </trkpt>
      <trkpt lat="47.7138" lon="3.48412">
        <ele>178.2</ele>
        <time>2022-01-12T10:30:33Z</time>
      </trkpt>
      <trkpt lat="47.7138" lon="3.48409">
        <ele>178.2</ele>
        <time>2022-01-12T10:30:34Z</time>
      </trkpt>
      <trkpt lat="47.71381" lon="3.48406">
        <ele>178.2</ele>
        <time>2022-01-12T10:30:36Z</time>
      </trkpt>
      <trkpt lat="47.71382" lon="3.48405">
        <ele>178.2</ele>
        <time>2022-01-12T10:30:37Z</time>
      </trkpt>
      <trkpt lat="47.71383" lon="3.48404">
        <ele>178.2</ele>
        <time>2022-01-12T10:30:38Z</time>
      </trkpt>
      <trkpt lat="47.71385" lon="3.48402">
        <ele>178.2</ele>
        <time>2022-01-12T10:30:40Z</time>
      </trkpt>
      <trkpt lat="47.71387" lon="3.48401">
        <ele>178.2</ele>
        <time>2022-01-12T10:30:41Z</time>
      </trkpt>
      <trkpt lat="47.71388" lon="3.484">
        <ele>178.2</ele>
        <time>2022-01-12T10:30:42Z</time>
      </trkpt>
      <trkpt lat="47.71391" lon="3.484">
        <ele>178.2</ele>
        <time>2022-01-12T10:30:44Z</time>
      </trkpt>
      <trkpt lat="47.71393" lon="3.48399">
        <ele>178.1</ele>
        <time>2022-01-12T10:30:45Z</time>
      </trkpt>
      <trkpt lat="47.71394" lon="3.48399">
        <ele>178.1</ele>
        <time>2022-01-12T10:30:46Z</time>
      </trkpt>
      <trkpt lat="47.71395" lon="3.48398">
        <ele>178.1</ele>
        <time>2022-01-12T10:30:47Z</time>
      </trkpt>
      <trkpt lat="47.71396" lon="3.48397">
        <ele>178.1</ele>
        <time>2022-01-12T10:30:48Z</time>
      </trkpt>
      <trkpt lat="47.71396" lon="3.48395">
        <ele>178.1</ele>
        <time>2022-01-12T10:30:49Z</time>
      </trkpt>
      <trkpt lat="47.71397" lon="3.48394">
        <ele>178.1</ele>
        <time>2022-01-12T10:30:50Z</time>
      </trkpt>
      <trkpt lat="47.71397" lon="3.48393">
        <ele>178.1</ele>
        <time>2022-01-12T10:30:51Z</time>
      </trkpt>
      <trkpt lat="47.71397" lon="3.48391">
        <ele>178.1</ele>
        <time>2022-01-12T10:30:52Z</time>
      </trkpt>
      <trkpt lat="47.71397" lon="3.4839">
        <ele>178.1</ele>
        <time>2022-01-12T10:30:53Z</time>
      </trkpt>
      <trkpt lat="47.71398" lon="3.48386">
        <ele>178.1</ele>
        <time>2022-01-12T10:30:55Z</time>
      </trkpt>
      <trkpt lat="47.71398" lon="3.48385">
        <ele>178.1</ele>
        <time>2022-01-12T10:30:56Z</time>
      </trkpt>
      <trkpt lat="47.71399" lon="3.48384">
        <ele>178.1</ele>
        <time>2022-01-12T10:30:57Z</time>
      </trkpt>
      <trkpt lat="47.71401" lon="3.48382">
        <ele>178.1</ele>
        <time>2022-01-12T10:30:58Z</time>
      </trkpt>
      <trkpt lat="47.71402" lon="3.48381">
        <ele>178</ele>
        <time>2022-01-12T10:30:59Z</time>
      </trkpt>
      <trkpt lat="47.71403" lon="3.4838">
        <ele>178</ele>
        <time>2022-01-12T10:31:00Z</time>
      </trkpt>
      <trkpt lat="47.71404" lon="3.48379">
        <ele>178</ele>
        <time>2022-01-12T10:31:01Z</time>
      </trkpt>
      <trkpt lat="47.71406" lon="3.48378">
        <ele>178</ele>
        <time>2022-01-12T10:31:02Z</time>
      </trkpt>
      <trkpt lat="47.71408" lon="3.48376">
        <ele>178</ele>
        <time>2022-01-12T10:31:03Z</time>
      </trkpt>
      <trkpt lat="47.71408" lon="3.48375">
        <ele>178</ele>
        <time>2022-01-12T10:31:04Z</time>
      </trkpt>
      <trkpt lat="47.71409" lon="3.48374">
        <ele>178</ele>
        <time>2022-01-12T10:31:05Z</time>
      </trkpt>
      <trkpt lat="47.7141" lon="3.48373">
        <ele>178</ele>
        <time>2022-01-12T10:31:06Z</time>
      </trkpt>
      <trkpt lat="47.71411" lon="3.48372">
        <ele>178</ele>
        <time>2022-01-12T10:31:07Z</time>
      </trkpt>
      <trkpt lat="47.71412" lon="3.48372">
        <ele>178</ele>
        <time>2022-01-12T10:31:08Z</time>
      </trkpt>
      <trkpt lat="47.71413" lon="3.48372">
        <ele>178</ele>
        <time>2022-01-12T10:31:09Z</time>
      </trkpt>
      <trkpt lat="47.71414" lon="3.48372">
        <ele>178</ele>
        <time>2022-01-12T10:31:10Z</time>
      </trkpt>
      <trkpt lat="47.71416" lon="3.48371">
        <ele>178</ele>
        <time>2022-01-12T10:31:12Z</time>
      </trkpt>
      <trkpt lat="47.71417" lon="3.4837">
        <ele>177.9</ele>
        <time>2022-01-12T10:31:13Z</time>
      </trkpt>
      <trkpt lat="47.71418" lon="3.48368">
        <ele>177.9</ele>
        <time>2022-01-12T10:31:14Z</time>
      </trkpt>
      <trkpt lat="47.71419" lon="3.48366">
        <ele>177.9</ele>
        <time>2022-01-12T10:31:15Z</time>
      </trkpt>
      <trkpt lat="47.71421" lon="3.48365">
        <ele>177.9</ele>
        <time>2022-01-12T10:31:16Z</time>
      </trkpt>
      <trkpt lat="47.71422" lon="3.48364">
        <ele>177.9</ele>
        <time>2022-01-12T10:31:17Z</time>
      </trkpt>
      <trkpt lat="47.71424" lon="3.48363">
        <ele>177.9</ele>
        <time>2022-01-12T10:31:18Z</time>
      </trkpt>
      <trkpt lat="47.71425" lon="3.48362">
        <ele>177.9</ele>
        <time>2022-01-12T10:31:19Z</time>
      </trkpt>
      <trkpt lat="47.71426" lon="3.48361">
        <ele>177.9</ele>
        <time>2022-01-12T10:31:20Z</time>
      </trkpt>
      <trkpt lat="47.71428" lon="3.4836">
        <ele>177.9</ele>
        <time>2022-01-12T10:31:21Z</time>
      </trkpt>
      <trkpt lat="47.71429" lon="3.4836">
        <ele>177.9</ele>
        <time>2022-01-12T10:31:22Z</time>
      </trkpt>
      <trkpt lat="47.71429" lon="3.48359">
        <ele>177.9</ele>
        <time>2022-01-12T10:31:23Z</time>
      </trkpt>
      <trkpt lat="47.7143" lon="3.48359">
        <ele>177.9</ele>
        <time>2022-01-12T10:31:24Z</time>
      </trkpt>
      <trkpt lat="47.7143" lon="3.48359">
        <ele>177.9</ele>
        <time>2022-01-12T10:31:25Z</time>
      </trkpt>
      <trkpt lat="47.71431" lon="3.48358">
        <ele>177.8</ele>
        <time>2022-01-12T10:31:26Z</time>
      </trkpt>
      <trkpt lat="47.71432" lon="3.48357">
        <ele>177.8</ele>
        <time>2022-01-12T10:31:28Z</time>
      </trkpt>
      <trkpt lat="47.71434" lon="3.48355">
        <ele>177.8</ele>
        <time>2022-01-12T10:31:29Z</time>
      </trkpt>
      <trkpt lat="47.71435" lon="3.48354">
        <ele>177.8</ele>
        <time>2022-01-12T10:31:30Z</time>
      </trkpt>
      <trkpt lat="47.71436" lon="3.48353">
        <ele>177.8</ele>
        <time>2022-01-12T10:31:31Z</time>
      </trkpt>
      <trkpt lat="47.71437" lon="3.48351">
        <ele>177.8</ele>
        <time>2022-01-12T10:31:32Z</time>
      </trkpt>
      <trkpt lat="47.71439" lon="3.48348">
        <ele>177.7</ele>
        <time>2022-01-12T10:31:34Z</time>
      </trkpt>
      <trkpt lat="47.7144" lon="3.48347">
        <ele>177.7</ele>
        <time>2022-01-12T10:31:35Z</time>
      </trkpt>
      <trkpt lat="47.71441" lon="3.48346">
        <ele>177.7</ele>
        <time>2022-01-12T10:31:36Z</time>
      </trkpt>
      <trkpt lat="47.71442" lon="3.48344">
        <ele>177.7</ele>
        <time>2022-01-12T10:31:37Z</time>
      </trkpt>
      <trkpt lat="47.71443" lon="3.48343">
        <ele>177.7</ele>
        <time>2022-01-12T10:31:38Z</time>
      </trkpt>
      <trkpt lat="47.71444" lon="3.48342">
        <ele>177.7</ele>
        <time>2022-01-12T10:31:39Z</time>
      </trkpt>
      <trkpt lat="47.71447" lon="3.4834">
        <ele>177.6</ele>
        <time>2022-01-12T10:31:41Z</time>
      </trkpt>
      <trkpt lat="47.71448" lon="3.48339">
        <ele>177.6</ele>
        <time>2022-01-12T10:31:42Z</time>
      </trkpt>
      <trkpt lat="47.71449" lon="3.48338">
        <ele>177.6</ele>
        <time>2022-01-12T10:31:43Z</time>
      </trkpt>
      <trkpt lat="47.71451" lon="3.48337">
        <ele>177.6</ele>
        <time>2022-01-12T10:31:44Z</time>
      </trkpt>
      <trkpt lat="47.71453" lon="3.48335">
        <ele>177.6</ele>
        <time>2022-01-12T10:31:45Z</time>
      </trkpt>
      <trkpt lat="47.71454" lon="3.48335">
        <ele>177.5</ele>
        <time>2022-01-12T10:31:46Z</time>
      </trkpt>
      <trkpt lat="47.71457" lon="3.48332">
        <ele>177.5</ele>
        <time>2022-01-12T10:31:48Z</time>
      </trkpt>
      <trkpt lat="47.71458" lon="3.48331">
        <ele>177.5</ele>
        <time>2022-01-12T10:31:49Z</time>
      </trkpt>
      <trkpt lat="47.71459" lon="3.48328">
        <ele>177.5</ele>
        <time>2022-01-12T10:31:50Z</time>
      </trkpt>
      <trkpt lat="47.7146" lon="3.48327">
        <ele>177.4</ele>
        <time>2022-01-12T10:31:51Z</time>
      </trkpt>
      <trkpt lat="47.7146" lon="3.48326">
        <ele>177.4</ele>
        <time>2022-01-12T10:31:52Z</time>
      </trkpt>
      <trkpt lat="47.71462" lon="3.48325">
        <ele>177.4</ele>
        <time>2022-01-12T10:31:53Z</time>
      </trkpt>
      <trkpt lat="47.71463" lon="3.48323">
        <ele>177.4</ele>
        <time>2022-01-12T10:31:55Z</time>
      </trkpt>
      <trkpt lat="47.71466" lon="3.48322">
        <ele>177.3</ele>
        <time>2022-01-12T10:31:56Z</time>
      </trkpt>
      <trkpt lat="47.71467" lon="3.48321">
        <ele>177.3</ele>
        <time>2022-01-12T10:31:57Z</time>
      </trkpt>
      <trkpt lat="47.7147" lon="3.4832">
        <ele>177.3</ele>
        <time>2022-01-12T10:31:58Z</time>
      </trkpt>
      <trkpt lat="47.71471" lon="3.48319">
        <ele>177.3</ele>
        <time>2022-01-12T10:31:59Z</time>
      </trkpt>
      <trkpt lat="47.71472" lon="3.48319">
        <ele>177.3</ele>
        <time>2022-01-12T10:32:00Z</time>
      </trkpt>
      <trkpt lat="47.71474" lon="3.48318">
        <ele>177.2</ele>
        <time>2022-01-12T10:32:01Z</time>
      </trkpt>
      <trkpt lat="47.71475" lon="3.48316">
        <ele>177.2</ele>
        <time>2022-01-12T10:32:02Z</time>
      </trkpt>
      <trkpt lat="47.71477" lon="3.48315">
        <ele>177.2</ele>
        <time>2022-01-12T10:32:03Z</time>
      </trkpt>
      <trkpt lat="47.71478" lon="3.48315">
        <ele>177.2</ele>
        <time>2022-01-12T10:32:04Z</time>
      </trkpt>
      <trkpt lat="47.71479" lon="3.48314">
        <ele>177.2</ele>
        <time>2022-01-12T10:32:05Z</time>
      </trkpt>
      <trkpt lat="47.71481" lon="3.48313">
        <ele>177.1</ele>
        <time>2022-01-12T10:32:06Z</time>
      </trkpt>
      <trkpt lat="47.71482" lon="3.48312">
        <ele>177.1</ele>
        <time>2022-01-12T10:32:08Z</time>
      </trkpt>
      <trkpt lat="47.71483" lon="3.48311">
        <ele>177.1</ele>
        <time>2022-01-12T10:32:09Z</time>
      </trkpt>
      <trkpt lat="47.71485" lon="3.4831">
        <ele>177.1</ele>
        <time>2022-01-12T10:32:10Z</time>
      </trkpt>
      <trkpt lat="47.71486" lon="3.4831">
        <ele>177.1</ele>
        <time>2022-01-12T10:32:11Z</time>
      </trkpt>
      <trkpt lat="47.71487" lon="3.48309">
        <ele>177.1</ele>
        <time>2022-01-12T10:32:12Z</time>
      </trkpt>
      <trkpt lat="47.71489" lon="3.4831">
        <ele>177</ele>
        <time>2022-01-12T10:32:13Z</time>
      </trkpt>
      <trkpt lat="47.7149" lon="3.48312">
        <ele>177</ele>
        <time>2022-01-12T10:32:14Z</time>
      </trkpt>
      <trkpt lat="47.71491" lon="3.48313">
        <ele>177</ele>
        <time>2022-01-12T10:32:16Z</time>
      </trkpt>
      <trkpt lat="47.71492" lon="3.48314">
        <ele>177</ele>
        <time>2022-01-12T10:32:17Z</time>
      </trkpt>
      <trkpt lat="47.71494" lon="3.48315">
        <ele>177</ele>
        <time>2022-01-12T10:32:18Z</time>
      </trkpt>
      <trkpt lat="47.71495" lon="3.48313">
        <ele>177</ele>
        <time>2022-01-12T10:32:19Z</time>
      </trkpt>
      <trkpt lat="47.71495" lon="3.48312">
        <ele>177</ele>
        <time>2022-01-12T10:32:20Z</time>
      </trkpt>
      <trkpt lat="47.71497" lon="3.4831">
        <ele>177</ele>
        <time>2022-01-12T10:32:22Z</time>
      </trkpt>
      <trkpt lat="47.71498" lon="3.48308">
        <ele>177</ele>
        <time>2022-01-12T10:32:23Z</time>
      </trkpt>
      <trkpt lat="47.71499" lon="3.48307">
        <ele>177</ele>
        <time>2022-01-12T10:32:24Z</time>
      </trkpt>
      <trkpt lat="47.715" lon="3.48305">
        <ele>177</ele>
        <time>2022-01-12T10:32:25Z</time>
      </trkpt>
      <trkpt lat="47.71502" lon="3.48303">
        <ele>177</ele>
        <time>2022-01-12T10:32:26Z</time>
      </trkpt>
      <trkpt lat="47.71504" lon="3.483">
        <ele>177</ele>
        <time>2022-01-12T10:32:28Z</time>
      </trkpt>
      <trkpt lat="47.71505" lon="3.48299">
        <ele>177</ele>
        <time>2022-01-12T10:32:29Z</time>
      </trkpt>
      <trkpt lat="47.71507" lon="3.48295">
        <ele>177</ele>
        <time>2022-01-12T10:32:31Z</time>
      </trkpt>
      <trkpt lat="47.71508" lon="3.48294">
        <ele>177</ele>
        <time>2022-01-12T10:32:32Z</time>
      </trkpt>
      <trkpt lat="47.71509" lon="3.48292">
        <ele>177</ele>
        <time>2022-01-12T10:32:33Z</time>
      </trkpt>
      <trkpt lat="47.7151" lon="3.48291">
        <ele>177</ele>
        <time>2022-01-12T10:32:34Z</time>
      </trkpt>
      <trkpt lat="47.71511" lon="3.48291">
        <ele>177</ele>
        <time>2022-01-12T10:32:35Z</time>
      </trkpt>
      <trkpt lat="47.71512" lon="3.4829">
        <ele>177</ele>
        <time>2022-01-12T10:32:36Z</time>
      </trkpt>
      <trkpt lat="47.71513" lon="3.48289">
        <ele>177</ele>
        <time>2022-01-12T10:32:37Z</time>
      </trkpt>
      <trkpt lat="47.71513" lon="3.48288">
        <ele>177</ele>
        <time>2022-01-12T10:32:38Z</time>
      </trkpt>
      <trkpt lat="47.71515" lon="3.48287">
        <ele>177</ele>
        <time>2022-01-12T10:32:39Z</time>
      </trkpt>
      <trkpt lat="47.71516" lon="3.48288">
        <ele>177</ele>
        <time>2022-01-12T10:32:41Z</time>
      </trkpt>
      <trkpt lat="47.71517" lon="3.48288">
        <ele>177</ele>
        <time>2022-01-12T10:32:42Z</time>
      </trkpt>
      <trkpt lat="47.71518" lon="3.48287">
        <ele>177</ele>
        <time>2022-01-12T10:32:43Z</time>
      </trkpt>
      <trkpt lat="47.7152" lon="3.48287">
        <ele>177</ele>
        <time>2022-01-12T10:32:44Z</time>
      </trkpt>
      <trkpt lat="47.71521" lon="3.48287">
        <ele>177.1</ele>
        <time>2022-01-12T10:32:45Z</time>
      </trkpt>
      <trkpt lat="47.71523" lon="3.48287">
        <ele>177.1</ele>
        <time>2022-01-12T10:32:47Z</time>
      </trkpt>
      <trkpt lat="47.71524" lon="3.48286">
        <ele>177.1</ele>
        <time>2022-01-12T10:32:48Z</time>
      </trkpt>
      <trkpt lat="47.71525" lon="3.48286">
        <ele>177.1</ele>
        <time>2022-01-12T10:32:49Z</time>
      </trkpt>
      <trkpt lat="47.71525" lon="3.48287">
        <ele>177.1</ele>
        <time>2022-01-12T10:32:50Z</time>
      </trkpt>
      <trkpt lat="47.71525" lon="3.48287">
        <ele>177.1</ele>
        <time>2022-01-12T10:32:51Z</time>
      </trkpt>
      <trkpt lat="47.71524" lon="3.48287">
        <ele>177.1</ele>
        <time>2022-01-12T10:32:52Z</time>
      </trkpt>
      <trkpt lat="47.71524" lon="3.48287">
        <ele>177.1</ele>
        <time>2022-01-12T10:32:53Z</time>
      </trkpt>
      <trkpt lat="47.71526" lon="3.48288">
        <ele>177.1</ele>
        <time>2022-01-12T10:32:54Z</time>
      </trkpt>
      <trkpt lat="47.71527" lon="3.48288">
        <ele>177.1</ele>
        <time>2022-01-12T10:32:56Z</time>
      </trkpt>
      <trkpt lat="47.71529" lon="3.48288">
        <ele>177.1</ele>
        <time>2022-01-12T10:32:57Z</time>
      </trkpt>
      <trkpt lat="47.7153" lon="3.48288">
        <ele>177.1</ele>
        <time>2022-01-12T10:32:58Z</time>
      </trkpt>
      <trkpt lat="47.71532" lon="3.48288">
        <ele>177.1</ele>
        <time>2022-01-12T10:33:00Z</time>
      </trkpt>
      <trkpt lat="47.71534" lon="3.48286">
        <ele>177.2</ele>
        <time>2022-01-12T10:33:01Z</time>
      </trkpt>
      <trkpt lat="47.71535" lon="3.48285">
        <ele>177.2</ele>
        <time>2022-01-12T10:33:02Z</time>
      </trkpt>
      <trkpt lat="47.71537" lon="3.48283">
        <ele>177.2</ele>
        <time>2022-01-12T10:33:03Z</time>
      </trkpt>
      <trkpt lat="47.71538" lon="3.48282">
        <ele>177.2</ele>
        <time>2022-01-12T10:33:04Z</time>
      </trkpt>
      <trkpt lat="47.71541" lon="3.48279">
        <ele>177.2</ele>
        <time>2022-01-12T10:33:05Z</time>
      </trkpt>
      <trkpt lat="47.71542" lon="3.48278">
        <ele>177.2</ele>
        <time>2022-01-12T10:33:06Z</time>
      </trkpt>
      <trkpt lat="47.71543" lon="3.48277">
        <ele>177.2</ele>
        <time>2022-01-12T10:33:07Z</time>
      </trkpt>
      <trkpt lat="47.71546" lon="3.48275">
        <ele>177.2</ele>
        <time>2022-01-12T10:33:09Z</time>
      </trkpt>
      <trkpt lat="47.71547" lon="3.48275">
        <ele>177.3</ele>
        <time>2022-01-12T10:33:10Z</time>
      </trkpt>
      <trkpt lat="47.71549" lon="3.48275">
        <ele>177.3</ele>
        <time>2022-01-12T10:33:11Z</time>
      </trkpt>
      <trkpt lat="47.71551" lon="3.48275">
        <ele>177.3</ele>
        <time>2022-01-12T10:33:13Z</time>
      </trkpt>
      <trkpt lat="47.71552" lon="3.48274">
        <ele>177.3</ele>
        <time>2022-01-12T10:33:14Z</time>
      </trkpt>
      <trkpt lat="47.71554" lon="3.48273">
        <ele>177.3</ele>
        <time>2022-01-12T10:33:15Z</time>
      </trkpt>
      <trkpt lat="47.71555" lon="3.48273">
        <ele>177.3</ele>
        <time>2022-01-12T10:33:16Z</time>
      </trkpt>
      <trkpt lat="47.71556" lon="3.48273">
        <ele>177.3</ele>
        <time>2022-01-12T10:33:17Z</time>
      </trkpt>
      <trkpt lat="47.71557" lon="3.48273">
        <ele>177.3</ele>
        <time>2022-01-12T10:33:18Z</time>
      </trkpt>
      <trkpt lat="47.71558" lon="3.48273">
        <ele>177.3</ele>
        <time>2022-01-12T10:33:19Z</time>
      </trkpt>
      <trkpt lat="47.7156" lon="3.48273">
        <ele>177.2</ele>
        <time>2022-01-12T10:33:21Z</time>
      </trkpt>
      <trkpt lat="47.71562" lon="3.48272">
        <ele>177.2</ele>
        <time>2022-01-12T10:33:22Z</time>
      </trkpt>
      <trkpt lat="47.71562" lon="3.48272">
        <ele>177.2</ele>
        <time>2022-01-12T10:33:23Z</time>
      </trkpt>
      <trkpt lat="47.71563" lon="3.48273">
        <ele>177.2</ele>
        <time>2022-01-12T10:33:25Z</time>
      </trkpt>
      <trkpt lat="47.71564" lon="3.48273">
        <ele>177.2</ele>
        <time>2022-01-12T10:33:26Z</time>
      </trkpt>
      <trkpt lat="47.71566" lon="3.48272">
        <ele>177.1</ele>
        <time>2022-01-12T10:33:27Z</time>
      </trkpt>
      <trkpt lat="47.71567" lon="3.48272">
        <ele>177.1</ele>
        <time>2022-01-12T10:33:28Z</time>
      </trkpt>
      <trkpt lat="47.71569" lon="3.48272">
        <ele>177.1</ele>
        <time>2022-01-12T10:33:30Z</time>
      </trkpt>
      <trkpt lat="47.7157" lon="3.48272">
        <ele>177.1</ele>
        <time>2022-01-12T10:33:31Z</time>
      </trkpt>
      <trkpt lat="47.71572" lon="3.48271">
        <ele>177</ele>
        <time>2022-01-12T10:33:32Z</time>
      </trkpt>
      <trkpt lat="47.71572" lon="3.48271">
        <ele>177</ele>
        <time>2022-01-12T10:33:33Z</time>
      </trkpt>
      <trkpt lat="47.71574" lon="3.48269">
        <ele>177</ele>
        <time>2022-01-12T10:33:34Z</time>
      </trkpt>
      <trkpt lat="47.71575" lon="3.48269">
        <ele>177</ele>
        <time>2022-01-12T10:33:36Z</time>
      </trkpt>
      <trkpt lat="47.71576" lon="3.48268">
        <ele>177</ele>
        <time>2022-01-12T10:33:37Z</time>
      </trkpt>
      <trkpt lat="47.71577" lon="3.48268">
        <ele>176.9</ele>
        <time>2022-01-12T10:33:38Z</time>
      </trkpt>
      <trkpt lat="47.71579" lon="3.48269">
        <ele>176.9</ele>
        <time>2022-01-12T10:33:39Z</time>
      </trkpt>
      <trkpt lat="47.71581" lon="3.48269">
        <ele>176.9</ele>
        <time>2022-01-12T10:33:40Z</time>
      </trkpt>
      <trkpt lat="47.71582" lon="3.48269">
        <ele>176.9</ele>
        <time>2022-01-12T10:33:41Z</time>
      </trkpt>
      <trkpt lat="47.71584" lon="3.48269">
        <ele>176.8</ele>
        <time>2022-01-12T10:33:42Z</time>
      </trkpt>
      <trkpt lat="47.71585" lon="3.4827">
        <ele>176.8</ele>
        <time>2022-01-12T10:33:43Z</time>
      </trkpt>
      <trkpt lat="47.71587" lon="3.48268">
        <ele>176.8</ele>
        <time>2022-01-12T10:33:44Z</time>
      </trkpt>
      <trkpt lat="47.71587" lon="3.48268">
        <ele>176.8</ele>
        <time>2022-01-12T10:33:45Z</time>
      </trkpt>
      <trkpt lat="47.71588" lon="3.48267">
        <ele>176.8</ele>
        <time>2022-01-12T10:33:47Z</time>
      </trkpt>
      <trkpt lat="47.71588" lon="3.48267">
        <ele>176.8</ele>
        <time>2022-01-12T10:33:48Z</time>
      </trkpt>
      <trkpt lat="47.7159" lon="3.48267">
        <ele>176.7</ele>
        <time>2022-01-12T10:33:49Z</time>
      </trkpt>
      <trkpt lat="47.71593" lon="3.48266">
        <ele>176.7</ele>
        <time>2022-01-12T10:33:51Z</time>
      </trkpt>
      <trkpt lat="47.71595" lon="3.48267">
        <ele>176.7</ele>
        <time>2022-01-12T10:33:52Z</time>
      </trkpt>
      <trkpt lat="47.71598" lon="3.48267">
        <ele>176.6</ele>
        <time>2022-01-12T10:33:54Z</time>
      </trkpt>
      <trkpt lat="47.71599" lon="3.48267">
        <ele>176.6</ele>
        <time>2022-01-12T10:33:55Z</time>
      </trkpt>
      <trkpt lat="47.71601" lon="3.48267">
        <ele>176.6</ele>
        <time>2022-01-12T10:33:56Z</time>
      </trkpt>
      <trkpt lat="47.71601" lon="3.48266">
        <ele>176.6</ele>
        <time>2022-01-12T10:33:57Z</time>
      </trkpt>
      <trkpt lat="47.71602" lon="3.48265">
        <ele>176.6</ele>
        <time>2022-01-12T10:33:58Z</time>
      </trkpt>
      <trkpt lat="47.71603" lon="3.48262">
        <ele>176.6</ele>
        <time>2022-01-12T10:34:00Z</time>
      </trkpt>
      <trkpt lat="47.71605" lon="3.48261">
        <ele>176.5</ele>
        <time>2022-01-12T10:34:01Z</time>
      </trkpt>
      <trkpt lat="47.71606" lon="3.48261">
        <ele>176.5</ele>
        <time>2022-01-12T10:34:02Z</time>
      </trkpt>
      <trkpt lat="47.71608" lon="3.48262">
        <ele>176.5</ele>
        <time>2022-01-12T10:34:04Z</time>
      </trkpt>
      <trkpt lat="47.71609" lon="3.48262">
        <ele>176.5</ele>
        <time>2022-01-12T10:34:05Z</time>
      </trkpt>
      <trkpt lat="47.71611" lon="3.48263">
        <ele>176.5</ele>
        <time>2022-01-12T10:34:06Z</time>
      </trkpt>
      <trkpt lat="47.71612" lon="3.48263">
        <ele>176.5</ele>
        <time>2022-01-12T10:34:07Z</time>
      </trkpt>
      <trkpt lat="47.71614" lon="3.48263">
        <ele>176.5</ele>
        <time>2022-01-12T10:34:08Z</time>
      </trkpt>
      <trkpt lat="47.71616" lon="3.48264">
        <ele>176.5</ele>
        <time>2022-01-12T10:34:09Z</time>
      </trkpt>
      <trkpt lat="47.71617" lon="3.48264">
        <ele>176.5</ele>
        <time>2022-01-12T10:34:10Z</time>
      </trkpt>
      <trkpt lat="47.71619" lon="3.48265">
        <ele>176.5</ele>
        <time>2022-01-12T10:34:11Z</time>
      </trkpt>
      <trkpt lat="47.7162" lon="3.48266">
        <ele>176.5</ele>
        <time>2022-01-12T10:34:12Z</time>
      </trkpt>
      <trkpt lat="47.71622" lon="3.48267">
        <ele>176.5</ele>
        <time>2022-01-12T10:34:13Z</time>
      </trkpt>
      <trkpt lat="47.71623" lon="3.48267">
        <ele>176.5</ele>
        <time>2022-01-12T10:34:14Z</time>
      </trkpt>
      <trkpt lat="47.71626" lon="3.48267">
        <ele>176.5</ele>
        <time>2022-01-12T10:34:16Z</time>
      </trkpt>
      <trkpt lat="47.71627" lon="3.48267">
        <ele>176.5</ele>
        <time>2022-01-12T10:34:17Z</time>
      </trkpt>
      <trkpt lat="47.71629" lon="3.48266">
        <ele>176.5</ele>
        <time>2022-01-12T10:34:18Z</time>
      </trkpt>
      <trkpt lat="47.7163" lon="3.48265">
        <ele>176.5</ele>
        <time>2022-01-12T10:34:19Z</time>
      </trkpt>
      <trkpt lat="47.71632" lon="3.48265">
        <ele>176.5</ele>
        <time>2022-01-12T10:34:20Z</time>
      </trkpt>
      <trkpt lat="47.71633" lon="3.48265">
        <ele>176.5</ele>
        <time>2022-01-12T10:34:21Z</time>
      </trkpt>
      <trkpt lat="47.71634" lon="3.48266">
        <ele>176.5</ele>
        <time>2022-01-12T10:34:22Z</time>
      </trkpt>
      <trkpt lat="47.71635" lon="3.48265">
        <ele>176.5</ele>
        <time>2022-01-12T10:34:23Z</time>
      </trkpt>
      <trkpt lat="47.71635" lon="3.48265">
        <ele>176.5</ele>
        <time>2022-01-12T10:34:24Z</time>
      </trkpt>
      <trkpt lat="47.71637" lon="3.48262">
        <ele>176.5</ele>
        <time>2022-01-12T10:34:26Z</time>
      </trkpt>
      <trkpt lat="47.71638" lon="3.48261">
        <ele>176.5</ele>
        <time>2022-01-12T10:34:27Z</time>
      </trkpt>
      <trkpt lat="47.7164" lon="3.48259">
        <ele>176.5</ele>
        <time>2022-01-12T10:34:29Z</time>
      </trkpt>
      <trkpt lat="47.71641" lon="3.48258">
        <ele>176.5</ele>
        <time>2022-01-12T10:34:30Z</time>
      </trkpt>
      <trkpt lat="47.71642" lon="3.48257">
        <ele>176.5</ele>
        <time>2022-01-12T10:34:31Z</time>
      </trkpt>
      <trkpt lat="47.71643" lon="3.48256">
        <ele>176.5</ele>
        <time>2022-01-12T10:34:32Z</time>
      </trkpt>
      <trkpt lat="47.71643" lon="3.48254">
        <ele>176.5</ele>
        <time>2022-01-12T10:34:33Z</time>
      </trkpt>
      <trkpt lat="47.71643" lon="3.48253">
        <ele>176.5</ele>
        <time>2022-01-12T10:34:34Z</time>
      </trkpt>
      <trkpt lat="47.71644" lon="3.48252">
        <ele>176.5</ele>
        <time>2022-01-12T10:34:35Z</time>
      </trkpt>
      <trkpt lat="47.71646" lon="3.48253">
        <ele>176.5</ele>
        <time>2022-01-12T10:34:37Z</time>
      </trkpt>
      <trkpt lat="47.71647" lon="3.48254">
        <ele>176.5</ele>
        <time>2022-01-12T10:34:38Z</time>
      </trkpt>
      <trkpt lat="47.71648" lon="3.48254">
        <ele>176.5</ele>
        <time>2022-01-12T10:34:39Z</time>
      </trkpt>
      <trkpt lat="47.71649" lon="3.48255">
        <ele>176.5</ele>
        <time>2022-01-12T10:34:40Z</time>
      </trkpt>
      <trkpt lat="47.71651" lon="3.48256">
        <ele>176.5</ele>
        <time>2022-01-12T10:34:41Z</time>
      </trkpt>
      <trkpt lat="47.71653" lon="3.48257">
        <ele>176.5</ele>
        <time>2022-01-12T10:34:42Z</time>
      </trkpt>
      <trkpt lat="47.71654" lon="3.48257">
        <ele>176.5</ele>
        <time>2022-01-12T10:34:43Z</time>
      </trkpt>
      <trkpt lat="47.71655" lon="3.48257">
        <ele>176.5</ele>
        <time>2022-01-12T10:34:44Z</time>
      </trkpt>
      <trkpt lat="47.71657" lon="3.48257">
        <ele>176.5</ele>
        <time>2022-01-12T10:34:45Z</time>
      </trkpt>
      <trkpt lat="47.71658" lon="3.48257">
        <ele>176.6</ele>
        <time>2022-01-12T10:34:46Z</time>
      </trkpt>
      <trkpt lat="47.71659" lon="3.48257">
        <ele>176.6</ele>
        <time>2022-01-12T10:34:47Z</time>
      </trkpt>
      <trkpt lat="47.7166" lon="3.48258">
        <ele>176.6</ele>
        <time>2022-01-12T10:34:48Z</time>
      </trkpt>
      <trkpt lat="47.71661" lon="3.48258">
        <ele>176.6</ele>
        <time>2022-01-12T10:34:49Z</time>
      </trkpt>
      <trkpt lat="47.71662" lon="3.48258">
        <ele>176.6</ele>
        <time>2022-01-12T10:34:50Z</time>
      </trkpt>
      <trkpt lat="47.71665" lon="3.48258">
        <ele>176.6</ele>
        <time>2022-01-12T10:34:52Z</time>
      </trkpt>
      <trkpt lat="47.71666" lon="3.48258">
        <ele>176.6</ele>
        <time>2022-01-12T10:34:53Z</time>
      </trkpt>
      <trkpt lat="47.71668" lon="3.48257">
        <ele>176.6</ele>
        <time>2022-01-12T10:34:54Z</time>
      </trkpt>
      <trkpt lat="47.71669" lon="3.48257">
        <ele>176.6</ele>
        <time>2022-01-12T10:34:55Z</time>
      </trkpt>
      <trkpt lat="47.7167" lon="3.48257">
        <ele>176.6</ele>
        <time>2022-01-12T10:34:56Z</time>
      </trkpt>
      <trkpt lat="47.71672" lon="3.48256">
        <ele>176.6</ele>
        <time>2022-01-12T10:34:57Z</time>
      </trkpt>
      <trkpt lat="47.71673" lon="3.48256">
        <ele>176.6</ele>
        <time>2022-01-12T10:34:58Z</time>
      </trkpt>
      <trkpt lat="47.71674" lon="3.48256">
        <ele>176.6</ele>
        <time>2022-01-12T10:34:59Z</time>
      </trkpt>
      <trkpt lat="47.71675" lon="3.48254">
        <ele>176.7</ele>
        <time>2022-01-12T10:35:00Z</time>
      </trkpt>
      <trkpt lat="47.71676" lon="3.48253">
        <ele>176.7</ele>
        <time>2022-01-12T10:35:01Z</time>
      </trkpt>
      <trkpt lat="47.71677" lon="3.48253">
        <ele>176.7</ele>
        <time>2022-01-12T10:35:02Z</time>
      </trkpt>
      <trkpt lat="47.71677" lon="3.48251">
        <ele>176.7</ele>
        <time>2022-01-12T10:35:03Z</time>
      </trkpt>
      <trkpt lat="47.71678" lon="3.48251">
        <ele>176.7</ele>
        <time>2022-01-12T10:35:05Z</time>
      </trkpt>
      <trkpt lat="47.71679" lon="3.4825">
        <ele>176.7</ele>
        <time>2022-01-12T10:35:06Z</time>
      </trkpt>
      <trkpt lat="47.7168" lon="3.4825">
        <ele>176.7</ele>
        <time>2022-01-12T10:35:07Z</time>
      </trkpt>
      <trkpt lat="47.71681" lon="3.48249">
        <ele>176.7</ele>
        <time>2022-01-12T10:35:08Z</time>
      </trkpt>
      <trkpt lat="47.71683" lon="3.48249">
        <ele>176.7</ele>
        <time>2022-01-12T10:35:09Z</time>
      </trkpt>
      <trkpt lat="47.71686" lon="3.48247">
        <ele>176.8</ele>
        <time>2022-01-12T10:35:11Z</time>
      </trkpt>
      <trkpt lat="47.71688" lon="3.48245">
        <ele>176.8</ele>
        <time>2022-01-12T10:35:13Z</time>
      </trkpt>
      <trkpt lat="47.71689" lon="3.48245">
        <ele>176.8</ele>
        <time>2022-01-12T10:35:14Z</time>
      </trkpt>
      <trkpt lat="47.7169" lon="3.48244">
        <ele>176.8</ele>
        <time>2022-01-12T10:35:15Z</time>
      </trkpt>
      <trkpt lat="47.71693" lon="3.48244">
        <ele>176.9</ele>
        <time>2022-01-12T10:35:17Z</time>
      </trkpt>
      <trkpt lat="47.71695" lon="3.48244">
        <ele>176.9</ele>
        <time>2022-01-12T10:35:18Z</time>
      </trkpt>
      <trkpt lat="47.71696" lon="3.48245">
        <ele>176.9</ele>
        <time>2022-01-12T10:35:19Z</time>
      </trkpt>
      <trkpt lat="47.71698" lon="3.48245">
        <ele>176.9</ele>
        <time>2022-01-12T10:35:20Z</time>
      </trkpt>
      <trkpt lat="47.71699" lon="3.48245">
        <ele>176.9</ele>
        <time>2022-01-12T10:35:21Z</time>
      </trkpt>
      <trkpt lat="47.71701" lon="3.48245">
        <ele>177</ele>
        <time>2022-01-12T10:35:22Z</time>
      </trkpt>
      <trkpt lat="47.71703" lon="3.48245">
        <ele>177</ele>
        <time>2022-01-12T10:35:24Z</time>
      </trkpt>
      <trkpt lat="47.71704" lon="3.48244">
        <ele>177</ele>
        <time>2022-01-12T10:35:25Z</time>
      </trkpt>
      <trkpt lat="47.71704" lon="3.48243">
        <ele>177</ele>
        <time>2022-01-12T10:35:26Z</time>
      </trkpt>
      <trkpt lat="47.71705" lon="3.48242">
        <ele>177</ele>
        <time>2022-01-12T10:35:27Z</time>
      </trkpt>
      <trkpt lat="47.71706" lon="3.4824">
        <ele>177.1</ele>
        <time>2022-01-12T10:35:28Z</time>
      </trkpt>
      <trkpt lat="47.71707" lon="3.48239">
        <ele>177.1</ele>
        <time>2022-01-12T10:35:29Z</time>
      </trkpt>
      <trkpt lat="47.71708" lon="3.48238">
        <ele>177.1</ele>
        <time>2022-01-12T10:35:30Z</time>
      </trkpt>
      <trkpt lat="47.71709" lon="3.48237">
        <ele>177.1</ele>
        <time>2022-01-12T10:35:31Z</time>
      </trkpt>
      <trkpt lat="47.71711" lon="3.48236">
        <ele>177.1</ele>
        <time>2022-01-12T10:35:32Z</time>
      </trkpt>
      <trkpt lat="47.71714" lon="3.48235">
        <ele>177.1</ele>
        <time>2022-01-12T10:35:34Z</time>
      </trkpt>
      <trkpt lat="47.71714" lon="3.48234">
        <ele>177.2</ele>
        <time>2022-01-12T10:35:35Z</time>
      </trkpt>
      <trkpt lat="47.71716" lon="3.48232">
        <ele>177.2</ele>
        <time>2022-01-12T10:35:36Z</time>
      </trkpt>
      <trkpt lat="47.71718" lon="3.48232">
        <ele>177.2</ele>
        <time>2022-01-12T10:35:37Z</time>
      </trkpt>
      <trkpt lat="47.7172" lon="3.48231">
        <ele>177.2</ele>
        <time>2022-01-12T10:35:38Z</time>
      </trkpt>
      <trkpt lat="47.71721" lon="3.48231">
        <ele>177.2</ele>
        <time>2022-01-12T10:35:39Z</time>
      </trkpt>
      <trkpt lat="47.71722" lon="3.4823">
        <ele>177.2</ele>
        <time>2022-01-12T10:35:40Z</time>
      </trkpt>
      <trkpt lat="47.71723" lon="3.4823">
        <ele>177.2</ele>
        <time>2022-01-12T10:35:41Z</time>
      </trkpt>
      <trkpt lat="47.71724" lon="3.4823">
        <ele>177.2</ele>
        <time>2022-01-12T10:35:42Z</time>
      </trkpt>
      <trkpt lat="47.71724" lon="3.48229">
        <ele>177.2</ele>
        <time>2022-01-12T10:35:43Z</time>
      </trkpt>
      <trkpt lat="47.71725" lon="3.48229">
        <ele>177.2</ele>
        <time>2022-01-12T10:35:44Z</time>
      </trkpt>
      <trkpt lat="47.71726" lon="3.48228">
        <ele>177.2</ele>
        <time>2022-01-12T10:35:46Z</time>
      </trkpt>
      <trkpt lat="47.71727" lon="3.48228">
        <ele>177.2</ele>
        <time>2022-01-12T10:35:47Z</time>
      </trkpt>
      <trkpt lat="47.71729" lon="3.48229">
        <ele>177.2</ele>
        <time>2022-01-12T10:35:48Z</time>
      </trkpt>
      <trkpt lat="47.7173" lon="3.48229">
        <ele>177.2</ele>
        <time>2022-01-12T10:35:49Z</time>
      </trkpt>
      <trkpt lat="47.71731" lon="3.4823">
        <ele>177.2</ele>
        <time>2022-01-12T10:35:50Z</time>
      </trkpt>
      <trkpt lat="47.71733" lon="3.48232">
        <ele>177.2</ele>
        <time>2022-01-12T10:35:51Z</time>
      </trkpt>
      <trkpt lat="47.71734" lon="3.48233">
        <ele>177.2</ele>
        <time>2022-01-12T10:35:52Z</time>
      </trkpt>
      <trkpt lat="47.71736" lon="3.48233">
        <ele>177.2</ele>
        <time>2022-01-12T10:35:54Z</time>
      </trkpt>
      <trkpt lat="47.71737" lon="3.48232">
        <ele>177.2</ele>
        <time>2022-01-12T10:35:55Z</time>
      </trkpt>
      <trkpt lat="47.71738" lon="3.48231">
        <ele>177.2</ele>
        <time>2022-01-12T10:35:56Z</time>
      </trkpt>
      <trkpt lat="47.71738" lon="3.48231">
        <ele>177.2</ele>
        <time>2022-01-12T10:35:57Z</time>
      </trkpt>
      <trkpt lat="47.71739" lon="3.48231">
        <ele>177.2</ele>
        <time>2022-01-12T10:35:58Z</time>
      </trkpt>
      <trkpt lat="47.7174" lon="3.4823">
        <ele>177.2</ele>
        <time>2022-01-12T10:35:59Z</time>
      </trkpt>
      <trkpt lat="47.71742" lon="3.48228">
        <ele>177.2</ele>
        <time>2022-01-12T10:36:00Z</time>
      </trkpt>
      <trkpt lat="47.71743" lon="3.48228">
        <ele>177.2</ele>
        <time>2022-01-12T10:36:01Z</time>
      </trkpt>
      <trkpt lat="47.71744" lon="3.48227">
        <ele>177.2</ele>
        <time>2022-01-12T10:36:02Z</time>
      </trkpt>
      <trkpt lat="47.71745" lon="3.48227">
        <ele>177.2</ele>
        <time>2022-01-12T10:36:03Z</time>
      </trkpt>
      <trkpt lat="47.71747" lon="3.48227">
        <ele>177.2</ele>
        <time>2022-01-12T10:36:04Z</time>
      </trkpt>
      <trkpt lat="47.71748" lon="3.48227">
        <ele>177.2</ele>
        <time>2022-01-12T10:36:05Z</time>
      </trkpt>
      <trkpt lat="47.71748" lon="3.48227">
        <ele>177.2</ele>
        <time>2022-01-12T10:36:06Z</time>
      </trkpt>
      <trkpt lat="47.7175" lon="3.48226">
        <ele>177.1</ele>
        <time>2022-01-12T10:36:08Z</time>
      </trkpt>
      <trkpt lat="47.71752" lon="3.48225">
        <ele>177.1</ele>
        <time>2022-01-12T10:36:09Z</time>
      </trkpt>
      <trkpt lat="47.71753" lon="3.48224">
        <ele>177.1</ele>
        <time>2022-01-12T10:36:10Z</time>
      </trkpt>
      <trkpt lat="47.71755" lon="3.48224">
        <ele>177.1</ele>
        <time>2022-01-12T10:36:11Z</time>
      </trkpt>
      <trkpt lat="47.71756" lon="3.48223">
        <ele>177.1</ele>
        <time>2022-01-12T10:36:12Z</time>
      </trkpt>
      <trkpt lat="47.71758" lon="3.48223">
        <ele>177.1</ele>
        <time>2022-01-12T10:36:13Z</time>
      </trkpt>
      <trkpt lat="47.71759" lon="3.48222">
        <ele>177</ele>
        <time>2022-01-12T10:36:14Z</time>
      </trkpt>
      <trkpt lat="47.71761" lon="3.48218">
        <ele>177</ele>
        <time>2022-01-12T10:36:16Z</time>
      </trkpt>
      <trkpt lat="47.71762" lon="3.48216">
        <ele>177</ele>
        <time>2022-01-12T10:36:17Z</time>
      </trkpt>
      <trkpt lat="47.71762" lon="3.48214">
        <ele>177</ele>
        <time>2022-01-12T10:36:18Z</time>
      </trkpt>
      <trkpt lat="47.71763" lon="3.48212">
        <ele>176.9</ele>
        <time>2022-01-12T10:36:19Z</time>
      </trkpt>
      <trkpt lat="47.71764" lon="3.48211">
        <ele>176.9</ele>
        <time>2022-01-12T10:36:20Z</time>
      </trkpt>
      <trkpt lat="47.71765" lon="3.48209">
        <ele>176.9</ele>
        <time>2022-01-12T10:36:21Z</time>
      </trkpt>
      <trkpt lat="47.71768" lon="3.48209">
        <ele>176.9</ele>
        <time>2022-01-12T10:36:23Z</time>
      </trkpt>
      <trkpt lat="47.71769" lon="3.48209">
        <ele>176.8</ele>
        <time>2022-01-12T10:36:24Z</time>
      </trkpt>
      <trkpt lat="47.71771" lon="3.4821">
        <ele>176.8</ele>
        <time>2022-01-12T10:36:25Z</time>
      </trkpt>
      <trkpt lat="47.71773" lon="3.4821">
        <ele>176.8</ele>
        <time>2022-01-12T10:36:26Z</time>
      </trkpt>
      <trkpt lat="47.71774" lon="3.48211">
        <ele>176.8</ele>
        <time>2022-01-12T10:36:27Z</time>
      </trkpt>
      <trkpt lat="47.71775" lon="3.48211">
        <ele>176.7</ele>
        <time>2022-01-12T10:36:28Z</time>
      </trkpt>
      <trkpt lat="47.71776" lon="3.48211">
        <ele>176.7</ele>
        <time>2022-01-12T10:36:29Z</time>
      </trkpt>
      <trkpt lat="47.71778" lon="3.48212">
        <ele>176.7</ele>
        <time>2022-01-12T10:36:31Z</time>
      </trkpt>
      <trkpt lat="47.7178" lon="3.48213">
        <ele>176.6</ele>
        <time>2022-01-12T10:36:32Z</time>
      </trkpt>
      <trkpt lat="47.71783" lon="3.48214">
        <ele>176.6</ele>
        <time>2022-01-12T10:36:33Z</time>
      </trkpt>
      <trkpt lat="47.71784" lon="3.48215">
        <ele>176.6</ele>
        <time>2022-01-12T10:36:34Z</time>
      </trkpt>
      <trkpt lat="47.71786" lon="3.48216">
        <ele>176.5</ele>
        <time>2022-01-12T10:36:35Z</time>
      </trkpt>
      <trkpt lat="47.71787" lon="3.48217">
        <ele>176.5</ele>
        <time>2022-01-12T10:36:37Z</time>
      </trkpt>
      <trkpt lat="47.71789" lon="3.48219">
        <ele>176.4</ele>
        <time>2022-01-12T10:36:38Z</time>
      </trkpt>
      <trkpt lat="47.7179" lon="3.48219">
        <ele>176.4</ele>
        <time>2022-01-12T10:36:39Z</time>
      </trkpt>
      <trkpt lat="47.71791" lon="3.48218">
        <ele>176.4</ele>
        <time>2022-01-12T10:36:40Z</time>
      </trkpt>
      <trkpt lat="47.71791" lon="3.48217">
        <ele>176.4</ele>
        <time>2022-01-12T10:36:41Z</time>
      </trkpt>
      <trkpt lat="47.71792" lon="3.48216">
        <ele>176.3</ele>
        <time>2022-01-12T10:36:42Z</time>
      </trkpt>
      <trkpt lat="47.71795" lon="3.48215">
        <ele>176.3</ele>
        <time>2022-01-12T10:36:44Z</time>
      </trkpt>
      <trkpt lat="47.71797" lon="3.48213">
        <ele>176.2</ele>
        <time>2022-01-12T10:36:45Z</time>
      </trkpt>
      <trkpt lat="47.71799" lon="3.48211">
        <ele>176.2</ele>
        <time>2022-01-12T10:36:47Z</time>
      </trkpt>
      <trkpt lat="47.71801" lon="3.4821">
        <ele>176.1</ele>
        <time>2022-01-12T10:36:48Z</time>
      </trkpt>
      <trkpt lat="47.71803" lon="3.48209">
        <ele>176.1</ele>
        <time>2022-01-12T10:36:50Z</time>
      </trkpt>
      <trkpt lat="47.71805" lon="3.48208">
        <ele>176</ele>
        <time>2022-01-12T10:36:51Z</time>
      </trkpt>
      <trkpt lat="47.71807" lon="3.48207">
        <ele>176</ele>
        <time>2022-01-12T10:36:53Z</time>
      </trkpt>
      <trkpt lat="47.71808" lon="3.48205">
        <ele>175.9</ele>
        <time>2022-01-12T10:36:54Z</time>
      </trkpt>
      <trkpt lat="47.71808" lon="3.48203">
        <ele>175.9</ele>
        <time>2022-01-12T10:36:55Z</time>
      </trkpt>
      <trkpt lat="47.71809" lon="3.48201">
        <ele>175.9</ele>
        <time>2022-01-12T10:36:56Z</time>
      </trkpt>
      <trkpt lat="47.7181" lon="3.48199">
        <ele>175.8</ele>
        <time>2022-01-12T10:36:57Z</time>
      </trkpt>
      <trkpt lat="47.71812" lon="3.48198">
        <ele>175.8</ele>
        <time>2022-01-12T10:36:58Z</time>
      </trkpt>
      <trkpt lat="47.71813" lon="3.48198">
        <ele>175.8</ele>
        <time>2022-01-12T10:36:59Z</time>
      </trkpt>
      <trkpt lat="47.71814" lon="3.48197">
        <ele>175.7</ele>
        <time>2022-01-12T10:37:00Z</time>
      </trkpt>
      <trkpt lat="47.71815" lon="3.48197">
        <ele>175.7</ele>
        <time>2022-01-12T10:37:01Z</time>
      </trkpt>
      <trkpt lat="47.71817" lon="3.48197">
        <ele>175.7</ele>
        <time>2022-01-12T10:37:02Z</time>
      </trkpt>
      <trkpt lat="47.71818" lon="3.48197">
        <ele>175.6</ele>
        <time>2022-01-12T10:37:03Z</time>
      </trkpt>
      <trkpt lat="47.71819" lon="3.48196">
        <ele>175.6</ele>
        <time>2022-01-12T10:37:05Z</time>
      </trkpt>
      <trkpt lat="47.71821" lon="3.48196">
        <ele>175.6</ele>
        <time>2022-01-12T10:37:06Z</time>
      </trkpt>
      <trkpt lat="47.71822" lon="3.48195">
        <ele>175.5</ele>
        <time>2022-01-12T10:37:07Z</time>
      </trkpt>
      <trkpt lat="47.71823" lon="3.48195">
        <ele>175.5</ele>
        <time>2022-01-12T10:37:08Z</time>
      </trkpt>
      <trkpt lat="47.71825" lon="3.48195">
        <ele>175.5</ele>
        <time>2022-01-12T10:37:09Z</time>
      </trkpt>
      <trkpt lat="47.71828" lon="3.48195">
        <ele>175.4</ele>
        <time>2022-01-12T10:37:11Z</time>
      </trkpt>
      <trkpt lat="47.71829" lon="3.48195">
        <ele>175.4</ele>
        <time>2022-01-12T10:37:12Z</time>
      </trkpt>
      <trkpt lat="47.7183" lon="3.48195">
        <ele>175.3</ele>
        <time>2022-01-12T10:37:13Z</time>
      </trkpt>
      <trkpt lat="47.71832" lon="3.48196">
        <ele>175.3</ele>
        <time>2022-01-12T10:37:14Z</time>
      </trkpt>
      <trkpt lat="47.71834" lon="3.48197">
        <ele>175.2</ele>
        <time>2022-01-12T10:37:16Z</time>
      </trkpt>
      <trkpt lat="47.71836" lon="3.48197">
        <ele>175.2</ele>
        <time>2022-01-12T10:37:17Z</time>
      </trkpt>
      <trkpt lat="47.71837" lon="3.48196">
        <ele>175.2</ele>
        <time>2022-01-12T10:37:18Z</time>
      </trkpt>
      <trkpt lat="47.71839" lon="3.48196">
        <ele>175.2</ele>
        <time>2022-01-12T10:37:19Z</time>
      </trkpt>
      <trkpt lat="47.71839" lon="3.48196">
        <ele>175.1</ele>
        <time>2022-01-12T10:37:20Z</time>
      </trkpt>
      <trkpt lat="47.71842" lon="3.48195">
        <ele>175.1</ele>
        <time>2022-01-12T10:37:22Z</time>
      </trkpt>
      <trkpt lat="47.71843" lon="3.48195">
        <ele>175.1</ele>
        <time>2022-01-12T10:37:23Z</time>
      </trkpt>
      <trkpt lat="47.71845" lon="3.48195">
        <ele>175.1</ele>
        <time>2022-01-12T10:37:24Z</time>
      </trkpt>
      <trkpt lat="47.71846" lon="3.48196">
        <ele>174.9</ele>
        <time>2022-01-12T10:37:25Z</time>
      </trkpt>
      <trkpt lat="47.71847" lon="3.48197">
        <ele>174.9</ele>
        <time>2022-01-12T10:37:26Z</time>
      </trkpt>
      <trkpt lat="47.71847" lon="3.482">
        <ele>174.7</ele>
        <time>2022-01-12T10:37:28Z</time>
      </trkpt>
      <trkpt lat="47.71848" lon="3.48202">
        <ele>174.6</ele>
        <time>2022-01-12T10:37:29Z</time>
      </trkpt>
      <trkpt lat="47.71849" lon="3.48203">
        <ele>174.4</ele>
        <time>2022-01-12T10:37:30Z</time>
      </trkpt>
      <trkpt lat="47.7185" lon="3.48205">
        <ele>174.4</ele>
        <time>2022-01-12T10:37:31Z</time>
      </trkpt>
      <trkpt lat="47.71849" lon="3.48208">
        <ele>174.3</ele>
        <time>2022-01-12T10:37:32Z</time>
      </trkpt>
      <trkpt lat="47.71851" lon="3.4821">
        <ele>174.3</ele>
        <time>2022-01-12T10:37:34Z</time>
      </trkpt>
      <trkpt lat="47.71851" lon="3.48211">
        <ele>174</ele>
        <time>2022-01-12T10:37:35Z</time>
      </trkpt>
      <trkpt lat="47.71852" lon="3.48212">
        <ele>174.1</ele>
        <time>2022-01-12T10:37:36Z</time>
      </trkpt>
      <trkpt lat="47.71853" lon="3.48214">
        <ele>174.1</ele>
        <time>2022-01-12T10:37:37Z</time>
      </trkpt>
      <trkpt lat="47.71853" lon="3.48216">
        <ele>174</ele>
        <time>2022-01-12T10:37:38Z</time>
      </trkpt>
      <trkpt lat="47.71854" lon="3.48218">
        <ele>173.8</ele>
        <time>2022-01-12T10:37:39Z</time>
      </trkpt>
      <trkpt lat="47.71855" lon="3.4822">
        <ele>173.6</ele>
        <time>2022-01-12T10:37:40Z</time>
      </trkpt>
      <trkpt lat="47.71856" lon="3.48222">
        <ele>173.7</ele>
        <time>2022-01-12T10:37:41Z</time>
      </trkpt>
      <trkpt lat="47.71855" lon="3.48223">
        <ele>173.7</ele>
        <time>2022-01-12T10:37:42Z</time>
      </trkpt>
      <trkpt lat="47.71855" lon="3.48224">
        <ele>173.5</ele>
        <time>2022-01-12T10:37:43Z</time>
      </trkpt>
      <trkpt lat="47.71855" lon="3.48225">
        <ele>173.5</ele>
        <time>2022-01-12T10:37:44Z</time>
      </trkpt>
      <trkpt lat="47.71855" lon="3.48228">
        <ele>173.4</ele>
        <time>2022-01-12T10:37:46Z</time>
      </trkpt>
      <trkpt lat="47.71855" lon="3.48229">
        <ele>173.4</ele>
        <time>2022-01-12T10:37:47Z</time>
      </trkpt>
      <trkpt lat="47.71856" lon="3.48231">
        <ele>173.4</ele>
        <time>2022-01-12T10:37:48Z</time>
      </trkpt>
      <trkpt lat="47.71856" lon="3.48232">
        <ele>173.2</ele>
        <time>2022-01-12T10:37:49Z</time>
      </trkpt>
      <trkpt lat="47.71857" lon="3.48235">
        <ele>173.2</ele>
        <time>2022-01-12T10:37:50Z</time>
      </trkpt>
      <trkpt lat="47.71857" lon="3.48237">
        <ele>172.7</ele>
        <time>2022-01-12T10:37:51Z</time>
      </trkpt>
      <trkpt lat="47.71858" lon="3.48238">
        <ele>172.8</ele>
        <time>2022-01-12T10:37:52Z</time>
      </trkpt>
      <trkpt lat="47.71859" lon="3.4824">
        <ele>172.8</ele>
        <time>2022-01-12T10:37:53Z</time>
      </trkpt>
      <trkpt lat="47.71861" lon="3.48241">
        <ele>172.6</ele>
        <time>2022-01-12T10:37:54Z</time>
      </trkpt>
      <trkpt lat="47.71862" lon="3.4824">
        <ele>172.6</ele>
        <time>2022-01-12T10:37:55Z</time>
      </trkpt>
      <trkpt lat="47.71862" lon="3.48241">
        <ele>172.3</ele>
        <time>2022-01-12T10:37:56Z</time>
      </trkpt>
      <trkpt lat="47.71862" lon="3.48241">
        <ele>172.3</ele>
        <time>2022-01-12T10:37:57Z</time>
      </trkpt>
      <trkpt lat="47.71862" lon="3.48242">
        <ele>172.4</ele>
        <time>2022-01-12T10:37:58Z</time>
      </trkpt>
      <trkpt lat="47.71862" lon="3.48243">
        <ele>172.4</ele>
        <time>2022-01-12T10:38:00Z</time>
      </trkpt>
      <trkpt lat="47.71863" lon="3.48244">
        <ele>172.2</ele>
        <time>2022-01-12T10:38:01Z</time>
      </trkpt>
      <trkpt lat="47.71865" lon="3.48247">
        <ele>171.9</ele>
        <time>2022-01-12T10:38:02Z</time>
      </trkpt>
      <trkpt lat="47.71866" lon="3.48248">
        <ele>171.7</ele>
        <time>2022-01-12T10:38:03Z</time>
      </trkpt>
      <trkpt lat="47.71867" lon="3.4825">
        <ele>171.5</ele>
        <time>2022-01-12T10:38:04Z</time>
      </trkpt>
      <trkpt lat="47.71868" lon="3.48252">
        <ele>171.5</ele>
        <time>2022-01-12T10:38:05Z</time>
      </trkpt>
      <trkpt lat="47.7187" lon="3.48256">
        <ele>171.1</ele>
        <time>2022-01-12T10:38:06Z</time>
      </trkpt>
      <trkpt lat="47.71871" lon="3.48258">
        <ele>171.1</ele>
        <time>2022-01-12T10:38:07Z</time>
      </trkpt>
      <trkpt lat="47.71872" lon="3.48261">
        <ele>170.8</ele>
        <time>2022-01-12T10:38:08Z</time>
      </trkpt>
      <trkpt lat="47.71874" lon="3.48264">
        <ele>170.5</ele>
        <time>2022-01-12T10:38:10Z</time>
      </trkpt>
      <trkpt lat="47.71876" lon="3.48267">
        <ele>170.2</ele>
        <time>2022-01-12T10:38:11Z</time>
      </trkpt>
      <trkpt lat="47.71878" lon="3.4827">
        <ele>170.1</ele>
        <time>2022-01-12T10:38:13Z</time>
      </trkpt>
      <trkpt lat="47.71879" lon="3.48274">
        <ele>170</ele>
        <time>2022-01-12T10:38:14Z</time>
      </trkpt>
      <trkpt lat="47.7188" lon="3.48276">
        <ele>169.8</ele>
        <time>2022-01-12T10:38:15Z</time>
      </trkpt>
      <trkpt lat="47.7188" lon="3.48278">
        <ele>169.8</ele>
        <time>2022-01-12T10:38:16Z</time>
      </trkpt>
      <trkpt lat="47.71881" lon="3.48279">
        <ele>169.8</ele>
        <time>2022-01-12T10:38:17Z</time>
      </trkpt>
      <trkpt lat="47.71882" lon="3.48281">
        <ele>169.7</ele>
        <time>2022-01-12T10:38:18Z</time>
      </trkpt>
      <trkpt lat="47.71882" lon="3.48283">
        <ele>169.7</ele>
        <time>2022-01-12T10:38:19Z</time>
      </trkpt>
      <trkpt lat="47.71883" lon="3.48285">
        <ele>169.6</ele>
        <time>2022-01-12T10:38:20Z</time>
      </trkpt>
      <trkpt lat="47.71884" lon="3.48287">
        <ele>169.6</ele>
        <time>2022-01-12T10:38:22Z</time>
      </trkpt>
      <trkpt lat="47.71886" lon="3.48288">
        <ele>169.6</ele>
        <time>2022-01-12T10:38:23Z</time>
      </trkpt>
      <trkpt lat="47.71887" lon="3.4829">
        <ele>169.5</ele>
        <time>2022-01-12T10:38:24Z</time>
      </trkpt>
      <trkpt lat="47.71888" lon="3.48292">
        <ele>169.6</ele>
        <time>2022-01-12T10:38:25Z</time>
      </trkpt>
      <trkpt lat="47.71889" lon="3.48293">
        <ele>169.5</ele>
        <time>2022-01-12T10:38:26Z</time>
      </trkpt>
      <trkpt lat="47.7189" lon="3.48294">
        <ele>169.5</ele>
        <time>2022-01-12T10:38:27Z</time>
      </trkpt>
      <trkpt lat="47.71891" lon="3.48295">
        <ele>169.5</ele>
        <time>2022-01-12T10:38:28Z</time>
      </trkpt>
      <trkpt lat="47.71892" lon="3.48296">
        <ele>169.5</ele>
        <time>2022-01-12T10:38:29Z</time>
      </trkpt>
      <trkpt lat="47.71892" lon="3.48297">
        <ele>169.5</ele>
        <time>2022-01-12T10:38:30Z</time>
      </trkpt>
      <trkpt lat="47.71893" lon="3.48299">
        <ele>169.5</ele>
        <time>2022-01-12T10:38:31Z</time>
      </trkpt>
      <trkpt lat="47.71894" lon="3.483">
        <ele>169.5</ele>
        <time>2022-01-12T10:38:32Z</time>
      </trkpt>
      <trkpt lat="47.71894" lon="3.48301">
        <ele>169.6</ele>
        <time>2022-01-12T10:38:33Z</time>
      </trkpt>
      <trkpt lat="47.71895" lon="3.48302">
        <ele>169.6</ele>
        <time>2022-01-12T10:38:34Z</time>
      </trkpt>
      <trkpt lat="47.71895" lon="3.48303">
        <ele>169.6</ele>
        <time>2022-01-12T10:38:35Z</time>
      </trkpt>
      <trkpt lat="47.71896" lon="3.48306">
        <ele>169.6</ele>
        <time>2022-01-12T10:38:36Z</time>
      </trkpt>
      <trkpt lat="47.71896" lon="3.48307">
        <ele>169.6</ele>
        <time>2022-01-12T10:38:38Z</time>
      </trkpt>
      <trkpt lat="47.71897" lon="3.48308">
        <ele>169.6</ele>
        <time>2022-01-12T10:38:39Z</time>
      </trkpt>
      <trkpt lat="47.71897" lon="3.4831">
        <ele>169.6</ele>
        <time>2022-01-12T10:38:40Z</time>
      </trkpt>
      <trkpt lat="47.71897" lon="3.48312">
        <ele>169.7</ele>
        <time>2022-01-12T10:38:41Z</time>
      </trkpt>
      <trkpt lat="47.71898" lon="3.48313">
        <ele>169.7</ele>
        <time>2022-01-12T10:38:42Z</time>
      </trkpt>
      <trkpt lat="47.71899" lon="3.48314">
        <ele>169.7</ele>
        <time>2022-01-12T10:38:43Z</time>
      </trkpt>
      <trkpt lat="47.719" lon="3.48316">
        <ele>169.7</ele>
        <time>2022-01-12T10:38:45Z</time>
      </trkpt>
      <trkpt lat="47.71901" lon="3.48319">
        <ele>169.7</ele>
        <time>2022-01-12T10:38:46Z</time>
      </trkpt>
      <trkpt lat="47.71902" lon="3.48319">
        <ele>169.7</ele>
        <time>2022-01-12T10:38:47Z</time>
      </trkpt>
      <trkpt lat="47.71903" lon="3.4832">
        <ele>169.7</ele>
        <time>2022-01-12T10:38:48Z</time>
      </trkpt>
      <trkpt lat="47.71904" lon="3.48321">
        <ele>169.7</ele>
        <time>2022-01-12T10:38:49Z</time>
      </trkpt>
      <trkpt lat="47.71905" lon="3.48322">
        <ele>169.8</ele>
        <time>2022-01-12T10:38:50Z</time>
      </trkpt>
      <trkpt lat="47.71907" lon="3.48325">
        <ele>169.8</ele>
        <time>2022-01-12T10:38:52Z</time>
      </trkpt>
      <trkpt lat="47.71907" lon="3.48326">
        <ele>169.8</ele>
        <time>2022-01-12T10:38:53Z</time>
      </trkpt>
      <trkpt lat="47.71908" lon="3.48327">
        <ele>169.8</ele>
        <time>2022-01-12T10:38:54Z</time>
      </trkpt>
      <trkpt lat="47.71908" lon="3.48329">
        <ele>169.8</ele>
        <time>2022-01-12T10:38:55Z</time>
      </trkpt>
      <trkpt lat="47.71909" lon="3.48331">
        <ele>169.8</ele>
        <time>2022-01-12T10:38:57Z</time>
      </trkpt>
      <trkpt lat="47.71911" lon="3.48333">
        <ele>169.9</ele>
        <time>2022-01-12T10:38:58Z</time>
      </trkpt>
      <trkpt lat="47.71911" lon="3.48334">
        <ele>169.9</ele>
        <time>2022-01-12T10:38:59Z</time>
      </trkpt>
      <trkpt lat="47.71912" lon="3.48335">
        <ele>169.9</ele>
        <time>2022-01-12T10:39:00Z</time>
      </trkpt>
      <trkpt lat="47.71912" lon="3.48337">
        <ele>169.9</ele>
        <time>2022-01-12T10:39:01Z</time>
      </trkpt>
      <trkpt lat="47.71913" lon="3.48338">
        <ele>169.9</ele>
        <time>2022-01-12T10:39:02Z</time>
      </trkpt>
      <trkpt lat="47.71914" lon="3.4834">
        <ele>170</ele>
        <time>2022-01-12T10:39:04Z</time>
      </trkpt>
      <trkpt lat="47.71915" lon="3.48342">
        <ele>170</ele>
        <time>2022-01-12T10:39:05Z</time>
      </trkpt>
      <trkpt lat="47.71916" lon="3.48343">
        <ele>170</ele>
        <time>2022-01-12T10:39:06Z</time>
      </trkpt>
      <trkpt lat="47.71917" lon="3.48345">
        <ele>170.1</ele>
        <time>2022-01-12T10:39:07Z</time>
      </trkpt>
      <trkpt lat="47.71918" lon="3.48346">
        <ele>170.1</ele>
        <time>2022-01-12T10:39:08Z</time>
      </trkpt>
      <trkpt lat="47.71919" lon="3.48348">
        <ele>170.1</ele>
        <time>2022-01-12T10:39:09Z</time>
      </trkpt>
      <trkpt lat="47.7192" lon="3.4835">
        <ele>170.2</ele>
        <time>2022-01-12T10:39:11Z</time>
      </trkpt>
      <trkpt lat="47.71921" lon="3.48352">
        <ele>170.2</ele>
        <time>2022-01-12T10:39:12Z</time>
      </trkpt>
      <trkpt lat="47.71922" lon="3.48354">
        <ele>170.3</ele>
        <time>2022-01-12T10:39:13Z</time>
      </trkpt>
      <trkpt lat="47.71923" lon="3.48356">
        <ele>170.3</ele>
        <time>2022-01-12T10:39:14Z</time>
      </trkpt>
      <trkpt lat="47.71924" lon="3.48358">
        <ele>170.4</ele>
        <time>2022-01-12T10:39:15Z</time>
      </trkpt>
      <trkpt lat="47.71924" lon="3.4836">
        <ele>170.4</ele>
        <time>2022-01-12T10:39:16Z</time>
      </trkpt>
      <trkpt lat="47.71925" lon="3.48361">
        <ele>170.5</ele>
        <time>2022-01-12T10:39:17Z</time>
      </trkpt>
      <trkpt lat="47.71926" lon="3.48363">
        <ele>170.5</ele>
        <time>2022-01-12T10:39:18Z</time>
      </trkpt>
      <trkpt lat="47.71927" lon="3.48364">
        <ele>170.6</ele>
        <time>2022-01-12T10:39:19Z</time>
      </trkpt>
      <trkpt lat="47.71927" lon="3.48366">
        <ele>170.7</ele>
        <time>2022-01-12T10:39:21Z</time>
      </trkpt>
      <trkpt lat="47.71928" lon="3.48369">
        <ele>170.7</ele>
        <time>2022-01-12T10:39:22Z</time>
      </trkpt>
      <trkpt lat="47.71929" lon="3.4837">
        <ele>170.9</ele>
        <time>2022-01-12T10:39:23Z</time>
      </trkpt>
      <trkpt lat="47.71929" lon="3.48371">
        <ele>170.9</ele>
        <time>2022-01-12T10:39:24Z</time>
      </trkpt>
      <trkpt lat="47.7193" lon="3.48373">
        <ele>170.9</ele>
        <time>2022-01-12T10:39:25Z</time>
      </trkpt>
      <trkpt lat="47.7193" lon="3.48375">
        <ele>171.1</ele>
        <time>2022-01-12T10:39:26Z</time>
      </trkpt>
      <trkpt lat="47.71931" lon="3.48376">
        <ele>171.1</ele>
        <time>2022-01-12T10:39:27Z</time>
      </trkpt>
      <trkpt lat="47.71932" lon="3.48378">
        <ele>171.1</ele>
        <time>2022-01-12T10:39:28Z</time>
      </trkpt>
      <trkpt lat="47.71933" lon="3.4838">
        <ele>171.3</ele>
        <time>2022-01-12T10:39:30Z</time>
      </trkpt>
      <trkpt lat="47.71934" lon="3.48382">
        <ele>171.4</ele>
        <time>2022-01-12T10:39:31Z</time>
      </trkpt>
      <trkpt lat="47.71935" lon="3.48383">
        <ele>171.5</ele>
        <time>2022-01-12T10:39:32Z</time>
      </trkpt>
      <trkpt lat="47.71935" lon="3.48384">
        <ele>171.6</ele>
        <time>2022-01-12T10:39:33Z</time>
      </trkpt>
      <trkpt lat="47.71936" lon="3.48386">
        <ele>171.6</ele>
        <time>2022-01-12T10:39:34Z</time>
      </trkpt>
      <trkpt lat="47.71937" lon="3.48387">
        <ele>171.8</ele>
        <time>2022-01-12T10:39:36Z</time>
      </trkpt>
      <trkpt lat="47.71937" lon="3.48388">
        <ele>171.8</ele>
        <time>2022-01-12T10:39:37Z</time>
      </trkpt>
      <trkpt lat="47.71938" lon="3.4839">
        <ele>171.9</ele>
        <time>2022-01-12T10:39:38Z</time>
      </trkpt>
      <trkpt lat="47.71939" lon="3.48391">
        <ele>171.9</ele>
        <time>2022-01-12T10:39:39Z</time>
      </trkpt>
      <trkpt lat="47.7194" lon="3.48392">
        <ele>172.1</ele>
        <time>2022-01-12T10:39:40Z</time>
      </trkpt>
      <trkpt lat="47.71941" lon="3.48393">
        <ele>172.1</ele>
        <time>2022-01-12T10:39:41Z</time>
      </trkpt>
      <trkpt lat="47.71941" lon="3.48393">
        <ele>172.2</ele>
        <time>2022-01-12T10:39:42Z</time>
      </trkpt>
      <trkpt lat="47.71942" lon="3.48394">
        <ele>172.2</ele>
        <time>2022-01-12T10:39:43Z</time>
      </trkpt>
      <trkpt lat="47.71944" lon="3.48396">
        <ele>172.5</ele>
        <time>2022-01-12T10:39:44Z</time>
      </trkpt>
      <trkpt lat="47.71945" lon="3.48396">
        <ele>172.5</ele>
        <time>2022-01-12T10:39:46Z</time>
      </trkpt>
      <trkpt lat="47.71946" lon="3.48397">
        <ele>172.5</ele>
        <time>2022-01-12T10:39:47Z</time>
      </trkpt>
      <trkpt lat="47.71946" lon="3.48398">
        <ele>172.5</ele>
        <time>2022-01-12T10:39:48Z</time>
      </trkpt>
      <trkpt lat="47.71947" lon="3.48399">
        <ele>172.6</ele>
        <time>2022-01-12T10:39:49Z</time>
      </trkpt>
      <trkpt lat="47.71948" lon="3.484">
        <ele>172.8</ele>
        <time>2022-01-12T10:39:50Z</time>
      </trkpt>
      <trkpt lat="47.71948" lon="3.48401">
        <ele>172.8</ele>
        <time>2022-01-12T10:39:51Z</time>
      </trkpt>
      <trkpt lat="47.71949" lon="3.48403">
        <ele>172.8</ele>
        <time>2022-01-12T10:39:52Z</time>
      </trkpt>
      <trkpt lat="47.71949" lon="3.48403">
        <ele>172.9</ele>
        <time>2022-01-12T10:39:53Z</time>
      </trkpt>
      <trkpt lat="47.7195" lon="3.48405">
        <ele>173.1</ele>
        <time>2022-01-12T10:39:55Z</time>
      </trkpt>
      <trkpt lat="47.71951" lon="3.48407">
        <ele>173.1</ele>
        <time>2022-01-12T10:39:56Z</time>
      </trkpt>
      <trkpt lat="47.71951" lon="3.48408">
        <ele>173.1</ele>
        <time>2022-01-12T10:39:57Z</time>
      </trkpt>
      <trkpt lat="47.71951" lon="3.48409">
        <ele>173.3</ele>
        <time>2022-01-12T10:39:58Z</time>
      </trkpt>
      <trkpt lat="47.71951" lon="3.4841">
        <ele>173.3</ele>
        <time>2022-01-12T10:39:59Z</time>
      </trkpt>
      <trkpt lat="47.71952" lon="3.48411">
        <ele>173.3</ele>
        <time>2022-01-12T10:40:00Z</time>
      </trkpt>
      <trkpt lat="47.71952" lon="3.48413">
        <ele>173.3</ele>
        <time>2022-01-12T10:40:01Z</time>
      </trkpt>
      <trkpt lat="47.71953" lon="3.48414">
        <ele>173.6</ele>
        <time>2022-01-12T10:40:03Z</time>
      </trkpt>
      <trkpt lat="47.71954" lon="3.48415">
        <ele>173.6</ele>
        <time>2022-01-12T10:40:04Z</time>
      </trkpt>
      <trkpt lat="47.71955" lon="3.48417">
        <ele>173.6</ele>
        <time>2022-01-12T10:40:05Z</time>
      </trkpt>
      <trkpt lat="47.71955" lon="3.48417">
        <ele>173.9</ele>
        <time>2022-01-12T10:40:06Z</time>
      </trkpt>
      <trkpt lat="47.71956" lon="3.48419">
        <ele>173.9</ele>
        <time>2022-01-12T10:40:07Z</time>
      </trkpt>
      <trkpt lat="47.71958" lon="3.4842">
        <ele>173.9</ele>
        <time>2022-01-12T10:40:08Z</time>
      </trkpt>
      <trkpt lat="47.71959" lon="3.48421">
        <ele>174</ele>
        <time>2022-01-12T10:40:10Z</time>
      </trkpt>
      <trkpt lat="47.71959" lon="3.48422">
        <ele>174.2</ele>
        <time>2022-01-12T10:40:11Z</time>
      </trkpt>
      <trkpt lat="47.7196" lon="3.48423">
        <ele>174.2</ele>
        <time>2022-01-12T10:40:12Z</time>
      </trkpt>
      <trkpt lat="47.71961" lon="3.48423">
        <ele>174.3</ele>
        <time>2022-01-12T10:40:13Z</time>
      </trkpt>
      <trkpt lat="47.71962" lon="3.48424">
        <ele>174.3</ele>
        <time>2022-01-12T10:40:14Z</time>
      </trkpt>
      <trkpt lat="47.71963" lon="3.48426">
        <ele>174.5</ele>
        <time>2022-01-12T10:40:16Z</time>
      </trkpt>
      <trkpt lat="47.71964" lon="3.48425">
        <ele>174.5</ele>
        <time>2022-01-12T10:40:17Z</time>
      </trkpt>
      <trkpt lat="47.71965" lon="3.48424">
        <ele>174.5</ele>
        <time>2022-01-12T10:40:19Z</time>
      </trkpt>
      <trkpt lat="47.71966" lon="3.48424">
        <ele>174.5</ele>
        <time>2022-01-12T10:40:20Z</time>
      </trkpt>
      <trkpt lat="47.71968" lon="3.48427">
        <ele>174.8</ele>
        <time>2022-01-12T10:40:21Z</time>
      </trkpt>
      <trkpt lat="47.71969" lon="3.48428">
        <ele>174.9</ele>
        <time>2022-01-12T10:40:22Z</time>
      </trkpt>
      <trkpt lat="47.7197" lon="3.4843">
        <ele>175.2</ele>
        <time>2022-01-12T10:40:23Z</time>
      </trkpt>
      <trkpt lat="47.7197" lon="3.48431">
        <ele>175.2</ele>
        <time>2022-01-12T10:40:24Z</time>
      </trkpt>
      <trkpt lat="47.71971" lon="3.48432">
        <ele>175.2</ele>
        <time>2022-01-12T10:40:25Z</time>
      </trkpt>
      <trkpt lat="47.71971" lon="3.48433">
        <ele>175.2</ele>
        <time>2022-01-12T10:40:27Z</time>
      </trkpt>
      <trkpt lat="47.71972" lon="3.48434">
        <ele>175.2</ele>
        <time>2022-01-12T10:40:28Z</time>
      </trkpt>
      <trkpt lat="47.71973" lon="3.48435">
        <ele>175.5</ele>
        <time>2022-01-12T10:40:29Z</time>
      </trkpt>
      <trkpt lat="47.71974" lon="3.48437">
        <ele>175.5</ele>
        <time>2022-01-12T10:40:30Z</time>
      </trkpt>
      <trkpt lat="47.71975" lon="3.48438">
        <ele>175.7</ele>
        <time>2022-01-12T10:40:31Z</time>
      </trkpt>
      <trkpt lat="47.71976" lon="3.48439">
        <ele>175.8</ele>
        <time>2022-01-12T10:40:33Z</time>
      </trkpt>
      <trkpt lat="47.71977" lon="3.4844">
        <ele>175.8</ele>
        <time>2022-01-12T10:40:34Z</time>
      </trkpt>
      <trkpt lat="47.71978" lon="3.48442">
        <ele>175.8</ele>
        <time>2022-01-12T10:40:35Z</time>
      </trkpt>
      <trkpt lat="47.71979" lon="3.48443">
        <ele>176</ele>
        <time>2022-01-12T10:40:36Z</time>
      </trkpt>
      <trkpt lat="47.71979" lon="3.48446">
        <ele>176</ele>
        <time>2022-01-12T10:40:38Z</time>
      </trkpt>
      <trkpt lat="47.7198" lon="3.48447">
        <ele>176</ele>
        <time>2022-01-12T10:40:39Z</time>
      </trkpt>
      <trkpt lat="47.71981" lon="3.48449">
        <ele>176</ele>
        <time>2022-01-12T10:40:40Z</time>
      </trkpt>
      <trkpt lat="47.71981" lon="3.48451">
        <ele>176.1</ele>
        <time>2022-01-12T10:40:41Z</time>
      </trkpt>
      <trkpt lat="47.71981" lon="3.48454">
        <ele>176.1</ele>
        <time>2022-01-12T10:40:42Z</time>
      </trkpt>
      <trkpt lat="47.71981" lon="3.48455">
        <ele>176</ele>
        <time>2022-01-12T10:40:43Z</time>
      </trkpt>
      <trkpt lat="47.7198" lon="3.48456">
        <ele>176</ele>
        <time>2022-01-12T10:40:44Z</time>
      </trkpt>
      <trkpt lat="47.7198" lon="3.48457">
        <ele>176</ele>
        <time>2022-01-12T10:40:45Z</time>
      </trkpt>
      <trkpt lat="47.71979" lon="3.48458">
        <ele>176</ele>
        <time>2022-01-12T10:40:46Z</time>
      </trkpt>
      <trkpt lat="47.71979" lon="3.48459">
        <ele>176</ele>
        <time>2022-01-12T10:40:47Z</time>
      </trkpt>
      <trkpt lat="47.71979" lon="3.48461">
        <ele>176</ele>
        <time>2022-01-12T10:40:48Z</time>
      </trkpt>
      <trkpt lat="47.71978" lon="3.48464">
        <ele>176.1</ele>
        <time>2022-01-12T10:40:50Z</time>
      </trkpt>
      <trkpt lat="47.71978" lon="3.48465">
        <ele>176.1</ele>
        <time>2022-01-12T10:40:51Z</time>
      </trkpt>
      <trkpt lat="47.71976" lon="3.48466">
        <ele>176.1</ele>
        <time>2022-01-12T10:40:52Z</time>
      </trkpt>
      <trkpt lat="47.71975" lon="3.48466">
        <ele>176.1</ele>
        <time>2022-01-12T10:40:53Z</time>
      </trkpt>
      <trkpt lat="47.71974" lon="3.48466">
        <ele>176.1</ele>
        <time>2022-01-12T10:40:54Z</time>
      </trkpt>
      <trkpt lat="47.71972" lon="3.48467">
        <ele>176.1</ele>
        <time>2022-01-12T10:40:56Z</time>
      </trkpt>
      <trkpt lat="47.71971" lon="3.48467">
        <ele>176.1</ele>
        <time>2022-01-12T10:40:57Z</time>
      </trkpt>
      <trkpt lat="47.71969" lon="3.48467">
        <ele>176.1</ele>
        <time>2022-01-12T10:40:58Z</time>
      </trkpt>
      <trkpt lat="47.71967" lon="3.48468">
        <ele>176.1</ele>
        <time>2022-01-12T10:40:59Z</time>
      </trkpt>
      <trkpt lat="47.71966" lon="3.48468">
        <ele>176.1</ele>
        <time>2022-01-12T10:41:00Z</time>
      </trkpt>
      <trkpt lat="47.71964" lon="3.48469">
        <ele>176.1</ele>
        <time>2022-01-12T10:41:01Z</time>
      </trkpt>
      <trkpt lat="47.71963" lon="3.4847">
        <ele>176.1</ele>
        <time>2022-01-12T10:41:02Z</time>
      </trkpt>
      <trkpt lat="47.71961" lon="3.48471">
        <ele>176.2</ele>
        <time>2022-01-12T10:41:04Z</time>
      </trkpt>
      <trkpt lat="47.7196" lon="3.48471">
        <ele>176.2</ele>
        <time>2022-01-12T10:41:05Z</time>
      </trkpt>
      <trkpt lat="47.71958" lon="3.48472">
        <ele>176.2</ele>
        <time>2022-01-12T10:41:06Z</time>
      </trkpt>
      <trkpt lat="47.71957" lon="3.48473">
        <ele>176.2</ele>
        <time>2022-01-12T10:41:07Z</time>
      </trkpt>
      <trkpt lat="47.71956" lon="3.48474">
        <ele>176.2</ele>
        <time>2022-01-12T10:41:08Z</time>
      </trkpt>
      <trkpt lat="47.71954" lon="3.48475">
        <ele>176.2</ele>
        <time>2022-01-12T10:41:09Z</time>
      </trkpt>
      <trkpt lat="47.71953" lon="3.48476">
        <ele>176.2</ele>
        <time>2022-01-12T10:41:11Z</time>
      </trkpt>
      <trkpt lat="47.71952" lon="3.48477">
        <ele>176.3</ele>
        <time>2022-01-12T10:41:12Z</time>
      </trkpt>
      <trkpt lat="47.71952" lon="3.48478">
        <ele>176.3</ele>
        <time>2022-01-12T10:41:13Z</time>
      </trkpt>
      <trkpt lat="47.71951" lon="3.48479">
        <ele>176.3</ele>
        <time>2022-01-12T10:41:14Z</time>
      </trkpt>
      <trkpt lat="47.71949" lon="3.48481">
        <ele>176.3</ele>
        <time>2022-01-12T10:41:15Z</time>
      </trkpt>
      <trkpt lat="47.71948" lon="3.48482">
        <ele>176.3</ele>
        <time>2022-01-12T10:41:16Z</time>
      </trkpt>
      <trkpt lat="47.71948" lon="3.48483">
        <ele>176.3</ele>
        <time>2022-01-12T10:41:17Z</time>
      </trkpt>
      <trkpt lat="47.71946" lon="3.48485">
        <ele>176.4</ele>
        <time>2022-01-12T10:41:18Z</time>
      </trkpt>
      <trkpt lat="47.71945" lon="3.48486">
        <ele>176.4</ele>
        <time>2022-01-12T10:41:19Z</time>
      </trkpt>
      <trkpt lat="47.71944" lon="3.48486">
        <ele>176.4</ele>
        <time>2022-01-12T10:41:20Z</time>
      </trkpt>
      <trkpt lat="47.71943" lon="3.48487">
        <ele>176.4</ele>
        <time>2022-01-12T10:41:21Z</time>
      </trkpt>
      <trkpt lat="47.71942" lon="3.48489">
        <ele>176.4</ele>
        <time>2022-01-12T10:41:22Z</time>
      </trkpt>
      <trkpt lat="47.71941" lon="3.4849">
        <ele>176.5</ele>
        <time>2022-01-12T10:41:24Z</time>
      </trkpt>
      <trkpt lat="47.71939" lon="3.48492">
        <ele>176.5</ele>
        <time>2022-01-12T10:41:25Z</time>
      </trkpt>
      <trkpt lat="47.71937" lon="3.48493">
        <ele>176.5</ele>
        <time>2022-01-12T10:41:27Z</time>
      </trkpt>
      <trkpt lat="47.71936" lon="3.48494">
        <ele>176.6</ele>
        <time>2022-01-12T10:41:28Z</time>
      </trkpt>
      <trkpt lat="47.71934" lon="3.48496">
        <ele>176.6</ele>
        <time>2022-01-12T10:41:29Z</time>
      </trkpt>
      <trkpt lat="47.71932" lon="3.485">
        <ele>176.7</ele>
        <time>2022-01-12T10:41:31Z</time>
      </trkpt>
      <trkpt lat="47.71931" lon="3.48501">
        <ele>176.7</ele>
        <time>2022-01-12T10:41:32Z</time>
      </trkpt>
      <trkpt lat="47.71931" lon="3.48503">
        <ele>176.7</ele>
        <time>2022-01-12T10:41:34Z</time>
      </trkpt>
      <trkpt lat="47.71931" lon="3.48504">
        <ele>176.7</ele>
        <time>2022-01-12T10:41:35Z</time>
      </trkpt>
      <trkpt lat="47.7193" lon="3.48507">
        <ele>176.8</ele>
        <time>2022-01-12T10:41:36Z</time>
      </trkpt>
      <trkpt lat="47.7193" lon="3.48508">
        <ele>176.8</ele>
        <time>2022-01-12T10:41:38Z</time>
      </trkpt>
      <trkpt lat="47.7193" lon="3.4851">
        <ele>176.8</ele>
        <time>2022-01-12T10:41:39Z</time>
      </trkpt>
      <trkpt lat="47.71931" lon="3.48512">
        <ele>176.9</ele>
        <time>2022-01-12T10:41:40Z</time>
      </trkpt>
      <trkpt lat="47.71931" lon="3.48514">
        <ele>176.9</ele>
        <time>2022-01-12T10:41:42Z</time>
      </trkpt>
      <trkpt lat="47.71931" lon="3.48516">
        <ele>176.9</ele>
        <time>2022-01-12T10:41:43Z</time>
      </trkpt>
      <trkpt lat="47.71931" lon="3.48518">
        <ele>177</ele>
        <time>2022-01-12T10:41:44Z</time>
      </trkpt>
      <trkpt lat="47.71931" lon="3.48519">
        <ele>177</ele>
        <time>2022-01-12T10:41:45Z</time>
      </trkpt>
      <trkpt lat="47.71931" lon="3.48521">
        <ele>177</ele>
        <time>2022-01-12T10:41:46Z</time>
      </trkpt>
      <trkpt lat="47.71931" lon="3.48522">
        <ele>177</ele>
        <time>2022-01-12T10:41:47Z</time>
      </trkpt>
      <trkpt lat="47.71932" lon="3.48524">
        <ele>177.1</ele>
        <time>2022-01-12T10:41:49Z</time>
      </trkpt>
      <trkpt lat="47.71933" lon="3.48526">
        <ele>177.1</ele>
        <time>2022-01-12T10:41:50Z</time>
      </trkpt>
      <trkpt lat="47.71934" lon="3.48528">
        <ele>177.2</ele>
        <time>2022-01-12T10:41:51Z</time>
      </trkpt>
      <trkpt lat="47.71934" lon="3.48529">
        <ele>177.2</ele>
        <time>2022-01-12T10:41:52Z</time>
      </trkpt>
      <trkpt lat="47.71935" lon="3.4853">
        <ele>177.2</ele>
        <time>2022-01-12T10:41:53Z</time>
      </trkpt>
      <trkpt lat="47.71935" lon="3.48531">
        <ele>177.2</ele>
        <time>2022-01-12T10:41:54Z</time>
      </trkpt>
      <trkpt lat="47.71936" lon="3.48531">
        <ele>177.3</ele>
        <time>2022-01-12T10:41:55Z</time>
      </trkpt>
      <trkpt lat="47.71937" lon="3.48532">
        <ele>177.3</ele>
        <time>2022-01-12T10:41:57Z</time>
      </trkpt>
      <trkpt lat="47.71937" lon="3.48533">
        <ele>177.3</ele>
        <time>2022-01-12T10:41:58Z</time>
      </trkpt>
      <trkpt lat="47.71937" lon="3.48534">
        <ele>177.3</ele>
        <time>2022-01-12T10:41:59Z</time>
      </trkpt>
      <trkpt lat="47.71937" lon="3.48535">
        <ele>177.4</ele>
        <time>2022-01-12T10:42:00Z</time>
      </trkpt>
      <trkpt lat="47.71937" lon="3.48536">
        <ele>177.4</ele>
        <time>2022-01-12T10:42:01Z</time>
      </trkpt>
      <trkpt lat="47.71937" lon="3.48537">
        <ele>177.4</ele>
        <time>2022-01-12T10:42:02Z</time>
      </trkpt>
    </trkseg>
  </trk>
</gpx>